<?xml version='1.0' encoding='UTF-8'?><gpx version="1.1" creator="JPX - https://github.com/jenetics/jpx" xmlns="http://www.topografix.com/GPX/1/1"><trk><trkseg><trkpt lat="43.79780219465653" lon="11.22153868148312"><ele>41.33333333333333</ele><time>2026-05-01T07:46:43.999Z</time></trkpt><trkpt lat="43.79780960485752" lon="11.22142195360392"><ele>41.666666666666664</ele><time>2026-05-01T07:47:22.999Z</time></trkpt><trkpt lat="43.79778180307445" lon="11.22131290048339"><ele>42.0</ele><time>2026-05-01T07:47:41.999Z</time></trkpt><trkpt lat="43.79773850630375" lon="11.221249013041362"><ele>42.333333333333336</ele><time>2026-05-01T07:47:44.999Z</time></trkpt><trkpt lat="43.79767842186848" lon="11.221180089974606"><ele>42.66666666666667</ele><time>2026-05-01T07:48:21.999Z</time></trkpt><trkpt lat="43.7976650063415" lon="11.221054588843389"><ele>43.0</ele><time>2026-05-01T07:48:23.999Z</time></trkpt><trkpt lat="43.797686871314404" lon="11.220879054776"><ele>43.0</ele><time>2026-05-01T07:48:25.999Z</time></trkpt><trkpt lat="43.797704830299544" lon="11.220708748540597"><ele>43.0</ele><time>2026-05-01T07:48:27.999Z</time></trkpt><trkpt lat="43.797711026637025" lon="11.220615889566812"><ele>43.0</ele><time>2026-05-01T07:48:28.999Z</time></trkpt><trkpt lat="43.79772361731725" lon="11.220522942193432"><ele>43.0</ele><time>2026-05-01T07:48:29.999Z</time></trkpt><trkpt lat="43.79774642413021" lon="11.220426852781285"><ele>43.0</ele><time>2026-05-01T07:48:30.999Z</time></trkpt><trkpt lat="43.79778728057401" lon="11.220347968029648"><ele>43.0</ele><time>2026-05-01T07:48:31.999Z</time></trkpt><trkpt lat="43.797840451177116" lon="11.220271832287489"><ele>43.0</ele><time>2026-05-01T07:48:32.999Z</time></trkpt><trkpt lat="43.79792382159261" lon="11.220126495066692"><ele>43.0</ele><time>2026-05-01T07:48:34.999Z</time></trkpt><trkpt lat="43.79794346591905" lon="11.220033765460299"><ele>43.0</ele><time>2026-05-01T07:48:35.999Z</time></trkpt><trkpt lat="43.79795833743924" lon="11.219943809784947"><ele>43.0</ele><time>2026-05-01T07:48:36.999Z</time></trkpt><trkpt lat="43.797969702349306" lon="11.219844031146728"><ele>43.0</ele><time>2026-05-01T07:48:37.999Z</time></trkpt><trkpt lat="43.797986945769935" lon="11.219752926184771"><ele>43.0</ele><time>2026-05-01T07:48:38.999Z</time></trkpt><trkpt lat="43.79800424015083" lon="11.219643326662075"><ele>43.00000000000001</ele><time>2026-05-01T07:48:39.999Z</time></trkpt><trkpt lat="43.79802707771241" lon="11.219543721074485"><ele>43.0</ele><time>2026-05-01T07:48:40.999Z</time></trkpt><trkpt lat="43.79803538928376" lon="11.219451288903322"><ele>43.0</ele><time>2026-05-01T07:48:41.999Z</time></trkpt><trkpt lat="43.79805122305965" lon="11.2193508162329"><ele>43.0</ele><time>2026-05-01T07:48:42.999Z</time></trkpt><trkpt lat="43.79806788686879" lon="11.21925860291307"><ele>43.0</ele><time>2026-05-01T07:48:43.999Z</time></trkpt><trkpt lat="43.79808066392778" lon="11.219165809746476"><ele>43.00000000000001</ele><time>2026-05-01T07:48:44.999Z</time></trkpt><trkpt lat="43.79809958764103" lon="11.219068348214739"><ele>43.0</ele><time>2026-05-01T07:48:45.999Z</time></trkpt><trkpt lat="43.79810967054034" lon="11.21897948666479"><ele>43.16666666666667</ele><time>2026-05-01T07:48:46.999Z</time></trkpt><trkpt lat="43.79811807477043" lon="11.218885003249785"><ele>43.333333333333336</ele><time>2026-05-01T07:48:47.999Z</time></trkpt><trkpt lat="43.79812731504763" lon="11.218790943763901"><ele>43.5</ele><time>2026-05-01T07:48:48.999Z</time></trkpt><trkpt lat="43.798152632999084" lon="11.218655290287117"><ele>43.666666666666664</ele><time>2026-05-01T07:48:50.999Z</time></trkpt><trkpt lat="43.79803103712064" lon="11.218562977281154"><ele>43.83333333333333</ele><time>2026-05-01T07:48:51.999Z</time></trkpt><trkpt lat="43.79798412781281" lon="11.218504796405856"><ele>44.0</ele><time>2026-05-01T07:48:52.999Z</time></trkpt><trkpt lat="43.79789102604433" lon="11.218394431398753"><ele>44.0</ele><time>2026-05-01T07:48:54.999Z</time></trkpt><trkpt lat="43.79779567257889" lon="11.218269690706405"><ele>44.0</ele><time>2026-05-01T07:48:56.999Z</time></trkpt><trkpt lat="43.797732997800935" lon="11.218256033508464"><ele>44.0</ele><time>2026-05-01T07:48:57.999Z</time></trkpt><trkpt lat="43.79764667283968" lon="11.21831638121731"><ele>44.0</ele><time>2026-05-01T07:48:58.999Z</time></trkpt><trkpt lat="43.797591273040204" lon="11.218397103832181"><ele>44.0</ele><time>2026-05-01T07:48:59.999Z</time></trkpt><trkpt lat="43.797542624209456" lon="11.218459844155333"><ele>44.0</ele><time>2026-05-01T07:49:00.999Z</time></trkpt><trkpt lat="43.797588785945855" lon="11.218613509100479"><ele>44.2</ele><time>2026-05-01T07:49:01.999Z</time></trkpt><trkpt lat="43.797613120079774" lon="11.218728215653003"><ele>44.400000000000006</ele><time>2026-05-01T07:49:03.999Z</time></trkpt><trkpt lat="43.797614786964104" lon="11.218856523789096"><ele>44.6</ele><time>2026-05-01T07:49:07.999Z</time></trkpt><trkpt lat="43.79759797477415" lon="11.218983642517063"><ele>44.8</ele><time>2026-05-01T07:49:09.999Z</time></trkpt><trkpt lat="43.79757365951592" lon="11.219161344121188"><ele>45.0</ele><time>2026-05-01T07:49:11.999Z</time></trkpt><trkpt lat="43.797563623562255" lon="11.219270648887766"><ele>45.0</ele><time>2026-05-01T07:49:12.999Z</time></trkpt><trkpt lat="43.79755129711678" lon="11.219392807866859"><ele>45.0</ele><time>2026-05-01T07:49:13.999Z</time></trkpt><trkpt lat="43.79753713673771" lon="11.219513933149132"><ele>45.0</ele><time>2026-05-01T07:49:14.999Z</time></trkpt><trkpt lat="43.797522307948334" lon="11.21962991524556"><ele>45.0</ele><time>2026-05-01T07:49:16Z</time></trkpt><trkpt lat="43.79751407434198" lon="11.21975168180287"><ele>45.0</ele><time>2026-05-01T07:49:17Z</time></trkpt><trkpt lat="43.79749823260372" lon="11.2198804322436"><ele>45.0</ele><time>2026-05-01T07:49:18Z</time></trkpt><trkpt lat="43.79748365794642" lon="11.220015693967387"><ele>45.0</ele><time>2026-05-01T07:49:19Z</time></trkpt><trkpt lat="43.79747432332586" lon="11.220145379857419"><ele>45.0</ele><time>2026-05-01T07:49:20Z</time></trkpt><trkpt lat="43.797457822416376" lon="11.220271230981988"><ele>45.0</ele><time>2026-05-01T07:49:21Z</time></trkpt><trkpt lat="43.79743682876524" lon="11.220397411344177"><ele>45.0</ele><time>2026-05-01T07:49:22Z</time></trkpt><trkpt lat="43.79742444900016" lon="11.220527134318608"><ele>45.0</ele><time>2026-05-01T07:49:23Z</time></trkpt><trkpt lat="43.797412186325964" lon="11.220656933471552"><ele>45.333333333333336</ele><time>2026-05-01T07:49:24Z</time></trkpt><trkpt lat="43.79740029316891" lon="11.220781381934291"><ele>45.666666666666664</ele><time>2026-05-01T07:49:25Z</time></trkpt><trkpt lat="43.79738337214027" lon="11.220897476543577"><ele>46.0</ele><time>2026-05-01T07:49:26Z</time></trkpt><trkpt lat="43.797367073016794" lon="11.220999755382222"><ele>46.33333333333333</ele><time>2026-05-01T07:49:27Z</time></trkpt><trkpt lat="43.797354477479985" lon="11.221090359995095"><ele>46.666666666666664</ele><time>2026-05-01T07:49:28Z</time></trkpt><trkpt lat="43.79734082863877" lon="11.221255691222886"><ele>47.0</ele><time>2026-05-01T07:49:30Z</time></trkpt><trkpt lat="43.797331205227124" lon="11.221406897107178"><ele>46.666666666666664</ele><time>2026-05-01T07:49:32Z</time></trkpt><trkpt lat="43.797319048038574" lon="11.221502835740948"><ele>46.33333333333333</ele><time>2026-05-01T07:49:33Z</time></trkpt><trkpt lat="43.797302547111244" lon="11.221596495939549"><ele>46.0</ele><time>2026-05-01T07:49:34Z</time></trkpt><trkpt lat="43.79729016303201" lon="11.221702440727393"><ele>45.666666666666664</ele><time>2026-05-01T07:49:35Z</time></trkpt><trkpt lat="43.797277956783674" lon="11.221797711617846"><ele>45.333333333333336</ele><time>2026-05-01T07:49:36Z</time></trkpt><trkpt lat="43.7972744651402" lon="11.221888822673105"><ele>45.0</ele><time>2026-05-01T07:49:37Z</time></trkpt><trkpt lat="43.79725514850106" lon="11.22202678502847"><ele>45.0</ele><time>2026-05-01T07:49:39Z</time></trkpt><trkpt lat="43.79724170205949" lon="11.222144510721883"><ele>45.0</ele><time>2026-05-01T07:49:40.999Z</time></trkpt><trkpt lat="43.797219564788065" lon="11.222281929613521"><ele>45.0</ele><time>2026-05-01T07:49:42.999Z</time></trkpt><trkpt lat="43.79714413348022" lon="11.222394614321663"><ele>45.0</ele><time>2026-05-01T07:49:44.999Z</time></trkpt><trkpt lat="43.79705984215934" lon="11.22241893599313"><ele>45.0</ele><time>2026-05-01T07:49:45.999Z</time></trkpt><trkpt lat="43.796981379908544" lon="11.222402063165447"><ele>45.0</ele><time>2026-05-01T07:49:46.999Z</time></trkpt><trkpt lat="43.79690521080159" lon="11.222339116665369"><ele>45.0</ele><time>2026-05-01T07:49:47.999Z</time></trkpt><trkpt lat="43.79682317020513" lon="11.22227167933259"><ele>45.0</ele><time>2026-05-01T07:49:48.999Z</time></trkpt><trkpt lat="43.79676144222061" lon="11.222142093225047"><ele>45.0</ele><time>2026-05-01T07:49:49.999Z</time></trkpt><trkpt lat="43.79668527362753" lon="11.222056414566511"><ele>45.0</ele><time>2026-05-01T07:49:50.999Z</time></trkpt><trkpt lat="43.796604504445675" lon="11.221982032691093"><ele>45.6</ele><time>2026-05-01T07:49:51.999Z</time></trkpt><trkpt lat="43.796533382409905" lon="11.221895268300225"><ele>46.2</ele><time>2026-05-01T07:49:52.999Z</time></trkpt><trkpt lat="43.796462317486345" lon="11.221800126533562"><ele>46.8</ele><time>2026-05-01T07:49:53.999Z</time></trkpt><trkpt lat="43.79638639249528" lon="11.221711182909527"><ele>47.4</ele><time>2026-05-01T07:49:54.999Z</time></trkpt><trkpt lat="43.79631009617452" lon="11.221625829643772"><ele>48.0</ele><time>2026-05-01T07:49:55.999Z</time></trkpt><trkpt lat="43.79623544959523" lon="11.221541958072832"><ele>48.8</ele><time>2026-05-01T07:49:56.999Z</time></trkpt><trkpt lat="43.79616208557206" lon="11.221457382621555"><ele>49.599999999999994</ele><time>2026-05-01T07:49:57.999Z</time></trkpt><trkpt lat="43.79609066662701" lon="11.221372320329296"><ele>50.400000000000006</ele><time>2026-05-01T07:49:58.999Z</time></trkpt><trkpt lat="43.79602002994818" lon="11.221289411222768"><ele>51.2</ele><time>2026-05-01T07:49:59.999Z</time></trkpt><trkpt lat="43.79595264238483" lon="11.221206478070437"><ele>52.0</ele><time>2026-05-01T07:50:00.999Z</time></trkpt><trkpt lat="43.79588731958973" lon="11.221131110003522"><ele>50.666666666666664</ele><time>2026-05-01T07:50:01.999Z</time></trkpt><trkpt lat="43.795824368558996" lon="11.221055323338032"><ele>49.33333333333333</ele><time>2026-05-01T07:50:02.999Z</time></trkpt><trkpt lat="43.795768110685856" lon="11.220985848673127"><ele>48.0</ele><time>2026-05-01T07:50:03.999Z</time></trkpt><trkpt lat="43.7957096879238" lon="11.220913791264527"><ele>46.666666666666664</ele><time>2026-05-01T07:50:04.999Z</time></trkpt><trkpt lat="43.79564268662518" lon="11.220840612508637"><ele>45.33333333333333</ele><time>2026-05-01T07:50:05.999Z</time></trkpt><trkpt lat="43.79557019650705" lon="11.22075954596648"><ele>44.0</ele><time>2026-05-01T07:50:06.999Z</time></trkpt><trkpt lat="43.795493338799524" lon="11.220674477429858"><ele>44.166666666666664</ele><time>2026-05-01T07:50:07.999Z</time></trkpt><trkpt lat="43.795417640345306" lon="11.220589028678104"><ele>44.33333333333333</ele><time>2026-05-01T07:50:08.999Z</time></trkpt><trkpt lat="43.79535104423161" lon="11.22051079919159"><ele>44.5</ele><time>2026-05-01T07:50:09.999Z</time></trkpt><trkpt lat="43.79529413966372" lon="11.220442150818545"><ele>44.666666666666664</ele><time>2026-05-01T07:50:10.999Z</time></trkpt><trkpt lat="43.79523919623383" lon="11.220365521128022"><ele>44.833333333333336</ele><time>2026-05-01T07:50:11.999Z</time></trkpt><trkpt lat="43.795176445819834" lon="11.22029345747029"><ele>45.0</ele><time>2026-05-01T07:50:12.999Z</time></trkpt><trkpt lat="43.79511384796171" lon="11.220219788774326"><ele>44.5</ele><time>2026-05-01T07:50:13.999Z</time></trkpt><trkpt lat="43.795051547913054" lon="11.220145329936702"><ele>44.0</ele><time>2026-05-01T07:50:14.999Z</time></trkpt><trkpt lat="43.79498481560654" lon="11.220069467023032"><ele>43.5</ele><time>2026-05-01T07:50:15.999Z</time></trkpt><trkpt lat="43.794924078159774" lon="11.21999907210755"><ele>43.0</ele><time>2026-05-01T07:50:16.999Z</time></trkpt><trkpt lat="43.79486721128142" lon="11.219930188676017"><ele>42.5</ele><time>2026-05-01T07:50:17.999Z</time></trkpt><trkpt lat="43.79481667469826" lon="11.219869987659136"><ele>42.0</ele><time>2026-05-01T07:50:18.999Z</time></trkpt><trkpt lat="43.79473259692712" lon="11.219770092475425"><ele>42.0</ele><time>2026-05-01T07:50:20.999Z</time></trkpt><trkpt lat="43.79465572938943" lon="11.219685883047278"><ele>42.0</ele><time>2026-05-01T07:50:22.999Z</time></trkpt><trkpt lat="43.79460058309855" lon="11.21962337189409"><ele>42.0</ele><time>2026-05-01T07:50:25.999Z</time></trkpt><trkpt lat="43.794526498281215" lon="11.219574242604345"><ele>42.0</ele><time>2026-05-01T07:51:15Z</time></trkpt><trkpt lat="43.79447009554614" lon="11.219532719742924"><ele>42.0</ele><time>2026-05-01T07:51:17Z</time></trkpt><trkpt lat="43.794397921377595" lon="11.219477870691872"><ele>42.0</ele><time>2026-05-01T07:51:19Z</time></trkpt><trkpt lat="43.794317115490244" lon="11.219419879201405"><ele>41.857142857142854</ele><time>2026-05-01T07:51:22Z</time></trkpt><trkpt lat="43.794236083688325" lon="11.219365912393693"><ele>41.714285714285715</ele><time>2026-05-01T07:51:24Z</time></trkpt><trkpt lat="43.79418553220177" lon="11.21930954557493"><ele>41.57142857142857</ele><time>2026-05-01T07:51:25Z</time></trkpt><trkpt lat="43.79412351591217" lon="11.219267795927403"><ele>41.42857142857143</ele><time>2026-05-01T07:51:26Z</time></trkpt><trkpt lat="43.79405395613614" lon="11.21924338266676"><ele>41.285714285714285</ele><time>2026-05-01T07:51:27Z</time></trkpt><trkpt lat="43.79399044637522" lon="11.219193016186226"><ele>41.14285714285714</ele><time>2026-05-01T07:51:28Z</time></trkpt><trkpt lat="43.79392827838426" lon="11.219150013184567"><ele>41.0</ele><time>2026-05-01T07:51:29Z</time></trkpt><trkpt lat="43.79383344251132" lon="11.21907151949273"><ele>41.0</ele><time>2026-05-01T07:51:31Z</time></trkpt><trkpt lat="43.79377197622597" lon="11.219031481306965"><ele>41.0</ele><time>2026-05-01T07:51:33Z</time></trkpt><trkpt lat="43.793676876951665" lon="11.219238679439773"><ele>41.0</ele><time>2026-05-01T07:51:35Z</time></trkpt><trkpt lat="43.79363098525258" lon="11.219358129288645"><ele>41.0</ele><time>2026-05-01T07:51:37Z</time></trkpt><trkpt lat="43.79347262465149" lon="11.21925743709063"><ele>41.33333333333333</ele><time>2026-05-01T07:51:39Z</time></trkpt><trkpt lat="43.793403992137414" lon="11.219188486566331"><ele>41.666666666666664</ele><time>2026-05-01T07:51:40Z</time></trkpt><trkpt lat="43.79333292724433" lon="11.219127600321439"><ele>42.0</ele><time>2026-05-01T07:51:41Z</time></trkpt><trkpt lat="43.793258922393214" lon="11.219068782926737"><ele>42.333333333333336</ele><time>2026-05-01T07:51:42Z</time></trkpt><trkpt lat="43.79318688818977" lon="11.21901203989853"><ele>42.66666666666667</ele><time>2026-05-01T07:51:43Z</time></trkpt><trkpt lat="43.793115340779195" lon="11.218957257529643"><ele>43.0</ele><time>2026-05-01T07:51:44Z</time></trkpt><trkpt lat="43.79304836225189" lon="11.218906002700983"><ele>43.0</ele><time>2026-05-01T07:51:45Z</time></trkpt><trkpt lat="43.79297905494468" lon="11.218850371568761"><ele>43.0</ele><time>2026-05-01T07:51:46Z</time></trkpt><trkpt lat="43.79290913906567" lon="11.218789185382985"><ele>43.0</ele><time>2026-05-01T07:51:47Z</time></trkpt><trkpt lat="43.7928316355368" lon="11.218726445081064"><ele>43.0</ele><time>2026-05-01T07:51:48Z</time></trkpt><trkpt lat="43.79275377149602" lon="11.218663283950631"><ele>43.0</ele><time>2026-05-01T07:51:49Z</time></trkpt><trkpt lat="43.792671646850096" lon="11.218595367753855"><ele>43.0</ele><time>2026-05-01T07:51:50Z</time></trkpt><trkpt lat="43.79259279385143" lon="11.218531875680759"><ele>43.16666666666667</ele><time>2026-05-01T07:51:51Z</time></trkpt><trkpt lat="43.792519007307014" lon="11.218466526249191"><ele>43.333333333333336</ele><time>2026-05-01T07:51:52Z</time></trkpt><trkpt lat="43.79244592221775" lon="11.2184031606911"><ele>43.5</ele><time>2026-05-01T07:51:53Z</time></trkpt><trkpt lat="43.792375147745986" lon="11.218345606776433"><ele>43.666666666666664</ele><time>2026-05-01T07:51:54Z</time></trkpt><trkpt lat="43.79230454967738" lon="11.218289025899153"><ele>43.83333333333333</ele><time>2026-05-01T07:51:55Z</time></trkpt><trkpt lat="43.792238089676545" lon="11.218233425259074"><ele>44.0</ele><time>2026-05-01T07:51:56Z</time></trkpt><trkpt lat="43.79218081622525" lon="11.218185958679603"><ele>44.0</ele><time>2026-05-01T07:51:57Z</time></trkpt><trkpt lat="43.792127036268035" lon="11.218137982608193"><ele>44.0</ele><time>2026-05-01T07:51:58Z</time></trkpt><trkpt lat="43.792030409319736" lon="11.218059209168054"><ele>44.0</ele><time>2026-05-01T07:52:00Z</time></trkpt><trkpt lat="43.7919682221006" lon="11.218019861024978"><ele>44.0</ele><time>2026-05-01T07:52:02Z</time></trkpt><trkpt lat="43.79191254914092" lon="11.217976317084052"><ele>44.0</ele><time>2026-05-01T07:52:16.999Z</time></trkpt><trkpt lat="43.79185148074222" lon="11.217918795140598"><ele>44.0</ele><time>2026-05-01T07:52:18.999Z</time></trkpt><trkpt lat="43.79176051924177" lon="11.217881908894292"><ele>43.83333333333333</ele><time>2026-05-01T07:52:20.999Z</time></trkpt><trkpt lat="43.79166010091558" lon="11.217978694946284"><ele>43.666666666666664</ele><time>2026-05-01T07:52:22.999Z</time></trkpt><trkpt lat="43.791647406034194" lon="11.218068777118637"><ele>43.5</ele><time>2026-05-01T07:52:23.999Z</time></trkpt><trkpt lat="43.79161982271609" lon="11.218164850416283"><ele>43.333333333333336</ele><time>2026-05-01T07:52:24.999Z</time></trkpt><trkpt lat="43.79158310650999" lon="11.218244451957306"><ele>43.16666666666667</ele><time>2026-05-01T07:52:25.999Z</time></trkpt><trkpt lat="43.79157867456669" lon="11.218341097987684"><ele>43.0</ele><time>2026-05-01T07:52:26.999Z</time></trkpt><trkpt lat="43.79155208297202" lon="11.218426164185791"><ele>43.0</ele><time>2026-05-01T07:52:27.999Z</time></trkpt><trkpt lat="43.791527334597525" lon="11.218512954259534"><ele>43.0</ele><time>2026-05-01T07:52:28.999Z</time></trkpt><trkpt lat="43.79150104320138" lon="11.218603073721033"><ele>43.0</ele><time>2026-05-01T07:52:29.999Z</time></trkpt><trkpt lat="43.791467927354745" lon="11.218700434764772"><ele>43.0</ele><time>2026-05-01T07:52:30.999Z</time></trkpt><trkpt lat="43.79143562806563" lon="11.218813501539275"><ele>43.0</ele><time>2026-05-01T07:52:31.999Z</time></trkpt><trkpt lat="43.79139953551208" lon="11.218929516397749"><ele>43.0</ele><time>2026-05-01T07:52:32.999Z</time></trkpt><trkpt lat="43.791364850239376" lon="11.219052313518645"><ele>43.333333333333336</ele><time>2026-05-01T07:52:33.999Z</time></trkpt><trkpt lat="43.79132788234534" lon="11.21917323524665"><ele>43.66666666666667</ele><time>2026-05-01T07:52:34.999Z</time></trkpt><trkpt lat="43.79127572275603" lon="11.21927450432262"><ele>44.0</ele><time>2026-05-01T07:52:35.999Z</time></trkpt><trkpt lat="43.79124583576364" lon="11.219376065447824"><ele>44.333333333333336</ele><time>2026-05-01T07:52:36.999Z</time></trkpt><trkpt lat="43.79121773008316" lon="11.219471418368755"><ele>44.666666666666664</ele><time>2026-05-01T07:52:37.999Z</time></trkpt><trkpt lat="43.791187187996734" lon="11.219574848498675"><ele>45.0</ele><time>2026-05-01T07:52:38.999Z</time></trkpt><trkpt lat="43.79115552976007" lon="11.219682058468345"><ele>45.0</ele><time>2026-05-01T07:52:39.999Z</time></trkpt><trkpt lat="43.79112805421101" lon="11.219774244004133"><ele>45.0</ele><time>2026-05-01T07:52:40.999Z</time></trkpt><trkpt lat="43.79110090933439" lon="11.219864531134549"><ele>45.0</ele><time>2026-05-01T07:52:41.999Z</time></trkpt><trkpt lat="43.79105749547887" lon="11.220008931883823"><ele>45.0</ele><time>2026-05-01T07:52:43.999Z</time></trkpt><trkpt lat="43.79103242113727" lon="11.220092835569805"><ele>45.0</ele><time>2026-05-01T07:52:44.999Z</time></trkpt><trkpt lat="43.791005394497795" lon="11.220183003203315"><ele>45.0</ele><time>2026-05-01T07:52:45.999Z</time></trkpt><trkpt lat="43.790977563354204" lon="11.220275854800123"><ele>45.0</ele><time>2026-05-01T07:52:46.999Z</time></trkpt><trkpt lat="43.79094946521656" lon="11.220369597213923"><ele>45.0</ele><time>2026-05-01T07:52:47.999Z</time></trkpt><trkpt lat="43.79092315752738" lon="11.220457366188139"><ele>45.0</ele><time>2026-05-01T07:52:48.999Z</time></trkpt><trkpt lat="43.79089821677038" lon="11.220540574854166"><ele>45.0</ele><time>2026-05-01T07:52:49.999Z</time></trkpt><trkpt lat="43.79086585506048" lon="11.220694419030382"><ele>45.0</ele><time>2026-05-01T07:52:51.999Z</time></trkpt><trkpt lat="43.79080810335117" lon="11.220855781334809"><ele>45.0</ele><time>2026-05-01T07:52:53.999Z</time></trkpt><trkpt lat="43.79078786003824" lon="11.220944773665108"><ele>45.0</ele><time>2026-05-01T07:52:54.999Z</time></trkpt><trkpt lat="43.79074953570324" lon="11.221033378964224"><ele>45.0</ele><time>2026-05-01T07:52:55.999Z</time></trkpt><trkpt lat="43.790719550477064" lon="11.221132769982072"><ele>45.0</ele><time>2026-05-01T07:52:56.999Z</time></trkpt><trkpt lat="43.79068928879778" lon="11.221233077347831"><ele>45.0</ele><time>2026-05-01T07:52:57.999Z</time></trkpt><trkpt lat="43.79065894330377" lon="11.22133366250402"><ele>45.0</ele><time>2026-05-01T07:52:58.999Z</time></trkpt><trkpt lat="43.79062814338776" lon="11.221435753928528"><ele>45.2</ele><time>2026-05-01T07:52:59.999Z</time></trkpt><trkpt lat="43.79059531142712" lon="11.221543927096967"><ele>45.4</ele><time>2026-05-01T07:53:00.999Z</time></trkpt><trkpt lat="43.79056116054266" lon="11.221655603166077"><ele>45.599999999999994</ele><time>2026-05-01T07:53:01.999Z</time></trkpt><trkpt lat="43.79052437678079" lon="11.2217756731535"><ele>45.8</ele><time>2026-05-01T07:53:02.999Z</time></trkpt><trkpt lat="43.79048738933139" lon="11.22189640799132"><ele>46.0</ele><time>2026-05-01T07:53:03.999Z</time></trkpt><trkpt lat="43.79044998311535" lon="11.222018111471884"><ele>46.0</ele><time>2026-05-01T07:53:04.999Z</time></trkpt><trkpt lat="43.79041145611681" lon="11.222141648452332"><ele>46.0</ele><time>2026-05-01T07:53:05.999Z</time></trkpt><trkpt lat="43.79036930409925" lon="11.222276809011047"><ele>46.0</ele><time>2026-05-01T07:53:06.999Z</time></trkpt><trkpt lat="43.79033180058994" lon="11.222396618110478"><ele>46.0</ele><time>2026-05-01T07:53:07.999Z</time></trkpt><trkpt lat="43.79029232340944" lon="11.222515147852778"><ele>46.0</ele><time>2026-05-01T07:53:08.999Z</time></trkpt><trkpt lat="43.79025362609017" lon="11.22263133609845"><ele>45.5</ele><time>2026-05-01T07:53:09.999Z</time></trkpt><trkpt lat="43.79022884299962" lon="11.222755592095442"><ele>45.0</ele><time>2026-05-01T07:53:10.999Z</time></trkpt><trkpt lat="43.79017945574064" lon="11.222868774172245"><ele>44.5</ele><time>2026-05-01T07:53:11.999Z</time></trkpt><trkpt lat="43.7900486602971" lon="11.223093232635279"><ele>44.0</ele><time>2026-05-01T07:53:14Z</time></trkpt><trkpt lat="43.789977645888214" lon="11.223191827736617"><ele>44.0</ele><time>2026-05-01T07:53:15Z</time></trkpt><trkpt lat="43.78990448120753" lon="11.22328232580771"><ele>44.0</ele><time>2026-05-01T07:53:16Z</time></trkpt><trkpt lat="43.78981823588404" lon="11.223342426362414"><ele>44.0</ele><time>2026-05-01T07:53:17Z</time></trkpt><trkpt lat="43.78973385747398" lon="11.223416919873761"><ele>44.0</ele><time>2026-05-01T07:53:18Z</time></trkpt><trkpt lat="43.789659104635945" lon="11.223512150749942"><ele>44.0</ele><time>2026-05-01T07:53:19Z</time></trkpt><trkpt lat="43.78957903271141" lon="11.223590807059976"><ele>44.0</ele><time>2026-05-01T07:53:20Z</time></trkpt><trkpt lat="43.789495345174764" lon="11.223657026761911"><ele>44.0</ele><time>2026-05-01T07:53:21Z</time></trkpt><trkpt lat="43.78941585830647" lon="11.223726900210258"><ele>44.0</ele><time>2026-05-01T07:53:22Z</time></trkpt><trkpt lat="43.78933016651092" lon="11.223765868917907"><ele>44.0</ele><time>2026-05-01T07:53:23Z</time></trkpt><trkpt lat="43.78926020884218" lon="11.223827184770915"><ele>44.0</ele><time>2026-05-01T07:53:24Z</time></trkpt><trkpt lat="43.78919251750145" lon="11.22388710923128"><ele>44.0</ele><time>2026-05-01T07:53:25Z</time></trkpt><trkpt lat="43.789133211280145" lon="11.223940290256099"><ele>44.0</ele><time>2026-05-01T07:53:26Z</time></trkpt><trkpt lat="43.789081703832046" lon="11.22403396835116"><ele>44.0</ele><time>2026-05-01T07:53:28Z</time></trkpt><trkpt lat="43.78900436898467" lon="11.224109122620801"><ele>44.0</ele><time>2026-05-01T07:53:30Z</time></trkpt><trkpt lat="43.78894580715967" lon="11.224164102650853"><ele>44.0</ele><time>2026-05-01T07:53:31Z</time></trkpt><trkpt lat="43.78885985942903" lon="11.224188000532966"><ele>44.0</ele><time>2026-05-01T07:53:32Z</time></trkpt><trkpt lat="43.788792046021825" lon="11.224249700732098"><ele>44.0</ele><time>2026-05-01T07:53:33Z</time></trkpt><trkpt lat="43.788721588104195" lon="11.224313725341982"><ele>44.0</ele><time>2026-05-01T07:53:34Z</time></trkpt><trkpt lat="43.7886512443283" lon="11.224377674206568"><ele>44.0</ele><time>2026-05-01T07:53:35Z</time></trkpt><trkpt lat="43.78858536610581" lon="11.224455908059152"><ele>44.0</ele><time>2026-05-01T07:53:36Z</time></trkpt><trkpt lat="43.78851093109881" lon="11.224514874427975"><ele>44.0</ele><time>2026-05-01T07:53:37Z</time></trkpt><trkpt lat="43.78844110603385" lon="11.224572772807669"><ele>44.0</ele><time>2026-05-01T07:53:38Z</time></trkpt><trkpt lat="43.78836791401324" lon="11.22462773431428"><ele>44.0</ele><time>2026-05-01T07:53:39Z</time></trkpt><trkpt lat="43.78829158087368" lon="11.224683581598189"><ele>44.42857142857143</ele><time>2026-05-01T07:53:40Z</time></trkpt><trkpt lat="43.78822548188749" lon="11.22473764313938"><ele>44.857142857142854</ele><time>2026-05-01T07:53:41Z</time></trkpt><trkpt lat="43.78815788630607" lon="11.224791689488645"><ele>45.285714285714285</ele><time>2026-05-01T07:53:42Z</time></trkpt><trkpt lat="43.78809148266636" lon="11.224843266534265"><ele>45.714285714285715</ele><time>2026-05-01T07:53:43Z</time></trkpt><trkpt lat="43.78802617370618" lon="11.22489339662504"><ele>46.14285714285714</ele><time>2026-05-01T07:53:44Z</time></trkpt><trkpt lat="43.787964612158575" lon="11.224944282089195"><ele>46.57142857142857</ele><time>2026-05-01T07:53:45Z</time></trkpt><trkpt lat="43.78791091686082" lon="11.22499028546834"><ele>47.0</ele><time>2026-05-01T07:53:46Z</time></trkpt><trkpt lat="43.78783814546486" lon="11.225045233140053"><ele>47.0</ele><time>2026-05-01T07:53:48Z</time></trkpt><trkpt lat="43.787778996676096" lon="11.225097891215386"><ele>47.0</ele><time>2026-05-01T07:53:51Z</time></trkpt><trkpt lat="43.787703349356846" lon="11.225178506910526"><ele>47.0</ele><time>2026-05-01T07:54:17Z</time></trkpt><trkpt lat="43.787637505185664" lon="11.2252710488381"><ele>47.0</ele><time>2026-05-01T07:54:19Z</time></trkpt><trkpt lat="43.787592855903554" lon="11.225333868653648"><ele>47.0</ele><time>2026-05-01T07:54:20Z</time></trkpt><trkpt lat="43.7875419777722" lon="11.22540557261289"><ele>47.0</ele><time>2026-05-01T07:54:21Z</time></trkpt><trkpt lat="43.78749252951814" lon="11.225474693565726"><ele>47.0</ele><time>2026-05-01T07:54:22Z</time></trkpt><trkpt lat="43.78743963338923" lon="11.225556625845389"><ele>47.0</ele><time>2026-05-01T07:54:23Z</time></trkpt><trkpt lat="43.787385430981544" lon="11.225646045853619"><ele>47.0</ele><time>2026-05-01T07:54:24Z</time></trkpt><trkpt lat="43.78733201014981" lon="11.225740409610344"><ele>47.0</ele><time>2026-05-01T07:54:25Z</time></trkpt><trkpt lat="43.787279311872226" lon="11.225835731526905"><ele>47.0</ele><time>2026-05-01T07:54:26Z</time></trkpt><trkpt lat="43.787230125633656" lon="11.225924343237148"><ele>47.0</ele><time>2026-05-01T07:54:27Z</time></trkpt><trkpt lat="43.78718314152671" lon="11.226009239688345"><ele>47.0</ele><time>2026-05-01T07:54:28Z</time></trkpt><trkpt lat="43.78713685626048" lon="11.226097471122985"><ele>47.0</ele><time>2026-05-01T07:54:29Z</time></trkpt><trkpt lat="43.78709163108614" lon="11.226187142807994"><ele>47.0</ele><time>2026-05-01T07:54:30Z</time></trkpt><trkpt lat="43.787046231601025" lon="11.226275012495298"><ele>47.0</ele><time>2026-05-01T07:54:31Z</time></trkpt><trkpt lat="43.787000245289626" lon="11.22636090467317"><ele>47.0</ele><time>2026-05-01T07:54:31.999Z</time></trkpt><trkpt lat="43.786952438519556" lon="11.226441699290943"><ele>47.0</ele><time>2026-05-01T07:54:32.999Z</time></trkpt><trkpt lat="43.78690654216243" lon="11.226518732468573"><ele>47.166666666666664</ele><time>2026-05-01T07:54:33.999Z</time></trkpt><trkpt lat="43.786864479668616" lon="11.22659001532391"><ele>47.33333333333333</ele><time>2026-05-01T07:54:34.999Z</time></trkpt><trkpt lat="43.786806049092974" lon="11.226695372287116"><ele>47.5</ele><time>2026-05-01T07:54:36.999Z</time></trkpt><trkpt lat="43.78676230697395" lon="11.226776748587769"><ele>47.666666666666664</ele><time>2026-05-01T07:54:39.999Z</time></trkpt><trkpt lat="43.786720859107625" lon="11.226851951832247"><ele>47.833333333333336</ele><time>2026-05-01T07:54:46.999Z</time></trkpt><trkpt lat="43.786645255938424" lon="11.226911756118072"><ele>48.0</ele><time>2026-05-01T07:54:49.999Z</time></trkpt><trkpt lat="43.78658625693418" lon="11.22687540003936"><ele>48.0</ele><time>2026-05-01T07:54:50.999Z</time></trkpt><trkpt lat="43.78654834777252" lon="11.226766965428428"><ele>48.0</ele><time>2026-05-01T07:54:51.999Z</time></trkpt><trkpt lat="43.78648757120162" lon="11.226685159932702"><ele>48.0</ele><time>2026-05-01T07:54:52.999Z</time></trkpt><trkpt lat="43.786424790799245" lon="11.226600656447538"><ele>48.0</ele><time>2026-05-01T07:54:53.999Z</time></trkpt><trkpt lat="43.78632393001781" lon="11.226595453995184"><ele>48.0</ele><time>2026-05-01T07:54:54.999Z</time></trkpt><trkpt lat="43.78626125566903" lon="11.226580691954362"><ele>48.0</ele><time>2026-05-01T07:54:55.999Z</time></trkpt><trkpt lat="43.786197625043165" lon="11.226584468480205"><ele>48.0</ele><time>2026-05-01T07:54:56.999Z</time></trkpt><trkpt lat="43.78616342532202" lon="11.226695420188426"><ele>48.0</ele><time>2026-05-01T07:54:57.999Z</time></trkpt><trkpt lat="43.78613373214387" lon="11.226787097447781"><ele>48.0</ele><time>2026-05-01T07:54:58.999Z</time></trkpt><trkpt lat="43.786126069106686" lon="11.226900847953338"><ele>48.0</ele><time>2026-05-01T07:54:59.999Z</time></trkpt><trkpt lat="43.786113383345736" lon="11.227016542156779"><ele>48.0</ele><time>2026-05-01T07:55:00.999Z</time></trkpt><trkpt lat="43.78609829425529" lon="11.227136035397733"><ele>48.0</ele><time>2026-05-01T07:55:01.999Z</time></trkpt><trkpt lat="43.786095943832954" lon="11.22726714487295"><ele>47.8</ele><time>2026-05-01T07:55:02.999Z</time></trkpt><trkpt lat="43.78606832386406" lon="11.227400774904812"><ele>47.599999999999994</ele><time>2026-05-01T07:55:03.999Z</time></trkpt><trkpt lat="43.78603831401343" lon="11.227525549795729"><ele>47.400000000000006</ele><time>2026-05-01T07:55:04.999Z</time></trkpt><trkpt lat="43.785996618927435" lon="11.227643279097236"><ele>47.2</ele><time>2026-05-01T07:55:05.999Z</time></trkpt><trkpt lat="43.78593681831579" lon="11.227759206773"><ele>47.0</ele><time>2026-05-01T07:55:06.999Z</time></trkpt><trkpt lat="43.78586945397761" lon="11.227877962735482"><ele>47.0</ele><time>2026-05-01T07:55:07.999Z</time></trkpt><trkpt lat="43.785801826207845" lon="11.227996308576248"><ele>47.0</ele><time>2026-05-01T07:55:08.999Z</time></trkpt><trkpt lat="43.78574307228793" lon="11.228109726969542"><ele>47.0</ele><time>2026-05-01T07:55:09.999Z</time></trkpt><trkpt lat="43.78569284026373" lon="11.228210933887135"><ele>47.0</ele><time>2026-05-01T07:55:10.999Z</time></trkpt><trkpt lat="43.78565054097596" lon="11.228304931767624"><ele>47.0</ele><time>2026-05-01T07:55:11.999Z</time></trkpt><trkpt lat="43.785617926085585" lon="11.228389938700067"><ele>47.0</ele><time>2026-05-01T07:55:12.999Z</time></trkpt><trkpt lat="43.78560665185642" lon="11.228567519449172"><ele>47.0</ele><time>2026-05-01T07:55:14.999Z</time></trkpt><trkpt lat="43.78566654778461" lon="11.22865607872467"><ele>47.0</ele><time>2026-05-01T07:55:15.999Z</time></trkpt><trkpt lat="43.78567453300178" lon="11.228756044107595"><ele>47.0</ele><time>2026-05-01T07:55:16.999Z</time></trkpt><trkpt lat="43.78565145536508" lon="11.228859540339839"><ele>47.0</ele><time>2026-05-01T07:55:17.999Z</time></trkpt><trkpt lat="43.785613589968825" lon="11.228962772445744"><ele>47.0</ele><time>2026-05-01T07:55:18.999Z</time></trkpt><trkpt lat="43.785559881938454" lon="11.229071128944387"><ele>47.0</ele><time>2026-05-01T07:55:20Z</time></trkpt><trkpt lat="43.78549973404124" lon="11.229182123911883"><ele>47.0</ele><time>2026-05-01T07:55:21Z</time></trkpt><trkpt lat="43.78544974522582" lon="11.229309867245966"><ele>47.0</ele><time>2026-05-01T07:55:22Z</time></trkpt><trkpt lat="43.785395825327825" lon="11.229439690370866"><ele>47.0</ele><time>2026-05-01T07:55:23Z</time></trkpt><trkpt lat="43.785345065986824" lon="11.229570694160492"><ele>47.0</ele><time>2026-05-01T07:55:24Z</time></trkpt><trkpt lat="43.78529291823772" lon="11.229699360476737"><ele>47.0</ele><time>2026-05-01T07:55:25Z</time></trkpt><trkpt lat="43.78523398492482" lon="11.229834275734822"><ele>46.75</ele><time>2026-05-01T07:55:26Z</time></trkpt><trkpt lat="43.78516929468469" lon="11.229976125793472"><ele>46.5</ele><time>2026-05-01T07:55:27Z</time></trkpt><trkpt lat="43.78509841560993" lon="11.230128702681009"><ele>46.25</ele><time>2026-05-01T07:55:28Z</time></trkpt><trkpt lat="43.785035572625056" lon="11.230269125696399"><ele>46.0</ele><time>2026-05-01T07:55:29Z</time></trkpt><trkpt lat="43.784964048282255" lon="11.230408168400709"><ele>46.0</ele><time>2026-05-01T07:55:30Z</time></trkpt><trkpt lat="43.78489300419005" lon="11.230539717206678"><ele>46.0</ele><time>2026-05-01T07:55:31Z</time></trkpt><trkpt lat="43.784826603266914" lon="11.230664972615212"><ele>46.0</ele><time>2026-05-01T07:55:32Z</time></trkpt><trkpt lat="43.78476396103303" lon="11.230774132000118"><ele>46.0</ele><time>2026-05-01T07:55:33Z</time></trkpt><trkpt lat="43.784709982763665" lon="11.230865778615465"><ele>46.0</ele><time>2026-05-01T07:55:34Z</time></trkpt><trkpt lat="43.78466125901224" lon="11.230950938518584"><ele>46.0</ele><time>2026-05-01T07:55:35Z</time></trkpt><trkpt lat="43.78459561907433" lon="11.23103454227518"><ele>46.0</ele><time>2026-05-01T07:55:37Z</time></trkpt><trkpt lat="43.7845395116906" lon="11.231114828934697"><ele>46.0</ele><time>2026-05-01T07:55:40Z</time></trkpt><trkpt lat="43.784482742842115" lon="11.231228346648576"><ele>46.0</ele><time>2026-05-01T07:56:07Z</time></trkpt><trkpt lat="43.7844349580919" lon="11.231293075035554"><ele>46.0</ele><time>2026-05-01T07:56:08Z</time></trkpt><trkpt lat="43.78438989983901" lon="11.231370103832033"><ele>46.0</ele><time>2026-05-01T07:56:09Z</time></trkpt><trkpt lat="43.78434249928375" lon="11.23144807073668"><ele>46.0</ele><time>2026-05-01T07:56:10Z</time></trkpt><trkpt lat="43.7842898664069" lon="11.23153692411436"><ele>46.0</ele><time>2026-05-01T07:56:11Z</time></trkpt><trkpt lat="43.78423881661749" lon="11.231622637849844"><ele>46.0</ele><time>2026-05-01T07:56:12Z</time></trkpt><trkpt lat="43.78418853247404" lon="11.231704828249399"><ele>46.0</ele><time>2026-05-01T07:56:13Z</time></trkpt><trkpt lat="43.784142132234955" lon="11.231783243145248"><ele>46.0</ele><time>2026-05-01T07:56:14Z</time></trkpt><trkpt lat="43.78406775243829" lon="11.23191087551217"><ele>46.0</ele><time>2026-05-01T07:56:16Z</time></trkpt><trkpt lat="43.784016887170814" lon="11.232001697351405"><ele>46.0</ele><time>2026-05-01T07:56:18Z</time></trkpt><trkpt lat="43.783956896917516" lon="11.232108930456388"><ele>46.0</ele><time>2026-05-01T07:56:21Z</time></trkpt><trkpt lat="43.78388114309885" lon="11.232253625222878"><ele>46.0</ele><time>2026-05-01T07:56:23Z</time></trkpt><trkpt lat="43.78382984702198" lon="11.232344216607007"><ele>46.0</ele><time>2026-05-01T07:56:24Z</time></trkpt><trkpt lat="43.78377473338293" lon="11.232436946048331"><ele>46.0</ele><time>2026-05-01T07:56:25Z</time></trkpt><trkpt lat="43.783712668888874" lon="11.232547136819134"><ele>45.8</ele><time>2026-05-01T07:56:26Z</time></trkpt><trkpt lat="43.78365055378311" lon="11.23265568456353"><ele>45.599999999999994</ele><time>2026-05-01T07:56:27Z</time></trkpt><trkpt lat="43.78358218093962" lon="11.232772861825334"><ele>45.4</ele><time>2026-05-01T07:56:28Z</time></trkpt><trkpt lat="43.7835123690742" lon="11.232893340585301"><ele>45.2</ele><time>2026-05-01T07:56:29Z</time></trkpt><trkpt lat="43.78343760220425" lon="11.2330201228185"><ele>45.0</ele><time>2026-05-01T07:56:30Z</time></trkpt><trkpt lat="43.78336950061626" lon="11.233146916355855"><ele>45.0</ele><time>2026-05-01T07:56:31Z</time></trkpt><trkpt lat="43.78329730842954" lon="11.233276326430186"><ele>45.0</ele><time>2026-05-01T07:56:32Z</time></trkpt><trkpt lat="43.78322517923522" lon="11.23340217935475"><ele>45.0</ele><time>2026-05-01T07:56:33Z</time></trkpt><trkpt lat="43.783150012110795" lon="11.233532408310467"><ele>45.0</ele><time>2026-05-01T07:56:34Z</time></trkpt><trkpt lat="43.78307701302029" lon="11.233664414121678"><ele>45.0</ele><time>2026-05-01T07:56:35Z</time></trkpt><trkpt lat="43.783000396894614" lon="11.23380324560791"><ele>45.0</ele><time>2026-05-01T07:56:36Z</time></trkpt><trkpt lat="43.78292568762306" lon="11.23394100001607"><ele>45.0</ele><time>2026-05-01T07:56:37Z</time></trkpt><trkpt lat="43.782846200016245" lon="11.23407974760207"><ele>45.0</ele><time>2026-05-01T07:56:38Z</time></trkpt><trkpt lat="43.78276694048119" lon="11.234221284209685"><ele>45.25</ele><time>2026-05-01T07:56:39Z</time></trkpt><trkpt lat="43.78268926848849" lon="11.234356439195823"><ele>45.5</ele><time>2026-05-01T07:56:40Z</time></trkpt><trkpt lat="43.78261046914254" lon="11.234493354761867"><ele>45.75</ele><time>2026-05-01T07:56:41Z</time></trkpt><trkpt lat="43.78253020207038" lon="11.234633356165352"><ele>46.0</ele><time>2026-05-01T07:56:42Z</time></trkpt><trkpt lat="43.782454716591566" lon="11.234768220012725"><ele>46.0</ele><time>2026-05-01T07:56:42.999Z</time></trkpt><trkpt lat="43.782377909011174" lon="11.234898801598828"><ele>46.0</ele><time>2026-05-01T07:56:43.999Z</time></trkpt><trkpt lat="43.78229944952516" lon="11.235029504916614"><ele>46.0</ele><time>2026-05-01T07:56:44.999Z</time></trkpt><trkpt lat="43.78222861076137" lon="11.235147208911156"><ele>46.0</ele><time>2026-05-01T07:56:45.999Z</time></trkpt><trkpt lat="43.78216374929035" lon="11.235252898859233"><ele>46.0</ele><time>2026-05-01T07:56:46.999Z</time></trkpt><trkpt lat="43.78210804630752" lon="11.235346373618839"><ele>46.0</ele><time>2026-05-01T07:56:47.999Z</time></trkpt><trkpt lat="43.78205525565016" lon="11.235437093549708"><ele>46.0</ele><time>2026-05-01T07:56:48.999Z</time></trkpt><trkpt lat="43.78201320003694" lon="11.235515190127149"><ele>46.0</ele><time>2026-05-01T07:56:49.999Z</time></trkpt><trkpt lat="43.781953725749936" lon="11.235615919265138"><ele>46.0</ele><time>2026-05-01T07:56:51.999Z</time></trkpt><trkpt lat="43.78190583526214" lon="11.235710192776684"><ele>46.0</ele><time>2026-05-01T07:57:09.999Z</time></trkpt><trkpt lat="43.78183087557212" lon="11.235830052622095"><ele>46.0</ele><time>2026-05-01T07:57:11.999Z</time></trkpt><trkpt lat="43.78178324954653" lon="11.235900019229126"><ele>46.0</ele><time>2026-05-01T07:57:12.999Z</time></trkpt><trkpt lat="43.78171401975742" lon="11.235983170085056"><ele>46.0</ele><time>2026-05-01T07:57:13.999Z</time></trkpt><trkpt lat="43.78163609615826" lon="11.236067996743444"><ele>46.0</ele><time>2026-05-01T07:57:14.999Z</time></trkpt><trkpt lat="43.78155411026491" lon="11.236156725494572"><ele>46.0</ele><time>2026-05-01T07:57:15.999Z</time></trkpt><trkpt lat="43.78147235195682" lon="11.236259855883603"><ele>46.0</ele><time>2026-05-01T07:57:16.999Z</time></trkpt><trkpt lat="43.781381415264754" lon="11.236372860415823"><ele>46.0</ele><time>2026-05-01T07:57:17.999Z</time></trkpt><trkpt lat="43.78128019107408" lon="11.236487415699848"><ele>46.0</ele><time>2026-05-01T07:57:18.999Z</time></trkpt><trkpt lat="43.78117317254461" lon="11.236608268539122"><ele>46.0</ele><time>2026-05-01T07:57:19.999Z</time></trkpt><trkpt lat="43.78106396121067" lon="11.236721402870982"><ele>46.0</ele><time>2026-05-01T07:57:20.999Z</time></trkpt><trkpt lat="43.780951638550064" lon="11.23682833007724"><ele>46.0</ele><time>2026-05-01T07:57:21.999Z</time></trkpt><trkpt lat="43.7808320352332" lon="11.23693504039063"><ele>46.0</ele><time>2026-05-01T07:57:22.999Z</time></trkpt><trkpt lat="43.780719692037344" lon="11.237039298122218"><ele>46.0</ele><time>2026-05-01T07:57:23.999Z</time></trkpt><trkpt lat="43.7806041242931" lon="11.237141692502897"><ele>46.0</ele><time>2026-05-01T07:57:24.999Z</time></trkpt><trkpt lat="43.780495193667456" lon="11.237239500932054"><ele>46.0</ele><time>2026-05-01T07:57:26Z</time></trkpt><trkpt lat="43.78038810847235" lon="11.237345352672694"><ele>46.0</ele><time>2026-05-01T07:57:27Z</time></trkpt><trkpt lat="43.78028207050154" lon="11.237449310841857"><ele>46.0</ele><time>2026-05-01T07:57:28Z</time></trkpt><trkpt lat="43.78017079857475" lon="11.237558424026039"><ele>45.75</ele><time>2026-05-01T07:57:29Z</time></trkpt><trkpt lat="43.780051709152715" lon="11.237663045856648"><ele>45.5</ele><time>2026-05-01T07:57:30Z</time></trkpt><trkpt lat="43.77992524670596" lon="11.237774483209353"><ele>45.25</ele><time>2026-05-01T07:57:31Z</time></trkpt><trkpt lat="43.779807769319305" lon="11.237891709883666"><ele>45.0</ele><time>2026-05-01T07:57:32Z</time></trkpt><trkpt lat="43.77968941647635" lon="11.238021386610667"><ele>45.0</ele><time>2026-05-01T07:57:33Z</time></trkpt><trkpt lat="43.77957638063107" lon="11.23814421130684"><ele>45.0</ele><time>2026-05-01T07:57:34Z</time></trkpt><trkpt lat="43.77947006768732" lon="11.238260770139894"><ele>45.0</ele><time>2026-05-01T07:57:35Z</time></trkpt><trkpt lat="43.779371019829306" lon="11.238369491419592"><ele>45.0</ele><time>2026-05-01T07:57:36Z</time></trkpt><trkpt lat="43.779265567593754" lon="11.238489603614877"><ele>45.0</ele><time>2026-05-01T07:57:37Z</time></trkpt><trkpt lat="43.77915281345946" lon="11.238609365069522"><ele>45.0</ele><time>2026-05-01T07:57:38Z</time></trkpt><trkpt lat="43.779033674059775" lon="11.238728304283079"><ele>45.0</ele><time>2026-05-01T07:57:39Z</time></trkpt><trkpt lat="43.778909037093406" lon="11.238851386524091"><ele>45.0</ele><time>2026-05-01T07:57:40Z</time></trkpt><trkpt lat="43.778787447973755" lon="11.238969567587421"><ele>45.5</ele><time>2026-05-01T07:57:41Z</time></trkpt><trkpt lat="43.778669642768484" lon="11.239087226423742"><ele>46.0</ele><time>2026-05-01T07:57:42Z</time></trkpt><trkpt lat="43.778559599071336" lon="11.239198203399253"><ele>46.5</ele><time>2026-05-01T07:57:43Z</time></trkpt><trkpt lat="43.77846135199279" lon="11.23930517000205"><ele>47.0</ele><time>2026-05-01T07:57:44Z</time></trkpt><trkpt lat="43.77837346942198" lon="11.23940098932929"><ele>47.2</ele><time>2026-05-01T07:57:45Z</time></trkpt><trkpt lat="43.7782993081851" lon="11.2394849411144"><ele>47.400000000000006</ele><time>2026-05-01T07:57:46Z</time></trkpt><trkpt lat="43.77823901528544" lon="11.239542210458541"><ele>47.599999999999994</ele><time>2026-05-01T07:57:47Z</time></trkpt><trkpt lat="43.778157502396574" lon="11.23962076546283"><ele>47.8</ele><time>2026-05-01T07:57:49Z</time></trkpt><trkpt lat="43.778078788578995" lon="11.239646606057738"><ele>48.0</ele><time>2026-05-01T07:58:18Z</time></trkpt><trkpt lat="43.777967835129544" lon="11.239585313029492"><ele>48.0</ele><time>2026-05-01T07:58:20Z</time></trkpt><trkpt lat="43.77792704993099" lon="11.239514643959764"><ele>48.0</ele><time>2026-05-01T07:58:21Z</time></trkpt><trkpt lat="43.777872566138406" lon="11.239381986886025"><ele>48.0</ele><time>2026-05-01T07:58:23Z</time></trkpt><trkpt lat="43.77783437597101" lon="11.239247608017227"><ele>48.0</ele><time>2026-05-01T07:58:25Z</time></trkpt><trkpt lat="43.777801893283325" lon="11.239117330301964"><ele>48.0</ele><time>2026-05-01T07:58:27Z</time></trkpt><trkpt lat="43.777781119268845" lon="11.239013933281727"><ele>47.599999999999994</ele><time>2026-05-01T07:58:29Z</time></trkpt><trkpt lat="43.77775258874801" lon="11.238899998990467"><ele>47.199999999999996</ele><time>2026-05-01T07:58:51Z</time></trkpt><trkpt lat="43.77769797150205" lon="11.238724516197015"><ele>46.8</ele><time>2026-05-01T07:58:53Z</time></trkpt><trkpt lat="43.77766007584622" lon="11.238609909727002"><ele>46.4</ele><time>2026-05-01T07:58:54Z</time></trkpt><trkpt lat="43.77761240352481" lon="11.238489203772184"><ele>46.0</ele><time>2026-05-01T07:58:55Z</time></trkpt><trkpt lat="43.7775552949451" lon="11.238365862669932"><ele>46.0</ele><time>2026-05-01T07:58:55.999Z</time></trkpt><trkpt lat="43.777490658648475" lon="11.238228686764261"><ele>46.0</ele><time>2026-05-01T07:58:56.999Z</time></trkpt><trkpt lat="43.777423402265605" lon="11.238081023516001"><ele>46.0</ele><time>2026-05-01T07:58:57.999Z</time></trkpt><trkpt lat="43.777354281977225" lon="11.23793012132393"><ele>46.0</ele><time>2026-05-01T07:58:58.999Z</time></trkpt><trkpt lat="43.777289246100864" lon="11.237783112089875"><ele>46.0</ele><time>2026-05-01T07:58:59.999Z</time></trkpt><trkpt lat="43.77722928453129" lon="11.237652060916382"><ele>46.0</ele><time>2026-05-01T07:59:00.999Z</time></trkpt><trkpt lat="43.77717242663206" lon="11.237526077988525"><ele>46.0</ele><time>2026-05-01T07:59:01.999Z</time></trkpt><trkpt lat="43.77711819592819" lon="11.237414903817882"><ele>46.0</ele><time>2026-05-01T07:59:02.999Z</time></trkpt><trkpt lat="43.77706844776419" lon="11.237313398720005"><ele>46.0</ele><time>2026-05-01T07:59:03.999Z</time></trkpt><trkpt lat="43.77701862131975" lon="11.23721388208565"><ele>46.0</ele><time>2026-05-01T07:59:04.999Z</time></trkpt><trkpt lat="43.77696006485067" lon="11.237107648163018"><ele>46.0</ele><time>2026-05-01T07:59:05.999Z</time></trkpt><trkpt lat="43.776888148551485" lon="11.23700729177544"><ele>46.0</ele><time>2026-05-01T07:59:06.999Z</time></trkpt><trkpt lat="43.77680365680365" lon="11.236910920636664"><ele>46.0</ele><time>2026-05-01T07:59:07.999Z</time></trkpt><trkpt lat="43.776705918313915" lon="11.23682393164184"><ele>46.0</ele><time>2026-05-01T07:59:08.999Z</time></trkpt><trkpt lat="43.776595192944" lon="11.236735661995526"><ele>46.0</ele><time>2026-05-01T07:59:09.999Z</time></trkpt><trkpt lat="43.7764821033114" lon="11.236647604682835"><ele>46.0</ele><time>2026-05-01T07:59:10.999Z</time></trkpt><trkpt lat="43.77636718766776" lon="11.236557145016574"><ele>46.0</ele><time>2026-05-01T07:59:11.999Z</time></trkpt><trkpt lat="43.77624723204155" lon="11.23646723827735"><ele>46.0</ele><time>2026-05-01T07:59:12.999Z</time></trkpt><trkpt lat="43.77612375912394" lon="11.236373622609836"><ele>46.0</ele><time>2026-05-01T07:59:13.999Z</time></trkpt><trkpt lat="43.77600030703182" lon="11.236272558241554"><ele>46.0</ele><time>2026-05-01T07:59:14.999Z</time></trkpt><trkpt lat="43.77589334172055" lon="11.236146063819218"><ele>46.0</ele><time>2026-05-01T07:59:15.999Z</time></trkpt><trkpt lat="43.775794333770875" lon="11.235973434114502"><ele>46.0</ele><time>2026-05-01T07:59:16.999Z</time></trkpt><trkpt lat="43.77573617278795" lon="11.235827673479902"><ele>45.75</ele><time>2026-05-01T07:59:17.999Z</time></trkpt><trkpt lat="43.775699784336794" lon="11.235568540496363"><ele>45.5</ele><time>2026-05-01T07:59:18.999Z</time></trkpt><trkpt lat="43.77565862991828" lon="11.235387674734865"><ele>45.25</ele><time>2026-05-01T07:59:19.999Z</time></trkpt><trkpt lat="43.77561380492134" lon="11.235230913973155"><ele>45.0</ele><time>2026-05-01T07:59:20.999Z</time></trkpt><trkpt lat="43.775569964644255" lon="11.235095615537093"><ele>45.0</ele><time>2026-05-01T07:59:21.999Z</time></trkpt><trkpt lat="43.77552387191922" lon="11.23497137406145"><ele>45.0</ele><time>2026-05-01T07:59:22.999Z</time></trkpt><trkpt lat="43.77546548685961" lon="11.234867338280939"><ele>45.0</ele><time>2026-05-01T07:59:23.999Z</time></trkpt><trkpt lat="43.77539023115893" lon="11.234790393127712"><ele>45.0</ele><time>2026-05-01T07:59:24.999Z</time></trkpt><trkpt lat="43.775302896873804" lon="11.234747211216321"><ele>45.0</ele><time>2026-05-01T07:59:25.999Z</time></trkpt><trkpt lat="43.77520856307349" lon="11.23471311350556"><ele>43.8</ele><time>2026-05-01T07:59:26.999Z</time></trkpt><trkpt lat="43.77511836643995" lon="11.234668700685337"><ele>42.6</ele><time>2026-05-01T07:59:27.999Z</time></trkpt><trkpt lat="43.77502785717091" lon="11.234620815243487"><ele>41.4</ele><time>2026-05-01T07:59:28.999Z</time></trkpt><trkpt lat="43.77494317266729" lon="11.234576134554402"><ele>40.2</ele><time>2026-05-01T07:59:29.999Z</time></trkpt><trkpt lat="43.77485407796931" lon="11.234527923393731"><ele>39.0</ele><time>2026-05-01T07:59:31Z</time></trkpt><trkpt lat="43.77476158166984" lon="11.234476196283453"><ele>39.0</ele><time>2026-05-01T07:59:32Z</time></trkpt><trkpt lat="43.77466713194113" lon="11.2344261294818"><ele>39.0</ele><time>2026-05-01T07:59:33Z</time></trkpt><trkpt lat="43.774569644555456" lon="11.23437322931677"><ele>39.0</ele><time>2026-05-01T07:59:34Z</time></trkpt><trkpt lat="43.774472119475384" lon="11.234319114944222"><ele>39.0</ele><time>2026-05-01T07:59:35Z</time></trkpt><trkpt lat="43.77438495818383" lon="11.234260100393733"><ele>39.0</ele><time>2026-05-01T07:59:36Z</time></trkpt><trkpt lat="43.774313923394025" lon="11.234188877724216"><ele>39.8</ele><time>2026-05-01T07:59:37Z</time></trkpt><trkpt lat="43.774257602173634" lon="11.234109955578987"><ele>40.599999999999994</ele><time>2026-05-01T07:59:38Z</time></trkpt><trkpt lat="43.7742123491741" lon="11.234016500577747"><ele>41.4</ele><time>2026-05-01T07:59:40Z</time></trkpt><trkpt lat="43.77413577927157" lon="11.233859818205843"><ele>42.199999999999996</ele><time>2026-05-01T07:59:44Z</time></trkpt><trkpt lat="43.774087518119885" lon="11.233777485896688"><ele>43.0</ele><time>2026-05-01T07:59:45Z</time></trkpt><trkpt lat="43.77402973664038" lon="11.23368915181321"><ele>43.16666666666667</ele><time>2026-05-01T07:59:46Z</time></trkpt><trkpt lat="43.773980954706715" lon="11.23360049867076"><ele>43.333333333333336</ele><time>2026-05-01T07:59:47Z</time></trkpt><trkpt lat="43.77394554068775" lon="11.23351200924621"><ele>43.5</ele><time>2026-05-01T07:59:48Z</time></trkpt><trkpt lat="43.77391901688624" lon="11.23341660225949"><ele>43.666666666666664</ele><time>2026-05-01T07:59:49Z</time></trkpt><trkpt lat="43.77390657542706" lon="11.233315395500929"><ele>43.83333333333333</ele><time>2026-05-01T07:59:50Z</time></trkpt><trkpt lat="43.77391508112049" lon="11.233217103258571"><ele>44.0</ele><time>2026-05-01T07:59:51Z</time></trkpt><trkpt lat="43.773944803947444" lon="11.233107184149402"><ele>44.2</ele><time>2026-05-01T07:59:52Z</time></trkpt><trkpt lat="43.77398480982295" lon="11.23299837309338"><ele>44.400000000000006</ele><time>2026-05-01T07:59:53Z</time></trkpt><trkpt lat="43.77402458737902" lon="11.232876657140839"><ele>44.6</ele><time>2026-05-01T07:59:54Z</time></trkpt><trkpt lat="43.77406060171187" lon="11.232742505077887"><ele>44.8</ele><time>2026-05-01T07:59:55Z</time></trkpt><trkpt lat="43.77409656078531" lon="11.232603052075335"><ele>45.0</ele><time>2026-05-01T07:59:56Z</time></trkpt><trkpt lat="43.77413386142916" lon="11.232467542563837"><ele>45.0</ele><time>2026-05-01T07:59:57Z</time></trkpt><trkpt lat="43.774171307971635" lon="11.232333133038503"><ele>45.0</ele><time>2026-05-01T07:59:58Z</time></trkpt><trkpt lat="43.774203891894345" lon="11.232191332002573"><ele>45.0</ele><time>2026-05-01T07:59:59Z</time></trkpt><trkpt lat="43.77424097040854" lon="11.232054283863814"><ele>45.0</ele><time>2026-05-01T08:00:00Z</time></trkpt><trkpt lat="43.77427809877495" lon="11.231914799134996"><ele>45.0</ele><time>2026-05-01T08:00:01Z</time></trkpt><trkpt lat="43.77431696661927" lon="11.231776401440557"><ele>45.0</ele><time>2026-05-01T08:00:02Z</time></trkpt><trkpt lat="43.774357989493645" lon="11.2316379412491"><ele>45.0</ele><time>2026-05-01T08:00:03Z</time></trkpt><trkpt lat="43.774393152258504" lon="11.231505665521702"><ele>45.0</ele><time>2026-05-01T08:00:04Z</time></trkpt><trkpt lat="43.77442742786982" lon="11.23137573786716"><ele>45.0</ele><time>2026-05-01T08:00:05Z</time></trkpt><trkpt lat="43.77446176356245" lon="11.231252482161029"><ele>45.0</ele><time>2026-05-01T08:00:06Z</time></trkpt><trkpt lat="43.77449556296679" lon="11.231123989311781"><ele>45.0</ele><time>2026-05-01T08:00:07Z</time></trkpt><trkpt lat="43.774524816529635" lon="11.231010489513091"><ele>45.0</ele><time>2026-05-01T08:00:08Z</time></trkpt><trkpt lat="43.77455437596663" lon="11.230894319574574"><ele>45.0</ele><time>2026-05-01T08:00:09Z</time></trkpt><trkpt lat="43.7745845978359" lon="11.230780495854214"><ele>45.0</ele><time>2026-05-01T08:00:10Z</time></trkpt><trkpt lat="43.77461547847345" lon="11.230664268220412"><ele>45.0</ele><time>2026-05-01T08:00:11Z</time></trkpt><trkpt lat="43.77464837414105" lon="11.230547302956653"><ele>45.0</ele><time>2026-05-01T08:00:12Z</time></trkpt><trkpt lat="43.774679862836166" lon="11.230424576970776"><ele>45.166666666666664</ele><time>2026-05-01T08:00:13Z</time></trkpt><trkpt lat="43.774710956261316" lon="11.230305238562693"><ele>45.333333333333336</ele><time>2026-05-01T08:00:14Z</time></trkpt><trkpt lat="43.77474186870122" lon="11.23018475116319"><ele>45.5</ele><time>2026-05-01T08:00:15Z</time></trkpt><trkpt lat="43.77476649436568" lon="11.230065541792753"><ele>45.66666666666667</ele><time>2026-05-01T08:00:16Z</time></trkpt><trkpt lat="43.77479681903808" lon="11.229961510833768"><ele>45.833333333333336</ele><time>2026-05-01T08:00:17Z</time></trkpt><trkpt lat="43.77482233675807" lon="11.229867472229675"><ele>46.0</ele><time>2026-05-01T08:00:18Z</time></trkpt><trkpt lat="43.77484617176084" lon="11.229778170419989"><ele>45.66666666666667</ele><time>2026-05-01T08:00:19Z</time></trkpt><trkpt lat="43.77487095125674" lon="11.229680016105858"><ele>45.333333333333336</ele><time>2026-05-01T08:00:20Z</time></trkpt><trkpt lat="43.77489684488817" lon="11.229568608574612"><ele>45.0</ele><time>2026-05-01T08:00:21Z</time></trkpt><trkpt lat="43.774927689510434" lon="11.229451945344888"><ele>44.666666666666664</ele><time>2026-05-01T08:00:22Z</time></trkpt><trkpt lat="43.77495342101469" lon="11.229345091952831"><ele>44.33333333333333</ele><time>2026-05-01T08:00:23Z</time></trkpt><trkpt lat="43.774974840761665" lon="11.229258183439624"><ele>44.0</ele><time>2026-05-01T08:00:24Z</time></trkpt><trkpt lat="43.77501685316985" lon="11.229101261868589"><ele>44.0</ele><time>2026-05-01T08:00:26Z</time></trkpt><trkpt lat="43.775087117717575" lon="11.228987544746257"><ele>44.0</ele><time>2026-05-01T08:00:28Z</time></trkpt><trkpt lat="43.77521177992043" lon="11.22895619609553"><ele>44.0</ele><time>2026-05-01T08:00:30Z</time></trkpt><trkpt lat="43.77527502606951" lon="11.22897368318656"><ele>44.0</ele><time>2026-05-01T08:00:31Z</time></trkpt><trkpt lat="43.77533449230598" lon="11.229013866654933"><ele>44.0</ele><time>2026-05-01T08:00:32Z</time></trkpt><trkpt lat="43.77538691409694" lon="11.229063288155901"><ele>44.0</ele><time>2026-05-01T08:00:33Z</time></trkpt><trkpt lat="43.775441530250376" lon="11.22911029698458"><ele>43.800000000000004</ele><time>2026-05-01T08:00:34Z</time></trkpt><trkpt lat="43.77549969073196" lon="11.22914443634135"><ele>43.6</ele><time>2026-05-01T08:00:35Z</time></trkpt><trkpt lat="43.77561036974755" lon="11.229139689815263"><ele>43.4</ele><time>2026-05-01T08:00:37Z</time></trkpt><trkpt lat="43.775705798499914" lon="11.229047696826077"><ele>43.2</ele><time>2026-05-01T08:00:39Z</time></trkpt><trkpt lat="43.77576326569235" lon="11.228894562766705"><ele>43.0</ele><time>2026-05-01T08:00:41Z</time></trkpt><trkpt lat="43.7757785681135" lon="11.22880598115812"><ele>43.0</ele><time>2026-05-01T08:00:42Z</time></trkpt><trkpt lat="43.775710222806325" lon="11.22863093622148"><ele>43.0</ele><time>2026-05-01T08:00:44Z</time></trkpt><trkpt lat="43.77564708195292" lon="11.228558469325453"><ele>43.0</ele><time>2026-05-01T08:00:45Z</time></trkpt><trkpt lat="43.77558277975005" lon="11.228522906413783"><ele>43.0</ele><time>2026-05-01T08:00:46Z</time></trkpt><trkpt lat="43.77552427338548" lon="11.228489170403716"><ele>43.0</ele><time>2026-05-01T08:00:47Z</time></trkpt><trkpt lat="43.775470379823474" lon="11.228439113544692"><ele>43.0</ele><time>2026-05-01T08:00:48Z</time></trkpt><trkpt lat="43.775413292935916" lon="11.228395654984418"><ele>43.0</ele><time>2026-05-01T08:00:49Z</time></trkpt><trkpt lat="43.77535441295652" lon="11.228351180677109"><ele>43.0</ele><time>2026-05-01T08:00:50Z</time></trkpt><trkpt lat="43.77529673453764" lon="11.228309968359607"><ele>43.0</ele><time>2026-05-01T08:00:51Z</time></trkpt><trkpt lat="43.775232395438834" lon="11.228261740266689"><ele>43.0</ele><time>2026-05-01T08:00:52Z</time></trkpt><trkpt lat="43.775163295087964" lon="11.228203000147044"><ele>43.0</ele><time>2026-05-01T08:00:53Z</time></trkpt><trkpt lat="43.77508900426443" lon="11.228128001944581"><ele>43.0</ele><time>2026-05-01T08:00:54Z</time></trkpt><trkpt lat="43.775009303199454" lon="11.228019918024177"><ele>43.2</ele><time>2026-05-01T08:00:56Z</time></trkpt><trkpt lat="43.77496870910686" lon="11.22791327126075"><ele>43.4</ele><time>2026-05-01T08:00:57Z</time></trkpt><trkpt lat="43.77495327384067" lon="11.227789068935804"><ele>43.6</ele><time>2026-05-01T08:00:58Z</time></trkpt><trkpt lat="43.7749476039459" lon="11.227654193437685"><ele>43.800000000000004</ele><time>2026-05-01T08:00:59Z</time></trkpt><trkpt lat="43.774937289292986" lon="11.227511356912661"><ele>44.0</ele><time>2026-05-01T08:01:00Z</time></trkpt><trkpt lat="43.7749255407008" lon="11.227364505891986"><ele>43.800000000000004</ele><time>2026-05-01T08:01:01Z</time></trkpt><trkpt lat="43.7749123025886" lon="11.227224578801675"><ele>43.6</ele><time>2026-05-01T08:01:02Z</time></trkpt><trkpt lat="43.77490082130813" lon="11.227090430813671"><ele>43.4</ele><time>2026-05-01T08:01:03Z</time></trkpt><trkpt lat="43.77489009537382" lon="11.226946579559378"><ele>43.2</ele><time>2026-05-01T08:01:04Z</time></trkpt><trkpt lat="43.77487415820852" lon="11.226808282385846"><ele>43.0</ele><time>2026-05-01T08:01:05Z</time></trkpt><trkpt lat="43.77485787996251" lon="11.226657887633358"><ele>43.0</ele><time>2026-05-01T08:01:06Z</time></trkpt><trkpt lat="43.77484585315642" lon="11.226507518283384"><ele>43.0</ele><time>2026-05-01T08:01:07Z</time></trkpt><trkpt lat="43.774828086620495" lon="11.226367058757923"><ele>43.0</ele><time>2026-05-01T08:01:08Z</time></trkpt><trkpt lat="43.77481266222438" lon="11.226225619642536"><ele>43.0</ele><time>2026-05-01T08:01:09Z</time></trkpt><trkpt lat="43.77479889480852" lon="11.226094071363988"><ele>43.0</ele><time>2026-05-01T08:01:10Z</time></trkpt><trkpt lat="43.774787904028805" lon="11.225981804690896"><ele>43.0</ele><time>2026-05-01T08:01:11Z</time></trkpt><trkpt lat="43.77478007769081" lon="11.225873895412375"><ele>43.0</ele><time>2026-05-01T08:01:12Z</time></trkpt><trkpt lat="43.774770879465585" lon="11.225762756350619"><ele>43.0</ele><time>2026-05-01T08:01:13Z</time></trkpt><trkpt lat="43.77476405329001" lon="11.225653654568042"><ele>43.0</ele><time>2026-05-01T08:01:14Z</time></trkpt><trkpt lat="43.774756990504244" lon="11.22555876005843"><ele>43.0</ele><time>2026-05-01T08:01:15Z</time></trkpt><trkpt lat="43.7747491259344" lon="11.225466700387434"><ele>43.0</ele><time>2026-05-01T08:01:16Z</time></trkpt><trkpt lat="43.77474329334199" lon="11.225351673084894"><ele>43.0</ele><time>2026-05-01T08:01:18Z</time></trkpt><trkpt lat="43.77473551202941" lon="11.22521803983216"><ele>43.0</ele><time>2026-05-01T08:01:21Z</time></trkpt><trkpt lat="43.774722144729175" lon="11.225123584612774"><ele>43.0</ele><time>2026-05-01T08:01:23Z</time></trkpt><trkpt lat="43.77470919603316" lon="11.225033089003324"><ele>43.0</ele><time>2026-05-01T08:01:25Z</time></trkpt><trkpt lat="43.77469329273126" lon="11.224938973636887"><ele>43.0</ele><time>2026-05-01T08:01:26.999Z</time></trkpt><trkpt lat="43.77466635641972" lon="11.22478500242206"><ele>43.0</ele><time>2026-05-01T08:01:28.999Z</time></trkpt><trkpt lat="43.77465342341436" lon="11.224689810342266"><ele>43.0</ele><time>2026-05-01T08:01:29.999Z</time></trkpt><trkpt lat="43.77463828789211" lon="11.224581667942601"><ele>43.0</ele><time>2026-05-01T08:01:30.999Z</time></trkpt><trkpt lat="43.77462108125007" lon="11.224474749688547"><ele>43.0</ele><time>2026-05-01T08:01:31.999Z</time></trkpt><trkpt lat="43.774600524126" lon="11.224333811751126"><ele>43.0</ele><time>2026-05-01T08:01:32.999Z</time></trkpt><trkpt lat="43.77457929275588" lon="11.22418717208124"><ele>43.0</ele><time>2026-05-01T08:01:33.999Z</time></trkpt><trkpt lat="43.77456250774095" lon="11.224038521797977"><ele>43.0</ele><time>2026-05-01T08:01:34.999Z</time></trkpt><trkpt lat="43.774546622163506" lon="11.223874924268229"><ele>43.0</ele><time>2026-05-01T08:01:35.999Z</time></trkpt><trkpt lat="43.77452999679268" lon="11.223720315343098"><ele>43.0</ele><time>2026-05-01T08:01:37Z</time></trkpt><trkpt lat="43.774510898801914" lon="11.223565621765271"><ele>43.0</ele><time>2026-05-01T08:01:38Z</time></trkpt><trkpt lat="43.77449362450835" lon="11.223424525932494"><ele>43.0</ele><time>2026-05-01T08:01:39Z</time></trkpt><trkpt lat="43.77447691424172" lon="11.223282988675464"><ele>43.0</ele><time>2026-05-01T08:01:40Z</time></trkpt><trkpt lat="43.77446085131389" lon="11.223150083231584"><ele>43.0</ele><time>2026-05-01T08:01:41Z</time></trkpt><trkpt lat="43.77444550495063" lon="11.223014339878276"><ele>43.0</ele><time>2026-05-01T08:01:42Z</time></trkpt><trkpt lat="43.77443231877809" lon="11.222878100501381"><ele>43.0</ele><time>2026-05-01T08:01:43Z</time></trkpt><trkpt lat="43.77441672623503" lon="11.222739930150441"><ele>43.0</ele><time>2026-05-01T08:01:44Z</time></trkpt><trkpt lat="43.77440327648084" lon="11.222600405086652"><ele>43.0</ele><time>2026-05-01T08:01:45Z</time></trkpt><trkpt lat="43.774391470200875" lon="11.22246426369465"><ele>43.0</ele><time>2026-05-01T08:01:46Z</time></trkpt><trkpt lat="43.774380642186685" lon="11.222335173278118"><ele>43.0</ele><time>2026-05-01T08:01:47Z</time></trkpt><trkpt lat="43.77437079249534" lon="11.222241032922406"><ele>43.0</ele><time>2026-05-01T08:01:48Z</time></trkpt><trkpt lat="43.774357223443864" lon="11.222110941030659"><ele>43.0</ele><time>2026-05-01T08:01:50Z</time></trkpt><trkpt lat="43.774353938411814" lon="11.222012472404167"><ele>43.0</ele><time>2026-05-01T08:02:10Z</time></trkpt><trkpt lat="43.77434647538744" lon="11.221909129415375"><ele>43.0</ele><time>2026-05-01T08:02:12Z</time></trkpt><trkpt lat="43.774349538016295" lon="11.22179051437958"><ele>43.0</ele><time>2026-05-01T08:02:14Z</time></trkpt><trkpt lat="43.77437900432798" lon="11.221646361001518"><ele>43.0</ele><time>2026-05-01T08:02:16Z</time></trkpt><trkpt lat="43.77440235435749" lon="11.221563116618103"><ele>43.0</ele><time>2026-05-01T08:02:17Z</time></trkpt><trkpt lat="43.77441290597834" lon="11.221470381871525"><ele>43.0</ele><time>2026-05-01T08:02:18Z</time></trkpt><trkpt lat="43.774421619970376" lon="11.221366129680915"><ele>43.0</ele><time>2026-05-01T08:02:19Z</time></trkpt><trkpt lat="43.774417650338435" lon="11.22125333719492"><ele>43.0</ele><time>2026-05-01T08:02:20Z</time></trkpt><trkpt lat="43.7743998861833" lon="11.221138730636863"><ele>43.0</ele><time>2026-05-01T08:02:21Z</time></trkpt><trkpt lat="43.77437619985316" lon="11.22104697928213"><ele>43.0</ele><time>2026-05-01T08:02:22Z</time></trkpt><trkpt lat="43.774333824981476" lon="11.220930949662817"><ele>43.0</ele><time>2026-05-01T08:02:24Z</time></trkpt><trkpt lat="43.7742568059134" lon="11.22081192545944"><ele>43.0</ele><time>2026-05-01T08:02:46Z</time></trkpt><trkpt lat="43.774175996542" lon="11.220705567223275"><ele>42.66666666666667</ele><time>2026-05-01T08:02:48Z</time></trkpt><trkpt lat="43.77413080512531" lon="11.220631580501124"><ele>42.333333333333336</ele><time>2026-05-01T08:02:49Z</time></trkpt><trkpt lat="43.77408308728415" lon="11.220536064212066"><ele>42.0</ele><time>2026-05-01T08:02:50Z</time></trkpt><trkpt lat="43.774042353888156" lon="11.220417407003877"><ele>41.666666666666664</ele><time>2026-05-01T08:02:51Z</time></trkpt><trkpt lat="43.77401324238694" lon="11.22029147074506"><ele>41.33333333333333</ele><time>2026-05-01T08:02:52Z</time></trkpt><trkpt lat="43.77399185490653" lon="11.220150129585505"><ele>41.0</ele><time>2026-05-01T08:02:53Z</time></trkpt><trkpt lat="43.773965493188754" lon="11.219974415058143"><ele>41.25</ele><time>2026-05-01T08:02:54Z</time></trkpt><trkpt lat="43.77394344238278" lon="11.219784101361487"><ele>41.5</ele><time>2026-05-01T08:02:55Z</time></trkpt><trkpt lat="43.773923586971705" lon="11.219568788635183"><ele>41.75</ele><time>2026-05-01T08:02:56Z</time></trkpt><trkpt lat="43.77390512729211" lon="11.219358312585927"><ele>42.0</ele><time>2026-05-01T08:02:57Z</time></trkpt><trkpt lat="43.77389203305155" lon="11.219152941877539"><ele>42.25</ele><time>2026-05-01T08:02:58Z</time></trkpt><trkpt lat="43.77387498264257" lon="11.218952320869542"><ele>42.5</ele><time>2026-05-01T08:02:59Z</time></trkpt><trkpt lat="43.77385686082931" lon="11.218752916632454"><ele>42.75</ele><time>2026-05-01T08:03:00Z</time></trkpt><trkpt lat="43.773840443515326" lon="11.218555820791591"><ele>43.0</ele><time>2026-05-01T08:03:01Z</time></trkpt><trkpt lat="43.77382397191933" lon="11.218363273613045"><ele>43.0</ele><time>2026-05-01T08:03:02Z</time></trkpt><trkpt lat="43.773811148558906" lon="11.218177230762256"><ele>43.0</ele><time>2026-05-01T08:03:03Z</time></trkpt><trkpt lat="43.77379860367579" lon="11.217997351897676"><ele>43.0</ele><time>2026-05-01T08:03:04Z</time></trkpt><trkpt lat="43.77378603911425" lon="11.2178235585264"><ele>43.0</ele><time>2026-05-01T08:03:05Z</time></trkpt><trkpt lat="43.77377663424707" lon="11.217658062917788"><ele>42.75</ele><time>2026-05-01T08:03:06Z</time></trkpt><trkpt lat="43.77376653401795" lon="11.217493055029104"><ele>42.5</ele><time>2026-05-01T08:03:07Z</time></trkpt><trkpt lat="43.773755466214794" lon="11.217336191879873"><ele>42.25</ele><time>2026-05-01T08:03:08Z</time></trkpt><trkpt lat="43.773742073565195" lon="11.217172705640733"><ele>42.0</ele><time>2026-05-01T08:03:09Z</time></trkpt><trkpt lat="43.773722207510204" lon="11.217014123907152"><ele>42.0</ele><time>2026-05-01T08:03:10Z</time></trkpt><trkpt lat="43.77370234764008" lon="11.216856333027605"><ele>42.0</ele><time>2026-05-01T08:03:11Z</time></trkpt><trkpt lat="43.77368418393067" lon="11.2166994130231"><ele>42.0</ele><time>2026-05-01T08:03:12Z</time></trkpt><trkpt lat="43.77366302596012" lon="11.216524702231766"><ele>42.0</ele><time>2026-05-01T08:03:13Z</time></trkpt><trkpt lat="43.773644404921704" lon="11.216356119756103"><ele>42.0</ele><time>2026-05-01T08:03:14Z</time></trkpt><trkpt lat="43.77362733910964" lon="11.216173330710724"><ele>42.0</ele><time>2026-05-01T08:03:15Z</time></trkpt><trkpt lat="43.773609592372814" lon="11.215991816049337"><ele>42.0</ele><time>2026-05-01T08:03:16Z</time></trkpt><trkpt lat="43.773590798102674" lon="11.215805905642712"><ele>42.0</ele><time>2026-05-01T08:03:17Z</time></trkpt><trkpt lat="43.773552130509856" lon="11.215621397747318"><ele>42.25</ele><time>2026-05-01T08:03:18Z</time></trkpt><trkpt lat="43.77353068570976" lon="11.215440003131235"><ele>42.5</ele><time>2026-05-01T08:03:19Z</time></trkpt><trkpt lat="43.77350902567479" lon="11.215256476841136"><ele>42.75</ele><time>2026-05-01T08:03:20Z</time></trkpt><trkpt lat="43.77348709172559" lon="11.21507062969828"><ele>43.0</ele><time>2026-05-01T08:03:21Z</time></trkpt><trkpt lat="43.77346600004339" lon="11.214883359204327"><ele>43.0</ele><time>2026-05-01T08:03:22Z</time></trkpt><trkpt lat="43.773444778655424" lon="11.21469487059571"><ele>43.0</ele><time>2026-05-01T08:03:23Z</time></trkpt><trkpt lat="43.773424084989244" lon="11.214511069376838"><ele>43.0</ele><time>2026-05-01T08:03:24Z</time></trkpt><trkpt lat="43.77340276765457" lon="11.214327479093171"><ele>43.0</ele><time>2026-05-01T08:03:25Z</time></trkpt><trkpt lat="43.77338179998638" lon="11.214148610637006"><ele>42.75</ele><time>2026-05-01T08:03:26Z</time></trkpt><trkpt lat="43.7733614866934" lon="11.213975324650125"><ele>42.5</ele><time>2026-05-01T08:03:27Z</time></trkpt><trkpt lat="43.773342382269924" lon="11.213812350920188"><ele>42.25</ele><time>2026-05-01T08:03:28Z</time></trkpt><trkpt lat="43.773325181136414" lon="11.213665613733856"><ele>42.0</ele><time>2026-05-01T08:03:29Z</time></trkpt><trkpt lat="43.77330994745151" lon="11.213531606317154"><ele>42.0</ele><time>2026-05-01T08:03:30Z</time></trkpt><trkpt lat="43.77329664331372" lon="11.213413377650403"><ele>42.0</ele><time>2026-05-01T08:03:31Z</time></trkpt><trkpt lat="43.77331977646234" lon="11.213303219576014"><ele>42.0</ele><time>2026-05-01T08:03:32Z</time></trkpt><trkpt lat="43.77331883900566" lon="11.213150610205732"><ele>42.0</ele><time>2026-05-01T08:03:33.999Z</time></trkpt><trkpt lat="43.77325103213325" lon="11.21300572494115"><ele>42.0</ele><time>2026-05-01T08:03:35.999Z</time></trkpt><trkpt lat="43.77324064098272" lon="11.212914101307947"><ele>41.833333333333336</ele><time>2026-05-01T08:03:36.999Z</time></trkpt><trkpt lat="43.77322960478795" lon="11.212816790342554"><ele>41.666666666666664</ele><time>2026-05-01T08:03:37.999Z</time></trkpt><trkpt lat="43.77316705560198" lon="11.212714867988097"><ele>41.5</ele><time>2026-05-01T08:03:39.999Z</time></trkpt><trkpt lat="43.77308564141184" lon="11.212721460975118"><ele>41.33333333333333</ele><time>2026-05-01T08:03:40.999Z</time></trkpt><trkpt lat="43.77300509810917" lon="11.212727642813059"><ele>41.166666666666664</ele><time>2026-05-01T08:03:41.999Z</time></trkpt><trkpt lat="43.772915060597946" lon="11.212710232179797"><ele>41.0</ele><time>2026-05-01T08:03:43Z</time></trkpt><trkpt lat="43.7728212854313" lon="11.212669186719914"><ele>41.0</ele><time>2026-05-01T08:03:44Z</time></trkpt><trkpt lat="43.772726637238534" lon="11.212615909726257"><ele>41.0</ele><time>2026-05-01T08:03:45Z</time></trkpt><trkpt lat="43.77263287952963" lon="11.212557535501208"><ele>41.0</ele><time>2026-05-01T08:03:46Z</time></trkpt><trkpt lat="43.772546496835275" lon="11.212475133074188"><ele>41.0</ele><time>2026-05-01T08:03:47Z</time></trkpt><trkpt lat="43.772458565148895" lon="11.212420548155006"><ele>41.0</ele><time>2026-05-01T08:03:48Z</time></trkpt><trkpt lat="43.77237891784117" lon="11.212371380493265"><ele>41.0</ele><time>2026-05-01T08:03:49Z</time></trkpt><trkpt lat="43.772306988974215" lon="11.212326977538538"><ele>41.0</ele><time>2026-05-01T08:03:50Z</time></trkpt><trkpt lat="43.77223215381963" lon="11.212298909878763"><ele>41.0</ele><time>2026-05-01T08:03:51Z</time></trkpt><trkpt lat="43.772158304586426" lon="11.21225142017483"><ele>41.0</ele><time>2026-05-01T08:03:52Z</time></trkpt><trkpt lat="43.772080757679596" lon="11.212208584756038"><ele>41.0</ele><time>2026-05-01T08:03:53Z</time></trkpt><trkpt lat="43.77199819263323" lon="11.21216052127014"><ele>41.0</ele><time>2026-05-01T08:03:54Z</time></trkpt><trkpt lat="43.7719200565688" lon="11.212089097428171"><ele>41.166666666666664</ele><time>2026-05-01T08:03:55Z</time></trkpt><trkpt lat="43.77183434453153" lon="11.212036399581168"><ele>41.33333333333333</ele><time>2026-05-01T08:03:56Z</time></trkpt><trkpt lat="43.77175391955469" lon="11.21198677697965"><ele>41.5</ele><time>2026-05-01T08:03:57Z</time></trkpt><trkpt lat="43.77167940438298" lon="11.211940462094534"><ele>41.666666666666664</ele><time>2026-05-01T08:03:58Z</time></trkpt><trkpt lat="43.771602178379986" lon="11.211916442909716"><ele>41.833333333333336</ele><time>2026-05-01T08:03:59Z</time></trkpt><trkpt lat="43.771538198575875" lon="11.211879402641607"><ele>42.0</ele><time>2026-05-01T08:04:00Z</time></trkpt><trkpt lat="43.77148737088307" lon="11.211824223076174"><ele>42.0</ele><time>2026-05-01T08:04:01Z</time></trkpt><trkpt lat="43.77140741310102" lon="11.211776527818358"><ele>42.0</ele><time>2026-05-01T08:04:03Z</time></trkpt><trkpt lat="43.77132600245819" lon="11.211750690701319"><ele>42.0</ele><time>2026-05-01T08:04:05Z</time></trkpt><trkpt lat="43.77122457768767" lon="11.211687300026894"><ele>42.0</ele><time>2026-05-01T08:04:07Z</time></trkpt><trkpt lat="43.7711675359445" lon="11.211649702131604"><ele>42.0</ele><time>2026-05-01T08:04:08Z</time></trkpt><trkpt lat="43.77110745004883" lon="11.211609094161238"><ele>42.0</ele><time>2026-05-01T08:04:09Z</time></trkpt><trkpt lat="43.77104455762558" lon="11.211565915451855"><ele>42.0</ele><time>2026-05-01T08:04:10Z</time></trkpt><trkpt lat="43.77098280867248" lon="11.21152174185729"><ele>42.0</ele><time>2026-05-01T08:04:11Z</time></trkpt><trkpt lat="43.77089000538043" lon="11.211443531604557"><ele>42.0</ele><time>2026-05-01T08:04:13Z</time></trkpt><trkpt lat="43.77082396340279" lon="11.211382970678775"><ele>42.0</ele><time>2026-05-01T08:04:16Z</time></trkpt><trkpt lat="43.77076016237052" lon="11.211354496682896"><ele>42.0</ele><time>2026-05-01T08:05:09.999Z</time></trkpt><trkpt lat="43.770664311550156" lon="11.211273012259019"><ele>42.0</ele><time>2026-05-01T08:05:11.999Z</time></trkpt><trkpt lat="43.77054226395956" lon="11.211199025630396"><ele>41.8</ele><time>2026-05-01T08:05:13.999Z</time></trkpt><trkpt lat="43.77045829252259" lon="11.211191090259163"><ele>41.6</ele><time>2026-05-01T08:05:14.999Z</time></trkpt><trkpt lat="43.7703767431941" lon="11.211149342859404"><ele>41.4</ele><time>2026-05-01T08:05:15.999Z</time></trkpt><trkpt lat="43.770291513418655" lon="11.21110710561528"><ele>41.199999999999996</ele><time>2026-05-01T08:05:16.999Z</time></trkpt><trkpt lat="43.770201335729425" lon="11.211060640287409"><ele>41.0</ele><time>2026-05-01T08:05:17.999Z</time></trkpt><trkpt lat="43.77010988967703" lon="11.210973218304261"><ele>40.75</ele><time>2026-05-01T08:05:18.999Z</time></trkpt><trkpt lat="43.77000268514485" lon="11.210909531432563"><ele>40.5</ele><time>2026-05-01T08:05:19.999Z</time></trkpt><trkpt lat="43.76989288879917" lon="11.210844305061075"><ele>40.25</ele><time>2026-05-01T08:05:20.999Z</time></trkpt><trkpt lat="43.769771823167744" lon="11.210793515846737"><ele>40.0</ele><time>2026-05-01T08:05:21.999Z</time></trkpt><trkpt lat="43.76965339115505" lon="11.210720033264359"><ele>40.25</ele><time>2026-05-01T08:05:22.999Z</time></trkpt><trkpt lat="43.76953468738216" lon="11.210645454936026"><ele>40.5</ele><time>2026-05-01T08:05:23.999Z</time></trkpt><trkpt lat="43.76941042749666" lon="11.210569982265353"><ele>40.75</ele><time>2026-05-01T08:05:24.999Z</time></trkpt><trkpt lat="43.76929924713292" lon="11.210491825755584"><ele>41.0</ele><time>2026-05-01T08:05:25.999Z</time></trkpt><trkpt lat="43.769178408038314" lon="11.210416706996966"><ele>41.75</ele><time>2026-05-01T08:05:26.999Z</time></trkpt><trkpt lat="43.769063052824976" lon="11.210344316931673"><ele>42.5</ele><time>2026-05-01T08:05:27.999Z</time></trkpt><trkpt lat="43.768950959998364" lon="11.21027425442678"><ele>43.25</ele><time>2026-05-01T08:05:28.999Z</time></trkpt><trkpt lat="43.76883726285255" lon="11.210202148451643"><ele>44.0</ele><time>2026-05-01T08:05:29.999Z</time></trkpt><trkpt lat="43.768727329121766" lon="11.210131964680405"><ele>44.0</ele><time>2026-05-01T08:05:30.999Z</time></trkpt><trkpt lat="43.76862288152166" lon="11.210058925244212"><ele>44.0</ele><time>2026-05-01T08:05:31.999Z</time></trkpt><trkpt lat="43.76852308950996" lon="11.2099877309986"><ele>44.0</ele><time>2026-05-01T08:05:32.999Z</time></trkpt><trkpt lat="43.76843211022034" lon="11.209921764586527"><ele>44.0</ele><time>2026-05-01T08:05:33.999Z</time></trkpt><trkpt lat="43.76834648154831" lon="11.209861527722857"><ele>44.0</ele><time>2026-05-01T08:05:34.999Z</time></trkpt><trkpt lat="43.76827146872014" lon="11.209811728444643"><ele>43.83333333333333</ele><time>2026-05-01T08:05:35.999Z</time></trkpt><trkpt lat="43.76820162373754" lon="11.20976549177053"><ele>43.666666666666664</ele><time>2026-05-01T08:05:36.999Z</time></trkpt><trkpt lat="43.76813698537559" lon="11.209724410254204"><ele>43.5</ele><time>2026-05-01T08:05:37.999Z</time></trkpt><trkpt lat="43.768080993534554" lon="11.209682845570995"><ele>43.333333333333336</ele><time>2026-05-01T08:05:38.999Z</time></trkpt><trkpt lat="43.76798908819443" lon="11.209611933178314"><ele>43.16666666666667</ele><time>2026-05-01T08:05:40.999Z</time></trkpt><trkpt lat="43.76791267512574" lon="11.20954848845524"><ele>43.0</ele><time>2026-05-01T08:05:42.999Z</time></trkpt><trkpt lat="43.76783674396176" lon="11.209439248921505"><ele>43.0</ele><time>2026-05-01T08:05:53.999Z</time></trkpt><trkpt lat="43.76778039828144" lon="11.209355974893898"><ele>43.0</ele><time>2026-05-01T08:05:54.999Z</time></trkpt><trkpt lat="43.767709836240414" lon="11.209249683569436"><ele>43.0</ele><time>2026-05-01T08:05:55.999Z</time></trkpt><trkpt lat="43.76764698092135" lon="11.209156427570502"><ele>43.0</ele><time>2026-05-01T08:05:56.999Z</time></trkpt><trkpt lat="43.767591240640144" lon="11.209064308672055"><ele>43.0</ele><time>2026-05-01T08:05:57.999Z</time></trkpt><trkpt lat="43.76752631883252" lon="11.20900681214574"><ele>43.0</ele><time>2026-05-01T08:05:59Z</time></trkpt><trkpt lat="43.767463741482786" lon="11.2089638789153"><ele>42.833333333333336</ele><time>2026-05-01T08:06:00Z</time></trkpt><trkpt lat="43.767399146437434" lon="11.20895682929949"><ele>42.66666666666667</ele><time>2026-05-01T08:06:01Z</time></trkpt><trkpt lat="43.76731243138652" lon="11.208927673405631"><ele>42.5</ele><time>2026-05-01T08:06:03Z</time></trkpt><trkpt lat="43.76724400132071" lon="11.208906601367202"><ele>42.333333333333336</ele><time>2026-05-01T08:06:13Z</time></trkpt><trkpt lat="43.767156328152986" lon="11.208860258604469"><ele>42.166666666666664</ele><time>2026-05-01T08:06:15Z</time></trkpt><trkpt lat="43.7670856714726" lon="11.208821306284708"><ele>42.0</ele><time>2026-05-01T08:06:16Z</time></trkpt><trkpt lat="43.76699449838109" lon="11.208757699414052"><ele>42.0</ele><time>2026-05-01T08:06:17Z</time></trkpt><trkpt lat="43.76690592290841" lon="11.208680714197866"><ele>42.0</ele><time>2026-05-01T08:06:18Z</time></trkpt><trkpt lat="43.76681930534201" lon="11.208582978965875"><ele>42.0</ele><time>2026-05-01T08:06:19Z</time></trkpt><trkpt lat="43.766728311705336" lon="11.208467999110756"><ele>42.0</ele><time>2026-05-01T08:06:20Z</time></trkpt><trkpt lat="43.766631355357674" lon="11.208344453049442"><ele>42.0</ele><time>2026-05-01T08:06:21Z</time></trkpt><trkpt lat="43.766528411444874" lon="11.208220057652932"><ele>42.0</ele><time>2026-05-01T08:06:22Z</time></trkpt><trkpt lat="43.766417898443095" lon="11.208086928273486"><ele>42.0</ele><time>2026-05-01T08:06:23Z</time></trkpt><trkpt lat="43.76631181208337" lon="11.207946839015532"><ele>42.0</ele><time>2026-05-01T08:06:24Z</time></trkpt><trkpt lat="43.76619989317463" lon="11.207800085991238"><ele>42.0</ele><time>2026-05-01T08:06:25Z</time></trkpt><trkpt lat="43.76609282706103" lon="11.207635803582903"><ele>42.0</ele><time>2026-05-01T08:06:26Z</time></trkpt><trkpt lat="43.765990949522156" lon="11.207467306591408"><ele>42.0</ele><time>2026-05-01T08:06:27Z</time></trkpt><trkpt lat="43.7658893241141" lon="11.207290352095967"><ele>41.333333333333336</ele><time>2026-05-01T08:06:28Z</time></trkpt><trkpt lat="43.765790298909735" lon="11.207116831919091"><ele>40.66666666666667</ele><time>2026-05-01T08:06:29Z</time></trkpt><trkpt lat="43.765685979072984" lon="11.20693228587384"><ele>40.0</ele><time>2026-05-01T08:06:30Z</time></trkpt><trkpt lat="43.76558907891989" lon="11.206753049998325"><ele>40.0</ele><time>2026-05-01T08:06:31Z</time></trkpt><trkpt lat="43.765488153167865" lon="11.206573381614936"><ele>40.0</ele><time>2026-05-01T08:06:32Z</time></trkpt><trkpt lat="43.76540767354556" lon="11.206376613062615"><ele>40.0</ele><time>2026-05-01T08:06:33Z</time></trkpt><trkpt lat="43.76531794078676" lon="11.206198641176103"><ele>40.0</ele><time>2026-05-01T08:06:34Z</time></trkpt><trkpt lat="43.765229210196786" lon="11.206021878888146"><ele>40.0</ele><time>2026-05-01T08:06:35Z</time></trkpt><trkpt lat="43.7651699551824" lon="11.205834164488012"><ele>40.0</ele><time>2026-05-01T08:06:36Z</time></trkpt><trkpt lat="43.76511955996778" lon="11.205639902013859"><ele>40.0</ele><time>2026-05-01T08:06:37Z</time></trkpt><trkpt lat="43.765075345687315" lon="11.205443007567123"><ele>40.0</ele><time>2026-05-01T08:06:38Z</time></trkpt><trkpt lat="43.76503770200094" lon="11.205238359523818"><ele>40.0</ele><time>2026-05-01T08:06:39Z</time></trkpt><trkpt lat="43.76500285831862" lon="11.205028535564804"><ele>40.66666666666667</ele><time>2026-05-01T08:06:40Z</time></trkpt><trkpt lat="43.764973912398155" lon="11.204823463800723"><ele>41.333333333333336</ele><time>2026-05-01T08:06:41Z</time></trkpt><trkpt lat="43.76494293327671" lon="11.204619975939057"><ele>42.0</ele><time>2026-05-01T08:06:42Z</time></trkpt><trkpt lat="43.76491016392801" lon="11.20440867060743"><ele>42.0</ele><time>2026-05-01T08:06:43Z</time></trkpt><trkpt lat="43.76487867292575" lon="11.204201801001483"><ele>42.0</ele><time>2026-05-01T08:06:44Z</time></trkpt><trkpt lat="43.76484877269972" lon="11.203988723452198"><ele>42.0</ele><time>2026-05-01T08:06:45Z</time></trkpt><trkpt lat="43.76482229619051" lon="11.203773501553117"><ele>41.666666666666664</ele><time>2026-05-01T08:06:46Z</time></trkpt><trkpt lat="43.76480045900256" lon="11.20354720248124"><ele>41.33333333333333</ele><time>2026-05-01T08:06:47Z</time></trkpt><trkpt lat="43.76478373779389" lon="11.203318881824746"><ele>41.0</ele><time>2026-05-01T08:06:48Z</time></trkpt><trkpt lat="43.764766040019104" lon="11.20308054894229"><ele>41.0</ele><time>2026-05-01T08:06:49Z</time></trkpt><trkpt lat="43.76474820579689" lon="11.202842341302516"><ele>41.0</ele><time>2026-05-01T08:06:50Z</time></trkpt><trkpt lat="43.76473032967088" lon="11.202601999771145"><ele>41.0</ele><time>2026-05-01T08:06:51Z</time></trkpt><trkpt lat="43.76471239716645" lon="11.20236780147725"><ele>40.666666666666664</ele><time>2026-05-01T08:06:52Z</time></trkpt><trkpt lat="43.764695046372005" lon="11.202137964925697"><ele>40.333333333333336</ele><time>2026-05-01T08:06:53Z</time></trkpt><trkpt lat="43.76467506648575" lon="11.201916869854786"><ele>40.0</ele><time>2026-05-01T08:06:54Z</time></trkpt><trkpt lat="43.76465582692415" lon="11.201694584706487"><ele>40.66666666666667</ele><time>2026-05-01T08:06:55Z</time></trkpt><trkpt lat="43.76463969407831" lon="11.201483136707557"><ele>41.333333333333336</ele><time>2026-05-01T08:06:56Z</time></trkpt><trkpt lat="43.764622403404466" lon="11.201267757070182"><ele>42.0</ele><time>2026-05-01T08:06:57Z</time></trkpt><trkpt lat="43.76460592274001" lon="11.201062238977473"><ele>42.0</ele><time>2026-05-01T08:06:58Z</time></trkpt><trkpt lat="43.764590988645836" lon="11.200856625582412"><ele>42.0</ele><time>2026-05-01T08:06:59Z</time></trkpt><trkpt lat="43.76457622272137" lon="11.200655420370813"><ele>42.0</ele><time>2026-05-01T08:07:00Z</time></trkpt><trkpt lat="43.76456191243274" lon="11.200462832218957"><ele>42.0</ele><time>2026-05-01T08:07:01Z</time></trkpt><trkpt lat="43.76455410289558" lon="11.200290742702457"><ele>41.75</ele><time>2026-05-01T08:07:02Z</time></trkpt><trkpt lat="43.76456672552685" lon="11.200124508364922"><ele>41.5</ele><time>2026-05-01T08:07:03Z</time></trkpt><trkpt lat="43.76461054363069" lon="11.199969581427673"><ele>41.25</ele><time>2026-05-01T08:07:04Z</time></trkpt><trkpt lat="43.764679349253285" lon="11.199818387976139"><ele>41.0</ele><time>2026-05-01T08:07:05Z</time></trkpt><trkpt lat="43.7647385850576" lon="11.199659645869913"><ele>40.5</ele><time>2026-05-01T08:07:06Z</time></trkpt><trkpt lat="43.764744731365404" lon="11.199492950794712"><ele>40.0</ele><time>2026-05-01T08:07:07Z</time></trkpt><trkpt lat="43.764729536606715" lon="11.199321460694183"><ele>39.5</ele><time>2026-05-01T08:07:08Z</time></trkpt><trkpt lat="43.76463608383379" lon="11.199172887248595"><ele>39.0</ele><time>2026-05-01T08:07:09Z</time></trkpt><trkpt lat="43.76455759522748" lon="11.199019830496828"><ele>39.25</ele><time>2026-05-01T08:07:10Z</time></trkpt><trkpt lat="43.764489588609976" lon="11.198845847188686"><ele>39.5</ele><time>2026-05-01T08:07:10.999Z</time></trkpt><trkpt lat="43.76443383715213" lon="11.198659488423138"><ele>39.75</ele><time>2026-05-01T08:07:11.999Z</time></trkpt><trkpt lat="43.76438176488515" lon="11.19845680873408"><ele>40.0</ele><time>2026-05-01T08:07:12.999Z</time></trkpt><trkpt lat="43.76433423307879" lon="11.198259925576256"><ele>39.75</ele><time>2026-05-01T08:07:13.999Z</time></trkpt><trkpt lat="43.76428847263334" lon="11.198071899186463"><ele>39.5</ele><time>2026-05-01T08:07:14.999Z</time></trkpt><trkpt lat="43.7642421065875" lon="11.19789325873671"><ele>39.25</ele><time>2026-05-01T08:07:15.999Z</time></trkpt><trkpt lat="43.76420229958253" lon="11.19771255501532"><ele>39.0</ele><time>2026-05-01T08:07:16.999Z</time></trkpt><trkpt lat="43.76416418717374" lon="11.197537998285473"><ele>39.0</ele><time>2026-05-01T08:07:17.999Z</time></trkpt><trkpt lat="43.764133159801396" lon="11.197368004965014"><ele>39.0</ele><time>2026-05-01T08:07:18.999Z</time></trkpt><trkpt lat="43.76410399345422" lon="11.197197528578162"><ele>39.0</ele><time>2026-05-01T08:07:19.999Z</time></trkpt><trkpt lat="43.764082262469806" lon="11.197037937939783"><ele>39.0</ele><time>2026-05-01T08:07:20.999Z</time></trkpt><trkpt lat="43.76406211318682" lon="11.196881288301066"><ele>39.0</ele><time>2026-05-01T08:07:21.999Z</time></trkpt><trkpt lat="43.764037069379846" lon="11.196728449048313"><ele>39.0</ele><time>2026-05-01T08:07:22.999Z</time></trkpt><trkpt lat="43.76400178394684" lon="11.196588370426918"><ele>39.0</ele><time>2026-05-01T08:07:23.999Z</time></trkpt><trkpt lat="43.76395588059538" lon="11.196455203404577"><ele>39.0</ele><time>2026-05-01T08:07:24.999Z</time></trkpt><trkpt lat="43.76390366027296" lon="11.196337499488532"><ele>39.0</ele><time>2026-05-01T08:07:25.999Z</time></trkpt><trkpt lat="43.763870471026515" lon="11.196219692595731"><ele>39.166666666666664</ele><time>2026-05-01T08:07:26.999Z</time></trkpt><trkpt lat="43.76379400441257" lon="11.196145449724797"><ele>39.333333333333336</ele><time>2026-05-01T08:07:27.999Z</time></trkpt><trkpt lat="43.76374205614931" lon="11.196058422920306"><ele>39.5</ele><time>2026-05-01T08:07:28.999Z</time></trkpt><trkpt lat="43.7636539296167" lon="11.196062929157648"><ele>39.66666666666667</ele><time>2026-05-01T08:07:29.999Z</time></trkpt><trkpt lat="43.76358384780762" lon="11.196078813851416"><ele>39.833333333333336</ele><time>2026-05-01T08:07:30.999Z</time></trkpt><trkpt lat="43.76351777387899" lon="11.196097508319909"><ele>40.0</ele><time>2026-05-01T08:07:31.999Z</time></trkpt><trkpt lat="43.76346448459128" lon="11.196187351758232"><ele>40.0</ele><time>2026-05-01T08:07:32.999Z</time></trkpt><trkpt lat="43.76341253926814" lon="11.196286499696376"><ele>40.0</ele><time>2026-05-01T08:07:33.999Z</time></trkpt><trkpt lat="43.763369667562266" lon="11.19642956415729"><ele>40.0</ele><time>2026-05-01T08:07:34.999Z</time></trkpt><trkpt lat="43.76333015257088" lon="11.19658449127622"><ele>40.0</ele><time>2026-05-01T08:07:35.999Z</time></trkpt><trkpt lat="43.76328858007563" lon="11.196750013713775"><ele>40.0</ele><time>2026-05-01T08:07:36.999Z</time></trkpt><trkpt lat="43.76322958884546" lon="11.196906829370835"><ele>40.0</ele><time>2026-05-01T08:07:37.999Z</time></trkpt><trkpt lat="43.7631592628547" lon="11.197049922324172"><ele>40.0</ele><time>2026-05-01T08:07:38.999Z</time></trkpt><trkpt lat="43.76308074963088" lon="11.197178100721615"><ele>40.0</ele><time>2026-05-01T08:07:39.999Z</time></trkpt><trkpt lat="43.76300421799147" lon="11.197308922563455"><ele>40.0</ele><time>2026-05-01T08:07:40.999Z</time></trkpt><trkpt lat="43.76295464315527" lon="11.197446136275222"><ele>40.25</ele><time>2026-05-01T08:07:41.999Z</time></trkpt><trkpt lat="43.76284139908343" lon="11.197560968551356"><ele>40.5</ele><time>2026-05-01T08:07:42.999Z</time></trkpt><trkpt lat="43.76276691093983" lon="11.197710115958495"><ele>40.75</ele><time>2026-05-01T08:07:43.999Z</time></trkpt><trkpt lat="43.76267431996007" lon="11.197848556464741"><ele>41.0</ele><time>2026-05-01T08:07:44.999Z</time></trkpt><trkpt lat="43.762582452067306" lon="11.197984246437956"><ele>41.0</ele><time>2026-05-01T08:07:45.999Z</time></trkpt><trkpt lat="43.76248947124491" lon="11.19812333301971"><ele>41.0</ele><time>2026-05-01T08:07:46.999Z</time></trkpt><trkpt lat="43.762394606721664" lon="11.198264239128699"><ele>41.0</ele><time>2026-05-01T08:07:47.999Z</time></trkpt><trkpt lat="43.76229994275711" lon="11.198401592834484"><ele>41.0</ele><time>2026-05-01T08:07:48.999Z</time></trkpt><trkpt lat="43.76220799157236" lon="11.198536351775294"><ele>41.0</ele><time>2026-05-01T08:07:49.999Z</time></trkpt><trkpt lat="43.762119709760206" lon="11.198673692322675"><ele>41.0</ele><time>2026-05-01T08:07:50.999Z</time></trkpt><trkpt lat="43.76203156891096" lon="11.198808422170217"><ele>41.0</ele><time>2026-05-01T08:07:51.999Z</time></trkpt><trkpt lat="43.76194294953521" lon="11.198942194990556"><ele>41.0</ele><time>2026-05-01T08:07:52.999Z</time></trkpt><trkpt lat="43.76185503193891" lon="11.199076439073085"><ele>41.25</ele><time>2026-05-01T08:07:54Z</time></trkpt><trkpt lat="43.761770286623964" lon="11.199204184999068"><ele>41.5</ele><time>2026-05-01T08:07:55Z</time></trkpt><trkpt lat="43.76168658472209" lon="11.199326309744421"><ele>41.75</ele><time>2026-05-01T08:07:56Z</time></trkpt><trkpt lat="43.76160644656994" lon="11.19944363665166"><ele>42.0</ele><time>2026-05-01T08:07:57Z</time></trkpt><trkpt lat="43.7615276369259" lon="11.199569625192307"><ele>42.0</ele><time>2026-05-01T08:07:58Z</time></trkpt><trkpt lat="43.76145025545815" lon="11.199689693397051"><ele>42.0</ele><time>2026-05-01T08:07:59Z</time></trkpt><trkpt lat="43.761373420408" lon="11.199804270477259"><ele>42.0</ele><time>2026-05-01T08:08:00Z</time></trkpt><trkpt lat="43.761303343448745" lon="11.199916570685483"><ele>42.0</ele><time>2026-05-01T08:08:01Z</time></trkpt><trkpt lat="43.76124259090947" lon="11.20000736013277"><ele>42.0</ele><time>2026-05-01T08:08:02Z</time></trkpt><trkpt lat="43.76118120151914" lon="11.20009378617612"><ele>42.0</ele><time>2026-05-01T08:08:03Z</time></trkpt><trkpt lat="43.761125336781674" lon="11.200165549440722"><ele>42.0</ele><time>2026-05-01T08:08:04Z</time></trkpt><trkpt lat="43.76106717680876" lon="11.20022009467628"><ele>42.0</ele><time>2026-05-01T08:08:05Z</time></trkpt><trkpt lat="43.76100184715816" lon="11.200267653131979"><ele>42.0</ele><time>2026-05-01T08:08:06Z</time></trkpt><trkpt lat="43.76093481611904" lon="11.200326693761781"><ele>42.0</ele><time>2026-05-01T08:08:07Z</time></trkpt><trkpt lat="43.76088113587393" lon="11.200414377042017"><ele>42.0</ele><time>2026-05-01T08:08:08Z</time></trkpt><trkpt lat="43.76083218320059" lon="11.200521503630911"><ele>41.8</ele><time>2026-05-01T08:08:09Z</time></trkpt><trkpt lat="43.76077390650655" lon="11.200627640863928"><ele>41.6</ele><time>2026-05-01T08:08:10Z</time></trkpt><trkpt lat="43.76070657940359" lon="11.200719692900737"><ele>41.4</ele><time>2026-05-01T08:08:11Z</time></trkpt><trkpt lat="43.76062875806443" lon="11.200806845735723"><ele>41.199999999999996</ele><time>2026-05-01T08:08:12Z</time></trkpt><trkpt lat="43.760549778987546" lon="11.200897883854134"><ele>41.0</ele><time>2026-05-01T08:08:13Z</time></trkpt><trkpt lat="43.76047796238313" lon="11.200997058874666"><ele>41.0</ele><time>2026-05-01T08:08:14Z</time></trkpt><trkpt lat="43.76041335231077" lon="11.201110634645225"><ele>41.0</ele><time>2026-05-01T08:08:15Z</time></trkpt><trkpt lat="43.760364751576674" lon="11.20124434933151"><ele>41.0</ele><time>2026-05-01T08:08:16Z</time></trkpt><trkpt lat="43.76032513129528" lon="11.20139678642154"><ele>41.0</ele><time>2026-05-01T08:08:17Z</time></trkpt><trkpt lat="43.760299725430315" lon="11.201560824736632"><ele>41.75</ele><time>2026-05-01T08:08:18Z</time></trkpt><trkpt lat="43.760293800109146" lon="11.201736575822727"><ele>42.5</ele><time>2026-05-01T08:08:19Z</time></trkpt><trkpt lat="43.7602986369721" lon="11.20190673021322"><ele>43.25</ele><time>2026-05-01T08:08:20Z</time></trkpt><trkpt lat="43.760306576582515" lon="11.202067607812696"><ele>44.0</ele><time>2026-05-01T08:08:21Z</time></trkpt><trkpt lat="43.76031093963994" lon="11.202219095405441"><ele>44.0</ele><time>2026-05-01T08:08:22Z</time></trkpt><trkpt lat="43.76031162735311" lon="11.20235641410464"><ele>44.0</ele><time>2026-05-01T08:08:23Z</time></trkpt><trkpt lat="43.760314469987314" lon="11.202473799995738"><ele>44.0</ele><time>2026-05-01T08:08:24Z</time></trkpt><trkpt lat="43.760313140645586" lon="11.202573526419949"><ele>44.0</ele><time>2026-05-01T08:08:25Z</time></trkpt><trkpt lat="43.76028416189415" lon="11.202718370356717"><ele>44.0</ele><time>2026-05-01T08:08:27Z</time></trkpt><trkpt lat="43.760227317087626" lon="11.20284239938886"><ele>44.166666666666664</ele><time>2026-05-01T08:08:29Z</time></trkpt><trkpt lat="43.760193199832514" lon="11.202920723427946"><ele>44.33333333333333</ele><time>2026-05-01T08:08:31Z</time></trkpt><trkpt lat="43.76014947743366" lon="11.203003901315547"><ele>44.5</ele><time>2026-05-01T08:08:33Z</time></trkpt><trkpt lat="43.76003665425346" lon="11.203057572845228"><ele>44.666666666666664</ele><time>2026-05-01T08:08:35Z</time></trkpt><trkpt lat="43.75997097585516" lon="11.203065157844964"><ele>44.833333333333336</ele><time>2026-05-01T08:08:36Z</time></trkpt><trkpt lat="43.7598498417746" lon="11.203076917127163"><ele>45.0</ele><time>2026-05-01T08:08:38Z</time></trkpt><trkpt lat="43.7597858978419" lon="11.203082855876803"><ele>45.0</ele><time>2026-05-01T08:08:39Z</time></trkpt><trkpt lat="43.75971207964371" lon="11.203087493031541"><ele>45.0</ele><time>2026-05-01T08:08:40Z</time></trkpt><trkpt lat="43.759633128706234" lon="11.203091935180556"><ele>45.0</ele><time>2026-05-01T08:08:41Z</time></trkpt><trkpt lat="43.759551243324196" lon="11.203096636515605"><ele>45.0</ele><time>2026-05-01T08:08:42Z</time></trkpt><trkpt lat="43.759470511561275" lon="11.203100357255938"><ele>45.0</ele><time>2026-05-01T08:08:43Z</time></trkpt><trkpt lat="43.75940292554696" lon="11.203102874915682"><ele>45.0</ele><time>2026-05-01T08:08:44Z</time></trkpt><trkpt lat="43.759319868347795" lon="11.203108902372515"><ele>45.333333333333336</ele><time>2026-05-01T08:08:46Z</time></trkpt><trkpt lat="43.75924746451047" lon="11.2031061170472"><ele>45.666666666666664</ele><time>2026-05-01T08:08:48Z</time></trkpt><trkpt lat="43.75916219342143" lon="11.202996947137148"><ele>46.0</ele><time>2026-05-01T08:08:50Z</time></trkpt><trkpt lat="43.75911618831035" lon="11.202903400628628"><ele>46.33333333333333</ele><time>2026-05-01T08:08:51Z</time></trkpt><trkpt lat="43.759069102586494" lon="11.202805386607617"><ele>46.666666666666664</ele><time>2026-05-01T08:08:52Z</time></trkpt><trkpt lat="43.759032346119646" lon="11.202705088284565"><ele>47.0</ele><time>2026-05-01T08:08:53Z</time></trkpt><trkpt lat="43.75899711479985" lon="11.202600271585164"><ele>47.0</ele><time>2026-05-01T08:08:54Z</time></trkpt><trkpt lat="43.75896137094276" lon="11.20249302481462"><ele>47.0</ele><time>2026-05-01T08:08:55Z</time></trkpt><trkpt lat="43.75892544324658" lon="11.202382914965753"><ele>47.0</ele><time>2026-05-01T08:08:56Z</time></trkpt><trkpt lat="43.75888909891554" lon="11.202266391617478"><ele>47.0</ele><time>2026-05-01T08:08:57Z</time></trkpt><trkpt lat="43.75885411708395" lon="11.20214694065007"><ele>47.0</ele><time>2026-05-01T08:08:58Z</time></trkpt><trkpt lat="43.75882028127932" lon="11.202029579336678"><ele>47.0</ele><time>2026-05-01T08:08:59Z</time></trkpt><trkpt lat="43.7587840478469" lon="11.201910297601707"><ele>47.2</ele><time>2026-05-01T08:09:00Z</time></trkpt><trkpt lat="43.75874668949199" lon="11.201789102724803"><ele>47.400000000000006</ele><time>2026-05-01T08:09:01Z</time></trkpt><trkpt lat="43.758707069465174" lon="11.201667016784112"><ele>47.599999999999994</ele><time>2026-05-01T08:09:02Z</time></trkpt><trkpt lat="43.75866561760336" lon="11.201546382671383"><ele>47.8</ele><time>2026-05-01T08:09:03Z</time></trkpt><trkpt lat="43.758618353943" lon="11.201429206834826"><ele>48.0</ele><time>2026-05-01T08:09:04Z</time></trkpt><trkpt lat="43.758562003437504" lon="11.201315216645465"><ele>48.0</ele><time>2026-05-01T08:09:05Z</time></trkpt><trkpt lat="43.75849705312919" lon="11.201209150799537"><ele>48.0</ele><time>2026-05-01T08:09:06Z</time></trkpt><trkpt lat="43.758425801493864" lon="11.201109244681207"><ele>48.0</ele><time>2026-05-01T08:09:07Z</time></trkpt><trkpt lat="43.75834634695914" lon="11.201016390084877"><ele>48.0</ele><time>2026-05-01T08:09:08Z</time></trkpt><trkpt lat="43.7582662348742" lon="11.200922747872657"><ele>48.0</ele><time>2026-05-01T08:09:09Z</time></trkpt><trkpt lat="43.75818531781412" lon="11.200831681162747"><ele>48.0</ele><time>2026-05-01T08:09:10Z</time></trkpt><trkpt lat="43.7581022327765" lon="11.200735852550126"><ele>48.0</ele><time>2026-05-01T08:09:11Z</time></trkpt><trkpt lat="43.75801786074431" lon="11.200640705444583"><ele>48.0</ele><time>2026-05-01T08:09:12Z</time></trkpt><trkpt lat="43.75793465223112" lon="11.200546850566989"><ele>48.0</ele><time>2026-05-01T08:09:13Z</time></trkpt><trkpt lat="43.75785339170686" lon="11.200451030022013"><ele>48.0</ele><time>2026-05-01T08:09:14Z</time></trkpt><trkpt lat="43.757773471310394" lon="11.200349070810525"><ele>47.8</ele><time>2026-05-01T08:09:15Z</time></trkpt><trkpt lat="43.7577039360927" lon="11.200236141246844"><ele>47.599999999999994</ele><time>2026-05-01T08:09:16Z</time></trkpt><trkpt lat="43.75764396500025" lon="11.20010595996618"><ele>47.400000000000006</ele><time>2026-05-01T08:09:17Z</time></trkpt><trkpt lat="43.75758913674852" lon="11.19998234435642"><ele>47.2</ele><time>2026-05-01T08:09:18Z</time></trkpt><trkpt lat="43.75753207214042" lon="11.199865439323126"><ele>47.0</ele><time>2026-05-01T08:09:19Z</time></trkpt><trkpt lat="43.757475903645926" lon="11.199746731557159"><ele>47.0</ele><time>2026-05-01T08:09:20Z</time></trkpt><trkpt lat="43.7574220490904" lon="11.19963238820576"><ele>47.0</ele><time>2026-05-01T08:09:21Z</time></trkpt><trkpt lat="43.75737713906643" lon="11.199529294445696"><ele>47.0</ele><time>2026-05-01T08:09:22Z</time></trkpt><trkpt lat="43.75733782233879" lon="11.199435212019937"><ele>47.0</ele><time>2026-05-01T08:09:23Z</time></trkpt><trkpt lat="43.757305595351596" lon="11.19935096256318"><ele>47.0</ele><time>2026-05-01T08:09:24Z</time></trkpt><trkpt lat="43.75727638979275" lon="11.199267673494324"><ele>47.0</ele><time>2026-05-01T08:09:25Z</time></trkpt><trkpt lat="43.75724822508137" lon="11.199173175936217"><ele>47.0</ele><time>2026-05-01T08:09:26Z</time></trkpt><trkpt lat="43.757211688002876" lon="11.199072546276298"><ele>47.0</ele><time>2026-05-01T08:09:27Z</time></trkpt><trkpt lat="43.757169947233855" lon="11.198969796563533"><ele>47.0</ele><time>2026-05-01T08:09:28Z</time></trkpt><trkpt lat="43.7571237819072" lon="11.19886084713125"><ele>47.0</ele><time>2026-05-01T08:09:29Z</time></trkpt><trkpt lat="43.75707564850212" lon="11.198755241997272"><ele>47.0</ele><time>2026-05-01T08:09:30Z</time></trkpt><trkpt lat="43.7570185918219" lon="11.198652530675954"><ele>47.0</ele><time>2026-05-01T08:09:31Z</time></trkpt><trkpt lat="43.75695679413177" lon="11.198552296475714"><ele>47.2</ele><time>2026-05-01T08:09:32Z</time></trkpt><trkpt lat="43.75691456922611" lon="11.19843212122803"><ele>47.400000000000006</ele><time>2026-05-01T08:09:33Z</time></trkpt><trkpt lat="43.75685920855093" lon="11.198330577224615"><ele>47.599999999999994</ele><time>2026-05-01T08:09:34Z</time></trkpt><trkpt lat="43.756804189973096" lon="11.198238902225485"><ele>47.8</ele><time>2026-05-01T08:09:35Z</time></trkpt><trkpt lat="43.75672956295154" lon="11.198118393835438"><ele>48.0</ele><time>2026-05-01T08:09:36Z</time></trkpt><trkpt lat="43.756654531152" lon="11.19801875777578"><ele>48.2</ele><time>2026-05-01T08:09:37Z</time></trkpt><trkpt lat="43.756597753636456" lon="11.197907613777097"><ele>48.4</ele><time>2026-05-01T08:09:38Z</time></trkpt><trkpt lat="43.75654560240128" lon="11.197801393499203"><ele>48.6</ele><time>2026-05-01T08:09:39Z</time></trkpt><trkpt lat="43.75649329705731" lon="11.197693575089517"><ele>48.800000000000004</ele><time>2026-05-01T08:09:40Z</time></trkpt><trkpt lat="43.75645127841632" lon="11.19758977248567"><ele>49.0</ele><time>2026-05-01T08:09:41Z</time></trkpt><trkpt lat="43.75641569040858" lon="11.197486166054436"><ele>48.99999999999999</ele><time>2026-05-01T08:09:42Z</time></trkpt><trkpt lat="43.75637837775361" lon="11.197379991503382"><ele>49.0</ele><time>2026-05-01T08:09:43Z</time></trkpt><trkpt lat="43.75635100466386" lon="11.197292552445552"><ele>49.0</ele><time>2026-05-01T08:09:44Z</time></trkpt><trkpt lat="43.75630033903455" lon="11.19715262541249"><ele>49.0</ele><time>2026-05-01T08:09:46Z</time></trkpt><trkpt lat="43.75626517831765" lon="11.197059325200692"><ele>48.99999999999999</ele><time>2026-05-01T08:09:49Z</time></trkpt><trkpt lat="43.756206142383874" lon="11.19700939479255"><ele>49.0</ele><time>2026-05-01T08:10:49Z</time></trkpt><trkpt lat="43.75614195953355" lon="11.196838506615071"><ele>48.666666666666664</ele><time>2026-05-01T08:10:51Z</time></trkpt><trkpt lat="43.75610796207991" lon="11.196750377289506"><ele>48.33333333333333</ele><time>2026-05-01T08:10:52Z</time></trkpt><trkpt lat="43.75607121125259" lon="11.196655693881153"><ele>48.0</ele><time>2026-05-01T08:10:53Z</time></trkpt><trkpt lat="43.75603098265808" lon="11.19654937310663"><ele>47.666666666666664</ele><time>2026-05-01T08:10:54Z</time></trkpt><trkpt lat="43.75599015847115" lon="11.196443155381568"><ele>47.33333333333333</ele><time>2026-05-01T08:10:55Z</time></trkpt><trkpt lat="43.75594879214689" lon="11.196335239970256"><ele>47.0</ele><time>2026-05-01T08:10:56Z</time></trkpt><trkpt lat="43.755905527851205" lon="11.196224324910629"><ele>46.6</ele><time>2026-05-01T08:10:57Z</time></trkpt><trkpt lat="43.75585978018314" lon="11.196103147791428"><ele>46.2</ele><time>2026-05-01T08:10:58Z</time></trkpt><trkpt lat="43.755814446346946" lon="11.195974373499324"><ele>45.8</ele><time>2026-05-01T08:10:59Z</time></trkpt><trkpt lat="43.755788472080205" lon="11.19583357004707"><ele>45.4</ele><time>2026-05-01T08:11:00Z</time></trkpt><trkpt lat="43.75573073816293" lon="11.195698880400064"><ele>45.0</ele><time>2026-05-01T08:11:01Z</time></trkpt><trkpt lat="43.755689288249954" lon="11.195550577534833"><ele>45.0</ele><time>2026-05-01T08:11:02Z</time></trkpt><trkpt lat="43.75563880286482" lon="11.195401513798489"><ele>45.0</ele><time>2026-05-01T08:11:03Z</time></trkpt><trkpt lat="43.755580078666924" lon="11.195258867108452"><ele>45.0</ele><time>2026-05-01T08:11:04Z</time></trkpt><trkpt lat="43.75553310707639" lon="11.195104914644627"><ele>45.0</ele><time>2026-05-01T08:11:05Z</time></trkpt><trkpt lat="43.755466830223845" lon="11.19495968254006"><ele>45.0</ele><time>2026-05-01T08:11:06Z</time></trkpt><trkpt lat="43.75538019138056" lon="11.194829010051443"><ele>45.0</ele><time>2026-05-01T08:11:07Z</time></trkpt><trkpt lat="43.7553030202609" lon="11.194684924942536"><ele>45.0</ele><time>2026-05-01T08:11:08Z</time></trkpt><trkpt lat="43.755240232772486" lon="11.194529539538518"><ele>45.0</ele><time>2026-05-01T08:11:09Z</time></trkpt><trkpt lat="43.75516073880247" lon="11.194378311285043"><ele>45.0</ele><time>2026-05-01T08:11:10Z</time></trkpt><trkpt lat="43.755080921783644" lon="11.194226447639945"><ele>45.0</ele><time>2026-05-01T08:11:11Z</time></trkpt><trkpt lat="43.755004609804615" lon="11.194076436053207"><ele>45.0</ele><time>2026-05-01T08:11:12Z</time></trkpt><trkpt lat="43.75492814964478" lon="11.193924335296979"><ele>45.0</ele><time>2026-05-01T08:11:13Z</time></trkpt><trkpt lat="43.754855329274065" lon="11.193778912597002"><ele>44.75</ele><time>2026-05-01T08:11:14Z</time></trkpt><trkpt lat="43.75478382326881" lon="11.193634984734365"><ele>44.5</ele><time>2026-05-01T08:11:15Z</time></trkpt><trkpt lat="43.7547142001418" lon="11.19348993651846"><ele>44.25</ele><time>2026-05-01T08:11:16Z</time></trkpt><trkpt lat="43.75464690260787" lon="11.193346959284352"><ele>44.0</ele><time>2026-05-01T08:11:17Z</time></trkpt><trkpt lat="43.75458701495991" lon="11.19321296537831"><ele>44.400000000000006</ele><time>2026-05-01T08:11:18Z</time></trkpt><trkpt lat="43.754525138585514" lon="11.193071931399587"><ele>44.8</ele><time>2026-05-01T08:11:19Z</time></trkpt><trkpt lat="43.75447097122823" lon="11.192945885682443"><ele>45.2</ele><time>2026-05-01T08:11:20Z</time></trkpt><trkpt lat="43.75442303543334" lon="11.192830579192655"><ele>45.599999999999994</ele><time>2026-05-01T08:11:21Z</time></trkpt><trkpt lat="43.75438276635318" lon="11.192730077535701"><ele>46.0</ele><time>2026-05-01T08:11:22Z</time></trkpt><trkpt lat="43.754345811760466" lon="11.192633245158863"><ele>46.199999999999996</ele><time>2026-05-01T08:11:23Z</time></trkpt><trkpt lat="43.7543117235454" lon="11.192543923611895"><ele>46.4</ele><time>2026-05-01T08:11:24Z</time></trkpt><trkpt lat="43.75426298936895" lon="11.192445296628534"><ele>46.6</ele><time>2026-05-01T08:11:25Z</time></trkpt><trkpt lat="43.75423871173859" lon="11.192314825961097"><ele>46.8</ele><time>2026-05-01T08:11:26Z</time></trkpt><trkpt lat="43.75419916695273" lon="11.192161160006188"><ele>47.0</ele><time>2026-05-01T08:11:27Z</time></trkpt><trkpt lat="43.7541572041494" lon="11.191998278371972"><ele>47.0</ele><time>2026-05-01T08:11:28Z</time></trkpt><trkpt lat="43.754111627166125" lon="11.19182613727017"><ele>47.0</ele><time>2026-05-01T08:11:29Z</time></trkpt><trkpt lat="43.754053105458794" lon="11.191659212809508"><ele>47.0</ele><time>2026-05-01T08:11:30Z</time></trkpt><trkpt lat="43.75401250787447" lon="11.191484406107802"><ele>47.0</ele><time>2026-05-01T08:11:31Z</time></trkpt><trkpt lat="43.75398486697817" lon="11.191322806042393"><ele>47.0</ele><time>2026-05-01T08:11:32Z</time></trkpt><trkpt lat="43.75395441316188" lon="11.191182147680346"><ele>47.0</ele><time>2026-05-01T08:11:33Z</time></trkpt><trkpt lat="43.75391460196041" lon="11.191050820473261"><ele>47.0</ele><time>2026-05-01T08:11:34Z</time></trkpt><trkpt lat="43.75386005997586" lon="11.190914902124366"><ele>47.0</ele><time>2026-05-01T08:11:35Z</time></trkpt><trkpt lat="43.75379195715043" lon="11.190781004108075"><ele>47.0</ele><time>2026-05-01T08:11:36Z</time></trkpt><trkpt lat="43.75373558394855" lon="11.190628569469077"><ele>47.0</ele><time>2026-05-01T08:11:37Z</time></trkpt><trkpt lat="43.753662121359255" lon="11.190479687706892"><ele>47.0</ele><time>2026-05-01T08:11:38Z</time></trkpt><trkpt lat="43.753587130054015" lon="11.190327988540576"><ele>47.0</ele><time>2026-05-01T08:11:39Z</time></trkpt><trkpt lat="43.753506801515606" lon="11.190177614478719"><ele>47.0</ele><time>2026-05-01T08:11:40Z</time></trkpt><trkpt lat="43.75341526609103" lon="11.190044452155751"><ele>47.5</ele><time>2026-05-01T08:11:41Z</time></trkpt><trkpt lat="43.75334321565235" lon="11.189899532036945"><ele>48.0</ele><time>2026-05-01T08:11:42Z</time></trkpt><trkpt lat="43.75328691930325" lon="11.189753109194019"><ele>48.5</ele><time>2026-05-01T08:11:43Z</time></trkpt><trkpt lat="43.75322128812977" lon="11.189645871479659"><ele>49.0</ele><time>2026-05-01T08:11:44Z</time></trkpt><trkpt lat="43.75316092106016" lon="11.189521795281067"><ele>49.0</ele><time>2026-05-01T08:11:45Z</time></trkpt><trkpt lat="43.75309161071032" lon="11.189396857432993"><ele>49.0</ele><time>2026-05-01T08:11:46Z</time></trkpt><trkpt lat="43.75302555334782" lon="11.18926692112125"><ele>49.0</ele><time>2026-05-01T08:11:47Z</time></trkpt><trkpt lat="43.75295973099457" lon="11.18913677566183"><ele>49.0</ele><time>2026-05-01T08:11:48Z</time></trkpt><trkpt lat="43.752901142111135" lon="11.189003088221222"><ele>48.800000000000004</ele><time>2026-05-01T08:11:49Z</time></trkpt><trkpt lat="43.75283483835266" lon="11.188883213526195"><ele>48.6</ele><time>2026-05-01T08:11:50Z</time></trkpt><trkpt lat="43.75277729947276" lon="11.188771383197134"><ele>48.4</ele><time>2026-05-01T08:11:51Z</time></trkpt><trkpt lat="43.752725427539986" lon="11.188668061797216"><ele>48.2</ele><time>2026-05-01T08:11:52Z</time></trkpt><trkpt lat="43.7526680841695" lon="11.18855391017515"><ele>48.0</ele><time>2026-05-01T08:11:53Z</time></trkpt><trkpt lat="43.75260617070866" lon="11.188435200547453"><ele>48.0</ele><time>2026-05-01T08:11:54Z</time></trkpt><trkpt lat="43.75254409624831" lon="11.188314710040645"><ele>48.0</ele><time>2026-05-01T08:11:55Z</time></trkpt><trkpt lat="43.75248192744462" lon="11.188193947841562"><ele>48.0</ele><time>2026-05-01T08:11:56Z</time></trkpt><trkpt lat="43.752421277703775" lon="11.188069002786904"><ele>48.0</ele><time>2026-05-01T08:11:57Z</time></trkpt><trkpt lat="43.75236157757059" lon="11.187959817605293"><ele>48.0</ele><time>2026-05-01T08:11:58Z</time></trkpt><trkpt lat="43.752307659700165" lon="11.187870622247393"><ele>47.833333333333336</ele><time>2026-05-01T08:11:59Z</time></trkpt><trkpt lat="43.752253756307866" lon="11.187789113648579"><ele>47.666666666666664</ele><time>2026-05-01T08:12:00Z</time></trkpt><trkpt lat="43.75220766476929" lon="11.18771497669584"><ele>47.5</ele><time>2026-05-01T08:12:01Z</time></trkpt><trkpt lat="43.752161785565036" lon="11.187636225507267"><ele>47.33333333333333</ele><time>2026-05-01T08:12:02Z</time></trkpt><trkpt lat="43.75209917151638" lon="11.187569526170503"><ele>47.166666666666664</ele><time>2026-05-01T08:12:03Z</time></trkpt><trkpt lat="43.752051332555304" lon="11.187485517931362"><ele>47.0</ele><time>2026-05-01T08:12:04Z</time></trkpt><trkpt lat="43.75198312157205" lon="11.18745019185259"><ele>47.0</ele><time>2026-05-01T08:12:05.001Z</time></trkpt><trkpt lat="43.75193225373581" lon="11.187373232510485"><ele>47.0</ele><time>2026-05-01T08:12:06.001Z</time></trkpt><trkpt lat="43.751864547164345" lon="11.187328689728984"><ele>47.0</ele><time>2026-05-01T08:12:07.001Z</time></trkpt><trkpt lat="43.751803965385314" lon="11.187259467564797"><ele>47.0</ele><time>2026-05-01T08:12:08.001Z</time></trkpt><trkpt lat="43.751746858245866" lon="11.187160013240506"><ele>47.0</ele><time>2026-05-01T08:12:09.001Z</time></trkpt><trkpt lat="43.75168161397017" lon="11.187072099301812"><ele>47.0</ele><time>2026-05-01T08:12:10.001Z</time></trkpt><trkpt lat="43.751619852292826" lon="11.18698659832259"><ele>47.0</ele><time>2026-05-01T08:12:11.001Z</time></trkpt><trkpt lat="43.75156160106093" lon="11.18690597144522"><ele>47.0</ele><time>2026-05-01T08:12:12.001Z</time></trkpt><trkpt lat="43.75150518022573" lon="11.186827872124482"><ele>47.0</ele><time>2026-05-01T08:12:13.001Z</time></trkpt><trkpt lat="43.7514530846307" lon="11.186755759913087"><ele>47.0</ele><time>2026-05-01T08:12:14.001Z</time></trkpt><trkpt lat="43.75140460675671" lon="11.18668846497151"><ele>47.0</ele><time>2026-05-01T08:12:15.001Z</time></trkpt><trkpt lat="43.75135600830771" lon="11.18662061528347"><ele>47.0</ele><time>2026-05-01T08:12:16.001Z</time></trkpt><trkpt lat="43.75130544518585" lon="11.186550022606314"><ele>47.0</ele><time>2026-05-01T08:12:17.001Z</time></trkpt><trkpt lat="43.75124795920046" lon="11.186469764750468"><ele>47.0</ele><time>2026-05-01T08:12:18.001Z</time></trkpt><trkpt lat="43.751186969625564" lon="11.186384659169882"><ele>47.0</ele><time>2026-05-01T08:12:19.001Z</time></trkpt><trkpt lat="43.75112164050201" lon="11.186296075698387"><ele>47.0</ele><time>2026-05-01T08:12:20.001Z</time></trkpt><trkpt lat="43.751061978010554" lon="11.186215176144174"><ele>47.0</ele><time>2026-05-01T08:12:21.001Z</time></trkpt><trkpt lat="43.751009688606175" lon="11.186146873064017"><ele>47.0</ele><time>2026-05-01T08:12:22.001Z</time></trkpt><trkpt lat="43.7509589908589" lon="11.186082038008955"><ele>47.0</ele><time>2026-05-01T08:12:23.001Z</time></trkpt><trkpt lat="43.75091233994073" lon="11.186022378459803"><ele>47.0</ele><time>2026-05-01T08:12:24.001Z</time></trkpt><trkpt lat="43.750862481114346" lon="11.185958614647554"><ele>47.0</ele><time>2026-05-01T08:12:25.001Z</time></trkpt><trkpt lat="43.75081079386834" lon="11.185891984485586"><ele>47.0</ele><time>2026-05-01T08:12:26.001Z</time></trkpt><trkpt lat="43.75075759481454" lon="11.185823646477829"><ele>47.0</ele><time>2026-05-01T08:12:27.001Z</time></trkpt><trkpt lat="43.75069957071553" lon="11.18574911042205"><ele>47.0</ele><time>2026-05-01T08:12:28.001Z</time></trkpt><trkpt lat="43.75064688456756" lon="11.185681431401102"><ele>47.0</ele><time>2026-05-01T08:12:29.001Z</time></trkpt><trkpt lat="43.75059564872314" lon="11.185615615345158"><ele>47.0</ele><time>2026-05-01T08:12:30.001Z</time></trkpt><trkpt lat="43.750542778009944" lon="11.185547699157784"><ele>47.0</ele><time>2026-05-01T08:12:31.001Z</time></trkpt><trkpt lat="43.750495383455124" lon="11.185482322792081"><ele>47.0</ele><time>2026-05-01T08:12:32.001Z</time></trkpt><trkpt lat="43.7504281065931" lon="11.185375017875439"><ele>47.0</ele><time>2026-05-01T08:12:34.001Z</time></trkpt><trkpt lat="43.75034942596373" lon="11.18523433787206"><ele>47.0</ele><time>2026-05-01T08:12:36.001Z</time></trkpt><trkpt lat="43.75028645447779" lon="11.18511959845562"><ele>47.0</ele><time>2026-05-01T08:12:37.001Z</time></trkpt><trkpt lat="43.75021400010475" lon="11.184988395455285"><ele>47.5</ele><time>2026-05-01T08:12:38.001Z</time></trkpt><trkpt lat="43.75013166732489" lon="11.184848480671803"><ele>48.0</ele><time>2026-05-01T08:12:39.001Z</time></trkpt><trkpt lat="43.75002652979644" lon="11.184714759524978"><ele>48.5</ele><time>2026-05-01T08:12:40.001Z</time></trkpt><trkpt lat="43.74992888323765" lon="11.18456303207183"><ele>49.0</ele><time>2026-05-01T08:12:41.001Z</time></trkpt><trkpt lat="43.7498467779322" lon="11.184414557352516"><ele>49.0</ele><time>2026-05-01T08:12:42.001Z</time></trkpt><trkpt lat="43.749764141118" lon="11.184294218814577"><ele>49.0</ele><time>2026-05-01T08:12:43.001Z</time></trkpt><trkpt lat="43.74968516416446" lon="11.184183813288888"><ele>49.0</ele><time>2026-05-01T08:12:44.001Z</time></trkpt><trkpt lat="43.74961325251034" lon="11.184085200678965"><ele>49.0</ele><time>2026-05-01T08:12:45.001Z</time></trkpt><trkpt lat="43.749532041535424" lon="11.183967856127415"><ele>49.0</ele><time>2026-05-01T08:12:46.001Z</time></trkpt><trkpt lat="43.74944758973499" lon="11.183848491825353"><ele>49.0</ele><time>2026-05-01T08:12:47.001Z</time></trkpt><trkpt lat="43.749363928110775" lon="11.183727634309705"><ele>49.0</ele><time>2026-05-01T08:12:48.001Z</time></trkpt><trkpt lat="43.74928003417357" lon="11.183608441613154"><ele>49.0</ele><time>2026-05-01T08:12:49.001Z</time></trkpt><trkpt lat="43.7491924405513" lon="11.183485486268783"><ele>49.0</ele><time>2026-05-01T08:12:50.001Z</time></trkpt><trkpt lat="43.749104017673375" lon="11.183361542417178"><ele>49.0</ele><time>2026-05-01T08:12:51.001Z</time></trkpt><trkpt lat="43.749002851780006" lon="11.18325237355462"><ele>49.0</ele><time>2026-05-01T08:12:52.001Z</time></trkpt><trkpt lat="43.74890904635129" lon="11.183129345631162"><ele>49.0</ele><time>2026-05-01T08:12:53.001Z</time></trkpt><trkpt lat="43.74881983445834" lon="11.18299416336161"><ele>49.25</ele><time>2026-05-01T08:12:54.001Z</time></trkpt><trkpt lat="43.74870040115104" lon="11.18290803306693"><ele>49.5</ele><time>2026-05-01T08:12:55.001Z</time></trkpt><trkpt lat="43.74859281969033" lon="11.1827944640732"><ele>49.75</ele><time>2026-05-01T08:12:56Z</time></trkpt><trkpt lat="43.74847496661118" lon="11.182697330155005"><ele>50.0</ele><time>2026-05-01T08:12:57Z</time></trkpt><trkpt lat="43.74835506211437" lon="11.182601530017797"><ele>50.0</ele><time>2026-05-01T08:12:58Z</time></trkpt><trkpt lat="43.74823854627818" lon="11.18250843725664"><ele>50.0</ele><time>2026-05-01T08:12:59Z</time></trkpt><trkpt lat="43.748124749800084" lon="11.182417517228252"><ele>50.0</ele><time>2026-05-01T08:13:00Z</time></trkpt><trkpt lat="43.74801319503644" lon="11.182329026241598"><ele>50.0</ele><time>2026-05-01T08:13:01Z</time></trkpt><trkpt lat="43.747903489344495" lon="11.182242233255167"><ele>50.0</ele><time>2026-05-01T08:13:02Z</time></trkpt><trkpt lat="43.747790299325494" lon="11.182178259382036"><ele>50.0</ele><time>2026-05-01T08:13:03Z</time></trkpt><trkpt lat="43.7476857497859" lon="11.182093914961184"><ele>50.0</ele><time>2026-05-01T08:13:04Z</time></trkpt><trkpt lat="43.74759486016172" lon="11.181989819886295"><ele>50.0</ele><time>2026-05-01T08:13:05Z</time></trkpt><trkpt lat="43.747492114384485" lon="11.181912431941942"><ele>50.0</ele><time>2026-05-01T08:13:06Z</time></trkpt><trkpt lat="43.74740604123664" lon="11.18180852347562"><ele>50.0</ele><time>2026-05-01T08:13:07Z</time></trkpt><trkpt lat="43.74732340503915" lon="11.181696350409085"><ele>50.0</ele><time>2026-05-01T08:13:08Z</time></trkpt><trkpt lat="43.74724121520108" lon="11.181585300586603"><ele>50.0</ele><time>2026-05-01T08:13:09Z</time></trkpt><trkpt lat="43.747160359237434" lon="11.181477792879878"><ele>50.2</ele><time>2026-05-01T08:13:10Z</time></trkpt><trkpt lat="43.74709331916564" lon="11.181356094798955"><ele>50.4</ele><time>2026-05-01T08:13:11Z</time></trkpt><trkpt lat="43.74702013445835" lon="11.181253871823728"><ele>50.599999999999994</ele><time>2026-05-01T08:13:12Z</time></trkpt><trkpt lat="43.74695416250732" lon="11.181163191614289"><ele>50.8</ele><time>2026-05-01T08:13:13Z</time></trkpt><trkpt lat="43.74687774033597" lon="11.181090788281729"><ele>51.0</ele><time>2026-05-01T08:13:14Z</time></trkpt><trkpt lat="43.74681148592617" lon="11.180999793332283"><ele>51.0</ele><time>2026-05-01T08:13:15Z</time></trkpt><trkpt lat="43.74674614004309" lon="11.180904791944064"><ele>51.0</ele><time>2026-05-01T08:13:16Z</time></trkpt><trkpt lat="43.74668066009942" lon="11.18079937293068"><ele>51.0</ele><time>2026-05-01T08:13:17Z</time></trkpt><trkpt lat="43.74661373406312" lon="11.180688323928374"><ele>51.0</ele><time>2026-05-01T08:13:18Z</time></trkpt><trkpt lat="43.746546193586504" lon="11.180575678306054"><ele>51.0</ele><time>2026-05-01T08:13:19Z</time></trkpt><trkpt lat="43.7464787510861" lon="11.180462061979425"><ele>51.0</ele><time>2026-05-01T08:13:20Z</time></trkpt><trkpt lat="43.74641111398024" lon="11.180349792878369"><ele>51.0</ele><time>2026-05-01T08:13:21Z</time></trkpt><trkpt lat="43.74634533329158" lon="11.180238616762146"><ele>51.0</ele><time>2026-05-01T08:13:22Z</time></trkpt><trkpt lat="43.746280324049444" lon="11.180123272332077"><ele>51.0</ele><time>2026-05-01T08:13:23Z</time></trkpt><trkpt lat="43.74621576619561" lon="11.180004997798065"><ele>51.0</ele><time>2026-05-01T08:13:24Z</time></trkpt><trkpt lat="43.746145769687516" lon="11.17988174196893"><ele>51.25</ele><time>2026-05-01T08:13:25Z</time></trkpt><trkpt lat="43.746071660918595" lon="11.179760116165449"><ele>51.5</ele><time>2026-05-01T08:13:26Z</time></trkpt><trkpt lat="43.74599261568661" lon="11.17963725535347"><ele>51.75</ele><time>2026-05-01T08:13:27Z</time></trkpt><trkpt lat="43.745922119954635" lon="11.179497513489407"><ele>52.0</ele><time>2026-05-01T08:13:28Z</time></trkpt><trkpt lat="43.74581945108071" lon="11.179390764318581"><ele>52.0</ele><time>2026-05-01T08:13:29Z</time></trkpt><trkpt lat="43.74572627087042" lon="11.179276253204574"><ele>52.0</ele><time>2026-05-01T08:13:30Z</time></trkpt><trkpt lat="43.74562573085969" lon="11.17917737798809"><ele>52.0</ele><time>2026-05-01T08:13:31Z</time></trkpt><trkpt lat="43.74552536754439" lon="11.179085179563707"><ele>52.0</ele><time>2026-05-01T08:13:32Z</time></trkpt><trkpt lat="43.74542467568694" lon="11.178997426007092"><ele>52.5</ele><time>2026-05-01T08:13:33Z</time></trkpt><trkpt lat="43.74532047377473" lon="11.17890413610377"><ele>53.0</ele><time>2026-05-01T08:13:34Z</time></trkpt><trkpt lat="43.745212775402" lon="11.178811550423658"><ele>53.5</ele><time>2026-05-01T08:13:35Z</time></trkpt><trkpt lat="43.74510440025915" lon="11.178716758742045"><ele>54.0</ele><time>2026-05-01T08:13:36Z</time></trkpt><trkpt lat="43.74499863696059" lon="11.178611664322126"><ele>54.25</ele><time>2026-05-01T08:13:37Z</time></trkpt><trkpt lat="43.74489828586158" lon="11.17849825775532"><ele>54.5</ele><time>2026-05-01T08:13:38Z</time></trkpt><trkpt lat="43.74480741922929" lon="11.17837946966557"><ele>54.75</ele><time>2026-05-01T08:13:39Z</time></trkpt><trkpt lat="43.744719049131874" lon="11.178250012538992"><ele>55.0</ele><time>2026-05-01T08:13:40Z</time></trkpt><trkpt lat="43.74463763830383" lon="11.178110782725991"><ele>55.75</ele><time>2026-05-01T08:13:41Z</time></trkpt><trkpt lat="43.744562804981726" lon="11.177967103332469"><ele>56.5</ele><time>2026-05-01T08:13:42Z</time></trkpt><trkpt lat="43.74448943701706" lon="11.177822684765015"><ele>57.25</ele><time>2026-05-01T08:13:43Z</time></trkpt><trkpt lat="43.744420181046124" lon="11.17767787229021"><ele>58.0</ele><time>2026-05-01T08:13:44Z</time></trkpt><trkpt lat="43.744351111453845" lon="11.177533637353173"><ele>58.75</ele><time>2026-05-01T08:13:45Z</time></trkpt><trkpt lat="43.74428285829482" lon="11.177390285135932"><ele>59.5</ele><time>2026-05-01T08:13:46Z</time></trkpt><trkpt lat="43.7442126980885" lon="11.177247475704558"><ele>60.25</ele><time>2026-05-01T08:13:47Z</time></trkpt><trkpt lat="43.74414416636255" lon="11.17710460244836"><ele>61.0</ele><time>2026-05-01T08:13:48Z</time></trkpt><trkpt lat="43.74407156149615" lon="11.176960480869068"><ele>61.0</ele><time>2026-05-01T08:13:49Z</time></trkpt><trkpt lat="43.74399772052324" lon="11.176818899643234"><ele>61.0</ele><time>2026-05-01T08:13:50Z</time></trkpt><trkpt lat="43.743916859876066" lon="11.17667396002199"><ele>61.0</ele><time>2026-05-01T08:13:51Z</time></trkpt><trkpt lat="43.74382606525165" lon="11.17652858977773"><ele>61.0</ele><time>2026-05-01T08:13:52Z</time></trkpt><trkpt lat="43.743722450424755" lon="11.176394595865052"><ele>60.5</ele><time>2026-05-01T08:13:53Z</time></trkpt><trkpt lat="43.743606977701184" lon="11.17628139788614"><ele>60.0</ele><time>2026-05-01T08:13:54Z</time></trkpt><trkpt lat="43.743480198836984" lon="11.176196553702036"><ele>59.5</ele><time>2026-05-01T08:13:55Z</time></trkpt><trkpt lat="43.743351777985794" lon="11.176129943116393"><ele>59.0</ele><time>2026-05-01T08:13:56Z</time></trkpt><trkpt lat="43.74321112916442" lon="11.176074018923124"><ele>60.5</ele><time>2026-05-01T08:13:57Z</time></trkpt><trkpt lat="43.743075126071176" lon="11.17599800547423"><ele>62.0</ele><time>2026-05-01T08:13:58Z</time></trkpt><trkpt lat="43.742928380525974" lon="11.175939164922141"><ele>63.5</ele><time>2026-05-01T08:13:59Z</time></trkpt><trkpt lat="43.742787887857574" lon="11.1758828315662"><ele>65.0</ele><time>2026-05-01T08:14:00Z</time></trkpt><trkpt lat="43.74264058746283" lon="11.175822780656226"><ele>65.0</ele><time>2026-05-01T08:14:01Z</time></trkpt><trkpt lat="43.74249195377976" lon="11.175751667910198"><ele>65.0</ele><time>2026-05-01T08:14:02Z</time></trkpt><trkpt lat="43.74233554007755" lon="11.175672295725715"><ele>65.0</ele><time>2026-05-01T08:14:03Z</time></trkpt><trkpt lat="43.74218069472691" lon="11.175586794531501"><ele>65.0</ele><time>2026-05-01T08:14:04Z</time></trkpt><trkpt lat="43.74202817824375" lon="11.175498411350185"><ele>65.0</ele><time>2026-05-01T08:14:05Z</time></trkpt><trkpt lat="43.741879015326255" lon="11.17540485448766"><ele>65.0</ele><time>2026-05-01T08:14:06Z</time></trkpt><trkpt lat="43.741735690058945" lon="11.175304910177367"><ele>66.66666666666667</ele><time>2026-05-01T08:14:07Z</time></trkpt><trkpt lat="43.741595809211155" lon="11.17519468177132"><ele>68.33333333333333</ele><time>2026-05-01T08:14:08Z</time></trkpt><trkpt lat="43.74146424733776" lon="11.175080459234897"><ele>70.0</ele><time>2026-05-01T08:14:09Z</time></trkpt><trkpt lat="43.74132713664822" lon="11.174982567940225"><ele>70.0</ele><time>2026-05-01T08:14:10Z</time></trkpt><trkpt lat="43.74120620870392" lon="11.174855098926008"><ele>70.0</ele><time>2026-05-01T08:14:11.001Z</time></trkpt><trkpt lat="43.7410761480931" lon="11.17474223662502"><ele>70.0</ele><time>2026-05-01T08:14:12.001Z</time></trkpt><trkpt lat="43.74095063081705" lon="11.174633316755147"><ele>70.25</ele><time>2026-05-01T08:14:13.001Z</time></trkpt><trkpt lat="43.74082752314877" lon="11.174526487669464"><ele>70.5</ele><time>2026-05-01T08:14:14.001Z</time></trkpt><trkpt lat="43.74070397194668" lon="11.174424442295399"><ele>70.75</ele><time>2026-05-01T08:14:15.001Z</time></trkpt><trkpt lat="43.7405813331129" lon="11.174330525195039"><ele>71.0</ele><time>2026-05-01T08:14:16.001Z</time></trkpt><trkpt lat="43.740445996738124" lon="11.174272222028666"><ele>71.0</ele><time>2026-05-01T08:14:17.001Z</time></trkpt><trkpt lat="43.74031590721774" lon="11.174202931046622"><ele>71.0</ele><time>2026-05-01T08:14:18.001Z</time></trkpt><trkpt lat="43.74019285523016" lon="11.174104217456858"><ele>71.0</ele><time>2026-05-01T08:14:19.001Z</time></trkpt><trkpt lat="43.74006297265619" lon="11.17402270507358"><ele>71.0</ele><time>2026-05-01T08:14:20.001Z</time></trkpt><trkpt lat="43.73993628892752" lon="11.173960852204711"><ele>70.5</ele><time>2026-05-01T08:14:21.001Z</time></trkpt><trkpt lat="43.73982298652554" lon="11.173877947510473"><ele>70.0</ele><time>2026-05-01T08:14:22.001Z</time></trkpt><trkpt lat="43.73971750350667" lon="11.173800831705803"><ele>69.5</ele><time>2026-05-01T08:14:23.001Z</time></trkpt><trkpt lat="43.73962058122521" lon="11.173727496166475"><ele>69.0</ele><time>2026-05-01T08:14:24.001Z</time></trkpt><trkpt lat="43.739528305176485" lon="11.173658946069727"><ele>69.0</ele><time>2026-05-01T08:14:25.001Z</time></trkpt><trkpt lat="43.7394406117588" lon="11.173595054845606"><ele>69.0</ele><time>2026-05-01T08:14:26.001Z</time></trkpt><trkpt lat="43.739359004382166" lon="11.173536210325626"><ele>69.0</ele><time>2026-05-01T08:14:27.001Z</time></trkpt><trkpt lat="43.73928833392677" lon="11.173460503229975"><ele>69.0</ele><time>2026-05-01T08:14:28.001Z</time></trkpt><trkpt lat="43.73920537434917" lon="11.173396135047504"><ele>69.0</ele><time>2026-05-01T08:14:29.001Z</time></trkpt><trkpt lat="43.73911859841621" lon="11.173330638361833"><ele>69.5</ele><time>2026-05-01T08:14:30.001Z</time></trkpt><trkpt lat="43.73906096742408" lon="11.173193355100604"><ele>70.0</ele><time>2026-05-01T08:14:31.001Z</time></trkpt><trkpt lat="43.739023492816955" lon="11.173027497771335"><ele>70.5</ele><time>2026-05-01T08:14:32.001Z</time></trkpt><trkpt lat="43.73899582814679" lon="11.17284859768584"><ele>71.0</ele><time>2026-05-01T08:14:33.001Z</time></trkpt><trkpt lat="43.73896806688772" lon="11.172655956063036"><ele>71.0</ele><time>2026-05-01T08:14:34.001Z</time></trkpt><trkpt lat="43.73895777941502" lon="11.17245077383972"><ele>71.0</ele><time>2026-05-01T08:14:35.001Z</time></trkpt><trkpt lat="43.738994799232536" lon="11.172246378491426"><ele>71.0</ele><time>2026-05-01T08:14:36.001Z</time></trkpt><trkpt lat="43.739066237044824" lon="11.172046458195583"><ele>72.0</ele><time>2026-05-01T08:14:37.001Z</time></trkpt><trkpt lat="43.73916226332439" lon="11.171877889399697"><ele>73.0</ele><time>2026-05-01T08:14:38.001Z</time></trkpt><trkpt lat="43.73929356726699" lon="11.171770394060887"><ele>74.0</ele><time>2026-05-01T08:14:39.001Z</time></trkpt><trkpt lat="43.73942351656589" lon="11.171706763480898"><ele>75.0</ele><time>2026-05-01T08:14:40.001Z</time></trkpt><trkpt lat="43.73954835159397" lon="11.171650061950038"><ele>75.0</ele><time>2026-05-01T08:14:41.001Z</time></trkpt><trkpt lat="43.73965956667189" lon="11.171557558479533"><ele>75.0</ele><time>2026-05-01T08:14:42.001Z</time></trkpt><trkpt lat="43.73975792472846" lon="11.171425126292698"><ele>75.0</ele><time>2026-05-01T08:14:43.001Z</time></trkpt><trkpt lat="43.739852438766476" lon="11.171269542271048"><ele>75.0</ele><time>2026-05-01T08:14:44.001Z</time></trkpt><trkpt lat="43.7399477495185" lon="11.171124374019229"><ele>77.0</ele><time>2026-05-01T08:14:45.001Z</time></trkpt><trkpt lat="43.740043862492996" lon="11.170977360479368"><ele>79.0</ele><time>2026-05-01T08:14:46.001Z</time></trkpt><trkpt lat="43.740136056231066" lon="11.170838759974153"><ele>81.0</ele><time>2026-05-01T08:14:47.001Z</time></trkpt><trkpt lat="43.74023409202168" lon="11.170704970484532"><ele>83.0</ele><time>2026-05-01T08:14:48.001Z</time></trkpt><trkpt lat="43.74032861516361" lon="11.170562865496693"><ele>85.0</ele><time>2026-05-01T08:14:49.001Z</time></trkpt><trkpt lat="43.740395388189214" lon="11.170394656507009"><ele>87.0</ele><time>2026-05-01T08:14:50.001Z</time></trkpt><trkpt lat="43.740413916517255" lon="11.17021359320609"><ele>89.0</ele><time>2026-05-01T08:14:51.001Z</time></trkpt><trkpt lat="43.74038941546185" lon="11.170026133430373"><ele>91.0</ele><time>2026-05-01T08:14:52.001Z</time></trkpt><trkpt lat="43.740321428195436" lon="11.169860580079307"><ele>91.25</ele><time>2026-05-01T08:14:53.001Z</time></trkpt><trkpt lat="43.74021854407299" lon="11.169738925718516"><ele>91.5</ele><time>2026-05-01T08:14:54.001Z</time></trkpt><trkpt lat="43.74008452860069" lon="11.169684126717787"><ele>91.75</ele><time>2026-05-01T08:14:55.001Z</time></trkpt><trkpt lat="43.739938801945605" lon="11.169684757379732"><ele>92.0</ele><time>2026-05-01T08:14:56.001Z</time></trkpt><trkpt lat="43.73978725421696" lon="11.169759804460627"><ele>93.66666666666667</ele><time>2026-05-01T08:14:57.001Z</time></trkpt><trkpt lat="43.73964366455403" lon="11.169896799146443"><ele>95.33333333333334</ele><time>2026-05-01T08:14:58.001Z</time></trkpt><trkpt lat="43.73950845641716" lon="11.170045964999586"><ele>97.0</ele><time>2026-05-01T08:14:59.001Z</time></trkpt><trkpt lat="43.73935825477446" lon="11.170145961495043"><ele>100.66666666666667</ele><time>2026-05-01T08:15:00.001Z</time></trkpt><trkpt lat="43.73921137273119" lon="11.170235118440697"><ele>104.33333333333334</ele><time>2026-05-01T08:15:01Z</time></trkpt><trkpt lat="43.73906511775066" lon="11.170258658357096"><ele>108.0</ele><time>2026-05-01T08:15:02Z</time></trkpt><trkpt lat="43.738921371377515" lon="11.17023335640896"><ele>108.0</ele><time>2026-05-01T08:15:03Z</time></trkpt><trkpt lat="43.738792449581915" lon="11.170156209175165"><ele>108.0</ele><time>2026-05-01T08:15:04Z</time></trkpt><trkpt lat="43.7386760435421" lon="11.170057578034143"><ele>108.0</ele><time>2026-05-01T08:15:05Z</time></trkpt><trkpt lat="43.73856412247295" lon="11.16995827594911"><ele>108.0</ele><time>2026-05-01T08:15:06Z</time></trkpt><trkpt lat="43.738456173667366" lon="11.16985784430363"><ele>112.0</ele><time>2026-05-01T08:15:07Z</time></trkpt><trkpt lat="43.738351757643066" lon="11.16976069954969"><ele>116.0</ele><time>2026-05-01T08:15:08Z</time></trkpt><trkpt lat="43.738247669846196" lon="11.169663859725521"><ele>120.0</ele><time>2026-05-01T08:15:09Z</time></trkpt><trkpt lat="43.738134953325186" lon="11.169589515228928"><ele>124.0</ele><time>2026-05-01T08:15:10Z</time></trkpt><trkpt lat="43.73803354295452" lon="11.169501234038902"><ele>124.0</ele><time>2026-05-01T08:15:11Z</time></trkpt><trkpt lat="43.73793067908566" lon="11.169416207157917"><ele>124.0</ele><time>2026-05-01T08:15:12Z</time></trkpt><trkpt lat="43.73782047325621" lon="11.169346694306082"><ele>124.0</ele><time>2026-05-01T08:15:13Z</time></trkpt><trkpt lat="43.7377013822248" lon="11.169302253108347"><ele>124.0</ele><time>2026-05-01T08:15:14Z</time></trkpt><trkpt lat="43.73758072349219" lon="11.169271413091703"><ele>124.25</ele><time>2026-05-01T08:15:15Z</time></trkpt><trkpt lat="43.7374556765364" lon="11.169243534250493"><ele>124.5</ele><time>2026-05-01T08:15:16Z</time></trkpt><trkpt lat="43.73733630065084" lon="11.169187663689987"><ele>124.75</ele><time>2026-05-01T08:15:17Z</time></trkpt><trkpt lat="43.73721760047501" lon="11.169153031915902"><ele>125.0</ele><time>2026-05-01T08:15:18Z</time></trkpt><trkpt lat="43.73710080798206" lon="11.169113571072996"><ele>125.0</ele><time>2026-05-01T08:15:19Z</time></trkpt><trkpt lat="43.736985861481735" lon="11.169082069631706"><ele>125.0</ele><time>2026-05-01T08:15:20Z</time></trkpt><trkpt lat="43.73688163433737" lon="11.169018541423387"><ele>125.0</ele><time>2026-05-01T08:15:21Z</time></trkpt><trkpt lat="43.736786166113575" lon="11.168926595683546"><ele>125.0</ele><time>2026-05-01T08:15:22Z</time></trkpt><trkpt lat="43.736689286863715" lon="11.168843640150426"><ele>127.75</ele><time>2026-05-01T08:15:23Z</time></trkpt><trkpt lat="43.73659690384038" lon="11.16875034736476"><ele>130.5</ele><time>2026-05-01T08:15:24Z</time></trkpt><trkpt lat="43.7365102271057" lon="11.168645934852902"><ele>133.25</ele><time>2026-05-01T08:15:25Z</time></trkpt><trkpt lat="43.73642738576946" lon="11.168532535533574"><ele>136.0</ele><time>2026-05-01T08:15:26Z</time></trkpt><trkpt lat="43.736335794466115" lon="11.168426010493793"><ele>136.0</ele><time>2026-05-01T08:15:27Z</time></trkpt><trkpt lat="43.73626085418201" lon="11.168293087179997"><ele>136.0</ele><time>2026-05-01T08:15:28Z</time></trkpt><trkpt lat="43.7361822940328" lon="11.168163214954518"><ele>136.0</ele><time>2026-05-01T08:15:29Z</time></trkpt><trkpt lat="43.736100784370336" lon="11.168037015740456"><ele>136.0</ele><time>2026-05-01T08:15:30Z</time></trkpt><trkpt lat="43.736019075553514" lon="11.167908663178501"><ele>137.75</ele><time>2026-05-01T08:15:31Z</time></trkpt><trkpt lat="43.73593889833671" lon="11.167776414476709"><ele>139.5</ele><time>2026-05-01T08:15:32Z</time></trkpt><trkpt lat="43.735858634832745" lon="11.1676448290642"><ele>141.25</ele><time>2026-05-01T08:15:33Z</time></trkpt><trkpt lat="43.7357786720741" lon="11.167513730243684"><ele>143.0</ele><time>2026-05-01T08:15:34Z</time></trkpt><trkpt lat="43.73569897065515" lon="11.16737878329058"><ele>146.0</ele><time>2026-05-01T08:15:35Z</time></trkpt><trkpt lat="43.73562141763547" lon="11.16724696757368"><ele>149.0</ele><time>2026-05-01T08:15:36Z</time></trkpt><trkpt lat="43.7355458949052" lon="11.16710571637446"><ele>152.0</ele><time>2026-05-01T08:15:37Z</time></trkpt><trkpt lat="43.735482120648506" lon="11.166947908454897"><ele>155.0</ele><time>2026-05-01T08:15:38Z</time></trkpt><trkpt lat="43.735438727728685" lon="11.166764491621814"><ele>155.0</ele><time>2026-05-01T08:15:39Z</time></trkpt><trkpt lat="43.735401696604" lon="11.166570228522444"><ele>155.0</ele><time>2026-05-01T08:15:40Z</time></trkpt><trkpt lat="43.73537716681548" lon="11.166371010474474"><ele>155.0</ele><time>2026-05-01T08:15:41Z</time></trkpt><trkpt lat="43.73536335760357" lon="11.16615916917641"><ele>155.0</ele><time>2026-05-01T08:15:42Z</time></trkpt><trkpt lat="43.735369229143814" lon="11.165948019830685"><ele>155.66666666666666</ele><time>2026-05-01T08:15:43Z</time></trkpt><trkpt lat="43.73538546481672" lon="11.1657325857839"><ele>156.33333333333334</ele><time>2026-05-01T08:15:44Z</time></trkpt><trkpt lat="43.73540394615062" lon="11.165511933294706"><ele>157.0</ele><time>2026-05-01T08:15:45Z</time></trkpt><trkpt lat="43.73541134369056" lon="11.165289143704534"><ele>158.0</ele><time>2026-05-01T08:15:46Z</time></trkpt><trkpt lat="43.735422472018136" lon="11.165063814430127"><ele>159.0</ele><time>2026-05-01T08:15:47Z</time></trkpt><trkpt lat="43.73543361877575" lon="11.164842509705062"><ele>160.0</ele><time>2026-05-01T08:15:48Z</time></trkpt><trkpt lat="43.735443735866745" lon="11.164619283275668"><ele>163.0</ele><time>2026-05-01T08:15:49Z</time></trkpt><trkpt lat="43.73545148289279" lon="11.164399716749163"><ele>166.0</ele><time>2026-05-01T08:15:50Z</time></trkpt><trkpt lat="43.73546233621773" lon="11.16417686840329"><ele>169.0</ele><time>2026-05-01T08:15:51Z</time></trkpt><trkpt lat="43.735483722062504" lon="11.163955581537817"><ele>170.33333333333334</ele><time>2026-05-01T08:15:52Z</time></trkpt><trkpt lat="43.73552114668047" lon="11.163742034780837"><ele>171.66666666666666</ele><time>2026-05-01T08:15:53Z</time></trkpt><trkpt lat="43.73557165864631" lon="11.163525613619498"><ele>173.0</ele><time>2026-05-01T08:15:54Z</time></trkpt><trkpt lat="43.735622702229705" lon="11.163314671552998"><ele>173.0</ele><time>2026-05-01T08:15:55Z</time></trkpt><trkpt lat="43.73567355148582" lon="11.16310523674323"><ele>173.0</ele><time>2026-05-01T08:15:56Z</time></trkpt><trkpt lat="43.73572748936862" lon="11.162890884214264"><ele>173.0</ele><time>2026-05-01T08:15:57Z</time></trkpt><trkpt lat="43.735778744630714" lon="11.162676849792446"><ele>173.0</ele><time>2026-05-01T08:15:58Z</time></trkpt><trkpt lat="43.73582809560508" lon="11.162466833371752"><ele>173.0</ele><time>2026-05-01T08:15:59Z</time></trkpt><trkpt lat="43.73587374591257" lon="11.162263926220845"><ele>173.0</ele><time>2026-05-01T08:16:00Z</time></trkpt><trkpt lat="43.73590926577135" lon="11.162059075869006"><ele>173.0</ele><time>2026-05-01T08:16:01Z</time></trkpt><trkpt lat="43.73593157360826" lon="11.16184932465912"><ele>173.0</ele><time>2026-05-01T08:16:02Z</time></trkpt><trkpt lat="43.73594700333427" lon="11.161637324328126"><ele>173.0</ele><time>2026-05-01T08:16:03Z</time></trkpt><trkpt lat="43.735957982032815" lon="11.16142126773498"><ele>174.0</ele><time>2026-05-01T08:16:04Z</time></trkpt><trkpt lat="43.73597159556267" lon="11.161204486788064"><ele>175.0</ele><time>2026-05-01T08:16:05Z</time></trkpt><trkpt lat="43.735987050328575" lon="11.160995802259224"><ele>176.0</ele><time>2026-05-01T08:16:06Z</time></trkpt><trkpt lat="43.73600251651101" lon="11.160794478884652"><ele>177.25</ele><time>2026-05-01T08:16:07Z</time></trkpt><trkpt lat="43.73601366035312" lon="11.160598293775672"><ele>178.5</ele><time>2026-05-01T08:16:08Z</time></trkpt><trkpt lat="43.736019542359855" lon="11.160394371634721"><ele>179.75</ele><time>2026-05-01T08:16:09Z</time></trkpt><trkpt lat="43.73601551756683" lon="11.160201951931478"><ele>181.0</ele><time>2026-05-01T08:16:10Z</time></trkpt><trkpt lat="43.73599272477822" lon="11.16000679572004"><ele>182.75</ele><time>2026-05-01T08:16:11Z</time></trkpt><trkpt lat="43.73594724274102" lon="11.159817331630375"><ele>184.5</ele><time>2026-05-01T08:16:12Z</time></trkpt><trkpt lat="43.7358821320276" lon="11.15963119562461"><ele>186.25</ele><time>2026-05-01T08:16:13Z</time></trkpt><trkpt lat="43.735802365568006" lon="11.159460378413879"><ele>188.0</ele><time>2026-05-01T08:16:14Z</time></trkpt><trkpt lat="43.73571241056485" lon="11.159288448825244"><ele>188.0</ele><time>2026-05-01T08:16:15Z</time></trkpt><trkpt lat="43.73562236744586" lon="11.159111669533267"><ele>188.0</ele><time>2026-05-01T08:16:16Z</time></trkpt><trkpt lat="43.73553619792785" lon="11.158924156805623"><ele>188.0</ele><time>2026-05-01T08:16:17.001Z</time></trkpt><trkpt lat="43.73543826873784" lon="11.15874830033195"><ele>189.0</ele><time>2026-05-01T08:16:18.001Z</time></trkpt><trkpt lat="43.73532860145262" lon="11.158592499324644"><ele>190.0</ele><time>2026-05-01T08:16:19.001Z</time></trkpt><trkpt lat="43.73516968906835" lon="11.158510029426122"><ele>191.0</ele><time>2026-05-01T08:16:20.001Z</time></trkpt><trkpt lat="43.73499825317913" lon="11.158467419646307"><ele>194.0</ele><time>2026-05-01T08:16:21.001Z</time></trkpt><trkpt lat="43.7348198195447" lon="11.158443940474847"><ele>197.0</ele><time>2026-05-01T08:16:22.001Z</time></trkpt><trkpt lat="43.73464742619925" lon="11.158375153056234"><ele>200.0</ele><time>2026-05-01T08:16:23.001Z</time></trkpt><trkpt lat="43.734470663844476" lon="11.158322921014186"><ele>202.33333333333334</ele><time>2026-05-01T08:16:24.001Z</time></trkpt><trkpt lat="43.73430531438505" lon="11.158264425568822"><ele>204.66666666666669</ele><time>2026-05-01T08:16:25.001Z</time></trkpt><trkpt lat="43.734151142786665" lon="11.158200806978606"><ele>207.0</ele><time>2026-05-01T08:16:26.001Z</time></trkpt><trkpt lat="43.734011314361354" lon="11.15811849560675"><ele>209.25</ele><time>2026-05-01T08:16:27.001Z</time></trkpt><trkpt lat="43.7338876963774" lon="11.15801524484747"><ele>211.5</ele><time>2026-05-01T08:16:28.001Z</time></trkpt><trkpt lat="43.73378294125992" lon="11.157890753535439"><ele>213.75</ele><time>2026-05-01T08:16:29.001Z</time></trkpt><trkpt lat="43.733687578838094" lon="11.157749824149633"><ele>216.0</ele><time>2026-05-01T08:16:30.001Z</time></trkpt><trkpt lat="43.73361230759762" lon="11.157588384875188"><ele>216.75</ele><time>2026-05-01T08:16:31.001Z</time></trkpt><trkpt lat="43.73353140702547" lon="11.157430246650362"><ele>217.5</ele><time>2026-05-01T08:16:32.001Z</time></trkpt><trkpt lat="43.73347168904011" lon="11.157256313006364"><ele>218.25</ele><time>2026-05-01T08:16:33.001Z</time></trkpt><trkpt lat="43.733421482252076" lon="11.157082041758022"><ele>219.0</ele><time>2026-05-01T08:16:34.001Z</time></trkpt><trkpt lat="43.73337545102039" lon="11.156904528660093"><ele>220.75</ele><time>2026-05-01T08:16:35.001Z</time></trkpt><trkpt lat="43.73333594807755" lon="11.156720403942927"><ele>222.5</ele><time>2026-05-01T08:16:36.001Z</time></trkpt><trkpt lat="43.73330939771057" lon="11.156535289820887"><ele>224.25</ele><time>2026-05-01T08:16:37.001Z</time></trkpt><trkpt lat="43.733296225309424" lon="11.15634432906843"><ele>226.0</ele><time>2026-05-01T08:16:38.001Z</time></trkpt><trkpt lat="43.73330381532108" lon="11.156145942374316"><ele>227.25</ele><time>2026-05-01T08:16:39.001Z</time></trkpt><trkpt lat="43.73332364737755" lon="11.155947166842118"><ele>228.5</ele><time>2026-05-01T08:16:40.001Z</time></trkpt><trkpt lat="43.73335124350379" lon="11.155743233587248"><ele>229.75</ele><time>2026-05-01T08:16:41.001Z</time></trkpt><trkpt lat="43.73338354836256" lon="11.15553545247558"><ele>231.0</ele><time>2026-05-01T08:16:42.001Z</time></trkpt><trkpt lat="43.73341352773193" lon="11.155327456238666"><ele>234.33333333333331</ele><time>2026-05-01T08:16:43.001Z</time></trkpt><trkpt lat="43.73343819640176" lon="11.155110671211743"><ele>237.66666666666666</ele><time>2026-05-01T08:16:44.001Z</time></trkpt><trkpt lat="43.733462633169424" lon="11.154889635335982"><ele>241.0</ele><time>2026-05-01T08:16:45.001Z</time></trkpt><trkpt lat="43.73349368845364" lon="11.154665870913583"><ele>240.0</ele><time>2026-05-01T08:16:46.001Z</time></trkpt><trkpt lat="43.733521067013974" lon="11.154442649402172"><ele>239.0</ele><time>2026-05-01T08:16:47.001Z</time></trkpt><trkpt lat="43.73354767374251" lon="11.154215573162682"><ele>238.0</ele><time>2026-05-01T08:16:48.001Z</time></trkpt><trkpt lat="43.73357507458842" lon="11.153991673887083"><ele>238.0</ele><time>2026-05-01T08:16:49.001Z</time></trkpt><trkpt lat="43.733603441378285" lon="11.153766036808369"><ele>238.0</ele><time>2026-05-01T08:16:50.001Z</time></trkpt><trkpt lat="43.73363143374414" lon="11.153546356345416"><ele>238.0</ele><time>2026-05-01T08:16:51.001Z</time></trkpt><trkpt lat="43.73365795267963" lon="11.153328248484755"><ele>240.25</ele><time>2026-05-01T08:16:52.001Z</time></trkpt><trkpt lat="43.73368450982193" lon="11.153111730700756"><ele>242.5</ele><time>2026-05-01T08:16:53.001Z</time></trkpt><trkpt lat="43.73370671028517" lon="11.152911495245746"><ele>244.75</ele><time>2026-05-01T08:16:54.001Z</time></trkpt><trkpt lat="43.73372473877701" lon="11.15271386647454"><ele>247.0</ele><time>2026-05-01T08:16:55.001Z</time></trkpt><trkpt lat="43.73375776015816" lon="11.152520349791018"><ele>251.0</ele><time>2026-05-01T08:16:56.001Z</time></trkpt><trkpt lat="43.73379230432972" lon="11.152331199183873"><ele>255.0</ele><time>2026-05-01T08:16:57.001Z</time></trkpt><trkpt lat="43.73384439050817" lon="11.152164684487479"><ele>259.0</ele><time>2026-05-01T08:16:58Z</time></trkpt><trkpt lat="43.73391484864595" lon="11.151993110941426"><ele>263.0</ele><time>2026-05-01T08:16:59Z</time></trkpt><trkpt lat="43.734001185086406" lon="11.151843161414472"><ele>263.0</ele><time>2026-05-01T08:17:00Z</time></trkpt><trkpt lat="43.734091362316896" lon="11.151705557616793"><ele>263.0</ele><time>2026-05-01T08:17:01Z</time></trkpt><trkpt lat="43.73417561207587" lon="11.151556906990125"><ele>263.0</ele><time>2026-05-01T08:17:02Z</time></trkpt><trkpt lat="43.73421221992428" lon="11.151407467140913"><ele>263.0</ele><time>2026-05-01T08:17:03Z</time></trkpt><trkpt lat="43.73420074046141" lon="11.15125354549767"><ele>263.75</ele><time>2026-05-01T08:17:04Z</time></trkpt><trkpt lat="43.734152898011985" lon="11.151107382781623"><ele>264.5</ele><time>2026-05-01T08:17:05Z</time></trkpt><trkpt lat="43.73407978812949" lon="11.15097729191819"><ele>265.25</ele><time>2026-05-01T08:17:06Z</time></trkpt><trkpt lat="43.73398854831637" lon="11.150868085927275"><ele>266.0</ele><time>2026-05-01T08:17:07Z</time></trkpt><trkpt lat="43.73387799134601" lon="11.150784971420332"><ele>266.0</ele><time>2026-05-01T08:17:08Z</time></trkpt><trkpt lat="43.73374928226469" lon="11.150753731258675"><ele>266.0</ele><time>2026-05-01T08:17:09Z</time></trkpt><trkpt lat="43.733619599510135" lon="11.150769642013989"><ele>266.0</ele><time>2026-05-01T08:17:10Z</time></trkpt><trkpt lat="43.73349420252715" lon="11.150823954899899"><ele>266.0</ele><time>2026-05-01T08:17:11Z</time></trkpt><trkpt lat="43.73336872631627" lon="11.150839670204945"><ele>268.0</ele><time>2026-05-01T08:17:12Z</time></trkpt><trkpt lat="43.73324402734739" lon="11.150827217940172"><ele>270.0</ele><time>2026-05-01T08:17:13Z</time></trkpt><trkpt lat="43.733113090985746" lon="11.150794238344691"><ele>272.0</ele><time>2026-05-01T08:17:14Z</time></trkpt><trkpt lat="43.732981864370295" lon="11.15078146373775"><ele>274.0</ele><time>2026-05-01T08:17:15Z</time></trkpt><trkpt lat="43.732860774420274" lon="11.150748454274014"><ele>274.25</ele><time>2026-05-01T08:17:16Z</time></trkpt><trkpt lat="43.73274677035865" lon="11.150690554417608"><ele>274.5</ele><time>2026-05-01T08:17:17Z</time></trkpt><trkpt lat="43.73263385048732" lon="11.150641816052175"><ele>274.75</ele><time>2026-05-01T08:17:18Z</time></trkpt><trkpt lat="43.73253056906253" lon="11.150574845083346"><ele>275.0</ele><time>2026-05-01T08:17:19Z</time></trkpt><trkpt lat="43.73245288498822" lon="11.150454753346413"><ele>275.0</ele><time>2026-05-01T08:17:20Z</time></trkpt><trkpt lat="43.73239639526318" lon="11.150315001073768"><ele>275.0</ele><time>2026-05-01T08:17:21Z</time></trkpt><trkpt lat="43.73234983362442" lon="11.150175486389"><ele>275.0</ele><time>2026-05-01T08:17:22Z</time></trkpt><trkpt lat="43.732302018044464" lon="11.150038217593227"><ele>275.0</ele><time>2026-05-01T08:17:23Z</time></trkpt><trkpt lat="43.73224680204304" lon="11.149908978523356"><ele>275.0</ele><time>2026-05-01T08:17:24Z</time></trkpt><trkpt lat="43.73217650009441" lon="11.149792401608995"><ele>273.5</ele><time>2026-05-01T08:17:25Z</time></trkpt><trkpt lat="43.7320918569414" lon="11.149687355669558"><ele>272.0</ele><time>2026-05-01T08:17:26Z</time></trkpt><trkpt lat="43.731999995384456" lon="11.14959072175595"><ele>270.5</ele><time>2026-05-01T08:17:27Z</time></trkpt><trkpt lat="43.731895491803876" lon="11.149507586538427"><ele>269.0</ele><time>2026-05-01T08:17:28Z</time></trkpt><trkpt lat="43.73178535557218" lon="11.149438472602428"><ele>269.0</ele><time>2026-05-01T08:17:29Z</time></trkpt><trkpt lat="43.73166442790727" lon="11.149397182259733"><ele>269.0</ele><time>2026-05-01T08:17:30Z</time></trkpt><trkpt lat="43.731539788975354" lon="11.149374592237848"><ele>269.0</ele><time>2026-05-01T08:17:31Z</time></trkpt><trkpt lat="43.73141414609064" lon="11.149362251655148"><ele>269.0</ele><time>2026-05-01T08:17:32Z</time></trkpt><trkpt lat="43.731292230855246" lon="11.149330195750325"><ele>269.0</ele><time>2026-05-01T08:17:33Z</time></trkpt><trkpt lat="43.731169374678345" lon="11.149314610951043"><ele>269.0</ele><time>2026-05-01T08:17:34Z</time></trkpt><trkpt lat="43.73104853290351" lon="11.14929592852522"><ele>269.0</ele><time>2026-05-01T08:17:35Z</time></trkpt><trkpt lat="43.7309301122702" lon="11.149270476872964"><ele>269.0</ele><time>2026-05-01T08:17:36Z</time></trkpt><trkpt lat="43.73081640099379" lon="11.149232499442565"><ele>270.75</ele><time>2026-05-01T08:17:37Z</time></trkpt><trkpt lat="43.73069743560571" lon="11.149203142575244"><ele>272.5</ele><time>2026-05-01T08:17:38Z</time></trkpt><trkpt lat="43.730570288943376" lon="11.149143194222697"><ele>274.25</ele><time>2026-05-01T08:17:39Z</time></trkpt><trkpt lat="43.730434334554175" lon="11.149074354786523"><ele>276.0</ele><time>2026-05-01T08:17:40Z</time></trkpt><trkpt lat="43.73029171037153" lon="11.14898912049463"><ele>271.0</ele><time>2026-05-01T08:17:41Z</time></trkpt><trkpt lat="43.7301423229057" lon="11.148920655821408"><ele>266.0</ele><time>2026-05-01T08:17:42Z</time></trkpt><trkpt lat="43.7299859422945" lon="11.14885149076799"><ele>261.0</ele><time>2026-05-01T08:17:43Z</time></trkpt><trkpt lat="43.72982700620118" lon="11.14878946595803"><ele>261.0</ele><time>2026-05-01T08:17:44Z</time></trkpt><trkpt lat="43.7296607410778" lon="11.148751431492096"><ele>261.0</ele><time>2026-05-01T08:17:45Z</time></trkpt><trkpt lat="43.729509356398935" lon="11.14868355974428"><ele>261.0</ele><time>2026-05-01T08:17:46Z</time></trkpt><trkpt lat="43.72934429611458" lon="11.148634242228768"><ele>265.0</ele><time>2026-05-01T08:17:47Z</time></trkpt><trkpt lat="43.729184230790516" lon="11.14858431560413"><ele>269.0</ele><time>2026-05-01T08:17:48Z</time></trkpt><trkpt lat="43.729018170969304" lon="11.148532706854688"><ele>273.0</ele><time>2026-05-01T08:17:49Z</time></trkpt><trkpt lat="43.72884538146469" lon="11.148502753284827"><ele>273.0</ele><time>2026-05-01T08:17:50Z</time></trkpt><trkpt lat="43.72867794169504" lon="11.148435469613675"><ele>273.0</ele><time>2026-05-01T08:17:51Z</time></trkpt><trkpt lat="43.728510055700355" lon="11.14838631737418"><ele>273.0</ele><time>2026-05-01T08:17:52Z</time></trkpt><trkpt lat="43.72834806897132" lon="11.14834380872161"><ele>277.0</ele><time>2026-05-01T08:17:53Z</time></trkpt><trkpt lat="43.72818530245148" lon="11.148297213228112"><ele>281.0</ele><time>2026-05-01T08:17:54Z</time></trkpt><trkpt lat="43.7280213736091" lon="11.148248641663276"><ele>285.0</ele><time>2026-05-01T08:17:55Z</time></trkpt><trkpt lat="43.72786640836685" lon="11.148212316376714"><ele>286.3333333333333</ele><time>2026-05-01T08:17:56Z</time></trkpt><trkpt lat="43.727707940428665" lon="11.148219349788445"><ele>287.66666666666663</ele><time>2026-05-01T08:17:57Z</time></trkpt><trkpt lat="43.72755849086162" lon="11.14826163183719"><ele>289.0</ele><time>2026-05-01T08:17:58Z</time></trkpt><trkpt lat="43.72741278746389" lon="11.148290767204177"><ele>289.0</ele><time>2026-05-01T08:17:59Z</time></trkpt><trkpt lat="43.727269711590885" lon="11.148329366074346"><ele>289.0</ele><time>2026-05-01T08:18:00Z</time></trkpt><trkpt lat="43.72713729256231" lon="11.14833311789402"><ele>289.0</ele><time>2026-05-01T08:18:01Z</time></trkpt><trkpt lat="43.72701067023228" lon="11.148278944015178"><ele>289.0</ele><time>2026-05-01T08:18:02Z</time></trkpt><trkpt lat="43.72688820504308" lon="11.148200796211523"><ele>287.75</ele><time>2026-05-01T08:18:03Z</time></trkpt><trkpt lat="43.72676435277052" lon="11.148115574415131"><ele>286.5</ele><time>2026-05-01T08:18:04Z</time></trkpt><trkpt lat="43.726649329146355" lon="11.148009280462064"><ele>285.25</ele><time>2026-05-01T08:18:05Z</time></trkpt><trkpt lat="43.726536174060776" lon="11.147905616174612"><ele>284.0</ele><time>2026-05-01T08:18:06Z</time></trkpt><trkpt lat="43.726418993809844" lon="11.1478032748789"><ele>284.0</ele><time>2026-05-01T08:18:07Z</time></trkpt><trkpt lat="43.72630061878117" lon="11.147700210627402"><ele>284.0</ele><time>2026-05-01T08:18:08Z</time></trkpt><trkpt lat="43.72618670954071" lon="11.147601610828085"><ele>284.0</ele><time>2026-05-01T08:18:09Z</time></trkpt><trkpt lat="43.72607328649211" lon="11.147501827285005"><ele>284.0</ele><time>2026-05-01T08:18:10Z</time></trkpt><trkpt lat="43.72595942733466" lon="11.147406994982813"><ele>285.5</ele><time>2026-05-01T08:18:11Z</time></trkpt><trkpt lat="43.725828839833675" lon="11.147348952480433"><ele>287.0</ele><time>2026-05-01T08:18:12Z</time></trkpt><trkpt lat="43.72568147877465" lon="11.147344723101154"><ele>288.5</ele><time>2026-05-01T08:18:13Z</time></trkpt><trkpt lat="43.72553105860618" lon="11.147411663039605"><ele>290.0</ele><time>2026-05-01T08:18:14Z</time></trkpt><trkpt lat="43.72538555371477" lon="11.147487033795489"><ele>292.25</ele><time>2026-05-01T08:18:15Z</time></trkpt><trkpt lat="43.725238674146254" lon="11.147522870406123"><ele>294.5</ele><time>2026-05-01T08:18:16Z</time></trkpt><trkpt lat="43.725098306112365" lon="11.147560189213703"><ele>296.75</ele><time>2026-05-01T08:18:17Z</time></trkpt><trkpt lat="43.72495892478347" lon="11.14758038810859"><ele>299.0</ele><time>2026-05-01T08:18:18Z</time></trkpt><trkpt lat="43.724821536732975" lon="11.147565001410468"><ele>299.75</ele><time>2026-05-01T08:18:19Z</time></trkpt><trkpt lat="43.724688396210716" lon="11.147526778172319"><ele>300.5</ele><time>2026-05-01T08:18:20Z</time></trkpt><trkpt lat="43.724561306384786" lon="11.147469320184964"><ele>301.25</ele><time>2026-05-01T08:18:21Z</time></trkpt><trkpt lat="43.72444116433359" lon="11.147384722009562"><ele>302.0</ele><time>2026-05-01T08:18:22Z</time></trkpt><trkpt lat="43.724334634552754" lon="11.147278859222466"><ele>300.5</ele><time>2026-05-01T08:18:23.001Z</time></trkpt><trkpt lat="43.72423246644309" lon="11.147154332821854"><ele>299.0</ele><time>2026-05-01T08:18:24.001Z</time></trkpt><trkpt lat="43.72412157305701" lon="11.147036605422125"><ele>297.5</ele><time>2026-05-01T08:18:25.001Z</time></trkpt><trkpt lat="43.72402613457194" lon="11.14689628548601"><ele>296.0</ele><time>2026-05-01T08:18:26.001Z</time></trkpt><trkpt lat="43.72392771127255" lon="11.146760650237766"><ele>296.0</ele><time>2026-05-01T08:18:27.001Z</time></trkpt><trkpt lat="43.723824124479414" lon="11.146625514347601"><ele>296.0</ele><time>2026-05-01T08:18:28.001Z</time></trkpt><trkpt lat="43.72372434144327" lon="11.146495173922842"><ele>296.0</ele><time>2026-05-01T08:18:29.001Z</time></trkpt><trkpt lat="43.723633619330414" lon="11.146373644823449"><ele>296.0</ele><time>2026-05-01T08:18:30.001Z</time></trkpt><trkpt lat="43.72354698896904" lon="11.146259573376256"><ele>296.5</ele><time>2026-05-01T08:18:31.001Z</time></trkpt><trkpt lat="43.72348104304737" lon="11.146140514378603"><ele>297.0</ele><time>2026-05-01T08:18:32.001Z</time></trkpt><trkpt lat="43.72339483561249" lon="11.146050606859937"><ele>297.5</ele><time>2026-05-01T08:18:33.001Z</time></trkpt><trkpt lat="43.72331375739816" lon="11.14593868151864"><ele>298.0</ele><time>2026-05-01T08:18:34.001Z</time></trkpt><trkpt lat="43.72322391271894" lon="11.145821105625418"><ele>300.0</ele><time>2026-05-01T08:18:35.001Z</time></trkpt><trkpt lat="43.7231307121486" lon="11.145695353903186"><ele>302.0</ele><time>2026-05-01T08:18:36.001Z</time></trkpt><trkpt lat="43.723034146914074" lon="11.145566507964093"><ele>304.0</ele><time>2026-05-01T08:18:37.001Z</time></trkpt><trkpt lat="43.72293117945438" lon="11.145433962934414"><ele>306.0</ele><time>2026-05-01T08:18:38.001Z</time></trkpt><trkpt lat="43.72281528871846" lon="11.14531824108932"><ele>306.3333333333333</ele><time>2026-05-01T08:18:39.001Z</time></trkpt><trkpt lat="43.72267235224951" lon="11.145254784915"><ele>306.66666666666663</ele><time>2026-05-01T08:18:40.001Z</time></trkpt><trkpt lat="43.7225117706681" lon="11.145245659809273"><ele>307.0</ele><time>2026-05-01T08:18:41.001Z</time></trkpt><trkpt lat="43.722352918265095" lon="11.145308025934215"><ele>307.0</ele><time>2026-05-01T08:18:42.001Z</time></trkpt><trkpt lat="43.722210430608406" lon="11.145394068379163"><ele>307.0</ele><time>2026-05-01T08:18:43.001Z</time></trkpt><trkpt lat="43.72206111913647" lon="11.145447134513589"><ele>307.0</ele><time>2026-05-01T08:18:44.001Z</time></trkpt><trkpt lat="43.72191671333083" lon="11.145497501415921"><ele>306.75</ele><time>2026-05-01T08:18:45.001Z</time></trkpt><trkpt lat="43.721772014349604" lon="11.145507910714588"><ele>306.5</ele><time>2026-05-01T08:18:46.001Z</time></trkpt><trkpt lat="43.72162443018571" lon="11.145478062051373"><ele>306.25</ele><time>2026-05-01T08:18:47.001Z</time></trkpt><trkpt lat="43.7214815185025" lon="11.145404557564156"><ele>306.0</ele><time>2026-05-01T08:18:48.001Z</time></trkpt><trkpt lat="43.7213404812185" lon="11.14532636342966"><ele>306.0</ele><time>2026-05-01T08:18:49.001Z</time></trkpt><trkpt lat="43.72120327163286" lon="11.145266552624275"><ele>306.0</ele><time>2026-05-01T08:18:50.001Z</time></trkpt><trkpt lat="43.72106991874895" lon="11.145214412191509"><ele>306.0</ele><time>2026-05-01T08:18:51.001Z</time></trkpt><trkpt lat="43.72094070017296" lon="11.145205865777662"><ele>306.0</ele><time>2026-05-01T08:18:52.001Z</time></trkpt><trkpt lat="43.72080708247705" lon="11.145260408222565"><ele>306.5</ele><time>2026-05-01T08:18:53.001Z</time></trkpt><trkpt lat="43.72066587514482" lon="11.145337399317095"><ele>307.0</ele><time>2026-05-01T08:18:54.001Z</time></trkpt><trkpt lat="43.720538420911275" lon="11.145423903706211"><ele>307.5</ele><time>2026-05-01T08:18:55Z</time></trkpt><trkpt lat="43.72039973784669" lon="11.14550855915609"><ele>308.0</ele><time>2026-05-01T08:18:56Z</time></trkpt><trkpt lat="43.72026032791413" lon="11.145560042643742"><ele>308.25</ele><time>2026-05-01T08:18:57Z</time></trkpt><trkpt lat="43.72011683216842" lon="11.145586886019691"><ele>308.5</ele><time>2026-05-01T08:18:58Z</time></trkpt><trkpt lat="43.719974394004225" lon="11.145578963154898"><ele>308.75</ele><time>2026-05-01T08:18:59Z</time></trkpt><trkpt lat="43.719836232861994" lon="11.145545793165203"><ele>309.0</ele><time>2026-05-01T08:19:00Z</time></trkpt><trkpt lat="43.719703048898" lon="11.145486473489278"><ele>309.0</ele><time>2026-05-01T08:19:01Z</time></trkpt><trkpt lat="43.71958062259119" lon="11.145400516896139"><ele>309.0</ele><time>2026-05-01T08:19:02Z</time></trkpt><trkpt lat="43.71945762138861" lon="11.145326792111186"><ele>309.0</ele><time>2026-05-01T08:19:03Z</time></trkpt><trkpt lat="43.71933296970762" lon="11.145259516892422"><ele>309.0</ele><time>2026-05-01T08:19:04Z</time></trkpt><trkpt lat="43.71920028720328" lon="11.145259037836702"><ele>308.5</ele><time>2026-05-01T08:19:05Z</time></trkpt><trkpt lat="43.71906714747366" lon="11.145325377778558"><ele>308.0</ele><time>2026-05-01T08:19:06Z</time></trkpt><trkpt lat="43.718952094145834" lon="11.145443209952152"><ele>307.5</ele><time>2026-05-01T08:19:07Z</time></trkpt><trkpt lat="43.71884889669087" lon="11.145569882841842"><ele>307.0</ele><time>2026-05-01T08:19:08Z</time></trkpt><trkpt lat="43.71874472100058" lon="11.145664087624596"><ele>307.0</ele><time>2026-05-01T08:19:09Z</time></trkpt><trkpt lat="43.71863091698945" lon="11.145710122079397"><ele>307.0</ele><time>2026-05-01T08:19:10Z</time></trkpt><trkpt lat="43.718504033570945" lon="11.145714942400026"><ele>307.0</ele><time>2026-05-01T08:19:11Z</time></trkpt><trkpt lat="43.71837104111746" lon="11.1457005591181"><ele>307.0</ele><time>2026-05-01T08:19:12Z</time></trkpt><trkpt lat="43.71823730904426" lon="11.145677666171084"><ele>308.75</ele><time>2026-05-01T08:19:13Z</time></trkpt><trkpt lat="43.718101922552854" lon="11.145656560663976"><ele>310.5</ele><time>2026-05-01T08:19:14Z</time></trkpt><trkpt lat="43.717964234698584" lon="11.145668024915828"><ele>312.25</ele><time>2026-05-01T08:19:15Z</time></trkpt><trkpt lat="43.71783295127868" lon="11.145659140965812"><ele>314.0</ele><time>2026-05-01T08:19:16Z</time></trkpt><trkpt lat="43.71770116322083" lon="11.145662542407372"><ele>314.0</ele><time>2026-05-01T08:19:17Z</time></trkpt><trkpt lat="43.71757691332219" lon="11.145643596946211"><ele>314.0</ele><time>2026-05-01T08:19:18Z</time></trkpt><trkpt lat="43.717451135225645" lon="11.145587169826932"><ele>314.0</ele><time>2026-05-01T08:19:19Z</time></trkpt><trkpt lat="43.71733597143611" lon="11.14549366543186"><ele>314.0</ele><time>2026-05-01T08:19:20Z</time></trkpt><trkpt lat="43.717217666029924" lon="11.145390999437472"><ele>314.0</ele><time>2026-05-01T08:19:21Z</time></trkpt><trkpt lat="43.71709874278013" lon="11.14528328085587"><ele>314.0</ele><time>2026-05-01T08:19:22Z</time></trkpt><trkpt lat="43.716983485045205" lon="11.145167629035356"><ele>314.0</ele><time>2026-05-01T08:19:23Z</time></trkpt><trkpt lat="43.71687392026116" lon="11.145046378902416"><ele>314.0</ele><time>2026-05-01T08:19:24Z</time></trkpt><trkpt lat="43.71677720567595" lon="11.144916792206084"><ele>311.75</ele><time>2026-05-01T08:19:25Z</time></trkpt><trkpt lat="43.716691684315805" lon="11.144782035784791"><ele>309.5</ele><time>2026-05-01T08:19:26Z</time></trkpt><trkpt lat="43.7166178333408" lon="11.144648483195402"><ele>307.25</ele><time>2026-05-01T08:19:27Z</time></trkpt><trkpt lat="43.71654930333077" lon="11.144515931749261"><ele>305.0</ele><time>2026-05-01T08:19:28Z</time></trkpt><trkpt lat="43.71648234832461" lon="11.14438598812349"><ele>305.0</ele><time>2026-05-01T08:19:29Z</time></trkpt><trkpt lat="43.716417645403816" lon="11.144260865363568"><ele>305.0</ele><time>2026-05-01T08:19:30Z</time></trkpt><trkpt lat="43.71635078920038" lon="11.144140074519168"><ele>305.0</ele><time>2026-05-01T08:19:31Z</time></trkpt><trkpt lat="43.71627900197856" lon="11.14401449195942"><ele>305.0</ele><time>2026-05-01T08:19:32Z</time></trkpt><trkpt lat="43.71622928613566" lon="11.14388177585126"><ele>305.0</ele><time>2026-05-01T08:19:33Z</time></trkpt><trkpt lat="43.716167342198254" lon="11.143764848578508"><ele>306.8</ele><time>2026-05-01T08:19:34Z</time></trkpt><trkpt lat="43.716106798228495" lon="11.143652890273383"><ele>308.6</ele><time>2026-05-01T08:19:35Z</time></trkpt><trkpt lat="43.71605407476844" lon="11.143544326449948"><ele>310.4</ele><time>2026-05-01T08:19:36Z</time></trkpt><trkpt lat="43.71599355583425" lon="11.143444482867658"><ele>312.2</ele><time>2026-05-01T08:19:37Z</time></trkpt><trkpt lat="43.715949061211276" lon="11.143319540099498"><ele>314.0</ele><time>2026-05-01T08:19:38Z</time></trkpt><trkpt lat="43.71590647028376" lon="11.14315993030185"><ele>306.5</ele><time>2026-05-01T08:19:39Z</time></trkpt><trkpt lat="43.7158710020423" lon="11.14299186004029"><ele>299.0</ele><time>2026-05-01T08:19:40Z</time></trkpt><trkpt lat="43.71584670577016" lon="11.14281519877202"><ele>291.5</ele><time>2026-05-01T08:19:41Z</time></trkpt><trkpt lat="43.71582648808364" lon="11.142631275544723"><ele>284.0</ele><time>2026-05-01T08:19:42Z</time></trkpt><trkpt lat="43.71580505256949" lon="11.142448840519451"><ele>283.25</ele><time>2026-05-01T08:19:43Z</time></trkpt><trkpt lat="43.71576361888324" lon="11.14227037880386"><ele>282.5</ele><time>2026-05-01T08:19:44Z</time></trkpt><trkpt lat="43.71567418672868" lon="11.142127935309281"><ele>281.75</ele><time>2026-05-01T08:19:45Z</time></trkpt><trkpt lat="43.71554175895271" lon="11.1420414580292"><ele>281.0</ele><time>2026-05-01T08:19:46Z</time></trkpt><trkpt lat="43.71541297266767" lon="11.141958342859853"><ele>281.0</ele><time>2026-05-01T08:19:47Z</time></trkpt><trkpt lat="43.71528479180971" lon="11.14186503401215"><ele>281.0</ele><time>2026-05-01T08:19:48Z</time></trkpt><trkpt lat="43.7151526401268" lon="11.141786196164986"><ele>281.0</ele><time>2026-05-01T08:19:49Z</time></trkpt><trkpt lat="43.71501689948437" lon="11.141706714739412"><ele>281.0</ele><time>2026-05-01T08:19:50Z</time></trkpt><trkpt lat="43.71488746155218" lon="11.141630923888746"><ele>278.75</ele><time>2026-05-01T08:19:51Z</time></trkpt><trkpt lat="43.714763005874694" lon="11.141558048522848"><ele>276.5</ele><time>2026-05-01T08:19:52Z</time></trkpt><trkpt lat="43.71464775953291" lon="11.14148998842183"><ele>274.25</ele><time>2026-05-01T08:19:53Z</time></trkpt><trkpt lat="43.71453464616526" lon="11.141416283753184"><ele>272.0</ele><time>2026-05-01T08:19:54Z</time></trkpt><trkpt lat="43.71442846424935" lon="11.141330771390296"><ele>270.5</ele><time>2026-05-01T08:19:55Z</time></trkpt><trkpt lat="43.71432519048489" lon="11.141226495066636"><ele>269.0</ele><time>2026-05-01T08:19:56Z</time></trkpt><trkpt lat="43.71422818328927" lon="11.141108229026596"><ele>267.5</ele><time>2026-05-01T08:19:57Z</time></trkpt><trkpt lat="43.714133069260626" lon="11.140981318591757"><ele>266.0</ele><time>2026-05-01T08:19:58Z</time></trkpt><trkpt lat="43.714029136752636" lon="11.140863734953797"><ele>266.0</ele><time>2026-05-01T08:19:59Z</time></trkpt><trkpt lat="43.71393029177788" lon="11.14073133436848"><ele>266.0</ele><time>2026-05-01T08:20:00Z</time></trkpt><trkpt lat="43.713843063788175" lon="11.140578570284923"><ele>266.0</ele><time>2026-05-01T08:20:01Z</time></trkpt><trkpt lat="43.71374473172504" lon="11.140440893090929"><ele>266.0</ele><time>2026-05-01T08:20:02Z</time></trkpt><trkpt lat="43.71363148895923" lon="11.140315281710103"><ele>264.75</ele><time>2026-05-01T08:20:03Z</time></trkpt><trkpt lat="43.713532515178805" lon="11.140173730634016"><ele>263.5</ele><time>2026-05-01T08:20:04Z</time></trkpt><trkpt lat="43.71342650877378" lon="11.14003675991864"><ele>262.25</ele><time>2026-05-01T08:20:05Z</time></trkpt><trkpt lat="43.71331710823086" lon="11.139917093681092"><ele>261.0</ele><time>2026-05-01T08:20:06Z</time></trkpt><trkpt lat="43.7131901650437" lon="11.139824004082115"><ele>258.25</ele><time>2026-05-01T08:20:07Z</time></trkpt><trkpt lat="43.71304929281628" lon="11.139777253140357"><ele>255.5</ele><time>2026-05-01T08:20:08Z</time></trkpt><trkpt lat="43.712903742401636" lon="11.139753254287914"><ele>252.75</ele><time>2026-05-01T08:20:09Z</time></trkpt><trkpt lat="43.71275668692489" lon="11.139744546650888"><ele>250.0</ele><time>2026-05-01T08:20:10Z</time></trkpt><trkpt lat="43.712610166025215" lon="11.139729357019187"><ele>250.0</ele><time>2026-05-01T08:20:11Z</time></trkpt><trkpt lat="43.71246638205118" lon="11.139731836855702"><ele>250.0</ele><time>2026-05-01T08:20:12Z</time></trkpt><trkpt lat="43.712321563761606" lon="11.13973380398672"><ele>250.0</ele><time>2026-05-01T08:20:13Z</time></trkpt><trkpt lat="43.712176093302716" lon="11.13972200032014"><ele>250.0</ele><time>2026-05-01T08:20:14Z</time></trkpt><trkpt lat="43.71204547944102" lon="11.139682302331101"><ele>250.0</ele><time>2026-05-01T08:20:15Z</time></trkpt><trkpt lat="43.71192222175103" lon="11.139612470158696"><ele>250.0</ele><time>2026-05-01T08:20:16Z</time></trkpt><trkpt lat="43.71180020755927" lon="11.139527424721056"><ele>250.0</ele><time>2026-05-01T08:20:17Z</time></trkpt><trkpt lat="43.7116803354682" lon="11.13943122762551"><ele>250.0</ele><time>2026-05-01T08:20:18Z</time></trkpt><trkpt lat="43.71156364387905" lon="11.139328766039279"><ele>250.5</ele><time>2026-05-01T08:20:18.999Z</time></trkpt><trkpt lat="43.71144685368155" lon="11.139223062456523"><ele>251.0</ele><time>2026-05-01T08:20:19.999Z</time></trkpt><trkpt lat="43.71133282203697" lon="11.139112152125275"><ele>251.5</ele><time>2026-05-01T08:20:20.999Z</time></trkpt><trkpt lat="43.71122531983502" lon="11.138993094492475"><ele>252.0</ele><time>2026-05-01T08:20:21.999Z</time></trkpt><trkpt lat="43.71111525960074" lon="11.138867302048421"><ele>251.75</ele><time>2026-05-01T08:20:22.999Z</time></trkpt><trkpt lat="43.71100649149931" lon="11.138741445540168"><ele>251.5</ele><time>2026-05-01T08:20:23.999Z</time></trkpt><trkpt lat="43.710887304628486" lon="11.138629732316348"><ele>251.25</ele><time>2026-05-01T08:20:24.999Z</time></trkpt><trkpt lat="43.71078129887857" lon="11.13850069581234"><ele>251.0</ele><time>2026-05-01T08:20:25.999Z</time></trkpt><trkpt lat="43.71067149352848" lon="11.13836978988848"><ele>251.0</ele><time>2026-05-01T08:20:26.999Z</time></trkpt><trkpt lat="43.710563484456614" lon="11.138243502472854"><ele>251.0</ele><time>2026-05-01T08:20:27.999Z</time></trkpt><trkpt lat="43.710444640036656" lon="11.1381162682105"><ele>251.0</ele><time>2026-05-01T08:20:29.001Z</time></trkpt><trkpt lat="43.710333241435194" lon="11.13798911025409"><ele>251.0</ele><time>2026-05-01T08:20:30.001Z</time></trkpt><trkpt lat="43.71022002558965" lon="11.137864777116755"><ele>249.5</ele><time>2026-05-01T08:20:31.001Z</time></trkpt><trkpt lat="43.71010723226373" lon="11.137741103881547"><ele>248.0</ele><time>2026-05-01T08:20:32.001Z</time></trkpt><trkpt lat="43.70999024259866" lon="11.137613690322368"><ele>246.5</ele><time>2026-05-01T08:20:33.001Z</time></trkpt><trkpt lat="43.70987507241128" lon="11.137490901202504"><ele>245.0</ele><time>2026-05-01T08:20:34.001Z</time></trkpt><trkpt lat="43.70976184056127" lon="11.137369975463125"><ele>242.75</ele><time>2026-05-01T08:20:35.001Z</time></trkpt><trkpt lat="43.70964531045721" lon="11.137258636633474"><ele>240.5</ele><time>2026-05-01T08:20:36.001Z</time></trkpt><trkpt lat="43.70952117093613" lon="11.13716023456364"><ele>238.25</ele><time>2026-05-01T08:20:37.001Z</time></trkpt><trkpt lat="43.7093948772144" lon="11.137081633328211"><ele>236.0</ele><time>2026-05-01T08:20:38.001Z</time></trkpt><trkpt lat="43.70926942788021" lon="11.136990160196076"><ele>235.5</ele><time>2026-05-01T08:20:39.001Z</time></trkpt><trkpt lat="43.709142333300356" lon="11.136929474245104"><ele>235.0</ele><time>2026-05-01T08:20:40.001Z</time></trkpt><trkpt lat="43.70901488509611" lon="11.13687313197499"><ele>234.5</ele><time>2026-05-01T08:20:41.001Z</time></trkpt><trkpt lat="43.708889710136866" lon="11.136818445014503"><ele>234.0</ele><time>2026-05-01T08:20:42.001Z</time></trkpt><trkpt lat="43.70877325482518" lon="11.136752785219812"><ele>234.0</ele><time>2026-05-01T08:20:43.001Z</time></trkpt><trkpt lat="43.708653225207954" lon="11.136675895244087"><ele>234.0</ele><time>2026-05-01T08:20:44.001Z</time></trkpt><trkpt lat="43.70852267261086" lon="11.136626906279144"><ele>234.0</ele><time>2026-05-01T08:20:45.001Z</time></trkpt><trkpt lat="43.70842959360188" lon="11.136565953235232"><ele>234.0</ele><time>2026-05-01T08:20:46.001Z</time></trkpt><trkpt lat="43.70831966747265" lon="11.136509294899032"><ele>230.5</ele><time>2026-05-01T08:20:47.001Z</time></trkpt><trkpt lat="43.70820293229655" lon="11.136462881169768"><ele>227.0</ele><time>2026-05-01T08:20:48.001Z</time></trkpt><trkpt lat="43.70808249507342" lon="11.13641071027366"><ele>223.5</ele><time>2026-05-01T08:20:49.001Z</time></trkpt><trkpt lat="43.70796296402457" lon="11.136361584042305"><ele>220.0</ele><time>2026-05-01T08:20:50.001Z</time></trkpt><trkpt lat="43.70784672506313" lon="11.13631411082104"><ele>220.25</ele><time>2026-05-01T08:20:51.001Z</time></trkpt><trkpt lat="43.70773392549739" lon="11.136270300981959"><ele>220.5</ele><time>2026-05-01T08:20:52.001Z</time></trkpt><trkpt lat="43.707635348833165" lon="11.136195932621762"><ele>220.75</ele><time>2026-05-01T08:20:53.001Z</time></trkpt><trkpt lat="43.70753504846238" lon="11.136123448841921"><ele>221.0</ele><time>2026-05-01T08:20:54.001Z</time></trkpt><trkpt lat="43.70744123205734" lon="11.136034467824688"><ele>221.0</ele><time>2026-05-01T08:20:55.001Z</time></trkpt><trkpt lat="43.70732738720604" lon="11.135956065625777"><ele>221.0</ele><time>2026-05-01T08:20:56.001Z</time></trkpt><trkpt lat="43.70722401363478" lon="11.135857945916355"><ele>221.0</ele><time>2026-05-01T08:20:57.001Z</time></trkpt><trkpt lat="43.70711226351693" lon="11.135761526885743"><ele>221.0</ele><time>2026-05-01T08:20:58.001Z</time></trkpt><trkpt lat="43.70699363559617" lon="11.135670252970831"><ele>218.5</ele><time>2026-05-01T08:20:59.001Z</time></trkpt><trkpt lat="43.70686861800526" lon="11.135593350625028"><ele>216.0</ele><time>2026-05-01T08:21:00Z</time></trkpt><trkpt lat="43.70673490341879" lon="11.135540383768209"><ele>213.5</ele><time>2026-05-01T08:21:01Z</time></trkpt><trkpt lat="43.70659670013752" lon="11.135491664567095"><ele>211.0</ele><time>2026-05-01T08:21:02Z</time></trkpt><trkpt lat="43.706456615132836" lon="11.135447665563994"><ele>211.0</ele><time>2026-05-01T08:21:03Z</time></trkpt><trkpt lat="43.706312168028795" lon="11.135402620442889"><ele>211.0</ele><time>2026-05-01T08:21:04Z</time></trkpt><trkpt lat="43.70617069956738" lon="11.135335778739492"><ele>211.0</ele><time>2026-05-01T08:21:05Z</time></trkpt><trkpt lat="43.70602024517945" lon="11.135315861965337"><ele>211.0</ele><time>2026-05-01T08:21:06Z</time></trkpt><trkpt lat="43.705880581295894" lon="11.135255754529982"><ele>210.5</ele><time>2026-05-01T08:21:07Z</time></trkpt><trkpt lat="43.70574107942413" lon="11.135217720832502"><ele>210.0</ele><time>2026-05-01T08:21:08Z</time></trkpt><trkpt lat="43.70560559649485" lon="11.135201642436867"><ele>209.5</ele><time>2026-05-01T08:21:09Z</time></trkpt><trkpt lat="43.70546988721531" lon="11.135166652104163"><ele>209.0</ele><time>2026-05-01T08:21:10Z</time></trkpt><trkpt lat="43.70534091402682" lon="11.135105287561236"><ele>205.5</ele><time>2026-05-01T08:21:11Z</time></trkpt><trkpt lat="43.70522123827748" lon="11.135041185180539"><ele>202.0</ele><time>2026-05-01T08:21:12Z</time></trkpt><trkpt lat="43.7051183586961" lon="11.134938025927871"><ele>198.5</ele><time>2026-05-01T08:21:13Z</time></trkpt><trkpt lat="43.705032380364386" lon="11.134805762424122"><ele>195.0</ele><time>2026-05-01T08:21:14Z</time></trkpt><trkpt lat="43.7049723693248" lon="11.134652759831328"><ele>194.25</ele><time>2026-05-01T08:21:15Z</time></trkpt><trkpt lat="43.70491918155374" lon="11.13448745589245"><ele>193.5</ele><time>2026-05-01T08:21:16Z</time></trkpt><trkpt lat="43.70490299635529" lon="11.134302923772163"><ele>192.75</ele><time>2026-05-01T08:21:17Z</time></trkpt><trkpt lat="43.70492082378176" lon="11.134114373549979"><ele>192.0</ele><time>2026-05-01T08:21:18Z</time></trkpt><trkpt lat="43.704964605119166" lon="11.133935268400236"><ele>189.75</ele><time>2026-05-01T08:21:19Z</time></trkpt><trkpt lat="43.7050451543916" lon="11.133778663727982"><ele>187.5</ele><time>2026-05-01T08:21:20Z</time></trkpt><trkpt lat="43.705127179896934" lon="11.133618744606654"><ele>185.25</ele><time>2026-05-01T08:21:21Z</time></trkpt><trkpt lat="43.70522885574244" lon="11.133478819534425"><ele>183.0</ele><time>2026-05-01T08:21:22Z</time></trkpt><trkpt lat="43.70532716651094" lon="11.13333547916223"><ele>180.75</ele><time>2026-05-01T08:21:23Z</time></trkpt><trkpt lat="43.705410983447514" lon="11.133175014536926"><ele>178.5</ele><time>2026-05-01T08:21:24Z</time></trkpt><trkpt lat="43.70550744630035" lon="11.133033477080996"><ele>176.25</ele><time>2026-05-01T08:21:25Z</time></trkpt><trkpt lat="43.70549537894784" lon="11.13280736157276"><ele>174.0</ele><time>2026-05-01T08:21:26Z</time></trkpt><trkpt lat="43.70548200278431" lon="11.132611556361212"><ele>174.0</ele><time>2026-05-01T08:21:27Z</time></trkpt><trkpt lat="43.70543907523435" lon="11.132431367587387"><ele>174.0</ele><time>2026-05-01T08:21:28Z</time></trkpt><trkpt lat="43.7053843746476" lon="11.132257176544872"><ele>174.0</ele><time>2026-05-01T08:21:29Z</time></trkpt><trkpt lat="43.70532646584339" lon="11.132088175983254"><ele>174.0</ele><time>2026-05-01T08:21:30Z</time></trkpt><trkpt lat="43.70526187434984" lon="11.131926381841454"><ele>173.75</ele><time>2026-05-01T08:21:31Z</time></trkpt><trkpt lat="43.70519316317829" lon="11.131773635461059"><ele>173.5</ele><time>2026-05-01T08:21:32Z</time></trkpt><trkpt lat="43.70512246364347" lon="11.131623837300003"><ele>173.25</ele><time>2026-05-01T08:21:33Z</time></trkpt><trkpt lat="43.705040595280046" lon="11.131486494054597"><ele>173.0</ele><time>2026-05-01T08:21:34Z</time></trkpt><trkpt lat="43.70494758888561" lon="11.131363971523871"><ele>173.0</ele><time>2026-05-01T08:21:35Z</time></trkpt><trkpt lat="43.7048515902483" lon="11.131250872604072"><ele>173.0</ele><time>2026-05-01T08:21:36Z</time></trkpt><trkpt lat="43.70477515877217" lon="11.131108452052798"><ele>173.0</ele><time>2026-05-01T08:21:37Z</time></trkpt><trkpt lat="43.70468953045001" lon="11.130990175622138"><ele>173.0</ele><time>2026-05-01T08:21:38Z</time></trkpt><trkpt lat="43.7046420298772" lon="11.130835625266911"><ele>172.0</ele><time>2026-05-01T08:21:39Z</time></trkpt><trkpt lat="43.70461655579666" lon="11.130672257188381"><ele>171.0</ele><time>2026-05-01T08:21:40Z</time></trkpt><trkpt lat="43.70463386141636" lon="11.130499410441438"><ele>170.0</ele><time>2026-05-01T08:21:41Z</time></trkpt><trkpt lat="43.704678042862426" lon="11.130337567745089"><ele>169.0</ele><time>2026-05-01T08:21:42Z</time></trkpt><trkpt lat="43.70476264034937" lon="11.130184297501964"><ele>169.0</ele><time>2026-05-01T08:21:43Z</time></trkpt><trkpt lat="43.70486158638382" lon="11.130043930668359"><ele>169.0</ele><time>2026-05-01T08:21:44Z</time></trkpt><trkpt lat="43.70496692220555" lon="11.129907514062305"><ele>169.0</ele><time>2026-05-01T08:21:45Z</time></trkpt><trkpt lat="43.705054253991385" lon="11.129745997806822"><ele>169.0</ele><time>2026-05-01T08:21:46Z</time></trkpt><trkpt lat="43.705103518357674" lon="11.129566632632653"><ele>168.25</ele><time>2026-05-01T08:21:47Z</time></trkpt><trkpt lat="43.70511961037818" lon="11.129382891531794"><ele>167.5</ele><time>2026-05-01T08:21:48Z</time></trkpt><trkpt lat="43.70510229950129" lon="11.129212086364115"><ele>166.75</ele><time>2026-05-01T08:21:49Z</time></trkpt><trkpt lat="43.70507504444648" lon="11.129048118403839"><ele>166.0</ele><time>2026-05-01T08:21:50Z</time></trkpt><trkpt lat="43.705042788868745" lon="11.128891700684614"><ele>165.75</ele><time>2026-05-01T08:21:51Z</time></trkpt><trkpt lat="43.70501321844676" lon="11.12873490683871"><ele>165.5</ele><time>2026-05-01T08:21:52Z</time></trkpt><trkpt lat="43.704983239358135" lon="11.12858422331071"><ele>165.25</ele><time>2026-05-01T08:21:53Z</time></trkpt><trkpt lat="43.70495445515156" lon="11.128431859370146"><ele>165.0</ele><time>2026-05-01T08:21:54Z</time></trkpt><trkpt lat="43.70492895900695" lon="11.128281149005993"><ele>164.0</ele><time>2026-05-01T08:21:55Z</time></trkpt><trkpt lat="43.70490496028584" lon="11.128127815499731"><ele>163.0</ele><time>2026-05-01T08:21:56Z</time></trkpt><trkpt lat="43.70489051391233" lon="11.127971091546913"><ele>162.0</ele><time>2026-05-01T08:21:57Z</time></trkpt><trkpt lat="43.704881922476396" lon="11.127815710607779"><ele>161.0</ele><time>2026-05-01T08:21:58Z</time></trkpt><trkpt lat="43.70487558238315" lon="11.127658076073052"><ele>161.0</ele><time>2026-05-01T08:21:59Z</time></trkpt><trkpt lat="43.70486588838161" lon="11.127502319969075"><ele>161.0</ele><time>2026-05-01T08:22:00Z</time></trkpt><trkpt lat="43.704841660286476" lon="11.127342089474675"><ele>161.0</ele><time>2026-05-01T08:22:01Z</time></trkpt><trkpt lat="43.70480116429477" lon="11.12718572658722"><ele>161.0</ele><time>2026-05-01T08:22:02Z</time></trkpt><trkpt lat="43.704742346458545" lon="11.12703640676136"><ele>159.25</ele><time>2026-05-01T08:22:03Z</time></trkpt><trkpt lat="43.704673731628915" lon="11.126893380622498"><ele>157.5</ele><time>2026-05-01T08:22:04Z</time></trkpt><trkpt lat="43.70461737557625" lon="11.126737292217287"><ele>155.75</ele><time>2026-05-01T08:22:05Z</time></trkpt><trkpt lat="43.70454263688755" lon="11.126594520202339"><ele>154.0</ele><time>2026-05-01T08:22:06Z</time></trkpt><trkpt lat="43.70448493181575" lon="11.126432974335028"><ele>152.5</ele><time>2026-05-01T08:22:07Z</time></trkpt><trkpt lat="43.70441875471656" lon="11.126271787942219"><ele>151.0</ele><time>2026-05-01T08:22:08Z</time></trkpt><trkpt lat="43.704344925388604" lon="11.126105141290589"><ele>149.5</ele><time>2026-05-01T08:22:09Z</time></trkpt><trkpt lat="43.70426574535591" lon="11.12592540290279"><ele>148.0</ele><time>2026-05-01T08:22:10Z</time></trkpt><trkpt lat="43.70418396192732" lon="11.125735626153961"><ele>146.66666666666669</ele><time>2026-05-01T08:22:11Z</time></trkpt><trkpt lat="43.704110132575074" lon="11.125529065818872"><ele>145.33333333333334</ele><time>2026-05-01T08:22:12Z</time></trkpt><trkpt lat="43.70406401450445" lon="11.125306259818469"><ele>144.0</ele><time>2026-05-01T08:22:13Z</time></trkpt><trkpt lat="43.70399794803618" lon="11.125097609675588"><ele>142.66666666666666</ele><time>2026-05-01T08:22:14Z</time></trkpt><trkpt lat="43.70395278681669" lon="11.124880257602603"><ele>141.33333333333331</ele><time>2026-05-01T08:22:15Z</time></trkpt><trkpt lat="43.703907049490404" lon="11.124674397311495"><ele>140.0</ele><time>2026-05-01T08:22:16Z</time></trkpt><trkpt lat="43.70385931179547" lon="11.124466216723752"><ele>140.0</ele><time>2026-05-01T08:22:17Z</time></trkpt><trkpt lat="43.70381315203467" lon="11.124266649749853"><ele>140.0</ele><time>2026-05-01T08:22:18Z</time></trkpt><trkpt lat="43.70376939447266" lon="11.124067298105231"><ele>140.0</ele><time>2026-05-01T08:22:19Z</time></trkpt><trkpt lat="43.70372716091763" lon="11.123878475165277"><ele>140.0</ele><time>2026-05-01T08:22:19.999Z</time></trkpt><trkpt lat="43.70368073630238" lon="11.12368974071583"><ele>140.0</ele><time>2026-05-01T08:22:20.999Z</time></trkpt><trkpt lat="43.70363105100044" lon="11.12350925198269"><ele>140.0</ele><time>2026-05-01T08:22:21.999Z</time></trkpt><trkpt lat="43.70357055631063" lon="11.123342298420118"><ele>140.0</ele><time>2026-05-01T08:22:22.999Z</time></trkpt><trkpt lat="43.70348521120919" lon="11.123188619172597"><ele>140.0</ele><time>2026-05-01T08:22:23.999Z</time></trkpt><trkpt lat="43.70338776830078" lon="11.123042275927368"><ele>142.66666666666666</ele><time>2026-05-01T08:22:24.999Z</time></trkpt><trkpt lat="43.70327855555182" lon="11.122896519055974"><ele>145.33333333333334</ele><time>2026-05-01T08:22:25.999Z</time></trkpt><trkpt lat="43.70316564298842" lon="11.12275483095854"><ele>148.0</ele><time>2026-05-01T08:22:26.999Z</time></trkpt><trkpt lat="43.703065596569274" lon="11.122591424837758"><ele>148.0</ele><time>2026-05-01T08:22:27.999Z</time></trkpt><trkpt lat="43.70295373606076" lon="11.122442299096686"><ele>148.0</ele><time>2026-05-01T08:22:28.999Z</time></trkpt><trkpt lat="43.70283959094041" lon="11.122290121363143"><ele>148.0</ele><time>2026-05-01T08:22:29.999Z</time></trkpt><trkpt lat="43.70271243590353" lon="11.122158284834272"><ele>147.33333333333334</ele><time>2026-05-01T08:22:30.999Z</time></trkpt><trkpt lat="43.702594211930126" lon="11.122018448374886"><ele>146.66666666666666</ele><time>2026-05-01T08:22:31.999Z</time></trkpt><trkpt lat="43.70246280759223" lon="11.12189831410184"><ele>146.0</ele><time>2026-05-01T08:22:32.999Z</time></trkpt><trkpt lat="43.702331069062126" lon="11.121788680317772"><ele>146.0</ele><time>2026-05-01T08:22:33.999Z</time></trkpt><trkpt lat="43.70220808547166" lon="11.121667416809052"><ele>146.0</ele><time>2026-05-01T08:22:35.001Z</time></trkpt><trkpt lat="43.70208045457868" lon="11.121564125459868"><ele>146.0</ele><time>2026-05-01T08:22:36.001Z</time></trkpt><trkpt lat="43.701958962243665" lon="11.121458084352088"><ele>146.0</ele><time>2026-05-01T08:22:37.001Z</time></trkpt><trkpt lat="43.70184709351666" lon="11.121340986579726"><ele>146.0</ele><time>2026-05-01T08:22:38.001Z</time></trkpt><trkpt lat="43.70174823161369" lon="11.121207154937412"><ele>146.0</ele><time>2026-05-01T08:22:39.001Z</time></trkpt><trkpt lat="43.7016940247915" lon="11.121050714505213"><ele>146.0</ele><time>2026-05-01T08:22:40.001Z</time></trkpt><trkpt lat="43.701657153998305" lon="11.120886035459774"><ele>146.0</ele><time>2026-05-01T08:22:41.001Z</time></trkpt><trkpt lat="43.70161412638576" lon="11.120725995752894"><ele>143.75</ele><time>2026-05-01T08:22:42.001Z</time></trkpt><trkpt lat="43.70157932241196" lon="11.120564500687689"><ele>141.5</ele><time>2026-05-01T08:22:43.001Z</time></trkpt><trkpt lat="43.701518693572936" lon="11.120413317735094"><ele>139.25</ele><time>2026-05-01T08:22:44.001Z</time></trkpt><trkpt lat="43.701439167739096" lon="11.12026272366647"><ele>137.0</ele><time>2026-05-01T08:22:45.001Z</time></trkpt><trkpt lat="43.70133398472007" lon="11.120127944742084"><ele>137.0</ele><time>2026-05-01T08:22:46.001Z</time></trkpt><trkpt lat="43.701214879503645" lon="11.120015591177637"><ele>137.0</ele><time>2026-05-01T08:22:47.001Z</time></trkpt><trkpt lat="43.70107863564077" lon="11.119939050751894"><ele>137.0</ele><time>2026-05-01T08:22:48.001Z</time></trkpt><trkpt lat="43.7009347642035" lon="11.119896206796671"><ele>137.0</ele><time>2026-05-01T08:22:49.001Z</time></trkpt><trkpt lat="43.700789727910525" lon="11.119859917578314"><ele>136.25</ele><time>2026-05-01T08:22:50.001Z</time></trkpt><trkpt lat="43.70065334637748" lon="11.119787576279252"><ele>135.5</ele><time>2026-05-01T08:22:51.001Z</time></trkpt><trkpt lat="43.70051151306142" lon="11.119733042673012"><ele>134.75</ele><time>2026-05-01T08:22:52.001Z</time></trkpt><trkpt lat="43.70037186208943" lon="11.119672038183085"><ele>134.0</ele><time>2026-05-01T08:22:53.001Z</time></trkpt><trkpt lat="43.700231616351104" lon="11.119603046743263"><ele>134.0</ele><time>2026-05-01T08:22:54.001Z</time></trkpt><trkpt lat="43.7000918569115" lon="11.119524752930154"><ele>134.0</ele><time>2026-05-01T08:22:55.001Z</time></trkpt><trkpt lat="43.69994870938269" lon="11.119459323276557"><ele>134.0</ele><time>2026-05-01T08:22:56.001Z</time></trkpt><trkpt lat="43.699818305812464" lon="11.119348490041668"><ele>134.0</ele><time>2026-05-01T08:22:57.001Z</time></trkpt><trkpt lat="43.69968159563547" lon="11.119257366736669"><ele>134.0</ele><time>2026-05-01T08:22:58.001Z</time></trkpt><trkpt lat="43.699543039646755" lon="11.119165930856612"><ele>134.0</ele><time>2026-05-01T08:22:59.001Z</time></trkpt><trkpt lat="43.69939621522338" lon="11.119093464625205"><ele>134.66666666666666</ele><time>2026-05-01T08:23:00.001Z</time></trkpt><trkpt lat="43.69925003133954" lon="11.118998825095924"><ele>135.33333333333334</ele><time>2026-05-01T08:23:01Z</time></trkpt><trkpt lat="43.69911062732926" lon="11.118883615243014"><ele>136.0</ele><time>2026-05-01T08:23:02Z</time></trkpt><trkpt lat="43.698959096854544" lon="11.118805892774652"><ele>136.0</ele><time>2026-05-01T08:23:03Z</time></trkpt><trkpt lat="43.69882362915508" lon="11.118688911629066"><ele>136.0</ele><time>2026-05-01T08:23:04Z</time></trkpt><trkpt lat="43.69871050010696" lon="11.118521872747529"><ele>136.0</ele><time>2026-05-01T08:23:05Z</time></trkpt><trkpt lat="43.69859509166429" lon="11.118370253223375"><ele>131.0</ele><time>2026-05-01T08:23:06Z</time></trkpt><trkpt lat="43.69847079361778" lon="11.118230188138991"><ele>126.0</ele><time>2026-05-01T08:23:07Z</time></trkpt><trkpt lat="43.69835800840637" lon="11.118079850592434"><ele>121.0</ele><time>2026-05-01T08:23:08Z</time></trkpt><trkpt lat="43.69824032430462" lon="11.11793996777541"><ele>121.0</ele><time>2026-05-01T08:23:09Z</time></trkpt><trkpt lat="43.6981111528171" lon="11.117828846354644"><ele>121.0</ele><time>2026-05-01T08:23:10Z</time></trkpt><trkpt lat="43.69797795492634" lon="11.117732560014103"><ele>121.0</ele><time>2026-05-01T08:23:11Z</time></trkpt><trkpt lat="43.69784023577682" lon="11.117628325718794"><ele>119.66666666666667</ele><time>2026-05-01T08:23:12Z</time></trkpt><trkpt lat="43.69769733893559" lon="11.117538348999183"><ele>118.33333333333334</ele><time>2026-05-01T08:23:13Z</time></trkpt><trkpt lat="43.697554429601944" lon="11.1174429709874"><ele>117.0</ele><time>2026-05-01T08:23:14Z</time></trkpt><trkpt lat="43.69742330474035" lon="11.117326141152745"><ele>115.33333333333334</ele><time>2026-05-01T08:23:15Z</time></trkpt><trkpt lat="43.69730868267089" lon="11.11717593128536"><ele>113.66666666666667</ele><time>2026-05-01T08:23:16Z</time></trkpt><trkpt lat="43.69721143543099" lon="11.117010980024821"><ele>112.0</ele><time>2026-05-01T08:23:17Z</time></trkpt><trkpt lat="43.69713567510928" lon="11.116824079836622"><ele>112.0</ele><time>2026-05-01T08:23:18Z</time></trkpt><trkpt lat="43.697081790687534" lon="11.116622796201993"><ele>112.0</ele><time>2026-05-01T08:23:19Z</time></trkpt><trkpt lat="43.69702693530145" lon="11.11642302930014"><ele>112.0</ele><time>2026-05-01T08:23:20Z</time></trkpt><trkpt lat="43.696996731710065" lon="11.116214784874058"><ele>112.0</ele><time>2026-05-01T08:23:21Z</time></trkpt><trkpt lat="43.69696250015181" lon="11.116009049198029"><ele>112.0</ele><time>2026-05-01T08:23:22Z</time></trkpt><trkpt lat="43.69692760896698" lon="11.11580341069108"><ele>112.0</ele><time>2026-05-01T08:23:23Z</time></trkpt><trkpt lat="43.696908667178484" lon="11.115594837737971"><ele>112.0</ele><time>2026-05-01T08:23:24Z</time></trkpt><trkpt lat="43.69691865839228" lon="11.11538694680228"><ele>112.0</ele><time>2026-05-01T08:23:25Z</time></trkpt><trkpt lat="43.696947825068634" lon="11.115181922530834"><ele>112.0</ele><time>2026-05-01T08:23:26Z</time></trkpt><trkpt lat="43.696982423314104" lon="11.114976058607974"><ele>106.66666666666667</ele><time>2026-05-01T08:23:27Z</time></trkpt><trkpt lat="43.69701193527729" lon="11.114768829576242"><ele>101.33333333333334</ele><time>2026-05-01T08:23:28Z</time></trkpt><trkpt lat="43.69702886086813" lon="11.114560083743418"><ele>96.0</ele><time>2026-05-01T08:23:29Z</time></trkpt><trkpt lat="43.69703757511484" lon="11.114351778147089"><ele>96.0</ele><time>2026-05-01T08:23:30Z</time></trkpt><trkpt lat="43.69702777503193" lon="11.1141480747913"><ele>96.0</ele><time>2026-05-01T08:23:31Z</time></trkpt><trkpt lat="43.69700296682213" lon="11.113942213044337"><ele>96.0</ele><time>2026-05-01T08:23:32Z</time></trkpt><trkpt lat="43.69695384965337" lon="11.11374713219067"><ele>96.0</ele><time>2026-05-01T08:23:33Z</time></trkpt><trkpt lat="43.69689115299325" lon="11.113555590784149"><ele>95.33333333333333</ele><time>2026-05-01T08:23:34Z</time></trkpt><trkpt lat="43.696810666454176" lon="11.113372285491513"><ele>94.66666666666666</ele><time>2026-05-01T08:23:35Z</time></trkpt><trkpt lat="43.696724624100746" lon="11.11319436227237"><ele>94.0</ele><time>2026-05-01T08:23:36Z</time></trkpt><trkpt lat="43.69663854630273" lon="11.113018693416963"><ele>94.0</ele><time>2026-05-01T08:23:37Z</time></trkpt><trkpt lat="43.69655414256485" lon="11.112836764835034"><ele>94.0</ele><time>2026-05-01T08:23:38Z</time></trkpt><trkpt lat="43.69647392272761" lon="11.11265733448038"><ele>94.0</ele><time>2026-05-01T08:23:39Z</time></trkpt><trkpt lat="43.69639125799195" lon="11.112478741399679"><ele>91.0</ele><time>2026-05-01T08:23:40Z</time></trkpt><trkpt lat="43.69630828765624" lon="11.11229942518436"><ele>88.0</ele><time>2026-05-01T08:23:41Z</time></trkpt><trkpt lat="43.696227173376336" lon="11.112116052660504"><ele>85.0</ele><time>2026-05-01T08:23:42Z</time></trkpt><trkpt lat="43.696144371625465" lon="11.11193471245308"><ele>85.0</ele><time>2026-05-01T08:23:43Z</time></trkpt><trkpt lat="43.69606697627183" lon="11.111752192875214"><ele>85.0</ele><time>2026-05-01T08:23:44Z</time></trkpt><trkpt lat="43.69599411460654" lon="11.111567127952505"><ele>85.0</ele><time>2026-05-01T08:23:45Z</time></trkpt><trkpt lat="43.69593198264361" lon="11.111381661157116"><ele>85.0</ele><time>2026-05-01T08:23:46Z</time></trkpt><trkpt lat="43.6958803139509" lon="11.111196479568145"><ele>85.0</ele><time>2026-05-01T08:23:47Z</time></trkpt><trkpt lat="43.695837406711" lon="11.1110119440667"><ele>85.0</ele><time>2026-05-01T08:23:48Z</time></trkpt><trkpt lat="43.69579647673673" lon="11.110834004830181"><ele>85.0</ele><time>2026-05-01T08:23:49Z</time></trkpt><trkpt lat="43.695752560340345" lon="11.11066225784093"><ele>83.5</ele><time>2026-05-01T08:23:50Z</time></trkpt><trkpt lat="43.69569816624746" lon="11.110503137847205"><ele>82.0</ele><time>2026-05-01T08:23:51Z</time></trkpt><trkpt lat="43.69562965610227" lon="11.11036078714113"><ele>80.5</ele><time>2026-05-01T08:23:52Z</time></trkpt><trkpt lat="43.69555093181708" lon="11.110233915201832"><ele>79.0</ele><time>2026-05-01T08:23:53Z</time></trkpt><trkpt lat="43.695467045527856" lon="11.1101238721215"><ele>79.0</ele><time>2026-05-01T08:23:54Z</time></trkpt><trkpt lat="43.6953806848195" lon="11.11002651532958"><ele>79.0</ele><time>2026-05-01T08:23:55Z</time></trkpt><trkpt lat="43.69528557927947" lon="11.109923043147024"><ele>79.0</ele><time>2026-05-01T08:23:56Z</time></trkpt><trkpt lat="43.69518466122346" lon="11.10981648653395"><ele>79.0</ele><time>2026-05-01T08:23:57Z</time></trkpt><trkpt lat="43.69508676014414" lon="11.109705736144907"><ele>78.0</ele><time>2026-05-01T08:23:58Z</time></trkpt><trkpt lat="43.694991897382295" lon="11.109599566680332"><ele>77.0</ele><time>2026-05-01T08:23:59Z</time></trkpt><trkpt lat="43.69489950641558" lon="11.109495165679414"><ele>76.0</ele><time>2026-05-01T08:24:00Z</time></trkpt><trkpt lat="43.69480565573426" lon="11.109396292425153"><ele>75.0</ele><time>2026-05-01T08:24:01Z</time></trkpt><trkpt lat="43.69471319086486" lon="11.109299487825137"><ele>75.0</ele><time>2026-05-01T08:24:02Z</time></trkpt><trkpt lat="43.69462947319811" lon="11.109211665573683"><ele>75.0</ele><time>2026-05-01T08:24:03Z</time></trkpt><trkpt lat="43.6945555150416" lon="11.109126326400553"><ele>75.0</ele><time>2026-05-01T08:24:04Z</time></trkpt><trkpt lat="43.694502120790375" lon="11.109038350507234"><ele>75.0</ele><time>2026-05-01T08:24:05Z</time></trkpt><trkpt lat="43.694476561113646" lon="11.10894534454364"><ele>75.0</ele><time>2026-05-01T08:24:06Z</time></trkpt><trkpt lat="43.694490762415235" lon="11.10878690938614"><ele>74.4</ele><time>2026-05-01T08:24:08Z</time></trkpt><trkpt lat="43.69450870731276" lon="11.108687385601929"><ele>73.8</ele><time>2026-05-01T08:24:09Z</time></trkpt><trkpt lat="43.69453516334937" lon="11.108583199224853"><ele>73.2</ele><time>2026-05-01T08:24:10Z</time></trkpt><trkpt lat="43.69456356056858" lon="11.108462755300279"><ele>72.6</ele><time>2026-05-01T08:24:11Z</time></trkpt><trkpt lat="43.69458791732372" lon="11.108334269698787"><ele>72.0</ele><time>2026-05-01T08:24:12Z</time></trkpt><trkpt lat="43.69461460842872" lon="11.108185554492668"><ele>71.2</ele><time>2026-05-01T08:24:13Z</time></trkpt><trkpt lat="43.694644260967785" lon="11.108036032160559"><ele>70.4</ele><time>2026-05-01T08:24:14Z</time></trkpt><trkpt lat="43.6946674219399" lon="11.107889689917778"><ele>69.6</ele><time>2026-05-01T08:24:15Z</time></trkpt><trkpt lat="43.69469207351298" lon="11.107745431849123"><ele>68.8</ele><time>2026-05-01T08:24:15.999Z</time></trkpt><trkpt lat="43.69471993212569" lon="11.107601906832565"><ele>68.0</ele><time>2026-05-01T08:24:16.999Z</time></trkpt><trkpt lat="43.69475040394337" lon="11.10745513881209"><ele>68.0</ele><time>2026-05-01T08:24:17.999Z</time></trkpt><trkpt lat="43.69478231581394" lon="11.107306583078604"><ele>68.0</ele><time>2026-05-01T08:24:18.999Z</time></trkpt><trkpt lat="43.69481675875417" lon="11.107152220598257"><ele>68.0</ele><time>2026-05-01T08:24:19.999Z</time></trkpt><trkpt lat="43.69484916133068" lon="11.106999426965146"><ele>68.0</ele><time>2026-05-01T08:24:20.999Z</time></trkpt><trkpt lat="43.694884805239525" lon="11.106845807950728"><ele>68.0</ele><time>2026-05-01T08:24:21.999Z</time></trkpt><trkpt lat="43.694920178805916" lon="11.106689219809661"><ele>68.0</ele><time>2026-05-01T08:24:22.999Z</time></trkpt><trkpt lat="43.69495056153143" lon="11.106531307932414"><ele>68.0</ele><time>2026-05-01T08:24:23.999Z</time></trkpt><trkpt lat="43.694978310793985" lon="11.106372356909398"><ele>68.0</ele><time>2026-05-01T08:24:24.999Z</time></trkpt><trkpt lat="43.6950060798099" lon="11.106213092891002"><ele>67.75</ele><time>2026-05-01T08:24:25.999Z</time></trkpt><trkpt lat="43.69503427878552" lon="11.106055668387086"><ele>67.5</ele><time>2026-05-01T08:24:26.999Z</time></trkpt><trkpt lat="43.69506320361975" lon="11.105897025180814"><ele>67.25</ele><time>2026-05-01T08:24:27.999Z</time></trkpt><trkpt lat="43.69509185646517" lon="11.105739368001384"><ele>67.0</ele><time>2026-05-01T08:24:28.999Z</time></trkpt><trkpt lat="43.69512012831962" lon="11.105582963053365"><ele>66.8</ele><time>2026-05-01T08:24:29.999Z</time></trkpt><trkpt lat="43.69514729404093" lon="11.10542842314787"><ele>66.6</ele><time>2026-05-01T08:24:30.999Z</time></trkpt><trkpt lat="43.69517347671844" lon="11.10527796174003"><ele>66.39999999999999</ele><time>2026-05-01T08:24:31.999Z</time></trkpt><trkpt lat="43.69520242316327" lon="11.105130630903354"><ele>66.2</ele><time>2026-05-01T08:24:32.999Z</time></trkpt><trkpt lat="43.69523806024277" lon="11.104991595793615"><ele>66.0</ele><time>2026-05-01T08:24:33.999Z</time></trkpt><trkpt lat="43.69528668554031" lon="11.10486267317462"><ele>66.39999999999999</ele><time>2026-05-01T08:24:34.999Z</time></trkpt><trkpt lat="43.6953448428599" lon="11.104749242589431"><ele>66.8</ele><time>2026-05-01T08:24:35.999Z</time></trkpt><trkpt lat="43.69539268491997" lon="11.104639220282584"><ele>67.19999999999999</ele><time>2026-05-01T08:24:36.999Z</time></trkpt><trkpt lat="43.69540374331311" lon="11.104514019230344"><ele>67.6</ele><time>2026-05-01T08:24:37.999Z</time></trkpt><trkpt lat="43.69539202095305" lon="11.104380142766187"><ele>68.0</ele><time>2026-05-01T08:24:38.999Z</time></trkpt><trkpt lat="43.695389731098615" lon="11.10423318973194"><ele>68.0</ele><time>2026-05-01T08:24:39.999Z</time></trkpt><trkpt lat="43.6954071742068" lon="11.104082819299702"><ele>68.0</ele><time>2026-05-01T08:24:41.001Z</time></trkpt><trkpt lat="43.69543066967796" lon="11.10393244899959"><ele>68.0</ele><time>2026-05-01T08:24:42.001Z</time></trkpt><trkpt lat="43.695457561439234" lon="11.103781544461595"><ele>68.0</ele><time>2026-05-01T08:24:43.001Z</time></trkpt><trkpt lat="43.69548682460696" lon="11.103631639455081"><ele>68.0</ele><time>2026-05-01T08:24:44.001Z</time></trkpt><trkpt lat="43.69551795794047" lon="11.103482378710693"><ele>67.5</ele><time>2026-05-01T08:24:45.001Z</time></trkpt><trkpt lat="43.69554761809504" lon="11.103331332605027"><ele>67.0</ele><time>2026-05-01T08:24:46.001Z</time></trkpt><trkpt lat="43.695577364236605" lon="11.103183062637655"><ele>66.5</ele><time>2026-05-01T08:24:47.001Z</time></trkpt><trkpt lat="43.69561023755511" lon="11.103031467235807"><ele>66.0</ele><time>2026-05-01T08:24:48.001Z</time></trkpt><trkpt lat="43.695648842555485" lon="11.10287211083199"><ele>65.75</ele><time>2026-05-01T08:24:49.001Z</time></trkpt><trkpt lat="43.69570015933233" lon="11.102704227732563"><ele>65.5</ele><time>2026-05-01T08:24:50.001Z</time></trkpt><trkpt lat="43.695763782006274" lon="11.102537042808713"><ele>65.25</ele><time>2026-05-01T08:24:51.001Z</time></trkpt><trkpt lat="43.69583668848832" lon="11.102374375045907"><ele>65.0</ele><time>2026-05-01T08:24:52.001Z</time></trkpt><trkpt lat="43.69592062356591" lon="11.102212221776009"><ele>65.0</ele><time>2026-05-01T08:24:53.001Z</time></trkpt><trkpt lat="43.69601804706159" lon="11.102050677187378"><ele>65.0</ele><time>2026-05-01T08:24:54.001Z</time></trkpt><trkpt lat="43.69611831475235" lon="11.101889956101706"><ele>65.0</ele><time>2026-05-01T08:24:55.001Z</time></trkpt><trkpt lat="43.69622325154403" lon="11.101725452149685"><ele>64.33333333333334</ele><time>2026-05-01T08:24:56.001Z</time></trkpt><trkpt lat="43.696319975868555" lon="11.10155722793282"><ele>63.66666666666667</ele><time>2026-05-01T08:24:57.001Z</time></trkpt><trkpt lat="43.69641284426352" lon="11.101391376858157"><ele>63.0</ele><time>2026-05-01T08:24:58.001Z</time></trkpt><trkpt lat="43.69650094737504" lon="11.101232044421394"><ele>63.0</ele><time>2026-05-01T08:24:59.001Z</time></trkpt><trkpt lat="43.69658813349425" lon="11.101074598183475"><ele>63.0</ele><time>2026-05-01T08:25:00Z</time></trkpt><trkpt lat="43.696667503059615" lon="11.100929959692877"><ele>63.0</ele><time>2026-05-01T08:25:01Z</time></trkpt><trkpt lat="43.69673681867455" lon="11.10079601603541"><ele>63.0</ele><time>2026-05-01T08:25:02Z</time></trkpt><trkpt lat="43.69679147400477" lon="11.100662813617406"><ele>63.2</ele><time>2026-05-01T08:25:03Z</time></trkpt><trkpt lat="43.69682663890468" lon="11.100531994584571"><ele>63.4</ele><time>2026-05-01T08:25:04Z</time></trkpt><trkpt lat="43.69686138890253" lon="11.100411168802312"><ele>63.60000000000001</ele><time>2026-05-01T08:25:05Z</time></trkpt><trkpt lat="43.696912106146584" lon="11.100307307523764"><ele>63.800000000000004</ele><time>2026-05-01T08:25:06Z</time></trkpt><trkpt lat="43.696987215361034" lon="11.100229591701137"><ele>64.0</ele><time>2026-05-01T08:25:07Z</time></trkpt><trkpt lat="43.69706936226214" lon="11.100154191246522"><ele>64.0</ele><time>2026-05-01T08:25:08Z</time></trkpt><trkpt lat="43.697139762965584" lon="11.100059428980272"><ele>64.0</ele><time>2026-05-01T08:25:09Z</time></trkpt><trkpt lat="43.69717325068171" lon="11.099927465933892"><ele>64.0</ele><time>2026-05-01T08:25:10Z</time></trkpt><trkpt lat="43.69718722904962" lon="11.099775943486103"><ele>64.0</ele><time>2026-05-01T08:25:11Z</time></trkpt><trkpt lat="43.6972356965554" lon="11.099624843902284"><ele>64.0</ele><time>2026-05-01T08:25:12Z</time></trkpt><trkpt lat="43.697319321347926" lon="11.09949637800093"><ele>63.25</ele><time>2026-05-01T08:25:13Z</time></trkpt><trkpt lat="43.6974257647063" lon="11.099372366105667"><ele>62.5</ele><time>2026-05-01T08:25:14Z</time></trkpt><trkpt lat="43.697518793516544" lon="11.09922816424857"><ele>61.75</ele><time>2026-05-01T08:25:15Z</time></trkpt><trkpt lat="43.69759303689442" lon="11.099071685003956"><ele>61.0</ele><time>2026-05-01T08:25:16Z</time></trkpt><trkpt lat="43.69765675544435" lon="11.098901867201723"><ele>60.75</ele><time>2026-05-01T08:25:17Z</time></trkpt><trkpt lat="43.6977121818534" lon="11.098725013321685"><ele>60.5</ele><time>2026-05-01T08:25:18Z</time></trkpt><trkpt lat="43.69775813976168" lon="11.098544874568569"><ele>60.25</ele><time>2026-05-01T08:25:19Z</time></trkpt><trkpt lat="43.69780294707096" lon="11.09835717748643"><ele>60.0</ele><time>2026-05-01T08:25:20Z</time></trkpt><trkpt lat="43.6978276841786" lon="11.098157088819313"><ele>60.0</ele><time>2026-05-01T08:25:21Z</time></trkpt><trkpt lat="43.69785043961492" lon="11.097950233654563"><ele>60.0</ele><time>2026-05-01T08:25:22Z</time></trkpt><trkpt lat="43.69788515410154" lon="11.09774472577343"><ele>60.0</ele><time>2026-05-01T08:25:23Z</time></trkpt><trkpt lat="43.697898283883085" lon="11.097528323885628"><ele>59.33333333333333</ele><time>2026-05-01T08:25:24Z</time></trkpt><trkpt lat="43.69790635640396" lon="11.097310910277873"><ele>58.666666666666664</ele><time>2026-05-01T08:25:25Z</time></trkpt><trkpt lat="43.69791073719777" lon="11.09709110810482"><ele>58.0</ele><time>2026-05-01T08:25:26Z</time></trkpt><trkpt lat="43.697899244710996" lon="11.096871919484869"><ele>58.0</ele><time>2026-05-01T08:25:27Z</time></trkpt><trkpt lat="43.69790898000027" lon="11.096651387595998"><ele>58.0</ele><time>2026-05-01T08:25:28Z</time></trkpt><trkpt lat="43.69792043924742" lon="11.09642993366771"><ele>58.0</ele><time>2026-05-01T08:25:29Z</time></trkpt><trkpt lat="43.69793378122297" lon="11.096211696748695"><ele>58.0</ele><time>2026-05-01T08:25:30Z</time></trkpt><trkpt lat="43.69795305106531" lon="11.095989398388955"><ele>58.0</ele><time>2026-05-01T08:25:31Z</time></trkpt><trkpt lat="43.697983123290925" lon="11.095769235296828"><ele>58.0</ele><time>2026-05-01T08:25:32Z</time></trkpt><trkpt lat="43.69802541247955" lon="11.095553942373702"><ele>57.666666666666664</ele><time>2026-05-01T08:25:33Z</time></trkpt><trkpt lat="43.698076062167466" lon="11.095343302163355"><ele>57.33333333333333</ele><time>2026-05-01T08:25:34Z</time></trkpt><trkpt lat="43.698132340105374" lon="11.09513635356647"><ele>57.0</ele><time>2026-05-01T08:25:35Z</time></trkpt><trkpt lat="43.698192689154695" lon="11.09493560033453"><ele>56.66666666666667</ele><time>2026-05-01T08:25:36Z</time></trkpt><trkpt lat="43.698257458786586" lon="11.0947358664488"><ele>56.333333333333336</ele><time>2026-05-01T08:25:37Z</time></trkpt><trkpt lat="43.698329931013156" lon="11.09453975739444"><ele>56.0</ele><time>2026-05-01T08:25:38Z</time></trkpt><trkpt lat="43.698414425881744" lon="11.094355088566033"><ele>56.0</ele><time>2026-05-01T08:25:39Z</time></trkpt><trkpt lat="43.69851428067018" lon="11.094180052281631"><ele>56.0</ele><time>2026-05-01T08:25:40Z</time></trkpt><trkpt lat="43.698612720195335" lon="11.09400208619295"><ele>56.0</ele><time>2026-05-01T08:25:41Z</time></trkpt><trkpt lat="43.698715468691915" lon="11.093827680139814"><ele>56.333333333333336</ele><time>2026-05-01T08:25:42Z</time></trkpt><trkpt lat="43.69882545107516" lon="11.093660605869351"><ele>56.66666666666667</ele><time>2026-05-01T08:25:43Z</time></trkpt><trkpt lat="43.69894161707674" lon="11.093502451186714"><ele>57.0</ele><time>2026-05-01T08:25:44Z</time></trkpt><trkpt lat="43.69906154989045" lon="11.093341290727896"><ele>57.0</ele><time>2026-05-01T08:25:45Z</time></trkpt><trkpt lat="43.699183723004055" lon="11.093179536615757"><ele>57.0</ele><time>2026-05-01T08:25:46Z</time></trkpt><trkpt lat="43.699308962232045" lon="11.09301672189243"><ele>57.0</ele><time>2026-05-01T08:25:47Z</time></trkpt><trkpt lat="43.69943767290828" lon="11.092854147097384"><ele>57.0</ele><time>2026-05-01T08:25:48Z</time></trkpt><trkpt lat="43.6995696831298" lon="11.092693188752976"><ele>57.0</ele><time>2026-05-01T08:25:49Z</time></trkpt><trkpt lat="43.699702702776314" lon="11.092529044984948"><ele>57.0</ele><time>2026-05-01T08:25:50Z</time></trkpt><trkpt lat="43.69983330544862" lon="11.092361182107483"><ele>57.0</ele><time>2026-05-01T08:25:51Z</time></trkpt><trkpt lat="43.69995905927902" lon="11.092191008189157"><ele>57.0</ele><time>2026-05-01T08:25:52Z</time></trkpt><trkpt lat="43.70007721818032" lon="11.092015910481141"><ele>57.0</ele><time>2026-05-01T08:25:53Z</time></trkpt><trkpt lat="43.70019020126379" lon="11.091842810427094"><ele>57.0</ele><time>2026-05-01T08:25:54Z</time></trkpt><trkpt lat="43.70029622247509" lon="11.091673891310744"><ele>57.0</ele><time>2026-05-01T08:25:55Z</time></trkpt><trkpt lat="43.70040200005329" lon="11.091504413059033"><ele>57.0</ele><time>2026-05-01T08:25:56Z</time></trkpt><trkpt lat="43.70050330259438" lon="11.091336320023787"><ele>57.0</ele><time>2026-05-01T08:25:57Z</time></trkpt><trkpt lat="43.70059797310958" lon="11.091165084401306"><ele>57.0</ele><time>2026-05-01T08:25:58Z</time></trkpt><trkpt lat="43.700688415143155" lon="11.090984698214687"><ele>57.0</ele><time>2026-05-01T08:25:59Z</time></trkpt><trkpt lat="43.70077774458134" lon="11.090799083431447"><ele>56.33333333333333</ele><time>2026-05-01T08:26:00Z</time></trkpt><trkpt lat="43.70086989010541" lon="11.090605838364734"><ele>55.666666666666664</ele><time>2026-05-01T08:26:01Z</time></trkpt><trkpt lat="43.70096553320551" lon="11.090411431496435"><ele>55.0</ele><time>2026-05-01T08:26:02Z</time></trkpt><trkpt lat="43.70106180485406" lon="11.090215337271546"><ele>55.0</ele><time>2026-05-01T08:26:03Z</time></trkpt><trkpt lat="43.70115925699697" lon="11.090019835788922"><ele>55.0</ele><time>2026-05-01T08:26:04Z</time></trkpt><trkpt lat="43.701258045141365" lon="11.08981848795712"><ele>55.0</ele><time>2026-05-01T08:26:05Z</time></trkpt><trkpt lat="43.701358605134935" lon="11.08961342341073"><ele>55.0</ele><time>2026-05-01T08:26:06Z</time></trkpt><trkpt lat="43.701465306162454" lon="11.08940335035463"><ele>55.0</ele><time>2026-05-01T08:26:07Z</time></trkpt><trkpt lat="43.701581455010476" lon="11.089194891874094"><ele>55.0</ele><time>2026-05-01T08:26:08Z</time></trkpt><trkpt lat="43.70171020884076" lon="11.088986500183358"><ele>55.0</ele><time>2026-05-01T08:26:09Z</time></trkpt><trkpt lat="43.70185139877837" lon="11.088782352446387"><ele>55.0</ele><time>2026-05-01T08:26:10Z</time></trkpt><trkpt lat="43.70200724971401" lon="11.088584026304831"><ele>55.0</ele><time>2026-05-01T08:26:11Z</time></trkpt><trkpt lat="43.70217617340778" lon="11.088394110252377"><ele>54.666666666666664</ele><time>2026-05-01T08:26:11.999Z</time></trkpt><trkpt lat="43.70235060300232" lon="11.088219036963418"><ele>54.33333333333333</ele><time>2026-05-01T08:26:12.999Z</time></trkpt><trkpt lat="43.70253720229811" lon="11.08807077053093"><ele>54.0</ele><time>2026-05-01T08:26:13.999Z</time></trkpt><trkpt lat="43.702718643709176" lon="11.087948055231038"><ele>53.66666666666667</ele><time>2026-05-01T08:26:14.999Z</time></trkpt><trkpt lat="43.702898036256265" lon="11.087844348030503"><ele>53.333333333333336</ele><time>2026-05-01T08:26:15.999Z</time></trkpt><trkpt lat="43.7030716496505" lon="11.087762693561801"><ele>53.0</ele><time>2026-05-01T08:26:16.999Z</time></trkpt><trkpt lat="43.70324265540717" lon="11.087696679956867"><ele>53.0</ele><time>2026-05-01T08:26:17.999Z</time></trkpt><trkpt lat="43.70340942993381" lon="11.087642625111647"><ele>53.0</ele><time>2026-05-01T08:26:18.999Z</time></trkpt><trkpt lat="43.70356609435109" lon="11.087605564968147"><ele>53.0</ele><time>2026-05-01T08:26:19.999Z</time></trkpt><trkpt lat="43.703713692123934" lon="11.087580752192737"><ele>53.5</ele><time>2026-05-01T08:26:20.999Z</time></trkpt><trkpt lat="43.703857539515134" lon="11.087563666097617"><ele>54.0</ele><time>2026-05-01T08:26:21.999Z</time></trkpt><trkpt lat="43.704001325675655" lon="11.087557302290962"><ele>54.5</ele><time>2026-05-01T08:26:22.999Z</time></trkpt><trkpt lat="43.704137879840836" lon="11.087557566616198"><ele>55.0</ele><time>2026-05-01T08:26:23.999Z</time></trkpt><trkpt lat="43.70426140508729" lon="11.087565556638415"><ele>55.0</ele><time>2026-05-01T08:26:24.999Z</time></trkpt><trkpt lat="43.70437055577556" lon="11.087581989139641"><ele>55.0</ele><time>2026-05-01T08:26:25.999Z</time></trkpt><trkpt lat="43.704454810302" lon="11.087576684488438"><ele>55.0</ele><time>2026-05-01T08:26:26.999Z</time></trkpt><trkpt lat="43.704536912649225" lon="11.087669750609669"><ele>55.0</ele><time>2026-05-01T08:26:27.999Z</time></trkpt><trkpt lat="43.704613227599715" lon="11.087719244160889"><ele>55.0</ele><time>2026-05-01T08:26:28.999Z</time></trkpt><trkpt lat="43.70469734035205" lon="11.087745735586914"><ele>54.83333333333333</ele><time>2026-05-01T08:26:29.999Z</time></trkpt><trkpt lat="43.70478362986801" lon="11.087720770412448"><ele>54.666666666666664</ele><time>2026-05-01T08:26:30.999Z</time></trkpt><trkpt lat="43.70485054320375" lon="11.087655133240311"><ele>54.5</ele><time>2026-05-01T08:26:31.999Z</time></trkpt><trkpt lat="43.70488422425607" lon="11.08755555629505"><ele>54.33333333333333</ele><time>2026-05-01T08:26:32.999Z</time></trkpt><trkpt lat="43.70487599945853" lon="11.087442470266529"><ele>54.166666666666664</ele><time>2026-05-01T08:26:33.999Z</time></trkpt><trkpt lat="43.70484430380979" lon="11.087328691418728"><ele>54.0</ele><time>2026-05-01T08:26:34.999Z</time></trkpt><trkpt lat="43.70478642305951" lon="11.087222561318475"><ele>54.0</ele><time>2026-05-01T08:26:35.999Z</time></trkpt><trkpt lat="43.704741866494544" lon="11.087097925998243"><ele>54.0</ele><time>2026-05-01T08:26:36.999Z</time></trkpt><trkpt lat="43.70470300328236" lon="11.08695575682592"><ele>54.0</ele><time>2026-05-01T08:26:37.999Z</time></trkpt><trkpt lat="43.70470829010278" lon="11.086780758269912"><ele>54.0</ele><time>2026-05-01T08:26:38.999Z</time></trkpt><trkpt lat="43.704693631276115" lon="11.0866050579044"><ele>54.0</ele><time>2026-05-01T08:26:39.999Z</time></trkpt><trkpt lat="43.70466900218262" lon="11.08642282994148"><ele>54.0</ele><time>2026-05-01T08:26:40.999Z</time></trkpt><trkpt lat="43.70463334343144" lon="11.086239792467888"><ele>54.0</ele><time>2026-05-01T08:26:41.999Z</time></trkpt><trkpt lat="43.70458906520569" lon="11.08605378187851"><ele>54.0</ele><time>2026-05-01T08:26:42.999Z</time></trkpt><trkpt lat="43.704547745646494" lon="11.085864902974222"><ele>54.0</ele><time>2026-05-01T08:26:43.999Z</time></trkpt><trkpt lat="43.704508725377785" lon="11.08566864761"><ele>54.0</ele><time>2026-05-01T08:26:44.999Z</time></trkpt><trkpt lat="43.704477607640136" lon="11.08547233851054"><ele>54.0</ele><time>2026-05-01T08:26:45.999Z</time></trkpt><trkpt lat="43.704452829316224" lon="11.08527535250352"><ele>54.0</ele><time>2026-05-01T08:26:47Z</time></trkpt><trkpt lat="43.70443781936578" lon="11.085075620892178"><ele>54.25</ele><time>2026-05-01T08:26:48Z</time></trkpt><trkpt lat="43.70442988451925" lon="11.08487101508135"><ele>54.5</ele><time>2026-05-01T08:26:49Z</time></trkpt><trkpt lat="43.70443447088741" lon="11.084668033741236"><ele>54.75</ele><time>2026-05-01T08:26:50Z</time></trkpt><trkpt lat="43.70445380616796" lon="11.084463093749092"><ele>55.0</ele><time>2026-05-01T08:26:51Z</time></trkpt><trkpt lat="43.70448112554674" lon="11.084253734208309"><ele>54.666666666666664</ele><time>2026-05-01T08:26:52Z</time></trkpt><trkpt lat="43.70452313304508" lon="11.08404696993781"><ele>54.33333333333333</ele><time>2026-05-01T08:26:53Z</time></trkpt><trkpt lat="43.70457356847628" lon="11.083837382470891"><ele>54.0</ele><time>2026-05-01T08:26:54Z</time></trkpt><trkpt lat="43.70463178858844" lon="11.083631420503114"><ele>54.0</ele><time>2026-05-01T08:26:55Z</time></trkpt><trkpt lat="43.70469375563168" lon="11.083423584541164"><ele>54.0</ele><time>2026-05-01T08:26:56Z</time></trkpt><trkpt lat="43.704755532815305" lon="11.083214005626816"><ele>54.0</ele><time>2026-05-01T08:26:57Z</time></trkpt><trkpt lat="43.704815580725146" lon="11.083000732450676"><ele>53.66666666666667</ele><time>2026-05-01T08:26:58Z</time></trkpt><trkpt lat="43.704872641690216" lon="11.082793481618957"><ele>53.333333333333336</ele><time>2026-05-01T08:26:59Z</time></trkpt><trkpt lat="43.704932836506174" lon="11.082580142455443"><ele>53.0</ele><time>2026-05-01T08:27:00Z</time></trkpt><trkpt lat="43.70499062110087" lon="11.082365720286845"><ele>53.0</ele><time>2026-05-01T08:27:01Z</time></trkpt><trkpt lat="43.70504380152313" lon="11.082149150943959"><ele>53.0</ele><time>2026-05-01T08:27:02Z</time></trkpt><trkpt lat="43.705094410717784" lon="11.081932970272383"><ele>53.0</ele><time>2026-05-01T08:27:03Z</time></trkpt><trkpt lat="43.705145636281586" lon="11.081714756384091"><ele>52.66666666666667</ele><time>2026-05-01T08:27:04Z</time></trkpt><trkpt lat="43.70519169014342" lon="11.081492341970469"><ele>52.33333333333333</ele><time>2026-05-01T08:27:05Z</time></trkpt><trkpt lat="43.70523199589657" lon="11.08126486012816"><ele>52.0</ele><time>2026-05-01T08:27:06Z</time></trkpt><trkpt lat="43.705272237602685" lon="11.081044485184377"><ele>52.33333333333333</ele><time>2026-05-01T08:27:07Z</time></trkpt><trkpt lat="43.70531272805256" lon="11.080819838683578"><ele>52.66666666666667</ele><time>2026-05-01T08:27:08Z</time></trkpt><trkpt lat="43.705348467961294" lon="11.080597852345203"><ele>53.0</ele><time>2026-05-01T08:27:09Z</time></trkpt><trkpt lat="43.70538247617426" lon="11.080374487806575"><ele>53.0</ele><time>2026-05-01T08:27:10Z</time></trkpt><trkpt lat="43.70541472437237" lon="11.080144045380571"><ele>53.0</ele><time>2026-05-01T08:27:11Z</time></trkpt><trkpt lat="43.70544400339616" lon="11.079912099475406"><ele>53.0</ele><time>2026-05-01T08:27:12Z</time></trkpt><trkpt lat="43.70547190090213" lon="11.079679222838877"><ele>53.0</ele><time>2026-05-01T08:27:13Z</time></trkpt><trkpt lat="43.70549729013848" lon="11.079439944669456"><ele>53.0</ele><time>2026-05-01T08:27:14Z</time></trkpt><trkpt lat="43.70551789245964" lon="11.079203502804862"><ele>53.0</ele><time>2026-05-01T08:27:15Z</time></trkpt><trkpt lat="43.70553706660971" lon="11.078968329935474"><ele>53.0</ele><time>2026-05-01T08:27:16Z</time></trkpt><trkpt lat="43.70555681677796" lon="11.078731564503068"><ele>53.0</ele><time>2026-05-01T08:27:17Z</time></trkpt><trkpt lat="43.70557671904705" lon="11.078494571691643"><ele>53.0</ele><time>2026-05-01T08:27:18Z</time></trkpt><trkpt lat="43.70559680021674" lon="11.078257785810722"><ele>52.333333333333336</ele><time>2026-05-01T08:27:19Z</time></trkpt><trkpt lat="43.70561646322778" lon="11.078021044682107"><ele>51.66666666666667</ele><time>2026-05-01T08:27:20Z</time></trkpt><trkpt lat="43.70563352705101" lon="11.077782868629164"><ele>51.0</ele><time>2026-05-01T08:27:21Z</time></trkpt><trkpt lat="43.705650924262436" lon="11.07754272289384"><ele>50.66666666666667</ele><time>2026-05-01T08:27:22Z</time></trkpt><trkpt lat="43.705668870714334" lon="11.077302793656798"><ele>50.333333333333336</ele><time>2026-05-01T08:27:23Z</time></trkpt><trkpt lat="43.70568772359139" lon="11.077064241503157"><ele>50.0</ele><time>2026-05-01T08:27:24Z</time></trkpt><trkpt lat="43.70570558547705" lon="11.076828017195453"><ele>50.0</ele><time>2026-05-01T08:27:25Z</time></trkpt><trkpt lat="43.705724849986446" lon="11.076590166488476"><ele>50.0</ele><time>2026-05-01T08:27:26Z</time></trkpt><trkpt lat="43.70574216849816" lon="11.076359078148174"><ele>50.0</ele><time>2026-05-01T08:27:27Z</time></trkpt><trkpt lat="43.70575720679251" lon="11.076129337881575"><ele>50.0</ele><time>2026-05-01T08:27:28Z</time></trkpt><trkpt lat="43.705775807470175" lon="11.075898172065495"><ele>50.0</ele><time>2026-05-01T08:27:29Z</time></trkpt><trkpt lat="43.70579584995589" lon="11.075664082014173"><ele>50.0</ele><time>2026-05-01T08:27:30Z</time></trkpt><trkpt lat="43.70582044086324" lon="11.075432020490249"><ele>50.333333333333336</ele><time>2026-05-01T08:27:31Z</time></trkpt><trkpt lat="43.70584920958706" lon="11.075199994254008"><ele>50.66666666666667</ele><time>2026-05-01T08:27:32Z</time></trkpt><trkpt lat="43.7058897591073" lon="11.074964310313376"><ele>51.0</ele><time>2026-05-01T08:27:33Z</time></trkpt><trkpt lat="43.70593979849214" lon="11.074732183875406"><ele>51.0</ele><time>2026-05-01T08:27:34Z</time></trkpt><trkpt lat="43.705997901848036" lon="11.07451054943099"><ele>51.0</ele><time>2026-05-01T08:27:35Z</time></trkpt><trkpt lat="43.70605805556547" lon="11.074305504199696"><ele>51.0</ele><time>2026-05-01T08:27:36Z</time></trkpt><trkpt lat="43.706115223983275" lon="11.074112626620066"><ele>51.0</ele><time>2026-05-01T08:27:37Z</time></trkpt><trkpt lat="43.70617587389749" lon="11.073932171054947"><ele>51.0</ele><time>2026-05-01T08:27:38Z</time></trkpt><trkpt lat="43.70623733907004" lon="11.07376771441109"><ele>51.0</ele><time>2026-05-01T08:27:39Z</time></trkpt><trkpt lat="43.706302074914795" lon="11.073610152912707"><ele>51.0</ele><time>2026-05-01T08:27:40Z</time></trkpt><trkpt lat="43.706368856611725" lon="11.073458130536228"><ele>51.0</ele><time>2026-05-01T08:27:41Z</time></trkpt><trkpt lat="43.70643697896382" lon="11.073308335480432"><ele>51.0</ele><time>2026-05-01T08:27:42Z</time></trkpt><trkpt lat="43.70651044690009" lon="11.073159875424125"><ele>51.0</ele><time>2026-05-01T08:27:43Z</time></trkpt><trkpt lat="43.7065909816819" lon="11.07301607572581"><ele>51.0</ele><time>2026-05-01T08:27:44Z</time></trkpt><trkpt lat="43.70667326151831" lon="11.072871360667547"><ele>51.0</ele><time>2026-05-01T08:27:45Z</time></trkpt><trkpt lat="43.70675742170158" lon="11.072728163489376"><ele>51.0</ele><time>2026-05-01T08:27:46Z</time></trkpt><trkpt lat="43.706842973696276" lon="11.072584896130776"><ele>51.0</ele><time>2026-05-01T08:27:47Z</time></trkpt><trkpt lat="43.70693087692435" lon="11.072437527291381"><ele>51.0</ele><time>2026-05-01T08:27:48Z</time></trkpt><trkpt lat="43.70701857421505" lon="11.07228900650482"><ele>51.0</ele><time>2026-05-01T08:27:49Z</time></trkpt><trkpt lat="43.70710134153653" lon="11.072151286852778"><ele>51.0</ele><time>2026-05-01T08:27:50Z</time></trkpt><trkpt lat="43.707180045171995" lon="11.072020600946404"><ele>51.0</ele><time>2026-05-01T08:27:51Z</time></trkpt><trkpt lat="43.7072534777438" lon="11.071909408731468"><ele>51.0</ele><time>2026-05-01T08:27:52Z</time></trkpt><trkpt lat="43.707322401685175" lon="11.071827056102418"><ele>51.0</ele><time>2026-05-01T08:27:53Z</time></trkpt><trkpt lat="43.707395624445475" lon="11.071766015800298"><ele>51.0</ele><time>2026-05-01T08:27:54Z</time></trkpt><trkpt lat="43.707469017552654" lon="11.071737518291382"><ele>51.0</ele><time>2026-05-01T08:27:55Z</time></trkpt><trkpt lat="43.70754133714819" lon="11.071717667998263"><ele>51.0</ele><time>2026-05-01T08:27:56Z</time></trkpt><trkpt lat="43.70761020192574" lon="11.071688338115013"><ele>51.0</ele><time>2026-05-01T08:27:57Z</time></trkpt><trkpt lat="43.707668818619226" lon="11.071635180117205"><ele>51.0</ele><time>2026-05-01T08:27:58Z</time></trkpt><trkpt lat="43.70771412496755" lon="11.071559581739189"><ele>51.0</ele><time>2026-05-01T08:27:59Z</time></trkpt><trkpt lat="43.70776068103411" lon="11.071479426216609"><ele>50.833333333333336</ele><time>2026-05-01T08:28:00Z</time></trkpt><trkpt lat="43.70774343934186" lon="11.071357438131363"><ele>50.66666666666667</ele><time>2026-05-01T08:28:01Z</time></trkpt><trkpt lat="43.707722496582726" lon="11.071252827290799"><ele>50.5</ele><time>2026-05-01T08:28:02Z</time></trkpt><trkpt lat="43.70766643282604" lon="11.07116662535889"><ele>50.333333333333336</ele><time>2026-05-01T08:28:03Z</time></trkpt><trkpt lat="43.70761675576846" lon="11.07107958173647"><ele>50.16666666666667</ele><time>2026-05-01T08:28:04Z</time></trkpt><trkpt lat="43.70750793439643" lon="11.071098860920381"><ele>50.0</ele><time>2026-05-01T08:28:05Z</time></trkpt><trkpt lat="43.70742119572813" lon="11.071091237110721"><ele>50.00000000000001</ele><time>2026-05-01T08:28:06Z</time></trkpt><trkpt lat="43.70733792815286" lon="11.071069116856137"><ele>50.0</ele><time>2026-05-01T08:28:07Z</time></trkpt><trkpt lat="43.707255072618906" lon="11.07101875920375"><ele>50.0</ele><time>2026-05-01T08:28:08Z</time></trkpt><trkpt lat="43.70718759634033" lon="11.070940689140695"><ele>50.0</ele><time>2026-05-01T08:28:09Z</time></trkpt><trkpt lat="43.707129508653466" lon="11.070848300522412"><ele>50.00000000000001</ele><time>2026-05-01T08:28:10Z</time></trkpt><trkpt lat="43.70707019448798" lon="11.070753356120171"><ele>50.0</ele><time>2026-05-01T08:28:11Z</time></trkpt><trkpt lat="43.707005556552886" lon="11.07065213360135"><ele>50.2</ele><time>2026-05-01T08:28:12Z</time></trkpt><trkpt lat="43.70693976735252" lon="11.070546370196881"><ele>50.4</ele><time>2026-05-01T08:28:13Z</time></trkpt><trkpt lat="43.70687131428315" lon="11.070441154361468"><ele>50.599999999999994</ele><time>2026-05-01T08:28:14Z</time></trkpt><trkpt lat="43.70680116035141" lon="11.070338120917253"><ele>50.8</ele><time>2026-05-01T08:28:14.999Z</time></trkpt><trkpt lat="43.70673106833608" lon="11.070235459472375"><ele>51.0</ele><time>2026-05-01T08:28:15.999Z</time></trkpt><trkpt lat="43.70665583144403" lon="11.070139194715125"><ele>51.0</ele><time>2026-05-01T08:28:16.999Z</time></trkpt><trkpt lat="43.70657096639668" lon="11.070047454746781"><ele>51.0</ele><time>2026-05-01T08:28:17.999Z</time></trkpt><trkpt lat="43.706484102050695" lon="11.069968208695599"><ele>51.0</ele><time>2026-05-01T08:28:18.999Z</time></trkpt><trkpt lat="43.70638840833313" lon="11.069889361891821"><ele>51.0</ele><time>2026-05-01T08:28:19.999Z</time></trkpt><trkpt lat="43.70629008853139" lon="11.069817104534216"><ele>51.0</ele><time>2026-05-01T08:28:20.999Z</time></trkpt><trkpt lat="43.70619291770688" lon="11.069744348432078"><ele>50.8</ele><time>2026-05-01T08:28:21.999Z</time></trkpt><trkpt lat="43.706101699637586" lon="11.069676302339"><ele>50.599999999999994</ele><time>2026-05-01T08:28:22.999Z</time></trkpt><trkpt lat="43.70602213090204" lon="11.069591268832612"><ele>50.4</ele><time>2026-05-01T08:28:23.999Z</time></trkpt><trkpt lat="43.70593963506423" lon="11.069527166830337"><ele>50.2</ele><time>2026-05-01T08:28:24.999Z</time></trkpt><trkpt lat="43.705857910055826" lon="11.069463663781535"><ele>50.0</ele><time>2026-05-01T08:28:25.999Z</time></trkpt><trkpt lat="43.705781556556516" lon="11.069404334592708"><ele>50.0</ele><time>2026-05-01T08:28:26.999Z</time></trkpt><trkpt lat="43.70570427832756" lon="11.069344286855504"><ele>50.0</ele><time>2026-05-01T08:28:27.999Z</time></trkpt><trkpt lat="43.70562904403877" lon="11.069285827305452"><ele>50.0</ele><time>2026-05-01T08:28:28.999Z</time></trkpt><trkpt lat="43.70554847352612" lon="11.069223221322199"><ele>50.0</ele><time>2026-05-01T08:28:29.999Z</time></trkpt><trkpt lat="43.70545680397796" lon="11.069151991056344"><ele>50.0</ele><time>2026-05-01T08:28:30.999Z</time></trkpt><trkpt lat="43.70535530177716" lon="11.069073120472602"><ele>50.75</ele><time>2026-05-01T08:28:31.999Z</time></trkpt><trkpt lat="43.70524440914971" lon="11.068986953201444"><ele>51.5</ele><time>2026-05-01T08:28:32.999Z</time></trkpt><trkpt lat="43.7051211937353" lon="11.068916863343334"><ele>52.25</ele><time>2026-05-01T08:28:33.999Z</time></trkpt><trkpt lat="43.70501323680635" lon="11.068808271194513"><ele>53.0</ele><time>2026-05-01T08:28:34.999Z</time></trkpt><trkpt lat="43.70489597580132" lon="11.068718056905308"><ele>53.0</ele><time>2026-05-01T08:28:35.999Z</time></trkpt><trkpt lat="43.70477571172455" lon="11.068626403024727"><ele>53.0</ele><time>2026-05-01T08:28:36.999Z</time></trkpt><trkpt lat="43.704655294419396" lon="11.068535304781562"><ele>53.0</ele><time>2026-05-01T08:28:37.999Z</time></trkpt><trkpt lat="43.70453320931224" lon="11.068445975335877"><ele>53.0</ele><time>2026-05-01T08:28:38.999Z</time></trkpt><trkpt lat="43.70440557630544" lon="11.068367034455093"><ele>53.25</ele><time>2026-05-01T08:28:39.999Z</time></trkpt><trkpt lat="43.7042720214757" lon="11.068304912773776"><ele>53.5</ele><time>2026-05-01T08:28:40.999Z</time></trkpt><trkpt lat="43.704134079716084" lon="11.068283705959614"><ele>53.75</ele><time>2026-05-01T08:28:41.999Z</time></trkpt><trkpt lat="43.704005609439925" lon="11.068224363385152"><ele>54.0</ele><time>2026-05-01T08:28:42.999Z</time></trkpt><trkpt lat="43.70387425770857" lon="11.068193037987797"><ele>53.5</ele><time>2026-05-01T08:28:43.999Z</time></trkpt><trkpt lat="43.70373603654109" lon="11.068187096280898"><ele>53.0</ele><time>2026-05-01T08:28:44.999Z</time></trkpt><trkpt lat="43.703605334411826" lon="11.068140026374685"><ele>52.5</ele><time>2026-05-01T08:28:45.999Z</time></trkpt><trkpt lat="43.703467791068505" lon="11.068143584836182"><ele>52.0</ele><time>2026-05-01T08:28:46.999Z</time></trkpt><trkpt lat="43.70332994686861" lon="11.06811047059529"><ele>51.75</ele><time>2026-05-01T08:28:47.999Z</time></trkpt><trkpt lat="43.70318887493042" lon="11.068109727423671"><ele>51.5</ele><time>2026-05-01T08:28:48.999Z</time></trkpt><trkpt lat="43.703043472705296" lon="11.068116002675543"><ele>51.25</ele><time>2026-05-01T08:28:49.999Z</time></trkpt><trkpt lat="43.70290122754088" lon="11.068127894444457"><ele>51.0</ele><time>2026-05-01T08:28:50.999Z</time></trkpt><trkpt lat="43.70275683899147" lon="11.068140803522395"><ele>51.75</ele><time>2026-05-01T08:28:51.999Z</time></trkpt><trkpt lat="43.70261566035304" lon="11.068154331834904"><ele>52.5</ele><time>2026-05-01T08:28:53Z</time></trkpt><trkpt lat="43.70248075857307" lon="11.0681675525004"><ele>53.25</ele><time>2026-05-01T08:28:54Z</time></trkpt><trkpt lat="43.70235039269091" lon="11.068180328638073"><ele>54.0</ele><time>2026-05-01T08:28:55Z</time></trkpt><trkpt lat="43.70221589206764" lon="11.06819652850558"><ele>54.0</ele><time>2026-05-01T08:28:56Z</time></trkpt><trkpt lat="43.702083862406745" lon="11.068212428727664"><ele>54.0</ele><time>2026-05-01T08:28:57Z</time></trkpt><trkpt lat="43.70195503255207" lon="11.06822794360266"><ele>54.0</ele><time>2026-05-01T08:28:58Z</time></trkpt><trkpt lat="43.70182839450386" lon="11.068243199377159"><ele>54.0</ele><time>2026-05-01T08:28:59Z</time></trkpt><trkpt lat="43.70170423792758" lon="11.068257797427172"><ele>53.75</ele><time>2026-05-01T08:29:00Z</time></trkpt><trkpt lat="43.70157651293255" lon="11.068271145465332"><ele>53.5</ele><time>2026-05-01T08:29:01Z</time></trkpt><trkpt lat="43.701452138125816" lon="11.068284143388341"><ele>53.25</ele><time>2026-05-01T08:29:02Z</time></trkpt><trkpt lat="43.70132396019015" lon="11.06829753876208"><ele>53.0</ele><time>2026-05-01T08:29:03Z</time></trkpt><trkpt lat="43.70119835385009" lon="11.06831066538601"><ele>54.75</ele><time>2026-05-01T08:29:04Z</time></trkpt><trkpt lat="43.701072029373556" lon="11.068328970337921"><ele>56.5</ele><time>2026-05-01T08:29:05Z</time></trkpt><trkpt lat="43.70094547213818" lon="11.068351385492862"><ele>58.25</ele><time>2026-05-01T08:29:06Z</time></trkpt><trkpt lat="43.700818551588306" lon="11.068375407179289"><ele>60.0</ele><time>2026-05-01T08:29:07Z</time></trkpt><trkpt lat="43.7006918348671" lon="11.068399390287073"><ele>60.0</ele><time>2026-05-01T08:29:08Z</time></trkpt><trkpt lat="43.70056318089575" lon="11.068424172707866"><ele>60.0</ele><time>2026-05-01T08:29:09Z</time></trkpt><trkpt lat="43.700429102824664" lon="11.068450334896008"><ele>60.0</ele><time>2026-05-01T08:29:10Z</time></trkpt><trkpt lat="43.700292000223996" lon="11.068477087258936"><ele>60.0</ele><time>2026-05-01T08:29:11Z</time></trkpt><trkpt lat="43.7001552531266" lon="11.068503770256074"><ele>59.25</ele><time>2026-05-01T08:29:12Z</time></trkpt><trkpt lat="43.70002071150847" lon="11.068528981404095"><ele>58.5</ele><time>2026-05-01T08:29:13Z</time></trkpt><trkpt lat="43.699886792146465" lon="11.068553525026665"><ele>57.75</ele><time>2026-05-01T08:29:14Z</time></trkpt><trkpt lat="43.69975626760598" lon="11.06857769036348"><ele>57.0</ele><time>2026-05-01T08:29:15Z</time></trkpt><trkpt lat="43.69962347504387" lon="11.068602290706965"><ele>57.0</ele><time>2026-05-01T08:29:16Z</time></trkpt><trkpt lat="43.699491337770844" lon="11.068626833468876"><ele>57.0</ele><time>2026-05-01T08:29:17Z</time></trkpt><trkpt lat="43.69935649880202" lon="11.068650192636424"><ele>57.0</ele><time>2026-05-01T08:29:18Z</time></trkpt><trkpt lat="43.69922368539245" lon="11.068667418920924"><ele>57.0</ele><time>2026-05-01T08:29:19Z</time></trkpt><trkpt lat="43.69909053694971" lon="11.068678754019382"><ele>57.5</ele><time>2026-05-01T08:29:20Z</time></trkpt><trkpt lat="43.69895728903032" lon="11.068681850502092"><ele>58.0</ele><time>2026-05-01T08:29:21Z</time></trkpt><trkpt lat="43.6988225747749" lon="11.068679079554872"><ele>58.5</ele><time>2026-05-01T08:29:22Z</time></trkpt><trkpt lat="43.69869220810318" lon="11.068675622233291"><ele>59.0</ele><time>2026-05-01T08:29:23Z</time></trkpt><trkpt lat="43.69857490646729" lon="11.068672511399555"><ele>59.400000000000006</ele><time>2026-05-01T08:29:24Z</time></trkpt><trkpt lat="43.69847089648064" lon="11.068669753058188"><ele>59.800000000000004</ele><time>2026-05-01T08:29:25Z</time></trkpt><trkpt lat="43.698376785390025" lon="11.068667257238173"><ele>60.199999999999996</ele><time>2026-05-01T08:29:26Z</time></trkpt><trkpt lat="43.698283305752064" lon="11.068664778157673"><ele>60.599999999999994</ele><time>2026-05-01T08:29:27Z</time></trkpt><trkpt lat="43.698185955962835" lon="11.068661919208642"><ele>61.0</ele><time>2026-05-01T08:29:28Z</time></trkpt><trkpt lat="43.69807772657483" lon="11.068658123341756"><ele>61.0</ele><time>2026-05-01T08:29:29Z</time></trkpt><trkpt lat="43.69796928523277" lon="11.068654320041716"><ele>61.0</ele><time>2026-05-01T08:29:30Z</time></trkpt><trkpt lat="43.697852033120505" lon="11.068650207728322"><ele>61.0</ele><time>2026-05-01T08:29:31Z</time></trkpt><trkpt lat="43.69772939297787" lon="11.068645906441622"><ele>61.0</ele><time>2026-05-01T08:29:32Z</time></trkpt><trkpt lat="43.697604335996914" lon="11.068641134309992"><ele>60.75</ele><time>2026-05-01T08:29:33Z</time></trkpt><trkpt lat="43.697475431106085" lon="11.068635400766246"><ele>60.5</ele><time>2026-05-01T08:29:34Z</time></trkpt><trkpt lat="43.697340921509834" lon="11.068629417933073"><ele>60.25</ele><time>2026-05-01T08:29:35Z</time></trkpt><trkpt lat="43.69720266768888" lon="11.068623268556342"><ele>60.0</ele><time>2026-05-01T08:29:36Z</time></trkpt><trkpt lat="43.697067048679266" lon="11.068619356188233"><ele>60.0</ele><time>2026-05-01T08:29:37Z</time></trkpt><trkpt lat="43.69692930203674" lon="11.068616498893784"><ele>60.0</ele><time>2026-05-01T08:29:38Z</time></trkpt><trkpt lat="43.69678802998786" lon="11.068622095894447"><ele>60.0</ele><time>2026-05-01T08:29:39Z</time></trkpt><trkpt lat="43.696649870466445" lon="11.068636734413586"><ele>60.0</ele><time>2026-05-01T08:29:40Z</time></trkpt><trkpt lat="43.6965102041146" lon="11.068659725591255"><ele>59.75</ele><time>2026-05-01T08:29:41Z</time></trkpt><trkpt lat="43.69637900609585" lon="11.068686840547509"><ele>59.5</ele><time>2026-05-01T08:29:42Z</time></trkpt><trkpt lat="43.696242823334146" lon="11.068714056794729"><ele>59.25</ele><time>2026-05-01T08:29:43Z</time></trkpt><trkpt lat="43.69610825445456" lon="11.068744338874843"><ele>59.0</ele><time>2026-05-01T08:29:44Z</time></trkpt><trkpt lat="43.69597465678714" lon="11.068774402398443"><ele>58.75</ele><time>2026-05-01T08:29:45Z</time></trkpt><trkpt lat="43.69584265184135" lon="11.068804107517275"><ele>58.5</ele><time>2026-05-01T08:29:46Z</time></trkpt><trkpt lat="43.69570908904246" lon="11.068834966414531"><ele>58.25</ele><time>2026-05-01T08:29:47Z</time></trkpt><trkpt lat="43.69557813528459" lon="11.06886654990181"><ele>58.0</ele><time>2026-05-01T08:29:48Z</time></trkpt><trkpt lat="43.69544693860691" lon="11.068898191977413"><ele>58.0</ele><time>2026-05-01T08:29:49Z</time></trkpt><trkpt lat="43.6953148235868" lon="11.068930055538248"><ele>58.0</ele><time>2026-05-01T08:29:50Z</time></trkpt><trkpt lat="43.69518475732566" lon="11.068961424981664"><ele>58.0</ele><time>2026-05-01T08:29:51Z</time></trkpt><trkpt lat="43.695054066671965" lon="11.068994475372214"><ele>58.0</ele><time>2026-05-01T08:29:52Z</time></trkpt><trkpt lat="43.694924357499744" lon="11.069027578442359"><ele>58.2</ele><time>2026-05-01T08:29:53Z</time></trkpt><trkpt lat="43.69479900986609" lon="11.069059713745581"><ele>58.4</ele><time>2026-05-01T08:29:54Z</time></trkpt><trkpt lat="43.69468399086873" lon="11.069089201026891"><ele>58.60000000000001</ele><time>2026-05-01T08:29:55Z</time></trkpt><trkpt lat="43.69458025105432" lon="11.06911769389838"><ele>58.800000000000004</ele><time>2026-05-01T08:29:56Z</time></trkpt><trkpt lat="43.69448515763552" lon="11.069143760323877"><ele>59.0</ele><time>2026-05-01T08:29:57Z</time></trkpt><trkpt lat="43.694395109864146" lon="11.069168483231548"><ele>59.0</ele><time>2026-05-01T08:29:58Z</time></trkpt><trkpt lat="43.694304770457904" lon="11.069193286346628"><ele>59.00000000000001</ele><time>2026-05-01T08:29:59Z</time></trkpt><trkpt lat="43.69420535830655" lon="11.069221546890592"><ele>59.00000000000001</ele><time>2026-05-01T08:30:00Z</time></trkpt><trkpt lat="43.69409948160873" lon="11.069251647719216"><ele>59.0</ele><time>2026-05-01T08:30:01Z</time></trkpt><trkpt lat="43.69399302238565" lon="11.06928191240325"><ele>59.0</ele><time>2026-05-01T08:30:02Z</time></trkpt><trkpt lat="43.693885873413244" lon="11.069312373171211"><ele>59.0</ele><time>2026-05-01T08:30:03Z</time></trkpt><trkpt lat="43.69377802978485" lon="11.069343031422196"><ele>59.00000000000001</ele><time>2026-05-01T08:30:04Z</time></trkpt><trkpt lat="43.69367501265482" lon="11.06940689515658"><ele>59.00000000000001</ele><time>2026-05-01T08:30:05Z</time></trkpt><trkpt lat="43.6935669073159" lon="11.06943471942598"><ele>59.0</ele><time>2026-05-01T08:30:06Z</time></trkpt><trkpt lat="43.693461733727666" lon="11.069464248928686"><ele>59.0</ele><time>2026-05-01T08:30:07Z</time></trkpt><trkpt lat="43.693353084415136" lon="11.069486034521681"><ele>59.400000000000006</ele><time>2026-05-01T08:30:08Z</time></trkpt><trkpt lat="43.69324607634214" lon="11.0694666020986"><ele>59.800000000000004</ele><time>2026-05-01T08:30:09Z</time></trkpt><trkpt lat="43.69314415733033" lon="11.0694715786017"><ele>60.199999999999996</ele><time>2026-05-01T08:30:10Z</time></trkpt><trkpt lat="43.6930415358642" lon="11.069473152333892"><ele>60.599999999999994</ele><time>2026-05-01T08:30:11Z</time></trkpt><trkpt lat="43.6929419539504" lon="11.06947195769817"><ele>61.0</ele><time>2026-05-01T08:30:12Z</time></trkpt><trkpt lat="43.692846606338314" lon="11.06946332562788"><ele>61.199999999999996</ele><time>2026-05-01T08:30:12.999Z</time></trkpt><trkpt lat="43.692752141215955" lon="11.069447906018548"><ele>61.39999999999999</ele><time>2026-05-01T08:30:13.999Z</time></trkpt><trkpt lat="43.69265429958681" lon="11.069426951395862"><ele>61.6</ele><time>2026-05-01T08:30:14.999Z</time></trkpt><trkpt lat="43.69255084077698" lon="11.069399847817012"><ele>61.8</ele><time>2026-05-01T08:30:15.999Z</time></trkpt><trkpt lat="43.69244871330775" lon="11.069371193314955"><ele>62.0</ele><time>2026-05-01T08:30:16.999Z</time></trkpt><trkpt lat="43.6923449450367" lon="11.069337597321077"><ele>62.0</ele><time>2026-05-01T08:30:17.999Z</time></trkpt><trkpt lat="43.69223972308446" lon="11.069318542483195"><ele>62.0</ele><time>2026-05-01T08:30:18.999Z</time></trkpt><trkpt lat="43.692141426084426" lon="11.06927018402287"><ele>62.0</ele><time>2026-05-01T08:30:19.999Z</time></trkpt><trkpt lat="43.69203675406231" lon="11.069235435327654"><ele>62.0</ele><time>2026-05-01T08:30:20.999Z</time></trkpt><trkpt lat="43.69193283581273" lon="11.069198338414111"><ele>62.0</ele><time>2026-05-01T08:30:21.999Z</time></trkpt><trkpt lat="43.691827024837295" lon="11.069182010320702"><ele>62.400000000000006</ele><time>2026-05-01T08:30:22.999Z</time></trkpt><trkpt lat="43.69172782173635" lon="11.069146613861973"><ele>62.800000000000004</ele><time>2026-05-01T08:30:23.999Z</time></trkpt><trkpt lat="43.69162785632068" lon="11.069088086650302"><ele>63.2</ele><time>2026-05-01T08:30:24.999Z</time></trkpt><trkpt lat="43.69151663906644" lon="11.069067913096044"><ele>63.6</ele><time>2026-05-01T08:30:25.999Z</time></trkpt><trkpt lat="43.69141018172764" lon="11.06903272078155"><ele>64.0</ele><time>2026-05-01T08:30:26.999Z</time></trkpt><trkpt lat="43.691305334271135" lon="11.069012215143877"><ele>64.0</ele><time>2026-05-01T08:30:27.999Z</time></trkpt><trkpt lat="43.69120197442275" lon="11.069029495073945"><ele>64.0</ele><time>2026-05-01T08:30:28.999Z</time></trkpt><trkpt lat="43.69109812377817" lon="11.069059609778634"><ele>64.0</ele><time>2026-05-01T08:30:29.999Z</time></trkpt><trkpt lat="43.690995141267074" lon="11.069097122732304"><ele>64.0</ele><time>2026-05-01T08:30:30.999Z</time></trkpt><trkpt lat="43.69088824926309" lon="11.069146652274835"><ele>64.0</ele><time>2026-05-01T08:30:31.999Z</time></trkpt><trkpt lat="43.6907794834614" lon="11.069205676167702"><ele>64.25</ele><time>2026-05-01T08:30:32.999Z</time></trkpt><trkpt lat="43.6906662087202" lon="11.069253209411608"><ele>64.5</ele><time>2026-05-01T08:30:33.999Z</time></trkpt><trkpt lat="43.690566209704436" lon="11.069327847737888"><ele>64.75</ele><time>2026-05-01T08:30:34.999Z</time></trkpt><trkpt lat="43.69047783708458" lon="11.06942557141493"><ele>65.0</ele><time>2026-05-01T08:30:35.999Z</time></trkpt><trkpt lat="43.69039949228133" lon="11.069527232278702"><ele>65.0</ele><time>2026-05-01T08:30:36.999Z</time></trkpt><trkpt lat="43.69032639145594" lon="11.069622794628426"><ele>65.0</ele><time>2026-05-01T08:30:37.999Z</time></trkpt><trkpt lat="43.69026788195273" lon="11.069727330286065"><ele>65.0</ele><time>2026-05-01T08:30:38.999Z</time></trkpt><trkpt lat="43.690193717198596" lon="11.069814112477706"><ele>65.0</ele><time>2026-05-01T08:30:39.999Z</time></trkpt><trkpt lat="43.69012255946467" lon="11.069898067176204"><ele>65.0</ele><time>2026-05-01T08:30:40.999Z</time></trkpt><trkpt lat="43.690055895067246" lon="11.069986830702359"><ele>65.2</ele><time>2026-05-01T08:30:41.999Z</time></trkpt><trkpt lat="43.68997527006076" lon="11.070087056702851"><ele>65.4</ele><time>2026-05-01T08:30:42.999Z</time></trkpt><trkpt lat="43.68987554372584" lon="11.070150107081846"><ele>65.6</ele><time>2026-05-01T08:30:43.999Z</time></trkpt><trkpt lat="43.6897756802434" lon="11.070213264980081"><ele>65.8</ele><time>2026-05-01T08:30:44.999Z</time></trkpt><trkpt lat="43.68966380167814" lon="11.070268200158862"><ele>66.0</ele><time>2026-05-01T08:30:45.999Z</time></trkpt><trkpt lat="43.68954696163088" lon="11.070309854519678"><ele>66.0</ele><time>2026-05-01T08:30:46.999Z</time></trkpt><trkpt lat="43.68941817244563" lon="11.070342883742471"><ele>66.0</ele><time>2026-05-01T08:30:47.999Z</time></trkpt><trkpt lat="43.68928062510044" lon="11.070361443193416"><ele>66.0</ele><time>2026-05-01T08:30:48.999Z</time></trkpt><trkpt lat="43.68913346610909" lon="11.070365266257465"><ele>66.0</ele><time>2026-05-01T08:30:49.999Z</time></trkpt><trkpt lat="43.68897458433544" lon="11.07035411046067"><ele>66.0</ele><time>2026-05-01T08:30:50.999Z</time></trkpt><trkpt lat="43.68881727583085" lon="11.070336624902081"><ele>66.0</ele><time>2026-05-01T08:30:51.999Z</time></trkpt><trkpt lat="43.688654521282686" lon="11.070315470434975"><ele>66.0</ele><time>2026-05-01T08:30:52.999Z</time></trkpt><trkpt lat="43.68848785626308" lon="11.070293807690392"><ele>66.33333333333333</ele><time>2026-05-01T08:30:53.999Z</time></trkpt><trkpt lat="43.68831734885487" lon="11.070271645472978"><ele>66.66666666666666</ele><time>2026-05-01T08:30:54.999Z</time></trkpt><trkpt lat="43.68814760538274" lon="11.070251976616781"><ele>67.0</ele><time>2026-05-01T08:30:55.999Z</time></trkpt><trkpt lat="43.687980622956175" lon="11.070235492370934"><ele>67.0</ele><time>2026-05-01T08:30:56.999Z</time></trkpt><trkpt lat="43.68781095519721" lon="11.070215849266914"><ele>67.0</ele><time>2026-05-01T08:30:57.999Z</time></trkpt><trkpt lat="43.687641252271426" lon="11.070210854165284"><ele>67.0</ele><time>2026-05-01T08:30:59Z</time></trkpt><trkpt lat="43.68747843603273" lon="11.070248911342443"><ele>67.25</ele><time>2026-05-01T08:31:00Z</time></trkpt><trkpt lat="43.68732738670847" lon="11.070288176983237"><ele>67.5</ele><time>2026-05-01T08:31:01Z</time></trkpt><trkpt lat="43.68717773727089" lon="11.070313348610235"><ele>67.75</ele><time>2026-05-01T08:31:02Z</time></trkpt><trkpt lat="43.68704081461029" lon="11.070355271407088"><ele>68.0</ele><time>2026-05-01T08:31:03Z</time></trkpt><trkpt lat="43.68690724020312" lon="11.070396156265868"><ele>67.5</ele><time>2026-05-01T08:31:04Z</time></trkpt><trkpt lat="43.68677997804941" lon="11.070463822740178"><ele>67.0</ele><time>2026-05-01T08:31:05Z</time></trkpt><trkpt lat="43.68665356018764" lon="11.070501329739553"><ele>66.5</ele><time>2026-05-01T08:31:06Z</time></trkpt><trkpt lat="43.686529334588485" lon="11.070536011475477"><ele>66.0</ele><time>2026-05-01T08:31:07Z</time></trkpt><trkpt lat="43.68640848347246" lon="11.070571258967618"><ele>66.0</ele><time>2026-05-01T08:31:08Z</time></trkpt><trkpt lat="43.68628709049875" lon="11.070608043320268"><ele>66.0</ele><time>2026-05-01T08:31:09Z</time></trkpt><trkpt lat="43.686167850840626" lon="11.070645407437967"><ele>66.0</ele><time>2026-05-01T08:31:10Z</time></trkpt><trkpt lat="43.68604952569125" lon="11.070682847802434"><ele>66.0</ele><time>2026-05-01T08:31:11Z</time></trkpt><trkpt lat="43.68593229905388" lon="11.070719289756475"><ele>66.75</ele><time>2026-05-01T08:31:12Z</time></trkpt><trkpt lat="43.6858155692223" lon="11.070755034134145"><ele>67.5</ele><time>2026-05-01T08:31:13Z</time></trkpt><trkpt lat="43.68569180462515" lon="11.070762796948566"><ele>68.25</ele><time>2026-05-01T08:31:14Z</time></trkpt><trkpt lat="43.68557501186639" lon="11.0707980333012"><ele>69.0</ele><time>2026-05-01T08:31:15Z</time></trkpt><trkpt lat="43.68545610154386" lon="11.070834116419523"><ele>69.25</ele><time>2026-05-01T08:31:16Z</time></trkpt><trkpt lat="43.68533880717174" lon="11.070869580873158"><ele>69.5</ele><time>2026-05-01T08:31:17Z</time></trkpt><trkpt lat="43.68521936206735" lon="11.070905554645392"><ele>69.75</ele><time>2026-05-01T08:31:18Z</time></trkpt><trkpt lat="43.685097685746065" lon="11.070942070375574"><ele>70.0</ele><time>2026-05-01T08:31:19Z</time></trkpt><trkpt lat="43.684975090980366" lon="11.07097883594661"><ele>70.5</ele><time>2026-05-01T08:31:20Z</time></trkpt><trkpt lat="43.684851841254854" lon="11.071040853093658"><ele>71.0</ele><time>2026-05-01T08:31:21Z</time></trkpt><trkpt lat="43.68472114381983" lon="11.071076220149132"><ele>71.5</ele><time>2026-05-01T08:31:22Z</time></trkpt><trkpt lat="43.684587226180625" lon="11.071116782328497"><ele>72.0</ele><time>2026-05-01T08:31:23Z</time></trkpt><trkpt lat="43.68445190897257" lon="11.071158742921599"><ele>71.75</ele><time>2026-05-01T08:31:24Z</time></trkpt><trkpt lat="43.684310424669675" lon="11.071176680011533"><ele>71.5</ele><time>2026-05-01T08:31:25Z</time></trkpt><trkpt lat="43.68417313665626" lon="11.071216970451509"><ele>71.25</ele><time>2026-05-01T08:31:26Z</time></trkpt><trkpt lat="43.684033954817444" lon="11.07125781671025"><ele>71.0</ele><time>2026-05-01T08:31:27Z</time></trkpt><trkpt lat="43.68389500629041" lon="11.071298594483594"><ele>71.0</ele><time>2026-05-01T08:31:28Z</time></trkpt><trkpt lat="43.68375605916896" lon="11.071340522451242"><ele>71.0</ele><time>2026-05-01T08:31:29Z</time></trkpt><trkpt lat="43.683617948130774" lon="11.07138096072954"><ele>71.0</ele><time>2026-05-01T08:31:30Z</time></trkpt><trkpt lat="43.683477542263084" lon="11.071422070932497"><ele>71.0</ele><time>2026-05-01T08:31:31Z</time></trkpt><trkpt lat="43.683339937207776" lon="11.07148144117001"><ele>70.75</ele><time>2026-05-01T08:31:32Z</time></trkpt><trkpt lat="43.68319555603573" lon="11.071522394056261"><ele>70.5</ele><time>2026-05-01T08:31:33Z</time></trkpt><trkpt lat="43.68305135568133" lon="11.071563756157744"><ele>70.25</ele><time>2026-05-01T08:31:34Z</time></trkpt><trkpt lat="43.6829083405886" lon="11.071608890560315"><ele>70.0</ele><time>2026-05-01T08:31:35Z</time></trkpt><trkpt lat="43.682765866077126" lon="11.071649558281589"><ele>70.5</ele><time>2026-05-01T08:31:36Z</time></trkpt><trkpt lat="43.682621232546744" lon="11.071693387523709"><ele>71.0</ele><time>2026-05-01T08:31:37Z</time></trkpt><trkpt lat="43.68247517097424" lon="11.071715560658575"><ele>71.5</ele><time>2026-05-01T08:31:38Z</time></trkpt><trkpt lat="43.68233351452209" lon="11.071757037018834"><ele>72.0</ele><time>2026-05-01T08:31:39Z</time></trkpt><trkpt lat="43.68219645113656" lon="11.071797168713019"><ele>72.0</ele><time>2026-05-01T08:31:40Z</time></trkpt><trkpt lat="43.682059210279235" lon="11.0718372117034"><ele>72.0</ele><time>2026-05-01T08:31:41Z</time></trkpt><trkpt lat="43.68192475101862" lon="11.071876463947488"><ele>72.0</ele><time>2026-05-01T08:31:42Z</time></trkpt><trkpt lat="43.68178883267851" lon="11.0719161421185"><ele>72.0</ele><time>2026-05-01T08:31:43Z</time></trkpt><trkpt lat="43.68165510368174" lon="11.071955181167302"><ele>72.0</ele><time>2026-05-01T08:31:44Z</time></trkpt><trkpt lat="43.68152210742363" lon="11.071994006312218"><ele>72.0</ele><time>2026-05-01T08:31:45Z</time></trkpt><trkpt lat="43.68139108620154" lon="11.072055375813383"><ele>72.0</ele><time>2026-05-01T08:31:46Z</time></trkpt><trkpt lat="43.68124862418802" lon="11.072073843347471"><ele>72.0</ele><time>2026-05-01T08:31:47Z</time></trkpt><trkpt lat="43.6811079217658" lon="11.072114918127593"><ele>72.0</ele><time>2026-05-01T08:31:48Z</time></trkpt><trkpt lat="43.680966697622566" lon="11.072156145210645"><ele>72.0</ele><time>2026-05-01T08:31:49Z</time></trkpt><trkpt lat="43.680827260650645" lon="11.072196850573794"><ele>72.0</ele><time>2026-05-01T08:31:50Z</time></trkpt><trkpt lat="43.68068954847032" lon="11.072259216942008"><ele>72.0</ele><time>2026-05-01T08:31:51Z</time></trkpt><trkpt lat="43.680548458204534" lon="11.072300164513067"><ele>72.0</ele><time>2026-05-01T08:31:52Z</time></trkpt><trkpt lat="43.680407145836334" lon="11.072342931584156"><ele>72.0</ele><time>2026-05-01T08:31:53Z</time></trkpt><trkpt lat="43.68026095089654" lon="11.072362171467667"><ele>72.0</ele><time>2026-05-01T08:31:54Z</time></trkpt><trkpt lat="43.680122657467294" lon="11.072425688965712"><ele>72.0</ele><time>2026-05-01T08:31:55Z</time></trkpt><trkpt lat="43.67997844524817" lon="11.072467850487064"><ele>72.33333333333333</ele><time>2026-05-01T08:31:56Z</time></trkpt><trkpt lat="43.67983025451666" lon="11.072488856011523"><ele>72.66666666666666</ele><time>2026-05-01T08:31:57Z</time></trkpt><trkpt lat="43.67968429243024" lon="11.072532181762307"><ele>73.0</ele><time>2026-05-01T08:31:58Z</time></trkpt><trkpt lat="43.67953953008537" lon="11.072597070309557"><ele>73.33333333333333</ele><time>2026-05-01T08:31:59Z</time></trkpt><trkpt lat="43.679389603903644" lon="11.07264092796234"><ele>73.66666666666667</ele><time>2026-05-01T08:32:00Z</time></trkpt><trkpt lat="43.679241584433335" lon="11.072682299821471"><ele>74.0</ele><time>2026-05-01T08:32:01Z</time></trkpt><trkpt lat="43.679093108514756" lon="11.072728015310128"><ele>74.0</ele><time>2026-05-01T08:32:02Z</time></trkpt><trkpt lat="43.678941744950365" lon="11.072754488808037"><ele>74.0</ele><time>2026-05-01T08:32:03Z</time></trkpt><trkpt lat="43.678793453553524" lon="11.072803778128002"><ele>74.0</ele><time>2026-05-01T08:32:04Z</time></trkpt><trkpt lat="43.67864575303238" lon="11.072855561278606"><ele>75.0</ele><time>2026-05-01T08:32:05Z</time></trkpt><trkpt lat="43.67849804128588" lon="11.072911955229591"><ele>76.0</ele><time>2026-05-01T08:32:06Z</time></trkpt><trkpt lat="43.67835001019448" lon="11.072969051516578"><ele>77.0</ele><time>2026-05-01T08:32:07Z</time></trkpt><trkpt lat="43.678203300677794" lon="11.073028507577675"><ele>77.0</ele><time>2026-05-01T08:32:08Z</time></trkpt><trkpt lat="43.67805949586465" lon="11.073091079608973"><ele>77.0</ele><time>2026-05-01T08:32:09Z</time></trkpt><trkpt lat="43.67791584677689" lon="11.073154032986906"><ele>77.0</ele><time>2026-05-01T08:32:10Z</time></trkpt><trkpt lat="43.677776064677076" lon="11.073240237677208"><ele>77.33333333333334</ele><time>2026-05-01T08:32:11Z</time></trkpt><trkpt lat="43.67763232224814" lon="11.073304434882152"><ele>77.66666666666667</ele><time>2026-05-01T08:32:12Z</time></trkpt><trkpt lat="43.677488485795855" lon="11.073367703721662"><ele>78.0</ele><time>2026-05-01T08:32:13Z</time></trkpt><trkpt lat="43.677346728914934" lon="11.073429332530772"><ele>78.0</ele><time>2026-05-01T08:32:14Z</time></trkpt><trkpt lat="43.67719978205245" lon="11.073465451403978"><ele>78.0</ele><time>2026-05-01T08:32:15Z</time></trkpt><trkpt lat="43.677059199439206" lon="11.073526548369966"><ele>78.0</ele><time>2026-05-01T08:32:16Z</time></trkpt><trkpt lat="43.67692836542511" lon="11.073611074251412"><ele>78.0</ele><time>2026-05-01T08:32:17Z</time></trkpt><trkpt lat="43.6767944524679" lon="11.073666922007117"><ele>78.25</ele><time>2026-05-01T08:32:18Z</time></trkpt><trkpt lat="43.67666191823971" lon="11.073723172735507"><ele>78.5</ele><time>2026-05-01T08:32:19Z</time></trkpt><trkpt lat="43.676531604535974" lon="11.073780561547261"><ele>78.75</ele><time>2026-05-01T08:32:20Z</time></trkpt><trkpt lat="43.676400341632124" lon="11.07383937492073"><ele>79.0</ele><time>2026-05-01T08:32:21Z</time></trkpt><trkpt lat="43.67626642617738" lon="11.073900252519831"><ele>79.0</ele><time>2026-05-01T08:32:22Z</time></trkpt><trkpt lat="43.67612819115201" lon="11.073961533280222"><ele>79.0</ele><time>2026-05-01T08:32:23Z</time></trkpt><trkpt lat="43.67598746374191" lon="11.07401481937507"><ele>79.0</ele><time>2026-05-01T08:32:24Z</time></trkpt><trkpt lat="43.67584016659282" lon="11.07407201172633"><ele>79.0</ele><time>2026-05-01T08:32:25Z</time></trkpt><trkpt lat="43.67569635560791" lon="11.07412175186018"><ele>79.0</ele><time>2026-05-01T08:32:25.999Z</time></trkpt><trkpt lat="43.675547889446534" lon="11.074147596946686"><ele>79.0</ele><time>2026-05-01T08:32:26.999Z</time></trkpt><trkpt lat="43.675402423182994" lon="11.0741896058976"><ele>79.0</ele><time>2026-05-01T08:32:27.999Z</time></trkpt><trkpt lat="43.67525443330556" lon="11.074229108131219"><ele>79.0</ele><time>2026-05-01T08:32:28.999Z</time></trkpt><trkpt lat="43.67510666208134" lon="11.074267951641788"><ele>79.0</ele><time>2026-05-01T08:32:29.999Z</time></trkpt><trkpt lat="43.67495768968753" lon="11.074307110866643"><ele>79.0</ele><time>2026-05-01T08:32:30.999Z</time></trkpt><trkpt lat="43.67480975586172" lon="11.074345998860828"><ele>79.0</ele><time>2026-05-01T08:32:31.999Z</time></trkpt><trkpt lat="43.67466210367642" lon="11.074384811086265"><ele>79.0</ele><time>2026-05-01T08:32:32.999Z</time></trkpt><trkpt lat="43.674520286747935" lon="11.074441488372683"><ele>79.0</ele><time>2026-05-01T08:32:33.999Z</time></trkpt><trkpt lat="43.67437636316518" lon="11.074480428979347"><ele>79.0</ele><time>2026-05-01T08:32:34.999Z</time></trkpt><trkpt lat="43.67422915761332" lon="11.074498615430445"><ele>79.0</ele><time>2026-05-01T08:32:35.999Z</time></trkpt><trkpt lat="43.674084686415135" lon="11.074558122864028"><ele>79.66666666666666</ele><time>2026-05-01T08:32:36.999Z</time></trkpt><trkpt lat="43.67393625108744" lon="11.074595645857787"><ele>80.33333333333333</ele><time>2026-05-01T08:32:37.999Z</time></trkpt><trkpt lat="43.67378907818061" lon="11.07463423460288"><ele>81.0</ele><time>2026-05-01T08:32:38.999Z</time></trkpt><trkpt lat="43.673631650306994" lon="11.074653284518812"><ele>81.33333333333333</ele><time>2026-05-01T08:32:39.999Z</time></trkpt><trkpt lat="43.67347598313676" lon="11.074694161889111"><ele>81.66666666666666</ele><time>2026-05-01T08:32:40.999Z</time></trkpt><trkpt lat="43.67331514489384" lon="11.07473656060927"><ele>82.0</ele><time>2026-05-01T08:32:41.999Z</time></trkpt><trkpt lat="43.673151189499784" lon="11.074779781059615"><ele>82.0</ele><time>2026-05-01T08:32:42.999Z</time></trkpt><trkpt lat="43.67298630907221" lon="11.07482324536056"><ele>82.0</ele><time>2026-05-01T08:32:43.999Z</time></trkpt><trkpt lat="43.67281915300366" lon="11.07486730952596"><ele>82.0</ele><time>2026-05-01T08:32:44.999Z</time></trkpt><trkpt lat="43.67264785498619" lon="11.074911987882215"><ele>82.0</ele><time>2026-05-01T08:32:45.999Z</time></trkpt><trkpt lat="43.67247315941911" lon="11.074955330588171"><ele>82.0</ele><time>2026-05-01T08:32:46.999Z</time></trkpt><trkpt lat="43.67229665839138" lon="11.074999121271249"><ele>82.0</ele><time>2026-05-01T08:32:47.999Z</time></trkpt><trkpt lat="43.672116509080354" lon="11.075046724184045"><ele>81.33333333333333</ele><time>2026-05-01T08:32:48.999Z</time></trkpt><trkpt lat="43.67193665289189" lon="11.075094903733454"><ele>80.66666666666667</ele><time>2026-05-01T08:32:49.999Z</time></trkpt><trkpt lat="43.67175585781924" lon="11.07513799098081"><ele>80.0</ele><time>2026-05-01T08:32:50.999Z</time></trkpt><trkpt lat="43.67157789231844" lon="11.075180403875823"><ele>80.0</ele><time>2026-05-01T08:32:51.999Z</time></trkpt><trkpt lat="43.671403303190345" lon="11.075222012124366"><ele>80.0</ele><time>2026-05-01T08:32:52.999Z</time></trkpt><trkpt lat="43.67123194783798" lon="11.075263477219744"><ele>80.0</ele><time>2026-05-01T08:32:53.999Z</time></trkpt><trkpt lat="43.671061333807536" lon="11.075307750962306"><ele>80.66666666666667</ele><time>2026-05-01T08:32:54.999Z</time></trkpt><trkpt lat="43.67089686389045" lon="11.075351096620654"><ele>81.33333333333333</ele><time>2026-05-01T08:32:55.999Z</time></trkpt><trkpt lat="43.6707335542604" lon="11.075391126314427"><ele>82.0</ele><time>2026-05-01T08:32:56.999Z</time></trkpt><trkpt lat="43.67057154431686" lon="11.07542955017407"><ele>82.0</ele><time>2026-05-01T08:32:57.999Z</time></trkpt><trkpt lat="43.67041058764792" lon="11.0754677242225"><ele>82.0</ele><time>2026-05-01T08:32:58.999Z</time></trkpt><trkpt lat="43.67025235366564" lon="11.075508476456994"><ele>82.0</ele><time>2026-05-01T08:32:59.999Z</time></trkpt><trkpt lat="43.670096601644424" lon="11.07555459614635"><ele>82.33333333333333</ele><time>2026-05-01T08:33:00.999Z</time></trkpt><trkpt lat="43.669945552781435" lon="11.075609081784346"><ele>82.66666666666667</ele><time>2026-05-01T08:33:01.999Z</time></trkpt><trkpt lat="43.66980024019955" lon="11.075676790730038"><ele>83.0</ele><time>2026-05-01T08:33:02.999Z</time></trkpt><trkpt lat="43.6696570318221" lon="11.075759397088108"><ele>83.0</ele><time>2026-05-01T08:33:03.999Z</time></trkpt><trkpt lat="43.669520699575564" lon="11.075855236876611"><ele>83.0</ele><time>2026-05-01T08:33:05Z</time></trkpt><trkpt lat="43.66939182360542" lon="11.075954831659537"><ele>83.0</ele><time>2026-05-01T08:33:06Z</time></trkpt><trkpt lat="43.66926512152814" lon="11.076055956734677"><ele>83.0</ele><time>2026-05-01T08:33:07Z</time></trkpt><trkpt lat="43.66913694291376" lon="11.076159484108175"><ele>83.75</ele><time>2026-05-01T08:33:08Z</time></trkpt><trkpt lat="43.66901074628916" lon="11.076263096759297"><ele>84.5</ele><time>2026-05-01T08:33:09Z</time></trkpt><trkpt lat="43.66888634864084" lon="11.076365232362578"><ele>85.25</ele><time>2026-05-01T08:33:10Z</time></trkpt><trkpt lat="43.66876045641766" lon="11.07646859515516"><ele>86.0</ele><time>2026-05-01T08:33:11Z</time></trkpt><trkpt lat="43.66863281455505" lon="11.076573394334837"><ele>85.66666666666667</ele><time>2026-05-01T08:33:12Z</time></trkpt><trkpt lat="43.6685045457971" lon="11.076678708325217"><ele>85.33333333333333</ele><time>2026-05-01T08:33:13Z</time></trkpt><trkpt lat="43.668372157438604" lon="11.076787404737537"><ele>85.0</ele><time>2026-05-01T08:33:14Z</time></trkpt><trkpt lat="43.66823866703703" lon="11.07689706378386"><ele>85.0</ele><time>2026-05-01T08:33:15Z</time></trkpt><trkpt lat="43.668104707182565" lon="11.077007783556292"><ele>85.0</ele><time>2026-05-01T08:33:16Z</time></trkpt><trkpt lat="43.66797025044025" lon="11.077118913997346"><ele>85.0</ele><time>2026-05-01T08:33:17Z</time></trkpt><trkpt lat="43.667838315671275" lon="11.07722793213083"><ele>85.5</ele><time>2026-05-01T08:33:18Z</time></trkpt><trkpt lat="43.667707507900666" lon="11.077336696118719"><ele>86.0</ele><time>2026-05-01T08:33:19Z</time></trkpt><trkpt lat="43.66757852168449" lon="11.07744720365176"><ele>86.5</ele><time>2026-05-01T08:33:20Z</time></trkpt><trkpt lat="43.66746160670391" lon="11.077555219652218"><ele>87.0</ele><time>2026-05-01T08:33:21Z</time></trkpt><trkpt lat="43.66734822263056" lon="11.077662171046232"><ele>87.25</ele><time>2026-05-01T08:33:22Z</time></trkpt><trkpt lat="43.66724100615068" lon="11.07776578058362"><ele>87.5</ele><time>2026-05-01T08:33:23Z</time></trkpt><trkpt lat="43.66713920821594" lon="11.077866988923956"><ele>87.75</ele><time>2026-05-01T08:33:24Z</time></trkpt><trkpt lat="43.667038812574006" lon="11.07797109530577"><ele>88.0</ele><time>2026-05-01T08:33:25Z</time></trkpt><trkpt lat="43.66693559964038" lon="11.07808172991934"><ele>88.0</ele><time>2026-05-01T08:33:26Z</time></trkpt><trkpt lat="43.66684072228533" lon="11.078215761480385"><ele>88.0</ele><time>2026-05-01T08:33:27Z</time></trkpt><trkpt lat="43.66673358694296" lon="11.07834235258631"><ele>88.0</ele><time>2026-05-01T08:33:28Z</time></trkpt><trkpt lat="43.66663058492397" lon="11.078483895060161"><ele>88.0</ele><time>2026-05-01T08:33:29Z</time></trkpt><trkpt lat="43.66652983112561" lon="11.078644167791161"><ele>88.33333333333333</ele><time>2026-05-01T08:33:30Z</time></trkpt><trkpt lat="43.66643365350228" lon="11.07881003777078"><ele>88.66666666666667</ele><time>2026-05-01T08:33:31Z</time></trkpt><trkpt lat="43.666339429380876" lon="11.078986424314188"><ele>89.0</ele><time>2026-05-01T08:33:32Z</time></trkpt><trkpt lat="43.66625640733366" lon="11.079150076166865"><ele>89.0</ele><time>2026-05-01T08:33:33Z</time></trkpt><trkpt lat="43.66617956938117" lon="11.079301716108624"><ele>89.0</ele><time>2026-05-01T08:33:34Z</time></trkpt><trkpt lat="43.66611062585422" lon="11.079435370288113"><ele>89.0</ele><time>2026-05-01T08:33:35Z</time></trkpt><trkpt lat="43.666044846639366" lon="11.079563898667795"><ele>89.0</ele><time>2026-05-01T08:33:36Z</time></trkpt><trkpt lat="43.665980715617046" lon="11.079684824292325"><ele>89.0</ele><time>2026-05-01T08:33:37Z</time></trkpt><trkpt lat="43.66591813120893" lon="11.079812339846628"><ele>89.0</ele><time>2026-05-01T08:33:38Z</time></trkpt><trkpt lat="43.665852349705936" lon="11.079946757615252"><ele>89.0</ele><time>2026-05-01T08:33:39Z</time></trkpt><trkpt lat="43.665766833440074" lon="11.080075304098322"><ele>89.0</ele><time>2026-05-01T08:33:40Z</time></trkpt><trkpt lat="43.665692304493206" lon="11.080219113627026"><ele>89.75</ele><time>2026-05-01T08:33:41Z</time></trkpt><trkpt lat="43.66562848871256" lon="11.080380891837553"><ele>90.5</ele><time>2026-05-01T08:33:42Z</time></trkpt><trkpt lat="43.66554633729781" lon="11.080501720546003"><ele>91.25</ele><time>2026-05-01T08:33:43Z</time></trkpt><trkpt lat="43.66548254926818" lon="11.080625688989063"><ele>92.0</ele><time>2026-05-01T08:33:44Z</time></trkpt><trkpt lat="43.66542245529202" lon="11.080742478666165"><ele>92.39999999999999</ele><time>2026-05-01T08:33:45Z</time></trkpt><trkpt lat="43.66537596736335" lon="11.0808714472823"><ele>92.8</ele><time>2026-05-01T08:33:46Z</time></trkpt><trkpt lat="43.665303220725576" lon="11.0809742048329"><ele>93.2</ele><time>2026-05-01T08:33:47Z</time></trkpt><trkpt lat="43.66524315816246" lon="11.081090934003882"><ele>93.6</ele><time>2026-05-01T08:33:48Z</time></trkpt><trkpt lat="43.6651802682191" lon="11.081213157795304"><ele>94.0</ele><time>2026-05-01T08:33:49Z</time></trkpt><trkpt lat="43.665116060388996" lon="11.081337942635662"><ele>94.0</ele><time>2026-05-01T08:33:50Z</time></trkpt><trkpt lat="43.665051685002226" lon="11.081462001536726"><ele>94.0</ele><time>2026-05-01T08:33:51Z</time></trkpt><trkpt lat="43.664998656128475" lon="11.081602333260946"><ele>94.0</ele><time>2026-05-01T08:33:52Z</time></trkpt><trkpt lat="43.66491776398475" lon="11.081719649836332"><ele>94.0</ele><time>2026-05-01T08:33:53Z</time></trkpt><trkpt lat="43.66486173749321" lon="11.08186033582516"><ele>94.80000000000001</ele><time>2026-05-01T08:33:54Z</time></trkpt><trkpt lat="43.66479299672264" lon="11.081991031459987"><ele>95.60000000000001</ele><time>2026-05-01T08:33:55Z</time></trkpt><trkpt lat="43.66472760337435" lon="11.08211329700866"><ele>96.4</ele><time>2026-05-01T08:33:56Z</time></trkpt><trkpt lat="43.66466759566449" lon="11.082231729329544"><ele>97.2</ele><time>2026-05-01T08:33:57Z</time></trkpt><trkpt lat="43.66460787219828" lon="11.082339976784516"><ele>98.0</ele><time>2026-05-01T08:33:58Z</time></trkpt><trkpt lat="43.664545744704306" lon="11.082450046237522"><ele>97.5</ele><time>2026-05-01T08:33:59Z</time></trkpt><trkpt lat="43.664473787781105" lon="11.082552331562338"><ele>97.0</ele><time>2026-05-01T08:34:00Z</time></trkpt><trkpt lat="43.664392755405714" lon="11.08265355889255"><ele>96.5</ele><time>2026-05-01T08:34:01Z</time></trkpt><trkpt lat="43.66430296011854" lon="11.08275723573499"><ele>96.0</ele><time>2026-05-01T08:34:02Z</time></trkpt><trkpt lat="43.66420190087439" lon="11.08286143415433"><ele>96.0</ele><time>2026-05-01T08:34:03Z</time></trkpt><trkpt lat="43.66409053444579" lon="11.082961813222244"><ele>96.0</ele><time>2026-05-01T08:34:04Z</time></trkpt><trkpt lat="43.663970267166654" lon="11.083052105324722"><ele>96.0</ele><time>2026-05-01T08:34:05Z</time></trkpt><trkpt lat="43.66382982388011" lon="11.0831144622784"><ele>96.0</ele><time>2026-05-01T08:34:06Z</time></trkpt><trkpt lat="43.66369489693037" lon="11.083195129375039"><ele>95.66666666666667</ele><time>2026-05-01T08:34:07Z</time></trkpt><trkpt lat="43.663554761018105" lon="11.083278910673721"><ele>95.33333333333334</ele><time>2026-05-01T08:34:08Z</time></trkpt><trkpt lat="43.66341148397467" lon="11.083365845567814"><ele>95.0</ele><time>2026-05-01T08:34:09Z</time></trkpt><trkpt lat="43.6632720085527" lon="11.083450687585321"><ele>95.0</ele><time>2026-05-01T08:34:10Z</time></trkpt><trkpt lat="43.663132857999045" lon="11.083535331979304"><ele>95.0</ele><time>2026-05-01T08:34:11Z</time></trkpt><trkpt lat="43.663002198507314" lon="11.08361481128721"><ele>95.0</ele><time>2026-05-01T08:34:12Z</time></trkpt><trkpt lat="43.66288177565579" lon="11.083688063761498"><ele>95.0</ele><time>2026-05-01T08:34:13Z</time></trkpt><trkpt lat="43.66276810421281" lon="11.083757463612576"><ele>95.4</ele><time>2026-05-01T08:34:14Z</time></trkpt><trkpt lat="43.66265985491393" lon="11.083822818684263"><ele>95.8</ele><time>2026-05-01T08:34:15Z</time></trkpt><trkpt lat="43.662557944771486" lon="11.083873500735523"><ele>96.19999999999999</ele><time>2026-05-01T08:34:16Z</time></trkpt><trkpt lat="43.662460348723094" lon="11.083916847400452"><ele>96.6</ele><time>2026-05-01T08:34:17Z</time></trkpt><trkpt lat="43.66235461882721" lon="11.083957878633317"><ele>97.0</ele><time>2026-05-01T08:34:18Z</time></trkpt><trkpt lat="43.662249000550645" lon="11.084010104516011"><ele>97.0</ele><time>2026-05-01T08:34:19Z</time></trkpt><trkpt lat="43.662134363624894" lon="11.084027750836427"><ele>97.0</ele><time>2026-05-01T08:34:20Z</time></trkpt><trkpt lat="43.662018591210625" lon="11.084036607032477"><ele>97.0</ele><time>2026-05-01T08:34:21Z</time></trkpt><trkpt lat="43.66190379752095" lon="11.084013887870167"><ele>97.0</ele><time>2026-05-01T08:34:22Z</time></trkpt><trkpt lat="43.66179193450342" lon="11.084003257228192"><ele>96.8</ele><time>2026-05-01T08:34:23Z</time></trkpt><trkpt lat="43.661687644562264" lon="11.084006191082388"><ele>96.6</ele><time>2026-05-01T08:34:24Z</time></trkpt><trkpt lat="43.66159379513913" lon="11.083982909489718"><ele>96.39999999999999</ele><time>2026-05-01T08:34:25Z</time></trkpt><trkpt lat="43.66150322665016" lon="11.083961665531545"><ele>96.19999999999999</ele><time>2026-05-01T08:34:26Z</time></trkpt><trkpt lat="43.66141633153084" lon="11.083965952104892"><ele>96.0</ele><time>2026-05-01T08:34:27Z</time></trkpt><trkpt lat="43.6613416836814" lon="11.083991337857057"><ele>96.0</ele><time>2026-05-01T08:34:28Z</time></trkpt><trkpt lat="43.6612652813022" lon="11.084033437443319"><ele>96.0</ele><time>2026-05-01T08:34:29Z</time></trkpt><trkpt lat="43.66119564780156" lon="11.084091235473105"><ele>96.0</ele><time>2026-05-01T08:34:30Z</time></trkpt><trkpt lat="43.6611391170585" lon="11.084149187662076"><ele>96.0</ele><time>2026-05-01T08:34:31Z</time></trkpt><trkpt lat="43.66108672059723" lon="11.084222684659938"><ele>96.0</ele><time>2026-05-01T08:34:33Z</time></trkpt><trkpt lat="43.66104339519834" lon="11.084294760346985"><ele>96.0</ele><time>2026-05-01T08:34:35Z</time></trkpt><trkpt lat="43.660976772498756" lon="11.084388110081768"><ele>96.19999999999999</ele><time>2026-05-01T08:34:37Z</time></trkpt><trkpt lat="43.66091304547565" lon="11.084429597436893"><ele>96.39999999999999</ele><time>2026-05-01T08:34:37.999Z</time></trkpt><trkpt lat="43.66085265271759" lon="11.084479411765859"><ele>96.6</ele><time>2026-05-01T08:34:38.999Z</time></trkpt><trkpt lat="43.660752798925536" lon="11.084364929816413"><ele>96.8</ele><time>2026-05-01T08:34:39.999Z</time></trkpt><trkpt lat="43.66066410021638" lon="11.084321315575838"><ele>97.0</ele><time>2026-05-01T08:34:40.999Z</time></trkpt><trkpt lat="43.66055967908866" lon="11.084334030271242"><ele>97.0</ele><time>2026-05-01T08:34:41.999Z</time></trkpt><trkpt lat="43.660453629205826" lon="11.08431791785926"><ele>97.0</ele><time>2026-05-01T08:34:42.999Z</time></trkpt><trkpt lat="43.660350896611945" lon="11.084319530887896"><ele>97.0</ele><time>2026-05-01T08:34:43.999Z</time></trkpt><trkpt lat="43.66025504211187" lon="11.084304541369558"><ele>97.0</ele><time>2026-05-01T08:34:44.999Z</time></trkpt><trkpt lat="43.66015919476412" lon="11.084287649414952"><ele>97.0</ele><time>2026-05-01T08:34:45.999Z</time></trkpt><trkpt lat="43.660057857268335" lon="11.084269701401432"><ele>97.39999999999999</ele><time>2026-05-01T08:34:46.999Z</time></trkpt><trkpt lat="43.659951360501886" lon="11.084250649521886"><ele>97.8</ele><time>2026-05-01T08:34:47.999Z</time></trkpt><trkpt lat="43.65984325106119" lon="11.08423060131231"><ele>98.2</ele><time>2026-05-01T08:34:48.999Z</time></trkpt><trkpt lat="43.65973334429096" lon="11.084208957180458"><ele>98.6</ele><time>2026-05-01T08:34:49.999Z</time></trkpt><trkpt lat="43.659620737920264" lon="11.084175568601136"><ele>99.0</ele><time>2026-05-01T08:34:50.999Z</time></trkpt><trkpt lat="43.65950731554767" lon="11.08414148899189"><ele>99.25</ele><time>2026-05-01T08:34:51.999Z</time></trkpt><trkpt lat="43.65939287501231" lon="11.084110281163138"><ele>99.5</ele><time>2026-05-01T08:34:52.999Z</time></trkpt><trkpt lat="43.65927709757679" lon="11.08407905216373"><ele>99.75</ele><time>2026-05-01T08:34:53.999Z</time></trkpt><trkpt lat="43.659157659811996" lon="11.08404683577369"><ele>100.0</ele><time>2026-05-01T08:34:54.999Z</time></trkpt><trkpt lat="43.659031845729366" lon="11.084013587178625"><ele>100.0</ele><time>2026-05-01T08:34:55.999Z</time></trkpt><trkpt lat="43.658905377664276" lon="11.08398078499138"><ele>100.0</ele><time>2026-05-01T08:34:56.999Z</time></trkpt><trkpt lat="43.65877586215666" lon="11.083946374660904"><ele>100.0</ele><time>2026-05-01T08:34:57.999Z</time></trkpt><trkpt lat="43.65864403865056" lon="11.083915044303877"><ele>100.0</ele><time>2026-05-01T08:34:58.999Z</time></trkpt><trkpt lat="43.65851250167938" lon="11.083885701987562"><ele>100.5</ele><time>2026-05-01T08:34:59.999Z</time></trkpt><trkpt lat="43.65838138783917" lon="11.083859046843726"><ele>101.0</ele><time>2026-05-01T08:35:00.999Z</time></trkpt><trkpt lat="43.65824854430159" lon="11.083834888518197"><ele>101.5</ele><time>2026-05-01T08:35:01.999Z</time></trkpt><trkpt lat="43.65811768721639" lon="11.083812347561306"><ele>102.0</ele><time>2026-05-01T08:35:02.999Z</time></trkpt><trkpt lat="43.65798773603448" lon="11.083789962655265"><ele>102.0</ele><time>2026-05-01T08:35:03.999Z</time></trkpt><trkpt lat="43.6578605071547" lon="11.083768046683216"><ele>102.0</ele><time>2026-05-01T08:35:04.999Z</time></trkpt><trkpt lat="43.657730800905995" lon="11.08374570395227"><ele>102.0</ele><time>2026-05-01T08:35:05.999Z</time></trkpt><trkpt lat="43.6576006756343" lon="11.083723723669314"><ele>102.0</ele><time>2026-05-01T08:35:06.999Z</time></trkpt><trkpt lat="43.65746643355031" lon="11.083705548493523"><ele>102.5</ele><time>2026-05-01T08:35:07.999Z</time></trkpt><trkpt lat="43.6573271622049" lon="11.08370479672663"><ele>103.0</ele><time>2026-05-01T08:35:08.999Z</time></trkpt><trkpt lat="43.6571889664159" lon="11.083722493877776"><ele>103.5</ele><time>2026-05-01T08:35:09.999Z</time></trkpt><trkpt lat="43.657057531617845" lon="11.083784138910751"><ele>104.0</ele><time>2026-05-01T08:35:11.001Z</time></trkpt><trkpt lat="43.65691796698449" lon="11.083832931922146"><ele>104.5</ele><time>2026-05-01T08:35:12.001Z</time></trkpt><trkpt lat="43.656783838265845" lon="11.083894226364468"><ele>105.0</ele><time>2026-05-01T08:35:13.001Z</time></trkpt><trkpt lat="43.65664590539053" lon="11.083966036398754"><ele>105.5</ele><time>2026-05-01T08:35:14.001Z</time></trkpt><trkpt lat="43.65651120512747" lon="11.08402096100398"><ele>106.0</ele><time>2026-05-01T08:35:15.001Z</time></trkpt><trkpt lat="43.65638087429202" lon="11.084094961554355"><ele>105.75</ele><time>2026-05-01T08:35:16.001Z</time></trkpt><trkpt lat="43.65625517951705" lon="11.084170258958006"><ele>105.5</ele><time>2026-05-01T08:35:17.001Z</time></trkpt><trkpt lat="43.656137349470455" lon="11.084270626935165"><ele>105.25</ele><time>2026-05-01T08:35:18.001Z</time></trkpt><trkpt lat="43.65602212793583" lon="11.084355762163844"><ele>105.0</ele><time>2026-05-01T08:35:19.001Z</time></trkpt><trkpt lat="43.655922716820015" lon="11.084469440968059"><ele>106.0</ele><time>2026-05-01T08:35:20.001Z</time></trkpt><trkpt lat="43.65583595078248" lon="11.084597441164144"><ele>107.0</ele><time>2026-05-01T08:35:21.001Z</time></trkpt><trkpt lat="43.65575899972576" lon="11.084742113374562"><ele>108.0</ele><time>2026-05-01T08:35:22.001Z</time></trkpt><trkpt lat="43.65568508962354" lon="11.084905738680956"><ele>109.0</ele><time>2026-05-01T08:35:23.001Z</time></trkpt><trkpt lat="43.6556241212896" lon="11.085070267815686"><ele>109.0</ele><time>2026-05-01T08:35:24.001Z</time></trkpt><trkpt lat="43.655564023732914" lon="11.085231526652095"><ele>109.0</ele><time>2026-05-01T08:35:25.001Z</time></trkpt><trkpt lat="43.65548544247376" lon="11.085360088149063"><ele>109.0</ele><time>2026-05-01T08:35:26.001Z</time></trkpt><trkpt lat="43.65541127168754" lon="11.085485193491118"><ele>109.0</ele><time>2026-05-01T08:35:27Z</time></trkpt><trkpt lat="43.65532769892605" lon="11.08560468189828"><ele>111.5</ele><time>2026-05-01T08:35:28Z</time></trkpt><trkpt lat="43.65523875538566" lon="11.085720612914626"><ele>114.0</ele><time>2026-05-01T08:35:29Z</time></trkpt><trkpt lat="43.65514483276713" lon="11.085830161702681"><ele>116.5</ele><time>2026-05-01T08:35:30Z</time></trkpt><trkpt lat="43.65504807221168" lon="11.085935417206963"><ele>119.0</ele><time>2026-05-01T08:35:31Z</time></trkpt><trkpt lat="43.6549589533218" lon="11.086056445294215"><ele>119.0</ele><time>2026-05-01T08:35:32Z</time></trkpt><trkpt lat="43.65485808336098" lon="11.086159237093606"><ele>119.0</ele><time>2026-05-01T08:35:33Z</time></trkpt><trkpt lat="43.654742667573856" lon="11.08623787068731"><ele>119.0</ele><time>2026-05-01T08:35:34Z</time></trkpt><trkpt lat="43.65463377385697" lon="11.086328215745457"><ele>119.0</ele><time>2026-05-01T08:35:35Z</time></trkpt><trkpt lat="43.654524624682416" lon="11.086412802824496"><ele>120.5</ele><time>2026-05-01T08:35:36Z</time></trkpt><trkpt lat="43.65441602197688" lon="11.086493774414537"><ele>122.0</ele><time>2026-05-01T08:35:37Z</time></trkpt><trkpt lat="43.65430771079181" lon="11.086573276290224"><ele>123.5</ele><time>2026-05-01T08:35:38Z</time></trkpt><trkpt lat="43.65420192957715" lon="11.086650582267323"><ele>125.0</ele><time>2026-05-01T08:35:39Z</time></trkpt><trkpt lat="43.654094007363355" lon="11.086728768750305"><ele>125.0</ele><time>2026-05-01T08:35:40Z</time></trkpt><trkpt lat="43.65398907524734" lon="11.086804789042136"><ele>125.0</ele><time>2026-05-01T08:35:41Z</time></trkpt><trkpt lat="43.65388090786545" lon="11.086883153050273"><ele>125.0</ele><time>2026-05-01T08:35:42Z</time></trkpt><trkpt lat="43.653778264062176" lon="11.086957515412612"><ele>125.0</ele><time>2026-05-01T08:35:43Z</time></trkpt><trkpt lat="43.653667893632885" lon="11.087037475796599"><ele>127.75</ele><time>2026-05-01T08:35:44Z</time></trkpt><trkpt lat="43.65355967073621" lon="11.087116422665906"><ele>130.5</ele><time>2026-05-01T08:35:45Z</time></trkpt><trkpt lat="43.65344920093045" lon="11.08719801508306"><ele>133.25</ele><time>2026-05-01T08:35:46Z</time></trkpt><trkpt lat="43.6533371129616" lon="11.087280802604367"><ele>136.0</ele><time>2026-05-01T08:35:47Z</time></trkpt><trkpt lat="43.65322259258661" lon="11.087365386910802"><ele>136.5</ele><time>2026-05-01T08:35:48Z</time></trkpt><trkpt lat="43.65311634803062" lon="11.087469873684016"><ele>137.0</ele><time>2026-05-01T08:35:49Z</time></trkpt><trkpt lat="43.653006052474936" lon="11.087549100098288"><ele>137.5</ele><time>2026-05-01T08:35:50Z</time></trkpt><trkpt lat="43.65289435991081" lon="11.087609626216786"><ele>138.0</ele><time>2026-05-01T08:35:51Z</time></trkpt><trkpt lat="43.652787573516626" lon="11.08769402352054"><ele>138.0</ele><time>2026-05-01T08:35:52Z</time></trkpt><trkpt lat="43.65267619651817" lon="11.087766330266122"><ele>138.0</ele><time>2026-05-01T08:35:53Z</time></trkpt><trkpt lat="43.65256590768279" lon="11.087830057539133"><ele>138.0</ele><time>2026-05-01T08:35:54Z</time></trkpt><trkpt lat="43.652469854146894" lon="11.087878921258667"><ele>138.0</ele><time>2026-05-01T08:35:55Z</time></trkpt><trkpt lat="43.652378160850446" lon="11.087921364412967"><ele>138.0</ele><time>2026-05-01T08:35:56Z</time></trkpt><trkpt lat="43.6523029364795" lon="11.087951819790087"><ele>138.0</ele><time>2026-05-01T08:35:57Z</time></trkpt><trkpt lat="43.6522249435172" lon="11.087977269178985"><ele>138.0</ele><time>2026-05-01T08:35:58Z</time></trkpt><trkpt lat="43.65213992991401" lon="11.087998202200783"><ele>138.0</ele><time>2026-05-01T08:35:59Z</time></trkpt><trkpt lat="43.6520575280268" lon="11.087998564512871"><ele>138.0</ele><time>2026-05-01T08:36:00Z</time></trkpt><trkpt lat="43.65197554219236" lon="11.087978937662117"><ele>138.0</ele><time>2026-05-01T08:36:01Z</time></trkpt><trkpt lat="43.65191100487487" lon="11.087923385548354"><ele>138.0</ele><time>2026-05-01T08:36:02Z</time></trkpt><trkpt lat="43.651854922143634" lon="11.087847590137988"><ele>138.0</ele><time>2026-05-01T08:36:03Z</time></trkpt><trkpt lat="43.65182541008121" lon="11.087762602531637"><ele>138.0</ele><time>2026-05-01T08:36:04Z</time></trkpt><trkpt lat="43.651836596686586" lon="11.08766230666881"><ele>138.0</ele><time>2026-05-01T08:36:05Z</time></trkpt><trkpt lat="43.651874529362345" lon="11.087568360616853"><ele>138.0</ele><time>2026-05-01T08:36:06Z</time></trkpt><trkpt lat="43.65192550678555" lon="11.087496085510239"><ele>138.0</ele><time>2026-05-01T08:36:07Z</time></trkpt><trkpt lat="43.65198530507999" lon="11.087435599824346"><ele>138.0</ele><time>2026-05-01T08:36:08Z</time></trkpt><trkpt lat="43.652043694602376" lon="11.087386396056798"><ele>138.0</ele><time>2026-05-01T08:36:09Z</time></trkpt><trkpt lat="43.65211027921981" lon="11.087347017160003"><ele>139.66666666666666</ele><time>2026-05-01T08:36:10Z</time></trkpt><trkpt lat="43.65217985368603" lon="11.087314247092017"><ele>141.33333333333334</ele><time>2026-05-01T08:36:11Z</time></trkpt><trkpt lat="43.65224630893654" lon="11.08727521146117"><ele>143.0</ele><time>2026-05-01T08:36:12Z</time></trkpt><trkpt lat="43.65231539675766" lon="11.087220377949574"><ele>144.66666666666669</ele><time>2026-05-01T08:36:13Z</time></trkpt><trkpt lat="43.65237966472879" lon="11.087144206070748"><ele>146.33333333333334</ele><time>2026-05-01T08:36:14Z</time></trkpt><trkpt lat="43.65243116881618" lon="11.087051552432676"><ele>148.0</ele><time>2026-05-01T08:36:15Z</time></trkpt><trkpt lat="43.652467606724635" lon="11.086938093095204"><ele>148.0</ele><time>2026-05-01T08:36:16Z</time></trkpt><trkpt lat="43.65249205447594" lon="11.086797888236031"><ele>148.0</ele><time>2026-05-01T08:36:17Z</time></trkpt><trkpt lat="43.652502774942256" lon="11.086664824225315"><ele>148.0</ele><time>2026-05-01T08:36:18Z</time></trkpt><trkpt lat="43.65250917758368" lon="11.086522869522524"><ele>148.0</ele><time>2026-05-01T08:36:19Z</time></trkpt><trkpt lat="43.652519630846065" lon="11.086386926154152"><ele>148.0</ele><time>2026-05-01T08:36:20Z</time></trkpt><trkpt lat="43.65253455141256" lon="11.086256717968519"><ele>148.16666666666669</ele><time>2026-05-01T08:36:21Z</time></trkpt><trkpt lat="43.65255352574023" lon="11.08614177497513"><ele>148.33333333333334</ele><time>2026-05-01T08:36:22Z</time></trkpt><trkpt lat="43.65258716518332" lon="11.08605655349482"><ele>148.5</ele><time>2026-05-01T08:36:23Z</time></trkpt><trkpt lat="43.65267610885396" lon="11.085959098370257"><ele>148.66666666666666</ele><time>2026-05-01T08:36:25Z</time></trkpt><trkpt lat="43.65272993342756" lon="11.085913613130375"><ele>148.83333333333331</ele><time>2026-05-01T08:36:26Z</time></trkpt><trkpt lat="43.6527988423163" lon="11.085865864959475"><ele>149.0</ele><time>2026-05-01T08:36:27Z</time></trkpt><trkpt lat="43.65287568631375" lon="11.085815638670487"><ele>150.0</ele><time>2026-05-01T08:36:28Z</time></trkpt><trkpt lat="43.6529609221734" lon="11.085754975051781"><ele>151.0</ele><time>2026-05-01T08:36:29Z</time></trkpt><trkpt lat="43.65305419682628" lon="11.085691052480186"><ele>152.0</ele><time>2026-05-01T08:36:30Z</time></trkpt><trkpt lat="43.653149828176296" lon="11.085624565602622"><ele>153.0</ele><time>2026-05-01T08:36:31Z</time></trkpt><trkpt lat="43.65323869290559" lon="11.085560831800224"><ele>154.0</ele><time>2026-05-01T08:36:32Z</time></trkpt><trkpt lat="43.65332476827765" lon="11.085492099837303"><ele>154.0</ele><time>2026-05-01T08:36:33Z</time></trkpt><trkpt lat="43.653392760489396" lon="11.085395726444112"><ele>154.0</ele><time>2026-05-01T08:36:34Z</time></trkpt><trkpt lat="43.65343865210853" lon="11.085276871539223"><ele>154.0</ele><time>2026-05-01T08:36:35Z</time></trkpt><trkpt lat="43.653450388940904" lon="11.085141271542417"><ele>154.0</ele><time>2026-05-01T08:36:36Z</time></trkpt><trkpt lat="43.65343490640887" lon="11.085010029330519"><ele>154.0</ele><time>2026-05-01T08:36:37Z</time></trkpt><trkpt lat="43.65340065581666" lon="11.084892042707779"><ele>153.2</ele><time>2026-05-01T08:36:38Z</time></trkpt><trkpt lat="43.653350988550265" lon="11.084779024296653"><ele>152.4</ele><time>2026-05-01T08:36:39Z</time></trkpt><trkpt lat="43.65329232342478" lon="11.084682511239079"><ele>151.6</ele><time>2026-05-01T08:36:40Z</time></trkpt><trkpt lat="43.65321210574223" lon="11.084607660593647"><ele>150.8</ele><time>2026-05-01T08:36:41Z</time></trkpt><trkpt lat="43.65312209014588" lon="11.084562269673127"><ele>150.0</ele><time>2026-05-01T08:36:42Z</time></trkpt><trkpt lat="43.653018209769385" lon="11.08455158584637"><ele>150.0</ele><time>2026-05-01T08:36:42.999Z</time></trkpt><trkpt lat="43.6529128719869" lon="11.084576563182662"><ele>150.0</ele><time>2026-05-01T08:36:43.999Z</time></trkpt><trkpt lat="43.652807215477594" lon="11.084628261946822"><ele>150.0</ele><time>2026-05-01T08:36:44.999Z</time></trkpt><trkpt lat="43.65270036130622" lon="11.084661639251161"><ele>150.0</ele><time>2026-05-01T08:36:45.999Z</time></trkpt><trkpt lat="43.65259243661991" lon="11.084713199042342"><ele>150.0</ele><time>2026-05-01T08:36:46.999Z</time></trkpt><trkpt lat="43.65248594735455" lon="11.084765005513637"><ele>151.6</ele><time>2026-05-01T08:36:47.999Z</time></trkpt><trkpt lat="43.652387374541554" lon="11.084812853346877"><ele>153.2</ele><time>2026-05-01T08:36:48.999Z</time></trkpt><trkpt lat="43.65229191740563" lon="11.084859188730151"><ele>154.8</ele><time>2026-05-01T08:36:49.999Z</time></trkpt><trkpt lat="43.652200672768" lon="11.084906226348245"><ele>156.4</ele><time>2026-05-01T08:36:50.999Z</time></trkpt><trkpt lat="43.65211376459013" lon="11.084952621846767"><ele>158.0</ele><time>2026-05-01T08:36:51.999Z</time></trkpt><trkpt lat="43.65203226415312" lon="11.085007438631898"><ele>160.16666666666666</ele><time>2026-05-01T08:36:52.999Z</time></trkpt><trkpt lat="43.65195468280308" lon="11.085077584709873"><ele>162.33333333333331</ele><time>2026-05-01T08:36:53.999Z</time></trkpt><trkpt lat="43.651890569909924" lon="11.08517766714705"><ele>164.5</ele><time>2026-05-01T08:36:54.999Z</time></trkpt><trkpt lat="43.65182566204463" lon="11.085262811258184"><ele>166.66666666666666</ele><time>2026-05-01T08:36:55.999Z</time></trkpt><trkpt lat="43.65177081637882" lon="11.085342020199676"><ele>168.83333333333334</ele><time>2026-05-01T08:36:56.999Z</time></trkpt><trkpt lat="43.65171621839574" lon="11.085421736046548"><ele>171.0</ele><time>2026-05-01T08:36:57.999Z</time></trkpt><trkpt lat="43.65166108105126" lon="11.085498578152292"><ele>171.0</ele><time>2026-05-01T08:36:58.999Z</time></trkpt><trkpt lat="43.65160660505835" lon="11.085572728936999"><ele>171.0</ele><time>2026-05-01T08:36:59.999Z</time></trkpt><trkpt lat="43.65151573915859" lon="11.085671515751004"><ele>171.0</ele><time>2026-05-01T08:37:01.999Z</time></trkpt><trkpt lat="43.65143138619881" lon="11.085688611598494"><ele>171.0</ele><time>2026-05-01T08:37:03.999Z</time></trkpt><trkpt lat="43.65135093599643" lon="11.085611346281516"><ele>171.0</ele><time>2026-05-01T08:37:05.999Z</time></trkpt><trkpt lat="43.65132780308824" lon="11.085523608845579"><ele>171.0</ele><time>2026-05-01T08:37:06.999Z</time></trkpt><trkpt lat="43.65133169353012" lon="11.085427259377939"><ele>171.0</ele><time>2026-05-01T08:37:07.999Z</time></trkpt><trkpt lat="43.651349758299325" lon="11.085318725210103"><ele>171.0</ele><time>2026-05-01T08:37:08.999Z</time></trkpt><trkpt lat="43.65136653696601" lon="11.08520345504116"><ele>171.0</ele><time>2026-05-01T08:37:09.999Z</time></trkpt><trkpt lat="43.65136297977324" lon="11.085091446125787"><ele>171.0</ele><time>2026-05-01T08:37:10.999Z</time></trkpt><trkpt lat="43.651337198220425" lon="11.084982059223258"><ele>171.0</ele><time>2026-05-01T08:37:11.999Z</time></trkpt><trkpt lat="43.65128934488932" lon="11.084896893548272"><ele>171.0</ele><time>2026-05-01T08:37:12.999Z</time></trkpt><trkpt lat="43.651230317237676" lon="11.0848247125465"><ele>170.60000000000002</ele><time>2026-05-01T08:37:13.999Z</time></trkpt><trkpt lat="43.65115077135702" lon="11.084776966391953"><ele>170.2</ele><time>2026-05-01T08:37:14.999Z</time></trkpt><trkpt lat="43.6510584349164" lon="11.084747831931605"><ele>169.8</ele><time>2026-05-01T08:37:15.999Z</time></trkpt><trkpt lat="43.65095221180361" lon="11.084702929511147"><ele>169.39999999999998</ele><time>2026-05-01T08:37:17.001Z</time></trkpt><trkpt lat="43.65083325073993" lon="11.08468767624353"><ele>169.0</ele><time>2026-05-01T08:37:18.001Z</time></trkpt><trkpt lat="43.65070556522877" lon="11.084681966430134"><ele>172.0</ele><time>2026-05-01T08:37:19.001Z</time></trkpt><trkpt lat="43.65057877513532" lon="11.084677055735574"><ele>175.0</ele><time>2026-05-01T08:37:20.001Z</time></trkpt><trkpt lat="43.65044792138488" lon="11.084675369325735"><ele>178.0</ele><time>2026-05-01T08:37:21.001Z</time></trkpt><trkpt lat="43.65032669429555" lon="11.08467746422576"><ele>181.0</ele><time>2026-05-01T08:37:22.001Z</time></trkpt><trkpt lat="43.65022197735367" lon="11.08467927381254"><ele>182.60000000000002</ele><time>2026-05-01T08:37:23Z</time></trkpt><trkpt lat="43.65012663788623" lon="11.084681806483577"><ele>184.2</ele><time>2026-05-01T08:37:24Z</time></trkpt><trkpt lat="43.65002919539773" lon="11.084688187912871"><ele>185.8</ele><time>2026-05-01T08:37:25Z</time></trkpt><trkpt lat="43.6499233910217" lon="11.084712565838638"><ele>187.39999999999998</ele><time>2026-05-01T08:37:26Z</time></trkpt><trkpt lat="43.64982324708772" lon="11.084743497297701"><ele>189.0</ele><time>2026-05-01T08:37:27Z</time></trkpt><trkpt lat="43.649719609311354" lon="11.084784025852743"><ele>189.0</ele><time>2026-05-01T08:37:27.999Z</time></trkpt><trkpt lat="43.64962454251204" lon="11.0848227460536"><ele>189.0</ele><time>2026-05-01T08:37:28.999Z</time></trkpt><trkpt lat="43.64953777088189" lon="11.084884412153874"><ele>189.0</ele><time>2026-05-01T08:37:29.999Z</time></trkpt><trkpt lat="43.64945462882285" lon="11.084952965084621"><ele>189.0</ele><time>2026-05-01T08:37:30.999Z</time></trkpt><trkpt lat="43.64938616525225" lon="11.08504432664467"><ele>189.0</ele><time>2026-05-01T08:37:31.999Z</time></trkpt><trkpt lat="43.64933918645275" lon="11.085169954579277"><ele>191.6</ele><time>2026-05-01T08:37:32.999Z</time></trkpt><trkpt lat="43.64930617914395" lon="11.085295529077179"><ele>194.2</ele><time>2026-05-01T08:37:33.999Z</time></trkpt><trkpt lat="43.64927893523479" lon="11.085429332664361"><ele>196.79999999999998</ele><time>2026-05-01T08:37:34.999Z</time></trkpt><trkpt lat="43.64923002232105" lon="11.085542893058403"><ele>199.39999999999998</ele><time>2026-05-01T08:37:35.999Z</time></trkpt><trkpt lat="43.64919510093701" lon="11.085643276782452"><ele>202.0</ele><time>2026-05-01T08:37:36.999Z</time></trkpt><trkpt lat="43.64914696191898" lon="11.085733660491856"><ele>202.0</ele><time>2026-05-01T08:37:37.999Z</time></trkpt><trkpt lat="43.64909234950227" lon="11.08582536007173"><ele>202.0</ele><time>2026-05-01T08:37:38.999Z</time></trkpt><trkpt lat="43.648988493433144" lon="11.085831486938993"><ele>202.0</ele><time>2026-05-01T08:37:39.999Z</time></trkpt><trkpt lat="43.64888859073722" lon="11.085856516078556"><ele>202.0</ele><time>2026-05-01T08:37:40.999Z</time></trkpt><trkpt lat="43.648780464570756" lon="11.085817844951615"><ele>202.0</ele><time>2026-05-01T08:37:41.999Z</time></trkpt><trkpt lat="43.64868050628333" lon="11.08575622326016"><ele>202.2</ele><time>2026-05-01T08:37:42.999Z</time></trkpt><trkpt lat="43.64859687751795" lon="11.085673810479244"><ele>202.39999999999998</ele><time>2026-05-01T08:37:43.999Z</time></trkpt><trkpt lat="43.64853524433756" lon="11.085563606098308"><ele>202.60000000000002</ele><time>2026-05-01T08:37:44.999Z</time></trkpt><trkpt lat="43.648472588160935" lon="11.085458722464324"><ele>202.8</ele><time>2026-05-01T08:37:45.999Z</time></trkpt><trkpt lat="43.64840997491895" lon="11.085347648516427"><ele>203.0</ele><time>2026-05-01T08:37:46.999Z</time></trkpt><trkpt lat="43.64837222032946" lon="11.085215906280705"><ele>203.0</ele><time>2026-05-01T08:37:47.999Z</time></trkpt><trkpt lat="43.648331299810295" lon="11.085079904617427"><ele>203.0</ele><time>2026-05-01T08:37:48.999Z</time></trkpt><trkpt lat="43.64828872178476" lon="11.084943249297039"><ele>203.0</ele><time>2026-05-01T08:37:49.999Z</time></trkpt><trkpt lat="43.6482427003279" lon="11.084804663886748"><ele>203.0</ele><time>2026-05-01T08:37:50.999Z</time></trkpt><trkpt lat="43.648196812341375" lon="11.084665397411463"><ele>203.0</ele><time>2026-05-01T08:37:51.999Z</time></trkpt><trkpt lat="43.64815277896724" lon="11.084523685061562"><ele>203.0</ele><time>2026-05-01T08:37:52.999Z</time></trkpt><trkpt lat="43.64810875358843" lon="11.084382299973848"><ele>203.0</ele><time>2026-05-01T08:37:53.999Z</time></trkpt><trkpt lat="43.6480642019417" lon="11.084237109270589"><ele>203.0</ele><time>2026-05-01T08:37:54.999Z</time></trkpt><trkpt lat="43.64801679362392" lon="11.084098080109875"><ele>203.0</ele><time>2026-05-01T08:37:55.999Z</time></trkpt><trkpt lat="43.647976982287496" lon="11.083956410636587"><ele>203.0</ele><time>2026-05-01T08:37:56.999Z</time></trkpt><trkpt lat="43.64793134088546" lon="11.083814129375902"><ele>201.75</ele><time>2026-05-01T08:37:57.999Z</time></trkpt><trkpt lat="43.64788648900601" lon="11.083671845942659"><ele>200.5</ele><time>2026-05-01T08:37:58.999Z</time></trkpt><trkpt lat="43.64784118522679" lon="11.083526445788953"><ele>199.25</ele><time>2026-05-01T08:37:59.999Z</time></trkpt><trkpt lat="43.64779470802031" lon="11.083375810914312"><ele>198.0</ele><time>2026-05-01T08:38:00.999Z</time></trkpt><trkpt lat="43.64774869475351" lon="11.083221475833927"><ele>201.25</ele><time>2026-05-01T08:38:01.999Z</time></trkpt><trkpt lat="43.647703120575464" lon="11.083070881347723"><ele>204.5</ele><time>2026-05-01T08:38:02.999Z</time></trkpt><trkpt lat="43.64765597622785" lon="11.08291592510767"><ele>207.75</ele><time>2026-05-01T08:38:03.999Z</time></trkpt><trkpt lat="43.64760792855137" lon="11.082755669724763"><ele>211.0</ele><time>2026-05-01T08:38:04.999Z</time></trkpt><trkpt lat="43.64755963306519" lon="11.082585345248884"><ele>211.5</ele><time>2026-05-01T08:38:05.999Z</time></trkpt><trkpt lat="43.647514201824485" lon="11.082403158992323"><ele>212.0</ele><time>2026-05-01T08:38:06.999Z</time></trkpt><trkpt lat="43.64747593325716" lon="11.08221479329826"><ele>212.5</ele><time>2026-05-01T08:38:07.999Z</time></trkpt><trkpt lat="43.647444104038264" lon="11.082013722038566"><ele>213.0</ele><time>2026-05-01T08:38:08.999Z</time></trkpt><trkpt lat="43.647410206391086" lon="11.081810397329566"><ele>213.0</ele><time>2026-05-01T08:38:09.999Z</time></trkpt><trkpt lat="43.6473642586419" lon="11.081601675927558"><ele>213.0</ele><time>2026-05-01T08:38:10.999Z</time></trkpt><trkpt lat="43.647297082577545" lon="11.08139603375475"><ele>213.0</ele><time>2026-05-01T08:38:11.999Z</time></trkpt><trkpt lat="43.647208929480925" lon="11.081204169381518"><ele>212.66666666666669</ele><time>2026-05-01T08:38:12.999Z</time></trkpt><trkpt lat="43.647103746168646" lon="11.081015815446312"><ele>212.33333333333334</ele><time>2026-05-01T08:38:13.999Z</time></trkpt><trkpt lat="43.64698624610179" lon="11.080836509817626"><ele>212.0</ele><time>2026-05-01T08:38:14.999Z</time></trkpt><trkpt lat="43.646858009356116" lon="11.080661651250148"><ele>212.0</ele><time>2026-05-01T08:38:15.999Z</time></trkpt><trkpt lat="43.64671964362289" lon="11.080495458189874"><ele>212.0</ele><time>2026-05-01T08:38:16.999Z</time></trkpt><trkpt lat="43.646575935910406" lon="11.080328197428761"><ele>212.0</ele><time>2026-05-01T08:38:17.999Z</time></trkpt><trkpt lat="43.646454868259895" lon="11.08013241341885"><ele>210.66666666666669</ele><time>2026-05-01T08:38:18.999Z</time></trkpt><trkpt lat="43.64634157942985" lon="11.079931019819579"><ele>209.33333333333331</ele><time>2026-05-01T08:38:19.999Z</time></trkpt><trkpt lat="43.64623372130956" lon="11.079728298611037"><ele>208.0</ele><time>2026-05-01T08:38:20.999Z</time></trkpt><trkpt lat="43.64615588211311" lon="11.079506486750436"><ele>213.66666666666666</ele><time>2026-05-01T08:38:21.999Z</time></trkpt><trkpt lat="43.64610106650831" lon="11.07928153655617"><ele>219.33333333333331</ele><time>2026-05-01T08:38:22.999Z</time></trkpt><trkpt lat="43.6460651347884" lon="11.0790532171082"><ele>225.0</ele><time>2026-05-01T08:38:23.999Z</time></trkpt><trkpt lat="43.646036214517494" lon="11.07883414985273"><ele>225.25</ele><time>2026-05-01T08:38:24.999Z</time></trkpt><trkpt lat="43.64600769095087" lon="11.07862517160514"><ele>225.5</ele><time>2026-05-01T08:38:25.999Z</time></trkpt><trkpt lat="43.64597092794783" lon="11.078425879713729"><ele>225.75</ele><time>2026-05-01T08:38:26.999Z</time></trkpt><trkpt lat="43.645935274246874" lon="11.078231423922242"><ele>226.0</ele><time>2026-05-01T08:38:27.999Z</time></trkpt><trkpt lat="43.64590322495807" lon="11.078035598466894"><ele>226.0</ele><time>2026-05-01T08:38:28.999Z</time></trkpt><trkpt lat="43.64586733531881" lon="11.077844251336135"><ele>226.0</ele><time>2026-05-01T08:38:29.999Z</time></trkpt><trkpt lat="43.64582356003201" lon="11.077657660214308"><ele>226.0</ele><time>2026-05-01T08:38:30.999Z</time></trkpt><trkpt lat="43.645777666468405" lon="11.077481300877444"><ele>226.0</ele><time>2026-05-01T08:38:31.999Z</time></trkpt><trkpt lat="43.64573479209029" lon="11.077300233140223"><ele>226.25</ele><time>2026-05-01T08:38:32.999Z</time></trkpt><trkpt lat="43.64569260945721" lon="11.07712370188982"><ele>226.5</ele><time>2026-05-01T08:38:33.999Z</time></trkpt><trkpt lat="43.64565204374971" lon="11.07694904643404"><ele>226.75</ele><time>2026-05-01T08:38:34.999Z</time></trkpt><trkpt lat="43.64561118743944" lon="11.076773009166619"><ele>227.0</ele><time>2026-05-01T08:38:35.999Z</time></trkpt><trkpt lat="43.64557293396404" lon="11.07659373991769"><ele>227.0</ele><time>2026-05-01T08:38:36.999Z</time></trkpt><trkpt lat="43.645539084412846" lon="11.076407279502881"><ele>227.0</ele><time>2026-05-01T08:38:37.999Z</time></trkpt><trkpt lat="43.645507606245026" lon="11.076218282962659"><ele>227.0</ele><time>2026-05-01T08:38:38.999Z</time></trkpt><trkpt lat="43.645474853487435" lon="11.076028249697544"><ele>227.0</ele><time>2026-05-01T08:38:39.999Z</time></trkpt><trkpt lat="43.64544320611641" lon="11.07584170711908"><ele>227.5</ele><time>2026-05-01T08:38:40.999Z</time></trkpt><trkpt lat="43.64541146432093" lon="11.075662540100792"><ele>228.0</ele><time>2026-05-01T08:38:41.999Z</time></trkpt><trkpt lat="43.64538164279897" lon="11.075491830744367"><ele>228.5</ele><time>2026-05-01T08:38:42.999Z</time></trkpt><trkpt lat="43.645354351291154" lon="11.075323376884239"><ele>229.0</ele><time>2026-05-01T08:38:43.999Z</time></trkpt><trkpt lat="43.64533279194582" lon="11.07515961062926"><ele>229.0</ele><time>2026-05-01T08:38:44.999Z</time></trkpt><trkpt lat="43.64531538903563" lon="11.074999892442111"><ele>228.99999999999997</ele><time>2026-05-01T08:38:45.999Z</time></trkpt><trkpt lat="43.645299261537126" lon="11.074845555216736"><ele>228.99999999999997</ele><time>2026-05-01T08:38:46.999Z</time></trkpt><trkpt lat="43.64528540328611" lon="11.074703651452806"><ele>229.0</ele><time>2026-05-01T08:38:47.999Z</time></trkpt><trkpt lat="43.64527077588398" lon="11.074571471983802"><ele>229.0</ele><time>2026-05-01T08:38:48.999Z</time></trkpt><trkpt lat="43.64525897244452" lon="11.07445375938142"><ele>230.2</ele><time>2026-05-01T08:38:49.999Z</time></trkpt><trkpt lat="43.64524848721526" lon="11.074338295838322"><ele>231.39999999999998</ele><time>2026-05-01T08:38:50.999Z</time></trkpt><trkpt lat="43.64523808973295" lon="11.074225949746827"><ele>232.6</ele><time>2026-05-01T08:38:51.999Z</time></trkpt><trkpt lat="43.64522505727814" lon="11.074125730242232"><ele>233.8</ele><time>2026-05-01T08:38:52.999Z</time></trkpt><trkpt lat="43.645199625140265" lon="11.073956097207702"><ele>235.0</ele><time>2026-05-01T08:38:54.998Z</time></trkpt><trkpt lat="43.645180865833275" lon="11.073807819351497"><ele>235.0</ele><time>2026-05-01T08:38:56.998Z</time></trkpt><trkpt lat="43.64516811740922" lon="11.07367832931951"><ele>235.0</ele><time>2026-05-01T08:38:58.998Z</time></trkpt><trkpt lat="43.64515331780281" lon="11.073591273706489"><ele>235.0</ele><time>2026-05-01T08:39:01.998Z</time></trkpt><trkpt lat="43.64513522556834" lon="11.073462115137406"><ele>235.0</ele><time>2026-05-01T08:39:03.998Z</time></trkpt><trkpt lat="43.64511064841642" lon="11.073313697674028"><ele>235.0</ele><time>2026-05-01T08:39:05.998Z</time></trkpt><trkpt lat="43.64508171199474" lon="11.073139227928678"><ele>234.7142857142857</ele><time>2026-05-01T08:39:07.998Z</time></trkpt><trkpt lat="43.645072716296056" lon="11.073050174532773"><ele>234.4285714285714</ele><time>2026-05-01T08:39:08.998Z</time></trkpt><trkpt lat="43.64506276254958" lon="11.072950594560282"><ele>234.14285714285714</ele><time>2026-05-01T08:39:09.998Z</time></trkpt><trkpt lat="43.64505424282279" lon="11.072858096454892"><ele>233.85714285714283</ele><time>2026-05-01T08:39:10.998Z</time></trkpt><trkpt lat="43.64504794645366" lon="11.07276441655204"><ele>233.57142857142856</ele><time>2026-05-01T08:39:11.998Z</time></trkpt><trkpt lat="43.64503837610821" lon="11.07267536720543"><ele>233.28571428571428</ele><time>2026-05-01T08:39:12.998Z</time></trkpt><trkpt lat="43.64503042408735" lon="11.072587716969467"><ele>233.0</ele><time>2026-05-01T08:39:13.998Z</time></trkpt><trkpt lat="43.64500883708962" lon="11.07241067833193"><ele>232.83333333333334</ele><time>2026-05-01T08:39:15.998Z</time></trkpt><trkpt lat="43.64499814251187" lon="11.07232336866997"><ele>232.66666666666669</ele><time>2026-05-01T08:39:16.998Z</time></trkpt><trkpt lat="43.64497806056296" lon="11.072161868862802"><ele>232.5</ele><time>2026-05-01T08:39:18.998Z</time></trkpt><trkpt lat="43.6449610911569" lon="11.07207795734479"><ele>232.33333333333331</ele><time>2026-05-01T08:39:19.998Z</time></trkpt><trkpt lat="43.64494034657417" lon="11.07199117023854"><ele>232.16666666666666</ele><time>2026-05-01T08:39:20.998Z</time></trkpt><trkpt lat="43.644914486833024" lon="11.071900614438224"><ele>232.0</ele><time>2026-05-01T08:39:21.998Z</time></trkpt><trkpt lat="43.644886044183394" lon="11.071806195320576"><ele>231.99999999999997</ele><time>2026-05-01T08:39:23Z</time></trkpt><trkpt lat="43.64485212067305" lon="11.071711128610842"><ele>232.0</ele><time>2026-05-01T08:39:24Z</time></trkpt><trkpt lat="43.64481265654728" lon="11.071618410526927"><ele>232.0</ele><time>2026-05-01T08:39:25Z</time></trkpt><trkpt lat="43.644770152453475" lon="11.071529628722157"><ele>232.0</ele><time>2026-05-01T08:39:26Z</time></trkpt><trkpt lat="43.64472494256004" lon="11.071438003127422"><ele>231.99999999999997</ele><time>2026-05-01T08:39:27Z</time></trkpt><trkpt lat="43.64467752412619" lon="11.071351144778992"><ele>232.0</ele><time>2026-05-01T08:39:28Z</time></trkpt><trkpt lat="43.64462870617004" lon="11.071267874244684"><ele>231.75</ele><time>2026-05-01T08:39:29Z</time></trkpt><trkpt lat="43.644584657935596" lon="11.071188765865072"><ele>231.5</ele><time>2026-05-01T08:39:30Z</time></trkpt><trkpt lat="43.64454167643573" lon="11.071115067018805"><ele>231.25</ele><time>2026-05-01T08:39:31Z</time></trkpt><trkpt lat="43.644465878004986" lon="11.07097634261978"><ele>231.0</ele><time>2026-05-01T08:39:33Z</time></trkpt><trkpt lat="43.64447493638263" lon="11.070691779549763"><ele>230.83333333333334</ele><time>2026-05-01T08:39:36Z</time></trkpt><trkpt lat="43.64451015242429" lon="11.070579943379743"><ele>230.66666666666669</ele><time>2026-05-01T08:39:37Z</time></trkpt><trkpt lat="43.64454654016643" lon="11.070466287800983"><ele>230.5</ele><time>2026-05-01T08:39:37.999Z</time></trkpt><trkpt lat="43.644578373600716" lon="11.070357769595821"><ele>230.33333333333334</ele><time>2026-05-01T08:39:38.999Z</time></trkpt><trkpt lat="43.6446079950421" lon="11.070250643592273"><ele>230.16666666666669</ele><time>2026-05-01T08:39:39.999Z</time></trkpt><trkpt lat="43.644634939745096" lon="11.070137944329288"><ele>230.0</ele><time>2026-05-01T08:39:40.999Z</time></trkpt><trkpt lat="43.64466637193917" lon="11.070005592385632"><ele>229.5</ele><time>2026-05-01T08:39:41.999Z</time></trkpt><trkpt lat="43.644699771389625" lon="11.069862468940672"><ele>229.0</ele><time>2026-05-01T08:39:42.999Z</time></trkpt><trkpt lat="43.644732250355204" lon="11.06970994135608"><ele>228.5</ele><time>2026-05-01T08:39:43.999Z</time></trkpt><trkpt lat="43.644760791758124" lon="11.069551466135758"><ele>228.0</ele><time>2026-05-01T08:39:44.999Z</time></trkpt><trkpt lat="43.64478731693908" lon="11.06939147912157"><ele>228.0</ele><time>2026-05-01T08:39:45.999Z</time></trkpt><trkpt lat="43.64480865662062" lon="11.06924775134424"><ele>228.0</ele><time>2026-05-01T08:39:46.999Z</time></trkpt><trkpt lat="43.64482789089652" lon="11.069109850934186"><ele>228.0</ele><time>2026-05-01T08:39:47.999Z</time></trkpt><trkpt lat="43.6448477824419" lon="11.068981311396431"><ele>228.0</ele><time>2026-05-01T08:39:48.999Z</time></trkpt><trkpt lat="43.644871645610856" lon="11.068851690381061"><ele>228.0</ele><time>2026-05-01T08:39:49.999Z</time></trkpt><trkpt lat="43.64490193186605" lon="11.068716993167321"><ele>228.25</ele><time>2026-05-01T08:39:50.999Z</time></trkpt><trkpt lat="43.64493819423613" lon="11.068576825731963"><ele>228.5</ele><time>2026-05-01T08:39:51.999Z</time></trkpt><trkpt lat="43.64498239451723" lon="11.06842944547528"><ele>228.75</ele><time>2026-05-01T08:39:52.999Z</time></trkpt><trkpt lat="43.64503331202403" lon="11.06827999340478"><ele>229.0</ele><time>2026-05-01T08:39:53.999Z</time></trkpt><trkpt lat="43.64508953691767" lon="11.068127402617431"><ele>229.0</ele><time>2026-05-01T08:39:54.999Z</time></trkpt><trkpt lat="43.645155467150104" lon="11.067984701685784"><ele>228.99999999999997</ele><time>2026-05-01T08:39:55.999Z</time></trkpt><trkpt lat="43.6452258497768" lon="11.067862137845818"><ele>228.99999999999997</ele><time>2026-05-01T08:39:56.999Z</time></trkpt><trkpt lat="43.645283425100914" lon="11.067753363851248"><ele>229.0</ele><time>2026-05-01T08:39:57.999Z</time></trkpt><trkpt lat="43.64533974437129" lon="11.06764957639526"><ele>229.0</ele><time>2026-05-01T08:39:58.999Z</time></trkpt><trkpt lat="43.64539718043275" lon="11.067544973247061"><ele>229.0</ele><time>2026-05-01T08:39:59.999Z</time></trkpt><trkpt lat="43.64545034203383" lon="11.067447985838484"><ele>228.99999999999997</ele><time>2026-05-01T08:40:00.999Z</time></trkpt><trkpt lat="43.645501885102114" lon="11.06734899373736"><ele>228.99999999999997</ele><time>2026-05-01T08:40:01.999Z</time></trkpt><trkpt lat="43.64555606197303" lon="11.067245737988674"><ele>229.0</ele><time>2026-05-01T08:40:02.999Z</time></trkpt><trkpt lat="43.645614437266616" lon="11.067134206236275"><ele>229.0</ele><time>2026-05-01T08:40:03.999Z</time></trkpt><trkpt lat="43.64567195332431" lon="11.067026371026325"><ele>229.83333333333331</ele><time>2026-05-01T08:40:04.999Z</time></trkpt><trkpt lat="43.64572006986882" lon="11.066923864969844"><ele>230.66666666666666</ele><time>2026-05-01T08:40:05.999Z</time></trkpt><trkpt lat="43.6457625309567" lon="11.066822683080256"><ele>231.5</ele><time>2026-05-01T08:40:06.999Z</time></trkpt><trkpt lat="43.64580063402018" lon="11.06672398714346"><ele>232.33333333333331</ele><time>2026-05-01T08:40:07.999Z</time></trkpt><trkpt lat="43.645834202086206" lon="11.066625426315142"><ele>233.16666666666666</ele><time>2026-05-01T08:40:08.999Z</time></trkpt><trkpt lat="43.6458670526037" lon="11.066514103722046"><ele>234.0</ele><time>2026-05-01T08:40:09.999Z</time></trkpt><trkpt lat="43.64589188074209" lon="11.066401839823914"><ele>234.0</ele><time>2026-05-01T08:40:10.999Z</time></trkpt><trkpt lat="43.64591897119267" lon="11.06626972204004"><ele>233.99999999999997</ele><time>2026-05-01T08:40:11.999Z</time></trkpt><trkpt lat="43.64593820284887" lon="11.066127387821375"><ele>233.99999999999997</ele><time>2026-05-01T08:40:12.999Z</time></trkpt><trkpt lat="43.64595209419473" lon="11.065989309810409"><ele>234.0</ele><time>2026-05-01T08:40:13.999Z</time></trkpt><trkpt lat="43.64595733380087" lon="11.065856799349298"><ele>234.0</ele><time>2026-05-01T08:40:14.999Z</time></trkpt><trkpt lat="43.64595630394151" lon="11.065743474085316"><ele>233.79999999999998</ele><time>2026-05-01T08:40:15.999Z</time></trkpt><trkpt lat="43.645954792268185" lon="11.065625172788007"><ele>233.59999999999997</ele><time>2026-05-01T08:40:16.999Z</time></trkpt><trkpt lat="43.645954681124564" lon="11.065499183614227"><ele>233.4</ele><time>2026-05-01T08:40:17.999Z</time></trkpt><trkpt lat="43.64595463499248" lon="11.065372774405073"><ele>233.2</ele><time>2026-05-01T08:40:18.999Z</time></trkpt><trkpt lat="43.64595386492045" lon="11.065241941773593"><ele>233.0</ele><time>2026-05-01T08:40:19.999Z</time></trkpt><trkpt lat="43.645956660059305" lon="11.065105617379986"><ele>233.0</ele><time>2026-05-01T08:40:20.999Z</time></trkpt><trkpt lat="43.64595685411995" lon="11.064963008980648"><ele>233.0</ele><time>2026-05-01T08:40:21.999Z</time></trkpt><trkpt lat="43.64595730604856" lon="11.064816813904056"><ele>233.0</ele><time>2026-05-01T08:40:22.999Z</time></trkpt><trkpt lat="43.645956933159844" lon="11.064667709152978"><ele>233.0</ele><time>2026-05-01T08:40:23.999Z</time></trkpt><trkpt lat="43.64595529204988" lon="11.064522074962664"><ele>233.0</ele><time>2026-05-01T08:40:24.999Z</time></trkpt><trkpt lat="43.64595384842488" lon="11.064373459106083"><ele>232.8</ele><time>2026-05-01T08:40:25.999Z</time></trkpt><trkpt lat="43.64595315649118" lon="11.064241245246466"><ele>232.60000000000002</ele><time>2026-05-01T08:40:26.999Z</time></trkpt><trkpt lat="43.64595746470991" lon="11.064098355232849"><ele>232.39999999999998</ele><time>2026-05-01T08:40:27.999Z</time></trkpt><trkpt lat="43.64596036973489" lon="11.063966201943849"><ele>232.2</ele><time>2026-05-01T08:40:28.999Z</time></trkpt><trkpt lat="43.64596600282988" lon="11.063842661109314"><ele>232.0</ele><time>2026-05-01T08:40:29.999Z</time></trkpt><trkpt lat="43.64598004133586" lon="11.06371107163836"><ele>231.2</ele><time>2026-05-01T08:40:30.999Z</time></trkpt><trkpt lat="43.645998182244035" lon="11.063585462263143"><ele>230.39999999999998</ele><time>2026-05-01T08:40:31.999Z</time></trkpt><trkpt lat="43.64601661238082" lon="11.06345758658627"><ele>229.60000000000002</ele><time>2026-05-01T08:40:32.999Z</time></trkpt><trkpt lat="43.64603561946338" lon="11.063320978434827"><ele>228.8</ele><time>2026-05-01T08:40:33.999Z</time></trkpt><trkpt lat="43.646055085456936" lon="11.063175135574394"><ele>228.0</ele><time>2026-05-01T08:40:34.999Z</time></trkpt><trkpt lat="43.64607485176923" lon="11.06303140850625"><ele>228.2</ele><time>2026-05-01T08:40:35.999Z</time></trkpt><trkpt lat="43.646091442457006" lon="11.062892970568598"><ele>228.4</ele><time>2026-05-01T08:40:36.999Z</time></trkpt><trkpt lat="43.64612588938871" lon="11.062763368233819"><ele>228.59999999999997</ele><time>2026-05-01T08:40:37.999Z</time></trkpt><trkpt lat="43.64612367197861" lon="11.062617030856416"><ele>228.79999999999998</ele><time>2026-05-01T08:40:38.999Z</time></trkpt><trkpt lat="43.64613409202368" lon="11.062467565003654"><ele>229.0</ele><time>2026-05-01T08:40:39.999Z</time></trkpt><trkpt lat="43.6461279381927" lon="11.062309098128981"><ele>228.75</ele><time>2026-05-01T08:40:40.999Z</time></trkpt><trkpt lat="43.646094120544205" lon="11.062136072902998"><ele>228.5</ele><time>2026-05-01T08:40:41.999Z</time></trkpt><trkpt lat="43.64603885792918" lon="11.061945446704689"><ele>228.25</ele><time>2026-05-01T08:40:42.999Z</time></trkpt><trkpt lat="43.645986405307255" lon="11.06173088601372"><ele>228.0</ele><time>2026-05-01T08:40:43.999Z</time></trkpt><trkpt lat="43.64591474512336" lon="11.061506820447967"><ele>228.0</ele><time>2026-05-01T08:40:44.999Z</time></trkpt><trkpt lat="43.64582704737616" lon="11.061287823834377"><ele>228.0</ele><time>2026-05-01T08:40:45.999Z</time></trkpt><trkpt lat="43.64575708525589" lon="11.061064344147182"><ele>228.0</ele><time>2026-05-01T08:40:46.999Z</time></trkpt><trkpt lat="43.64569019410147" lon="11.060858287656675"><ele>227.25</ele><time>2026-05-01T08:40:47.999Z</time></trkpt><trkpt lat="43.6456251820353" lon="11.06066075861671"><ele>226.5</ele><time>2026-05-01T08:40:48.999Z</time></trkpt><trkpt lat="43.645566202390604" lon="11.06047538155914"><ele>225.75</ele><time>2026-05-01T08:40:49.999Z</time></trkpt><trkpt lat="43.64551025835484" lon="11.060291573989707"><ele>225.0</ele><time>2026-05-01T08:40:50.999Z</time></trkpt><trkpt lat="43.64545541090444" lon="11.06011680187085"><ele>225.0</ele><time>2026-05-01T08:40:51.999Z</time></trkpt><trkpt lat="43.645399299323074" lon="11.05995030532016"><ele>225.0</ele><time>2026-05-01T08:40:52.999Z</time></trkpt><trkpt lat="43.645342986893084" lon="11.059796794386317"><ele>225.0</ele><time>2026-05-01T08:40:53.998Z</time></trkpt><trkpt lat="43.64528646199018" lon="11.059656770011005"><ele>225.0</ele><time>2026-05-01T08:40:54.998Z</time></trkpt><trkpt lat="43.64523131305033" lon="11.059525666788991"><ele>224.8</ele><time>2026-05-01T08:40:55.998Z</time></trkpt><trkpt lat="43.645176234029734" lon="11.059405252590414"><ele>224.6</ele><time>2026-05-01T08:40:56.998Z</time></trkpt><trkpt lat="43.64512620117868" lon="11.059289539914323"><ele>224.39999999999998</ele><time>2026-05-01T08:40:57.998Z</time></trkpt><trkpt lat="43.64508002432506" lon="11.059178925244053"><ele>224.2</ele><time>2026-05-01T08:40:58.998Z</time></trkpt><trkpt lat="43.64503618214273" lon="11.059073342743455"><ele>224.0</ele><time>2026-05-01T08:40:59.998Z</time></trkpt><trkpt lat="43.645010572692804" lon="11.058967738814342"><ele>222.39999999999998</ele><time>2026-05-01T08:41:00.998Z</time></trkpt><trkpt lat="43.644951195802115" lon="11.058863938413046"><ele>220.79999999999998</ele><time>2026-05-01T08:41:01.998Z</time></trkpt><trkpt lat="43.64490196725553" lon="11.058736969388452"><ele>219.20000000000002</ele><time>2026-05-01T08:41:02.998Z</time></trkpt><trkpt lat="43.64488406270026" lon="11.058639390849665"><ele>217.60000000000002</ele><time>2026-05-01T08:41:03.998Z</time></trkpt><trkpt lat="43.644841879605714" lon="11.058523593078075"><ele>216.0</ele><time>2026-05-01T08:41:04.998Z</time></trkpt><trkpt lat="43.64480397466331" lon="11.058419542402243"><ele>216.0</ele><time>2026-05-01T08:41:05.998Z</time></trkpt><trkpt lat="43.64467037749127" lon="11.0583654929223"><ele>216.0</ele><time>2026-05-01T08:41:06.998Z</time></trkpt><trkpt lat="43.64458018512669" lon="11.058254690995884"><ele>216.0</ele><time>2026-05-01T08:41:07.998Z</time></trkpt><trkpt lat="43.64450477642908" lon="11.05811202476804"><ele>216.0</ele><time>2026-05-01T08:41:08.998Z</time></trkpt><trkpt lat="43.64441350072273" lon="11.057985675532253"><ele>217.20000000000002</ele><time>2026-05-01T08:41:09.998Z</time></trkpt><trkpt lat="43.644331731174425" lon="11.057848320637227"><ele>218.40000000000003</ele><time>2026-05-01T08:41:10.998Z</time></trkpt><trkpt lat="43.64426047384561" lon="11.0577415156602"><ele>219.6</ele><time>2026-05-01T08:41:11.998Z</time></trkpt><trkpt lat="43.64420876145893" lon="11.057665644003729"><ele>220.8</ele><time>2026-05-01T08:41:12.998Z</time></trkpt><trkpt lat="43.64413439905025" lon="11.05754826704304"><ele>222.0</ele><time>2026-05-01T08:41:14.998Z</time></trkpt><trkpt lat="43.644065566657474" lon="11.05746558571027"><ele>221.16666666666666</ele><time>2026-05-01T08:41:16.998Z</time></trkpt><trkpt lat="43.643980546911905" lon="11.057381710199795"><ele>220.33333333333331</ele><time>2026-05-01T08:41:18.998Z</time></trkpt><trkpt lat="43.64391767796507" lon="11.057345828777716"><ele>219.5</ele><time>2026-05-01T08:41:19.998Z</time></trkpt><trkpt lat="43.64384485825194" lon="11.05732809558367"><ele>218.66666666666666</ele><time>2026-05-01T08:41:20.998Z</time></trkpt><trkpt lat="43.64377021283535" lon="11.057323221076148"><ele>217.83333333333331</ele><time>2026-05-01T08:41:21.998Z</time></trkpt><trkpt lat="43.643698073108126" lon="11.057315737788237"><ele>217.0</ele><time>2026-05-01T08:41:22.998Z</time></trkpt><trkpt lat="43.64362542604955" lon="11.057325581527719"><ele>216.99999999999997</ele><time>2026-05-01T08:41:23.998Z</time></trkpt><trkpt lat="43.64355360258735" lon="11.0573358885191"><ele>217.0</ele><time>2026-05-01T08:41:24.998Z</time></trkpt><trkpt lat="43.64347526510491" lon="11.057347130380222"><ele>217.0</ele><time>2026-05-01T08:41:25.998Z</time></trkpt><trkpt lat="43.64338476892954" lon="11.057360117024475"><ele>217.0</ele><time>2026-05-01T08:41:26.998Z</time></trkpt><trkpt lat="43.64330325137652" lon="11.057370663237585"><ele>216.99999999999997</ele><time>2026-05-01T08:41:27.999Z</time></trkpt><trkpt lat="43.64323400643258" lon="11.057379347404305"><ele>217.0</ele><time>2026-05-01T08:41:28.999Z</time></trkpt><trkpt lat="43.643164446760075" lon="11.057385657398472"><ele>216.99999999999997</ele><time>2026-05-01T08:41:29.999Z</time></trkpt><trkpt lat="43.64308469645434" lon="11.057392891807156"><ele>217.0</ele><time>2026-05-01T08:41:30.999Z</time></trkpt><trkpt lat="43.64299096115454" lon="11.057401394860536"><ele>217.0</ele><time>2026-05-01T08:41:31.999Z</time></trkpt><trkpt lat="43.642910036342215" lon="11.057408735858985"><ele>217.0</ele><time>2026-05-01T08:41:32.999Z</time></trkpt><trkpt lat="43.64282461402272" lon="11.057421243281189"><ele>216.99999999999997</ele><time>2026-05-01T08:41:33.999Z</time></trkpt><trkpt lat="43.642740167646046" lon="11.057433497941183"><ele>217.0</ele><time>2026-05-01T08:41:34.999Z</time></trkpt><trkpt lat="43.64265118111694" lon="11.05744641147666"><ele>217.8</ele><time>2026-05-01T08:41:35.999Z</time></trkpt><trkpt lat="43.64255171219744" lon="11.057459668334698"><ele>218.6</ele><time>2026-05-01T08:41:36.999Z</time></trkpt><trkpt lat="43.64245772159559" lon="11.057470154700038"><ele>219.40000000000003</ele><time>2026-05-01T08:41:37.999Z</time></trkpt><trkpt lat="43.64236461938874" lon="11.057475998510732"><ele>220.20000000000002</ele><time>2026-05-01T08:41:38.999Z</time></trkpt><trkpt lat="43.64227209841527" lon="11.057473814810693"><ele>221.0</ele><time>2026-05-01T08:41:39.999Z</time></trkpt><trkpt lat="43.642179907023554" lon="11.057465438884874"><ele>221.00000000000003</ele><time>2026-05-01T08:41:40.999Z</time></trkpt><trkpt lat="43.64208471828961" lon="11.057454604836247"><ele>221.0</ele><time>2026-05-01T08:41:41.999Z</time></trkpt><trkpt lat="43.64199351057497" lon="11.057442124220353"><ele>221.0</ele><time>2026-05-01T08:41:42.999Z</time></trkpt><trkpt lat="43.64191314045841" lon="11.057426808960901"><ele>221.0</ele><time>2026-05-01T08:41:43.999Z</time></trkpt><trkpt lat="43.641836911454945" lon="11.057404753614119"><ele>221.00000000000003</ele><time>2026-05-01T08:41:44.999Z</time></trkpt><trkpt lat="43.64175407498834" lon="11.057377999940954"><ele>221.0</ele><time>2026-05-01T08:41:45.999Z</time></trkpt><trkpt lat="43.64167331479545" lon="11.057343315849133"><ele>218.8</ele><time>2026-05-01T08:41:46.999Z</time></trkpt><trkpt lat="43.641591449876735" lon="11.057299118009803"><ele>216.60000000000002</ele><time>2026-05-01T08:41:47.999Z</time></trkpt><trkpt lat="43.641515168224544" lon="11.057247776994954"><ele>214.4</ele><time>2026-05-01T08:41:48.999Z</time></trkpt><trkpt lat="43.64144139755826" lon="11.057180685141116"><ele>212.2</ele><time>2026-05-01T08:41:49.999Z</time></trkpt><trkpt lat="43.64136418025519" lon="11.057097589812352"><ele>210.0</ele><time>2026-05-01T08:41:50.999Z</time></trkpt><trkpt lat="43.64127621066073" lon="11.057017981780168"><ele>210.0</ele><time>2026-05-01T08:41:51.999Z</time></trkpt><trkpt lat="43.641205324852685" lon="11.056939129180801"><ele>210.0</ele><time>2026-05-01T08:41:52.999Z</time></trkpt><trkpt lat="43.64113700225625" lon="11.056853627246477"><ele>210.0</ele><time>2026-05-01T08:41:53.999Z</time></trkpt><trkpt lat="43.641072205479034" lon="11.056785400583372"><ele>210.0</ele><time>2026-05-01T08:41:54.999Z</time></trkpt><trkpt lat="43.640991856385384" lon="11.05670070114579"><ele>210.0</ele><time>2026-05-01T08:41:55.999Z</time></trkpt><trkpt lat="43.64090603277084" lon="11.056614554812654"><ele>210.2</ele><time>2026-05-01T08:41:56.999Z</time></trkpt><trkpt lat="43.64081694381261" lon="11.056532900015942"><ele>210.4</ele><time>2026-05-01T08:41:57.999Z</time></trkpt><trkpt lat="43.64072985290505" lon="11.056454680644695"><ele>210.60000000000002</ele><time>2026-05-01T08:41:58.999Z</time></trkpt><trkpt lat="43.64064573455608" lon="11.056377502746509"><ele>210.8</ele><time>2026-05-01T08:41:59.999Z</time></trkpt><trkpt lat="43.64056168576378" lon="11.056303300189489"><ele>211.0</ele><time>2026-05-01T08:42:00.999Z</time></trkpt><trkpt lat="43.64047905188328" lon="11.05623111619997"><ele>211.0</ele><time>2026-05-01T08:42:01.999Z</time></trkpt><trkpt lat="43.64039312373565" lon="11.05616072683964"><ele>211.0</ele><time>2026-05-01T08:42:02.999Z</time></trkpt><trkpt lat="43.640311428928634" lon="11.056096564208634"><ele>211.0</ele><time>2026-05-01T08:42:03.999Z</time></trkpt><trkpt lat="43.64022814114017" lon="11.056031040295073"><ele>211.0</ele><time>2026-05-01T08:42:04.999Z</time></trkpt><trkpt lat="43.64014788932586" lon="11.05595681884376"><ele>211.0</ele><time>2026-05-01T08:42:05.999Z</time></trkpt><trkpt lat="43.64006813045594" lon="11.055867540768164"><ele>211.5</ele><time>2026-05-01T08:42:06.999Z</time></trkpt><trkpt lat="43.640002223076834" lon="11.05574715970781"><ele>212.0</ele><time>2026-05-01T08:42:07.999Z</time></trkpt><trkpt lat="43.63990562933442" lon="11.055638442428984"><ele>212.5</ele><time>2026-05-01T08:42:08.999Z</time></trkpt><trkpt lat="43.63982273531031" lon="11.055514143030136"><ele>213.0</ele><time>2026-05-01T08:42:09.999Z</time></trkpt><trkpt lat="43.63974302620818" lon="11.055396257339867"><ele>213.0</ele><time>2026-05-01T08:42:10.999Z</time></trkpt><trkpt lat="43.6396601613922" lon="11.05527896971964"><ele>213.0</ele><time>2026-05-01T08:42:11.999Z</time></trkpt><trkpt lat="43.639576726265226" lon="11.055166650543969"><ele>213.0</ele><time>2026-05-01T08:42:12.999Z</time></trkpt><trkpt lat="43.63949229697825" lon="11.055051888212894"><ele>213.0</ele><time>2026-05-01T08:42:13.999Z</time></trkpt><trkpt lat="43.639406523580696" lon="11.054937036724711"><ele>211.25</ele><time>2026-05-01T08:42:14.999Z</time></trkpt><trkpt lat="43.63931913287259" lon="11.054822254272546"><ele>209.5</ele><time>2026-05-01T08:42:15.999Z</time></trkpt><trkpt lat="43.639228665497264" lon="11.054708269625225"><ele>207.75</ele><time>2026-05-01T08:42:16.999Z</time></trkpt><trkpt lat="43.63913418339141" lon="11.054599742464946"><ele>206.0</ele><time>2026-05-01T08:42:17.999Z</time></trkpt><trkpt lat="43.63905353679653" lon="11.054471874851046"><ele>206.0</ele><time>2026-05-01T08:42:18.999Z</time></trkpt><trkpt lat="43.638963382323745" lon="11.054358578263571"><ele>206.0</ele><time>2026-05-01T08:42:19.999Z</time></trkpt><trkpt lat="43.63887477274741" lon="11.054251660600372"><ele>206.0</ele><time>2026-05-01T08:42:20.999Z</time></trkpt><trkpt lat="43.63879093710834" lon="11.054151264825737"><ele>206.0</ele><time>2026-05-01T08:42:21.999Z</time></trkpt><trkpt lat="43.63870998919597" lon="11.054053478199641"><ele>205.0</ele><time>2026-05-01T08:42:22.999Z</time></trkpt><trkpt lat="43.638626601059094" lon="11.05395118657564"><ele>204.0</ele><time>2026-05-01T08:42:23.999Z</time></trkpt><trkpt lat="43.638538851564505" lon="11.053843544803588"><ele>203.0</ele><time>2026-05-01T08:42:24.999Z</time></trkpt><trkpt lat="43.638447629175765" lon="11.053731642919745"><ele>202.0</ele><time>2026-05-01T08:42:25.999Z</time></trkpt><trkpt lat="43.63835892600067" lon="11.0536228312866"><ele>202.0</ele><time>2026-05-01T08:42:26.999Z</time></trkpt><trkpt lat="43.63827316640866" lon="11.053517630580327"><ele>202.0</ele><time>2026-05-01T08:42:27.999Z</time></trkpt><trkpt lat="43.6381900513396" lon="11.053415673864869"><ele>202.0</ele><time>2026-05-01T08:42:28.999Z</time></trkpt><trkpt lat="43.63811069109557" lon="11.053318323163653"><ele>202.0</ele><time>2026-05-01T08:42:29.999Z</time></trkpt><trkpt lat="43.63802745401921" lon="11.053245336697742"><ele>202.0</ele><time>2026-05-01T08:42:30.999Z</time></trkpt><trkpt lat="43.63796127493933" lon="11.053161672405505"><ele>202.2</ele><time>2026-05-01T08:42:31.999Z</time></trkpt><trkpt lat="43.637897187747406" lon="11.053075259992333"><ele>202.39999999999998</ele><time>2026-05-01T08:42:32.999Z</time></trkpt><trkpt lat="43.63782103782659" lon="11.052982997030941"><ele>202.60000000000002</ele><time>2026-05-01T08:42:33.999Z</time></trkpt><trkpt lat="43.63773388911715" lon="11.052880801303957"><ele>202.8</ele><time>2026-05-01T08:42:34.999Z</time></trkpt><trkpt lat="43.6376498368832" lon="11.052773790368873"><ele>203.0</ele><time>2026-05-01T08:42:35.999Z</time></trkpt><trkpt lat="43.637572058843496" lon="11.052677873764708"><ele>203.0</ele><time>2026-05-01T08:42:36.999Z</time></trkpt><trkpt lat="43.63749497655668" lon="11.052592348068243"><ele>203.0</ele><time>2026-05-01T08:42:37.999Z</time></trkpt><trkpt lat="43.63741868507635" lon="11.052515450799758"><ele>203.0</ele><time>2026-05-01T08:42:38.999Z</time></trkpt><trkpt lat="43.637347474685626" lon="11.052427841692626"><ele>203.0</ele><time>2026-05-01T08:42:39.999Z</time></trkpt><trkpt lat="43.6372667108644" lon="11.052353084582217"><ele>203.0</ele><time>2026-05-01T08:42:40.999Z</time></trkpt><trkpt lat="43.63717554733066" lon="11.052302018718043"><ele>204.0</ele><time>2026-05-01T08:42:41.999Z</time></trkpt><trkpt lat="43.63708155087605" lon="11.052223507480768"><ele>205.0</ele><time>2026-05-01T08:42:42.999Z</time></trkpt><trkpt lat="43.63698935086079" lon="11.05214224510363"><ele>206.0</ele><time>2026-05-01T08:42:43.999Z</time></trkpt><trkpt lat="43.63689129859041" lon="11.052055427826847"><ele>207.0</ele><time>2026-05-01T08:42:44.999Z</time></trkpt><trkpt lat="43.636790292287316" lon="11.05197080866857"><ele>207.0</ele><time>2026-05-01T08:42:45.999Z</time></trkpt><trkpt lat="43.63668586613288" lon="11.05188410316718"><ele>207.0</ele><time>2026-05-01T08:42:46.999Z</time></trkpt><trkpt lat="43.63658024761134" lon="11.051781407531651"><ele>207.0</ele><time>2026-05-01T08:42:47.999Z</time></trkpt><trkpt lat="43.636474948358554" lon="11.051668350730607"><ele>207.0</ele><time>2026-05-01T08:42:48.999Z</time></trkpt><trkpt lat="43.63638560704673" lon="11.05151599587849"><ele>204.25</ele><time>2026-05-01T08:42:49.999Z</time></trkpt><trkpt lat="43.63628683688092" lon="11.051372246072916"><ele>201.5</ele><time>2026-05-01T08:42:50.999Z</time></trkpt><trkpt lat="43.636188896922754" lon="11.051227220689286"><ele>198.75</ele><time>2026-05-01T08:42:51.999Z</time></trkpt><trkpt lat="43.636081696781226" lon="11.051093232454788"><ele>196.0</ele><time>2026-05-01T08:42:52.999Z</time></trkpt><trkpt lat="43.63599360140032" lon="11.050955371530943"><ele>199.25</ele><time>2026-05-01T08:42:53.999Z</time></trkpt><trkpt lat="43.635902492343334" lon="11.050816525687472"><ele>202.5</ele><time>2026-05-01T08:42:54.998Z</time></trkpt><trkpt lat="43.63581031296519" lon="11.05067807736205"><ele>205.75</ele><time>2026-05-01T08:42:55.998Z</time></trkpt><trkpt lat="43.635719994992456" lon="11.050538817354056"><ele>209.0</ele><time>2026-05-01T08:42:56.998Z</time></trkpt><trkpt lat="43.635627190179115" lon="11.050396537295025"><ele>209.0</ele><time>2026-05-01T08:42:57.998Z</time></trkpt><trkpt lat="43.635536531791765" lon="11.050255876341271"><ele>209.0</ele><time>2026-05-01T08:42:58.998Z</time></trkpt><trkpt lat="43.63545238466911" lon="11.050115019973257"><ele>209.0</ele><time>2026-05-01T08:42:59.998Z</time></trkpt><trkpt lat="43.63538096668809" lon="11.049956867520361"><ele>209.0</ele><time>2026-05-01T08:43:00.998Z</time></trkpt><trkpt lat="43.63534703220844" lon="11.04977895975434"><ele>211.25</ele><time>2026-05-01T08:43:01.998Z</time></trkpt><trkpt lat="43.635294335340234" lon="11.049623506687555"><ele>213.5</ele><time>2026-05-01T08:43:02.998Z</time></trkpt><trkpt lat="43.635259947039465" lon="11.04946803698069"><ele>215.75</ele><time>2026-05-01T08:43:03.998Z</time></trkpt><trkpt lat="43.635213765073935" lon="11.049315715461631"><ele>218.0</ele><time>2026-05-01T08:43:04.998Z</time></trkpt><trkpt lat="43.63515095951639" lon="11.049176522993168"><ele>217.75</ele><time>2026-05-01T08:43:05.998Z</time></trkpt><trkpt lat="43.635072799014345" lon="11.049042454795744"><ele>217.5</ele><time>2026-05-01T08:43:06.998Z</time></trkpt><trkpt lat="43.634990267270716" lon="11.048917767593032"><ele>217.25</ele><time>2026-05-01T08:43:07.998Z</time></trkpt><trkpt lat="43.63490221413987" lon="11.048815990939318"><ele>217.0</ele><time>2026-05-01T08:43:08.998Z</time></trkpt><trkpt lat="43.634814241817665" lon="11.048708043987642"><ele>217.0</ele><time>2026-05-01T08:43:09.998Z</time></trkpt><trkpt lat="43.63470202044001" lon="11.04865241663198"><ele>217.0</ele><time>2026-05-01T08:43:10.998Z</time></trkpt><trkpt lat="43.63459596307332" lon="11.04857497714778"><ele>217.0</ele><time>2026-05-01T08:43:11.998Z</time></trkpt><trkpt lat="43.634481725585864" lon="11.04851290821737"><ele>217.0</ele><time>2026-05-01T08:43:12.998Z</time></trkpt><trkpt lat="43.634365544941865" lon="11.048449928764562"><ele>215.0</ele><time>2026-05-01T08:43:13.998Z</time></trkpt><trkpt lat="43.63425396069067" lon="11.048386413112251"><ele>213.0</ele><time>2026-05-01T08:43:14.998Z</time></trkpt><trkpt lat="43.63413774759823" lon="11.04831678450415"><ele>211.0</ele><time>2026-05-01T08:43:15.998Z</time></trkpt><trkpt lat="43.63403467507928" lon="11.048230559737572"><ele>209.0</ele><time>2026-05-01T08:43:16.998Z</time></trkpt><trkpt lat="43.63392695187671" lon="11.048146287315907"><ele>207.75</ele><time>2026-05-01T08:43:17.998Z</time></trkpt><trkpt lat="43.63384435421458" lon="11.04802490177921"><ele>206.5</ele><time>2026-05-01T08:43:18.998Z</time></trkpt><trkpt lat="43.633767143063125" lon="11.047906491417905"><ele>205.25</ele><time>2026-05-01T08:43:19.998Z</time></trkpt><trkpt lat="43.63368950057914" lon="11.047790644603433"><ele>204.0</ele><time>2026-05-01T08:43:20.998Z</time></trkpt><trkpt lat="43.63360902163533" lon="11.047676589462585"><ele>203.0</ele><time>2026-05-01T08:43:21.998Z</time></trkpt><trkpt lat="43.633527730158065" lon="11.047566694391577"><ele>202.0</ele><time>2026-05-01T08:43:22.998Z</time></trkpt><trkpt lat="43.63345729940545" lon="11.047441161832987"><ele>201.0</ele><time>2026-05-01T08:43:23.998Z</time></trkpt><trkpt lat="43.63337367151946" lon="11.047328927462798"><ele>200.0</ele><time>2026-05-01T08:43:24.998Z</time></trkpt><trkpt lat="43.63329082748453" lon="11.047219387374119"><ele>198.8</ele><time>2026-05-01T08:43:25.998Z</time></trkpt><trkpt lat="43.633209912792815" lon="11.047112398363007"><ele>197.6</ele><time>2026-05-01T08:43:26.998Z</time></trkpt><trkpt lat="43.63313085407089" lon="11.047007053810773"><ele>196.39999999999998</ele><time>2026-05-01T08:43:27.998Z</time></trkpt><trkpt lat="43.63305509051381" lon="11.046903556472511"><ele>195.2</ele><time>2026-05-01T08:43:28.998Z</time></trkpt><trkpt lat="43.63297427744067" lon="11.046812212961264"><ele>194.0</ele><time>2026-05-01T08:43:29.998Z</time></trkpt><trkpt lat="43.63291980912806" lon="11.046697062628276"><ele>193.6</ele><time>2026-05-01T08:43:30.998Z</time></trkpt><trkpt lat="43.63284046179089" lon="11.046611212435812"><ele>193.2</ele><time>2026-05-01T08:43:31.998Z</time></trkpt><trkpt lat="43.63278550973604" lon="11.046489490578882"><ele>192.79999999999998</ele><time>2026-05-01T08:43:32.999Z</time></trkpt><trkpt lat="43.63272029365556" lon="11.046372230751166"><ele>192.39999999999998</ele><time>2026-05-01T08:43:33.999Z</time></trkpt><trkpt lat="43.63264753963442" lon="11.046248299278945"><ele>192.0</ele><time>2026-05-01T08:43:34.999Z</time></trkpt><trkpt lat="43.63262231607166" lon="11.046086883893743"><ele>192.0</ele><time>2026-05-01T08:43:35.999Z</time></trkpt><trkpt lat="43.632563357583734" lon="11.045945294930267"><ele>192.0</ele><time>2026-05-01T08:43:36.999Z</time></trkpt><trkpt lat="43.63251113406315" lon="11.04581232444929"><ele>192.0</ele><time>2026-05-01T08:43:37.999Z</time></trkpt><trkpt lat="43.6324699030873" lon="11.045683616783846"><ele>192.0</ele><time>2026-05-01T08:43:38.999Z</time></trkpt><trkpt lat="43.63242212076877" lon="11.045566081999528"><ele>192.0</ele><time>2026-05-01T08:43:39.999Z</time></trkpt><trkpt lat="43.632376417227064" lon="11.045453589935589"><ele>190.83333333333334</ele><time>2026-05-01T08:43:40.999Z</time></trkpt><trkpt lat="43.632335545659885" lon="11.045352567811436"><ele>189.66666666666666</ele><time>2026-05-01T08:43:41.999Z</time></trkpt><trkpt lat="43.63229178994893" lon="11.045248221361422"><ele>188.5</ele><time>2026-05-01T08:43:42.999Z</time></trkpt><trkpt lat="43.63223707109162" lon="11.045163271319316"><ele>187.33333333333331</ele><time>2026-05-01T08:43:43.999Z</time></trkpt><trkpt lat="43.63220385356025" lon="11.045089353789587"><ele>186.16666666666666</ele><time>2026-05-01T08:43:44.999Z</time></trkpt><trkpt lat="43.63217167167667" lon="11.044984692021755"><ele>185.0</ele><time>2026-05-01T08:43:45.999Z</time></trkpt><trkpt lat="43.632119906568704" lon="11.044904477475844"><ele>184.0</ele><time>2026-05-01T08:43:46.999Z</time></trkpt><trkpt lat="43.63204887925497" lon="11.044828182846242"><ele>183.0</ele><time>2026-05-01T08:43:47.999Z</time></trkpt><trkpt lat="43.631973870938644" lon="11.044756044022146"><ele>182.0</ele><time>2026-05-01T08:43:48.999Z</time></trkpt><trkpt lat="43.631890049189956" lon="11.044681418672493"><ele>181.0</ele><time>2026-05-01T08:43:49.999Z</time></trkpt><trkpt lat="43.63180467871084" lon="11.044605415063124"><ele>180.0</ele><time>2026-05-01T08:43:50.999Z</time></trkpt><trkpt lat="43.63171455011495" lon="11.044525175111536"><ele>180.0</ele><time>2026-05-01T08:43:51.999Z</time></trkpt><trkpt lat="43.63162387760203" lon="11.044444450927726"><ele>180.0</ele><time>2026-05-01T08:43:52.999Z</time></trkpt><trkpt lat="43.6315340287978" lon="11.04436446159171"><ele>180.0</ele><time>2026-05-01T08:43:53.999Z</time></trkpt><trkpt lat="43.6314458879381" lon="11.04428599130243"><ele>180.0</ele><time>2026-05-01T08:43:54.999Z</time></trkpt><trkpt lat="43.63135889295963" lon="11.044208541150574"><ele>180.0</ele><time>2026-05-01T08:43:55.999Z</time></trkpt><trkpt lat="43.63127001784669" lon="11.044128778725268"><ele>180.25</ele><time>2026-05-01T08:43:56.999Z</time></trkpt><trkpt lat="43.63118676422872" lon="11.044042970900358"><ele>180.5</ele><time>2026-05-01T08:43:57.999Z</time></trkpt><trkpt lat="43.631117498890504" lon="11.043929276375934"><ele>180.75</ele><time>2026-05-01T08:43:58.999Z</time></trkpt><trkpt lat="43.63103751922651" lon="11.043795872845434"><ele>181.0</ele><time>2026-05-01T08:43:59.999Z</time></trkpt><trkpt lat="43.63096255227605" lon="11.043668975666636"><ele>181.0</ele><time>2026-05-01T08:44:00.999Z</time></trkpt><trkpt lat="43.6308899930087" lon="11.04353954549054"><ele>181.0</ele><time>2026-05-01T08:44:01.999Z</time></trkpt><trkpt lat="43.63081910519988" lon="11.043419634873647"><ele>181.0</ele><time>2026-05-01T08:44:02.999Z</time></trkpt><trkpt lat="43.63074364900833" lon="11.043314603459734"><ele>181.0</ele><time>2026-05-01T08:44:03.999Z</time></trkpt><trkpt lat="43.630661532303016" lon="11.043259528128674"><ele>181.0</ele><time>2026-05-01T08:44:04.999Z</time></trkpt><trkpt lat="43.63060185997497" lon="11.043189091375849"><ele>179.60000000000002</ele><time>2026-05-01T08:44:05.999Z</time></trkpt><trkpt lat="43.630535944790594" lon="11.04313875386739"><ele>178.2</ele><time>2026-05-01T08:44:06.999Z</time></trkpt><trkpt lat="43.63042862363809" lon="11.043143718257097"><ele>176.8</ele><time>2026-05-01T08:44:07.999Z</time></trkpt><trkpt lat="43.63032554211009" lon="11.043163742618535"><ele>175.39999999999998</ele><time>2026-05-01T08:44:08.999Z</time></trkpt><trkpt lat="43.63020948255556" lon="11.043184852668528"><ele>174.0</ele><time>2026-05-01T08:44:09.999Z</time></trkpt><trkpt lat="43.630092157090694" lon="11.043225476341089"><ele>173.25</ele><time>2026-05-01T08:44:10.999Z</time></trkpt><trkpt lat="43.62998229944126" lon="11.0432573734114"><ele>172.5</ele><time>2026-05-01T08:44:11.999Z</time></trkpt><trkpt lat="43.629877285141625" lon="11.043273769823887"><ele>171.75</ele><time>2026-05-01T08:44:12.999Z</time></trkpt><trkpt lat="43.62976649106543" lon="11.043276942334975"><ele>171.0</ele><time>2026-05-01T08:44:13.999Z</time></trkpt><trkpt lat="43.629650966819476" lon="11.04322629522931"><ele>171.0</ele><time>2026-05-01T08:44:14.999Z</time></trkpt><trkpt lat="43.62953208887894" lon="11.04320131111144"><ele>171.0</ele><time>2026-05-01T08:44:15.999Z</time></trkpt><trkpt lat="43.6294124656147" lon="11.043172577421755"><ele>171.0</ele><time>2026-05-01T08:44:16.999Z</time></trkpt><trkpt lat="43.629298842295825" lon="11.043140110120722"><ele>171.0</ele><time>2026-05-01T08:44:17.999Z</time></trkpt><trkpt lat="43.62919087043144" lon="11.043102000811427"><ele>169.20000000000002</ele><time>2026-05-01T08:44:18.999Z</time></trkpt><trkpt lat="43.62908544686107" lon="11.043057037946827"><ele>167.4</ele><time>2026-05-01T08:44:19.999Z</time></trkpt><trkpt lat="43.62898475667869" lon="11.043001974301076"><ele>165.6</ele><time>2026-05-01T08:44:20.999Z</time></trkpt><trkpt lat="43.62889277882411" lon="11.042928021534511"><ele>163.8</ele><time>2026-05-01T08:44:21.999Z</time></trkpt><trkpt lat="43.62879540775164" lon="11.042850386714862"><ele>162.0</ele><time>2026-05-01T08:44:22.999Z</time></trkpt><trkpt lat="43.62868469105457" lon="11.042792495963237"><ele>162.0</ele><time>2026-05-01T08:44:23.999Z</time></trkpt><trkpt lat="43.62858046743557" lon="11.042715203825594"><ele>162.0</ele><time>2026-05-01T08:44:24.999Z</time></trkpt><trkpt lat="43.628482813222085" lon="11.04262348443944"><ele>162.0</ele><time>2026-05-01T08:44:25.999Z</time></trkpt><trkpt lat="43.628366525071506" lon="11.042572507137352"><ele>162.0</ele><time>2026-05-01T08:44:26.999Z</time></trkpt><trkpt lat="43.62824813378714" lon="11.042504028856682"><ele>160.75</ele><time>2026-05-01T08:44:27.999Z</time></trkpt><trkpt lat="43.628133974620134" lon="11.042419695858033"><ele>159.5</ele><time>2026-05-01T08:44:28.999Z</time></trkpt><trkpt lat="43.628013622573334" lon="11.0423535848984"><ele>158.25</ele><time>2026-05-01T08:44:29.999Z</time></trkpt><trkpt lat="43.62789610292094" lon="11.042284734448504"><ele>157.0</ele><time>2026-05-01T08:44:30.999Z</time></trkpt><trkpt lat="43.627777282802434" lon="11.042229560831252"><ele>157.0</ele><time>2026-05-01T08:44:31.999Z</time></trkpt><trkpt lat="43.627678060451956" lon="11.042153343950352"><ele>157.0</ele><time>2026-05-01T08:44:32.999Z</time></trkpt><trkpt lat="43.62759568905371" lon="11.042094035664798"><ele>157.0</ele><time>2026-05-01T08:44:33.999Z</time></trkpt><trkpt lat="43.62752464742737" lon="11.042042020393467"><ele>157.0</ele><time>2026-05-01T08:44:34.999Z</time></trkpt><trkpt lat="43.62745157252937" lon="11.042002541567602"><ele>157.0</ele><time>2026-05-01T08:44:35.999Z</time></trkpt><trkpt lat="43.6273715606589" lon="11.041959296768242"><ele>157.0</ele><time>2026-05-01T08:44:36.999Z</time></trkpt><trkpt lat="43.62728844476032" lon="11.041938058808826"><ele>157.0</ele><time>2026-05-01T08:44:37.999Z</time></trkpt><trkpt lat="43.62720064190639" lon="11.041909129297157"><ele>157.0</ele><time>2026-05-01T08:44:38.999Z</time></trkpt><trkpt lat="43.62711779497211" lon="11.041870805707381"><ele>157.0</ele><time>2026-05-01T08:44:39.999Z</time></trkpt><trkpt lat="43.627029704552854" lon="11.041807069002468"><ele>157.0</ele><time>2026-05-01T08:44:40.999Z</time></trkpt><trkpt lat="43.62695980304332" lon="11.041695608963527"><ele>155.4</ele><time>2026-05-01T08:44:41.999Z</time></trkpt><trkpt lat="43.626886726334135" lon="11.041595277324726"><ele>153.79999999999998</ele><time>2026-05-01T08:44:42.999Z</time></trkpt><trkpt lat="43.626864750466666" lon="11.041445381565067"><ele>152.2</ele><time>2026-05-01T08:44:43.999Z</time></trkpt><trkpt lat="43.62681532301662" lon="11.041304890557823"><ele>150.6</ele><time>2026-05-01T08:44:44.999Z</time></trkpt><trkpt lat="43.62677917333664" lon="11.041157682195815"><ele>149.0</ele><time>2026-05-01T08:44:45.999Z</time></trkpt><trkpt lat="43.626746384027726" lon="11.041009521876454"><ele>149.0</ele><time>2026-05-01T08:44:46.999Z</time></trkpt><trkpt lat="43.62673553830489" lon="11.040852511164779"><ele>149.0</ele><time>2026-05-01T08:44:47.999Z</time></trkpt><trkpt lat="43.62674621196205" lon="11.040692861257085"><ele>149.0</ele><time>2026-05-01T08:44:48.999Z</time></trkpt><trkpt lat="43.6267777035283" lon="11.040543188471768"><ele>149.0</ele><time>2026-05-01T08:44:49.999Z</time></trkpt><trkpt lat="43.626816064617636" lon="11.040401929682846"><ele>148.75</ele><time>2026-05-01T08:44:50.999Z</time></trkpt><trkpt lat="43.6268283253956" lon="11.040263485204951"><ele>148.5</ele><time>2026-05-01T08:44:51.999Z</time></trkpt><trkpt lat="43.626820689136146" lon="11.040104863371182"><ele>148.25</ele><time>2026-05-01T08:44:52.999Z</time></trkpt><trkpt lat="43.62679465048363" lon="11.039945047216827"><ele>148.0</ele><time>2026-05-01T08:44:53.999Z</time></trkpt><trkpt lat="43.626772449045646" lon="11.039780795276574"><ele>148.0</ele><time>2026-05-01T08:44:54.999Z</time></trkpt><trkpt lat="43.626746790222235" lon="11.039620572437675"><ele>148.0</ele><time>2026-05-01T08:44:55.999Z</time></trkpt><trkpt lat="43.626708119006025" lon="11.039467788163874"><ele>148.0</ele><time>2026-05-01T08:44:56.999Z</time></trkpt><trkpt lat="43.62665534240892" lon="11.039325570066367"><ele>148.0</ele><time>2026-05-01T08:44:57.999Z</time></trkpt><trkpt lat="43.62658657763598" lon="11.039202092422055"><ele>147.75</ele><time>2026-05-01T08:44:58.999Z</time></trkpt><trkpt lat="43.62650800161973" lon="11.039086420452913"><ele>147.5</ele><time>2026-05-01T08:44:59.999Z</time></trkpt><trkpt lat="43.62642257653134" lon="11.03898099539945"><ele>147.25</ele><time>2026-05-01T08:45:00.999Z</time></trkpt><trkpt lat="43.626323864095546" lon="11.038888675290703"><ele>147.0</ele><time>2026-05-01T08:45:01.999Z</time></trkpt><trkpt lat="43.626210650821264" lon="11.038804811242692"><ele>148.25</ele><time>2026-05-01T08:45:02.999Z</time></trkpt><trkpt lat="43.62609003343618" lon="11.038728470563646"><ele>149.5</ele><time>2026-05-01T08:45:03.999Z</time></trkpt><trkpt lat="43.625965537088625" lon="11.038651667175108"><ele>150.75</ele><time>2026-05-01T08:45:04.999Z</time></trkpt><trkpt lat="43.62585024635508" lon="11.038576575970927"><ele>152.0</ele><time>2026-05-01T08:45:05.999Z</time></trkpt><trkpt lat="43.62574373299168" lon="11.038501440271963"><ele>152.0</ele><time>2026-05-01T08:45:06.999Z</time></trkpt><trkpt lat="43.62564166159609" lon="11.038428025917925"><ele>152.0</ele><time>2026-05-01T08:45:07.999Z</time></trkpt><trkpt lat="43.62555237017918" lon="11.038322386619107"><ele>152.0</ele><time>2026-05-01T08:45:08.998Z</time></trkpt><trkpt lat="43.62545225648601" lon="11.03822473385967"><ele>152.0</ele><time>2026-05-01T08:45:09.998Z</time></trkpt><trkpt lat="43.62534472651257" lon="11.038118864325295"><ele>152.0</ele><time>2026-05-01T08:45:10.998Z</time></trkpt><trkpt lat="43.62522739589371" lon="11.038023052716493"><ele>152.0</ele><time>2026-05-01T08:45:11.998Z</time></trkpt><trkpt lat="43.625120135301" lon="11.037919533433639"><ele>152.0</ele><time>2026-05-01T08:45:12.998Z</time></trkpt><trkpt lat="43.625016346112005" lon="11.037816451698458"><ele>152.0</ele><time>2026-05-01T08:45:13.998Z</time></trkpt><trkpt lat="43.62491246762472" lon="11.037713643024642"><ele>152.0</ele><time>2026-05-01T08:45:14.998Z</time></trkpt><trkpt lat="43.62482253971255" lon="11.037594454804987"><ele>152.0</ele><time>2026-05-01T08:45:15.998Z</time></trkpt><trkpt lat="43.62471032746512" lon="11.03750800581097"><ele>152.0</ele><time>2026-05-01T08:45:16.998Z</time></trkpt><trkpt lat="43.62460764295374" lon="11.037402977074205"><ele>152.0</ele><time>2026-05-01T08:45:17.998Z</time></trkpt><trkpt lat="43.62450503729956" lon="11.037294285916385"><ele>152.75</ele><time>2026-05-01T08:45:18.998Z</time></trkpt><trkpt lat="43.6244131030038" lon="11.037160387642807"><ele>153.5</ele><time>2026-05-01T08:45:19.998Z</time></trkpt><trkpt lat="43.624301321971934" lon="11.037055546632013"><ele>154.25</ele><time>2026-05-01T08:45:20.998Z</time></trkpt><trkpt lat="43.62420097200852" lon="11.036927964768402"><ele>155.0</ele><time>2026-05-01T08:45:21.998Z</time></trkpt><trkpt lat="43.62410378452108" lon="11.036793621723096"><ele>154.0</ele><time>2026-05-01T08:45:22.998Z</time></trkpt><trkpt lat="43.62402603459604" lon="11.036636145142738"><ele>153.0</ele><time>2026-05-01T08:45:23.998Z</time></trkpt><trkpt lat="43.62392785975414" lon="11.036510256991606"><ele>152.0</ele><time>2026-05-01T08:45:24.998Z</time></trkpt><trkpt lat="43.62384378137568" lon="11.03637082314644"><ele>151.0</ele><time>2026-05-01T08:45:25.998Z</time></trkpt><trkpt lat="43.62376500917721" lon="11.036233726093458"><ele>151.0</ele><time>2026-05-01T08:45:26.998Z</time></trkpt><trkpt lat="43.623686969660945" lon="11.036097815119552"><ele>151.0</ele><time>2026-05-01T08:45:27.998Z</time></trkpt><trkpt lat="43.623606782552876" lon="11.03596719665971"><ele>151.0</ele><time>2026-05-01T08:45:28.998Z</time></trkpt><trkpt lat="43.62352472024849" lon="11.035837730498828"><ele>151.0</ele><time>2026-05-01T08:45:29.998Z</time></trkpt><trkpt lat="43.62344254513861" lon="11.035705466245318"><ele>152.0</ele><time>2026-05-01T08:45:30.998Z</time></trkpt><trkpt lat="43.62335987443793" lon="11.0355680208191"><ele>153.0</ele><time>2026-05-01T08:45:31.998Z</time></trkpt><trkpt lat="43.6232761322742" lon="11.035429151555727"><ele>154.0</ele><time>2026-05-01T08:45:32.998Z</time></trkpt><trkpt lat="43.62318931773439" lon="11.035290485820552"><ele>155.0</ele><time>2026-05-01T08:45:33.998Z</time></trkpt><trkpt lat="43.62310352911405" lon="11.03515294864394"><ele>155.0</ele><time>2026-05-01T08:45:34.998Z</time></trkpt><trkpt lat="43.623020150793714" lon="11.035018731071174"><ele>155.0</ele><time>2026-05-01T08:45:35.998Z</time></trkpt><trkpt lat="43.62293930094124" lon="11.034889649170621"><ele>155.0</ele><time>2026-05-01T08:45:36.998Z</time></trkpt><trkpt lat="43.622858809278924" lon="11.034765602527505"><ele>155.0</ele><time>2026-05-01T08:45:37.998Z</time></trkpt><trkpt lat="43.62277822378899" lon="11.034643548264564"><ele>154.0</ele><time>2026-05-01T08:45:39Z</time></trkpt><trkpt lat="43.622707819389575" lon="11.034514407597344"><ele>153.0</ele><time>2026-05-01T08:45:40Z</time></trkpt><trkpt lat="43.6226522018271" lon="11.034376289435235"><ele>152.0</ele><time>2026-05-01T08:45:41Z</time></trkpt><trkpt lat="43.62260080546899" lon="11.03423929974698"><ele>151.0</ele><time>2026-05-01T08:45:42Z</time></trkpt><trkpt lat="43.622554716089944" lon="11.034102508268015"><ele>151.0</ele><time>2026-05-01T08:45:43Z</time></trkpt><trkpt lat="43.622503046374845" lon="11.033970311181115"><ele>151.0</ele><time>2026-05-01T08:45:44Z</time></trkpt><trkpt lat="43.62244952482238" lon="11.033838223166637"><ele>151.0</ele><time>2026-05-01T08:45:45Z</time></trkpt><trkpt lat="43.62239204454114" lon="11.033712566833156"><ele>151.0</ele><time>2026-05-01T08:45:46Z</time></trkpt><trkpt lat="43.62233465058709" lon="11.03359253132878"><ele>151.0</ele><time>2026-05-01T08:45:47Z</time></trkpt><trkpt lat="43.62228458954958" lon="11.033481075104007"><ele>151.0</ele><time>2026-05-01T08:45:48Z</time></trkpt><trkpt lat="43.62223576215478" lon="11.033379230244218"><ele>151.0</ele><time>2026-05-01T08:45:49Z</time></trkpt><trkpt lat="43.62217197520284" lon="11.03328393314224"><ele>151.0</ele><time>2026-05-01T08:45:50Z</time></trkpt><trkpt lat="43.62210516860606" lon="11.033196574686604"><ele>151.0</ele><time>2026-05-01T08:45:51Z</time></trkpt><trkpt lat="43.62203832693141" lon="11.033108277694911"><ele>151.0</ele><time>2026-05-01T08:45:52Z</time></trkpt><trkpt lat="43.621978058601506" lon="11.03302125171782"><ele>148.0</ele><time>2026-05-01T08:45:53Z</time></trkpt><trkpt lat="43.62192086668543" lon="11.032938711750926"><ele>145.0</ele><time>2026-05-01T08:45:54Z</time></trkpt><trkpt lat="43.62186308102646" lon="11.032867038304973"><ele>142.0</ele><time>2026-05-01T08:45:54.999Z</time></trkpt><trkpt lat="43.62178640930397" lon="11.032803044728063"><ele>139.0</ele><time>2026-05-01T08:45:55.999Z</time></trkpt><trkpt lat="43.621691658758294" lon="11.032748340277509"><ele>136.0</ele><time>2026-05-01T08:45:56.999Z</time></trkpt><trkpt lat="43.62158738358138" lon="11.03268951740692"><ele>136.0</ele><time>2026-05-01T08:45:57.999Z</time></trkpt><trkpt lat="43.62148226408741" lon="11.03262782714557"><ele>136.0</ele><time>2026-05-01T08:45:58.999Z</time></trkpt><trkpt lat="43.62137857045813" lon="11.03257231808515"><ele>136.0</ele><time>2026-05-01T08:45:59.999Z</time></trkpt><trkpt lat="43.621279828144026" lon="11.032512542353214"><ele>136.0</ele><time>2026-05-01T08:46:00.999Z</time></trkpt><trkpt lat="43.62119141950685" lon="11.0324250348674"><ele>136.0</ele><time>2026-05-01T08:46:01.999Z</time></trkpt><trkpt lat="43.621118881996644" lon="11.032311235794962"><ele>136.2</ele><time>2026-05-01T08:46:02.999Z</time></trkpt><trkpt lat="43.62106901111727" lon="11.032177787987724"><ele>136.39999999999998</ele><time>2026-05-01T08:46:03.999Z</time></trkpt><trkpt lat="43.62102577712356" lon="11.03204297395055"><ele>136.6</ele><time>2026-05-01T08:46:04.999Z</time></trkpt><trkpt lat="43.62099098547953" lon="11.031917230702478"><ele>136.79999999999998</ele><time>2026-05-01T08:46:05.999Z</time></trkpt><trkpt lat="43.620957892317534" lon="11.031794674105"><ele>137.0</ele><time>2026-05-01T08:46:06.999Z</time></trkpt><trkpt lat="43.620915050378436" lon="11.031661670148717"><ele>136.2</ele><time>2026-05-01T08:46:07.999Z</time></trkpt><trkpt lat="43.620872871703824" lon="11.031531530567484"><ele>135.39999999999998</ele><time>2026-05-01T08:46:08.999Z</time></trkpt><trkpt lat="43.620833587437424" lon="11.031402091867363"><ele>134.60000000000002</ele><time>2026-05-01T08:46:09.999Z</time></trkpt><trkpt lat="43.62081107606951" lon="11.031266029876814"><ele>133.8</ele><time>2026-05-01T08:46:10.999Z</time></trkpt><trkpt lat="43.62080124043784" lon="11.031117446344558"><ele>133.0</ele><time>2026-05-01T08:46:11.999Z</time></trkpt><trkpt lat="43.62080676083437" lon="11.03096095286338"><ele>132.5</ele><time>2026-05-01T08:46:12.999Z</time></trkpt><trkpt lat="43.620825901677556" lon="11.030806665738483"><ele>132.0</ele><time>2026-05-01T08:46:13.999Z</time></trkpt><trkpt lat="43.62084702833266" lon="11.030650637946117"><ele>131.5</ele><time>2026-05-01T08:46:14.999Z</time></trkpt><trkpt lat="43.6208750384739" lon="11.030500756292033"><ele>131.0</ele><time>2026-05-01T08:46:15.999Z</time></trkpt><trkpt lat="43.62089538808839" lon="11.030345418002153"><ele>131.0</ele><time>2026-05-01T08:46:16.999Z</time></trkpt><trkpt lat="43.62090558404664" lon="11.030197120310598"><ele>131.0</ele><time>2026-05-01T08:46:17.999Z</time></trkpt><trkpt lat="43.62088784099375" lon="11.030068604120869"><ele>131.0</ele><time>2026-05-01T08:46:18.999Z</time></trkpt><trkpt lat="43.62085201836534" lon="11.029956664206546"><ele>131.0</ele><time>2026-05-01T08:46:19.999Z</time></trkpt><trkpt lat="43.62080651677268" lon="11.0298551700873"><ele>131.0</ele><time>2026-05-01T08:46:20.999Z</time></trkpt><trkpt lat="43.62075053612876" lon="11.029772813388702"><ele>128.0</ele><time>2026-05-01T08:46:21.999Z</time></trkpt><trkpt lat="43.620676816273274" lon="11.029699524640833"><ele>125.0</ele><time>2026-05-01T08:46:22.999Z</time></trkpt><trkpt lat="43.62060387477862" lon="11.029629363836225"><ele>122.0</ele><time>2026-05-01T08:46:23.999Z</time></trkpt><trkpt lat="43.62051875999421" lon="11.02956085195592"><ele>119.0</ele><time>2026-05-01T08:46:24.999Z</time></trkpt><trkpt lat="43.620425394403284" lon="11.029486288883437"><ele>116.0</ele><time>2026-05-01T08:46:25.999Z</time></trkpt><trkpt lat="43.62032913644657" lon="11.029411428160286"><ele>117.4</ele><time>2026-05-01T08:46:26.999Z</time></trkpt><trkpt lat="43.62023319883888" lon="11.029338017606023"><ele>118.8</ele><time>2026-05-01T08:46:27.999Z</time></trkpt><trkpt lat="43.62013422590187" lon="11.029264790714665"><ele>120.20000000000002</ele><time>2026-05-01T08:46:28.999Z</time></trkpt><trkpt lat="43.62004070389754" lon="11.029193944226343"><ele>121.60000000000001</ele><time>2026-05-01T08:46:29.999Z</time></trkpt><trkpt lat="43.61995211060888" lon="11.029126912637683"><ele>123.0</ele><time>2026-05-01T08:46:30.999Z</time></trkpt><trkpt lat="43.61985735295133" lon="11.029054669677341"><ele>120.5</ele><time>2026-05-01T08:46:31.999Z</time></trkpt><trkpt lat="43.61976028592905" lon="11.028983545393801"><ele>118.0</ele><time>2026-05-01T08:46:32.999Z</time></trkpt><trkpt lat="43.619655306946385" lon="11.028917066018044"><ele>115.5</ele><time>2026-05-01T08:46:33.999Z</time></trkpt><trkpt lat="43.619546069167974" lon="11.02885387803661"><ele>113.0</ele><time>2026-05-01T08:46:34.999Z</time></trkpt><trkpt lat="43.619430744639665" lon="11.028794413369987"><ele>113.0</ele><time>2026-05-01T08:46:35.999Z</time></trkpt><trkpt lat="43.619304044655436" lon="11.028730206940143"><ele>113.0</ele><time>2026-05-01T08:46:36.999Z</time></trkpt><trkpt lat="43.6191748245613" lon="11.02866522134033"><ele>113.0</ele><time>2026-05-01T08:46:37.999Z</time></trkpt><trkpt lat="43.61903507383436" lon="11.028599928554987"><ele>113.0</ele><time>2026-05-01T08:46:38.999Z</time></trkpt><trkpt lat="43.618893109243665" lon="11.028530851363303"><ele>113.0</ele><time>2026-05-01T08:46:39.999Z</time></trkpt><trkpt lat="43.61875640965926" lon="11.028467186128516"><ele>113.0</ele><time>2026-05-01T08:46:40.999Z</time></trkpt><trkpt lat="43.61861972799802" lon="11.028412630829964"><ele>113.0</ele><time>2026-05-01T08:46:41.999Z</time></trkpt><trkpt lat="43.61848187031856" lon="11.028379246082412"><ele>113.0</ele><time>2026-05-01T08:46:42.999Z</time></trkpt><trkpt lat="43.61833977552132" lon="11.028361982795795"><ele>113.0</ele><time>2026-05-01T08:46:43.999Z</time></trkpt><trkpt lat="43.618194782650804" lon="11.02835366227237"><ele>113.0</ele><time>2026-05-01T08:46:44.999Z</time></trkpt><trkpt lat="43.61805121867899" lon="11.028354776310024"><ele>113.0</ele><time>2026-05-01T08:46:45.999Z</time></trkpt><trkpt lat="43.617903370207486" lon="11.028335052402424"><ele>113.0</ele><time>2026-05-01T08:46:46.999Z</time></trkpt><trkpt lat="43.61775211685215" lon="11.02835476882272"><ele>111.25</ele><time>2026-05-01T08:46:47.999Z</time></trkpt><trkpt lat="43.61760299647365" lon="11.028348334513318"><ele>109.5</ele><time>2026-05-01T08:46:48.999Z</time></trkpt><trkpt lat="43.61745672627407" lon="11.028330540855764"><ele>107.75</ele><time>2026-05-01T08:46:49.999Z</time></trkpt><trkpt lat="43.61733059776018" lon="11.028278048990177"><ele>106.0</ele><time>2026-05-01T08:46:50.999Z</time></trkpt><trkpt lat="43.61723266999702" lon="11.028162089860345"><ele>104.0</ele><time>2026-05-01T08:46:51.999Z</time></trkpt><trkpt lat="43.61717013853734" lon="11.028014139066444"><ele>102.0</ele><time>2026-05-01T08:46:52.999Z</time></trkpt><trkpt lat="43.61710935638184" lon="11.02785825642673"><ele>100.0</ele><time>2026-05-01T08:46:53.999Z</time></trkpt><trkpt lat="43.61704763186726" lon="11.02771196040489"><ele>98.0</ele><time>2026-05-01T08:46:54.999Z</time></trkpt><trkpt lat="43.61700423764503" lon="11.027557417076364"><ele>96.25</ele><time>2026-05-01T08:46:55.999Z</time></trkpt><trkpt lat="43.61695305747895" lon="11.027404061262995"><ele>94.5</ele><time>2026-05-01T08:46:56.999Z</time></trkpt><trkpt lat="43.616888819588056" lon="11.027260165235596"><ele>92.75</ele><time>2026-05-01T08:46:57.999Z</time></trkpt><trkpt lat="43.61680616746515" lon="11.027142896706405"><ele>91.0</ele><time>2026-05-01T08:46:58.999Z</time></trkpt><trkpt lat="43.61670506542722" lon="11.027037066548784"><ele>91.0</ele><time>2026-05-01T08:46:59.999Z</time></trkpt><trkpt lat="43.61659891969944" lon="11.026942810128304"><ele>91.0</ele><time>2026-05-01T08:47:00.999Z</time></trkpt><trkpt lat="43.61650444578925" lon="11.026851650638278"><ele>91.0</ele><time>2026-05-01T08:47:01.999Z</time></trkpt><trkpt lat="43.616428661344465" lon="11.026768116181291"><ele>91.0</ele><time>2026-05-01T08:47:02.999Z</time></trkpt><trkpt lat="43.61637558823053" lon="11.026686226492735"><ele>91.0</ele><time>2026-05-01T08:47:03.999Z</time></trkpt><trkpt lat="43.616351876489475" lon="11.026590614737563"><ele>89.33333333333333</ele><time>2026-05-01T08:47:04.999Z</time></trkpt><trkpt lat="43.616355381538845" lon="11.026477027837148"><ele>87.66666666666666</ele><time>2026-05-01T08:47:05.999Z</time></trkpt><trkpt lat="43.61640148479166" lon="11.026352627454276"><ele>86.0</ele><time>2026-05-01T08:47:06.999Z</time></trkpt><trkpt lat="43.61646492005318" lon="11.02627981413905"><ele>84.33333333333333</ele><time>2026-05-01T08:47:07.999Z</time></trkpt><trkpt lat="43.616545977611466" lon="11.026262525861759"><ele>82.66666666666667</ele><time>2026-05-01T08:47:08.999Z</time></trkpt><trkpt lat="43.61662161231645" lon="11.026286584215196"><ele>81.0</ele><time>2026-05-01T08:47:09.999Z</time></trkpt><trkpt lat="43.61669072206369" lon="11.02634438564798"><ele>81.0</ele><time>2026-05-01T08:47:10.999Z</time></trkpt><trkpt lat="43.61675412968366" lon="11.02637389629466"><ele>81.0</ele><time>2026-05-01T08:47:11.999Z</time></trkpt><trkpt lat="43.61682571161175" lon="11.026386989992757"><ele>81.0</ele><time>2026-05-01T08:47:12.999Z</time></trkpt><trkpt lat="43.61688946789228" lon="11.026351136562267"><ele>81.0</ele><time>2026-05-01T08:47:13.999Z</time></trkpt><trkpt lat="43.61693493176611" lon="11.02626280838544"><ele>81.0</ele><time>2026-05-01T08:47:14.999Z</time></trkpt><trkpt lat="43.61694196453592" lon="11.026146393691981"><ele>81.0</ele><time>2026-05-01T08:47:15.999Z</time></trkpt><trkpt lat="43.6169148548177" lon="11.026018267994653"><ele>81.0</ele><time>2026-05-01T08:47:16.998Z</time></trkpt><trkpt lat="43.61685978453104" lon="11.0259067105975"><ele>81.0</ele><time>2026-05-01T08:47:17.998Z</time></trkpt><trkpt lat="43.616772890260485" lon="11.025819036065089"><ele>81.0</ele><time>2026-05-01T08:47:18.998Z</time></trkpt><trkpt lat="43.61667127137165" lon="11.025753346284407"><ele>81.0</ele><time>2026-05-01T08:47:19.998Z</time></trkpt><trkpt lat="43.616568507607234" lon="11.025684484813395"><ele>81.0</ele><time>2026-05-01T08:47:20.998Z</time></trkpt><trkpt lat="43.61646623692236" lon="11.02561378115322"><ele>79.75</ele><time>2026-05-01T08:47:21.998Z</time></trkpt><trkpt lat="43.616366910432134" lon="11.025542994449676"><ele>78.5</ele><time>2026-05-01T08:47:22.998Z</time></trkpt><trkpt lat="43.61626178292122" lon="11.02546870172936"><ele>77.25</ele><time>2026-05-01T08:47:23.998Z</time></trkpt><trkpt lat="43.61615448720482" lon="11.025405298747842"><ele>76.0</ele><time>2026-05-01T08:47:24.998Z</time></trkpt><trkpt lat="43.616052100868295" lon="11.025332664426953"><ele>75.25</ele><time>2026-05-01T08:47:25.998Z</time></trkpt><trkpt lat="43.61594711750528" lon="11.025254027115507"><ele>74.5</ele><time>2026-05-01T08:47:26.998Z</time></trkpt><trkpt lat="43.61584388182691" lon="11.02515509549712"><ele>73.75</ele><time>2026-05-01T08:47:27.998Z</time></trkpt><trkpt lat="43.61575833406417" lon="11.025036577708134"><ele>73.0</ele><time>2026-05-01T08:47:28.998Z</time></trkpt><trkpt lat="43.615696718412124" lon="11.024888125682404"><ele>72.75</ele><time>2026-05-01T08:47:29.998Z</time></trkpt><trkpt lat="43.61565368358822" lon="11.024722344881615"><ele>72.5</ele><time>2026-05-01T08:47:30.998Z</time></trkpt><trkpt lat="43.61561366708966" lon="11.02454617789503"><ele>72.25</ele><time>2026-05-01T08:47:31.998Z</time></trkpt><trkpt lat="43.61556811445331" lon="11.024358775953615"><ele>72.0</ele><time>2026-05-01T08:47:32.998Z</time></trkpt><trkpt lat="43.615518683194125" lon="11.024170498481654"><ele>71.75</ele><time>2026-05-01T08:47:33.998Z</time></trkpt><trkpt lat="43.61546319241374" lon="11.0239752233405"><ele>71.5</ele><time>2026-05-01T08:47:34.998Z</time></trkpt><trkpt lat="43.61540919823561" lon="11.023782839610131"><ele>71.25</ele><time>2026-05-01T08:47:35.998Z</time></trkpt><trkpt lat="43.615364441883735" lon="11.023608221272449"><ele>71.0</ele><time>2026-05-01T08:47:36.998Z</time></trkpt><trkpt lat="43.61531939584166" lon="11.023456124117958"><ele>71.0</ele><time>2026-05-01T08:47:37.998Z</time></trkpt><trkpt lat="43.61526384749377" lon="11.023324159717793"><ele>71.0</ele><time>2026-05-01T08:47:38.998Z</time></trkpt><trkpt lat="43.61517862824346" lon="11.023230312519578"><ele>71.0</ele><time>2026-05-01T08:47:39.998Z</time></trkpt><trkpt lat="43.61506113821043" lon="11.023171064530901"><ele>71.0</ele><time>2026-05-01T08:47:40.998Z</time></trkpt><trkpt lat="43.61492410442814" lon="11.023133496746018"><ele>71.0</ele><time>2026-05-01T08:47:41.998Z</time></trkpt><trkpt lat="43.61477998229405" lon="11.02307516317209"><ele>71.0</ele><time>2026-05-01T08:47:42.998Z</time></trkpt><trkpt lat="43.614627854120876" lon="11.022995709887354"><ele>71.0</ele><time>2026-05-01T08:47:43.998Z</time></trkpt><trkpt lat="43.61446904035152" lon="11.022928281347506"><ele>70.66666666666667</ele><time>2026-05-01T08:47:45Z</time></trkpt><trkpt lat="43.61430939085343" lon="11.022837962250673"><ele>70.33333333333333</ele><time>2026-05-01T08:47:46Z</time></trkpt><trkpt lat="43.6141481077337" lon="11.0227682631269"><ele>70.0</ele><time>2026-05-01T08:47:47Z</time></trkpt><trkpt lat="43.61399699371224" lon="11.022690693088279"><ele>70.0</ele><time>2026-05-01T08:47:48Z</time></trkpt><trkpt lat="43.613858032843495" lon="11.022603161717749"><ele>70.0</ele><time>2026-05-01T08:47:49Z</time></trkpt><trkpt lat="43.61374406129265" lon="11.0224919129255"><ele>70.0</ele><time>2026-05-01T08:47:50Z</time></trkpt><trkpt lat="43.61365149202935" lon="11.022348833069584"><ele>70.0</ele><time>2026-05-01T08:47:51Z</time></trkpt><trkpt lat="43.61360663353473" lon="11.022190565605074"><ele>70.25</ele><time>2026-05-01T08:47:52Z</time></trkpt><trkpt lat="43.61356536379387" lon="11.022035477092595"><ele>70.5</ele><time>2026-05-01T08:47:53Z</time></trkpt><trkpt lat="43.61351604183671" lon="11.021896790325203"><ele>70.75</ele><time>2026-05-01T08:47:54Z</time></trkpt><trkpt lat="43.61347909750141" lon="11.021749751976301"><ele>71.0</ele><time>2026-05-01T08:47:55Z</time></trkpt><trkpt lat="43.61345905158951" lon="11.02158605300083"><ele>70.5</ele><time>2026-05-01T08:47:56Z</time></trkpt><trkpt lat="43.61342474657724" lon="11.0214290070759"><ele>70.0</ele><time>2026-05-01T08:47:57Z</time></trkpt><trkpt lat="43.61338674358019" lon="11.02125503203941"><ele>69.5</ele><time>2026-05-01T08:47:58Z</time></trkpt><trkpt lat="43.61334475073526" lon="11.021062791774499"><ele>69.0</ele><time>2026-05-01T08:47:59Z</time></trkpt><trkpt lat="43.613284699896965" lon="11.020866242852591"><ele>69.25</ele><time>2026-05-01T08:48:00Z</time></trkpt><trkpt lat="43.613250378771944" lon="11.020655969567612"><ele>69.5</ele><time>2026-05-01T08:48:01Z</time></trkpt><trkpt lat="43.61321306325321" lon="11.02047482482397"><ele>69.75</ele><time>2026-05-01T08:48:02Z</time></trkpt><trkpt lat="43.61316411654855" lon="11.020315534066116"><ele>70.0</ele><time>2026-05-01T08:48:03Z</time></trkpt><trkpt lat="43.61309480220545" lon="11.020172496566476"><ele>70.0</ele><time>2026-05-01T08:48:04Z</time></trkpt><trkpt lat="43.61300442489262" lon="11.020051513614852"><ele>70.0</ele><time>2026-05-01T08:48:05Z</time></trkpt><trkpt lat="43.612897208496" lon="11.019956894383165"><ele>70.0</ele><time>2026-05-01T08:48:06Z</time></trkpt><trkpt lat="43.61278123337132" lon="11.019880955762785"><ele>70.0</ele><time>2026-05-01T08:48:06.999Z</time></trkpt><trkpt lat="43.61266363843876" lon="11.019808828152819"><ele>69.5</ele><time>2026-05-01T08:48:07.999Z</time></trkpt><trkpt lat="43.6125472019888" lon="11.019733286801138"><ele>69.0</ele><time>2026-05-01T08:48:08.999Z</time></trkpt><trkpt lat="43.61242807388034" lon="11.019652046842783"><ele>68.5</ele><time>2026-05-01T08:48:09.999Z</time></trkpt><trkpt lat="43.61230773905588" lon="11.01957117121727"><ele>68.0</ele><time>2026-05-01T08:48:10.999Z</time></trkpt><trkpt lat="43.61218984130394" lon="11.019490540713116"><ele>68.0</ele><time>2026-05-01T08:48:11.999Z</time></trkpt><trkpt lat="43.612071396090776" lon="11.019406948738933"><ele>68.0</ele><time>2026-05-01T08:48:12.999Z</time></trkpt><trkpt lat="43.61194785420414" lon="11.019318383335257"><ele>68.0</ele><time>2026-05-01T08:48:13.999Z</time></trkpt><trkpt lat="43.611821565874365" lon="11.019228301019329"><ele>68.0</ele><time>2026-05-01T08:48:14.999Z</time></trkpt><trkpt lat="43.61169402100567" lon="11.019135509766985"><ele>67.66666666666667</ele><time>2026-05-01T08:48:15.999Z</time></trkpt><trkpt lat="43.611563256038615" lon="11.019043573590666"><ele>67.33333333333333</ele><time>2026-05-01T08:48:16.999Z</time></trkpt><trkpt lat="43.611426512352104" lon="11.018948599920469"><ele>67.0</ele><time>2026-05-01T08:48:17.999Z</time></trkpt><trkpt lat="43.611297711842596" lon="11.018827480015755"><ele>67.0</ele><time>2026-05-01T08:48:18.999Z</time></trkpt><trkpt lat="43.611163995719636" lon="11.018709438619398"><ele>67.0</ele><time>2026-05-01T08:48:19.999Z</time></trkpt><trkpt lat="43.611020423385376" lon="11.018592369158243"><ele>67.0</ele><time>2026-05-01T08:48:20.999Z</time></trkpt><trkpt lat="43.610885954566044" lon="11.018447251529846"><ele>67.33333333333333</ele><time>2026-05-01T08:48:21.999Z</time></trkpt><trkpt lat="43.61074513861321" lon="11.018298633597881"><ele>67.66666666666667</ele><time>2026-05-01T08:48:22.999Z</time></trkpt><trkpt lat="43.610599288659124" lon="11.018155473978153"><ele>68.0</ele><time>2026-05-01T08:48:23.999Z</time></trkpt><trkpt lat="43.61045146298068" lon="11.018024207015436"><ele>68.33333333333334</ele><time>2026-05-01T08:48:24.999Z</time></trkpt><trkpt lat="43.61029868213131" lon="11.017901629850323"><ele>68.66666666666667</ele><time>2026-05-01T08:48:25.999Z</time></trkpt><trkpt lat="43.61014233846911" lon="11.017784624091359"><ele>69.0</ele><time>2026-05-01T08:48:26.999Z</time></trkpt><trkpt lat="43.60999104227047" lon="11.017667769432078"><ele>69.0</ele><time>2026-05-01T08:48:27.999Z</time></trkpt><trkpt lat="43.60984394931844" lon="11.017536351923619"><ele>69.0</ele><time>2026-05-01T08:48:28.999Z</time></trkpt><trkpt lat="43.609725706566316" lon="11.017366348988984"><ele>69.0</ele><time>2026-05-01T08:48:29.999Z</time></trkpt><trkpt lat="43.609598797777885" lon="11.017214444020478"><ele>69.33333333333333</ele><time>2026-05-01T08:48:30.999Z</time></trkpt><trkpt lat="43.609481441269274" lon="11.0170595921228"><ele>69.66666666666666</ele><time>2026-05-01T08:48:31.999Z</time></trkpt><trkpt lat="43.60934440864971" lon="11.016952347383118"><ele>70.0</ele><time>2026-05-01T08:48:32.999Z</time></trkpt><trkpt lat="43.609190576922586" lon="11.016880648118816"><ele>70.0</ele><time>2026-05-01T08:48:33.999Z</time></trkpt><trkpt lat="43.60903818002886" lon="11.016773934652846"><ele>70.0</ele><time>2026-05-01T08:48:34.999Z</time></trkpt><trkpt lat="43.60889068409987" lon="11.016672945589441"><ele>70.0</ele><time>2026-05-01T08:48:35.999Z</time></trkpt><trkpt lat="43.6087523892966" lon="11.016548100880339"><ele>69.0</ele><time>2026-05-01T08:48:36.999Z</time></trkpt><trkpt lat="43.608606946449214" lon="11.016443418323762"><ele>68.0</ele><time>2026-05-01T08:48:37.999Z</time></trkpt><trkpt lat="43.608472376727434" lon="11.016325536384405"><ele>67.0</ele><time>2026-05-01T08:48:38.999Z</time></trkpt><trkpt lat="43.60833111777003" lon="11.016240386501206"><ele>67.0</ele><time>2026-05-01T08:48:39.999Z</time></trkpt><trkpt lat="43.60818257992311" lon="11.0161986433709"><ele>67.0</ele><time>2026-05-01T08:48:40.999Z</time></trkpt><trkpt lat="43.6080313437585" lon="11.01618016493802"><ele>67.0</ele><time>2026-05-01T08:48:41.999Z</time></trkpt><trkpt lat="43.607878824722526" lon="11.016174408724503"><ele>67.0</ele><time>2026-05-01T08:48:42.999Z</time></trkpt><trkpt lat="43.60772791258858" lon="11.016144575244585"><ele>67.0</ele><time>2026-05-01T08:48:43.999Z</time></trkpt><trkpt lat="43.60756818489737" lon="11.01613335124344"><ele>67.0</ele><time>2026-05-01T08:48:44.999Z</time></trkpt><trkpt lat="43.60741287387164" lon="11.016122437607228"><ele>67.0</ele><time>2026-05-01T08:48:45.999Z</time></trkpt><trkpt lat="43.60725524926744" lon="11.016111363254298"><ele>67.0</ele><time>2026-05-01T08:48:46.999Z</time></trkpt><trkpt lat="43.60709745901017" lon="11.01609951784927"><ele>67.0</ele><time>2026-05-01T08:48:47.999Z</time></trkpt><trkpt lat="43.60693961533471" lon="11.016087161412782"><ele>67.0</ele><time>2026-05-01T08:48:48.999Z</time></trkpt><trkpt lat="43.60677940548702" lon="11.016096683852362"><ele>67.0</ele><time>2026-05-01T08:48:49.999Z</time></trkpt><trkpt lat="43.606623594984946" lon="11.016063181058053"><ele>67.0</ele><time>2026-05-01T08:48:50.999Z</time></trkpt><trkpt lat="43.60646539867176" lon="11.01605409201282"><ele>67.0</ele><time>2026-05-01T08:48:51.999Z</time></trkpt><trkpt lat="43.606307939732574" lon="11.016075239519353"><ele>67.0</ele><time>2026-05-01T08:48:52.999Z</time></trkpt><trkpt lat="43.60614916821654" lon="11.016094601735936"><ele>67.0</ele><time>2026-05-01T08:48:53.999Z</time></trkpt><trkpt lat="43.60599457914402" lon="11.01613825972352"><ele>66.66666666666666</ele><time>2026-05-01T08:48:54.999Z</time></trkpt><trkpt lat="43.60583581714112" lon="11.016198753563042"><ele>66.33333333333333</ele><time>2026-05-01T08:48:55.999Z</time></trkpt><trkpt lat="43.60567483909811" lon="11.016230400958287"><ele>66.0</ele><time>2026-05-01T08:48:56.999Z</time></trkpt><trkpt lat="43.605514109394555" lon="11.016282056056395"><ele>66.0</ele><time>2026-05-01T08:48:57.999Z</time></trkpt><trkpt lat="43.60534941162182" lon="11.016334986437144"><ele>66.0</ele><time>2026-05-01T08:48:58.999Z</time></trkpt><trkpt lat="43.60518282512654" lon="11.01639020763927"><ele>66.0</ele><time>2026-05-01T08:48:59.999Z</time></trkpt><trkpt lat="43.605018102396045" lon="11.01644609722301"><ele>65.33333333333333</ele><time>2026-05-01T08:49:00.999Z</time></trkpt><trkpt lat="43.60485673206966" lon="11.016500110454219"><ele>64.66666666666666</ele><time>2026-05-01T08:49:01.999Z</time></trkpt><trkpt lat="43.60469362689559" lon="11.016551255760325"><ele>64.0</ele><time>2026-05-01T08:49:02.999Z</time></trkpt><trkpt lat="43.604532147034796" lon="11.01660069929853"><ele>63.666666666666664</ele><time>2026-05-01T08:49:03.999Z</time></trkpt><trkpt lat="43.604371506471274" lon="11.016651548587808"><ele>63.33333333333333</ele><time>2026-05-01T08:49:04.999Z</time></trkpt><trkpt lat="43.6042166123055" lon="11.016702618168225"><ele>63.0</ele><time>2026-05-01T08:49:05.999Z</time></trkpt><trkpt lat="43.604064438996666" lon="11.016778307125502"><ele>63.33333333333333</ele><time>2026-05-01T08:49:06.999Z</time></trkpt><trkpt lat="43.60391193055261" lon="11.016830030990068"><ele>63.666666666666664</ele><time>2026-05-01T08:49:07.999Z</time></trkpt><trkpt lat="43.60376320993953" lon="11.016883400013938"><ele>64.0</ele><time>2026-05-01T08:49:08.999Z</time></trkpt><trkpt lat="43.603616760738035" lon="11.016931660932398"><ele>64.0</ele><time>2026-05-01T08:49:09.999Z</time></trkpt><trkpt lat="43.60346833072393" lon="11.016980785069292"><ele>64.0</ele><time>2026-05-01T08:49:10.999Z</time></trkpt><trkpt lat="43.60332566470818" lon="11.017033164146872"><ele>64.0</ele><time>2026-05-01T08:49:11.999Z</time></trkpt><trkpt lat="43.603176775799504" lon="11.01708498789002"><ele>64.0</ele><time>2026-05-01T08:49:12.999Z</time></trkpt><trkpt lat="43.60302755579392" lon="11.017135923302737"><ele>64.0</ele><time>2026-05-01T08:49:13.999Z</time></trkpt><trkpt lat="43.60288123567246" lon="11.017184111670028"><ele>64.0</ele><time>2026-05-01T08:49:14.999Z</time></trkpt><trkpt lat="43.60273842730713" lon="11.017234267640086"><ele>63.75</ele><time>2026-05-01T08:49:15.999Z</time></trkpt><trkpt lat="43.602599112867296" lon="11.017259897118006"><ele>63.5</ele><time>2026-05-01T08:49:16.999Z</time></trkpt><trkpt lat="43.60247331057938" lon="11.017301846299864"><ele>63.25</ele><time>2026-05-01T08:49:17.999Z</time></trkpt><trkpt lat="43.602358844954004" lon="11.017342092621975"><ele>63.0</ele><time>2026-05-01T08:49:18.999Z</time></trkpt><trkpt lat="43.60226087303723" lon="11.017380504557535"><ele>63.0</ele><time>2026-05-01T08:49:19.999Z</time></trkpt><trkpt lat="43.602175517734516" lon="11.017432400629003"><ele>63.0</ele><time>2026-05-01T08:49:20.999Z</time></trkpt><trkpt lat="43.60209464468277" lon="11.017433228327663"><ele>63.0</ele><time>2026-05-01T08:49:21.999Z</time></trkpt><trkpt lat="43.602025438046574" lon="11.017437671661924"><ele>63.0</ele><time>2026-05-01T08:49:22.999Z</time></trkpt><trkpt lat="43.601971855480144" lon="11.017360169494935"><ele>63.0</ele><time>2026-05-01T08:49:23.999Z</time></trkpt><trkpt lat="43.601939954578285" lon="11.017277389624182"><ele>63.0</ele><time>2026-05-01T08:49:24.999Z</time></trkpt><trkpt lat="43.60191061197777" lon="11.017167427515425"><ele>63.0</ele><time>2026-05-01T08:49:25.999Z</time></trkpt><trkpt lat="43.60188702867955" lon="11.017015661439757"><ele>63.0</ele><time>2026-05-01T08:49:26.998Z</time></trkpt><trkpt lat="43.60186853974361" lon="11.016844081351515"><ele>63.0</ele><time>2026-05-01T08:49:27.998Z</time></trkpt><trkpt lat="43.6018549916777" lon="11.016660959531727"><ele>63.0</ele><time>2026-05-01T08:49:28.998Z</time></trkpt><trkpt lat="43.601843591804254" lon="11.016480012394402"><ele>63.0</ele><time>2026-05-01T08:49:29.998Z</time></trkpt><trkpt lat="43.601834437166566" lon="11.016291440379167"><ele>63.0</ele><time>2026-05-01T08:49:30.998Z</time></trkpt><trkpt lat="43.60182615623353" lon="11.016098517298389"><ele>63.0</ele><time>2026-05-01T08:49:31.998Z</time></trkpt><trkpt lat="43.601819894463645" lon="11.015907094492569"><ele>63.0</ele><time>2026-05-01T08:49:32.998Z</time></trkpt><trkpt lat="43.601811327332186" lon="11.015725328641393"><ele>63.0</ele><time>2026-05-01T08:49:33.998Z</time></trkpt><trkpt lat="43.601795922991606" lon="11.015565768288155"><ele>63.0</ele><time>2026-05-01T08:49:34.998Z</time></trkpt><trkpt lat="43.60177259178717" lon="11.0154192744418"><ele>63.0</ele><time>2026-05-01T08:49:35.998Z</time></trkpt><trkpt lat="43.6017421872224" lon="11.015284874551119"><ele>63.0</ele><time>2026-05-01T08:49:36.998Z</time></trkpt><trkpt lat="43.60169614943437" lon="11.015177583421966"><ele>63.0</ele><time>2026-05-01T08:49:37.998Z</time></trkpt><trkpt lat="43.6016387046448" lon="11.015061872028829"><ele>62.5</ele><time>2026-05-01T08:49:38.998Z</time></trkpt><trkpt lat="43.60155463064236" lon="11.014927972306799"><ele>62.0</ele><time>2026-05-01T08:49:39.998Z</time></trkpt><trkpt lat="43.60145202486404" lon="11.014808083072538"><ele>61.5</ele><time>2026-05-01T08:49:40.998Z</time></trkpt><trkpt lat="43.60135775317099" lon="11.014656436233958"><ele>61.0</ele><time>2026-05-01T08:49:41.998Z</time></trkpt><trkpt lat="43.60126186934538" lon="11.014495184029526"><ele>61.0</ele><time>2026-05-01T08:49:42.998Z</time></trkpt><trkpt lat="43.60118113028336" lon="11.014317449756474"><ele>61.0</ele><time>2026-05-01T08:49:43.998Z</time></trkpt><trkpt lat="43.601085813430046" lon="11.014144647895884"><ele>61.0</ele><time>2026-05-01T08:49:44.998Z</time></trkpt><trkpt lat="43.601010128861404" lon="11.013955592184844"><ele>60.666666666666664</ele><time>2026-05-01T08:49:45.998Z</time></trkpt><trkpt lat="43.600930086870655" lon="11.013765354490873"><ele>60.33333333333333</ele><time>2026-05-01T08:49:46.998Z</time></trkpt><trkpt lat="43.60084984669182" lon="11.013585593204507"><ele>60.0</ele><time>2026-05-01T08:49:47.998Z</time></trkpt><trkpt lat="43.600777206246676" lon="11.013414340764172"><ele>60.0</ele><time>2026-05-01T08:49:48.998Z</time></trkpt><trkpt lat="43.600712999276645" lon="11.013253368418782"><ele>60.0</ele><time>2026-05-01T08:49:49.998Z</time></trkpt><trkpt lat="43.600661620962995" lon="11.01308087985122"><ele>60.0</ele><time>2026-05-01T08:49:51Z</time></trkpt><trkpt lat="43.60065189273337" lon="11.012890946339336"><ele>60.0</ele><time>2026-05-01T08:49:52Z</time></trkpt><trkpt lat="43.60062975409024" lon="11.012689703890434"><ele>61.25</ele><time>2026-05-01T08:49:53Z</time></trkpt><trkpt lat="43.600630311555335" lon="11.01248753936459"><ele>62.5</ele><time>2026-05-01T08:49:54Z</time></trkpt><trkpt lat="43.60062833079756" lon="11.012280766494706"><ele>63.75</ele><time>2026-05-01T08:49:55Z</time></trkpt><trkpt lat="43.60062236845719" lon="11.012073071310745"><ele>65.0</ele><time>2026-05-01T08:49:56Z</time></trkpt><trkpt lat="43.60061949722846" lon="11.011865431047296"><ele>65.0</ele><time>2026-05-01T08:49:57Z</time></trkpt><trkpt lat="43.60061637600382" lon="11.01165937311829"><ele>65.0</ele><time>2026-05-01T08:49:58Z</time></trkpt><trkpt lat="43.600609664898094" lon="11.011454671491364"><ele>65.0</ele><time>2026-05-01T08:49:59Z</time></trkpt><trkpt lat="43.60060019491498" lon="11.011248708666745"><ele>65.0</ele><time>2026-05-01T08:50:00Z</time></trkpt><trkpt lat="43.60059284745407" lon="11.011049194289518"><ele>67.66666666666667</ele><time>2026-05-01T08:50:01Z</time></trkpt><trkpt lat="43.60058888240468" lon="11.010837790025699"><ele>70.33333333333333</ele><time>2026-05-01T08:50:02Z</time></trkpt><trkpt lat="43.60058722625412" lon="11.010628845296692"><ele>73.0</ele><time>2026-05-01T08:50:03Z</time></trkpt><trkpt lat="43.6005807345301" lon="11.010416577854015"><ele>73.0</ele><time>2026-05-01T08:50:04Z</time></trkpt><trkpt lat="43.600573915853154" lon="11.010207634415092"><ele>73.0</ele><time>2026-05-01T08:50:05Z</time></trkpt><trkpt lat="43.600562192828974" lon="11.009996238350025"><ele>73.0</ele><time>2026-05-01T08:50:06Z</time></trkpt><trkpt lat="43.60055649741199" lon="11.009790726197119"><ele>73.0</ele><time>2026-05-01T08:50:07Z</time></trkpt><trkpt lat="43.60055506871107" lon="11.009583581796358"><ele>73.0</ele><time>2026-05-01T08:50:08Z</time></trkpt><trkpt lat="43.6005533759204" lon="11.00937699418356"><ele>73.0</ele><time>2026-05-01T08:50:09Z</time></trkpt><trkpt lat="43.60055144961468" lon="11.009168512091293"><ele>74.25</ele><time>2026-05-01T08:50:10Z</time></trkpt><trkpt lat="43.60054833149868" lon="11.008971056691834"><ele>75.5</ele><time>2026-05-01T08:50:11Z</time></trkpt><trkpt lat="43.600541563187036" lon="11.00876900944788"><ele>76.75</ele><time>2026-05-01T08:50:12Z</time></trkpt><trkpt lat="43.60053192560481" lon="11.008573137381372"><ele>78.0</ele><time>2026-05-01T08:50:13Z</time></trkpt><trkpt lat="43.60051549302831" lon="11.008376296020755"><ele>78.75</ele><time>2026-05-01T08:50:13.999Z</time></trkpt><trkpt lat="43.600508917803566" lon="11.008181434506122"><ele>79.5</ele><time>2026-05-01T08:50:14.999Z</time></trkpt><trkpt lat="43.600509729249666" lon="11.00797613079951"><ele>80.25</ele><time>2026-05-01T08:50:15.999Z</time></trkpt><trkpt lat="43.60051166246139" lon="11.007759564140141"><ele>81.0</ele><time>2026-05-01T08:50:16.999Z</time></trkpt><trkpt lat="43.600511241245165" lon="11.007545741948215"><ele>80.25</ele><time>2026-05-01T08:50:17.999Z</time></trkpt><trkpt lat="43.60051131611598" lon="11.007333463493888"><ele>79.5</ele><time>2026-05-01T08:50:18.999Z</time></trkpt><trkpt lat="43.600510042650875" lon="11.007131467268133"><ele>78.75</ele><time>2026-05-01T08:50:19.999Z</time></trkpt><trkpt lat="43.60050640533917" lon="11.006931323958403"><ele>78.0</ele><time>2026-05-01T08:50:20.999Z</time></trkpt><trkpt lat="43.60049580440077" lon="11.006735509550646"><ele>75.25</ele><time>2026-05-01T08:50:21.999Z</time></trkpt><trkpt lat="43.60048590973021" lon="11.006543930935626"><ele>72.5</ele><time>2026-05-01T08:50:22.999Z</time></trkpt><trkpt lat="43.60050784041135" lon="11.006356869575846"><ele>69.75</ele><time>2026-05-01T08:50:23.999Z</time></trkpt><trkpt lat="43.600514124948305" lon="11.006166863690963"><ele>67.0</ele><time>2026-05-01T08:50:24.999Z</time></trkpt><trkpt lat="43.600546670281865" lon="11.005974639697504"><ele>65.33333333333333</ele><time>2026-05-01T08:50:25.999Z</time></trkpt><trkpt lat="43.60057238948487" lon="11.005779881051852"><ele>63.66666666666667</ele><time>2026-05-01T08:50:26.999Z</time></trkpt><trkpt lat="43.60059220424417" lon="11.005570496618429"><ele>62.0</ele><time>2026-05-01T08:50:27.999Z</time></trkpt><trkpt lat="43.60059270641601" lon="11.00535741866711"><ele>62.0</ele><time>2026-05-01T08:50:28.999Z</time></trkpt><trkpt lat="43.60058765967164" lon="11.005145527221478"><ele>62.0</ele><time>2026-05-01T08:50:29.999Z</time></trkpt><trkpt lat="43.600575578275155" lon="11.004937873672644"><ele>62.0</ele><time>2026-05-01T08:50:30.999Z</time></trkpt><trkpt lat="43.600565029574256" lon="11.004728007468563"><ele>62.0</ele><time>2026-05-01T08:50:31.999Z</time></trkpt><trkpt lat="43.600553322365435" lon="11.004506113372855"><ele>62.0</ele><time>2026-05-01T08:50:32.999Z</time></trkpt><trkpt lat="43.60054393497825" lon="11.004287192342911"><ele>62.0</ele><time>2026-05-01T08:50:33.999Z</time></trkpt><trkpt lat="43.60053348816813" lon="11.004059889660406"><ele>63.333333333333336</ele><time>2026-05-01T08:50:34.999Z</time></trkpt><trkpt lat="43.60052491390559" lon="11.003833671587248"><ele>64.66666666666667</ele><time>2026-05-01T08:50:35.999Z</time></trkpt><trkpt lat="43.600516165946765" lon="11.003614895608269"><ele>66.0</ele><time>2026-05-01T08:50:36.999Z</time></trkpt><trkpt lat="43.60050189368586" lon="11.003407298225587"><ele>68.5</ele><time>2026-05-01T08:50:37.999Z</time></trkpt><trkpt lat="43.60048679889948" lon="11.003211460512976"><ele>71.0</ele><time>2026-05-01T08:50:38.999Z</time></trkpt><trkpt lat="43.60047156691742" lon="11.003041903517127"><ele>73.5</ele><time>2026-05-01T08:50:39.999Z</time></trkpt><trkpt lat="43.60043833711173" lon="11.00289611516737"><ele>76.0</ele><time>2026-05-01T08:50:40.999Z</time></trkpt><trkpt lat="43.60036840929893" lon="11.002756245536915"><ele>74.25</ele><time>2026-05-01T08:50:41.999Z</time></trkpt><trkpt lat="43.60027525273757" lon="11.002619343108908"><ele>72.5</ele><time>2026-05-01T08:50:42.999Z</time></trkpt><trkpt lat="43.60020620214929" lon="11.00245379771877"><ele>70.75</ele><time>2026-05-01T08:50:43.999Z</time></trkpt><trkpt lat="43.600110815907534" lon="11.002304699180344"><ele>69.0</ele><time>2026-05-01T08:50:44.999Z</time></trkpt><trkpt lat="43.60003265432246" lon="11.002136394958653"><ele>69.0</ele><time>2026-05-01T08:50:45.999Z</time></trkpt><trkpt lat="43.59994830067167" lon="11.001972674632228"><ele>69.0</ele><time>2026-05-01T08:50:46.999Z</time></trkpt><trkpt lat="43.5998625298785" lon="11.001808415807679"><ele>69.0</ele><time>2026-05-01T08:50:47.999Z</time></trkpt><trkpt lat="43.59976870080682" lon="11.001652532527787"><ele>69.0</ele><time>2026-05-01T08:50:48.999Z</time></trkpt><trkpt lat="43.59966965607579" lon="11.001508907107906"><ele>69.0</ele><time>2026-05-01T08:50:49.999Z</time></trkpt><trkpt lat="43.59960156998186" lon="11.001334303838433"><ele>69.0</ele><time>2026-05-01T08:50:50.999Z</time></trkpt><trkpt lat="43.59951848523332" lon="11.001170616852848"><ele>69.0</ele><time>2026-05-01T08:50:51.999Z</time></trkpt><trkpt lat="43.599455282677454" lon="11.000987478623824"><ele>69.0</ele><time>2026-05-01T08:50:52.999Z</time></trkpt><trkpt lat="43.599390630413296" lon="11.000799898388024"><ele>66.0</ele><time>2026-05-01T08:50:53.999Z</time></trkpt><trkpt lat="43.59932203249613" lon="11.000610443220392"><ele>63.0</ele><time>2026-05-01T08:50:54.999Z</time></trkpt><trkpt lat="43.599243010947504" lon="11.000425290547751"><ele>60.0</ele><time>2026-05-01T08:50:55.999Z</time></trkpt><trkpt lat="43.599155482829204" lon="11.000244736708499"><ele>60.0</ele><time>2026-05-01T08:50:56.999Z</time></trkpt><trkpt lat="43.599065823949" lon="11.000063639361954"><ele>60.0</ele><time>2026-05-01T08:50:57.999Z</time></trkpt><trkpt lat="43.598982058671204" lon="10.999875576246339"><ele>60.0</ele><time>2026-05-01T08:50:58.999Z</time></trkpt><trkpt lat="43.5988867829125" lon="10.999703420508155"><ele>60.0</ele><time>2026-05-01T08:50:59.999Z</time></trkpt><trkpt lat="43.59879948618411" lon="10.999526768810734"><ele>60.0</ele><time>2026-05-01T08:51:00.999Z</time></trkpt><trkpt lat="43.59871598069799" lon="10.999350818795453"><ele>60.0</ele><time>2026-05-01T08:51:01.999Z</time></trkpt><trkpt lat="43.598629852035074" lon="10.99917500003879"><ele>59.25</ele><time>2026-05-01T08:51:02.999Z</time></trkpt><trkpt lat="43.59854368574303" lon="10.999018762647555"><ele>58.5</ele><time>2026-05-01T08:51:03.999Z</time></trkpt><trkpt lat="43.59844840479813" lon="10.998894144756017"><ele>57.75</ele><time>2026-05-01T08:51:04.999Z</time></trkpt><trkpt lat="43.598338358181756" lon="10.998815110242694"><ele>57.0</ele><time>2026-05-01T08:51:05.999Z</time></trkpt><trkpt lat="43.59821383038066" lon="10.998771708318223"><ele>57.0</ele><time>2026-05-01T08:51:06.999Z</time></trkpt><trkpt lat="43.59807910440916" lon="10.998734927833288"><ele>57.0</ele><time>2026-05-01T08:51:07.999Z</time></trkpt><trkpt lat="43.597946233314396" lon="10.998675652016646"><ele>57.0</ele><time>2026-05-01T08:51:08.999Z</time></trkpt><trkpt lat="43.59782352157358" lon="10.998582306201428"><ele>57.0</ele><time>2026-05-01T08:51:09.999Z</time></trkpt><trkpt lat="43.597725728124495" lon="10.998452655246464"><ele>56.75</ele><time>2026-05-01T08:51:10.999Z</time></trkpt><trkpt lat="43.597663975753356" lon="10.998301460247395"><ele>56.5</ele><time>2026-05-01T08:51:11.999Z</time></trkpt><trkpt lat="43.597638083544055" lon="10.99814644587502"><ele>56.25</ele><time>2026-05-01T08:51:12.999Z</time></trkpt><trkpt lat="43.59762995760592" lon="10.997987864869796"><ele>56.0</ele><time>2026-05-01T08:51:13.999Z</time></trkpt><trkpt lat="43.59761635059216" lon="10.99782573942868"><ele>56.0</ele><time>2026-05-01T08:51:14.999Z</time></trkpt><trkpt lat="43.59760636205847" lon="10.997657540535716"><ele>56.0</ele><time>2026-05-01T08:51:15.999Z</time></trkpt><trkpt lat="43.597605521221276" lon="10.997479336141616"><ele>56.0</ele><time>2026-05-01T08:51:16.999Z</time></trkpt><trkpt lat="43.59760283221575" lon="10.997301832999147"><ele>56.0</ele><time>2026-05-01T08:51:17.999Z</time></trkpt><trkpt lat="43.59759853387397" lon="10.997117324675889"><ele>56.25</ele><time>2026-05-01T08:51:18.999Z</time></trkpt><trkpt lat="43.59759412090104" lon="10.996935232590157"><ele>56.5</ele><time>2026-05-01T08:51:19.999Z</time></trkpt><trkpt lat="43.5975970205121" lon="10.9967490154287"><ele>56.75</ele><time>2026-05-01T08:51:20.999Z</time></trkpt><trkpt lat="43.59761341326328" lon="10.996564779684881"><ele>57.0</ele><time>2026-05-01T08:51:21.999Z</time></trkpt><trkpt lat="43.59764450484847" lon="10.996382072316305"><ele>57.0</ele><time>2026-05-01T08:51:22.999Z</time></trkpt><trkpt lat="43.59767920490143" lon="10.99620427767643"><ele>57.0</ele><time>2026-05-01T08:51:23.999Z</time></trkpt><trkpt lat="43.59771305110355" lon="10.996027235175971"><ele>57.0</ele><time>2026-05-01T08:51:24.999Z</time></trkpt><trkpt lat="43.597745439935274" lon="10.995844922647324"><ele>57.0</ele><time>2026-05-01T08:51:25.999Z</time></trkpt><trkpt lat="43.59777694370029" lon="10.995668646713865"><ele>57.0</ele><time>2026-05-01T08:51:26.999Z</time></trkpt><trkpt lat="43.59780272149142" lon="10.995504603051387"><ele>57.0</ele><time>2026-05-01T08:51:27.999Z</time></trkpt><trkpt lat="43.5978144323799" lon="10.995350059412752"><ele>57.0</ele><time>2026-05-01T08:51:28.999Z</time></trkpt><trkpt lat="43.59780087624667" lon="10.995214915408116"><ele>57.0</ele><time>2026-05-01T08:51:29.999Z</time></trkpt><trkpt lat="43.59776689227219" lon="10.99510209634078"><ele>57.0</ele><time>2026-05-01T08:51:30.998Z</time></trkpt><trkpt lat="43.597720339031426" lon="10.99498853105143"><ele>56.8</ele><time>2026-05-01T08:51:31.998Z</time></trkpt><trkpt lat="43.5976875393654" lon="10.994861099868032"><ele>56.6</ele><time>2026-05-01T08:51:32.998Z</time></trkpt><trkpt lat="43.59763822548134" lon="10.994727204931678"><ele>56.39999999999999</ele><time>2026-05-01T08:51:33.998Z</time></trkpt><trkpt lat="43.5975774828471" lon="10.994589153868178"><ele>56.199999999999996</ele><time>2026-05-01T08:51:34.998Z</time></trkpt><trkpt lat="43.597518843351615" lon="10.99443990863482"><ele>56.0</ele><time>2026-05-01T08:51:35.998Z</time></trkpt><trkpt lat="43.59745723793492" lon="10.994283862387437"><ele>56.0</ele><time>2026-05-01T08:51:36.998Z</time></trkpt><trkpt lat="43.59739529188756" lon="10.99412345031002"><ele>56.0</ele><time>2026-05-01T08:51:37.998Z</time></trkpt><trkpt lat="43.597332853645646" lon="10.993958939327147"><ele>56.0</ele><time>2026-05-01T08:51:38.998Z</time></trkpt><trkpt lat="43.597275124399594" lon="10.993789704583511"><ele>56.0</ele><time>2026-05-01T08:51:39.998Z</time></trkpt><trkpt lat="43.597230327863834" lon="10.99361586984926"><ele>56.0</ele><time>2026-05-01T08:51:40.998Z</time></trkpt><trkpt lat="43.59718206514482" lon="10.99344313766075"><ele>56.0</ele><time>2026-05-01T08:51:41.998Z</time></trkpt><trkpt lat="43.597135989197895" lon="10.993264457975885"><ele>56.0</ele><time>2026-05-01T08:51:42.998Z</time></trkpt><trkpt lat="43.59709203018861" lon="10.993078680056716"><ele>56.0</ele><time>2026-05-01T08:51:43.998Z</time></trkpt><trkpt lat="43.59703522686173" lon="10.992898510219893"><ele>56.0</ele><time>2026-05-01T08:51:44.998Z</time></trkpt><trkpt lat="43.59701379282053" lon="10.99270207782966"><ele>56.0</ele><time>2026-05-01T08:51:45.998Z</time></trkpt><trkpt lat="43.59698525717782" lon="10.9925101566142"><ele>56.0</ele><time>2026-05-01T08:51:46.998Z</time></trkpt><trkpt lat="43.59695143266179" lon="10.992321431595743"><ele>56.0</ele><time>2026-05-01T08:51:47.998Z</time></trkpt><trkpt lat="43.59692824132485" lon="10.992135392848198"><ele>55.75</ele><time>2026-05-01T08:51:48.998Z</time></trkpt><trkpt lat="43.596890930079745" lon="10.991954477748747"><ele>55.5</ele><time>2026-05-01T08:51:49.998Z</time></trkpt><trkpt lat="43.59683574090613" lon="10.991784008179245"><ele>55.25</ele><time>2026-05-01T08:51:50.998Z</time></trkpt><trkpt lat="43.59677987725708" lon="10.99162329609301"><ele>55.0</ele><time>2026-05-01T08:51:51.998Z</time></trkpt><trkpt lat="43.59666340112124" lon="10.99151212461147"><ele>55.0</ele><time>2026-05-01T08:51:52.998Z</time></trkpt><trkpt lat="43.5965498566058" lon="10.991414921967243"><ele>55.0</ele><time>2026-05-01T08:51:53.998Z</time></trkpt><trkpt lat="43.596424629748746" lon="10.991323785159505"><ele>55.0</ele><time>2026-05-01T08:51:54.998Z</time></trkpt><trkpt lat="43.596298641780336" lon="10.99123400782135"><ele>55.0</ele><time>2026-05-01T08:51:56Z</time></trkpt><trkpt lat="43.596178399161765" lon="10.99113493979889"><ele>54.75</ele><time>2026-05-01T08:51:57Z</time></trkpt><trkpt lat="43.59607000615629" lon="10.99102419039817"><ele>54.5</ele><time>2026-05-01T08:51:58Z</time></trkpt><trkpt lat="43.59597558167811" lon="10.990904948716388"><ele>54.25</ele><time>2026-05-01T08:51:59Z</time></trkpt><trkpt lat="43.59589896388191" lon="10.990778134909565"><ele>54.0</ele><time>2026-05-01T08:52:00Z</time></trkpt><trkpt lat="43.59584611067181" lon="10.990625651447246"><ele>54.0</ele><time>2026-05-01T08:52:01Z</time></trkpt><trkpt lat="43.595797886575944" lon="10.990457310083347"><ele>54.0</ele><time>2026-05-01T08:52:02Z</time></trkpt><trkpt lat="43.595737550162156" lon="10.990277691897031"><ele>54.0</ele><time>2026-05-01T08:52:03Z</time></trkpt><trkpt lat="43.59569447454305" lon="10.990071757154883"><ele>54.0</ele><time>2026-05-01T08:52:04Z</time></trkpt><trkpt lat="43.59564297322467" lon="10.989860629977274"><ele>55.33333333333333</ele><time>2026-05-01T08:52:05Z</time></trkpt><trkpt lat="43.595584480247474" lon="10.98964571560968"><ele>56.666666666666664</ele><time>2026-05-01T08:52:06Z</time></trkpt><trkpt lat="43.595521734890355" lon="10.989430937120593"><ele>58.0</ele><time>2026-05-01T08:52:07Z</time></trkpt><trkpt lat="43.595466732078556" lon="10.989217385049058"><ele>59.25</ele><time>2026-05-01T08:52:08Z</time></trkpt><trkpt lat="43.59542712546077" lon="10.989010547921966"><ele>60.5</ele><time>2026-05-01T08:52:09Z</time></trkpt><trkpt lat="43.595410913543816" lon="10.988812239288855"><ele>61.75</ele><time>2026-05-01T08:52:10Z</time></trkpt><trkpt lat="43.59540922302556" lon="10.98861232287819"><ele>63.0</ele><time>2026-05-01T08:52:11Z</time></trkpt><trkpt lat="43.59541959212594" lon="10.988416254032009"><ele>63.75</ele><time>2026-05-01T08:52:12Z</time></trkpt><trkpt lat="43.59543612304364" lon="10.988214844569557"><ele>64.5</ele><time>2026-05-01T08:52:13Z</time></trkpt><trkpt lat="43.5954576347547" lon="10.988016202702779"><ele>65.25</ele><time>2026-05-01T08:52:14Z</time></trkpt><trkpt lat="43.595490561519675" lon="10.987833378487474"><ele>66.0</ele><time>2026-05-01T08:52:15Z</time></trkpt><trkpt lat="43.59555799399776" lon="10.987694146753599"><ele>66.0</ele><time>2026-05-01T08:52:16Z</time></trkpt><trkpt lat="43.59562448124366" lon="10.987551849941267"><ele>66.0</ele><time>2026-05-01T08:52:17Z</time></trkpt><trkpt lat="43.595688942056505" lon="10.987400135430837"><ele>66.0</ele><time>2026-05-01T08:52:18Z</time></trkpt><trkpt lat="43.59576476487789" lon="10.987258695858944"><ele>66.0</ele><time>2026-05-01T08:52:19Z</time></trkpt><trkpt lat="43.59583060189038" lon="10.987113802352637"><ele>64.25</ele><time>2026-05-01T08:52:20Z</time></trkpt><trkpt lat="43.595886803194404" lon="10.986973018170568"><ele>62.5</ele><time>2026-05-01T08:52:20.999Z</time></trkpt><trkpt lat="43.595914193810415" lon="10.986814088124099"><ele>60.75</ele><time>2026-05-01T08:52:21.999Z</time></trkpt><trkpt lat="43.59592208726533" lon="10.986653164927512"><ele>59.0</ele><time>2026-05-01T08:52:22.999Z</time></trkpt><trkpt lat="43.59589792291067" lon="10.98649466926258"><ele>58.75</ele><time>2026-05-01T08:52:23.999Z</time></trkpt><trkpt lat="43.59585752236792" lon="10.986348493521925"><ele>58.5</ele><time>2026-05-01T08:52:24.999Z</time></trkpt><trkpt lat="43.595792386666794" lon="10.986221412890375"><ele>58.25</ele><time>2026-05-01T08:52:25.999Z</time></trkpt><trkpt lat="43.5957059759127" lon="10.986108339792862"><ele>58.0</ele><time>2026-05-01T08:52:26.999Z</time></trkpt><trkpt lat="43.59560748730876" lon="10.986020460316487"><ele>57.99999999999999</ele><time>2026-05-01T08:52:27.999Z</time></trkpt><trkpt lat="43.59552432056696" lon="10.985945485164589"><ele>58.0</ele><time>2026-05-01T08:52:28.999Z</time></trkpt><trkpt lat="43.59545903770626" lon="10.985849695224442"><ele>58.0</ele><time>2026-05-01T08:52:29.999Z</time></trkpt><trkpt lat="43.59541854746058" lon="10.985740660021056"><ele>58.0</ele><time>2026-05-01T08:52:30.999Z</time></trkpt><trkpt lat="43.595389296563944" lon="10.985637640188644"><ele>57.99999999999999</ele><time>2026-05-01T08:52:31.999Z</time></trkpt><trkpt lat="43.59536957882091" lon="10.985524715415405"><ele>58.0</ele><time>2026-05-01T08:52:32.999Z</time></trkpt><trkpt lat="43.59534994561792" lon="10.985376806322646"><ele>57.8</ele><time>2026-05-01T08:52:33.999Z</time></trkpt><trkpt lat="43.5953312032815" lon="10.985228388644565"><ele>57.599999999999994</ele><time>2026-05-01T08:52:34.999Z</time></trkpt><trkpt lat="43.595308040454945" lon="10.985078530349842"><ele>57.400000000000006</ele><time>2026-05-01T08:52:35.999Z</time></trkpt><trkpt lat="43.59528910416623" lon="10.984928013544781"><ele>57.2</ele><time>2026-05-01T08:52:36.999Z</time></trkpt><trkpt lat="43.59527844639576" lon="10.984781665592742"><ele>57.0</ele><time>2026-05-01T08:52:37.999Z</time></trkpt><trkpt lat="43.59527582765112" lon="10.984639624289375"><ele>57.0</ele><time>2026-05-01T08:52:38.999Z</time></trkpt><trkpt lat="43.59527874675428" lon="10.984502612186851"><ele>57.0</ele><time>2026-05-01T08:52:39.999Z</time></trkpt><trkpt lat="43.59528948532324" lon="10.984368576809631"><ele>57.0</ele><time>2026-05-01T08:52:40.999Z</time></trkpt><trkpt lat="43.59531078464208" lon="10.984238115007146"><ele>57.0</ele><time>2026-05-01T08:52:41.999Z</time></trkpt><trkpt lat="43.59533838616801" lon="10.98410592537777"><ele>57.0</ele><time>2026-05-01T08:52:42.999Z</time></trkpt><trkpt lat="43.59536564893948" lon="10.983968739349676"><ele>57.6</ele><time>2026-05-01T08:52:43.999Z</time></trkpt><trkpt lat="43.59539575166462" lon="10.98383120618705"><ele>58.2</ele><time>2026-05-01T08:52:44.999Z</time></trkpt><trkpt lat="43.595422505932255" lon="10.983692767754425"><ele>58.8</ele><time>2026-05-01T08:52:45.999Z</time></trkpt><trkpt lat="43.59544559543218" lon="10.98355086976767"><ele>59.4</ele><time>2026-05-01T08:52:46.999Z</time></trkpt><trkpt lat="43.59547940198943" lon="10.983409786389355"><ele>60.0</ele><time>2026-05-01T08:52:47.999Z</time></trkpt><trkpt lat="43.5954954194242" lon="10.983268536962164"><ele>60.0</ele><time>2026-05-01T08:52:48.999Z</time></trkpt><trkpt lat="43.59551035895516" lon="10.983123117095335"><ele>60.0</ele><time>2026-05-01T08:52:49.999Z</time></trkpt><trkpt lat="43.59551852958947" lon="10.98297484910427"><ele>60.0</ele><time>2026-05-01T08:52:50.999Z</time></trkpt><trkpt lat="43.59551776473924" lon="10.982832757983381"><ele>60.0</ele><time>2026-05-01T08:52:51.999Z</time></trkpt><trkpt lat="43.59550711991768" lon="10.982707588833867"><ele>60.0</ele><time>2026-05-01T08:52:52.999Z</time></trkpt><trkpt lat="43.5954550792882" lon="10.982604659657522"><ele>59.0</ele><time>2026-05-01T08:52:53.999Z</time></trkpt><trkpt lat="43.59541844422743" lon="10.982507142981689"><ele>58.0</ele><time>2026-05-01T08:52:54.999Z</time></trkpt><trkpt lat="43.59534665738917" lon="10.982435229786098"><ele>57.0</ele><time>2026-05-01T08:52:55.999Z</time></trkpt><trkpt lat="43.595260886923576" lon="10.982397723226214"><ele>56.0</ele><time>2026-05-01T08:52:56.999Z</time></trkpt><trkpt lat="43.59518813595649" lon="10.982333266037276"><ele>55.0</ele><time>2026-05-01T08:52:57.999Z</time></trkpt><trkpt lat="43.59513300551688" lon="10.9822386495385"><ele>54.0</ele><time>2026-05-01T08:52:58.999Z</time></trkpt><trkpt lat="43.59510153983076" lon="10.98212568161108"><ele>54.0</ele><time>2026-05-01T08:52:59.999Z</time></trkpt><trkpt lat="43.595098310297395" lon="10.982005706617722"><ele>54.00000000000001</ele><time>2026-05-01T08:53:00.999Z</time></trkpt><trkpt lat="43.59511039945139" lon="10.981887933530912"><ele>54.00000000000001</ele><time>2026-05-01T08:53:01.999Z</time></trkpt><trkpt lat="43.59514092048129" lon="10.981763581857798"><ele>54.0</ele><time>2026-05-01T08:53:02.999Z</time></trkpt><trkpt lat="43.59517817230247" lon="10.981642773566874"><ele>54.0</ele><time>2026-05-01T08:53:03.999Z</time></trkpt><trkpt lat="43.595225967204165" lon="10.981521087526676"><ele>54.0</ele><time>2026-05-01T08:53:04.999Z</time></trkpt><trkpt lat="43.595276552515095" lon="10.981399679698143"><ele>54.00000000000001</ele><time>2026-05-01T08:53:05.999Z</time></trkpt><trkpt lat="43.59531803908675" lon="10.981269052382572"><ele>54.00000000000001</ele><time>2026-05-01T08:53:06.999Z</time></trkpt><trkpt lat="43.595345841801134" lon="10.98112778132244"><ele>54.0</ele><time>2026-05-01T08:53:07.999Z</time></trkpt><trkpt lat="43.59536218555686" lon="10.980974252469363"><ele>54.0</ele><time>2026-05-01T08:53:08.999Z</time></trkpt><trkpt lat="43.59538061518194" lon="10.980822379125444"><ele>57.75</ele><time>2026-05-01T08:53:09.999Z</time></trkpt><trkpt lat="43.595405315107605" lon="10.980665974828176"><ele>61.5</ele><time>2026-05-01T08:53:10.999Z</time></trkpt><trkpt lat="43.59543290301024" lon="10.980508229840096"><ele>65.25</ele><time>2026-05-01T08:53:11.999Z</time></trkpt><trkpt lat="43.59546239737899" lon="10.980351584386531"><ele>69.0</ele><time>2026-05-01T08:53:12.999Z</time></trkpt><trkpt lat="43.59548890998565" lon="10.980194050893104"><ele>69.0</ele><time>2026-05-01T08:53:13.999Z</time></trkpt><trkpt lat="43.595511115044516" lon="10.98003780198406"><ele>69.0</ele><time>2026-05-01T08:53:14.999Z</time></trkpt><trkpt lat="43.5955345057328" lon="10.979882268391219"><ele>69.0</ele><time>2026-05-01T08:53:15.999Z</time></trkpt><trkpt lat="43.595560362415576" lon="10.979731298731451"><ele>69.0</ele><time>2026-05-01T08:53:16.999Z</time></trkpt><trkpt lat="43.595584938545855" lon="10.979583997408684"><ele>67.60000000000001</ele><time>2026-05-01T08:53:17.999Z</time></trkpt><trkpt lat="43.59560507491894" lon="10.979443601875484"><ele>66.2</ele><time>2026-05-01T08:53:18.999Z</time></trkpt><trkpt lat="43.59559813780002" lon="10.97932130312294"><ele>64.80000000000001</ele><time>2026-05-01T08:53:19.999Z</time></trkpt><trkpt lat="43.595565638653454" lon="10.979207446537425"><ele>63.400000000000006</ele><time>2026-05-01T08:53:20.999Z</time></trkpt><trkpt lat="43.595504985619826" lon="10.97911792042498"><ele>62.0</ele><time>2026-05-01T08:53:21.999Z</time></trkpt><trkpt lat="43.59542990405174" lon="10.979039117556843"><ele>61.333333333333336</ele><time>2026-05-01T08:53:22.999Z</time></trkpt><trkpt lat="43.595343779296215" lon="10.978967554340615"><ele>60.66666666666667</ele><time>2026-05-01T08:53:23.999Z</time></trkpt><trkpt lat="43.59526590585895" lon="10.978893456951315"><ele>60.0</ele><time>2026-05-01T08:53:24.999Z</time></trkpt><trkpt lat="43.5951952089966" lon="10.978827840585952"><ele>59.33333333333333</ele><time>2026-05-01T08:53:25.999Z</time></trkpt><trkpt lat="43.595138420474996" lon="10.978773314961025"><ele>58.666666666666664</ele><time>2026-05-01T08:53:26.999Z</time></trkpt><trkpt lat="43.59506992468664" lon="10.97869945012544"><ele>58.0</ele><time>2026-05-01T08:53:28.999Z</time></trkpt><trkpt lat="43.59494361625805" lon="10.978841381521278"><ele>57.166666666666664</ele><time>2026-05-01T08:53:33.999Z</time></trkpt><trkpt lat="43.59490051773064" lon="10.978921944814676"><ele>56.33333333333333</ele><time>2026-05-01T08:53:34.999Z</time></trkpt><trkpt lat="43.594852200100746" lon="10.979005212298759"><ele>55.5</ele><time>2026-05-01T08:53:35.999Z</time></trkpt><trkpt lat="43.594802430631056" lon="10.979087522151426"><ele>54.66666666666667</ele><time>2026-05-01T08:53:36.999Z</time></trkpt><trkpt lat="43.59475356910326" lon="10.979176877515872"><ele>53.833333333333336</ele><time>2026-05-01T08:53:37.999Z</time></trkpt><trkpt lat="43.59470171421179" lon="10.979275186902692"><ele>53.0</ele><time>2026-05-01T08:53:38.999Z</time></trkpt><trkpt lat="43.5946471792329" lon="10.979373932656376"><ele>53.0</ele><time>2026-05-01T08:53:39.999Z</time></trkpt><trkpt lat="43.59459093915728" lon="10.97947788959334"><ele>53.0</ele><time>2026-05-01T08:53:40.999Z</time></trkpt><trkpt lat="43.59453152501238" lon="10.979585808415184"><ele>53.0</ele><time>2026-05-01T08:53:41.999Z</time></trkpt><trkpt lat="43.59447022161987" lon="10.979695212452723"><ele>53.0</ele><time>2026-05-01T08:53:42.998Z</time></trkpt><trkpt lat="43.59441119487506" lon="10.979806611487236"><ele>53.0</ele><time>2026-05-01T08:53:43.998Z</time></trkpt><trkpt lat="43.59434900631617" lon="10.979919396909"><ele>53.2</ele><time>2026-05-01T08:53:44.998Z</time></trkpt><trkpt lat="43.59428443096489" lon="10.980035131787828"><ele>53.4</ele><time>2026-05-01T08:53:45.998Z</time></trkpt><trkpt lat="43.59421930141891" lon="10.980151073614984"><ele>53.60000000000001</ele><time>2026-05-01T08:53:46.998Z</time></trkpt><trkpt lat="43.594151629683275" lon="10.980267459180366"><ele>53.800000000000004</ele><time>2026-05-01T08:53:47.998Z</time></trkpt><trkpt lat="43.594084012637424" lon="10.980381931151015"><ele>54.0</ele><time>2026-05-01T08:53:48.998Z</time></trkpt><trkpt lat="43.59401595551296" lon="10.98050033579033"><ele>54.0</ele><time>2026-05-01T08:53:49.998Z</time></trkpt><trkpt lat="43.59394916519949" lon="10.980622311191063"><ele>54.00000000000001</ele><time>2026-05-01T08:53:50.998Z</time></trkpt><trkpt lat="43.59388111631286" lon="10.98074337839232"><ele>54.00000000000001</ele><time>2026-05-01T08:53:51.998Z</time></trkpt><trkpt lat="43.59381212970189" lon="10.980864095520996"><ele>54.0</ele><time>2026-05-01T08:53:52.998Z</time></trkpt><trkpt lat="43.59374383179696" lon="10.98098547626208"><ele>54.0</ele><time>2026-05-01T08:53:53.998Z</time></trkpt><trkpt lat="43.59367518546251" lon="10.98110895082369"><ele>54.0</ele><time>2026-05-01T08:53:54.998Z</time></trkpt><trkpt lat="43.59360683014098" lon="10.981232178174361"><ele>54.00000000000001</ele><time>2026-05-01T08:53:55.998Z</time></trkpt><trkpt lat="43.593537118026575" lon="10.981350137819303"><ele>54.00000000000001</ele><time>2026-05-01T08:53:56.998Z</time></trkpt><trkpt lat="43.59346664562547" lon="10.98146913513824"><ele>54.0</ele><time>2026-05-01T08:53:57.998Z</time></trkpt><trkpt lat="43.59339946548754" lon="10.981589044879591"><ele>54.0</ele><time>2026-05-01T08:53:58.998Z</time></trkpt><trkpt lat="43.59333091145669" lon="10.981707288369773"><ele>54.2</ele><time>2026-05-01T08:53:59.998Z</time></trkpt><trkpt lat="43.593263638591075" lon="10.981822027708061"><ele>54.400000000000006</ele><time>2026-05-01T08:54:00.998Z</time></trkpt><trkpt lat="43.59319703587493" lon="10.981939875776717"><ele>54.6</ele><time>2026-05-01T08:54:02Z</time></trkpt><trkpt lat="43.59313093182086" lon="10.982058209909466"><ele>54.8</ele><time>2026-05-01T08:54:03Z</time></trkpt><trkpt lat="43.5930648544152" lon="10.982173153145869"><ele>55.0</ele><time>2026-05-01T08:54:04Z</time></trkpt><trkpt lat="43.59299757034437" lon="10.982286055062518"><ele>54.99999999999999</ele><time>2026-05-01T08:54:05Z</time></trkpt><trkpt lat="43.59293143269167" lon="10.98239793429426"><ele>55.0</ele><time>2026-05-01T08:54:06Z</time></trkpt><trkpt lat="43.59287509531425" lon="10.982504663862137"><ele>55.0</ele><time>2026-05-01T08:54:07Z</time></trkpt><trkpt lat="43.59280824988379" lon="10.98258567870249"><ele>55.0</ele><time>2026-05-01T08:54:08Z</time></trkpt><trkpt lat="43.592756236841396" lon="10.982668290671638"><ele>54.99999999999999</ele><time>2026-05-01T08:54:09Z</time></trkpt><trkpt lat="43.59271299718282" lon="10.98275256554244"><ele>55.0</ele><time>2026-05-01T08:54:10Z</time></trkpt><trkpt lat="43.59265172177591" lon="10.982796332519314"><ele>54.6</ele><time>2026-05-01T08:54:11Z</time></trkpt><trkpt lat="43.59259085810317" lon="10.982837976848373"><ele>54.2</ele><time>2026-05-01T08:54:13Z</time></trkpt><trkpt lat="43.59249818131352" lon="10.98274992144367"><ele>53.8</ele><time>2026-05-01T08:54:15Z</time></trkpt><trkpt lat="43.592470536283074" lon="10.982601762409423"><ele>53.4</ele><time>2026-05-01T08:54:18Z</time></trkpt><trkpt lat="43.5925117969977" lon="10.982485635984778"><ele>53.0</ele><time>2026-05-01T08:54:19Z</time></trkpt><trkpt lat="43.5925715950504" lon="10.982374703896733"><ele>53.0</ele><time>2026-05-01T08:54:19.999Z</time></trkpt><trkpt lat="43.59264335610825" lon="10.982266371336125"><ele>53.0</ele><time>2026-05-01T08:54:20.999Z</time></trkpt><trkpt lat="43.59271970476709" lon="10.982153536118542"><ele>53.0</ele><time>2026-05-01T08:54:21.999Z</time></trkpt><trkpt lat="43.592797197475406" lon="10.982035781153765"><ele>53.0</ele><time>2026-05-01T08:54:22.999Z</time></trkpt><trkpt lat="43.59287824230436" lon="10.981919970050972"><ele>53.25</ele><time>2026-05-01T08:54:23.999Z</time></trkpt><trkpt lat="43.59295751065973" lon="10.981800914467678"><ele>53.5</ele><time>2026-05-01T08:54:24.999Z</time></trkpt><trkpt lat="43.59302906426766" lon="10.981671468628418"><ele>53.75</ele><time>2026-05-01T08:54:25.999Z</time></trkpt><trkpt lat="43.59308359819134" lon="10.98152615845875"><ele>54.0</ele><time>2026-05-01T08:54:26.999Z</time></trkpt><trkpt lat="43.59312240780501" lon="10.98136982544051"><ele>54.0</ele><time>2026-05-01T08:54:27.999Z</time></trkpt><trkpt lat="43.59314518505336" lon="10.98121055115842"><ele>54.0</ele><time>2026-05-01T08:54:28.999Z</time></trkpt><trkpt lat="43.59315878790589" lon="10.98105366890407"><ele>54.0</ele><time>2026-05-01T08:54:29.999Z</time></trkpt><trkpt lat="43.5931547567923" lon="10.980898562506317"><ele>54.0</ele><time>2026-05-01T08:54:30.999Z</time></trkpt><trkpt lat="43.59313657120724" lon="10.980747951458897"><ele>53.400000000000006</ele><time>2026-05-01T08:54:31.999Z</time></trkpt><trkpt lat="43.593108941238754" lon="10.980600040951565"><ele>52.800000000000004</ele><time>2026-05-01T08:54:32.999Z</time></trkpt><trkpt lat="43.593082231465274" lon="10.980451799455647"><ele>52.2</ele><time>2026-05-01T08:54:33.999Z</time></trkpt><trkpt lat="43.593056740761845" lon="10.980303197542213"><ele>51.599999999999994</ele><time>2026-05-01T08:54:34.999Z</time></trkpt><trkpt lat="43.593030540769114" lon="10.980148386153337"><ele>51.0</ele><time>2026-05-01T08:54:35.999Z</time></trkpt><trkpt lat="43.593003460234826" lon="10.979992568814534"><ele>51.0</ele><time>2026-05-01T08:54:36.999Z</time></trkpt><trkpt lat="43.592978074526314" lon="10.97983349993582"><ele>51.0</ele><time>2026-05-01T08:54:37.999Z</time></trkpt><trkpt lat="43.59295271521399" lon="10.979672721643984"><ele>51.0</ele><time>2026-05-01T08:54:38.999Z</time></trkpt><trkpt lat="43.59292634706512" lon="10.97950951327503"><ele>51.0</ele><time>2026-05-01T08:54:39.999Z</time></trkpt><trkpt lat="43.59289794642607" lon="10.979342935781595"><ele>51.25</ele><time>2026-05-01T08:54:40.999Z</time></trkpt><trkpt lat="43.59286880922453" lon="10.979168835457372"><ele>51.5</ele><time>2026-05-01T08:54:41.999Z</time></trkpt><trkpt lat="43.59283975580754" lon="10.978990821191342"><ele>51.75</ele><time>2026-05-01T08:54:42.999Z</time></trkpt><trkpt lat="43.592810886864115" lon="10.978805679418487"><ele>52.0</ele><time>2026-05-01T08:54:43.999Z</time></trkpt><trkpt lat="43.592779571015676" lon="10.978610967568416"><ele>52.0</ele><time>2026-05-01T08:54:44.999Z</time></trkpt><trkpt lat="43.59274474771302" lon="10.97841240022091"><ele>52.0</ele><time>2026-05-01T08:54:45.999Z</time></trkpt><trkpt lat="43.59270902920884" lon="10.978206451031646"><ele>52.0</ele><time>2026-05-01T08:54:46.999Z</time></trkpt><trkpt lat="43.59267517935342" lon="10.977994532559912"><ele>52.0</ele><time>2026-05-01T08:54:47.999Z</time></trkpt><trkpt lat="43.59264231679032" lon="10.977772176362617"><ele>52.0</ele><time>2026-05-01T08:54:48.999Z</time></trkpt><trkpt lat="43.59260822684055" lon="10.977546890318965"><ele>52.0</ele><time>2026-05-01T08:54:49.999Z</time></trkpt><trkpt lat="43.592572381160736" lon="10.97731752385267"><ele>51.666666666666664</ele><time>2026-05-01T08:54:50.999Z</time></trkpt><trkpt lat="43.592533341688984" lon="10.977083803096944"><ele>51.33333333333333</ele><time>2026-05-01T08:54:51.999Z</time></trkpt><trkpt lat="43.592492949212044" lon="10.976857683233868"><ele>51.0</ele><time>2026-05-01T08:54:52.999Z</time></trkpt><trkpt lat="43.59245689227405" lon="10.97664764706489"><ele>51.0</ele><time>2026-05-01T08:54:53.999Z</time></trkpt><trkpt lat="43.59242581692958" lon="10.976440980108988"><ele>51.0</ele><time>2026-05-01T08:54:54.999Z</time></trkpt><trkpt lat="43.59239865378663" lon="10.976247447463535"><ele>51.0</ele><time>2026-05-01T08:54:55.999Z</time></trkpt><trkpt lat="43.5923770759243" lon="10.976062035128836"><ele>51.0</ele><time>2026-05-01T08:54:56.999Z</time></trkpt><trkpt lat="43.592361924042244" lon="10.975880955563929"><ele>51.0</ele><time>2026-05-01T08:54:57.999Z</time></trkpt><trkpt lat="43.59235566579891" lon="10.975694405470621"><ele>51.0</ele><time>2026-05-01T08:54:58.999Z</time></trkpt><trkpt lat="43.59235649770794" lon="10.975497867226244"><ele>51.0</ele><time>2026-05-01T08:54:59.999Z</time></trkpt><trkpt lat="43.59236313910968" lon="10.975297136150253"><ele>51.0</ele><time>2026-05-01T08:55:00.999Z</time></trkpt><trkpt lat="43.592379711629526" lon="10.975091215386497"><ele>51.0</ele><time>2026-05-01T08:55:01.999Z</time></trkpt><trkpt lat="43.59240356818692" lon="10.974885605893103"><ele>51.0</ele><time>2026-05-01T08:55:02.999Z</time></trkpt><trkpt lat="43.59243364856766" lon="10.974675953985026"><ele>51.0</ele><time>2026-05-01T08:55:03.999Z</time></trkpt><trkpt lat="43.59246307744476" lon="10.974461625894453"><ele>51.0</ele><time>2026-05-01T08:55:04.999Z</time></trkpt><trkpt lat="43.592490543336545" lon="10.974253700822299"><ele>51.0</ele><time>2026-05-01T08:55:05.999Z</time></trkpt><trkpt lat="43.592519841349926" lon="10.97405045927018"><ele>51.0</ele><time>2026-05-01T08:55:06.999Z</time></trkpt><trkpt lat="43.59254952141754" lon="10.973850755984232"><ele>51.0</ele><time>2026-05-01T08:55:07.999Z</time></trkpt><trkpt lat="43.592578110305105" lon="10.9736582780071"><ele>51.0</ele><time>2026-05-01T08:55:08.999Z</time></trkpt><trkpt lat="43.59260482020078" lon="10.973478197662136"><ele>51.0</ele><time>2026-05-01T08:55:09.999Z</time></trkpt><trkpt lat="43.59262919770128" lon="10.973310301091004"><ele>51.0</ele><time>2026-05-01T08:55:10.999Z</time></trkpt><trkpt lat="43.59265484760185" lon="10.973157703239188"><ele>51.0</ele><time>2026-05-01T08:55:11.999Z</time></trkpt><trkpt lat="43.59268401503856" lon="10.973014615406932"><ele>51.0</ele><time>2026-05-01T08:55:12.999Z</time></trkpt><trkpt lat="43.59270576961497" lon="10.972882946966244"><ele>51.0</ele><time>2026-05-01T08:55:13.999Z</time></trkpt><trkpt lat="43.592733744923066" lon="10.972763762323615"><ele>51.0</ele><time>2026-05-01T08:55:14.999Z</time></trkpt><trkpt lat="43.59277121250586" lon="10.972663952908569"><ele>51.0</ele><time>2026-05-01T08:55:15.999Z</time></trkpt><trkpt lat="43.592816738543064" lon="10.97260212640275"><ele>51.0</ele><time>2026-05-01T08:55:18.999Z</time></trkpt><trkpt lat="43.59288543860035" lon="10.972502869637811"><ele>51.0</ele><time>2026-05-01T08:55:20.999Z</time></trkpt><trkpt lat="43.59293355138659" lon="10.972415247815698"><ele>51.0</ele><time>2026-05-01T08:55:21.999Z</time></trkpt><trkpt lat="43.59295791491329" lon="10.972308127137262"><ele>51.0</ele><time>2026-05-01T08:55:22.999Z</time></trkpt><trkpt lat="43.592939039494595" lon="10.972196669951414"><ele>51.0</ele><time>2026-05-01T08:55:23.999Z</time></trkpt><trkpt lat="43.59288719858989" lon="10.97209802512352"><ele>51.0</ele><time>2026-05-01T08:55:24.999Z</time></trkpt><trkpt lat="43.5928119895369" lon="10.972046159963508"><ele>51.0</ele><time>2026-05-01T08:55:25.999Z</time></trkpt><trkpt lat="43.59272869055996" lon="10.972049384916842"><ele>51.0</ele><time>2026-05-01T08:55:26.999Z</time></trkpt><trkpt lat="43.592647522893515" lon="10.972094709822235"><ele>51.0</ele><time>2026-05-01T08:55:27.999Z</time></trkpt><trkpt lat="43.59256416031944" lon="10.972183815945485"><ele>51.0</ele><time>2026-05-01T08:55:28.999Z</time></trkpt><trkpt lat="43.59246802679861" lon="10.972247719530547"><ele>51.0</ele><time>2026-05-01T08:55:29.999Z</time></trkpt><trkpt lat="43.59236875085146" lon="10.972289008498368"><ele>51.0</ele><time>2026-05-01T08:55:30.999Z</time></trkpt><trkpt lat="43.59223981385562" lon="10.9722525461753"><ele>51.0</ele><time>2026-05-01T08:55:31.999Z</time></trkpt><trkpt lat="43.59211417856472" lon="10.972222537502256"><ele>51.0</ele><time>2026-05-01T08:55:32.999Z</time></trkpt><trkpt lat="43.59186866038226" lon="10.972177458145293"><ele>51.0</ele><time>2026-05-01T08:55:34.999Z</time></trkpt><trkpt lat="43.59174853997936" lon="10.972163726616037"><ele>50.75</ele><time>2026-05-01T08:55:35.999Z</time></trkpt><trkpt lat="43.591628418133745" lon="10.972149743322309"><ele>50.5</ele><time>2026-05-01T08:55:36.999Z</time></trkpt><trkpt lat="43.5915109428089" lon="10.972133370651932"><ele>50.25</ele><time>2026-05-01T08:55:37.999Z</time></trkpt><trkpt lat="43.59138806080056" lon="10.972112061637759"><ele>50.0</ele><time>2026-05-01T08:55:38.999Z</time></trkpt><trkpt lat="43.59125655817717" lon="10.972091153790462"><ele>50.5</ele><time>2026-05-01T08:55:39.999Z</time></trkpt><trkpt lat="43.591125831015155" lon="10.972071406947604"><ele>51.0</ele><time>2026-05-01T08:55:40.999Z</time></trkpt><trkpt lat="43.59098665218081" lon="10.9720475601594"><ele>51.5</ele><time>2026-05-01T08:55:41.999Z</time></trkpt><trkpt lat="43.59084752698034" lon="10.972021618037678"><ele>52.0</ele><time>2026-05-01T08:55:42.999Z</time></trkpt><trkpt lat="43.5907098016758" lon="10.971992224008849"><ele>52.0</ele><time>2026-05-01T08:55:43.999Z</time></trkpt><trkpt lat="43.59057237725489" lon="10.971962869251076"><ele>52.0</ele><time>2026-05-01T08:55:44.998Z</time></trkpt><trkpt lat="43.590438217788346" lon="10.971935601357522"><ele>52.0</ele><time>2026-05-01T08:55:45.998Z</time></trkpt><trkpt lat="43.59030400186111" lon="10.97191016621171"><ele>52.0</ele><time>2026-05-01T08:55:46.998Z</time></trkpt><trkpt lat="43.590173567449966" lon="10.971879037873489"><ele>52.0</ele><time>2026-05-01T08:55:47.998Z</time></trkpt><trkpt lat="43.59005055292808" lon="10.971836538796337"><ele>52.0</ele><time>2026-05-01T08:55:48.998Z</time></trkpt><trkpt lat="43.589942572257826" lon="10.971767090645589"><ele>52.0</ele><time>2026-05-01T08:55:49.998Z</time></trkpt><trkpt lat="43.58985393065061" lon="10.971684784773634"><ele>52.0</ele><time>2026-05-01T08:55:50.998Z</time></trkpt><trkpt lat="43.589788634131345" lon="10.971579010409139"><ele>51.8</ele><time>2026-05-01T08:55:51.998Z</time></trkpt><trkpt lat="43.5897378437089" lon="10.971455448128882"><ele>51.6</ele><time>2026-05-01T08:55:52.998Z</time></trkpt><trkpt lat="43.58967401667629" lon="10.97134361947453"><ele>51.4</ele><time>2026-05-01T08:55:53.998Z</time></trkpt><trkpt lat="43.589583689284105" lon="10.971274060131417"><ele>51.199999999999996</ele><time>2026-05-01T08:55:54.998Z</time></trkpt><trkpt lat="43.58947319753279" lon="10.97125857996481"><ele>51.0</ele><time>2026-05-01T08:55:55.998Z</time></trkpt><trkpt lat="43.589359068536666" lon="10.971285842915714"><ele>51.66666666666667</ele><time>2026-05-01T08:55:56.998Z</time></trkpt><trkpt lat="43.58912098027566" lon="10.971319800723112"><ele>52.333333333333336</ele><time>2026-05-01T08:55:58.998Z</time></trkpt><trkpt lat="43.588996828399395" lon="10.971266107050825"><ele>53.0</ele><time>2026-05-01T08:55:59.998Z</time></trkpt><trkpt lat="43.58887447159971" lon="10.971215193578074"><ele>53.0</ele><time>2026-05-01T08:56:00.998Z</time></trkpt><trkpt lat="43.58877157345691" lon="10.971065364377207"><ele>53.0</ele><time>2026-05-01T08:56:01.998Z</time></trkpt><trkpt lat="43.58866746426146" lon="10.970954663853764"><ele>53.0</ele><time>2026-05-01T08:56:02.998Z</time></trkpt><trkpt lat="43.58856474011857" lon="10.970848200917331"><ele>53.0</ele><time>2026-05-01T08:56:03.998Z</time></trkpt><trkpt lat="43.588458000615454" lon="10.970742353274757"><ele>53.25</ele><time>2026-05-01T08:56:04.998Z</time></trkpt><trkpt lat="43.58835079747822" lon="10.970635249344017"><ele>53.5</ele><time>2026-05-01T08:56:05.998Z</time></trkpt><trkpt lat="43.588244450763085" lon="10.970523713248564"><ele>53.75</ele><time>2026-05-01T08:56:06.998Z</time></trkpt><trkpt lat="43.5881388418108" lon="10.9704066930527"><ele>54.0</ele><time>2026-05-01T08:56:07.999Z</time></trkpt><trkpt lat="43.588030765027355" lon="10.970289242631033"><ele>54.0</ele><time>2026-05-01T08:56:08.999Z</time></trkpt><trkpt lat="43.58792323418745" lon="10.970173354529328"><ele>54.0</ele><time>2026-05-01T08:56:09.999Z</time></trkpt><trkpt lat="43.58781398258786" lon="10.970057384786994"><ele>54.0</ele><time>2026-05-01T08:56:10.999Z</time></trkpt><trkpt lat="43.58770351606819" lon="10.96993725464164"><ele>54.0</ele><time>2026-05-01T08:56:11.999Z</time></trkpt><trkpt lat="43.5875935550042" lon="10.969816768627718"><ele>55.0</ele><time>2026-05-01T08:56:12.999Z</time></trkpt><trkpt lat="43.58747812717591" lon="10.969687135410918"><ele>56.0</ele><time>2026-05-01T08:56:13.999Z</time></trkpt><trkpt lat="43.58736266931654" lon="10.9695602411823"><ele>57.0</ele><time>2026-05-01T08:56:14.999Z</time></trkpt><trkpt lat="43.58724942861411" lon="10.969440737056914"><ele>58.0</ele><time>2026-05-01T08:56:15.999Z</time></trkpt><trkpt lat="43.58713560445067" lon="10.969318377378737"><ele>58.0</ele><time>2026-05-01T08:56:16.999Z</time></trkpt><trkpt lat="43.58702523470121" lon="10.96919599241081"><ele>58.0</ele><time>2026-05-01T08:56:17.999Z</time></trkpt><trkpt lat="43.58691241487114" lon="10.969071429341394"><ele>58.0</ele><time>2026-05-01T08:56:18.999Z</time></trkpt><trkpt lat="43.586801607556296" lon="10.968947631956654"><ele>58.0</ele><time>2026-05-01T08:56:19.999Z</time></trkpt><trkpt lat="43.58669356884526" lon="10.96883386138957"><ele>57.2</ele><time>2026-05-01T08:56:20.999Z</time></trkpt><trkpt lat="43.586593971904165" lon="10.968728296713229"><ele>56.4</ele><time>2026-05-01T08:56:21.999Z</time></trkpt><trkpt lat="43.58650296703306" lon="10.968630048403178"><ele>55.60000000000001</ele><time>2026-05-01T08:56:22.999Z</time></trkpt><trkpt lat="43.58641934217793" lon="10.968540113174457"><ele>54.800000000000004</ele><time>2026-05-01T08:56:23.999Z</time></trkpt><trkpt lat="43.58634782827761" lon="10.968444040696339"><ele>54.0</ele><time>2026-05-01T08:56:24.999Z</time></trkpt><trkpt lat="43.58629831869358" lon="10.968335894965298"><ele>54.0</ele><time>2026-05-01T08:56:25.999Z</time></trkpt><trkpt lat="43.58627551122403" lon="10.968210348680618"><ele>54.00000000000001</ele><time>2026-05-01T08:56:26.999Z</time></trkpt><trkpt lat="43.586277141010626" lon="10.968071735197658"><ele>54.00000000000001</ele><time>2026-05-01T08:56:27.999Z</time></trkpt><trkpt lat="43.58630039280584" lon="10.967910906299684"><ele>54.0</ele><time>2026-05-01T08:56:28.999Z</time></trkpt><trkpt lat="43.58634148237103" lon="10.967743532216506"><ele>54.0</ele><time>2026-05-01T08:56:29.999Z</time></trkpt><trkpt lat="43.58639303851208" lon="10.967564613840695"><ele>54.25</ele><time>2026-05-01T08:56:30.999Z</time></trkpt><trkpt lat="43.58644801406587" lon="10.967385654088632"><ele>54.5</ele><time>2026-05-01T08:56:31.999Z</time></trkpt><trkpt lat="43.586502760032296" lon="10.96720451705985"><ele>54.75</ele><time>2026-05-01T08:56:32.999Z</time></trkpt><trkpt lat="43.58655542912468" lon="10.96702075718403"><ele>55.0</ele><time>2026-05-01T08:56:33.999Z</time></trkpt><trkpt lat="43.586609423910225" lon="10.966842880467734"><ele>54.75</ele><time>2026-05-01T08:56:34.999Z</time></trkpt><trkpt lat="43.58666769675502" lon="10.966660288263592"><ele>54.5</ele><time>2026-05-01T08:56:35.999Z</time></trkpt><trkpt lat="43.58672277328451" lon="10.966473181821042"><ele>54.25</ele><time>2026-05-01T08:56:36.999Z</time></trkpt><trkpt lat="43.58677249778149" lon="10.9662728774489"><ele>54.0</ele><time>2026-05-01T08:56:37.999Z</time></trkpt><trkpt lat="43.58681609875772" lon="10.966068844316878"><ele>54.0</ele><time>2026-05-01T08:56:38.999Z</time></trkpt><trkpt lat="43.58684940104409" lon="10.96586997182306"><ele>54.0</ele><time>2026-05-01T08:56:39.999Z</time></trkpt><trkpt lat="43.586864317768885" lon="10.965664130299109"><ele>54.0</ele><time>2026-05-01T08:56:40.999Z</time></trkpt><trkpt lat="43.58686957774762" lon="10.965460454377165"><ele>54.0</ele><time>2026-05-01T08:56:41.999Z</time></trkpt><trkpt lat="43.58686521908008" lon="10.965261190381412"><ele>54.25</ele><time>2026-05-01T08:56:42.999Z</time></trkpt><trkpt lat="43.58684905418453" lon="10.965060627200634"><ele>54.5</ele><time>2026-05-01T08:56:43.999Z</time></trkpt><trkpt lat="43.5868171840615" lon="10.964865466884566"><ele>54.75</ele><time>2026-05-01T08:56:44.999Z</time></trkpt><trkpt lat="43.586772429858776" lon="10.96467687493604"><ele>55.0</ele><time>2026-05-01T08:56:45.999Z</time></trkpt><trkpt lat="43.586718894933625" lon="10.96449209575782"><ele>55.25</ele><time>2026-05-01T08:56:46.999Z</time></trkpt><trkpt lat="43.58665691802536" lon="10.964312900117886"><ele>55.5</ele><time>2026-05-01T08:56:47.999Z</time></trkpt><trkpt lat="43.586584998457084" lon="10.96413902547596"><ele>55.75</ele><time>2026-05-01T08:56:48.999Z</time></trkpt><trkpt lat="43.586502950920796" lon="10.963975539006745"><ele>56.0</ele><time>2026-05-01T08:56:49.999Z</time></trkpt><trkpt lat="43.58641324899867" lon="10.963813013238768"><ele>56.25</ele><time>2026-05-01T08:56:50.999Z</time></trkpt><trkpt lat="43.586320583740715" lon="10.963661839927425"><ele>56.5</ele><time>2026-05-01T08:56:51.999Z</time></trkpt><trkpt lat="43.586229694049734" lon="10.96350505138582"><ele>56.75</ele><time>2026-05-01T08:56:52.999Z</time></trkpt><trkpt lat="43.58613940719844" lon="10.963343182923797"><ele>57.0</ele><time>2026-05-01T08:56:53.999Z</time></trkpt><trkpt lat="43.58604815985607" lon="10.963184536915003"><ele>57.25</ele><time>2026-05-01T08:56:54.999Z</time></trkpt><trkpt lat="43.58595583998907" lon="10.963024405601608"><ele>57.5</ele><time>2026-05-01T08:56:55.999Z</time></trkpt><trkpt lat="43.58586310072971" lon="10.96286651676681"><ele>57.75</ele><time>2026-05-01T08:56:56.999Z</time></trkpt><trkpt lat="43.58577058356906" lon="10.962707866887209"><ele>58.0</ele><time>2026-05-01T08:56:57.999Z</time></trkpt><trkpt lat="43.58567878585001" lon="10.962549023320715"><ele>58.25</ele><time>2026-05-01T08:56:58.999Z</time></trkpt><trkpt lat="43.585587572076854" lon="10.962390501093973"><ele>58.5</ele><time>2026-05-01T08:56:59.999Z</time></trkpt><trkpt lat="43.58549268273878" lon="10.962238929193553"><ele>58.75</ele><time>2026-05-01T08:57:00.999Z</time></trkpt><trkpt lat="43.58539555489148" lon="10.962083418402964"><ele>59.0</ele><time>2026-05-01T08:57:01.999Z</time></trkpt><trkpt lat="43.58529296730952" lon="10.961937718327452"><ele>59.0</ele><time>2026-05-01T08:57:02.999Z</time></trkpt><trkpt lat="43.58518622917057" lon="10.961797505906828"><ele>59.0</ele><time>2026-05-01T08:57:03.999Z</time></trkpt><trkpt lat="43.585075207901625" lon="10.961657522243806"><ele>59.0</ele><time>2026-05-01T08:57:04.999Z</time></trkpt><trkpt lat="43.58495807351614" lon="10.961526392415971"><ele>59.0</ele><time>2026-05-01T08:57:05.999Z</time></trkpt><trkpt lat="43.58483053587339" lon="10.961394718455246"><ele>59.333333333333336</ele><time>2026-05-01T08:57:06.999Z</time></trkpt><trkpt lat="43.584693970659444" lon="10.96126913803786"><ele>59.66666666666667</ele><time>2026-05-01T08:57:07.999Z</time></trkpt><trkpt lat="43.58455033995843" lon="10.961145409722521"><ele>60.0</ele><time>2026-05-01T08:57:08.999Z</time></trkpt><trkpt lat="43.58440334328411" lon="10.961023497602959"><ele>59.33333333333333</ele><time>2026-05-01T08:57:09.999Z</time></trkpt><trkpt lat="43.584252083082916" lon="10.96089672997485"><ele>58.666666666666664</ele><time>2026-05-01T08:57:10.999Z</time></trkpt><trkpt lat="43.58410237516457" lon="10.960767863236429"><ele>58.0</ele><time>2026-05-01T08:57:11.999Z</time></trkpt><trkpt lat="43.58394968912458" lon="10.960630739186469"><ele>58.666666666666664</ele><time>2026-05-01T08:57:12.999Z</time></trkpt><trkpt lat="43.58380048133275" lon="10.960482171124797"><ele>59.33333333333333</ele><time>2026-05-01T08:57:13.999Z</time></trkpt><trkpt lat="43.58366021725602" lon="10.960315749814495"><ele>60.0</ele><time>2026-05-01T08:57:14.999Z</time></trkpt><trkpt lat="43.58353073339729" lon="10.960134935000168"><ele>60.33333333333333</ele><time>2026-05-01T08:57:15.999Z</time></trkpt><trkpt lat="43.58341448901603" lon="10.959936956387633"><ele>60.666666666666664</ele><time>2026-05-01T08:57:16.999Z</time></trkpt><trkpt lat="43.58330878201293" lon="10.959724243746003"><ele>61.0</ele><time>2026-05-01T08:57:17.999Z</time></trkpt><trkpt lat="43.58321631415635" lon="10.95949779490345"><ele>61.0</ele><time>2026-05-01T08:57:18.999Z</time></trkpt><trkpt lat="43.58313438186394" lon="10.959257221062286"><ele>61.0</ele><time>2026-05-01T08:57:19.999Z</time></trkpt><trkpt lat="43.583062085312875" lon="10.959013945104825"><ele>61.0</ele><time>2026-05-01T08:57:20.999Z</time></trkpt><trkpt lat="43.58299385178403" lon="10.958768725156041"><ele>61.33333333333333</ele><time>2026-05-01T08:57:21.999Z</time></trkpt><trkpt lat="43.582921380801935" lon="10.958521645921579"><ele>61.66666666666667</ele><time>2026-05-01T08:57:22.999Z</time></trkpt><trkpt lat="43.58284900669159" lon="10.95827709927689"><ele>62.0</ele><time>2026-05-01T08:57:23.999Z</time></trkpt><trkpt lat="43.58277818581131" lon="10.958030310410054"><ele>62.0</ele><time>2026-05-01T08:57:24.999Z</time></trkpt><trkpt lat="43.58270322462859" lon="10.957785467164733"><ele>62.0</ele><time>2026-05-01T08:57:25.999Z</time></trkpt><trkpt lat="43.5826302966465" lon="10.9575396299769"><ele>62.0</ele><time>2026-05-01T08:57:26.999Z</time></trkpt><trkpt lat="43.58255642914049" lon="10.957296671672156"><ele>62.66666666666667</ele><time>2026-05-01T08:57:27.999Z</time></trkpt><trkpt lat="43.582483104919774" lon="10.95705272647595"><ele>63.33333333333333</ele><time>2026-05-01T08:57:28.999Z</time></trkpt><trkpt lat="43.58241147901789" lon="10.956809145568284"><ele>64.0</ele><time>2026-05-01T08:57:29.999Z</time></trkpt><trkpt lat="43.582341043978275" lon="10.956564064912028"><ele>64.0</ele><time>2026-05-01T08:57:30.999Z</time></trkpt><trkpt lat="43.5822719234509" lon="10.956318294768353"><ele>64.0</ele><time>2026-05-01T08:57:31.999Z</time></trkpt><trkpt lat="43.582202755041884" lon="10.956071964518069"><ele>64.0</ele><time>2026-05-01T08:57:32.999Z</time></trkpt><trkpt lat="43.58213485652774" lon="10.955827353268765"><ele>64.0</ele><time>2026-05-01T08:57:33.999Z</time></trkpt><trkpt lat="43.58206586183762" lon="10.955586968220159"><ele>64.0</ele><time>2026-05-01T08:57:34.999Z</time></trkpt><trkpt lat="43.581997654823375" lon="10.955346073404716"><ele>64.0</ele><time>2026-05-01T08:57:35.999Z</time></trkpt><trkpt lat="43.58193125792314" lon="10.955109724642522"><ele>64.0</ele><time>2026-05-01T08:57:36.999Z</time></trkpt><trkpt lat="43.581861775094595" lon="10.95488114149809"><ele>64.0</ele><time>2026-05-01T08:57:37.999Z</time></trkpt><trkpt lat="43.58178306717645" lon="10.954659642380399"><ele>64.0</ele><time>2026-05-01T08:57:38.999Z</time></trkpt><trkpt lat="43.581691891685615" lon="10.95444930889192"><ele>64.0</ele><time>2026-05-01T08:57:39.999Z</time></trkpt><trkpt lat="43.58158384435161" lon="10.95424909851279"><ele>64.0</ele><time>2026-05-01T08:57:40.999Z</time></trkpt><trkpt lat="43.581461151237704" lon="10.954073593662622"><ele>64.0</ele><time>2026-05-01T08:57:41.999Z</time></trkpt><trkpt lat="43.581327206722804" lon="10.953917816970714"><ele>66.0</ele><time>2026-05-01T08:57:42.999Z</time></trkpt><trkpt lat="43.581174069645904" lon="10.953787029009723"><ele>68.0</ele><time>2026-05-01T08:57:43.999Z</time></trkpt><trkpt lat="43.581014459779034" lon="10.953674518472955"><ele>70.0</ele><time>2026-05-01T08:57:44.999Z</time></trkpt><trkpt lat="43.58085014489445" lon="10.953567393854492"><ele>70.0</ele><time>2026-05-01T08:57:45.999Z</time></trkpt><trkpt lat="43.58068359027143" lon="10.953453712502842"><ele>70.0</ele><time>2026-05-01T08:57:46.998Z</time></trkpt><trkpt lat="43.58052049707516" lon="10.953334141860179"><ele>70.0</ele><time>2026-05-01T08:57:47.998Z</time></trkpt><trkpt lat="43.58036217118556" lon="10.953200905281516"><ele>71.0</ele><time>2026-05-01T08:57:48.998Z</time></trkpt><trkpt lat="43.5802209906402" lon="10.953046831575438"><ele>72.0</ele><time>2026-05-01T08:57:49.998Z</time></trkpt><trkpt lat="43.580089532501304" lon="10.95287658391472"><ele>73.0</ele><time>2026-05-01T08:57:50.998Z</time></trkpt><trkpt lat="43.579969902715646" lon="10.9526932893574"><ele>75.0</ele><time>2026-05-01T08:57:51.998Z</time></trkpt><trkpt lat="43.579866060633755" lon="10.952496062740687"><ele>77.0</ele><time>2026-05-01T08:57:52.998Z</time></trkpt><trkpt lat="43.579773566015405" lon="10.952288422893364"><ele>79.0</ele><time>2026-05-01T08:57:53.998Z</time></trkpt><trkpt lat="43.57968190254583" lon="10.952083008942166"><ele>79.0</ele><time>2026-05-01T08:57:54.998Z</time></trkpt><trkpt lat="43.579588889789626" lon="10.951882218314946"><ele>79.0</ele><time>2026-05-01T08:57:55.998Z</time></trkpt><trkpt lat="43.579494664330234" lon="10.951680324423624"><ele>79.0</ele><time>2026-05-01T08:57:56.998Z</time></trkpt><trkpt lat="43.57939660954195" lon="10.951482632845892"><ele>83.0</ele><time>2026-05-01T08:57:57.998Z</time></trkpt><trkpt lat="43.579280086649035" lon="10.95129915954877"><ele>87.0</ele><time>2026-05-01T08:57:58.998Z</time></trkpt><trkpt lat="43.579145409144154" lon="10.95113345949914"><ele>91.0</ele><time>2026-05-01T08:57:59.998Z</time></trkpt><trkpt lat="43.57899376537647" lon="10.950988606570867"><ele>91.33333333333333</ele><time>2026-05-01T08:58:00.998Z</time></trkpt><trkpt lat="43.57882774210199" lon="10.95086091963607"><ele>91.66666666666667</ele><time>2026-05-01T08:58:01.998Z</time></trkpt><trkpt lat="43.578654207767904" lon="10.950737725790168"><ele>92.0</ele><time>2026-05-01T08:58:02.998Z</time></trkpt><trkpt lat="43.578481072842095" lon="10.950615553254808"><ele>89.33333333333334</ele><time>2026-05-01T08:58:03.998Z</time></trkpt><trkpt lat="43.578311761115046" lon="10.950493465256386"><ele>86.66666666666667</ele><time>2026-05-01T08:58:04.998Z</time></trkpt><trkpt lat="43.578147323104474" lon="10.950366587488634"><ele>84.0</ele><time>2026-05-01T08:58:05.998Z</time></trkpt><trkpt lat="43.57799600961829" lon="10.950234074098612"><ele>84.0</ele><time>2026-05-01T08:58:06.998Z</time></trkpt><trkpt lat="43.57785953942484" lon="10.950091070426145"><ele>84.0</ele><time>2026-05-01T08:58:07.998Z</time></trkpt><trkpt lat="43.57773997531722" lon="10.94993176486729"><ele>84.0</ele><time>2026-05-01T08:58:08.998Z</time></trkpt><trkpt lat="43.577635790576664" lon="10.949764036604067"><ele>84.0</ele><time>2026-05-01T08:58:09.998Z</time></trkpt><trkpt lat="43.57755161808308" lon="10.949590516901369"><ele>84.0</ele><time>2026-05-01T08:58:10.998Z</time></trkpt><trkpt lat="43.577472674163715" lon="10.949402051031559"><ele>84.0</ele><time>2026-05-01T08:58:11.998Z</time></trkpt><trkpt lat="43.57740749425478" lon="10.949204839053666"><ele>84.0</ele><time>2026-05-01T08:58:12.998Z</time></trkpt><trkpt lat="43.57734945443555" lon="10.949005393617421"><ele>84.0</ele><time>2026-05-01T08:58:13.999Z</time></trkpt><trkpt lat="43.57728643135503" lon="10.948794848105937"><ele>84.0</ele><time>2026-05-01T08:58:14.999Z</time></trkpt><trkpt lat="43.577221710110656" lon="10.948579873436076"><ele>84.66666666666667</ele><time>2026-05-01T08:58:15.999Z</time></trkpt><trkpt lat="43.577152678011224" lon="10.948361269159316"><ele>85.33333333333334</ele><time>2026-05-01T08:58:16.999Z</time></trkpt><trkpt lat="43.5770766916266" lon="10.948146472786394"><ele>86.0</ele><time>2026-05-01T08:58:17.999Z</time></trkpt><trkpt lat="43.57699540387679" lon="10.947934747193317"><ele>84.66666666666667</ele><time>2026-05-01T08:58:18.999Z</time></trkpt><trkpt lat="43.5769010095457" lon="10.94773173868247"><ele>83.33333333333333</ele><time>2026-05-01T08:58:19.999Z</time></trkpt><trkpt lat="43.576795037090676" lon="10.947539312896827"><ele>82.0</ele><time>2026-05-01T08:58:20.999Z</time></trkpt><trkpt lat="43.576679145952454" lon="10.947366465953534"><ele>82.0</ele><time>2026-05-01T08:58:21.999Z</time></trkpt><trkpt lat="43.576556859131614" lon="10.947199993749823"><ele>82.0</ele><time>2026-05-01T08:58:22.999Z</time></trkpt><trkpt lat="43.57643069139508" lon="10.947043893520878"><ele>82.0</ele><time>2026-05-01T08:58:23.999Z</time></trkpt><trkpt lat="43.576305453191964" lon="10.946880673068312"><ele>82.33333333333333</ele><time>2026-05-01T08:58:24.999Z</time></trkpt><trkpt lat="43.576182207510236" lon="10.946721860282624"><ele>82.66666666666667</ele><time>2026-05-01T08:58:25.999Z</time></trkpt><trkpt lat="43.576052326530714" lon="10.946559040847974"><ele>83.0</ele><time>2026-05-01T08:58:26.999Z</time></trkpt><trkpt lat="43.57592725024219" lon="10.946395403836393"><ele>83.66666666666667</ele><time>2026-05-01T08:58:27.999Z</time></trkpt><trkpt lat="43.57580464158014" lon="10.946225200397206"><ele>84.33333333333333</ele><time>2026-05-01T08:58:28.999Z</time></trkpt><trkpt lat="43.575682694823364" lon="10.946053603345984"><ele>85.0</ele><time>2026-05-01T08:58:29.999Z</time></trkpt><trkpt lat="43.57555948668605" lon="10.945886198993673"><ele>85.0</ele><time>2026-05-01T08:58:30.999Z</time></trkpt><trkpt lat="43.57543486718823" lon="10.945722522789762"><ele>85.0</ele><time>2026-05-01T08:58:31.999Z</time></trkpt><trkpt lat="43.57530869956259" lon="10.945553036171333"><ele>85.0</ele><time>2026-05-01T08:58:32.999Z</time></trkpt><trkpt lat="43.575179588251146" lon="10.945384808855302"><ele>85.0</ele><time>2026-05-01T08:58:33.999Z</time></trkpt><trkpt lat="43.57504862122322" lon="10.945220959061563"><ele>85.0</ele><time>2026-05-01T08:58:34.999Z</time></trkpt><trkpt lat="43.57491214237628" lon="10.945064688409111"><ele>85.0</ele><time>2026-05-01T08:58:35.999Z</time></trkpt><trkpt lat="43.574770769356206" lon="10.944929063662197"><ele>85.66666666666666</ele><time>2026-05-01T08:58:36.999Z</time></trkpt><trkpt lat="43.574618166235766" lon="10.944796802062095"><ele>86.33333333333333</ele><time>2026-05-01T08:58:37.999Z</time></trkpt><trkpt lat="43.574467052422335" lon="10.944668320816936"><ele>87.0</ele><time>2026-05-01T08:58:38.999Z</time></trkpt><trkpt lat="43.57432924727594" lon="10.944529212771696"><ele>87.0</ele><time>2026-05-01T08:58:39.999Z</time></trkpt><trkpt lat="43.574203256774254" lon="10.944362715560281"><ele>87.0</ele><time>2026-05-01T08:58:40.999Z</time></trkpt><trkpt lat="43.5741016598595" lon="10.9441772127988"><ele>87.0</ele><time>2026-05-01T08:58:41.999Z</time></trkpt><trkpt lat="43.574012784153545" lon="10.943974132991041"><ele>88.66666666666667</ele><time>2026-05-01T08:58:42.999Z</time></trkpt><trkpt lat="43.57393977634073" lon="10.94376051500037"><ele>90.33333333333334</ele><time>2026-05-01T08:58:43.999Z</time></trkpt><trkpt lat="43.573883856643235" lon="10.943538245339704"><ele>92.0</ele><time>2026-05-01T08:58:44.999Z</time></trkpt><trkpt lat="43.573842846580234" lon="10.94331132609131"><ele>93.66666666666667</ele><time>2026-05-01T08:58:45.999Z</time></trkpt><trkpt lat="43.57381017080686" lon="10.943086755930294"><ele>95.33333333333334</ele><time>2026-05-01T08:58:46.999Z</time></trkpt><trkpt lat="43.573761413510105" lon="10.942869451465917"><ele>97.0</ele><time>2026-05-01T08:58:47.999Z</time></trkpt><trkpt lat="43.573688748208255" lon="10.942669269372455"><ele>99.33333333333334</ele><time>2026-05-01T08:58:48.999Z</time></trkpt><trkpt lat="43.57359879914756" lon="10.942486876751396"><ele>101.66666666666666</ele><time>2026-05-01T08:58:49.999Z</time></trkpt><trkpt lat="43.57349590717576" lon="10.942307182178208"><ele>104.0</ele><time>2026-05-01T08:58:50.999Z</time></trkpt><trkpt lat="43.57337503006692" lon="10.942147323795348"><ele>104.0</ele><time>2026-05-01T08:58:51.999Z</time></trkpt><trkpt lat="43.573235213380535" lon="10.942013410631061"><ele>104.0</ele><time>2026-05-01T08:58:52.999Z</time></trkpt><trkpt lat="43.57308790978793" lon="10.941887090197264"><ele>104.0</ele><time>2026-05-01T08:58:53.999Z</time></trkpt><trkpt lat="43.57294459977912" lon="10.941754080320752"><ele>107.33333333333333</ele><time>2026-05-01T08:58:54.999Z</time></trkpt><trkpt lat="43.57280026075114" lon="10.941610855276219"><ele>110.66666666666666</ele><time>2026-05-01T08:58:55.999Z</time></trkpt><trkpt lat="43.57265729978075" lon="10.941471285228916"><ele>114.0</ele><time>2026-05-01T08:58:56.999Z</time></trkpt><trkpt lat="43.57251771614225" lon="10.941337415509514"><ele>114.0</ele><time>2026-05-01T08:58:57.999Z</time></trkpt><trkpt lat="43.57238040294604" lon="10.941206317304129"><ele>114.0</ele><time>2026-05-01T08:58:58.999Z</time></trkpt><trkpt lat="43.5722458595898" lon="10.94107805210422"><ele>114.0</ele><time>2026-05-01T08:58:59.999Z</time></trkpt><trkpt lat="43.57211317357933" lon="10.940951846530398"><ele>116.66666666666666</ele><time>2026-05-01T08:59:00.999Z</time></trkpt><trkpt lat="43.57198724393632" lon="10.940830388598341"><ele>119.33333333333333</ele><time>2026-05-01T08:59:01.999Z</time></trkpt><trkpt lat="43.571863794018434" lon="10.94070514017076"><ele>122.0</ele><time>2026-05-01T08:59:02.999Z</time></trkpt><trkpt lat="43.57175266424022" lon="10.940567607802102"><ele>122.0</ele><time>2026-05-01T08:59:03.999Z</time></trkpt><trkpt lat="43.571659219904504" lon="10.940422282715256"><ele>122.0</ele><time>2026-05-01T08:59:04.999Z</time></trkpt><trkpt lat="43.57156845546111" lon="10.940254390875799"><ele>122.0</ele><time>2026-05-01T08:59:05.999Z</time></trkpt><trkpt lat="43.57150729403072" lon="10.940108497267772"><ele>122.0</ele><time>2026-05-01T08:59:06.999Z</time></trkpt><trkpt lat="43.57145919122786" lon="10.939958472755803"><ele>124.6</ele><time>2026-05-01T08:59:07.999Z</time></trkpt><trkpt lat="43.571420658974844" lon="10.93981906161124"><ele>127.19999999999999</ele><time>2026-05-01T08:59:08.999Z</time></trkpt><trkpt lat="43.57138269813525" lon="10.939675981686811"><ele>129.8</ele><time>2026-05-01T08:59:09.999Z</time></trkpt><trkpt lat="43.57134018199328" lon="10.939530156101114"><ele>132.4</ele><time>2026-05-01T08:59:10.999Z</time></trkpt><trkpt lat="43.57129193348417" lon="10.939389834440586"><ele>135.0</ele><time>2026-05-01T08:59:11.999Z</time></trkpt><trkpt lat="43.57123512871808" lon="10.939253960504804"><ele>135.25</ele><time>2026-05-01T08:59:12.999Z</time></trkpt><trkpt lat="43.571166156901775" lon="10.939125105712781"><ele>135.5</ele><time>2026-05-01T08:59:13.999Z</time></trkpt><trkpt lat="43.571090411185416" lon="10.939001439706164"><ele>135.75</ele><time>2026-05-01T08:59:14.999Z</time></trkpt><trkpt lat="43.571006833221766" lon="10.938877865420261"><ele>136.0</ele><time>2026-05-01T08:59:15.999Z</time></trkpt><trkpt lat="43.570914089804894" lon="10.938757426503914"><ele>136.0</ele><time>2026-05-01T08:59:16.999Z</time></trkpt><trkpt lat="43.570806942140074" lon="10.938650319928644"><ele>136.0</ele><time>2026-05-01T08:59:17.999Z</time></trkpt><trkpt lat="43.57068459657726" lon="10.938554914084108"><ele>136.0</ele><time>2026-05-01T08:59:18.999Z</time></trkpt><trkpt lat="43.5705522181763" lon="10.938470283426916"><ele>136.0</ele><time>2026-05-01T08:59:19.999Z</time></trkpt><trkpt lat="43.57041066454016" lon="10.93837848527519"><ele>137.33333333333334</ele><time>2026-05-01T08:59:20.999Z</time></trkpt><trkpt lat="43.57026807990153" lon="10.938284094714401"><ele>138.66666666666666</ele><time>2026-05-01T08:59:21.999Z</time></trkpt><trkpt lat="43.57012186514365" lon="10.93818925730366"><ele>140.0</ele><time>2026-05-01T08:59:22.999Z</time></trkpt><trkpt lat="43.56997624196137" lon="10.938098283571527"><ele>140.0</ele><time>2026-05-01T08:59:23.999Z</time></trkpt><trkpt lat="43.56983118325671" lon="10.938007298792053"><ele>140.0</ele><time>2026-05-01T08:59:24.999Z</time></trkpt><trkpt lat="43.56969008259753" lon="10.937915781106286"><ele>140.0</ele><time>2026-05-01T08:59:25.999Z</time></trkpt><trkpt lat="43.5695486266124" lon="10.937820493074899"><ele>141.75</ele><time>2026-05-01T08:59:26.999Z</time></trkpt><trkpt lat="43.56941281595587" lon="10.937729439398455"><ele>143.5</ele><time>2026-05-01T08:59:27.999Z</time></trkpt><trkpt lat="43.569278820465605" lon="10.937641738656218"><ele>145.25</ele><time>2026-05-01T08:59:28.999Z</time></trkpt><trkpt lat="43.569147348784114" lon="10.937564372612796"><ele>147.0</ele><time>2026-05-01T08:59:29.999Z</time></trkpt><trkpt lat="43.56901052206877" lon="10.937506135018305"><ele>148.75</ele><time>2026-05-01T08:59:30.999Z</time></trkpt><trkpt lat="43.56886880329553" lon="10.93747346838279"><ele>150.5</ele><time>2026-05-01T08:59:31.999Z</time></trkpt><trkpt lat="43.56872954258167" lon="10.937470324455468"><ele>152.25</ele><time>2026-05-01T08:59:32.999Z</time></trkpt><trkpt lat="43.56859189074899" lon="10.937485559272597"><ele>154.0</ele><time>2026-05-01T08:59:33.999Z</time></trkpt><trkpt lat="43.56845454338229" lon="10.937529530567497"><ele>156.5</ele><time>2026-05-01T08:59:34.999Z</time></trkpt><trkpt lat="43.56832369150604" lon="10.937595107842746"><ele>159.0</ele><time>2026-05-01T08:59:35.999Z</time></trkpt><trkpt lat="43.56820501501339" lon="10.937694429774528"><ele>161.5</ele><time>2026-05-01T08:59:36.999Z</time></trkpt><trkpt lat="43.568095188863076" lon="10.937812430092952"><ele>164.0</ele><time>2026-05-01T08:59:37.999Z</time></trkpt><trkpt lat="43.56799503485983" lon="10.937935730664796"><ele>164.0</ele><time>2026-05-01T08:59:38.999Z</time></trkpt><trkpt lat="43.567890897912214" lon="10.938053555369377"><ele>164.0</ele><time>2026-05-01T08:59:39.999Z</time></trkpt><trkpt lat="43.56778827418433" lon="10.938160555774106"><ele>164.0</ele><time>2026-05-01T08:59:40.999Z</time></trkpt><trkpt lat="43.567683955262474" lon="10.938259603700256"><ele>164.0</ele><time>2026-05-01T08:59:41.999Z</time></trkpt><trkpt lat="43.56757761865936" lon="10.938347763136033"><ele>166.25</ele><time>2026-05-01T08:59:42.999Z</time></trkpt><trkpt lat="43.56746714407337" lon="10.938419784834908"><ele>168.5</ele><time>2026-05-01T08:59:43.999Z</time></trkpt><trkpt lat="43.56735032207477" lon="10.938472327367132"><ele>170.75</ele><time>2026-05-01T08:59:44.999Z</time></trkpt><trkpt lat="43.56723389920494" lon="10.938520004096938"><ele>173.0</ele><time>2026-05-01T08:59:45.999Z</time></trkpt><trkpt lat="43.56711249532842" lon="10.938552079308415"><ele>175.5</ele><time>2026-05-01T08:59:46.999Z</time></trkpt><trkpt lat="43.56698577523885" lon="10.938576199662958"><ele>178.0</ele><time>2026-05-01T08:59:47.999Z</time></trkpt><trkpt lat="43.5668612948143" lon="10.938585018252867"><ele>180.5</ele><time>2026-05-01T08:59:48.999Z</time></trkpt><trkpt lat="43.56673540049199" lon="10.9385884779677"><ele>183.0</ele><time>2026-05-01T08:59:49.999Z</time></trkpt><trkpt lat="43.5666112956384" lon="10.938586873041402"><ele>183.0</ele><time>2026-05-01T08:59:50.999Z</time></trkpt><trkpt lat="43.56648419410179" lon="10.93859474286412"><ele>183.0</ele><time>2026-05-01T08:59:51.999Z</time></trkpt><trkpt lat="43.566358058582374" lon="10.938611374235112"><ele>183.0</ele><time>2026-05-01T08:59:52.999Z</time></trkpt><trkpt lat="43.56623266847577" lon="10.938640648952338"><ele>183.0</ele><time>2026-05-01T08:59:53.999Z</time></trkpt><trkpt lat="43.56610793697352" lon="10.938685510572464"><ele>184.0</ele><time>2026-05-01T08:59:54.999Z</time></trkpt><trkpt lat="43.56598725935243" lon="10.938737576444355"><ele>185.0</ele><time>2026-05-01T08:59:55.999Z</time></trkpt><trkpt lat="43.56586387542729" lon="10.938799614297292"><ele>186.0</ele><time>2026-05-01T08:59:56.999Z</time></trkpt><trkpt lat="43.565739149109625" lon="10.93886859375758"><ele>187.0</ele><time>2026-05-01T08:59:57.999Z</time></trkpt><trkpt lat="43.56561609193728" lon="10.93893553234897"><ele>187.0</ele><time>2026-05-01T08:59:58.999Z</time></trkpt><trkpt lat="43.565488560161974" lon="10.93899720890661"><ele>187.0</ele><time>2026-05-01T08:59:59.999Z</time></trkpt><trkpt lat="43.56535613312671" lon="10.939052968495574"><ele>187.0</ele><time>2026-05-01T09:00:00.999Z</time></trkpt><trkpt lat="43.565222054873345" lon="10.93910618270771"><ele>187.0</ele><time>2026-05-01T09:00:01.998Z</time></trkpt><trkpt lat="43.56508305382803" lon="10.939151194321667"><ele>187.75</ele><time>2026-05-01T09:00:02.998Z</time></trkpt><trkpt lat="43.56494766323217" lon="10.939197148476664"><ele>188.5</ele><time>2026-05-01T09:00:03.998Z</time></trkpt><trkpt lat="43.5648089423426" lon="10.939241658207536"><ele>189.25</ele><time>2026-05-01T09:00:04.998Z</time></trkpt><trkpt lat="43.564668587428386" lon="10.93928551268694"><ele>190.0</ele><time>2026-05-01T09:00:05.998Z</time></trkpt><trkpt lat="43.564529727250736" lon="10.939325275863354"><ele>189.25</ele><time>2026-05-01T09:00:06.998Z</time></trkpt><trkpt lat="43.56439221335873" lon="10.939358204215472"><ele>188.5</ele><time>2026-05-01T09:00:07.998Z</time></trkpt><trkpt lat="43.564255474683456" lon="10.939386042800642"><ele>187.75</ele><time>2026-05-01T09:00:08.998Z</time></trkpt><trkpt lat="43.5641240019622" lon="10.939407304914306"><ele>187.0</ele><time>2026-05-01T09:00:09.998Z</time></trkpt><trkpt lat="43.56399164390089" lon="10.939421667738216"><ele>187.0</ele><time>2026-05-01T09:00:10.998Z</time></trkpt><trkpt lat="43.563855466006025" lon="10.939424293891221"><ele>187.0</ele><time>2026-05-01T09:00:11.998Z</time></trkpt><trkpt lat="43.563717491546846" lon="10.939417865467437"><ele>187.0</ele><time>2026-05-01T09:00:12.998Z</time></trkpt><trkpt lat="43.56357467551447" lon="10.93941311566021"><ele>187.0</ele><time>2026-05-01T09:00:13.998Z</time></trkpt><trkpt lat="43.563429796052006" lon="10.939405859987117"><ele>187.5</ele><time>2026-05-01T09:00:14.998Z</time></trkpt><trkpt lat="43.56328283052359" lon="10.93939432245179"><ele>188.0</ele><time>2026-05-01T09:00:15.998Z</time></trkpt><trkpt lat="43.56313636470534" lon="10.939384313230562"><ele>188.5</ele><time>2026-05-01T09:00:16.998Z</time></trkpt><trkpt lat="43.5629917821844" lon="10.939381432753926"><ele>189.0</ele><time>2026-05-01T09:00:17.998Z</time></trkpt><trkpt lat="43.56284828687423" lon="10.93938181710918"><ele>189.0</ele><time>2026-05-01T09:00:18.998Z</time></trkpt><trkpt lat="43.562707306090296" lon="10.939388827652863"><ele>189.0</ele><time>2026-05-01T09:00:20Z</time></trkpt><trkpt lat="43.56256815606689" lon="10.939398733968693"><ele>189.0</ele><time>2026-05-01T09:00:21Z</time></trkpt><trkpt lat="43.562432838222485" lon="10.939409769982763"><ele>189.0</ele><time>2026-05-01T09:00:22Z</time></trkpt><trkpt lat="43.5623055194755" lon="10.939419340225486"><ele>189.0</ele><time>2026-05-01T09:00:23Z</time></trkpt><trkpt lat="43.562177214935005" lon="10.93943009864709"><ele>189.0</ele><time>2026-05-01T09:00:24Z</time></trkpt><trkpt lat="43.56205529434966" lon="10.93944858605576"><ele>189.0</ele><time>2026-05-01T09:00:25Z</time></trkpt><trkpt lat="43.561930661698305" lon="10.939467660861643"><ele>189.0</ele><time>2026-05-01T09:00:26Z</time></trkpt><trkpt lat="43.561804375515514" lon="10.939485633742176"><ele>191.0</ele><time>2026-05-01T09:00:27Z</time></trkpt><trkpt lat="43.56167567257202" lon="10.939492390833928"><ele>193.0</ele><time>2026-05-01T09:00:28Z</time></trkpt><trkpt lat="43.56154412473888" lon="10.939487651195822"><ele>195.0</ele><time>2026-05-01T09:00:29Z</time></trkpt><trkpt lat="43.561414512274425" lon="10.939475287762738"><ele>197.0</ele><time>2026-05-01T09:00:30Z</time></trkpt><trkpt lat="43.56128083191359" lon="10.939448564283726"><ele>199.25</ele><time>2026-05-01T09:00:31Z</time></trkpt><trkpt lat="43.5611484041104" lon="10.939409202865873"><ele>201.5</ele><time>2026-05-01T09:00:32Z</time></trkpt><trkpt lat="43.561017951435815" lon="10.939359972807207"><ele>203.75</ele><time>2026-05-01T09:00:33Z</time></trkpt><trkpt lat="43.56088876634779" lon="10.93930057929678"><ele>206.0</ele><time>2026-05-01T09:00:34Z</time></trkpt><trkpt lat="43.56075872751443" lon="10.939237526713242"><ele>207.75</ele><time>2026-05-01T09:00:35Z</time></trkpt><trkpt lat="43.560626232333554" lon="10.939172353073053"><ele>209.5</ele><time>2026-05-01T09:00:36Z</time></trkpt><trkpt lat="43.56049531840913" lon="10.939113644470321"><ele>211.25</ele><time>2026-05-01T09:00:37Z</time></trkpt><trkpt lat="43.56036002532847" lon="10.939054253147198"><ele>213.0</ele><time>2026-05-01T09:00:38Z</time></trkpt><trkpt lat="43.56022370320516" lon="10.939000044618007"><ele>213.25</ele><time>2026-05-01T09:00:39Z</time></trkpt><trkpt lat="43.56008758829975" lon="10.938951939158185"><ele>213.5</ele><time>2026-05-01T09:00:40Z</time></trkpt><trkpt lat="43.55995136187151" lon="10.938910747536516"><ele>213.75</ele><time>2026-05-01T09:00:41Z</time></trkpt><trkpt lat="43.55981580159879" lon="10.938853465107533"><ele>214.0</ele><time>2026-05-01T09:00:42Z</time></trkpt><trkpt lat="43.5596732628923" lon="10.938851753951617"><ele>214.0</ele><time>2026-05-01T09:00:43Z</time></trkpt><trkpt lat="43.559534075466054" lon="10.938837169922783"><ele>214.0</ele><time>2026-05-01T09:00:43.999Z</time></trkpt><trkpt lat="43.559392634669976" lon="10.938831715809725"><ele>214.0</ele><time>2026-05-01T09:00:44.999Z</time></trkpt><trkpt lat="43.55925370838884" lon="10.938832661907682"><ele>214.0</ele><time>2026-05-01T09:00:45.999Z</time></trkpt><trkpt lat="43.55911202975444" lon="10.938839766522722"><ele>215.75</ele><time>2026-05-01T09:00:46.999Z</time></trkpt><trkpt lat="43.55897454340675" lon="10.938849346787274"><ele>217.5</ele><time>2026-05-01T09:00:47.999Z</time></trkpt><trkpt lat="43.55883541348888" lon="10.93885694238929"><ele>219.25</ele><time>2026-05-01T09:00:48.999Z</time></trkpt><trkpt lat="43.55869388195891" lon="10.938859985720343"><ele>221.0</ele><time>2026-05-01T09:00:49.999Z</time></trkpt><trkpt lat="43.55855746886816" lon="10.938864388859532"><ele>222.25</ele><time>2026-05-01T09:00:50.999Z</time></trkpt><trkpt lat="43.55841876677817" lon="10.938871415237546"><ele>223.5</ele><time>2026-05-01T09:00:51.999Z</time></trkpt><trkpt lat="43.55827847212114" lon="10.93888353581465"><ele>224.75</ele><time>2026-05-01T09:00:52.999Z</time></trkpt><trkpt lat="43.558141653333834" lon="10.938889788301523"><ele>226.0</ele><time>2026-05-01T09:00:53.999Z</time></trkpt><trkpt lat="43.55799643185927" lon="10.938880238533551"><ele>226.5</ele><time>2026-05-01T09:00:54.999Z</time></trkpt><trkpt lat="43.55786112713993" lon="10.93884997504609"><ele>227.0</ele><time>2026-05-01T09:00:55.999Z</time></trkpt><trkpt lat="43.557725285057096" lon="10.938803582354295"><ele>227.5</ele><time>2026-05-01T09:00:56.999Z</time></trkpt><trkpt lat="43.55759031539874" lon="10.93874130833588"><ele>228.0</ele><time>2026-05-01T09:00:57.999Z</time></trkpt><trkpt lat="43.557454503818214" lon="10.938659951977629"><ele>228.0</ele><time>2026-05-01T09:00:58.999Z</time></trkpt><trkpt lat="43.557315462059805" lon="10.938554454492623"><ele>228.0</ele><time>2026-05-01T09:00:59.999Z</time></trkpt><trkpt lat="43.55718440854697" lon="10.938432724857961"><ele>228.0</ele><time>2026-05-01T09:01:00.999Z</time></trkpt><trkpt lat="43.55708296161834" lon="10.938307166635822"><ele>228.5</ele><time>2026-05-01T09:01:01.999Z</time></trkpt><trkpt lat="43.55699566654672" lon="10.938179769377188"><ele>229.0</ele><time>2026-05-01T09:01:02.999Z</time></trkpt><trkpt lat="43.556915314025225" lon="10.938043801327796"><ele>229.5</ele><time>2026-05-01T09:01:03.999Z</time></trkpt><trkpt lat="43.55684251207765" lon="10.93790278058338"><ele>230.0</ele><time>2026-05-01T09:01:04.999Z</time></trkpt><trkpt lat="43.556775007358276" lon="10.937753293519963"><ele>230.0</ele><time>2026-05-01T09:01:05.999Z</time></trkpt><trkpt lat="43.5567164118885" lon="10.937598115371664"><ele>230.0</ele><time>2026-05-01T09:01:06.999Z</time></trkpt><trkpt lat="43.55667006513933" lon="10.937431635336834"><ele>230.0</ele><time>2026-05-01T09:01:07.999Z</time></trkpt><trkpt lat="43.5566333568119" lon="10.937257005861039"><ele>230.0</ele><time>2026-05-01T09:01:08.999Z</time></trkpt><trkpt lat="43.55660756348508" lon="10.937072202395958"><ele>230.25</ele><time>2026-05-01T09:01:09.999Z</time></trkpt><trkpt lat="43.55659275558828" lon="10.936881041464991"><ele>230.5</ele><time>2026-05-01T09:01:10.999Z</time></trkpt><trkpt lat="43.55658134021376" lon="10.936687217429546"><ele>230.75</ele><time>2026-05-01T09:01:11.999Z</time></trkpt><trkpt lat="43.55656499974671" lon="10.936489238739274"><ele>231.0</ele><time>2026-05-01T09:01:12.999Z</time></trkpt><trkpt lat="43.55653921266374" lon="10.936290738499931"><ele>231.0</ele><time>2026-05-01T09:01:13.999Z</time></trkpt><trkpt lat="43.556500607585264" lon="10.936088772824883"><ele>231.0</ele><time>2026-05-01T09:01:14.999Z</time></trkpt><trkpt lat="43.55644914891382" lon="10.93589013819878"><ele>231.0</ele><time>2026-05-01T09:01:15.999Z</time></trkpt><trkpt lat="43.55638306441667" lon="10.935700253327493"><ele>231.5</ele><time>2026-05-01T09:01:16.999Z</time></trkpt><trkpt lat="43.55630238304835" lon="10.935530836198097"><ele>232.0</ele><time>2026-05-01T09:01:17.999Z</time></trkpt><trkpt lat="43.556210542460086" lon="10.93538201241052"><ele>232.5</ele><time>2026-05-01T09:01:18.999Z</time></trkpt><trkpt lat="43.5561104825217" lon="10.935255227513288"><ele>233.0</ele><time>2026-05-01T09:01:19.999Z</time></trkpt><trkpt lat="43.55600534724963" lon="10.935154538513386"><ele>234.75</ele><time>2026-05-01T09:01:20.999Z</time></trkpt><trkpt lat="43.555900201121254" lon="10.935076676745753"><ele>236.5</ele><time>2026-05-01T09:01:21.999Z</time></trkpt><trkpt lat="43.55579593009608" lon="10.935012342479117"><ele>238.25</ele><time>2026-05-01T09:01:22.999Z</time></trkpt><trkpt lat="43.555689863172354" lon="10.934954976402693"><ele>240.0</ele><time>2026-05-01T09:01:23.999Z</time></trkpt><trkpt lat="43.555575956902814" lon="10.934906196790779"><ele>240.2</ele><time>2026-05-01T09:01:24.999Z</time></trkpt><trkpt lat="43.555459325861705" lon="10.934868369235309"><ele>240.4</ele><time>2026-05-01T09:01:25.999Z</time></trkpt><trkpt lat="43.5553503620205" lon="10.934846134219331"><ele>240.60000000000002</ele><time>2026-05-01T09:01:26.999Z</time></trkpt><trkpt lat="43.5552486894906" lon="10.934836959358323"><ele>240.8</ele><time>2026-05-01T09:01:27.999Z</time></trkpt><trkpt lat="43.55515395892053" lon="10.934833044278838"><ele>241.0</ele><time>2026-05-01T09:01:28.999Z</time></trkpt><trkpt lat="43.55505622286211" lon="10.934806081359573"><ele>240.60000000000002</ele><time>2026-05-01T09:01:29.999Z</time></trkpt><trkpt lat="43.55495164418705" lon="10.934802087757491"><ele>240.20000000000002</ele><time>2026-05-01T09:01:30.999Z</time></trkpt><trkpt lat="43.55484094126717" lon="10.934797860290761"><ele>239.79999999999998</ele><time>2026-05-01T09:01:31.999Z</time></trkpt><trkpt lat="43.55472898955825" lon="10.934793585134242"><ele>239.39999999999998</ele><time>2026-05-01T09:01:32.999Z</time></trkpt><trkpt lat="43.55461678067835" lon="10.934789300155856"><ele>239.0</ele><time>2026-05-01T09:01:33.999Z</time></trkpt><trkpt lat="43.55450240155391" lon="10.934807775127327"><ele>239.0</ele><time>2026-05-01T09:01:34.999Z</time></trkpt><trkpt lat="43.55438899158295" lon="10.934802817150238"><ele>239.0</ele><time>2026-05-01T09:01:35.999Z</time></trkpt><trkpt lat="43.554272631840874" lon="10.93479837667454"><ele>239.0</ele><time>2026-05-01T09:01:36.999Z</time></trkpt><trkpt lat="43.55415657662624" lon="10.934794294735104"><ele>239.0</ele><time>2026-05-01T09:01:37.999Z</time></trkpt><trkpt lat="43.55403811470413" lon="10.934769842064963"><ele>239.0</ele><time>2026-05-01T09:01:38.999Z</time></trkpt><trkpt lat="43.55391610261445" lon="10.934766113854378"><ele>239.0</ele><time>2026-05-01T09:01:39.999Z</time></trkpt><trkpt lat="43.55379133411835" lon="10.934760656160488"><ele>239.0</ele><time>2026-05-01T09:01:40.999Z</time></trkpt><trkpt lat="43.55366933115025" lon="10.934746481465409"><ele>239.0</ele><time>2026-05-01T09:01:41.999Z</time></trkpt><trkpt lat="43.553556888485566" lon="10.934725662798002"><ele>239.16666666666669</ele><time>2026-05-01T09:01:42.999Z</time></trkpt><trkpt lat="43.553459786138106" lon="10.934699869416546"><ele>239.33333333333334</ele><time>2026-05-01T09:01:43.999Z</time></trkpt><trkpt lat="43.553373386738414" lon="10.934671771976648"><ele>239.5</ele><time>2026-05-01T09:01:44.999Z</time></trkpt><trkpt lat="43.55329665043909" lon="10.934643007934758"><ele>239.66666666666669</ele><time>2026-05-01T09:01:45.999Z</time></trkpt><trkpt lat="43.55321695410425" lon="10.934606642752524"><ele>239.83333333333334</ele><time>2026-05-01T09:01:46.999Z</time></trkpt><trkpt lat="43.55312574715653" lon="10.934561597770395"><ele>240.0</ele><time>2026-05-01T09:01:47.999Z</time></trkpt><trkpt lat="43.553025140933634" lon="10.934528241556894"><ele>240.0</ele><time>2026-05-01T09:01:48.999Z</time></trkpt><trkpt lat="43.55292766187425" lon="10.93446198564941"><ele>240.0</ele><time>2026-05-01T09:01:49.999Z</time></trkpt><trkpt lat="43.55282967810454" lon="10.934382620209275"><ele>240.0</ele><time>2026-05-01T09:01:50.999Z</time></trkpt><trkpt lat="43.55273259060911" lon="10.934297728162218"><ele>240.0</ele><time>2026-05-01T09:01:51.999Z</time></trkpt><trkpt lat="43.55265024850211" lon="10.934213382400454"><ele>240.0</ele><time>2026-05-01T09:01:52.999Z</time></trkpt><trkpt lat="43.55257791597119" lon="10.934135171127242"><ele>241.33333333333334</ele><time>2026-05-01T09:01:53.999Z</time></trkpt><trkpt lat="43.552514884175764" lon="10.934062355679679"><ele>242.66666666666669</ele><time>2026-05-01T09:01:54.999Z</time></trkpt><trkpt lat="43.552453719932466" lon="10.933983603560545"><ele>244.0</ele><time>2026-05-01T09:01:55.999Z</time></trkpt><trkpt lat="43.55239546103333" lon="10.933901978562504"><ele>245.33333333333334</ele><time>2026-05-01T09:01:56.999Z</time></trkpt><trkpt lat="43.55233881561354" lon="10.933817485606506"><ele>246.66666666666669</ele><time>2026-05-01T09:01:57.999Z</time></trkpt><trkpt lat="43.55228948287358" lon="10.933731969317668"><ele>248.0</ele><time>2026-05-01T09:01:58.999Z</time></trkpt><trkpt lat="43.552247206222205" lon="10.93364742541915"><ele>248.0</ele><time>2026-05-01T09:01:59.999Z</time></trkpt><trkpt lat="43.5522057718392" lon="10.933561588377357"><ele>248.0</ele><time>2026-05-01T09:02:00.999Z</time></trkpt><trkpt lat="43.55216700269074" lon="10.933469427013813"><ele>248.0</ele><time>2026-05-01T09:02:01.999Z</time></trkpt><trkpt lat="43.552113126264764" lon="10.933333192378957"><ele>248.0</ele><time>2026-05-01T09:02:03.999Z</time></trkpt><trkpt lat="43.55206920503775" lon="10.933213826467293"><ele>248.0</ele><time>2026-05-01T09:02:05.999Z</time></trkpt><trkpt lat="43.55202590358312" lon="10.933059633103"><ele>248.4</ele><time>2026-05-01T09:02:07.999Z</time></trkpt><trkpt lat="43.55199718871804" lon="10.932959620936613"><ele>248.8</ele><time>2026-05-01T09:02:08.998Z</time></trkpt><trkpt lat="43.55196150206466" lon="10.932846032795648"><ele>249.2</ele><time>2026-05-01T09:02:09.998Z</time></trkpt><trkpt lat="43.55191979795694" lon="10.93271981769875"><ele>249.6</ele><time>2026-05-01T09:02:10.998Z</time></trkpt><trkpt lat="43.55187491388336" lon="10.932598880303445"><ele>250.0</ele><time>2026-05-01T09:02:11.998Z</time></trkpt><trkpt lat="43.55182038195847" lon="10.93246386370487"><ele>250.5</ele><time>2026-05-01T09:02:12.998Z</time></trkpt><trkpt lat="43.551752392731196" lon="10.932313562877068"><ele>251.0</ele><time>2026-05-01T09:02:13.998Z</time></trkpt><trkpt lat="43.55167063007813" lon="10.932156804258957"><ele>251.5</ele><time>2026-05-01T09:02:14.998Z</time></trkpt><trkpt lat="43.551572960165394" lon="10.93200457917198"><ele>252.0</ele><time>2026-05-01T09:02:15.998Z</time></trkpt><trkpt lat="43.551466362330885" lon="10.93185050886671"><ele>253.0</ele><time>2026-05-01T09:02:16.998Z</time></trkpt><trkpt lat="43.55134861819288" lon="10.9317071894687"><ele>254.0</ele><time>2026-05-01T09:02:17.998Z</time></trkpt><trkpt lat="43.55121743612408" lon="10.931574513509473"><ele>255.0</ele><time>2026-05-01T09:02:18.998Z</time></trkpt><trkpt lat="43.55107187261976" lon="10.931459229318529"><ele>257.3333333333333</ele><time>2026-05-01T09:02:19.998Z</time></trkpt><trkpt lat="43.55091803839673" lon="10.931363759760941"><ele>259.66666666666663</ele><time>2026-05-01T09:02:20.998Z</time></trkpt><trkpt lat="43.5507608397897" lon="10.931283821368574"><ele>262.0</ele><time>2026-05-01T09:02:21.998Z</time></trkpt><trkpt lat="43.550596070684506" lon="10.931206146243087"><ele>262.0</ele><time>2026-05-01T09:02:22.998Z</time></trkpt><trkpt lat="43.55043234660192" lon="10.931125347030846"><ele>262.0</ele><time>2026-05-01T09:02:23.998Z</time></trkpt><trkpt lat="43.55026856913023" lon="10.93103416092827"><ele>262.0</ele><time>2026-05-01T09:02:24.998Z</time></trkpt><trkpt lat="43.55010166449194" lon="10.930939339733683"><ele>264.0</ele><time>2026-05-01T09:02:26Z</time></trkpt><trkpt lat="43.549931476147975" lon="10.930844166011804"><ele>266.0</ele><time>2026-05-01T09:02:27Z</time></trkpt><trkpt lat="43.5497556298049" lon="10.930749375277564"><ele>268.0</ele><time>2026-05-01T09:02:28Z</time></trkpt><trkpt lat="43.54958646137556" lon="10.930639827288454"><ele>268.3333333333333</ele><time>2026-05-01T09:02:29Z</time></trkpt><trkpt lat="43.549435295525754" lon="10.930512442927325"><ele>268.6666666666667</ele><time>2026-05-01T09:02:30Z</time></trkpt><trkpt lat="43.549295654265165" lon="10.930376057277682"><ele>269.0</ele><time>2026-05-01T09:02:31Z</time></trkpt><trkpt lat="43.549165496987406" lon="10.930242146856703"><ele>269.0</ele><time>2026-05-01T09:02:32Z</time></trkpt><trkpt lat="43.549033456626304" lon="10.930100574448876"><ele>269.0</ele><time>2026-05-01T09:02:33Z</time></trkpt><trkpt lat="43.54890789666172" lon="10.92995820877543"><ele>269.0</ele><time>2026-05-01T09:02:34Z</time></trkpt><trkpt lat="43.54878285472275" lon="10.929798947487333"><ele>273.0</ele><time>2026-05-01T09:02:35Z</time></trkpt><trkpt lat="43.54867234919531" lon="10.9296329388494"><ele>277.0</ele><time>2026-05-01T09:02:36Z</time></trkpt><trkpt lat="43.548563445964795" lon="10.92947110935074"><ele>281.0</ele><time>2026-05-01T09:02:37Z</time></trkpt><trkpt lat="43.548455813814115" lon="10.929335128513559"><ele>285.0</ele><time>2026-05-01T09:02:38Z</time></trkpt><trkpt lat="43.54832939015673" lon="10.929199282876516"><ele>289.0</ele><time>2026-05-01T09:02:39Z</time></trkpt><trkpt lat="43.548200152231345" lon="10.929096144976448"><ele>293.0</ele><time>2026-05-01T09:02:40Z</time></trkpt><trkpt lat="43.548057412873064" lon="10.929001529835677"><ele>293.0</ele><time>2026-05-01T09:02:41Z</time></trkpt><trkpt lat="43.547905913595216" lon="10.928927551188044"><ele>293.0</ele><time>2026-05-01T09:02:42Z</time></trkpt><trkpt lat="43.54774406673116" lon="10.92886991426865"><ele>293.0</ele><time>2026-05-01T09:02:43Z</time></trkpt><trkpt lat="43.547574048934294" lon="10.928838269760696"><ele>294.0</ele><time>2026-05-01T09:02:44Z</time></trkpt><trkpt lat="43.5473934677947" lon="10.928832056624762"><ele>295.0</ele><time>2026-05-01T09:02:45Z</time></trkpt><trkpt lat="43.547208415925674" lon="10.928828895564795"><ele>296.0</ele><time>2026-05-01T09:02:46Z</time></trkpt><trkpt lat="43.547020236704775" lon="10.928824152286849"><ele>298.0</ele><time>2026-05-01T09:02:47Z</time></trkpt><trkpt lat="43.54682745521997" lon="10.928816761837519"><ele>300.0</ele><time>2026-05-01T09:02:48Z</time></trkpt><trkpt lat="43.546633676657926" lon="10.928807183523649"><ele>302.0</ele><time>2026-05-01T09:02:49Z</time></trkpt><trkpt lat="43.54644041730949" lon="10.928798778051176"><ele>302.0</ele><time>2026-05-01T09:02:50Z</time></trkpt><trkpt lat="43.54625244883843" lon="10.928788818332702"><ele>302.0</ele><time>2026-05-01T09:02:51Z</time></trkpt><trkpt lat="43.54606755774799" lon="10.928781252804416"><ele>302.0</ele><time>2026-05-01T09:02:52Z</time></trkpt><trkpt lat="43.54588506102906" lon="10.928773405543625"><ele>304.6666666666667</ele><time>2026-05-01T09:02:53Z</time></trkpt><trkpt lat="43.54570817211463" lon="10.928764839816882"><ele>307.3333333333333</ele><time>2026-05-01T09:02:54Z</time></trkpt><trkpt lat="43.54553505056228" lon="10.92875406122157"><ele>310.0</ele><time>2026-05-01T09:02:55Z</time></trkpt><trkpt lat="43.545363071294915" lon="10.928742344057381"><ele>311.3333333333333</ele><time>2026-05-01T09:02:56Z</time></trkpt><trkpt lat="43.54519548141818" lon="10.928721876460518"><ele>312.6666666666667</ele><time>2026-05-01T09:02:57Z</time></trkpt><trkpt lat="43.54503090060216" lon="10.928685073936572"><ele>314.0</ele><time>2026-05-01T09:02:57.999Z</time></trkpt><trkpt lat="43.54486483905882" lon="10.928638865079066"><ele>314.0</ele><time>2026-05-01T09:02:58.999Z</time></trkpt><trkpt lat="43.544704328523764" lon="10.928570474043962"><ele>314.0</ele><time>2026-05-01T09:02:59.999Z</time></trkpt><trkpt lat="43.54454459289436" lon="10.92849524282878"><ele>314.0</ele><time>2026-05-01T09:03:00.999Z</time></trkpt><trkpt lat="43.544383465859696" lon="10.928413623668146"><ele>319.0</ele><time>2026-05-01T09:03:01.999Z</time></trkpt><trkpt lat="43.54422252240631" lon="10.928312774093293"><ele>324.0</ele><time>2026-05-01T09:03:02.999Z</time></trkpt><trkpt lat="43.54406157233536" lon="10.92821105915085"><ele>329.0</ele><time>2026-05-01T09:03:03.999Z</time></trkpt><trkpt lat="43.5439018033552" lon="10.928108777669127"><ele>329.0</ele><time>2026-05-01T09:03:04.999Z</time></trkpt><trkpt lat="43.543750033252515" lon="10.928010328983076"><ele>329.0</ele><time>2026-05-01T09:03:05.999Z</time></trkpt><trkpt lat="43.543612912633684" lon="10.927911375644666"><ele>329.0</ele><time>2026-05-01T09:03:06.999Z</time></trkpt><trkpt lat="43.543473654556635" lon="10.927811980562947"><ele>331.0</ele><time>2026-05-01T09:03:07.999Z</time></trkpt><trkpt lat="43.543332683594194" lon="10.927716824670387"><ele>333.0</ele><time>2026-05-01T09:03:08.999Z</time></trkpt><trkpt lat="43.54319517216554" lon="10.92762551932811"><ele>335.0</ele><time>2026-05-01T09:03:09.999Z</time></trkpt><trkpt lat="43.54306206322347" lon="10.927537186945537"><ele>335.75</ele><time>2026-05-01T09:03:10.999Z</time></trkpt><trkpt lat="43.54293246770456" lon="10.927453672553142"><ele>336.5</ele><time>2026-05-01T09:03:11.999Z</time></trkpt><trkpt lat="43.54280073793159" lon="10.927374476872306"><ele>337.25</ele><time>2026-05-01T09:03:12.999Z</time></trkpt><trkpt lat="43.54266848111214" lon="10.927313201186122"><ele>338.0</ele><time>2026-05-01T09:03:13.999Z</time></trkpt><trkpt lat="43.542530759100096" lon="10.927277823367051"><ele>339.33333333333337</ele><time>2026-05-01T09:03:14.999Z</time></trkpt><trkpt lat="43.54238445829648" lon="10.927264300545561"><ele>340.6666666666667</ele><time>2026-05-01T09:03:15.999Z</time></trkpt><trkpt lat="43.5422331019274" lon="10.927263017549253"><ele>342.0</ele><time>2026-05-01T09:03:16.999Z</time></trkpt><trkpt lat="43.54207863900729" lon="10.927261195682103"><ele>344.3333333333333</ele><time>2026-05-01T09:03:17.999Z</time></trkpt><trkpt lat="43.54192447741797" lon="10.927261459503985"><ele>346.66666666666663</ele><time>2026-05-01T09:03:18.999Z</time></trkpt><trkpt lat="43.541765824885026" lon="10.927254594164804"><ele>349.0</ele><time>2026-05-01T09:03:19.999Z</time></trkpt><trkpt lat="43.541611320663115" lon="10.927252884696754"><ele>349.0</ele><time>2026-05-01T09:03:20.999Z</time></trkpt><trkpt lat="43.54145958017445" lon="10.927250338342725"><ele>349.0</ele><time>2026-05-01T09:03:21.999Z</time></trkpt><trkpt lat="43.54129901790278" lon="10.927250715971827"><ele>349.0</ele><time>2026-05-01T09:03:22.999Z</time></trkpt><trkpt lat="43.541147665155755" lon="10.927251543256437"><ele>351.66666666666663</ele><time>2026-05-01T09:03:23.999Z</time></trkpt><trkpt lat="43.540994455705125" lon="10.927243066356029"><ele>354.3333333333333</ele><time>2026-05-01T09:03:24.999Z</time></trkpt><trkpt lat="43.54084184913108" lon="10.927243054835776"><ele>357.0</ele><time>2026-05-01T09:03:25.999Z</time></trkpt><trkpt lat="43.54069220274643" lon="10.927221708961113"><ele>357.0</ele><time>2026-05-01T09:03:26.999Z</time></trkpt><trkpt lat="43.540560796263776" lon="10.927115257943242"><ele>357.0</ele><time>2026-05-01T09:03:27.999Z</time></trkpt><trkpt lat="43.54042008938127" lon="10.927023088167289"><ele>357.0</ele><time>2026-05-01T09:03:28.999Z</time></trkpt><trkpt lat="43.54028890614623" lon="10.926908072950368"><ele>359.3333333333333</ele><time>2026-05-01T09:03:29.999Z</time></trkpt><trkpt lat="43.54014674358079" lon="10.926802342336465"><ele>361.66666666666663</ele><time>2026-05-01T09:03:30.999Z</time></trkpt><trkpt lat="43.540001935491" lon="10.926698806210469"><ele>364.0</ele><time>2026-05-01T09:03:31.999Z</time></trkpt><trkpt lat="43.53985960585318" lon="10.92659655598638"><ele>364.3333333333333</ele><time>2026-05-01T09:03:32.999Z</time></trkpt><trkpt lat="43.53971666466056" lon="10.926486451682207"><ele>364.6666666666667</ele><time>2026-05-01T09:03:33.999Z</time></trkpt><trkpt lat="43.53957435911286" lon="10.926380364271132"><ele>365.0</ele><time>2026-05-01T09:03:34.999Z</time></trkpt><trkpt lat="43.53943270633286" lon="10.926278777814584"><ele>368.25</ele><time>2026-05-01T09:03:35.999Z</time></trkpt><trkpt lat="43.53929220458389" lon="10.926174482566735"><ele>371.5</ele><time>2026-05-01T09:03:36.999Z</time></trkpt><trkpt lat="43.539166025298556" lon="10.92607677137124"><ele>374.75</ele><time>2026-05-01T09:03:37.999Z</time></trkpt><trkpt lat="43.539052978750156" lon="10.925997226281815"><ele>378.0</ele><time>2026-05-01T09:03:38.999Z</time></trkpt><trkpt lat="43.538943951942024" lon="10.925929447476538"><ele>377.25</ele><time>2026-05-01T09:03:39.999Z</time></trkpt><trkpt lat="43.53883175753043" lon="10.925865107040549"><ele>376.5</ele><time>2026-05-01T09:03:40.999Z</time></trkpt><trkpt lat="43.538719424884725" lon="10.925799535314694"><ele>375.75</ele><time>2026-05-01T09:03:41.999Z</time></trkpt><trkpt lat="43.53861042559009" lon="10.925732799021501"><ele>375.0</ele><time>2026-05-01T09:03:42.999Z</time></trkpt><trkpt lat="43.53850419680899" lon="10.9256626192487"><ele>376.75</ele><time>2026-05-01T09:03:43.999Z</time></trkpt><trkpt lat="43.538399949467056" lon="10.925580752068251"><ele>378.5</ele><time>2026-05-01T09:03:44.999Z</time></trkpt><trkpt lat="43.538297282544455" lon="10.925487926080672"><ele>380.25</ele><time>2026-05-01T09:03:45.999Z</time></trkpt><trkpt lat="43.53819030904821" lon="10.925390722895147"><ele>382.0</ele><time>2026-05-01T09:03:46.999Z</time></trkpt><trkpt lat="43.538078677352956" lon="10.925292141665691"><ele>382.0</ele><time>2026-05-01T09:03:47.999Z</time></trkpt><trkpt lat="43.53795914317516" lon="10.925199790449202"><ele>382.0</ele><time>2026-05-01T09:03:48.999Z</time></trkpt><trkpt lat="43.537837319232636" lon="10.925094403954686"><ele>382.0</ele><time>2026-05-01T09:03:49.999Z</time></trkpt><trkpt lat="43.53771154071756" lon="10.924986931237473"><ele>382.0</ele><time>2026-05-01T09:03:50.999Z</time></trkpt><trkpt lat="43.537581036506566" lon="10.924877901161784"><ele>385.0</ele><time>2026-05-01T09:03:51.999Z</time></trkpt><trkpt lat="43.5374463692558" lon="10.924763725957137"><ele>388.0</ele><time>2026-05-01T09:03:52.999Z</time></trkpt><trkpt lat="43.53731217503393" lon="10.924648773517744"><ele>391.0</ele><time>2026-05-01T09:03:53.999Z</time></trkpt><trkpt lat="43.53717325778393" lon="10.924523227825683"><ele>392.33333333333337</ele><time>2026-05-01T09:03:54.999Z</time></trkpt><trkpt lat="43.53703377504625" lon="10.924400638667464"><ele>393.66666666666663</ele><time>2026-05-01T09:03:55.999Z</time></trkpt><trkpt lat="43.53689111195279" lon="10.924275371496247"><ele>395.0</ele><time>2026-05-01T09:03:56.999Z</time></trkpt><trkpt lat="43.536741065019896" lon="10.924154516914632"><ele>396.0</ele><time>2026-05-01T09:03:57.999Z</time></trkpt><trkpt lat="43.53657920910612" lon="10.924046413622817"><ele>397.0</ele><time>2026-05-01T09:03:58.999Z</time></trkpt><trkpt lat="43.536409920218624" lon="10.92396526132139"><ele>398.0</ele><time>2026-05-01T09:03:59.999Z</time></trkpt><trkpt lat="43.536241112969684" lon="10.923900635144589"><ele>401.0</ele><time>2026-05-01T09:04:00.999Z</time></trkpt><trkpt lat="43.53608091265835" lon="10.923854877546287"><ele>404.0</ele><time>2026-05-01T09:04:01.999Z</time></trkpt><trkpt lat="43.5359351513206" lon="10.923830894579474"><ele>407.0</ele><time>2026-05-01T09:04:02.999Z</time></trkpt><trkpt lat="43.53579529214925" lon="10.923829666504044"><ele>407.0</ele><time>2026-05-01T09:04:03.999Z</time></trkpt><trkpt lat="43.535655576093404" lon="10.923841042818685"><ele>407.0</ele><time>2026-05-01T09:04:04.999Z</time></trkpt><trkpt lat="43.53552031230717" lon="10.923861308063554"><ele>407.0</ele><time>2026-05-01T09:04:05.999Z</time></trkpt><trkpt lat="43.53538827854489" lon="10.923877694407969"><ele>407.0</ele><time>2026-05-01T09:04:06.999Z</time></trkpt><trkpt lat="43.535258524679115" lon="10.92389296688507"><ele>408.5</ele><time>2026-05-01T09:04:07.999Z</time></trkpt><trkpt lat="43.53512589137784" lon="10.923901640268241"><ele>410.0</ele><time>2026-05-01T09:04:08.999Z</time></trkpt><trkpt lat="43.53499112064869" lon="10.923909524481548"><ele>411.5</ele><time>2026-05-01T09:04:09.999Z</time></trkpt><trkpt lat="43.5348509992292" lon="10.923926030192087"><ele>413.0</ele><time>2026-05-01T09:04:10.999Z</time></trkpt><trkpt lat="43.5347089528606" lon="10.923941454715125"><ele>413.0</ele><time>2026-05-01T09:04:11.999Z</time></trkpt><trkpt lat="43.53456399061208" lon="10.923953619028744"><ele>413.0</ele><time>2026-05-01T09:04:12.999Z</time></trkpt><trkpt lat="43.53441447542646" lon="10.923968837136375"><ele>413.0</ele><time>2026-05-01T09:04:13.999Z</time></trkpt><trkpt lat="43.534264780387524" lon="10.923983269799017"><ele>413.0</ele><time>2026-05-01T09:04:14.999Z</time></trkpt><trkpt lat="43.5341143821557" lon="10.923996821521627"><ele>415.3333333333333</ele><time>2026-05-01T09:04:15.999Z</time></trkpt><trkpt lat="43.53396515170278" lon="10.92400994975369"><ele>417.66666666666663</ele><time>2026-05-01T09:04:16.999Z</time></trkpt><trkpt lat="43.53381352645977" lon="10.924025334765133"><ele>420.0</ele><time>2026-05-01T09:04:17.999Z</time></trkpt><trkpt lat="43.53366053521024" lon="10.92404156477169"><ele>423.0</ele><time>2026-05-01T09:04:18.999Z</time></trkpt><trkpt lat="43.53350228424865" lon="10.924058920599247"><ele>426.0</ele><time>2026-05-01T09:04:19.999Z</time></trkpt><trkpt lat="43.53334748316894" lon="10.924073070542732"><ele>429.0</ele><time>2026-05-01T09:04:20.999Z</time></trkpt><trkpt lat="43.53319344742142" lon="10.924093787543166"><ele>429.0</ele><time>2026-05-01T09:04:21.999Z</time></trkpt><trkpt lat="43.533033972706825" lon="10.92410779341528"><ele>429.0</ele><time>2026-05-01T09:04:22.999Z</time></trkpt><trkpt lat="43.532879163399826" lon="10.92409332817271"><ele>429.0</ele><time>2026-05-01T09:04:23.998Z</time></trkpt><trkpt lat="43.53272451600845" lon="10.924040220035877"><ele>431.25</ele><time>2026-05-01T09:04:24.998Z</time></trkpt><trkpt lat="43.53257358731338" lon="10.923968579460883"><ele>433.5</ele><time>2026-05-01T09:04:25.998Z</time></trkpt><trkpt lat="43.532435307309854" lon="10.923912993269086"><ele>435.75</ele><time>2026-05-01T09:04:26.998Z</time></trkpt><trkpt lat="43.53230188791065" lon="10.923902350598638"><ele>438.0</ele><time>2026-05-01T09:04:27.998Z</time></trkpt><trkpt lat="43.53218166111732" lon="10.923950562528056"><ele>438.0</ele><time>2026-05-01T09:04:28.998Z</time></trkpt><trkpt lat="43.532072627424405" lon="10.924063840530327"><ele>438.0</ele><time>2026-05-01T09:04:29.998Z</time></trkpt><trkpt lat="43.53198363620077" lon="10.92420700244711"><ele>438.0</ele><time>2026-05-01T09:04:30.998Z</time></trkpt><trkpt lat="43.53186976991345" lon="10.924300922635492"><ele>438.0</ele><time>2026-05-01T09:04:32Z</time></trkpt><trkpt lat="43.531751065527004" lon="10.924365155077565"><ele>438.25</ele><time>2026-05-01T09:04:33Z</time></trkpt><trkpt lat="43.531625869214835" lon="10.924360342167136"><ele>438.5</ele><time>2026-05-01T09:04:34Z</time></trkpt><trkpt lat="43.531517838409826" lon="10.924294663574436"><ele>438.75</ele><time>2026-05-01T09:04:35Z</time></trkpt><trkpt lat="43.5314209134866" lon="10.924235664979877"><ele>439.0</ele><time>2026-05-01T09:04:36Z</time></trkpt><trkpt lat="43.53131742020187" lon="10.924201994757427"><ele>442.0</ele><time>2026-05-01T09:04:37Z</time></trkpt><trkpt lat="43.53120518688275" lon="10.924226293502048"><ele>445.0</ele><time>2026-05-01T09:04:38Z</time></trkpt><trkpt lat="43.53109559382387" lon="10.924296573125192"><ele>448.0</ele><time>2026-05-01T09:04:39Z</time></trkpt><trkpt lat="43.530996364696705" lon="10.924365052729186"><ele>451.0</ele><time>2026-05-01T09:04:40Z</time></trkpt><trkpt lat="43.53091102787887" lon="10.92442521727425"><ele>454.0</ele><time>2026-05-01T09:04:41Z</time></trkpt><trkpt lat="43.530833751937685" lon="10.924497564648412"><ele>454.0</ele><time>2026-05-01T09:04:42Z</time></trkpt><trkpt lat="43.530777285155175" lon="10.924601375276117"><ele>454.0</ele><time>2026-05-01T09:04:43Z</time></trkpt><trkpt lat="43.53073265583291" lon="10.924741383428973"><ele>454.0</ele><time>2026-05-01T09:04:44Z</time></trkpt><trkpt lat="43.53073145633733" lon="10.924897308760785"><ele>454.0</ele><time>2026-05-01T09:04:45Z</time></trkpt><trkpt lat="43.53078283536671" lon="10.925047972583075"><ele>454.0</ele><time>2026-05-01T09:04:46Z</time></trkpt><trkpt lat="43.530799055229615" lon="10.925182866061192"><ele>454.2</ele><time>2026-05-01T09:04:47Z</time></trkpt><trkpt lat="43.53081714727992" lon="10.925312052112252"><ele>454.4</ele><time>2026-05-01T09:04:48Z</time></trkpt><trkpt lat="43.53081745000151" lon="10.925448828847465"><ele>454.6</ele><time>2026-05-01T09:04:49Z</time></trkpt><trkpt lat="43.530796200571196" lon="10.925578699119072"><ele>454.8</ele><time>2026-05-01T09:04:50Z</time></trkpt><trkpt lat="43.530772328594296" lon="10.925721110345687"><ele>455.0</ele><time>2026-05-01T09:04:51Z</time></trkpt><trkpt lat="43.53074821657602" lon="10.925862938672019"><ele>454.6</ele><time>2026-05-01T09:04:52Z</time></trkpt><trkpt lat="43.53072640458536" lon="10.925996162671192"><ele>454.2</ele><time>2026-05-01T09:04:53Z</time></trkpt><trkpt lat="43.530710625026245" lon="10.926129389409226"><ele>453.79999999999995</ele><time>2026-05-01T09:04:54Z</time></trkpt><trkpt lat="43.53071297572648" lon="10.926281821341558"><ele>453.4</ele><time>2026-05-01T09:04:55Z</time></trkpt><trkpt lat="43.53071318131547" lon="10.926437022130667"><ele>453.0</ele><time>2026-05-01T09:04:56Z</time></trkpt><trkpt lat="43.530712610028125" lon="10.926603665660148"><ele>451.5</ele><time>2026-05-01T09:04:57Z</time></trkpt><trkpt lat="43.5307120122674" lon="10.926778031576072"><ele>450.0</ele><time>2026-05-01T09:04:58Z</time></trkpt><trkpt lat="43.53071144999362" lon="10.926955098049696"><ele>448.5</ele><time>2026-05-01T09:04:59Z</time></trkpt><trkpt lat="43.53070959584431" lon="10.927133615541448"><ele>447.0</ele><time>2026-05-01T09:05:00Z</time></trkpt><trkpt lat="43.53069782687172" lon="10.92730769946559"><ele>447.0</ele><time>2026-05-01T09:05:01Z</time></trkpt><trkpt lat="43.53066949687494" lon="10.927476277471584"><ele>447.0</ele><time>2026-05-01T09:05:02Z</time></trkpt><trkpt lat="43.53062319580108" lon="10.927637756270542"><ele>447.0</ele><time>2026-05-01T09:05:03Z</time></trkpt><trkpt lat="43.53056697480837" lon="10.927799026780066"><ele>447.0</ele><time>2026-05-01T09:05:04Z</time></trkpt><trkpt lat="43.530507168621014" lon="10.927959646148242"><ele>446.0</ele><time>2026-05-01T09:05:05Z</time></trkpt><trkpt lat="43.530447410581424" lon="10.928119197303976"><ele>445.0</ele><time>2026-05-01T09:05:06Z</time></trkpt><trkpt lat="43.530389936300494" lon="10.928277684927366"><ele>444.0</ele><time>2026-05-01T09:05:07Z</time></trkpt><trkpt lat="43.53033252869549" lon="10.928445730424652"><ele>443.0</ele><time>2026-05-01T09:05:08Z</time></trkpt><trkpt lat="43.53027615041291" lon="10.928602431009145"><ele>442.0</ele><time>2026-05-01T09:05:08.999Z</time></trkpt><trkpt lat="43.53021129878531" lon="10.928739317560485"><ele>440.99999999999994</ele><time>2026-05-01T09:05:09.999Z</time></trkpt><trkpt lat="43.5301349230729" lon="10.928862416032963"><ele>439.99999999999994</ele><time>2026-05-01T09:05:10.999Z</time></trkpt><trkpt lat="43.530038254787215" lon="10.928938902521889"><ele>439.0</ele><time>2026-05-01T09:05:11.999Z</time></trkpt><trkpt lat="43.529948063161626" lon="10.928993037727297"><ele>438.0</ele><time>2026-05-01T09:05:12.999Z</time></trkpt><trkpt lat="43.52985436791683" lon="10.92904719229494"><ele>438.0</ele><time>2026-05-01T09:05:13.999Z</time></trkpt><trkpt lat="43.52978544318888" lon="10.929118947142198"><ele>438.0</ele><time>2026-05-01T09:05:14.999Z</time></trkpt><trkpt lat="43.52971589850132" lon="10.929159353704906"><ele>438.0</ele><time>2026-05-01T09:05:15.999Z</time></trkpt><trkpt lat="43.52964861798374" lon="10.929169830024785"><ele>438.0</ele><time>2026-05-01T09:05:16.999Z</time></trkpt><trkpt lat="43.52957085153622" lon="10.929152359546679"><ele>438.0</ele><time>2026-05-01T09:05:17.999Z</time></trkpt><trkpt lat="43.52948616568683" lon="10.929088099902216"><ele>438.0</ele><time>2026-05-01T09:05:18.999Z</time></trkpt><trkpt lat="43.52939255586469" lon="10.929014816135464"><ele>436.75</ele><time>2026-05-01T09:05:19.999Z</time></trkpt><trkpt lat="43.52930052059646" lon="10.92892760997835"><ele>435.5</ele><time>2026-05-01T09:05:20.999Z</time></trkpt><trkpt lat="43.5292042116277" lon="10.928848676314761"><ele>434.25</ele><time>2026-05-01T09:05:21.999Z</time></trkpt><trkpt lat="43.52909721005565" lon="10.928772516700738"><ele>433.0</ele><time>2026-05-01T09:05:22.999Z</time></trkpt><trkpt lat="43.5289840748737" lon="10.928689858194328"><ele>433.0</ele><time>2026-05-01T09:05:23.999Z</time></trkpt><trkpt lat="43.52886594684548" lon="10.928613285573848"><ele>433.0</ele><time>2026-05-01T09:05:24.999Z</time></trkpt><trkpt lat="43.52874196464254" lon="10.928555725224008"><ele>433.0</ele><time>2026-05-01T09:05:25.999Z</time></trkpt><trkpt lat="43.52861812316299" lon="10.92851172784094"><ele>433.0</ele><time>2026-05-01T09:05:26.999Z</time></trkpt><trkpt lat="43.528489126569916" lon="10.928495886334938"><ele>432.25</ele><time>2026-05-01T09:05:27.999Z</time></trkpt><trkpt lat="43.52836125316877" lon="10.928503994434548"><ele>431.5</ele><time>2026-05-01T09:05:28.999Z</time></trkpt><trkpt lat="43.528236743959745" lon="10.928509020836298"><ele>430.75</ele><time>2026-05-01T09:05:29.999Z</time></trkpt><trkpt lat="43.52811636657762" lon="10.928515099757423"><ele>430.0</ele><time>2026-05-01T09:05:30.999Z</time></trkpt><trkpt lat="43.52799433006632" lon="10.928521560166933"><ele>429.75</ele><time>2026-05-01T09:05:31.999Z</time></trkpt><trkpt lat="43.5278747384979" lon="10.928526886722285"><ele>429.5</ele><time>2026-05-01T09:05:32.999Z</time></trkpt><trkpt lat="43.52775101936948" lon="10.928531253129224"><ele>429.25</ele><time>2026-05-01T09:05:33.999Z</time></trkpt><trkpt lat="43.52762354047353" lon="10.928534085825884"><ele>429.0</ele><time>2026-05-01T09:05:34.999Z</time></trkpt><trkpt lat="43.52749091658224" lon="10.928541993930562"><ele>429.0</ele><time>2026-05-01T09:05:35.999Z</time></trkpt><trkpt lat="43.5273503656569" lon="10.928555025404485"><ele>429.0</ele><time>2026-05-01T09:05:36.999Z</time></trkpt><trkpt lat="43.527196564343214" lon="10.928570402684302"><ele>429.0</ele><time>2026-05-01T09:05:37.999Z</time></trkpt><trkpt lat="43.52703749517684" lon="10.928589934562257"><ele>428.66666666666663</ele><time>2026-05-01T09:05:38.999Z</time></trkpt><trkpt lat="43.526872825185265" lon="10.928614316322282"><ele>428.3333333333333</ele><time>2026-05-01T09:05:39.999Z</time></trkpt><trkpt lat="43.52671311939127" lon="10.928640907499009"><ele>428.0</ele><time>2026-05-01T09:05:40.999Z</time></trkpt><trkpt lat="43.5265489835255" lon="10.928667347891128"><ele>428.0</ele><time>2026-05-01T09:05:41.999Z</time></trkpt><trkpt lat="43.52637986981882" lon="10.928689398857314"><ele>428.0</ele><time>2026-05-01T09:05:42.999Z</time></trkpt><trkpt lat="43.526205952210326" lon="10.928717363872186"><ele>428.0</ele><time>2026-05-01T09:05:43.999Z</time></trkpt><trkpt lat="43.52602864116172" lon="10.928741680853218"><ele>427.3333333333333</ele><time>2026-05-01T09:05:44.999Z</time></trkpt><trkpt lat="43.525851632926376" lon="10.928765544336045"><ele>426.66666666666663</ele><time>2026-05-01T09:05:45.999Z</time></trkpt><trkpt lat="43.52567479390015" lon="10.928792599345154"><ele>426.0</ele><time>2026-05-01T09:05:46.999Z</time></trkpt><trkpt lat="43.52549866631342" lon="10.928820631260507"><ele>424.0</ele><time>2026-05-01T09:05:47.999Z</time></trkpt><trkpt lat="43.52532261670391" lon="10.928846654094201"><ele>422.0</ele><time>2026-05-01T09:05:48.999Z</time></trkpt><trkpt lat="43.52514163841993" lon="10.928869490631103"><ele>420.0</ele><time>2026-05-01T09:05:49.999Z</time></trkpt><trkpt lat="43.5249608851497" lon="10.928877210523565"><ele>420.0</ele><time>2026-05-01T09:05:50.999Z</time></trkpt><trkpt lat="43.52478371053515" lon="10.928858567566442"><ele>420.0</ele><time>2026-05-01T09:05:51.999Z</time></trkpt><trkpt lat="43.52460988502297" lon="10.928825389028399"><ele>420.0</ele><time>2026-05-01T09:05:52.999Z</time></trkpt><trkpt lat="43.52443826090459" lon="10.928782497530305"><ele>420.33333333333337</ele><time>2026-05-01T09:05:53.999Z</time></trkpt><trkpt lat="43.524269953449775" lon="10.928744752614854"><ele>420.6666666666667</ele><time>2026-05-01T09:05:54.999Z</time></trkpt><trkpt lat="43.52410474991096" lon="10.928712320259448"><ele>421.0</ele><time>2026-05-01T09:05:55.999Z</time></trkpt><trkpt lat="43.523940759247154" lon="10.92868244080505"><ele>421.0</ele><time>2026-05-01T09:05:56.999Z</time></trkpt><trkpt lat="43.5237785762796" lon="10.92864947867222"><ele>421.0</ele><time>2026-05-01T09:05:57.999Z</time></trkpt><trkpt lat="43.52361370379094" lon="10.928613224114722"><ele>421.0</ele><time>2026-05-01T09:05:58.999Z</time></trkpt><trkpt lat="43.52344921323874" lon="10.928572845032077"><ele>421.6666666666667</ele><time>2026-05-01T09:05:59.999Z</time></trkpt><trkpt lat="43.52328538807102" lon="10.928519788602582"><ele>422.33333333333337</ele><time>2026-05-01T09:06:00.999Z</time></trkpt><trkpt lat="43.5231236962569" lon="10.928446880247316"><ele>423.0</ele><time>2026-05-01T09:06:01.999Z</time></trkpt><trkpt lat="43.52296572560164" lon="10.9283534545704"><ele>426.0</ele><time>2026-05-01T09:06:02.999Z</time></trkpt><trkpt lat="43.52280811197837" lon="10.928255136718986"><ele>429.0</ele><time>2026-05-01T09:06:03.999Z</time></trkpt><trkpt lat="43.52264359071463" lon="10.928162390873105"><ele>432.0</ele><time>2026-05-01T09:06:04.999Z</time></trkpt><trkpt lat="43.52247944764333" lon="10.92807328351781"><ele>432.0</ele><time>2026-05-01T09:06:05.999Z</time></trkpt><trkpt lat="43.52231009281622" lon="10.927983792194961"><ele>432.0</ele><time>2026-05-01T09:06:06.999Z</time></trkpt><trkpt lat="43.52214454865289" lon="10.927900758526004"><ele>432.0</ele><time>2026-05-01T09:06:07.999Z</time></trkpt><trkpt lat="43.52197648572256" lon="10.927833028159808"><ele>431.33333333333337</ele><time>2026-05-01T09:06:08.999Z</time></trkpt><trkpt lat="43.52180690320078" lon="10.92777798570724"><ele>430.6666666666667</ele><time>2026-05-01T09:06:09.999Z</time></trkpt><trkpt lat="43.52163662586871" lon="10.92773072369879"><ele>430.0</ele><time>2026-05-01T09:06:10.999Z</time></trkpt><trkpt lat="43.52146476609927" lon="10.927688904006738"><ele>430.0</ele><time>2026-05-01T09:06:11.999Z</time></trkpt><trkpt lat="43.52129596264182" lon="10.927646925574278"><ele>430.0</ele><time>2026-05-01T09:06:12.999Z</time></trkpt><trkpt lat="43.52112779782601" lon="10.927602869270585"><ele>430.0</ele><time>2026-05-01T09:06:13.999Z</time></trkpt><trkpt lat="43.52096272954037" lon="10.927558556013771"><ele>431.75</ele><time>2026-05-01T09:06:14.999Z</time></trkpt><trkpt lat="43.52081080122753" lon="10.927521255696218"><ele>433.5</ele><time>2026-05-01T09:06:15.999Z</time></trkpt><trkpt lat="43.52066951799527" lon="10.927484579237147"><ele>435.25</ele><time>2026-05-01T09:06:16.999Z</time></trkpt><trkpt lat="43.520542219417536" lon="10.927450351292864"><ele>437.0</ele><time>2026-05-01T09:06:17.999Z</time></trkpt><trkpt lat="43.52042247668797" lon="10.927414174091604"><ele>437.75</ele><time>2026-05-01T09:06:18.999Z</time></trkpt><trkpt lat="43.52030373908636" lon="10.92738058208687"><ele>438.5</ele><time>2026-05-01T09:06:19.999Z</time></trkpt><trkpt lat="43.52018132223228" lon="10.927347351697518"><ele>439.25</ele><time>2026-05-01T09:06:20.999Z</time></trkpt><trkpt lat="43.52005690508822" lon="10.927314102648504"><ele>440.0</ele><time>2026-05-01T09:06:21.999Z</time></trkpt><trkpt lat="43.51992929968817" lon="10.927278249594625"><ele>440.0</ele><time>2026-05-01T09:06:22.999Z</time></trkpt><trkpt lat="43.51981300156786" lon="10.927245731925971"><ele>440.0</ele><time>2026-05-01T09:06:23.999Z</time></trkpt><trkpt lat="43.519708653180004" lon="10.927215765467693"><ele>440.0</ele><time>2026-05-01T09:06:24.999Z</time></trkpt><trkpt lat="43.51961901962012" lon="10.927186879886982"><ele>440.0</ele><time>2026-05-01T09:06:25.999Z</time></trkpt><trkpt lat="43.519546430475735" lon="10.927167313592562"><ele>440.0</ele><time>2026-05-01T09:06:26.999Z</time></trkpt><trkpt lat="43.519481938741244" lon="10.927151177804348"><ele>440.16666666666663</ele><time>2026-05-01T09:06:27.999Z</time></trkpt><trkpt lat="43.519417385890634" lon="10.92713628269395"><ele>440.3333333333333</ele><time>2026-05-01T09:06:28.999Z</time></trkpt><trkpt lat="43.51928937911343" lon="10.927123387501705"><ele>440.5</ele><time>2026-05-01T09:06:30.999Z</time></trkpt><trkpt lat="43.51921677347591" lon="10.927111012243579"><ele>440.66666666666663</ele><time>2026-05-01T09:06:31.999Z</time></trkpt><trkpt lat="43.519135596553994" lon="10.92710308063475"><ele>440.8333333333333</ele><time>2026-05-01T09:06:32.998Z</time></trkpt><trkpt lat="43.519049749699604" lon="10.927095836222868"><ele>441.0</ele><time>2026-05-01T09:06:33.998Z</time></trkpt><trkpt lat="43.51895720397913" lon="10.927088286247244"><ele>441.0</ele><time>2026-05-01T09:06:34.998Z</time></trkpt><trkpt lat="43.51886423461973" lon="10.927082166270798"><ele>441.0</ele><time>2026-05-01T09:06:35.998Z</time></trkpt><trkpt lat="43.51876850903073" lon="10.927074941113053"><ele>441.0</ele><time>2026-05-01T09:06:36.998Z</time></trkpt><trkpt lat="43.51866801316053" lon="10.927061797768003"><ele>441.0</ele><time>2026-05-01T09:06:38Z</time></trkpt><trkpt lat="43.51856318570644" lon="10.927057121201493"><ele>441.0</ele><time>2026-05-01T09:06:39Z</time></trkpt><trkpt lat="43.51846257400342" lon="10.927055141966013"><ele>440.5</ele><time>2026-05-01T09:06:40Z</time></trkpt><trkpt lat="43.518354874230305" lon="10.927050741318912"><ele>440.0</ele><time>2026-05-01T09:06:41Z</time></trkpt><trkpt lat="43.51824348922362" lon="10.927041959408376"><ele>439.5</ele><time>2026-05-01T09:06:42Z</time></trkpt><trkpt lat="43.51812796248014" lon="10.927028736485342"><ele>439.0</ele><time>2026-05-01T09:06:43Z</time></trkpt><trkpt lat="43.518009456724386" lon="10.927018468489024"><ele>438.75</ele><time>2026-05-01T09:06:44Z</time></trkpt><trkpt lat="43.517889678615205" lon="10.927009027431899"><ele>438.5</ele><time>2026-05-01T09:06:45Z</time></trkpt><trkpt lat="43.51777123579663" lon="10.926997834229308"><ele>438.25</ele><time>2026-05-01T09:06:46Z</time></trkpt><trkpt lat="43.51765320165786" lon="10.926983092553838"><ele>438.0</ele><time>2026-05-01T09:06:47Z</time></trkpt><trkpt lat="43.517539394433065" lon="10.9269685617118"><ele>438.0</ele><time>2026-05-01T09:06:48Z</time></trkpt><trkpt lat="43.51742501460012" lon="10.926957139587133"><ele>438.0</ele><time>2026-05-01T09:06:49Z</time></trkpt><trkpt lat="43.51730544226127" lon="10.926948057587701"><ele>438.0</ele><time>2026-05-01T09:06:50Z</time></trkpt><trkpt lat="43.51717681985862" lon="10.92693898206759"><ele>438.0</ele><time>2026-05-01T09:06:51Z</time></trkpt><trkpt lat="43.51703774656707" lon="10.926927570123864"><ele>439.0</ele><time>2026-05-01T09:06:52Z</time></trkpt><trkpt lat="43.516892935069635" lon="10.92691474539878"><ele>440.0</ele><time>2026-05-01T09:06:53Z</time></trkpt><trkpt lat="43.51674149640047" lon="10.926900248996187"><ele>441.0</ele><time>2026-05-01T09:06:54Z</time></trkpt><trkpt lat="43.5165887779808" lon="10.926889620936652"><ele>441.0</ele><time>2026-05-01T09:06:55Z</time></trkpt><trkpt lat="43.516443523078614" lon="10.926879370611102"><ele>441.0</ele><time>2026-05-01T09:06:56Z</time></trkpt><trkpt lat="43.51630483588357" lon="10.926883153245617"><ele>441.0</ele><time>2026-05-01T09:06:57Z</time></trkpt><trkpt lat="43.5161658850817" lon="10.926935990483232"><ele>441.0</ele><time>2026-05-01T09:06:58Z</time></trkpt><trkpt lat="43.516041365908286" lon="10.927046373619877"><ele>443.75</ele><time>2026-05-01T09:06:59Z</time></trkpt><trkpt lat="43.515951922244014" lon="10.927202039438543"><ele>446.5</ele><time>2026-05-01T09:07:00Z</time></trkpt><trkpt lat="43.51586858116315" lon="10.927360374212403"><ele>449.25</ele><time>2026-05-01T09:07:01Z</time></trkpt><trkpt lat="43.51578878975653" lon="10.92751651764176"><ele>452.0</ele><time>2026-05-01T09:07:02Z</time></trkpt><trkpt lat="43.515707250073156" lon="10.927674071686598"><ele>452.0</ele><time>2026-05-01T09:07:03Z</time></trkpt><trkpt lat="43.51561047297941" lon="10.927812311935359"><ele>452.0</ele><time>2026-05-01T09:07:04Z</time></trkpt><trkpt lat="43.51549005768577" lon="10.92792978435367"><ele>452.0</ele><time>2026-05-01T09:07:05Z</time></trkpt><trkpt lat="43.51537293591402" lon="10.928055720387498"><ele>452.0</ele><time>2026-05-01T09:07:06Z</time></trkpt><trkpt lat="43.515246852507595" lon="10.928158912803202"><ele>454.75</ele><time>2026-05-01T09:07:07Z</time></trkpt><trkpt lat="43.51512848445143" lon="10.928271993119077"><ele>457.5</ele><time>2026-05-01T09:07:08Z</time></trkpt><trkpt lat="43.51501051300722" lon="10.928387320638556"><ele>460.25</ele><time>2026-05-01T09:07:09Z</time></trkpt><trkpt lat="43.51488975929896" lon="10.928487645400123"><ele>463.0</ele><time>2026-05-01T09:07:10Z</time></trkpt><trkpt lat="43.51475937009504" lon="10.928558946843548"><ele>463.5</ele><time>2026-05-01T09:07:11Z</time></trkpt><trkpt lat="43.51461801424605" lon="10.928598883426353"><ele>464.0</ele><time>2026-05-01T09:07:12Z</time></trkpt><trkpt lat="43.51447481743155" lon="10.928613830799588"><ele>464.5</ele><time>2026-05-01T09:07:13Z</time></trkpt><trkpt lat="43.51433716531727" lon="10.92862438995029"><ele>465.0</ele><time>2026-05-01T09:07:14Z</time></trkpt><trkpt lat="43.51420348775773" lon="10.928648103838487"><ele>467.5</ele><time>2026-05-01T09:07:15Z</time></trkpt><trkpt lat="43.514076432665775" lon="10.928693448887984"><ele>470.0</ele><time>2026-05-01T09:07:16Z</time></trkpt><trkpt lat="43.51395399907558" lon="10.928768425344634"><ele>472.5</ele><time>2026-05-01T09:07:17Z</time></trkpt><trkpt lat="43.513837757251174" lon="10.928877365241359"><ele>475.0</ele><time>2026-05-01T09:07:18Z</time></trkpt><trkpt lat="43.51373099175429" lon="10.929004792507062"><ele>475.0</ele><time>2026-05-01T09:07:19Z</time></trkpt><trkpt lat="43.51363221051052" lon="10.929148115418332"><ele>475.0</ele><time>2026-05-01T09:07:20Z</time></trkpt><trkpt lat="43.51354429298728" lon="10.929303109162031"><ele>475.0</ele><time>2026-05-01T09:07:21Z</time></trkpt><trkpt lat="43.513469379494644" lon="10.929467361747706"><ele>475.0</ele><time>2026-05-01T09:07:21.999Z</time></trkpt><trkpt lat="43.513397446353714" lon="10.929639234172797"><ele>476.5</ele><time>2026-05-01T09:07:22.999Z</time></trkpt><trkpt lat="43.513323476322604" lon="10.929801935753897"><ele>478.0</ele><time>2026-05-01T09:07:23.999Z</time></trkpt><trkpt lat="43.513232506121994" lon="10.929952690410378"><ele>479.5</ele><time>2026-05-01T09:07:24.999Z</time></trkpt><trkpt lat="43.51311965845544" lon="10.9300751549861"><ele>481.0</ele><time>2026-05-01T09:07:25.999Z</time></trkpt><trkpt lat="43.51298542769507" lon="10.93016027014241"><ele>482.0</ele><time>2026-05-01T09:07:26.999Z</time></trkpt><trkpt lat="43.51283749914098" lon="10.930212885315663"><ele>483.0</ele><time>2026-05-01T09:07:27.999Z</time></trkpt><trkpt lat="43.51267926902334" lon="10.930233390566828"><ele>484.0</ele><time>2026-05-01T09:07:28.999Z</time></trkpt><trkpt lat="43.51251668782842" lon="10.93022066445202"><ele>484.0</ele><time>2026-05-01T09:07:29.999Z</time></trkpt><trkpt lat="43.51235797210066" lon="10.930178739080926"><ele>484.0</ele><time>2026-05-01T09:07:30.999Z</time></trkpt><trkpt lat="43.512204458444224" lon="10.930129078785283"><ele>484.0</ele><time>2026-05-01T09:07:31.999Z</time></trkpt><trkpt lat="43.512044741352284" lon="10.930081914438954"><ele>484.6666666666667</ele><time>2026-05-01T09:07:32.999Z</time></trkpt><trkpt lat="43.51188518967795" lon="10.930036246547761"><ele>485.33333333333337</ele><time>2026-05-01T09:07:33.999Z</time></trkpt><trkpt lat="43.51172105936264" lon="10.929984007273783"><ele>486.0</ele><time>2026-05-01T09:07:34.999Z</time></trkpt><trkpt lat="43.511558391280715" lon="10.929913575816087"><ele>486.0</ele><time>2026-05-01T09:07:35.999Z</time></trkpt><trkpt lat="43.511401683351686" lon="10.929815599162255"><ele>486.0</ele><time>2026-05-01T09:07:36.999Z</time></trkpt><trkpt lat="43.511250581578565" lon="10.929701023708358"><ele>486.0</ele><time>2026-05-01T09:07:37.999Z</time></trkpt><trkpt lat="43.51110189245498" lon="10.929585918317377"><ele>488.33333333333337</ele><time>2026-05-01T09:07:38.999Z</time></trkpt><trkpt lat="43.51094666549372" lon="10.929476694381282"><ele>490.6666666666667</ele><time>2026-05-01T09:07:39.999Z</time></trkpt><trkpt lat="43.51079354435858" lon="10.929371712933365"><ele>493.0</ele><time>2026-05-01T09:07:40.999Z</time></trkpt><trkpt lat="43.510637687253286" lon="10.929263281091357"><ele>492.33333333333337</ele><time>2026-05-01T09:07:41.999Z</time></trkpt><trkpt lat="43.51048347681273" lon="10.929160444265014"><ele>491.66666666666663</ele><time>2026-05-01T09:07:42.999Z</time></trkpt><trkpt lat="43.5103342182792" lon="10.929066658785136"><ele>491.0</ele><time>2026-05-01T09:07:43.999Z</time></trkpt><trkpt lat="43.51018221381187" lon="10.928981811053923"><ele>491.0</ele><time>2026-05-01T09:07:44.999Z</time></trkpt><trkpt lat="43.51002224399012" lon="10.928903238962281"><ele>491.0</ele><time>2026-05-01T09:07:45.999Z</time></trkpt><trkpt lat="43.50985834559944" lon="10.928825634906886"><ele>491.0</ele><time>2026-05-01T09:07:46.999Z</time></trkpt><trkpt lat="43.50969290356279" lon="10.928736611955786"><ele>488.66666666666663</ele><time>2026-05-01T09:07:47.999Z</time></trkpt><trkpt lat="43.50952847599603" lon="10.92864989144929"><ele>486.33333333333337</ele><time>2026-05-01T09:07:48.999Z</time></trkpt><trkpt lat="43.50936161697712" lon="10.928583278153596"><ele>484.0</ele><time>2026-05-01T09:07:49.999Z</time></trkpt><trkpt lat="43.50919913441644" lon="10.928543068085627"><ele>484.0</ele><time>2026-05-01T09:07:50.999Z</time></trkpt><trkpt lat="43.509039019990205" lon="10.928534884354585"><ele>484.0</ele><time>2026-05-01T09:07:51.999Z</time></trkpt><trkpt lat="43.50887833164995" lon="10.928550760015359"><ele>484.0</ele><time>2026-05-01T09:07:52.999Z</time></trkpt><trkpt lat="43.50870970741001" lon="10.928573930037512"><ele>486.0</ele><time>2026-05-01T09:07:53.999Z</time></trkpt><trkpt lat="43.50854291959742" lon="10.928592207653576"><ele>488.0</ele><time>2026-05-01T09:07:54.999Z</time></trkpt><trkpt lat="43.508373814839025" lon="10.928607657713936"><ele>490.0</ele><time>2026-05-01T09:07:55.999Z</time></trkpt><trkpt lat="43.508204731529155" lon="10.92862027863103"><ele>490.0</ele><time>2026-05-01T09:07:56.999Z</time></trkpt><trkpt lat="43.508038576908916" lon="10.928634106697896"><ele>490.0</ele><time>2026-05-01T09:07:57.999Z</time></trkpt><trkpt lat="43.507878118078146" lon="10.928649265986426"><ele>490.0</ele><time>2026-05-01T09:07:58.999Z</time></trkpt><trkpt lat="43.50771903660015" lon="10.928661192636591"><ele>491.33333333333337</ele><time>2026-05-01T09:07:59.999Z</time></trkpt><trkpt lat="43.50755335967943" lon="10.928683070173282"><ele>492.66666666666663</ele><time>2026-05-01T09:08:00.999Z</time></trkpt><trkpt lat="43.50739355926916" lon="10.928687944111518"><ele>494.0</ele><time>2026-05-01T09:08:01.999Z</time></trkpt><trkpt lat="43.507232799996686" lon="10.928706659473438"><ele>496.66666666666663</ele><time>2026-05-01T09:08:02.999Z</time></trkpt><trkpt lat="43.50707045345003" lon="10.928735449713177"><ele>499.33333333333337</ele><time>2026-05-01T09:08:03.999Z</time></trkpt><trkpt lat="43.50690492497867" lon="10.928780854329515"><ele>502.0</ele><time>2026-05-01T09:08:04.999Z</time></trkpt><trkpt lat="43.506748735431174" lon="10.928835776833896"><ele>502.0</ele><time>2026-05-01T09:08:05.999Z</time></trkpt><trkpt lat="43.506613491793196" lon="10.928918384058221"><ele>502.0</ele><time>2026-05-01T09:08:06.999Z</time></trkpt><trkpt lat="43.5065192805669" lon="10.929047828863558"><ele>502.0</ele><time>2026-05-01T09:08:07.999Z</time></trkpt><trkpt lat="43.506470189194104" lon="10.92920154066004"><ele>502.0</ele><time>2026-05-01T09:08:08.999Z</time></trkpt><trkpt lat="43.50643332412018" lon="10.929351269031283"><ele>502.25</ele><time>2026-05-01T09:08:09.999Z</time></trkpt><trkpt lat="43.50635545392584" lon="10.92946465842509"><ele>502.5</ele><time>2026-05-01T09:08:10.999Z</time></trkpt><trkpt lat="43.50626396331212" lon="10.929548435026328"><ele>502.75</ele><time>2026-05-01T09:08:11.999Z</time></trkpt><trkpt lat="43.50614525683551" lon="10.929579759650016"><ele>503.0</ele><time>2026-05-01T09:08:12.999Z</time></trkpt><trkpt lat="43.506012005394396" lon="10.929581497920935"><ele>503.0</ele><time>2026-05-01T09:08:13.999Z</time></trkpt><trkpt lat="43.50587406461191" lon="10.92957935568126"><ele>503.0</ele><time>2026-05-01T09:08:14.999Z</time></trkpt><trkpt lat="43.50572907369424" lon="10.92956276269137"><ele>503.0</ele><time>2026-05-01T09:08:15.999Z</time></trkpt><trkpt lat="43.50558554349019" lon="10.929556279696195"><ele>503.0</ele><time>2026-05-01T09:08:16.999Z</time></trkpt><trkpt lat="43.50544048433195" lon="10.929554957439828"><ele>505.25</ele><time>2026-05-01T09:08:17.999Z</time></trkpt><trkpt lat="43.50529725389685" lon="10.929549007464107"><ele>507.5</ele><time>2026-05-01T09:08:18.999Z</time></trkpt><trkpt lat="43.50515165860771" lon="10.92954401405473"><ele>509.75</ele><time>2026-05-01T09:08:19.999Z</time></trkpt><trkpt lat="43.505002005090894" lon="10.929530695450987"><ele>512.0</ele><time>2026-05-01T09:08:20.999Z</time></trkpt><trkpt lat="43.50486076626793" lon="10.92951411830063"><ele>512.0</ele><time>2026-05-01T09:08:21.999Z</time></trkpt><trkpt lat="43.504720272605574" lon="10.929486476527924"><ele>512.0</ele><time>2026-05-01T09:08:22.999Z</time></trkpt><trkpt lat="43.50457669217898" lon="10.929448821196024"><ele>512.0</ele><time>2026-05-01T09:08:23.999Z</time></trkpt><trkpt lat="43.50443301863743" lon="10.929411545708868"><ele>512.0</ele><time>2026-05-01T09:08:24.999Z</time></trkpt><trkpt lat="43.50428736573326" lon="10.929372119724306"><ele>513.75</ele><time>2026-05-01T09:08:25.999Z</time></trkpt><trkpt lat="43.50414272988554" lon="10.929333155118277"><ele>515.5</ele><time>2026-05-01T09:08:26.999Z</time></trkpt><trkpt lat="43.503998128137546" lon="10.929282289551072"><ele>517.25</ele><time>2026-05-01T09:08:27.999Z</time></trkpt><trkpt lat="43.503851423085194" lon="10.929224989743744"><ele>519.0</ele><time>2026-05-01T09:08:28.999Z</time></trkpt><trkpt lat="43.50370201702336" lon="10.929164900648809"><ele>519.0</ele><time>2026-05-01T09:08:29.999Z</time></trkpt><trkpt lat="43.50354569816364" lon="10.929107560160444"><ele>519.0</ele><time>2026-05-01T09:08:30.999Z</time></trkpt><trkpt lat="43.50339440513056" lon="10.929034541795033"><ele>519.0</ele><time>2026-05-01T09:08:31.999Z</time></trkpt><trkpt lat="43.50323911663697" lon="10.928971411262808"><ele>519.0</ele><time>2026-05-01T09:08:32.999Z</time></trkpt><trkpt lat="43.50308228906762" lon="10.928913627557613"><ele>519.0</ele><time>2026-05-01T09:08:33.999Z</time></trkpt><trkpt lat="43.502925147378164" lon="10.928856892506642"><ele>519.0</ele><time>2026-05-01T09:08:34.999Z</time></trkpt><trkpt lat="43.5027694109597" lon="10.92879736501014"><ele>517.6666666666666</ele><time>2026-05-01T09:08:35.999Z</time></trkpt><trkpt lat="43.502616048622535" lon="10.928736955742702"><ele>516.3333333333333</ele><time>2026-05-01T09:08:36.999Z</time></trkpt><trkpt lat="43.502457615681315" lon="10.928679790911598"><ele>515.0</ele><time>2026-05-01T09:08:37.999Z</time></trkpt><trkpt lat="43.50229774568602" lon="10.928621516794358"><ele>515.0</ele><time>2026-05-01T09:08:38.999Z</time></trkpt><trkpt lat="43.50213106674153" lon="10.9285706767169"><ele>515.0</ele><time>2026-05-01T09:08:39.999Z</time></trkpt><trkpt lat="43.50196168314625" lon="10.928502106248855"><ele>515.0</ele><time>2026-05-01T09:08:40.999Z</time></trkpt><trkpt lat="43.50178554661328" lon="10.928431281301336"><ele>514.6666666666666</ele><time>2026-05-01T09:08:41.999Z</time></trkpt><trkpt lat="43.50161430315347" lon="10.928362552639749"><ele>514.3333333333334</ele><time>2026-05-01T09:08:42.999Z</time></trkpt><trkpt lat="43.50144031800787" lon="10.928308026106839"><ele>514.0</ele><time>2026-05-01T09:08:44Z</time></trkpt><trkpt lat="43.501264482355865" lon="10.92823284720854"><ele>512.6666666666667</ele><time>2026-05-01T09:08:45Z</time></trkpt><trkpt lat="43.50108962158923" lon="10.928173560253239"><ele>511.33333333333337</ele><time>2026-05-01T09:08:46Z</time></trkpt><trkpt lat="43.500918267710425" lon="10.92810873377233"><ele>510.0</ele><time>2026-05-01T09:08:47Z</time></trkpt><trkpt lat="43.50074632603945" lon="10.928037740462315"><ele>510.0</ele><time>2026-05-01T09:08:48Z</time></trkpt><trkpt lat="43.50057277219542" lon="10.927965828493889"><ele>510.0</ele><time>2026-05-01T09:08:49Z</time></trkpt><trkpt lat="43.50040315332639" lon="10.92791281645218"><ele>510.0</ele><time>2026-05-01T09:08:50Z</time></trkpt><trkpt lat="43.50022916536697" lon="10.927865893124006"><ele>509.66666666666663</ele><time>2026-05-01T09:08:51Z</time></trkpt><trkpt lat="43.50005575044258" lon="10.927827249683496"><ele>509.3333333333333</ele><time>2026-05-01T09:08:52Z</time></trkpt><trkpt lat="43.4998803477726" lon="10.92778947135253"><ele>509.0</ele><time>2026-05-01T09:08:53Z</time></trkpt><trkpt lat="43.49970818918417" lon="10.927754004448682"><ele>509.0</ele><time>2026-05-01T09:08:54Z</time></trkpt><trkpt lat="43.4995316827908" lon="10.927712079931492"><ele>509.0</ele><time>2026-05-01T09:08:55Z</time></trkpt><trkpt lat="43.49936051451772" lon="10.927675203837481"><ele>509.0</ele><time>2026-05-01T09:08:56Z</time></trkpt><trkpt lat="43.49917959639141" lon="10.92762623176582"><ele>509.0</ele><time>2026-05-01T09:08:57Z</time></trkpt><trkpt lat="43.499003760058265" lon="10.927576171984436"><ele>509.0</ele><time>2026-05-01T09:08:58Z</time></trkpt><trkpt lat="43.49882554738097" lon="10.927514872481483"><ele>509.0</ele><time>2026-05-01T09:08:59Z</time></trkpt><trkpt lat="43.49864900591332" lon="10.927448536353197"><ele>510.66666666666663</ele><time>2026-05-01T09:09:00Z</time></trkpt><trkpt lat="43.49847395932735" lon="10.927388784211622"><ele>512.3333333333334</ele><time>2026-05-01T09:09:01Z</time></trkpt><trkpt lat="43.49830130401923" lon="10.927327402721636"><ele>514.0</ele><time>2026-05-01T09:09:02Z</time></trkpt><trkpt lat="43.498127611719944" lon="10.92727661308699"><ele>514.0</ele><time>2026-05-01T09:09:03Z</time></trkpt><trkpt lat="43.49795755931823" lon="10.927236570087215"><ele>514.0</ele><time>2026-05-01T09:09:04Z</time></trkpt><trkpt lat="43.49778605591319" lon="10.927201401571555"><ele>514.0</ele><time>2026-05-01T09:09:05Z</time></trkpt><trkpt lat="43.49761448210418" lon="10.92717346993831"><ele>512.6666666666667</ele><time>2026-05-01T09:09:06Z</time></trkpt><trkpt lat="43.49744329808156" lon="10.927143038084475"><ele>511.33333333333337</ele><time>2026-05-01T09:09:07Z</time></trkpt><trkpt lat="43.49727512034086" lon="10.927110965672995"><ele>510.0</ele><time>2026-05-01T09:09:08Z</time></trkpt><trkpt lat="43.49711198559084" lon="10.927074425058095"><ele>510.33333333333337</ele><time>2026-05-01T09:09:09Z</time></trkpt><trkpt lat="43.49694793286443" lon="10.92703444607252"><ele>510.6666666666667</ele><time>2026-05-01T09:09:10Z</time></trkpt><trkpt lat="43.49679016250157" lon="10.927007554646936"><ele>511.0</ele><time>2026-05-01T09:09:11Z</time></trkpt><trkpt lat="43.49664687499369" lon="10.926977964911666"><ele>511.0</ele><time>2026-05-01T09:09:12Z</time></trkpt><trkpt lat="43.49651606511735" lon="10.926889048812818"><ele>511.0</ele><time>2026-05-01T09:09:13Z</time></trkpt><trkpt lat="43.49640435147235" lon="10.926771494060372"><ele>511.0</ele><time>2026-05-01T09:09:14Z</time></trkpt><trkpt lat="43.49631259206457" lon="10.926623031662631"><ele>511.0</ele><time>2026-05-01T09:09:15Z</time></trkpt><trkpt lat="43.49621811634293" lon="10.926465136856056"><ele>509.5</ele><time>2026-05-01T09:09:16Z</time></trkpt><trkpt lat="43.496136626127864" lon="10.92629485188715"><ele>508.0</ele><time>2026-05-01T09:09:17Z</time></trkpt><trkpt lat="43.49603630439054" lon="10.926152320583219"><ele>506.5</ele><time>2026-05-01T09:09:18Z</time></trkpt><trkpt lat="43.495927170648436" lon="10.926044752407849"><ele>505.0</ele><time>2026-05-01T09:09:19Z</time></trkpt><trkpt lat="43.49580611128677" lon="10.92597729156171"><ele>505.0</ele><time>2026-05-01T09:09:20Z</time></trkpt><trkpt lat="43.495669568506685" lon="10.925983723200238"><ele>505.0</ele><time>2026-05-01T09:09:21Z</time></trkpt><trkpt lat="43.49553751922359" lon="10.926042180641337"><ele>505.0</ele><time>2026-05-01T09:09:22Z</time></trkpt><trkpt lat="43.495414091700056" lon="10.926107885878626"><ele>505.0</ele><time>2026-05-01T09:09:23Z</time></trkpt><trkpt lat="43.495296609499704" lon="10.926101611632212"><ele>502.75</ele><time>2026-05-01T09:09:24Z</time></trkpt><trkpt lat="43.49518563526583" lon="10.92603910881198"><ele>500.5</ele><time>2026-05-01T09:09:25Z</time></trkpt><trkpt lat="43.49507124889787" lon="10.926013786474304"><ele>498.25</ele><time>2026-05-01T09:09:26Z</time></trkpt><trkpt lat="43.49494997480242" lon="10.925983791927354"><ele>496.0</ele><time>2026-05-01T09:09:27Z</time></trkpt><trkpt lat="43.49482059917757" lon="10.926032605590507"><ele>496.0</ele><time>2026-05-01T09:09:28Z</time></trkpt><trkpt lat="43.49469658692676" lon="10.926131712777678"><ele>496.0</ele><time>2026-05-01T09:09:29Z</time></trkpt><trkpt lat="43.49455878443646" lon="10.926244915930187"><ele>496.0</ele><time>2026-05-01T09:09:30Z</time></trkpt><trkpt lat="43.49440682760865" lon="10.926327478871617"><ele>496.5</ele><time>2026-05-01T09:09:30.999Z</time></trkpt><trkpt lat="43.49430101022846" lon="10.926402854698793"><ele>497.0</ele><time>2026-05-01T09:09:31.999Z</time></trkpt><trkpt lat="43.49416550535427" lon="10.926499377519862"><ele>497.5</ele><time>2026-05-01T09:09:32.999Z</time></trkpt><trkpt lat="43.494022958266996" lon="10.92660194553511"><ele>498.0</ele><time>2026-05-01T09:09:33.999Z</time></trkpt><trkpt lat="43.49388498431782" lon="10.92671001165426"><ele>498.0</ele><time>2026-05-01T09:09:34.999Z</time></trkpt><trkpt lat="43.49376211967259" lon="10.926844217729817"><ele>498.0</ele><time>2026-05-01T09:09:35.999Z</time></trkpt><trkpt lat="43.49364116195668" lon="10.926976255077452"><ele>498.0</ele><time>2026-05-01T09:09:36.999Z</time></trkpt><trkpt lat="43.49353262918109" lon="10.92712372944826"><ele>498.0</ele><time>2026-05-01T09:09:37.999Z</time></trkpt><trkpt lat="43.493416411756435" lon="10.927261306520139"><ele>498.0</ele><time>2026-05-01T09:09:38.999Z</time></trkpt><trkpt lat="43.493316799807516" lon="10.927413120835288"><ele>498.0</ele><time>2026-05-01T09:09:39.999Z</time></trkpt><trkpt lat="43.4932119710099" lon="10.927568788241036"><ele>496.66666666666663</ele><time>2026-05-01T09:09:40.999Z</time></trkpt><trkpt lat="43.49310129337394" lon="10.927734845020115"><ele>495.3333333333333</ele><time>2026-05-01T09:09:41.999Z</time></trkpt><trkpt lat="43.492994937459414" lon="10.927894417635626"><ele>494.0</ele><time>2026-05-01T09:09:42.999Z</time></trkpt><trkpt lat="43.492889896113276" lon="10.928054224891392"><ele>492.2</ele><time>2026-05-01T09:09:43.999Z</time></trkpt><trkpt lat="43.492793992077914" lon="10.928200969803951"><ele>490.4</ele><time>2026-05-01T09:09:44.999Z</time></trkpt><trkpt lat="43.49271697826658" lon="10.92831497493557"><ele>488.6</ele><time>2026-05-01T09:09:45.999Z</time></trkpt><trkpt lat="43.49266710047593" lon="10.928407907544639"><ele>486.8</ele><time>2026-05-01T09:09:46.999Z</time></trkpt><trkpt lat="43.49259249927511" lon="10.928468828044942"><ele>485.0</ele><time>2026-05-01T09:09:48.999Z</time></trkpt><trkpt lat="43.49259987073461" lon="10.928620969149783"><ele>484.0</ele><time>2026-05-01T09:10:47.999Z</time></trkpt><trkpt lat="43.492739957915774" lon="10.928437097635816"><ele>484.0</ele><time>2026-05-01T09:10:51Z</time></trkpt></trkseg><trkseg><trkpt lat="43.49265237702927" lon="10.92842277937492"><ele>484.0</ele><time>2026-05-01T09:37:17Z</time></trkpt><trkpt lat="43.49258055623968" lon="10.928527438000657"><ele>484.0</ele><time>2026-05-01T09:37:19Z</time></trkpt><trkpt lat="43.49249613090536" lon="10.928615490957123"><ele>484.0</ele><time>2026-05-01T09:37:21Z</time></trkpt><trkpt lat="43.49239741196618" lon="10.928702217487588"><ele>484.0</ele><time>2026-05-01T09:37:23Z</time></trkpt><trkpt lat="43.49233623622121" lon="10.928746343610579"><ele>484.0</ele><time>2026-05-01T09:37:24Z</time></trkpt><trkpt lat="43.49227523391516" lon="10.928786325585026"><ele>484.00000000000006</ele><time>2026-05-01T09:37:25Z</time></trkpt><trkpt lat="43.49220104166599" lon="10.928808782303262"><ele>484.0</ele><time>2026-05-01T09:37:26Z</time></trkpt><trkpt lat="43.4921265056091" lon="10.928823335382852"><ele>484.0</ele><time>2026-05-01T09:37:27Z</time></trkpt><trkpt lat="43.492047470967634" lon="10.928827098383506"><ele>484.0</ele><time>2026-05-01T09:37:28Z</time></trkpt><trkpt lat="43.49196422871009" lon="10.928818259752479"><ele>484.00000000000006</ele><time>2026-05-01T09:37:29Z</time></trkpt><trkpt lat="43.4918849609702" lon="10.928754268132964"><ele>484.0</ele><time>2026-05-01T09:37:30Z</time></trkpt><trkpt lat="43.49180016153833" lon="10.928709897530037"><ele>484.4</ele><time>2026-05-01T09:37:31Z</time></trkpt><trkpt lat="43.49171297703357" lon="10.928654413050129"><ele>484.79999999999995</ele><time>2026-05-01T09:37:32Z</time></trkpt><trkpt lat="43.491619998783605" lon="10.92858798037109"><ele>485.20000000000005</ele><time>2026-05-01T09:37:33Z</time></trkpt><trkpt lat="43.49151479882299" lon="10.928531499104157"><ele>485.6</ele><time>2026-05-01T09:37:34Z</time></trkpt><trkpt lat="43.49140822235204" lon="10.928473634738094"><ele>486.0</ele><time>2026-05-01T09:37:34.999Z</time></trkpt><trkpt lat="43.491297771752826" lon="10.928463980783253"><ele>483.25</ele><time>2026-05-01T09:37:35.999Z</time></trkpt><trkpt lat="43.49119042507723" lon="10.928508879087582"><ele>480.5</ele><time>2026-05-01T09:37:36.999Z</time></trkpt><trkpt lat="43.49108719932151" lon="10.928602230262275"><ele>477.75</ele><time>2026-05-01T09:37:37.999Z</time></trkpt><trkpt lat="43.4909996706392" lon="10.92871299679142"><ele>475.0</ele><time>2026-05-01T09:37:38.999Z</time></trkpt><trkpt lat="43.490934523418716" lon="10.928849593194027"><ele>475.0</ele><time>2026-05-01T09:37:39.999Z</time></trkpt><trkpt lat="43.49088066753815" lon="10.92899425326255"><ele>475.0</ele><time>2026-05-01T09:37:40.999Z</time></trkpt><trkpt lat="43.490834372475625" lon="10.929148081574123"><ele>475.0</ele><time>2026-05-01T09:37:41.999Z</time></trkpt><trkpt lat="43.490773212238366" lon="10.929293053858556"><ele>475.0</ele><time>2026-05-01T09:37:42.999Z</time></trkpt><trkpt lat="43.49071606486779" lon="10.929436354142368"><ele>476.25</ele><time>2026-05-01T09:37:43.999Z</time></trkpt><trkpt lat="43.49065514690551" lon="10.929586586904174"><ele>477.5</ele><time>2026-05-01T09:37:44.999Z</time></trkpt><trkpt lat="43.49058782114052" lon="10.929737291754336"><ele>478.75</ele><time>2026-05-01T09:37:45.999Z</time></trkpt><trkpt lat="43.49052307988751" lon="10.9298928372602"><ele>480.0</ele><time>2026-05-01T09:37:46.999Z</time></trkpt><trkpt lat="43.490455700493314" lon="10.930048148310945"><ele>475.5</ele><time>2026-05-01T09:37:47.999Z</time></trkpt><trkpt lat="43.490390477006244" lon="10.930203421153427"><ele>471.0</ele><time>2026-05-01T09:37:48.999Z</time></trkpt><trkpt lat="43.49032582907277" lon="10.930358172882922"><ele>466.5</ele><time>2026-05-01T09:37:49.999Z</time></trkpt><trkpt lat="43.490258734100635" lon="10.93050971960681"><ele>462.0</ele><time>2026-05-01T09:37:50.999Z</time></trkpt><trkpt lat="43.49019829178987" lon="10.930666523644087"><ele>462.0</ele><time>2026-05-01T09:37:51.999Z</time></trkpt><trkpt lat="43.490143967924915" lon="10.930824749849645"><ele>462.0</ele><time>2026-05-01T09:37:52.999Z</time></trkpt><trkpt lat="43.49010238955468" lon="10.930986880748573"><ele>462.0</ele><time>2026-05-01T09:37:53.999Z</time></trkpt><trkpt lat="43.49008156163443" lon="10.931158030506326"><ele>462.0</ele><time>2026-05-01T09:37:54.999Z</time></trkpt><trkpt lat="43.49007368721769" lon="10.931332675954124"><ele>461.75</ele><time>2026-05-01T09:37:55.999Z</time></trkpt><trkpt lat="43.49007109003457" lon="10.931506352063264"><ele>461.5</ele><time>2026-05-01T09:37:56.999Z</time></trkpt><trkpt lat="43.49007357459447" lon="10.931673285081295"><ele>461.25</ele><time>2026-05-01T09:37:57.999Z</time></trkpt><trkpt lat="43.49007503147955" lon="10.931834756444728"><ele>461.0</ele><time>2026-05-01T09:37:58.999Z</time></trkpt><trkpt lat="43.490077359937885" lon="10.931982368268283"><ele>460.4</ele><time>2026-05-01T09:37:59.999Z</time></trkpt><trkpt lat="43.490077427197726" lon="10.932113983378146"><ele>459.8</ele><time>2026-05-01T09:38:00.999Z</time></trkpt><trkpt lat="43.49007730557688" lon="10.932226533668302"><ele>459.19999999999993</ele><time>2026-05-01T09:38:01.999Z</time></trkpt><trkpt lat="43.490064640924125" lon="10.932388833630574"><ele>458.59999999999997</ele><time>2026-05-01T09:38:03.999Z</time></trkpt><trkpt lat="43.48997235867177" lon="10.932513156815343"><ele>458.0</ele><time>2026-05-01T09:38:05.999Z</time></trkpt><trkpt lat="43.48988970318438" lon="10.932517759872828"><ele>458.0</ele><time>2026-05-01T09:38:06.999Z</time></trkpt><trkpt lat="43.489805354131846" lon="10.932462315793133"><ele>457.99999999999994</ele><time>2026-05-01T09:38:07.999Z</time></trkpt><trkpt lat="43.48975130288274" lon="10.932351421393099"><ele>457.99999999999994</ele><time>2026-05-01T09:38:08.999Z</time></trkpt><trkpt lat="43.489757075092385" lon="10.932205557203241"><ele>458.0</ele><time>2026-05-01T09:38:09.999Z</time></trkpt><trkpt lat="43.48973947200767" lon="10.932057909403477"><ele>458.0</ele><time>2026-05-01T09:38:10.999Z</time></trkpt><trkpt lat="43.48974133524251" lon="10.931894360134056"><ele>458.0</ele><time>2026-05-01T09:38:11.999Z</time></trkpt><trkpt lat="43.48972741897749" lon="10.93172464028107"><ele>458.0</ele><time>2026-05-01T09:38:12.999Z</time></trkpt><trkpt lat="43.48971120943746" lon="10.931549526429267"><ele>458.0</ele><time>2026-05-01T09:38:13.999Z</time></trkpt><trkpt lat="43.489695588582684" lon="10.931368823360495"><ele>458.0</ele><time>2026-05-01T09:38:14.999Z</time></trkpt><trkpt lat="43.48967921192621" lon="10.931187961822763"><ele>458.75</ele><time>2026-05-01T09:38:15.999Z</time></trkpt><trkpt lat="43.48966494410501" lon="10.931005374750303"><ele>459.5</ele><time>2026-05-01T09:38:16.999Z</time></trkpt><trkpt lat="43.48964994665417" lon="10.930823020230598"><ele>460.25</ele><time>2026-05-01T09:38:17.999Z</time></trkpt><trkpt lat="43.48963392994591" lon="10.930649328996497"><ele>461.0</ele><time>2026-05-01T09:38:18.999Z</time></trkpt><trkpt lat="43.48961476056163" lon="10.930486521462571"><ele>455.25</ele><time>2026-05-01T09:38:19.999Z</time></trkpt><trkpt lat="43.48959018976102" lon="10.930330879233795"><ele>449.5</ele><time>2026-05-01T09:38:20.999Z</time></trkpt><trkpt lat="43.489557902212496" lon="10.930176682450002"><ele>443.75</ele><time>2026-05-01T09:38:21.999Z</time></trkpt><trkpt lat="43.48951935729198" lon="10.930020797223106"><ele>438.0</ele><time>2026-05-01T09:38:22.999Z</time></trkpt><trkpt lat="43.48947451586974" lon="10.929866686094623"><ele>437.75</ele><time>2026-05-01T09:38:23.999Z</time></trkpt><trkpt lat="43.48942525542145" lon="10.929712984928578"><ele>437.5</ele><time>2026-05-01T09:38:24.999Z</time></trkpt><trkpt lat="43.489374677329835" lon="10.929559455891138"><ele>437.25</ele><time>2026-05-01T09:38:25.999Z</time></trkpt><trkpt lat="43.48932554638047" lon="10.929402611610879"><ele>437.0</ele><time>2026-05-01T09:38:26.999Z</time></trkpt><trkpt lat="43.489277225795234" lon="10.92923749841658"><ele>436.75</ele><time>2026-05-01T09:38:27.999Z</time></trkpt><trkpt lat="43.48923931893227" lon="10.929068973704885"><ele>436.5</ele><time>2026-05-01T09:38:28.999Z</time></trkpt><trkpt lat="43.4892227369439" lon="10.928889058371965"><ele>436.25</ele><time>2026-05-01T09:38:29.999Z</time></trkpt><trkpt lat="43.48922954804611" lon="10.928701736111437"><ele>436.0</ele><time>2026-05-01T09:38:30.999Z</time></trkpt><trkpt lat="43.48925049106321" lon="10.928516213103844"><ele>435.5</ele><time>2026-05-01T09:38:31.999Z</time></trkpt><trkpt lat="43.48927014658535" lon="10.92832983076965"><ele>435.0</ele><time>2026-05-01T09:38:32.999Z</time></trkpt><trkpt lat="43.489284920692626" lon="10.928140313501304"><ele>434.5</ele><time>2026-05-01T09:38:33.999Z</time></trkpt><trkpt lat="43.489295021534474" lon="10.927946741987546"><ele>434.0</ele><time>2026-05-01T09:38:34.999Z</time></trkpt><trkpt lat="43.4893029599924" lon="10.927756482392113"><ele>434.0</ele><time>2026-05-01T09:38:35.999Z</time></trkpt><trkpt lat="43.489312793355495" lon="10.927560791483891"><ele>434.0</ele><time>2026-05-01T09:38:36.999Z</time></trkpt><trkpt lat="43.48932802273751" lon="10.92736630934682"><ele>434.0</ele><time>2026-05-01T09:38:37.999Z</time></trkpt><trkpt lat="43.489348350503626" lon="10.92716828893674"><ele>434.0</ele><time>2026-05-01T09:38:38.999Z</time></trkpt><trkpt lat="43.489372726703614" lon="10.92696756708698"><ele>433.5</ele><time>2026-05-01T09:38:39.999Z</time></trkpt><trkpt lat="43.48939803557343" lon="10.926766391702143"><ele>433.0</ele><time>2026-05-01T09:38:40.999Z</time></trkpt><trkpt lat="43.48942304415517" lon="10.926565897594283"><ele>432.5</ele><time>2026-05-01T09:38:41.999Z</time></trkpt><trkpt lat="43.489448678476485" lon="10.926365216394737"><ele>432.0</ele><time>2026-05-01T09:38:42.999Z</time></trkpt><trkpt lat="43.48947671413677" lon="10.926166600357112"><ele>430.25</ele><time>2026-05-01T09:38:43.999Z</time></trkpt><trkpt lat="43.489503350248796" lon="10.925972193169462"><ele>428.5</ele><time>2026-05-01T09:38:44.999Z</time></trkpt><trkpt lat="43.4895311669712" lon="10.925779409418514"><ele>426.75</ele><time>2026-05-01T09:38:45.999Z</time></trkpt><trkpt lat="43.48955898333173" lon="10.925589807999172"><ele>425.0</ele><time>2026-05-01T09:38:46.999Z</time></trkpt><trkpt lat="43.48958603502068" lon="10.925399913120206"><ele>425.0</ele><time>2026-05-01T09:38:47.999Z</time></trkpt><trkpt lat="43.48961280993979" lon="10.925219626255485"><ele>425.0</ele><time>2026-05-01T09:38:48.999Z</time></trkpt><trkpt lat="43.489640636035645" lon="10.92503713676569"><ele>425.0</ele><time>2026-05-01T09:38:49.999Z</time></trkpt><trkpt lat="43.48966872196398" lon="10.924860049339266"><ele>425.0</ele><time>2026-05-01T09:38:50.999Z</time></trkpt><trkpt lat="43.48969662065044" lon="10.924686517503936"><ele>425.0</ele><time>2026-05-01T09:38:51.999Z</time></trkpt><trkpt lat="43.489723647350225" lon="10.924515537617115"><ele>425.0</ele><time>2026-05-01T09:38:52.999Z</time></trkpt><trkpt lat="43.489747684671855" lon="10.924341742743481"><ele>425.0</ele><time>2026-05-01T09:38:53.999Z</time></trkpt><trkpt lat="43.489774161658204" lon="10.924165103967855"><ele>425.0</ele><time>2026-05-01T09:38:54.999Z</time></trkpt><trkpt lat="43.48980282303109" lon="10.923995609526418"><ele>425.0</ele><time>2026-05-01T09:38:55.999Z</time></trkpt><trkpt lat="43.489830839315545" lon="10.9238203584477"><ele>425.0</ele><time>2026-05-01T09:38:56.998Z</time></trkpt><trkpt lat="43.48985315438585" lon="10.923644217111358"><ele>425.0</ele><time>2026-05-01T09:38:57.998Z</time></trkpt><trkpt lat="43.48987844887901" lon="10.923467517052051"><ele>425.0</ele><time>2026-05-01T09:38:58.998Z</time></trkpt><trkpt lat="43.489897041904655" lon="10.923291967997121"><ele>425.0</ele><time>2026-05-01T09:38:59.998Z</time></trkpt><trkpt lat="43.48989449416038" lon="10.923131044089246"><ele>425.0</ele><time>2026-05-01T09:39:00.998Z</time></trkpt><trkpt lat="43.48985504108566" lon="10.922995995033787"><ele>425.0</ele><time>2026-05-01T09:39:01.998Z</time></trkpt><trkpt lat="43.48977425271538" lon="10.922892664938578"><ele>425.0</ele><time>2026-05-01T09:39:02.998Z</time></trkpt><trkpt lat="43.48967950869714" lon="10.922809673202465"><ele>425.0</ele><time>2026-05-01T09:39:03.998Z</time></trkpt><trkpt lat="43.48957065994985" lon="10.922729379741025"><ele>422.75</ele><time>2026-05-01T09:39:04.998Z</time></trkpt><trkpt lat="43.489457025800625" lon="10.92264540238063"><ele>420.5</ele><time>2026-05-01T09:39:05.998Z</time></trkpt><trkpt lat="43.48934035114299" lon="10.922558167652253"><ele>418.25</ele><time>2026-05-01T09:39:06.998Z</time></trkpt><trkpt lat="43.48922732956705" lon="10.9224622649618"><ele>416.0</ele><time>2026-05-01T09:39:07.998Z</time></trkpt><trkpt lat="43.48913394659967" lon="10.922332062083745"><ele>416.0</ele><time>2026-05-01T09:39:08.998Z</time></trkpt><trkpt lat="43.48905368403215" lon="10.922202418789414"><ele>416.0</ele><time>2026-05-01T09:39:09.998Z</time></trkpt><trkpt lat="43.488980465250194" lon="10.92205632411492"><ele>416.0</ele><time>2026-05-01T09:39:10.998Z</time></trkpt><trkpt lat="43.48890784412737" lon="10.92191290194555"><ele>416.0</ele><time>2026-05-01T09:39:11.998Z</time></trkpt><trkpt lat="43.48882131283355" lon="10.921781716532793"><ele>413.0</ele><time>2026-05-01T09:39:12.998Z</time></trkpt><trkpt lat="43.48874196603273" lon="10.921639870189196"><ele>410.0</ele><time>2026-05-01T09:39:13.998Z</time></trkpt><trkpt lat="43.48865579651569" lon="10.92151128635306"><ele>407.0</ele><time>2026-05-01T09:39:14.998Z</time></trkpt><trkpt lat="43.488565784067816" lon="10.921390486439503"><ele>404.0</ele><time>2026-05-01T09:39:15.999Z</time></trkpt><trkpt lat="43.488471530570685" lon="10.92127371412361"><ele>404.0</ele><time>2026-05-01T09:39:16.999Z</time></trkpt><trkpt lat="43.48837595457735" lon="10.921155270975799"><ele>404.0</ele><time>2026-05-01T09:39:17.999Z</time></trkpt><trkpt lat="43.488279310434315" lon="10.921031995051612"><ele>404.0</ele><time>2026-05-01T09:39:18.999Z</time></trkpt><trkpt lat="43.48818359004407" lon="10.920908370309503"><ele>404.0</ele><time>2026-05-01T09:39:19.999Z</time></trkpt><trkpt lat="43.48808177326697" lon="10.920781826702703"><ele>402.25</ele><time>2026-05-01T09:39:20.999Z</time></trkpt><trkpt lat="43.48799201067044" lon="10.92064776244662"><ele>400.5</ele><time>2026-05-01T09:39:21.999Z</time></trkpt><trkpt lat="43.48789705415067" lon="10.920524914763954"><ele>398.75</ele><time>2026-05-01T09:39:22.999Z</time></trkpt><trkpt lat="43.48780885591771" lon="10.92041081048296"><ele>397.0</ele><time>2026-05-01T09:39:23.999Z</time></trkpt><trkpt lat="43.487725572975684" lon="10.920304085742902"><ele>397.0</ele><time>2026-05-01T09:39:24.999Z</time></trkpt><trkpt lat="43.4876319350039" lon="10.920215142735904"><ele>397.0</ele><time>2026-05-01T09:39:25.999Z</time></trkpt><trkpt lat="43.48755217754855" lon="10.920116344406633"><ele>397.0</ele><time>2026-05-01T09:39:26.999Z</time></trkpt><trkpt lat="43.48748774237274" lon="10.920004604371929"><ele>397.0</ele><time>2026-05-01T09:39:27.999Z</time></trkpt><trkpt lat="43.487415016805365" lon="10.91991253535798"><ele>397.0</ele><time>2026-05-01T09:39:28.999Z</time></trkpt><trkpt lat="43.48733752595277" lon="10.91984160720534"><ele>396.00000000000006</ele><time>2026-05-01T09:39:29.999Z</time></trkpt><trkpt lat="43.487275200297496" lon="10.919753650312863"><ele>395.0</ele><time>2026-05-01T09:39:30.999Z</time></trkpt><trkpt lat="43.48721246003554" lon="10.919672490083222"><ele>394.0</ele><time>2026-05-01T09:39:31.999Z</time></trkpt><trkpt lat="43.48714876002341" lon="10.919590014076837"><ele>393.0</ele><time>2026-05-01T09:39:32.999Z</time></trkpt><trkpt lat="43.48708358997609" lon="10.919507710648952"><ele>392.00000000000006</ele><time>2026-05-01T09:39:33.999Z</time></trkpt><trkpt lat="43.48702451457136" lon="10.91942726376077"><ele>391.0</ele><time>2026-05-01T09:39:34.999Z</time></trkpt><trkpt lat="43.486963222365006" lon="10.919343543806647"><ele>391.00000000000006</ele><time>2026-05-01T09:39:35.999Z</time></trkpt><trkpt lat="43.48690053119966" lon="10.919264336179475"><ele>391.0</ele><time>2026-05-01T09:39:36.999Z</time></trkpt><trkpt lat="43.48684152448418" lon="10.919189161317028"><ele>391.0</ele><time>2026-05-01T09:39:37.999Z</time></trkpt><trkpt lat="43.48678629361082" lon="10.919115750588043"><ele>391.0</ele><time>2026-05-01T09:39:38.999Z</time></trkpt><trkpt lat="43.486712899535675" lon="10.919010356221516"><ele>391.00000000000006</ele><time>2026-05-01T09:39:40.999Z</time></trkpt><trkpt lat="43.4866361474041" lon="10.918936083618187"><ele>391.0</ele><time>2026-05-01T09:39:50.999Z</time></trkpt><trkpt lat="43.48654119641093" lon="10.918822580698883"><ele>390.99999999999994</ele><time>2026-05-01T09:39:52.999Z</time></trkpt><trkpt lat="43.4864925512254" lon="10.918755839766927"><ele>391.0</ele><time>2026-05-01T09:39:53.999Z</time></trkpt><trkpt lat="43.48644312985428" lon="10.918693206703892"><ele>391.0</ele><time>2026-05-01T09:39:54.999Z</time></trkpt><trkpt lat="43.48639340228893" lon="10.918629308808896"><ele>391.0</ele><time>2026-05-01T09:39:55.999Z</time></trkpt><trkpt lat="43.486344699275" lon="10.918565145351028"><ele>391.0</ele><time>2026-05-01T09:39:56.999Z</time></trkpt><trkpt lat="43.48629451884235" lon="10.91850040954634"><ele>390.99999999999994</ele><time>2026-05-01T09:39:57.999Z</time></trkpt><trkpt lat="43.48624387484023" lon="10.918432562871153"><ele>391.0</ele><time>2026-05-01T09:39:58.999Z</time></trkpt><trkpt lat="43.48619407657723" lon="10.918368614449195"><ele>390.99999999999994</ele><time>2026-05-01T09:39:59.999Z</time></trkpt><trkpt lat="43.48614215466279" lon="10.918299737073813"><ele>391.0</ele><time>2026-05-01T09:40:00.999Z</time></trkpt><trkpt lat="43.48609083135678" lon="10.918234950797464"><ele>391.0</ele><time>2026-05-01T09:40:01.999Z</time></trkpt><trkpt lat="43.48603906432527" lon="10.918166666443746"><ele>391.0</ele><time>2026-05-01T09:40:02.999Z</time></trkpt><trkpt lat="43.48598970058215" lon="10.918091769091992"><ele>391.0</ele><time>2026-05-01T09:40:03.999Z</time></trkpt><trkpt lat="43.48594585605228" lon="10.918015026586446"><ele>390.99999999999994</ele><time>2026-05-01T09:40:04.999Z</time></trkpt><trkpt lat="43.485903658180845" lon="10.917926819744718"><ele>391.0</ele><time>2026-05-01T09:40:05.999Z</time></trkpt><trkpt lat="43.48586040554713" lon="10.917824334270511"><ele>391.0</ele><time>2026-05-01T09:40:06.999Z</time></trkpt><trkpt lat="43.48582176085558" lon="10.917721724575825"><ele>391.0</ele><time>2026-05-01T09:40:07.999Z</time></trkpt><trkpt lat="43.48578327371264" lon="10.917614431181168"><ele>391.0</ele><time>2026-05-01T09:40:08.999Z</time></trkpt><trkpt lat="43.48574445180446" lon="10.917501264358192"><ele>391.0</ele><time>2026-05-01T09:40:09.999Z</time></trkpt><trkpt lat="43.48569864509012" lon="10.917386998281641"><ele>391.0</ele><time>2026-05-01T09:40:10.999Z</time></trkpt><trkpt lat="43.48567158582516" lon="10.917261168587684"><ele>392.6</ele><time>2026-05-01T09:40:11.999Z</time></trkpt><trkpt lat="43.48562949604061" lon="10.917143478476614"><ele>394.20000000000005</ele><time>2026-05-01T09:40:12.999Z</time></trkpt><trkpt lat="43.485586715037954" lon="10.917024185784827"><ele>395.79999999999995</ele><time>2026-05-01T09:40:13.999Z</time></trkpt><trkpt lat="43.48554328755839" lon="10.916903090361714"><ele>397.4</ele><time>2026-05-01T09:40:14.999Z</time></trkpt><trkpt lat="43.48548505791907" lon="10.916789640151837"><ele>399.0</ele><time>2026-05-01T09:40:15.999Z</time></trkpt><trkpt lat="43.48544264350598" lon="10.916665957516217"><ele>395.79999999999995</ele><time>2026-05-01T09:40:16.999Z</time></trkpt><trkpt lat="43.48539731527133" lon="10.91653992862551"><ele>392.59999999999997</ele><time>2026-05-01T09:40:17.999Z</time></trkpt><trkpt lat="43.48535108938221" lon="10.916406598856785"><ele>389.4</ele><time>2026-05-01T09:40:18.999Z</time></trkpt><trkpt lat="43.48530383852562" lon="10.916272689099241"><ele>386.2</ele><time>2026-05-01T09:40:19.999Z</time></trkpt><trkpt lat="43.4852717070449" lon="10.916131495230221"><ele>383.0</ele><time>2026-05-01T09:40:20.999Z</time></trkpt><trkpt lat="43.48522442538631" lon="10.91600042483127"><ele>384.4</ele><time>2026-05-01T09:40:21.999Z</time></trkpt><trkpt lat="43.48517814319925" lon="10.915872125073006"><ele>385.79999999999995</ele><time>2026-05-01T09:40:22.999Z</time></trkpt><trkpt lat="43.4851323623931" lon="10.915745215138466"><ele>387.2</ele><time>2026-05-01T09:40:23.999Z</time></trkpt><trkpt lat="43.48508577836394" lon="10.915616078664424"><ele>388.6</ele><time>2026-05-01T09:40:24.999Z</time></trkpt><trkpt lat="43.485040793958426" lon="10.915491376544484"><ele>390.0</ele><time>2026-05-01T09:40:25.999Z</time></trkpt><trkpt lat="43.48499365898107" lon="10.915360712716113"><ele>390.0</ele><time>2026-05-01T09:40:26.999Z</time></trkpt><trkpt lat="43.48494932116549" lon="10.915237803012065"><ele>390.0</ele><time>2026-05-01T09:40:27.999Z</time></trkpt><trkpt lat="43.484899241615224" lon="10.915098976451944"><ele>390.0</ele><time>2026-05-01T09:40:28.999Z</time></trkpt><trkpt lat="43.48485150344953" lon="10.91496463481247"><ele>390.0</ele><time>2026-05-01T09:40:29.999Z</time></trkpt><trkpt lat="43.48480961780153" lon="10.914822730144197"><ele>390.0</ele><time>2026-05-01T09:40:30.999Z</time></trkpt><trkpt lat="43.48477737000324" lon="10.914673405177004"><ele>391.75</ele><time>2026-05-01T09:40:31.999Z</time></trkpt><trkpt lat="43.48473158438717" lon="10.914525735999828"><ele>393.5</ele><time>2026-05-01T09:40:32.999Z</time></trkpt><trkpt lat="43.48471699204781" lon="10.914360532166471"><ele>395.25</ele><time>2026-05-01T09:40:33.999Z</time></trkpt><trkpt lat="43.48468768703988" lon="10.914201813388228"><ele>397.0</ele><time>2026-05-01T09:40:34.999Z</time></trkpt><trkpt lat="43.48464908580787" lon="10.9140442372535"><ele>397.6</ele><time>2026-05-01T09:40:35.999Z</time></trkpt><trkpt lat="43.484598578840554" lon="10.913898026900856"><ele>398.20000000000005</ele><time>2026-05-01T09:40:36.999Z</time></trkpt><trkpt lat="43.48454497840152" lon="10.913768428584222"><ele>398.8</ele><time>2026-05-01T09:40:37.999Z</time></trkpt><trkpt lat="43.48448635943153" lon="10.913648761954983"><ele>399.4</ele><time>2026-05-01T09:40:38.999Z</time></trkpt><trkpt lat="43.484418815374234" lon="10.913521668376163"><ele>400.0</ele><time>2026-05-01T09:40:39.999Z</time></trkpt><trkpt lat="43.48434598563972" lon="10.913384629095413"><ele>395.25</ele><time>2026-05-01T09:40:40.999Z</time></trkpt><trkpt lat="43.48427137922923" lon="10.913244246643062"><ele>390.5</ele><time>2026-05-01T09:40:41.999Z</time></trkpt><trkpt lat="43.484195586103986" lon="10.91310163129633"><ele>385.75</ele><time>2026-05-01T09:40:42.999Z</time></trkpt><trkpt lat="43.484116836555906" lon="10.912951168394851"><ele>381.0</ele><time>2026-05-01T09:40:43.999Z</time></trkpt><trkpt lat="43.48404245435811" lon="10.912806989191736"><ele>381.0</ele><time>2026-05-01T09:40:44.999Z</time></trkpt><trkpt lat="43.48397788347813" lon="10.912675536705922"><ele>381.0</ele><time>2026-05-01T09:40:45.999Z</time></trkpt><trkpt lat="43.483937116819405" lon="10.912541543879822"><ele>381.0</ele><time>2026-05-01T09:40:46.999Z</time></trkpt><trkpt lat="43.48390531475696" lon="10.91240073992855"><ele>381.0</ele><time>2026-05-01T09:40:47.999Z</time></trkpt><trkpt lat="43.483968936876735" lon="10.912257086013259"><ele>380.25</ele><time>2026-05-01T09:40:48.999Z</time></trkpt><trkpt lat="43.48403650310144" lon="10.912133810952927"><ele>379.5</ele><time>2026-05-01T09:40:49.999Z</time></trkpt><trkpt lat="43.48409735559309" lon="10.911992991928289"><ele>378.75</ele><time>2026-05-01T09:40:50.999Z</time></trkpt><trkpt lat="43.48418770833556" lon="10.91185663123796"><ele>378.0</ele><time>2026-05-01T09:40:51.999Z</time></trkpt><trkpt lat="43.484274055025786" lon="10.911702424071416"><ele>378.0</ele><time>2026-05-01T09:40:52.999Z</time></trkpt><trkpt lat="43.48436403261045" lon="10.911530025910825"><ele>378.0</ele><time>2026-05-01T09:40:53.999Z</time></trkpt><trkpt lat="43.48445945892709" lon="10.911349950219162"><ele>378.0</ele><time>2026-05-01T09:40:54.999Z</time></trkpt><trkpt lat="43.484565195298764" lon="10.911164764540521"><ele>377.6666666666667</ele><time>2026-05-01T09:40:55.998Z</time></trkpt><trkpt lat="43.48468134540276" lon="10.910987022512174"><ele>377.33333333333337</ele><time>2026-05-01T09:40:56.998Z</time></trkpt><trkpt lat="43.4847948499057" lon="10.910817929816977"><ele>377.0</ele><time>2026-05-01T09:40:57.998Z</time></trkpt><trkpt lat="43.48492471983414" lon="10.910686859336595"><ele>377.0</ele><time>2026-05-01T09:40:58.998Z</time></trkpt><trkpt lat="43.485078425493725" lon="10.910617123476293"><ele>377.0</ele><time>2026-05-01T09:40:59.998Z</time></trkpt><trkpt lat="43.485235261759975" lon="10.910591379621485"><ele>377.0</ele><time>2026-05-01T09:41:00.998Z</time></trkpt><trkpt lat="43.48539495014902" lon="10.91054949337073"><ele>378.33333333333337</ele><time>2026-05-01T09:41:01.998Z</time></trkpt><trkpt lat="43.48555344979778" lon="10.910528565492996"><ele>379.6666666666667</ele><time>2026-05-01T09:41:02.998Z</time></trkpt><trkpt lat="43.485711514074865" lon="10.91049114669469"><ele>381.0</ele><time>2026-05-01T09:41:03.998Z</time></trkpt><trkpt lat="43.485867304439324" lon="10.91045502064714"><ele>381.0</ele><time>2026-05-01T09:41:04.998Z</time></trkpt><trkpt lat="43.48602547117722" lon="10.910439683060776"><ele>381.0</ele><time>2026-05-01T09:41:05.998Z</time></trkpt><trkpt lat="43.486185860285104" lon="10.910454709977575"><ele>381.0</ele><time>2026-05-01T09:41:06.998Z</time></trkpt><trkpt lat="43.486341340402106" lon="10.91045396778999"><ele>378.3333333333333</ele><time>2026-05-01T09:41:07.998Z</time></trkpt><trkpt lat="43.486500519039375" lon="10.910434375305483"><ele>375.66666666666663</ele><time>2026-05-01T09:41:08.998Z</time></trkpt><trkpt lat="43.48665316137" lon="10.910446649748163"><ele>373.0</ele><time>2026-05-01T09:41:09.998Z</time></trkpt><trkpt lat="43.48679304229678" lon="10.910421510388137"><ele>373.0</ele><time>2026-05-01T09:41:10.998Z</time></trkpt><trkpt lat="43.48692813997359" lon="10.910334691521696"><ele>373.0</ele><time>2026-05-01T09:41:11.998Z</time></trkpt><trkpt lat="43.487055125187666" lon="10.910190337141117"><ele>373.0</ele><time>2026-05-01T09:41:12.998Z</time></trkpt><trkpt lat="43.48718696930593" lon="10.910031649362319"><ele>374.3333333333333</ele><time>2026-05-01T09:41:13.998Z</time></trkpt><trkpt lat="43.48731227986968" lon="10.909866975469253"><ele>375.6666666666667</ele><time>2026-05-01T09:41:14.998Z</time></trkpt><trkpt lat="43.48741657872176" lon="10.909679173238581"><ele>377.0</ele><time>2026-05-01T09:41:15.998Z</time></trkpt><trkpt lat="43.48749934481007" lon="10.909477781885437"><ele>377.0</ele><time>2026-05-01T09:41:16.998Z</time></trkpt><trkpt lat="43.48757772407927" lon="10.909276887206538"><ele>377.0</ele><time>2026-05-01T09:41:17.998Z</time></trkpt><trkpt lat="43.48765028318838" lon="10.909085232148222"><ele>377.0</ele><time>2026-05-01T09:41:18.998Z</time></trkpt><trkpt lat="43.48771804319192" lon="10.908887161754548"><ele>371.0</ele><time>2026-05-01T09:41:19.998Z</time></trkpt><trkpt lat="43.487772831663115" lon="10.908678431442038"><ele>365.0</ele><time>2026-05-01T09:41:20.998Z</time></trkpt><trkpt lat="43.487815877844035" lon="10.908459987494426"><ele>359.0</ele><time>2026-05-01T09:41:21.999Z</time></trkpt><trkpt lat="43.48784665683534" lon="10.908236125196597"><ele>358.0</ele><time>2026-05-01T09:41:22.999Z</time></trkpt><trkpt lat="43.48786804725618" lon="10.908010264004634"><ele>357.0</ele><time>2026-05-01T09:41:23.999Z</time></trkpt><trkpt lat="43.48789043058219" lon="10.907785017172529"><ele>356.0</ele><time>2026-05-01T09:41:24.999Z</time></trkpt><trkpt lat="43.48792346561611" lon="10.907558052675387"><ele>359.0</ele><time>2026-05-01T09:41:25.999Z</time></trkpt><trkpt lat="43.48795192860621" lon="10.907351527687029"><ele>362.0</ele><time>2026-05-01T09:41:26.999Z</time></trkpt><trkpt lat="43.48797128989958" lon="10.907141134253665"><ele>365.0</ele><time>2026-05-01T09:41:27.999Z</time></trkpt><trkpt lat="43.487974913777634" lon="10.906934441338626"><ele>366.6666666666667</ele><time>2026-05-01T09:41:28.999Z</time></trkpt><trkpt lat="43.48796171929754" lon="10.906729665378217"><ele>368.3333333333333</ele><time>2026-05-01T09:41:29.999Z</time></trkpt><trkpt lat="43.48794288801059" lon="10.906519456166421"><ele>370.0</ele><time>2026-05-01T09:41:30.999Z</time></trkpt><trkpt lat="43.487923759579004" lon="10.90631635545006"><ele>364.3333333333333</ele><time>2026-05-01T09:41:31.999Z</time></trkpt><trkpt lat="43.48792494486918" lon="10.906100739751462"><ele>358.6666666666667</ele><time>2026-05-01T09:41:32.999Z</time></trkpt><trkpt lat="43.487909538191914" lon="10.905885451222101"><ele>353.0</ele><time>2026-05-01T09:41:33.999Z</time></trkpt><trkpt lat="43.487879290441775" lon="10.905673614376537"><ele>352.6666666666667</ele><time>2026-05-01T09:41:34.999Z</time></trkpt><trkpt lat="43.48786529496574" lon="10.905457980488766"><ele>352.3333333333333</ele><time>2026-05-01T09:41:35.999Z</time></trkpt><trkpt lat="43.48786336405491" lon="10.905252400738473"><ele>352.0</ele><time>2026-05-01T09:41:36.999Z</time></trkpt><trkpt lat="43.4878320385863" lon="10.905050500007894"><ele>351.5</ele><time>2026-05-01T09:41:37.999Z</time></trkpt><trkpt lat="43.487819019533006" lon="10.904854347355245"><ele>351.0</ele><time>2026-05-01T09:41:38.999Z</time></trkpt><trkpt lat="43.487805836219046" lon="10.904651684666932"><ele>350.5</ele><time>2026-05-01T09:41:39.999Z</time></trkpt><trkpt lat="43.48779517149014" lon="10.904452178310034"><ele>350.0</ele><time>2026-05-01T09:41:40.999Z</time></trkpt><trkpt lat="43.48779213385836" lon="10.90426454690786"><ele>350.25</ele><time>2026-05-01T09:41:41.999Z</time></trkpt><trkpt lat="43.487798711665846" lon="10.904063629443087"><ele>350.5</ele><time>2026-05-01T09:41:42.999Z</time></trkpt><trkpt lat="43.487834727120195" lon="10.903862915442273"><ele>350.75</ele><time>2026-05-01T09:41:43.999Z</time></trkpt><trkpt lat="43.4878443901514" lon="10.90366347826115"><ele>351.0</ele><time>2026-05-01T09:41:44.999Z</time></trkpt><trkpt lat="43.48786553561585" lon="10.903477772287815"><ele>351.0</ele><time>2026-05-01T09:41:45.999Z</time></trkpt><trkpt lat="43.48786487245702" lon="10.903292479935697"><ele>351.0</ele><time>2026-05-01T09:41:46.999Z</time></trkpt><trkpt lat="43.48783787228442" lon="10.903102198298674"><ele>351.0</ele><time>2026-05-01T09:41:47.999Z</time></trkpt><trkpt lat="43.487777100429625" lon="10.902921835683832"><ele>351.0</ele><time>2026-05-01T09:41:48.999Z</time></trkpt><trkpt lat="43.48769809672672" lon="10.90276284586236"><ele>351.0</ele><time>2026-05-01T09:41:49.999Z</time></trkpt><trkpt lat="43.48762585464907" lon="10.902604456993528"><ele>351.0</ele><time>2026-05-01T09:41:50.999Z</time></trkpt><trkpt lat="43.487541254880696" lon="10.90246266064591"><ele>351.0</ele><time>2026-05-01T09:41:51.999Z</time></trkpt><trkpt lat="43.48752156315092" lon="10.902275660803879"><ele>351.0</ele><time>2026-05-01T09:41:52.999Z</time></trkpt><trkpt lat="43.48751764318242" lon="10.902073896351421"><ele>351.0</ele><time>2026-05-01T09:41:53.999Z</time></trkpt><trkpt lat="43.48750045417067" lon="10.901865416062035"><ele>351.0</ele><time>2026-05-01T09:41:54.999Z</time></trkpt><trkpt lat="43.48750219902008" lon="10.901658253862841"><ele>351.0</ele><time>2026-05-01T09:41:55.999Z</time></trkpt><trkpt lat="43.48749893294303" lon="10.901460328763273"><ele>351.0</ele><time>2026-05-01T09:41:56.999Z</time></trkpt><trkpt lat="43.48749233359009" lon="10.901263924638206"><ele>351.0</ele><time>2026-05-01T09:41:57.999Z</time></trkpt><trkpt lat="43.48749193918915" lon="10.901075121246418"><ele>351.0</ele><time>2026-05-01T09:41:58.999Z</time></trkpt><trkpt lat="43.48751083804624" lon="10.900889874290167"><ele>351.0</ele><time>2026-05-01T09:41:59.999Z</time></trkpt><trkpt lat="43.48759333761535" lon="10.900735323765076"><ele>351.0</ele><time>2026-05-01T09:42:00.999Z</time></trkpt><trkpt lat="43.48768595449204" lon="10.900591233085796"><ele>351.0</ele><time>2026-05-01T09:42:01.999Z</time></trkpt><trkpt lat="43.4877688646229" lon="10.900450447353295"><ele>351.0</ele><time>2026-05-01T09:42:02.999Z</time></trkpt><trkpt lat="43.48783253929624" lon="10.900297958358824"><ele>351.0</ele><time>2026-05-01T09:42:03.999Z</time></trkpt><trkpt lat="43.48784094378568" lon="10.900101736870033"><ele>351.0</ele><time>2026-05-01T09:42:04.999Z</time></trkpt><trkpt lat="43.487780219836104" lon="10.899886912806272"><ele>349.0</ele><time>2026-05-01T09:42:05.999Z</time></trkpt><trkpt lat="43.487691226534864" lon="10.899693387095082"><ele>347.0</ele><time>2026-05-01T09:42:06.999Z</time></trkpt><trkpt lat="43.48759681478712" lon="10.899494737358065"><ele>345.0</ele><time>2026-05-01T09:42:07.999Z</time></trkpt><trkpt lat="43.48755752186622" lon="10.899272479397172"><ele>345.6666666666667</ele><time>2026-05-01T09:42:08.999Z</time></trkpt><trkpt lat="43.48756137246878" lon="10.899071365734196"><ele>346.33333333333337</ele><time>2026-05-01T09:42:09.999Z</time></trkpt><trkpt lat="43.48758146582073" lon="10.898857520778487"><ele>347.0</ele><time>2026-05-01T09:42:10.999Z</time></trkpt><trkpt lat="43.487625568959295" lon="10.89864860707416"><ele>347.0</ele><time>2026-05-01T09:42:11.999Z</time></trkpt><trkpt lat="43.487651956969735" lon="10.898442828825472"><ele>347.0</ele><time>2026-05-01T09:42:12.999Z</time></trkpt><trkpt lat="43.48769505338639" lon="10.898241140260714"><ele>347.0</ele><time>2026-05-01T09:42:13.999Z</time></trkpt><trkpt lat="43.487733554219815" lon="10.89804204448964"><ele>346.0</ele><time>2026-05-01T09:42:14.999Z</time></trkpt><trkpt lat="43.48776987427612" lon="10.897841869035503"><ele>345.0</ele><time>2026-05-01T09:42:15.999Z</time></trkpt><trkpt lat="43.48780141013203" lon="10.897646725189873"><ele>344.0</ele><time>2026-05-01T09:42:16.999Z</time></trkpt><trkpt lat="43.48782323165456" lon="10.897448659034213"><ele>343.0</ele><time>2026-05-01T09:42:17.999Z</time></trkpt><trkpt lat="43.48781964554586" lon="10.897246550667798"><ele>341.0</ele><time>2026-05-01T09:42:18.999Z</time></trkpt><trkpt lat="43.48778473228778" lon="10.897050151402128"><ele>339.0</ele><time>2026-05-01T09:42:19.999Z</time></trkpt><trkpt lat="43.48773615631627" lon="10.896859126054075"><ele>337.0</ele><time>2026-05-01T09:42:20.999Z</time></trkpt><trkpt lat="43.48769243975512" lon="10.89666813988596"><ele>335.0</ele><time>2026-05-01T09:42:21.999Z</time></trkpt><trkpt lat="43.487656270802084" lon="10.896472036623095"><ele>334.0</ele><time>2026-05-01T09:42:22.999Z</time></trkpt><trkpt lat="43.487634123999605" lon="10.896268809813373"><ele>333.0</ele><time>2026-05-01T09:42:23.999Z</time></trkpt><trkpt lat="43.4876453678448" lon="10.896059064356283"><ele>332.0</ele><time>2026-05-01T09:42:24.999Z</time></trkpt><trkpt lat="43.487633559712876" lon="10.895851132432734"><ele>332.0</ele><time>2026-05-01T09:42:25.999Z</time></trkpt><trkpt lat="43.487640056493014" lon="10.895644922264745"><ele>332.0</ele><time>2026-05-01T09:42:26.999Z</time></trkpt><trkpt lat="43.487640012015746" lon="10.89544222210918"><ele>332.0</ele><time>2026-05-01T09:42:27.999Z</time></trkpt><trkpt lat="43.48761561063097" lon="10.895243966485156"><ele>332.0</ele><time>2026-05-01T09:42:28.999Z</time></trkpt><trkpt lat="43.487551840866644" lon="10.895070122120744"><ele>332.0</ele><time>2026-05-01T09:42:29.999Z</time></trkpt><trkpt lat="43.48744389355272" lon="10.894928375323403"><ele>332.0</ele><time>2026-05-01T09:42:30.999Z</time></trkpt><trkpt lat="43.487309227237624" lon="10.894833758634576"><ele>332.0</ele><time>2026-05-01T09:42:31.999Z</time></trkpt><trkpt lat="43.487167894287985" lon="10.894763350268006"><ele>328.0</ele><time>2026-05-01T09:42:32.999Z</time></trkpt><trkpt lat="43.48702918512155" lon="10.894686020537057"><ele>324.0</ele><time>2026-05-01T09:42:33.999Z</time></trkpt><trkpt lat="43.4868978777466" lon="10.894599159947909"><ele>320.0</ele><time>2026-05-01T09:42:34.999Z</time></trkpt><trkpt lat="43.486766360416354" lon="10.894515724692504"><ele>316.0</ele><time>2026-05-01T09:42:35.999Z</time></trkpt><trkpt lat="43.48663654833878" lon="10.89443625495729"><ele>316.0</ele><time>2026-05-01T09:42:36.999Z</time></trkpt><trkpt lat="43.48650679516376" lon="10.894355111329844"><ele>316.0</ele><time>2026-05-01T09:42:37.999Z</time></trkpt><trkpt lat="43.486376587490916" lon="10.894278434812618"><ele>316.0</ele><time>2026-05-01T09:42:38.999Z</time></trkpt><trkpt lat="43.4862553945296" lon="10.894206985428983"><ele>316.0</ele><time>2026-05-01T09:42:39.999Z</time></trkpt><trkpt lat="43.48613185963778" lon="10.894130091903802"><ele>314.75</ele><time>2026-05-01T09:42:40.999Z</time></trkpt><trkpt lat="43.486023397697764" lon="10.89400992306923"><ele>313.5</ele><time>2026-05-01T09:42:41.999Z</time></trkpt><trkpt lat="43.48593486931124" lon="10.893868705470124"><ele>312.25</ele><time>2026-05-01T09:42:42.999Z</time></trkpt><trkpt lat="43.48587041299408" lon="10.893698862243275"><ele>311.0</ele><time>2026-05-01T09:42:43.999Z</time></trkpt><trkpt lat="43.48584014016651" lon="10.893505381127236"><ele>311.75</ele><time>2026-05-01T09:42:44.999Z</time></trkpt><trkpt lat="43.485808308713246" lon="10.893314957595937"><ele>312.5</ele><time>2026-05-01T09:42:45.999Z</time></trkpt><trkpt lat="43.48579729000038" lon="10.89311765992667"><ele>313.25</ele><time>2026-05-01T09:42:46.999Z</time></trkpt><trkpt lat="43.48577247080225" lon="10.892924683794975"><ele>314.0</ele><time>2026-05-01T09:42:47.999Z</time></trkpt><trkpt lat="43.485726926590104" lon="10.892739033043407"><ele>313.0</ele><time>2026-05-01T09:42:48.999Z</time></trkpt><trkpt lat="43.485665393575644" lon="10.892562246914661"><ele>312.0</ele><time>2026-05-01T09:42:49.999Z</time></trkpt><trkpt lat="43.48559854579026" lon="10.892392729907606"><ele>311.0</ele><time>2026-05-01T09:42:50.999Z</time></trkpt><trkpt lat="43.48553115980761" lon="10.892213051480256"><ele>310.0</ele><time>2026-05-01T09:42:51.999Z</time></trkpt><trkpt lat="43.485464809909146" lon="10.89201803694743"><ele>307.75</ele><time>2026-05-01T09:42:52.999Z</time></trkpt><trkpt lat="43.48540501611803" lon="10.89182245117364"><ele>305.5</ele><time>2026-05-01T09:42:53.999Z</time></trkpt><trkpt lat="43.485344982788334" lon="10.89163326196298"><ele>303.25</ele><time>2026-05-01T09:42:54.999Z</time></trkpt><trkpt lat="43.485283787045745" lon="10.891458777409282"><ele>301.0</ele><time>2026-05-01T09:42:55.999Z</time></trkpt><trkpt lat="43.48522106080977" lon="10.891290615576672"><ele>300.75</ele><time>2026-05-01T09:42:56.999Z</time></trkpt><trkpt lat="43.48515755796253" lon="10.891121219626873"><ele>300.5</ele><time>2026-05-01T09:42:57.999Z</time></trkpt><trkpt lat="43.48509228546357" lon="10.890944412765174"><ele>300.25</ele><time>2026-05-01T09:42:58.999Z</time></trkpt><trkpt lat="43.48502798328355" lon="10.890765954505603"><ele>300.0</ele><time>2026-05-01T09:42:59.999Z</time></trkpt><trkpt lat="43.484964862567075" lon="10.89058843366181"><ele>300.5</ele><time>2026-05-01T09:43:00.999Z</time></trkpt><trkpt lat="43.484902335885785" lon="10.89041180756029"><ele>301.0</ele><time>2026-05-01T09:43:01.999Z</time></trkpt><trkpt lat="43.48483941177531" lon="10.890241058835295"><ele>301.5</ele><time>2026-05-01T09:43:02.999Z</time></trkpt><trkpt lat="43.48477368289037" lon="10.890085800998223"><ele>302.0</ele><time>2026-05-01T09:43:03.999Z</time></trkpt><trkpt lat="43.484698170513965" lon="10.889945629864247"><ele>302.6</ele><time>2026-05-01T09:43:04.999Z</time></trkpt><trkpt lat="43.484611699767385" lon="10.889829788569036"><ele>303.2</ele><time>2026-05-01T09:43:05.999Z</time></trkpt><trkpt lat="43.48451998476113" lon="10.889740836241408"><ele>303.8</ele><time>2026-05-01T09:43:06.999Z</time></trkpt><trkpt lat="43.48442952974317" lon="10.889663156161713"><ele>304.4</ele><time>2026-05-01T09:43:07.999Z</time></trkpt><trkpt lat="43.48434390204938" lon="10.889586163271895"><ele>305.0</ele><time>2026-05-01T09:43:08.999Z</time></trkpt><trkpt lat="43.48425877618586" lon="10.889501338709094"><ele>305.0</ele><time>2026-05-01T09:43:09.999Z</time></trkpt><trkpt lat="43.48417963633248" lon="10.889403329215629"><ele>305.0</ele><time>2026-05-01T09:43:10.999Z</time></trkpt><trkpt lat="43.48411287141992" lon="10.889285342919962"><ele>305.0</ele><time>2026-05-01T09:43:11.999Z</time></trkpt><trkpt lat="43.48408170090808" lon="10.889141364196751"><ele>305.0</ele><time>2026-05-01T09:43:12.998Z</time></trkpt><trkpt lat="43.48403320272367" lon="10.889008294614303"><ele>305.0</ele><time>2026-05-01T09:43:13.998Z</time></trkpt><trkpt lat="43.48400489648581" lon="10.888860335533236"><ele>305.0</ele><time>2026-05-01T09:43:14.998Z</time></trkpt><trkpt lat="43.4839742573976" lon="10.888715728949759"><ele>305.0</ele><time>2026-05-01T09:43:15.998Z</time></trkpt><trkpt lat="43.483938284872536" lon="10.888571807649155"><ele>305.0</ele><time>2026-05-01T09:43:16.998Z</time></trkpt><trkpt lat="43.48388719792398" lon="10.88843043793265"><ele>305.0</ele><time>2026-05-01T09:43:17.998Z</time></trkpt><trkpt lat="43.4838192014921" lon="10.888311384613369"><ele>305.0</ele><time>2026-05-01T09:43:18.998Z</time></trkpt><trkpt lat="43.48373632741954" lon="10.888217177261954"><ele>305.0</ele><time>2026-05-01T09:43:19.998Z</time></trkpt><trkpt lat="43.48364920790644" lon="10.88814874595169"><ele>305.0</ele><time>2026-05-01T09:43:20.998Z</time></trkpt><trkpt lat="43.483568784268975" lon="10.888098599252638"><ele>305.0</ele><time>2026-05-01T09:43:21.998Z</time></trkpt><trkpt lat="43.48349397512231" lon="10.88801004810447"><ele>305.0</ele><time>2026-05-01T09:43:22.998Z</time></trkpt><trkpt lat="43.48341755771963" lon="10.887933017406468"><ele>305.0</ele><time>2026-05-01T09:43:23.998Z</time></trkpt><trkpt lat="43.48338307256109" lon="10.887800642408303"><ele>305.0</ele><time>2026-05-01T09:43:24.998Z</time></trkpt><trkpt lat="43.4834027099209" lon="10.887653220670678"><ele>305.0</ele><time>2026-05-01T09:43:25.998Z</time></trkpt><trkpt lat="43.48347619956665" lon="10.887525396195041"><ele>305.0</ele><time>2026-05-01T09:43:27Z</time></trkpt><trkpt lat="43.483580041970065" lon="10.88744004063839"><ele>305.0</ele><time>2026-05-01T09:43:28Z</time></trkpt><trkpt lat="43.48368847612215" lon="10.887364499804338"><ele>300.5</ele><time>2026-05-01T09:43:29Z</time></trkpt><trkpt lat="43.48378984956031" lon="10.887272748950677"><ele>296.0</ele><time>2026-05-01T09:43:30Z</time></trkpt><trkpt lat="43.48388371059848" lon="10.887163444956407"><ele>291.5</ele><time>2026-05-01T09:43:31Z</time></trkpt><trkpt lat="43.48396931325824" lon="10.8870430926567"><ele>287.0</ele><time>2026-05-01T09:43:32Z</time></trkpt><trkpt lat="43.484046189589236" lon="10.886909860998102"><ele>287.0</ele><time>2026-05-01T09:43:33Z</time></trkpt><trkpt lat="43.48413370771423" lon="10.886771263924231"><ele>287.0</ele><time>2026-05-01T09:43:34Z</time></trkpt><trkpt lat="43.48420692004115" lon="10.886623580606333"><ele>287.0</ele><time>2026-05-01T09:43:35Z</time></trkpt><trkpt lat="43.48427739660989" lon="10.886474831636074"><ele>287.0</ele><time>2026-05-01T09:43:36Z</time></trkpt><trkpt lat="43.484355244497436" lon="10.886331067469383"><ele>288.5</ele><time>2026-05-01T09:43:37Z</time></trkpt><trkpt lat="43.4844371932504" lon="10.886190426771039"><ele>290.0</ele><time>2026-05-01T09:43:38Z</time></trkpt><trkpt lat="43.48451538010594" lon="10.886044526230554"><ele>291.5</ele><time>2026-05-01T09:43:39Z</time></trkpt><trkpt lat="43.48456818257135" lon="10.88587225857431"><ele>293.0</ele><time>2026-05-01T09:43:40Z</time></trkpt><trkpt lat="43.48457761123452" lon="10.885661802904735"><ele>293.6666666666667</ele><time>2026-05-01T09:43:41Z</time></trkpt><trkpt lat="43.48454086536993" lon="10.885433277571865"><ele>294.3333333333333</ele><time>2026-05-01T09:43:42Z</time></trkpt><trkpt lat="43.4844805769963" lon="10.885201548464625"><ele>295.0</ele><time>2026-05-01T09:43:43Z</time></trkpt><trkpt lat="43.48443524166726" lon="10.884982459785013"><ele>294.0</ele><time>2026-05-01T09:43:44Z</time></trkpt><trkpt lat="43.48439813774394" lon="10.88477105567304"><ele>293.0</ele><time>2026-05-01T09:43:45Z</time></trkpt><trkpt lat="43.484362372481" lon="10.884573215299037"><ele>292.0</ele><time>2026-05-01T09:43:46Z</time></trkpt><trkpt lat="43.484326564467814" lon="10.88438730214878"><ele>291.0</ele><time>2026-05-01T09:43:47Z</time></trkpt><trkpt lat="43.4842945844172" lon="10.88420922497644"><ele>290.0</ele><time>2026-05-01T09:43:48Z</time></trkpt><trkpt lat="43.48426609522354" lon="10.884040026051366"><ele>289.0</ele><time>2026-05-01T09:43:49Z</time></trkpt><trkpt lat="43.48423600997606" lon="10.883878901581957"><ele>288.0</ele><time>2026-05-01T09:43:50Z</time></trkpt><trkpt lat="43.484191600061514" lon="10.883722184535234"><ele>287.0</ele><time>2026-05-01T09:43:51Z</time></trkpt><trkpt lat="43.4841217514097" lon="10.883579169052707"><ele>287.0</ele><time>2026-05-01T09:43:52Z</time></trkpt><trkpt lat="43.484029762516144" lon="10.883456721498984"><ele>287.0</ele><time>2026-05-01T09:43:52.999Z</time></trkpt><trkpt lat="43.48392852323167" lon="10.883341371848365"><ele>287.0</ele><time>2026-05-01T09:43:53.999Z</time></trkpt><trkpt lat="43.48383591292121" lon="10.883209095597204"><ele>287.0</ele><time>2026-05-01T09:43:54.999Z</time></trkpt><trkpt lat="43.483758062689574" lon="10.883047208161459"><ele>287.25</ele><time>2026-05-01T09:43:55.999Z</time></trkpt><trkpt lat="43.483704773951864" lon="10.88286780547257"><ele>287.5</ele><time>2026-05-01T09:43:56.999Z</time></trkpt><trkpt lat="43.48366366469665" lon="10.882680123204068"><ele>287.75</ele><time>2026-05-01T09:43:57.999Z</time></trkpt><trkpt lat="43.4836339140471" lon="10.882489257565412"><ele>288.0</ele><time>2026-05-01T09:43:58.999Z</time></trkpt><trkpt lat="43.483611083192365" lon="10.882294271327975"><ele>286.0</ele><time>2026-05-01T09:43:59.999Z</time></trkpt><trkpt lat="43.48357610006426" lon="10.882109458250703"><ele>284.0</ele><time>2026-05-01T09:44:00.999Z</time></trkpt><trkpt lat="43.48351267774173" lon="10.881950483300418"><ele>282.0</ele><time>2026-05-01T09:44:01.999Z</time></trkpt><trkpt lat="43.48341994053624" lon="10.881821676127132"><ele>280.0</ele><time>2026-05-01T09:44:02.999Z</time></trkpt><trkpt lat="43.48329623367104" lon="10.881730579422358"><ele>276.66666666666663</ele><time>2026-05-01T09:44:03.999Z</time></trkpt><trkpt lat="43.48315259822222" lon="10.881679433479997"><ele>273.3333333333333</ele><time>2026-05-01T09:44:04.999Z</time></trkpt><trkpt lat="43.48300011099736" lon="10.881659099338084"><ele>270.0</ele><time>2026-05-01T09:44:05.999Z</time></trkpt><trkpt lat="43.48284375205156" lon="10.881658478186434"><ele>269.0</ele><time>2026-05-01T09:44:06.999Z</time></trkpt><trkpt lat="43.482687718573644" lon="10.881682306907134"><ele>268.0</ele><time>2026-05-01T09:44:07.999Z</time></trkpt><trkpt lat="43.482540144414685" lon="10.88175369388251"><ele>267.0</ele><time>2026-05-01T09:44:08.999Z</time></trkpt><trkpt lat="43.482405434644654" lon="10.881870869998183"><ele>268.25</ele><time>2026-05-01T09:44:09.999Z</time></trkpt><trkpt lat="43.4822880191769" lon="10.882013871740241"><ele>269.5</ele><time>2026-05-01T09:44:10.999Z</time></trkpt><trkpt lat="43.48217372682767" lon="10.8821513775544"><ele>270.75</ele><time>2026-05-01T09:44:11.999Z</time></trkpt><trkpt lat="43.482064055081544" lon="10.882269022643262"><ele>272.0</ele><time>2026-05-01T09:44:12.999Z</time></trkpt><trkpt lat="43.48195468747136" lon="10.882363260824615"><ele>272.0</ele><time>2026-05-01T09:44:13.999Z</time></trkpt><trkpt lat="43.481856053985254" lon="10.882459246388523"><ele>272.0</ele><time>2026-05-01T09:44:14.999Z</time></trkpt><trkpt lat="43.48175871790817" lon="10.882520542424066"><ele>272.0</ele><time>2026-05-01T09:44:15.999Z</time></trkpt><trkpt lat="43.48165043200164" lon="10.882529297485824"><ele>272.0</ele><time>2026-05-01T09:44:16.999Z</time></trkpt><trkpt lat="43.48153714703725" lon="10.88249410903479"><ele>272.0</ele><time>2026-05-01T09:44:17.999Z</time></trkpt><trkpt lat="43.48145784663156" lon="10.882373297853892"><ele>272.0</ele><time>2026-05-01T09:44:18.999Z</time></trkpt><trkpt lat="43.48144028870471" lon="10.882205718300666"><ele>272.0</ele><time>2026-05-01T09:44:19.999Z</time></trkpt><trkpt lat="43.481416630625816" lon="10.882057076555856"><ele>272.0</ele><time>2026-05-01T09:44:20.999Z</time></trkpt><trkpt lat="43.48138865777132" lon="10.881910641329153"><ele>269.5</ele><time>2026-05-01T09:44:21.999Z</time></trkpt><trkpt lat="43.48136980498988" lon="10.881757792371369"><ele>267.0</ele><time>2026-05-01T09:44:22.999Z</time></trkpt><trkpt lat="43.48134608225327" lon="10.88160574042871"><ele>264.5</ele><time>2026-05-01T09:44:23.999Z</time></trkpt><trkpt lat="43.4813235322369" lon="10.881450288106985"><ele>262.0</ele><time>2026-05-01T09:44:24.999Z</time></trkpt><trkpt lat="43.4812966184939" lon="10.881290641779495"><ele>263.5</ele><time>2026-05-01T09:44:25.999Z</time></trkpt><trkpt lat="43.48125907746312" lon="10.88113490450084"><ele>265.0</ele><time>2026-05-01T09:44:26.999Z</time></trkpt><trkpt lat="43.48120584243166" lon="10.88098016011401"><ele>266.5</ele><time>2026-05-01T09:44:27.999Z</time></trkpt><trkpt lat="43.481143100952295" lon="10.880827699745332"><ele>268.0</ele><time>2026-05-01T09:44:28.999Z</time></trkpt><trkpt lat="43.481067518358586" lon="10.880663593752738"><ele>268.0</ele><time>2026-05-01T09:44:29.999Z</time></trkpt><trkpt lat="43.480991903774274" lon="10.880505821327713"><ele>268.0</ele><time>2026-05-01T09:44:30.999Z</time></trkpt><trkpt lat="43.48091072749359" lon="10.880337789698352"><ele>268.0</ele><time>2026-05-01T09:44:31.999Z</time></trkpt><trkpt lat="43.480830857426426" lon="10.88016288204068"><ele>268.0</ele><time>2026-05-01T09:44:32.999Z</time></trkpt><trkpt lat="43.480751927344635" lon="10.879994243031364"><ele>268.75</ele><time>2026-05-01T09:44:33.999Z</time></trkpt><trkpt lat="43.48067184665433" lon="10.87982572892943"><ele>269.5</ele><time>2026-05-01T09:44:34.999Z</time></trkpt><trkpt lat="43.480591819520335" lon="10.879651856599699"><ele>270.25</ele><time>2026-05-01T09:44:35.999Z</time></trkpt><trkpt lat="43.48050935646653" lon="10.879478035646075"><ele>271.0</ele><time>2026-05-01T09:44:36.999Z</time></trkpt><trkpt lat="43.48042800423789" lon="10.879304956875833"><ele>268.5</ele><time>2026-05-01T09:44:37.999Z</time></trkpt><trkpt lat="43.48034732368899" lon="10.879128435572564"><ele>266.0</ele><time>2026-05-01T09:44:38.999Z</time></trkpt><trkpt lat="43.48026970927186" lon="10.878958941019041"><ele>263.5</ele><time>2026-05-01T09:44:39.999Z</time></trkpt><trkpt lat="43.48018740782502" lon="10.878783519263708"><ele>261.0</ele><time>2026-05-01T09:44:40.999Z</time></trkpt><trkpt lat="43.48011157491631" lon="10.878599715696826"><ele>258.75</ele><time>2026-05-01T09:44:41.999Z</time></trkpt><trkpt lat="43.48003221425473" lon="10.878425883451289"><ele>256.5</ele><time>2026-05-01T09:44:42.999Z</time></trkpt><trkpt lat="43.47995306579103" lon="10.878255336527046"><ele>254.25</ele><time>2026-05-01T09:44:43.999Z</time></trkpt><trkpt lat="43.479872026795796" lon="10.878079340253443"><ele>252.0</ele><time>2026-05-01T09:44:44.999Z</time></trkpt><trkpt lat="43.47979173200066" lon="10.877904490252492"><ele>252.0</ele><time>2026-05-01T09:44:45.999Z</time></trkpt><trkpt lat="43.47971154857318" lon="10.877733120725832"><ele>252.0</ele><time>2026-05-01T09:44:46.999Z</time></trkpt><trkpt lat="43.47963339377734" lon="10.877562714784505"><ele>252.0</ele><time>2026-05-01T09:44:47.999Z</time></trkpt><trkpt lat="43.47955394690851" lon="10.877390006919859"><ele>252.0</ele><time>2026-05-01T09:44:48.999Z</time></trkpt><trkpt lat="43.47947757226704" lon="10.877213139265617"><ele>252.0</ele><time>2026-05-01T09:44:49.999Z</time></trkpt><trkpt lat="43.479410252477436" lon="10.877037317624321"><ele>252.0</ele><time>2026-05-01T09:44:50.999Z</time></trkpt><trkpt lat="43.479358096794776" lon="10.87684936501076"><ele>252.0</ele><time>2026-05-01T09:44:51.999Z</time></trkpt><trkpt lat="43.47932547794728" lon="10.876653748833604"><ele>252.0</ele><time>2026-05-01T09:44:52.999Z</time></trkpt><trkpt lat="43.4793036678607" lon="10.876452455548431"><ele>252.0</ele><time>2026-05-01T09:44:53.999Z</time></trkpt><trkpt lat="43.4792918374584" lon="10.876251390261972"><ele>252.0</ele><time>2026-05-01T09:44:54.999Z</time></trkpt><trkpt lat="43.47927721460258" lon="10.876063238559839"><ele>252.0</ele><time>2026-05-01T09:44:55.999Z</time></trkpt><trkpt lat="43.479263852756915" lon="10.875855087410725"><ele>252.0</ele><time>2026-05-01T09:44:56.999Z</time></trkpt><trkpt lat="43.47922478827624" lon="10.875659997318245"><ele>251.25</ele><time>2026-05-01T09:44:57.999Z</time></trkpt><trkpt lat="43.47914768216543" lon="10.875484346746964"><ele>250.5</ele><time>2026-05-01T09:44:58.999Z</time></trkpt><trkpt lat="43.4790384183761" lon="10.875349322818673"><ele>249.75</ele><time>2026-05-01T09:44:59.999Z</time></trkpt><trkpt lat="43.47890759432002" lon="10.875267016682765"><ele>249.0</ele><time>2026-05-01T09:45:00.999Z</time></trkpt><trkpt lat="43.47877355640556" lon="10.87519867628721"><ele>250.0</ele><time>2026-05-01T09:45:01.999Z</time></trkpt><trkpt lat="43.47863584415795" lon="10.875124788729844"><ele>251.0</ele><time>2026-05-01T09:45:02.999Z</time></trkpt><trkpt lat="43.47849549314761" lon="10.875035821149245"><ele>252.0</ele><time>2026-05-01T09:45:03.999Z</time></trkpt><trkpt lat="43.47835616443751" lon="10.874943335308512"><ele>249.0</ele><time>2026-05-01T09:45:04.999Z</time></trkpt><trkpt lat="43.478217334131095" lon="10.874852757320513"><ele>246.0</ele><time>2026-05-01T09:45:05.999Z</time></trkpt><trkpt lat="43.47808248429602" lon="10.874764646297807"><ele>243.0</ele><time>2026-05-01T09:45:06.999Z</time></trkpt><trkpt lat="43.47794543659002" lon="10.874674220162122"><ele>242.5</ele><time>2026-05-01T09:45:07.999Z</time></trkpt><trkpt lat="43.47780555297669" lon="10.874586584085048"><ele>242.0</ele><time>2026-05-01T09:45:08.999Z</time></trkpt><trkpt lat="43.477674000634885" lon="10.874496591857847"><ele>241.5</ele><time>2026-05-01T09:45:09.999Z</time></trkpt><trkpt lat="43.47754446722067" lon="10.874399760281998"><ele>241.0</ele><time>2026-05-01T09:45:10.999Z</time></trkpt><trkpt lat="43.47741850574561" lon="10.874292732690103"><ele>238.0</ele><time>2026-05-01T09:45:11.999Z</time></trkpt><trkpt lat="43.47729357097919" lon="10.874176913482996"><ele>235.0</ele><time>2026-05-01T09:45:12.999Z</time></trkpt><trkpt lat="43.4771699370518" lon="10.874056146972956"><ele>232.0</ele><time>2026-05-01T09:45:13.999Z</time></trkpt><trkpt lat="43.477045726664336" lon="10.873930336602333"><ele>231.66666666666666</ele><time>2026-05-01T09:45:14.999Z</time></trkpt><trkpt lat="43.47692196831066" lon="10.87380449022704"><ele>231.33333333333331</ele><time>2026-05-01T09:45:15.999Z</time></trkpt><trkpt lat="43.47680850967452" lon="10.873660301134988"><ele>231.0</ele><time>2026-05-01T09:45:16.999Z</time></trkpt><trkpt lat="43.476684738033335" lon="10.873532981177819"><ele>229.33333333333331</ele><time>2026-05-01T09:45:17.999Z</time></trkpt><trkpt lat="43.47655790005963" lon="10.873405820485718"><ele>227.66666666666666</ele><time>2026-05-01T09:45:18.999Z</time></trkpt><trkpt lat="43.47642257007517" lon="10.873296424582596"><ele>226.0</ele><time>2026-05-01T09:45:19.999Z</time></trkpt><trkpt lat="43.47629775593424" lon="10.87316928460658"><ele>223.0</ele><time>2026-05-01T09:45:20.999Z</time></trkpt><trkpt lat="43.476186256359625" lon="10.873026966677342"><ele>220.0</ele><time>2026-05-01T09:45:21.999Z</time></trkpt><trkpt lat="43.47606231708465" lon="10.872900894005769"><ele>217.0</ele><time>2026-05-01T09:45:22.999Z</time></trkpt><trkpt lat="43.4759446211518" lon="10.872771250504002"><ele>217.0</ele><time>2026-05-01T09:45:23.999Z</time></trkpt><trkpt lat="43.47583053795133" lon="10.872625107458239"><ele>217.0</ele><time>2026-05-01T09:45:24.999Z</time></trkpt><trkpt lat="43.47572615939452" lon="10.872461135122537"><ele>217.0</ele><time>2026-05-01T09:45:25.998Z</time></trkpt><trkpt lat="43.47563599248507" lon="10.872271567277176"><ele>216.33333333333331</ele><time>2026-05-01T09:45:26.998Z</time></trkpt><trkpt lat="43.47554677106564" lon="10.872072113203542"><ele>215.66666666666669</ele><time>2026-05-01T09:45:27.998Z</time></trkpt><trkpt lat="43.475452085228554" lon="10.871873413235548"><ele>215.0</ele><time>2026-05-01T09:45:28.998Z</time></trkpt><trkpt lat="43.47537136162446" lon="10.871656922956697"><ele>215.0</ele><time>2026-05-01T09:45:29.998Z</time></trkpt><trkpt lat="43.47529750002858" lon="10.871439421938316"><ele>215.0</ele><time>2026-05-01T09:45:30.998Z</time></trkpt><trkpt lat="43.4752585605893" lon="10.871199792085102"><ele>215.0</ele><time>2026-05-01T09:45:32Z</time></trkpt><trkpt lat="43.47521654557415" lon="10.8709673082774"><ele>216.0</ele><time>2026-05-01T09:45:33Z</time></trkpt><trkpt lat="43.4751639011861" lon="10.870741190424484"><ele>217.0</ele><time>2026-05-01T09:45:34Z</time></trkpt><trkpt lat="43.4751214812296" lon="10.870515251857492"><ele>218.0</ele><time>2026-05-01T09:45:35Z</time></trkpt><trkpt lat="43.475086080545104" lon="10.87029437709953"><ele>218.33333333333334</ele><time>2026-05-01T09:45:36Z</time></trkpt><trkpt lat="43.475050819652964" lon="10.870072440316168"><ele>218.66666666666669</ele><time>2026-05-01T09:45:37Z</time></trkpt><trkpt lat="43.47501465116128" lon="10.869857243068749"><ele>219.0</ele><time>2026-05-01T09:45:38Z</time></trkpt><trkpt lat="43.47497597738518" lon="10.869638635979971"><ele>219.0</ele><time>2026-05-01T09:45:39Z</time></trkpt><trkpt lat="43.47493974700004" lon="10.869426293115737"><ele>219.0</ele><time>2026-05-01T09:45:40Z</time></trkpt><trkpt lat="43.47490387411646" lon="10.86921168606399"><ele>219.0</ele><time>2026-05-01T09:45:41Z</time></trkpt><trkpt lat="43.474867033470794" lon="10.869002433702661"><ele>219.0</ele><time>2026-05-01T09:45:42Z</time></trkpt><trkpt lat="43.47482957563147" lon="10.868785084836402"><ele>219.0</ele><time>2026-05-01T09:45:43Z</time></trkpt><trkpt lat="43.474790711956665" lon="10.868571076421462"><ele>219.0</ele><time>2026-05-01T09:45:44Z</time></trkpt><trkpt lat="43.474737688655985" lon="10.868363113323538"><ele>217.66666666666669</ele><time>2026-05-01T09:45:45Z</time></trkpt><trkpt lat="43.474669665991875" lon="10.868161089069275"><ele>216.33333333333334</ele><time>2026-05-01T09:45:46Z</time></trkpt><trkpt lat="43.47458099347151" lon="10.867963925159438"><ele>215.0</ele><time>2026-05-01T09:45:47Z</time></trkpt><trkpt lat="43.47448058662122" lon="10.867786379003293"><ele>214.33333333333334</ele><time>2026-05-01T09:45:48Z</time></trkpt><trkpt lat="43.474376531155706" lon="10.867607650117067"><ele>213.66666666666669</ele><time>2026-05-01T09:45:49Z</time></trkpt><trkpt lat="43.474269797962236" lon="10.867431683024579"><ele>213.0</ele><time>2026-05-01T09:45:50Z</time></trkpt><trkpt lat="43.47416009673572" lon="10.867255173873154"><ele>213.0</ele><time>2026-05-01T09:45:51Z</time></trkpt><trkpt lat="43.474052795391515" lon="10.867075022484228"><ele>213.0</ele><time>2026-05-01T09:45:52Z</time></trkpt><trkpt lat="43.47393861234301" lon="10.866888305950225"><ele>213.0</ele><time>2026-05-01T09:45:53Z</time></trkpt><trkpt lat="43.47383096225487" lon="10.866707482403484"><ele>212.0</ele><time>2026-05-01T09:45:54Z</time></trkpt><trkpt lat="43.473721366756024" lon="10.866522139702946"><ele>211.0</ele><time>2026-05-01T09:45:55Z</time></trkpt><trkpt lat="43.47360805540233" lon="10.866334973044859"><ele>210.0</ele><time>2026-05-01T09:45:56Z</time></trkpt><trkpt lat="43.47349746418907" lon="10.866148130834317"><ele>210.0</ele><time>2026-05-01T09:45:57Z</time></trkpt><trkpt lat="43.47338931664099" lon="10.865961869664817"><ele>210.0</ele><time>2026-05-01T09:45:58Z</time></trkpt><trkpt lat="43.47327822839008" lon="10.865773184043048"><ele>210.0</ele><time>2026-05-01T09:45:59Z</time></trkpt><trkpt lat="43.473166607242774" lon="10.865584472043865"><ele>210.33333333333331</ele><time>2026-05-01T09:46:00Z</time></trkpt><trkpt lat="43.47305345181336" lon="10.865397172617968"><ele>210.66666666666666</ele><time>2026-05-01T09:46:01Z</time></trkpt><trkpt lat="43.472946068025855" lon="10.865219608803473"><ele>211.0</ele><time>2026-05-01T09:46:02Z</time></trkpt><trkpt lat="43.47283505534875" lon="10.865033188400131"><ele>211.0</ele><time>2026-05-01T09:46:03Z</time></trkpt><trkpt lat="43.47273031718163" lon="10.86485178146514"><ele>211.0</ele><time>2026-05-01T09:46:04Z</time></trkpt><trkpt lat="43.47262291013416" lon="10.864672381954739"><ele>211.0</ele><time>2026-05-01T09:46:05Z</time></trkpt><trkpt lat="43.47251973886083" lon="10.864501194485346"><ele>211.0</ele><time>2026-05-01T09:46:06Z</time></trkpt><trkpt lat="43.47241648295796" lon="10.864332208283782"><ele>211.0</ele><time>2026-05-01T09:46:07Z</time></trkpt><trkpt lat="43.47231489322827" lon="10.864160934691553"><ele>211.0</ele><time>2026-05-01T09:46:07.999Z</time></trkpt><trkpt lat="43.472237857322035" lon="10.863964775713026"><ele>209.66666666666666</ele><time>2026-05-01T09:46:08.999Z</time></trkpt><trkpt lat="43.47217170484616" lon="10.86376597257481"><ele>208.33333333333331</ele><time>2026-05-01T09:46:09.999Z</time></trkpt><trkpt lat="43.472128957337105" lon="10.863551518882318"><ele>207.0</ele><time>2026-05-01T09:46:10.999Z</time></trkpt><trkpt lat="43.472113145908025" lon="10.863320162170547"><ele>205.33333333333331</ele><time>2026-05-01T09:46:11.999Z</time></trkpt><trkpt lat="43.47211681788723" lon="10.863086627977117"><ele>203.66666666666666</ele><time>2026-05-01T09:46:12.999Z</time></trkpt><trkpt lat="43.47211103629464" lon="10.862850582825011"><ele>202.0</ele><time>2026-05-01T09:46:13.999Z</time></trkpt><trkpt lat="43.4721295321224" lon="10.862610204881051"><ele>201.66666666666666</ele><time>2026-05-01T09:46:14.999Z</time></trkpt><trkpt lat="43.47213722404696" lon="10.862377459966458"><ele>201.33333333333331</ele><time>2026-05-01T09:46:15.999Z</time></trkpt><trkpt lat="43.47214244792194" lon="10.862144845678978"><ele>201.0</ele><time>2026-05-01T09:46:16.999Z</time></trkpt><trkpt lat="43.472149954870055" lon="10.861911556837999"><ele>202.0</ele><time>2026-05-01T09:46:17.999Z</time></trkpt><trkpt lat="43.4721568003127" lon="10.861689813605063"><ele>203.0</ele><time>2026-05-01T09:46:18.999Z</time></trkpt><trkpt lat="43.47215479034928" lon="10.861467672388551"><ele>204.0</ele><time>2026-05-01T09:46:19.999Z</time></trkpt><trkpt lat="43.47213121713008" lon="10.86125330736065"><ele>206.0</ele><time>2026-05-01T09:46:20.999Z</time></trkpt><trkpt lat="43.472087243937786" lon="10.861035054704061"><ele>208.0</ele><time>2026-05-01T09:46:21.999Z</time></trkpt><trkpt lat="43.47202901290067" lon="10.860821447995246"><ele>210.0</ele><time>2026-05-01T09:46:22.999Z</time></trkpt><trkpt lat="43.47196074282951" lon="10.860611749918599"><ele>210.0</ele><time>2026-05-01T09:46:23.999Z</time></trkpt><trkpt lat="43.47188232295187" lon="10.860404392235042"><ele>210.0</ele><time>2026-05-01T09:46:24.999Z</time></trkpt><trkpt lat="43.4717963289403" lon="10.86019927948018"><ele>210.0</ele><time>2026-05-01T09:46:25.999Z</time></trkpt><trkpt lat="43.47171752456759" lon="10.859992615856754"><ele>209.0</ele><time>2026-05-01T09:46:26.999Z</time></trkpt><trkpt lat="43.471668622713764" lon="10.859765667008906"><ele>208.0</ele><time>2026-05-01T09:46:27.999Z</time></trkpt><trkpt lat="43.47159599043398" lon="10.859547022417374"><ele>207.0</ele><time>2026-05-01T09:46:28.999Z</time></trkpt><trkpt lat="43.47154535681886" lon="10.85932205540096"><ele>206.0</ele><time>2026-05-01T09:46:29.999Z</time></trkpt><trkpt lat="43.47149588905728" lon="10.859095243216393"><ele>205.0</ele><time>2026-05-01T09:46:30.999Z</time></trkpt><trkpt lat="43.47144756911999" lon="10.85887305636808"><ele>204.0</ele><time>2026-05-01T09:46:31.999Z</time></trkpt><trkpt lat="43.47139897400198" lon="10.858656310089998"><ele>203.66666666666669</ele><time>2026-05-01T09:46:32.999Z</time></trkpt><trkpt lat="43.47135043636199" lon="10.858443526911952"><ele>203.33333333333334</ele><time>2026-05-01T09:46:33.999Z</time></trkpt><trkpt lat="43.471302544472906" lon="10.858224976094606"><ele>203.0</ele><time>2026-05-01T09:46:34.999Z</time></trkpt><trkpt lat="43.47125663769939" lon="10.858011621806655"><ele>202.66666666666669</ele><time>2026-05-01T09:46:35.999Z</time></trkpt><trkpt lat="43.471210888448915" lon="10.857800257511657"><ele>202.33333333333331</ele><time>2026-05-01T09:46:36.999Z</time></trkpt><trkpt lat="43.471166602642505" lon="10.857586384251649"><ele>202.0</ele><time>2026-05-01T09:46:37.999Z</time></trkpt><trkpt lat="43.47114961644032" lon="10.85736792783776"><ele>202.0</ele><time>2026-05-01T09:46:38.999Z</time></trkpt><trkpt lat="43.47113579743055" lon="10.857151293236077"><ele>202.0</ele><time>2026-05-01T09:46:39.999Z</time></trkpt><trkpt lat="43.471119120104554" lon="10.856925939138879"><ele>202.0</ele><time>2026-05-01T09:46:40.999Z</time></trkpt><trkpt lat="43.47113288899939" lon="10.856700952085838"><ele>204.0</ele><time>2026-05-01T09:46:41.999Z</time></trkpt><trkpt lat="43.471158756624654" lon="10.856478861531308"><ele>206.0</ele><time>2026-05-01T09:46:42.999Z</time></trkpt><trkpt lat="43.47118937002655" lon="10.85626276778054"><ele>208.0</ele><time>2026-05-01T09:46:43.999Z</time></trkpt><trkpt lat="43.47121298905924" lon="10.856048255391043"><ele>209.33333333333331</ele><time>2026-05-01T09:46:44.999Z</time></trkpt><trkpt lat="43.47121972233935" lon="10.855834673625846"><ele>210.66666666666669</ele><time>2026-05-01T09:46:45.999Z</time></trkpt><trkpt lat="43.4712058870794" lon="10.855619396226354"><ele>212.0</ele><time>2026-05-01T09:46:46.999Z</time></trkpt><trkpt lat="43.47117828400054" lon="10.85540629786766"><ele>212.0</ele><time>2026-05-01T09:46:47.999Z</time></trkpt><trkpt lat="43.47114285351179" lon="10.855185737724842"><ele>212.0</ele><time>2026-05-01T09:46:48.999Z</time></trkpt><trkpt lat="43.471099958666066" lon="10.854969376099142"><ele>212.0</ele><time>2026-05-01T09:46:49.999Z</time></trkpt><trkpt lat="43.47105431517119" lon="10.854749509901914"><ele>211.33333333333334</ele><time>2026-05-01T09:46:50.999Z</time></trkpt><trkpt lat="43.47101102251263" lon="10.85452449446733"><ele>210.66666666666669</ele><time>2026-05-01T09:46:51.999Z</time></trkpt><trkpt lat="43.470973749746314" lon="10.854308831423536"><ele>210.0</ele><time>2026-05-01T09:46:52.999Z</time></trkpt><trkpt lat="43.470949987553546" lon="10.854098771360807"><ele>207.66666666666669</ele><time>2026-05-01T09:46:53.999Z</time></trkpt><trkpt lat="43.47095095861801" lon="10.853889975827155"><ele>205.33333333333334</ele><time>2026-05-01T09:46:54.999Z</time></trkpt><trkpt lat="43.47099925940411" lon="10.85369032063476"><ele>203.0</ele><time>2026-05-01T09:46:55.999Z</time></trkpt><trkpt lat="43.47103968382531" lon="10.853483072251564"><ele>201.33333333333334</ele><time>2026-05-01T09:46:56.999Z</time></trkpt><trkpt lat="43.47108615938116" lon="10.853262099295426"><ele>199.66666666666669</ele><time>2026-05-01T09:46:57.999Z</time></trkpt><trkpt lat="43.471133638289956" lon="10.853034867134749"><ele>198.0</ele><time>2026-05-01T09:46:58.999Z</time></trkpt><trkpt lat="43.47117057655075" lon="10.852783847633521"><ele>197.0</ele><time>2026-05-01T09:46:59.999Z</time></trkpt><trkpt lat="43.4712291502443" lon="10.85253591603981"><ele>196.0</ele><time>2026-05-01T09:47:00.999Z</time></trkpt><trkpt lat="43.471284537283246" lon="10.852277699236934"><ele>195.0</ele><time>2026-05-01T09:47:01.999Z</time></trkpt><trkpt lat="43.47131203882843" lon="10.852003017052285"><ele>196.0</ele><time>2026-05-01T09:47:02.999Z</time></trkpt><trkpt lat="43.47129937606091" lon="10.851719841170087"><ele>197.0</ele><time>2026-05-01T09:47:03.999Z</time></trkpt><trkpt lat="43.47124462065876" lon="10.85144492233899"><ele>198.0</ele><time>2026-05-01T09:47:04.999Z</time></trkpt><trkpt lat="43.471173620207864" lon="10.851187966433937"><ele>195.33333333333334</ele><time>2026-05-01T09:47:05.999Z</time></trkpt><trkpt lat="43.47110845582004" lon="10.850936311087239"><ele>192.66666666666669</ele><time>2026-05-01T09:47:06.999Z</time></trkpt><trkpt lat="43.47105419713435" lon="10.850693468053596"><ele>190.0</ele><time>2026-05-01T09:47:07.999Z</time></trkpt><trkpt lat="43.47100636647306" lon="10.850460256650408"><ele>190.0</ele><time>2026-05-01T09:47:08.999Z</time></trkpt><trkpt lat="43.4709576452378" lon="10.850227691372588"><ele>190.0</ele><time>2026-05-01T09:47:09.999Z</time></trkpt><trkpt lat="43.470908221437114" lon="10.850006878606134"><ele>190.0</ele><time>2026-05-01T09:47:10.999Z</time></trkpt><trkpt lat="43.470859000549574" lon="10.849793957114498"><ele>191.66666666666669</ele><time>2026-05-01T09:47:11.999Z</time></trkpt><trkpt lat="43.47080963678316" lon="10.849580574943687"><ele>193.33333333333334</ele><time>2026-05-01T09:47:12.999Z</time></trkpt><trkpt lat="43.47075901305523" lon="10.849374176127807"><ele>195.0</ele><time>2026-05-01T09:47:13.999Z</time></trkpt><trkpt lat="43.47070530410385" lon="10.849172952509605"><ele>196.75</ele><time>2026-05-01T09:47:14.999Z</time></trkpt><trkpt lat="43.47065057861521" lon="10.848979501521931"><ele>198.5</ele><time>2026-05-01T09:47:15.999Z</time></trkpt><trkpt lat="43.47059560742993" lon="10.848789745579543"><ele>200.25</ele><time>2026-05-01T09:47:16.999Z</time></trkpt><trkpt lat="43.4705414634463" lon="10.848602021395962"><ele>202.0</ele><time>2026-05-01T09:47:17.999Z</time></trkpt><trkpt lat="43.47049157652279" lon="10.848420599207598"><ele>202.75</ele><time>2026-05-01T09:47:18.999Z</time></trkpt><trkpt lat="43.470443931293126" lon="10.848242818568496"><ele>203.5</ele><time>2026-05-01T09:47:19.999Z</time></trkpt><trkpt lat="43.470401258571705" lon="10.848079710948268"><ele>204.25</ele><time>2026-05-01T09:47:20.999Z</time></trkpt><trkpt lat="43.47035574266873" lon="10.847919629039943"><ele>205.0</ele><time>2026-05-01T09:47:21.999Z</time></trkpt><trkpt lat="43.47030558785514" lon="10.847752114519757"><ele>201.25</ele><time>2026-05-01T09:47:22.999Z</time></trkpt><trkpt lat="43.47024907404022" lon="10.847578660186505"><ele>197.5</ele><time>2026-05-01T09:47:23.999Z</time></trkpt><trkpt lat="43.47018733466966" lon="10.847406638356578"><ele>193.75</ele><time>2026-05-01T09:47:24.999Z</time></trkpt><trkpt lat="43.470115879465524" lon="10.847237369020801"><ele>190.0</ele><time>2026-05-01T09:47:25.999Z</time></trkpt><trkpt lat="43.47004066060616" lon="10.847067891447049"><ele>190.0</ele><time>2026-05-01T09:47:26.999Z</time></trkpt><trkpt lat="43.46996342420231" lon="10.84690366392961"><ele>190.0</ele><time>2026-05-01T09:47:27.999Z</time></trkpt><trkpt lat="43.46988237464039" lon="10.846742325015947"><ele>190.0</ele><time>2026-05-01T09:47:28.999Z</time></trkpt><trkpt lat="43.46979534367718" lon="10.846585474475525"><ele>190.0</ele><time>2026-05-01T09:47:29.999Z</time></trkpt><trkpt lat="43.4697044489429" lon="10.846432715738983"><ele>192.0</ele><time>2026-05-01T09:47:30.999Z</time></trkpt><trkpt lat="43.46961537412331" lon="10.846278670623114"><ele>194.0</ele><time>2026-05-01T09:47:31.999Z</time></trkpt><trkpt lat="43.46955545769415" lon="10.846100643686006"><ele>196.0</ele><time>2026-05-01T09:47:32.999Z</time></trkpt><trkpt lat="43.46950558180808" lon="10.845910922289118"><ele>198.0</ele><time>2026-05-01T09:47:33.999Z</time></trkpt><trkpt lat="43.46948547043432" lon="10.845706275615557"><ele>193.66666666666666</ele><time>2026-05-01T09:47:34.999Z</time></trkpt><trkpt lat="43.46949540677461" lon="10.845488840393536"><ele>189.33333333333331</ele><time>2026-05-01T09:47:35.998Z</time></trkpt><trkpt lat="43.46950859533794" lon="10.845265325092107"><ele>185.0</ele><time>2026-05-01T09:47:37Z</time></trkpt><trkpt lat="43.46950796915599" lon="10.845034829711993"><ele>185.0</ele><time>2026-05-01T09:47:38Z</time></trkpt><trkpt lat="43.469518038938396" lon="10.844804862349472"><ele>185.0</ele><time>2026-05-01T09:47:39Z</time></trkpt><trkpt lat="43.46952651655534" lon="10.844570803182428"><ele>185.0</ele><time>2026-05-01T09:47:40Z</time></trkpt><trkpt lat="43.469541116453286" lon="10.844334715150106"><ele>184.0</ele><time>2026-05-01T09:47:41Z</time></trkpt><trkpt lat="43.46954984821985" lon="10.844101706579067"><ele>183.0</ele><time>2026-05-01T09:47:42Z</time></trkpt><trkpt lat="43.46953331520291" lon="10.843867873914768"><ele>182.0</ele><time>2026-05-01T09:47:43Z</time></trkpt><trkpt lat="43.46949159460544" lon="10.84364043414989"><ele>185.0</ele><time>2026-05-01T09:47:44Z</time></trkpt><trkpt lat="43.469436652955814" lon="10.843413989367583"><ele>188.0</ele><time>2026-05-01T09:47:45Z</time></trkpt><trkpt lat="43.4693713170651" lon="10.843192617064817"><ele>191.0</ele><time>2026-05-01T09:47:46Z</time></trkpt><trkpt lat="43.469308776762716" lon="10.84297574904904"><ele>191.0</ele><time>2026-05-01T09:47:47Z</time></trkpt><trkpt lat="43.46924932052646" lon="10.842764661053852"><ele>191.0</ele><time>2026-05-01T09:47:48Z</time></trkpt><trkpt lat="43.469189556957396" lon="10.842549961694782"><ele>191.0</ele><time>2026-05-01T09:47:49Z</time></trkpt><trkpt lat="43.46914824777526" lon="10.842339102583296"><ele>191.33333333333331</ele><time>2026-05-01T09:47:50Z</time></trkpt><trkpt lat="43.469102223837695" lon="10.842125162939016"><ele>191.66666666666666</ele><time>2026-05-01T09:47:51Z</time></trkpt><trkpt lat="43.4691226937462" lon="10.841897175119238"><ele>192.0</ele><time>2026-05-01T09:47:52Z</time></trkpt><trkpt lat="43.46918220101749" lon="10.841673433788259"><ele>192.33333333333331</ele><time>2026-05-01T09:47:53Z</time></trkpt><trkpt lat="43.469267730601885" lon="10.841478805186851"><ele>192.66666666666666</ele><time>2026-05-01T09:47:54Z</time></trkpt><trkpt lat="43.46935634500459" lon="10.841285073025048"><ele>193.0</ele><time>2026-05-01T09:47:55Z</time></trkpt><trkpt lat="43.46941815885527" lon="10.841089511644618"><ele>194.66666666666666</ele><time>2026-05-01T09:47:56Z</time></trkpt><trkpt lat="43.46942234454491" lon="10.840876560717568"><ele>196.33333333333331</ele><time>2026-05-01T09:47:57Z</time></trkpt><trkpt lat="43.469381589586" lon="10.840665346282703"><ele>198.0</ele><time>2026-05-01T09:47:58Z</time></trkpt><trkpt lat="43.46931121121728" lon="10.84047007130292"><ele>198.0</ele><time>2026-05-01T09:47:59Z</time></trkpt><trkpt lat="43.4692403761834" lon="10.8402687171215"><ele>198.0</ele><time>2026-05-01T09:48:00Z</time></trkpt><trkpt lat="43.469175604051365" lon="10.840061707380755"><ele>198.0</ele><time>2026-05-01T09:48:01Z</time></trkpt><trkpt lat="43.46911352295911" lon="10.839852684678515"><ele>195.66666666666666</ele><time>2026-05-01T09:48:02Z</time></trkpt><trkpt lat="43.46904616635499" lon="10.839633714885137"><ele>193.33333333333331</ele><time>2026-05-01T09:48:03Z</time></trkpt><trkpt lat="43.46897787220239" lon="10.839411460075233"><ele>191.0</ele><time>2026-05-01T09:48:04Z</time></trkpt><trkpt lat="43.468915476265195" lon="10.839187649625126"><ele>193.66666666666666</ele><time>2026-05-01T09:48:05Z</time></trkpt><trkpt lat="43.46884785598555" lon="10.83896309193642"><ele>196.33333333333331</ele><time>2026-05-01T09:48:06Z</time></trkpt><trkpt lat="43.46878313506431" lon="10.838743445906827"><ele>199.0</ele><time>2026-05-01T09:48:07Z</time></trkpt><trkpt lat="43.468719251481126" lon="10.838524419532105"><ele>197.33333333333331</ele><time>2026-05-01T09:48:08Z</time></trkpt><trkpt lat="43.46865175078671" lon="10.838323675302606"><ele>195.66666666666669</ele><time>2026-05-01T09:48:09Z</time></trkpt><trkpt lat="43.46858231020749" lon="10.838107957436781"><ele>194.0</ele><time>2026-05-01T09:48:10Z</time></trkpt><trkpt lat="43.468501303063114" lon="10.837912324193002"><ele>194.0</ele><time>2026-05-01T09:48:11Z</time></trkpt><trkpt lat="43.46840256478942" lon="10.8377328435711"><ele>194.0</ele><time>2026-05-01T09:48:12Z</time></trkpt><trkpt lat="43.46829080823335" lon="10.837566111078552"><ele>194.0</ele><time>2026-05-01T09:48:13Z</time></trkpt><trkpt lat="43.46817322937355" lon="10.837411143662486"><ele>192.0</ele><time>2026-05-01T09:48:14Z</time></trkpt><trkpt lat="43.468044135032706" lon="10.83726298197921"><ele>190.0</ele><time>2026-05-01T09:48:15Z</time></trkpt><trkpt lat="43.46791353805371" lon="10.837128546656752"><ele>188.0</ele><time>2026-05-01T09:48:16Z</time></trkpt><trkpt lat="43.46777531671141" lon="10.837015299079013"><ele>188.0</ele><time>2026-05-01T09:48:17Z</time></trkpt><trkpt lat="43.46762474087571" lon="10.836925153954194"><ele>188.0</ele><time>2026-05-01T09:48:18Z</time></trkpt><trkpt lat="43.46746356274574" lon="10.836854265083392"><ele>188.0</ele><time>2026-05-01T09:48:19Z</time></trkpt><trkpt lat="43.467299038019945" lon="10.836797004101278"><ele>184.66666666666666</ele><time>2026-05-01T09:48:20Z</time></trkpt><trkpt lat="43.46713613155048" lon="10.836745117741456"><ele>181.33333333333334</ele><time>2026-05-01T09:48:21Z</time></trkpt><trkpt lat="43.46697126997739" lon="10.836674688584198"><ele>178.0</ele><time>2026-05-01T09:48:22Z</time></trkpt><trkpt lat="43.46681227482907" lon="10.83657963897094"><ele>178.0</ele><time>2026-05-01T09:48:23Z</time></trkpt><trkpt lat="43.46665958382919" lon="10.836466087040284"><ele>178.0</ele><time>2026-05-01T09:48:24Z</time></trkpt><trkpt lat="43.46651527530634" lon="10.83634446497993"><ele>178.0</ele><time>2026-05-01T09:48:25Z</time></trkpt><trkpt lat="43.46639109865091" lon="10.836191558799994"><ele>177.0</ele><time>2026-05-01T09:48:26Z</time></trkpt><trkpt lat="43.466257441546745" lon="10.836059074355216"><ele>176.0</ele><time>2026-05-01T09:48:27Z</time></trkpt><trkpt lat="43.46614717155014" lon="10.835898708857727"><ele>175.0</ele><time>2026-05-01T09:48:28Z</time></trkpt><trkpt lat="43.4660454764584" lon="10.835730334562687"><ele>175.0</ele><time>2026-05-01T09:48:29Z</time></trkpt><trkpt lat="43.465951007942394" lon="10.835553202325608"><ele>175.0</ele><time>2026-05-01T09:48:29.999Z</time></trkpt><trkpt lat="43.46586506346459" lon="10.835370874721939"><ele>175.0</ele><time>2026-05-01T09:48:30.999Z</time></trkpt><trkpt lat="43.465778953066874" lon="10.835184724286785"><ele>172.33333333333334</ele><time>2026-05-01T09:48:31.999Z</time></trkpt><trkpt lat="43.46569094366178" lon="10.834999513188507"><ele>169.66666666666666</ele><time>2026-05-01T09:48:32.999Z</time></trkpt><trkpt lat="43.4655995629498" lon="10.83481387569117"><ele>167.0</ele><time>2026-05-01T09:48:33.999Z</time></trkpt><trkpt lat="43.465505059582775" lon="10.834626701555425"><ele>166.0</ele><time>2026-05-01T09:48:34.999Z</time></trkpt><trkpt lat="43.465408955715915" lon="10.834437532171643"><ele>165.0</ele><time>2026-05-01T09:48:35.999Z</time></trkpt><trkpt lat="43.46531205070685" lon="10.83424282032655"><ele>164.0</ele><time>2026-05-01T09:48:36.999Z</time></trkpt><trkpt lat="43.46521856269669" lon="10.834051000395808"><ele>163.66666666666666</ele><time>2026-05-01T09:48:37.999Z</time></trkpt><trkpt lat="43.4651266503148" lon="10.833850906897625"><ele>163.33333333333334</ele><time>2026-05-01T09:48:38.999Z</time></trkpt><trkpt lat="43.46503454841914" lon="10.833648669270096"><ele>163.0</ele><time>2026-05-01T09:48:39.999Z</time></trkpt><trkpt lat="43.464941718916826" lon="10.833446001541672"><ele>162.0</ele><time>2026-05-01T09:48:40.999Z</time></trkpt><trkpt lat="43.46484787008779" lon="10.83324211299372"><ele>161.0</ele><time>2026-05-01T09:48:41.999Z</time></trkpt><trkpt lat="43.464743257063915" lon="10.833047333981572"><ele>160.0</ele><time>2026-05-01T09:48:42.999Z</time></trkpt><trkpt lat="43.464620022645065" lon="10.832873621618603"><ele>159.0</ele><time>2026-05-01T09:48:43.999Z</time></trkpt><trkpt lat="43.464486333496374" lon="10.832728176049976"><ele>158.0</ele><time>2026-05-01T09:48:44.999Z</time></trkpt><trkpt lat="43.46434067605354" lon="10.832600549959437"><ele>157.0</ele><time>2026-05-01T09:48:45.999Z</time></trkpt><trkpt lat="43.4641876314236" lon="10.832501634515522"><ele>157.0</ele><time>2026-05-01T09:48:46.999Z</time></trkpt><trkpt lat="43.46402892087643" lon="10.832428578684713"><ele>157.0</ele><time>2026-05-01T09:48:47.999Z</time></trkpt><trkpt lat="43.46386129088971" lon="10.832372107400998"><ele>157.0</ele><time>2026-05-01T09:48:48.999Z</time></trkpt><trkpt lat="43.46369675839796" lon="10.832336864616074"><ele>154.0</ele><time>2026-05-01T09:48:49.999Z</time></trkpt><trkpt lat="43.46353087762252" lon="10.832310371974938"><ele>151.0</ele><time>2026-05-01T09:48:50.999Z</time></trkpt><trkpt lat="43.463365468143614" lon="10.832275277471284"><ele>148.0</ele><time>2026-05-01T09:48:51.999Z</time></trkpt><trkpt lat="43.4632001945503" lon="10.832226746131605"><ele>148.0</ele><time>2026-05-01T09:48:52.999Z</time></trkpt><trkpt lat="43.463033103859374" lon="10.832180998795089"><ele>148.0</ele><time>2026-05-01T09:48:53.999Z</time></trkpt><trkpt lat="43.46286398249072" lon="10.83214067138528"><ele>148.0</ele><time>2026-05-01T09:48:54.999Z</time></trkpt><trkpt lat="43.462693558086194" lon="10.83209402605231"><ele>143.33333333333334</ele><time>2026-05-01T09:48:55.999Z</time></trkpt><trkpt lat="43.46252866931894" lon="10.832005986752797"><ele>138.66666666666666</ele><time>2026-05-01T09:48:56.999Z</time></trkpt><trkpt lat="43.46235822596072" lon="10.831954615046866"><ele>134.0</ele><time>2026-05-01T09:48:57.999Z</time></trkpt><trkpt lat="43.46219212336993" lon="10.831877358457264"><ele>133.33333333333331</ele><time>2026-05-01T09:48:58.999Z</time></trkpt><trkpt lat="43.46202526263077" lon="10.831802544559785"><ele>132.66666666666666</ele><time>2026-05-01T09:48:59.999Z</time></trkpt><trkpt lat="43.461859271687025" lon="10.831730812273248"><ele>132.0</ele><time>2026-05-01T09:49:00.999Z</time></trkpt><trkpt lat="43.46169149915473" lon="10.83165681533027"><ele>132.0</ele><time>2026-05-01T09:49:01.999Z</time></trkpt><trkpt lat="43.461523383869526" lon="10.83158093209457"><ele>132.0</ele><time>2026-05-01T09:49:02.999Z</time></trkpt><trkpt lat="43.46135549113759" lon="10.831507177665273"><ele>132.0</ele><time>2026-05-01T09:49:03.999Z</time></trkpt><trkpt lat="43.461191655186795" lon="10.831434927773845"><ele>132.0</ele><time>2026-05-01T09:49:04.999Z</time></trkpt><trkpt lat="43.461027769609096" lon="10.831361452623188"><ele>132.0</ele><time>2026-05-01T09:49:05.999Z</time></trkpt><trkpt lat="43.46086330768564" lon="10.8312875575197"><ele>132.0</ele><time>2026-05-01T09:49:06.999Z</time></trkpt><trkpt lat="43.46069854247536" lon="10.831213662129931"><ele>132.0</ele><time>2026-05-01T09:49:07.999Z</time></trkpt><trkpt lat="43.46053346488171" lon="10.831142593849686"><ele>132.0</ele><time>2026-05-01T09:49:08.999Z</time></trkpt><trkpt lat="43.46036935760916" lon="10.831072772226117"><ele>132.0</ele><time>2026-05-01T09:49:09.999Z</time></trkpt><trkpt lat="43.46020859711012" lon="10.831005736837279"><ele>127.66666666666666</ele><time>2026-05-01T09:49:10.999Z</time></trkpt><trkpt lat="43.46004538102883" lon="10.830934661570497"><ele>123.33333333333333</ele><time>2026-05-01T09:49:11.999Z</time></trkpt><trkpt lat="43.459883025604285" lon="10.83086425665695"><ele>119.0</ele><time>2026-05-01T09:49:12.999Z</time></trkpt><trkpt lat="43.45972468816881" lon="10.830796068677506"><ele>116.33333333333333</ele><time>2026-05-01T09:49:13.999Z</time></trkpt><trkpt lat="43.45956269707526" lon="10.830724949331785"><ele>113.66666666666666</ele><time>2026-05-01T09:49:14.999Z</time></trkpt><trkpt lat="43.45940521915093" lon="10.830654728872101"><ele>111.0</ele><time>2026-05-01T09:49:15.999Z</time></trkpt><trkpt lat="43.45924314514578" lon="10.830584961144783"><ele>111.0</ele><time>2026-05-01T09:49:16.999Z</time></trkpt><trkpt lat="43.459082366969625" lon="10.83051284010738"><ele>111.0</ele><time>2026-05-01T09:49:17.999Z</time></trkpt><trkpt lat="43.458921872266146" lon="10.830443050059817"><ele>111.0</ele><time>2026-05-01T09:49:18.999Z</time></trkpt><trkpt lat="43.45876200364766" lon="10.830374829694245"><ele>107.66666666666666</ele><time>2026-05-01T09:49:19.999Z</time></trkpt><trkpt lat="43.458602592172134" lon="10.830304207660545"><ele>104.33333333333333</ele><time>2026-05-01T09:49:20.999Z</time></trkpt><trkpt lat="43.45843730260308" lon="10.830230456524127"><ele>101.0</ele><time>2026-05-01T09:49:21.999Z</time></trkpt><trkpt lat="43.458273527000216" lon="10.83015966508197"><ele>101.0</ele><time>2026-05-01T09:49:22.999Z</time></trkpt><trkpt lat="43.458108435282774" lon="10.830090134891108"><ele>101.0</ele><time>2026-05-01T09:49:23.999Z</time></trkpt><trkpt lat="43.45794421108223" lon="10.830019873506226"><ele>101.0</ele><time>2026-05-01T09:49:24.999Z</time></trkpt><trkpt lat="43.45777895949685" lon="10.82994957406414"><ele>101.0</ele><time>2026-05-01T09:49:25.999Z</time></trkpt><trkpt lat="43.45761632410679" lon="10.829882158700464"><ele>101.0</ele><time>2026-05-01T09:49:26.999Z</time></trkpt><trkpt lat="43.45745476107017" lon="10.829819478101218"><ele>101.0</ele><time>2026-05-01T09:49:27.999Z</time></trkpt><trkpt lat="43.45729536256456" lon="10.829769474184294"><ele>101.0</ele><time>2026-05-01T09:49:28.999Z</time></trkpt><trkpt lat="43.45714605014924" lon="10.829734832118596"><ele>101.0</ele><time>2026-05-01T09:49:29.999Z</time></trkpt><trkpt lat="43.457002860502584" lon="10.829715594892518"><ele>101.0</ele><time>2026-05-01T09:49:30.999Z</time></trkpt><trkpt lat="43.456867674662334" lon="10.8297111596354"><ele>101.0</ele><time>2026-05-01T09:49:31.999Z</time></trkpt><trkpt lat="43.45673560239505" lon="10.829717238562544"><ele>100.75</ele><time>2026-05-01T09:49:32.999Z</time></trkpt><trkpt lat="43.45660366416051" lon="10.829731508019936"><ele>100.5</ele><time>2026-05-01T09:49:33.999Z</time></trkpt><trkpt lat="43.45647031172055" lon="10.82975419284362"><ele>100.25</ele><time>2026-05-01T09:49:34.999Z</time></trkpt><trkpt lat="43.45633649098728" lon="10.829783798166961"><ele>100.0</ele><time>2026-05-01T09:49:35.999Z</time></trkpt><trkpt lat="43.45621194624429" lon="10.829818934006246"><ele>100.33333333333334</ele><time>2026-05-01T09:49:36.999Z</time></trkpt><trkpt lat="43.456117082052046" lon="10.829851532597953"><ele>100.66666666666667</ele><time>2026-05-01T09:49:37.999Z</time></trkpt><trkpt lat="43.456022807801325" lon="10.829888887541658"><ele>101.0</ele><time>2026-05-01T09:49:39.999Z</time></trkpt><trkpt lat="43.4559597938381" lon="10.829921536754801"><ele>101.33333333333334</ele><time>2026-05-01T09:49:42Z</time></trkpt><trkpt lat="43.4558871024643" lon="10.829954428590488"><ele>101.66666666666667</ele><time>2026-05-01T09:49:44Z</time></trkpt><trkpt lat="43.45581847389313" lon="10.82998107991393"><ele>102.0</ele><time>2026-05-01T09:49:45Z</time></trkpt><trkpt lat="43.45574227664626" lon="10.830014774781588"><ele>102.0</ele><time>2026-05-01T09:49:46Z</time></trkpt><trkpt lat="43.45566059679408" lon="10.8300500913162"><ele>102.0</ele><time>2026-05-01T09:49:47Z</time></trkpt><trkpt lat="43.455569741819616" lon="10.830092720039541"><ele>102.0</ele><time>2026-05-01T09:49:48Z</time></trkpt><trkpt lat="43.45546789359033" lon="10.830139330369507"><ele>102.0</ele><time>2026-05-01T09:49:49Z</time></trkpt><trkpt lat="43.455356127992516" lon="10.830186480336986"><ele>102.0</ele><time>2026-05-01T09:49:50Z</time></trkpt><trkpt lat="43.45524136202834" lon="10.830232111228574"><ele>102.0</ele><time>2026-05-01T09:49:51Z</time></trkpt><trkpt lat="43.455123265513514" lon="10.83027932635824"><ele>102.0</ele><time>2026-05-01T09:49:52Z</time></trkpt><trkpt lat="43.45500287309787" lon="10.830326435584606"><ele>102.0</ele><time>2026-05-01T09:49:53Z</time></trkpt><trkpt lat="43.45488397338509" lon="10.830369931448283"><ele>102.0</ele><time>2026-05-01T09:49:54Z</time></trkpt><trkpt lat="43.45476754279145" lon="10.830408050248693"><ele>102.0</ele><time>2026-05-01T09:49:55Z</time></trkpt><trkpt lat="43.45465542742788" lon="10.830442222300187"><ele>102.0</ele><time>2026-05-01T09:49:56Z</time></trkpt><trkpt lat="43.45454505160697" lon="10.830465771328551"><ele>102.0</ele><time>2026-05-01T09:49:57Z</time></trkpt><trkpt lat="43.45443433846343" lon="10.830471551692442"><ele>102.0</ele><time>2026-05-01T09:49:58Z</time></trkpt><trkpt lat="43.45433716109534" lon="10.830447037365438"><ele>102.0</ele><time>2026-05-01T09:49:59Z</time></trkpt><trkpt lat="43.45425552931174" lon="10.830389912732075"><ele>102.5</ele><time>2026-05-01T09:50:00Z</time></trkpt><trkpt lat="43.45420706831962" lon="10.830292083429343"><ele>103.0</ele><time>2026-05-01T09:50:01Z</time></trkpt><trkpt lat="43.45417144147453" lon="10.83021757238952"><ele>103.5</ele><time>2026-05-01T09:50:02Z</time></trkpt><trkpt lat="43.45410113545892" lon="10.830139950069157"><ele>104.0</ele><time>2026-05-01T09:50:04Z</time></trkpt><trkpt lat="43.45392828231117" lon="10.830373442249375"><ele>104.0</ele><time>2026-05-01T09:50:05Z</time></trkpt><trkpt lat="43.45387194619371" lon="10.830476557541681"><ele>104.0</ele><time>2026-05-01T09:50:06Z</time></trkpt><trkpt lat="43.4538111556987" lon="10.830587934064578"><ele>104.0</ele><time>2026-05-01T09:50:07Z</time></trkpt><trkpt lat="43.453751546965556" lon="10.830711311176076"><ele>104.0</ele><time>2026-05-01T09:50:08Z</time></trkpt><trkpt lat="43.45368763370627" lon="10.83084250399203"><ele>104.0</ele><time>2026-05-01T09:50:09Z</time></trkpt><trkpt lat="43.45362089749597" lon="10.830976904558304"><ele>105.25</ele><time>2026-05-01T09:50:10Z</time></trkpt><trkpt lat="43.45355146401249" lon="10.831113760019193"><ele>106.5</ele><time>2026-05-01T09:50:11Z</time></trkpt><trkpt lat="43.453480663204566" lon="10.831255958102604"><ele>107.75</ele><time>2026-05-01T09:50:12Z</time></trkpt><trkpt lat="43.45341175812098" lon="10.83140026989734"><ele>109.0</ele><time>2026-05-01T09:50:13Z</time></trkpt><trkpt lat="43.45334672022338" lon="10.83153787081079"><ele>109.0</ele><time>2026-05-01T09:50:14Z</time></trkpt><trkpt lat="43.45326437285619" lon="10.831671485859072"><ele>109.0</ele><time>2026-05-01T09:50:15Z</time></trkpt><trkpt lat="43.4531939186028" lon="10.831828000507024"><ele>109.0</ele><time>2026-05-01T09:50:16Z</time></trkpt><trkpt lat="43.45313212691621" lon="10.831993102848674"><ele>109.0</ele><time>2026-05-01T09:50:17Z</time></trkpt><trkpt lat="43.45307740019696" lon="10.832164481524034"><ele>108.25</ele><time>2026-05-01T09:50:18Z</time></trkpt><trkpt lat="43.45302557699942" lon="10.83233771053677"><ele>107.5</ele><time>2026-05-01T09:50:19Z</time></trkpt><trkpt lat="43.452989760429226" lon="10.832516608651618"><ele>106.75</ele><time>2026-05-01T09:50:20Z</time></trkpt><trkpt lat="43.452935133864344" lon="10.832686974888839"><ele>106.0</ele><time>2026-05-01T09:50:21Z</time></trkpt><trkpt lat="43.45287902614793" lon="10.83285437593726"><ele>108.75</ele><time>2026-05-01T09:50:22Z</time></trkpt><trkpt lat="43.45279433831729" lon="10.83299686677248"><ele>111.5</ele><time>2026-05-01T09:50:23Z</time></trkpt><trkpt lat="43.45271536233323" lon="10.833145148513555"><ele>114.25</ele><time>2026-05-01T09:50:24Z</time></trkpt><trkpt lat="43.452596122283175" lon="10.83324570932344"><ele>117.0</ele><time>2026-05-01T09:50:25Z</time></trkpt><trkpt lat="43.452476980400085" lon="10.83334269928275"><ele>117.0</ele><time>2026-05-01T09:50:26Z</time></trkpt><trkpt lat="43.45235392807597" lon="10.833431625440323"><ele>117.0</ele><time>2026-05-01T09:50:27Z</time></trkpt><trkpt lat="43.4522284023834" lon="10.833518672223056"><ele>117.0</ele><time>2026-05-01T09:50:28Z</time></trkpt><trkpt lat="43.45210968535493" lon="10.8336220340201"><ele>117.0</ele><time>2026-05-01T09:50:29Z</time></trkpt><trkpt lat="43.451979824526305" lon="10.833701048065791"><ele>117.0</ele><time>2026-05-01T09:50:29.999Z</time></trkpt><trkpt lat="43.45185531222731" lon="10.833787576923772"><ele>117.0</ele><time>2026-05-01T09:50:30.999Z</time></trkpt><trkpt lat="43.45173699345238" lon="10.833880031949565"><ele>117.0</ele><time>2026-05-01T09:50:31.999Z</time></trkpt><trkpt lat="43.451623190932715" lon="10.833986354393021"><ele>117.0</ele><time>2026-05-01T09:50:32.999Z</time></trkpt><trkpt lat="43.451506973788646" lon="10.834093385537361"><ele>117.0</ele><time>2026-05-01T09:50:33.999Z</time></trkpt><trkpt lat="43.4514191512592" lon="10.834239035765332"><ele>117.0</ele><time>2026-05-01T09:50:34.999Z</time></trkpt><trkpt lat="43.45130413617163" lon="10.834346311096079"><ele>117.0</ele><time>2026-05-01T09:50:35.999Z</time></trkpt><trkpt lat="43.45119820232818" lon="10.834478251443539"><ele>117.0</ele><time>2026-05-01T09:50:36.999Z</time></trkpt><trkpt lat="43.4510978477342" lon="10.834617192569553"><ele>117.0</ele><time>2026-05-01T09:50:37.999Z</time></trkpt><trkpt lat="43.45100452701316" lon="10.834771638273983"><ele>117.0</ele><time>2026-05-01T09:50:38.999Z</time></trkpt><trkpt lat="43.450926738078806" lon="10.834933305258504"><ele>117.0</ele><time>2026-05-01T09:50:39.999Z</time></trkpt><trkpt lat="43.45084407905633" lon="10.835095201134964"><ele>117.0</ele><time>2026-05-01T09:50:40.999Z</time></trkpt><trkpt lat="43.45075941558942" lon="10.835251708130658"><ele>117.0</ele><time>2026-05-01T09:50:41.999Z</time></trkpt><trkpt lat="43.45067170776839" lon="10.835401881641987"><ele>117.0</ele><time>2026-05-01T09:50:42.999Z</time></trkpt><trkpt lat="43.45058053540491" lon="10.835552804573666"><ele>117.0</ele><time>2026-05-01T09:50:43.999Z</time></trkpt><trkpt lat="43.45049074547784" lon="10.835700309354777"><ele>117.0</ele><time>2026-05-01T09:50:44.999Z</time></trkpt><trkpt lat="43.4503992719635" lon="10.835843741265117"><ele>120.5</ele><time>2026-05-01T09:50:45.999Z</time></trkpt><trkpt lat="43.45030177290951" lon="10.835982637064461"><ele>124.0</ele><time>2026-05-01T09:50:46.999Z</time></trkpt><trkpt lat="43.45020289954491" lon="10.8361196661942"><ele>127.5</ele><time>2026-05-01T09:50:47.999Z</time></trkpt><trkpt lat="43.45009942813631" lon="10.83625597229076"><ele>131.0</ele><time>2026-05-01T09:50:48.999Z</time></trkpt><trkpt lat="43.449994732890715" lon="10.836393790674965"><ele>131.0</ele><time>2026-05-01T09:50:49.999Z</time></trkpt><trkpt lat="43.44989078699885" lon="10.836532288866172"><ele>131.0</ele><time>2026-05-01T09:50:50.999Z</time></trkpt><trkpt lat="43.449793029898835" lon="10.83668989852375"><ele>131.0</ele><time>2026-05-01T09:50:51.999Z</time></trkpt><trkpt lat="43.44970969178898" lon="10.836860481805777"><ele>131.0</ele><time>2026-05-01T09:50:52.999Z</time></trkpt><trkpt lat="43.44963758306747" lon="10.837036337706069"><ele>135.5</ele><time>2026-05-01T09:50:53.999Z</time></trkpt><trkpt lat="43.449569643552344" lon="10.837215831710791"><ele>140.0</ele><time>2026-05-01T09:50:54.999Z</time></trkpt><trkpt lat="43.449508649890724" lon="10.837400840889195"><ele>144.5</ele><time>2026-05-01T09:50:55.999Z</time></trkpt><trkpt lat="43.44946164083297" lon="10.837590262058988"><ele>149.0</ele><time>2026-05-01T09:50:56.999Z</time></trkpt><trkpt lat="43.44942089754679" lon="10.837772987685748"><ele>149.0</ele><time>2026-05-01T09:50:57.999Z</time></trkpt><trkpt lat="43.44937924135328" lon="10.83795755536483"><ele>149.0</ele><time>2026-05-01T09:50:58.999Z</time></trkpt><trkpt lat="43.44933916461656" lon="10.838144157069447"><ele>149.0</ele><time>2026-05-01T09:50:59.999Z</time></trkpt><trkpt lat="43.44930107987623" lon="10.838334165628455"><ele>149.0</ele><time>2026-05-01T09:51:00.999Z</time></trkpt><trkpt lat="43.449264860841126" lon="10.838522700917839"><ele>148.0</ele><time>2026-05-01T09:51:01.999Z</time></trkpt><trkpt lat="43.44922897001279" lon="10.838713725954978"><ele>147.0</ele><time>2026-05-01T09:51:02.999Z</time></trkpt><trkpt lat="43.449198256261354" lon="10.838911169249547"><ele>146.0</ele><time>2026-05-01T09:51:03.999Z</time></trkpt><trkpt lat="43.44917109767231" lon="10.839103111077227"><ele>145.0</ele><time>2026-05-01T09:51:04.999Z</time></trkpt><trkpt lat="43.44913053191462" lon="10.8392873445646"><ele>143.75</ele><time>2026-05-01T09:51:05.999Z</time></trkpt><trkpt lat="43.44908242967782" lon="10.839465252676392"><ele>142.5</ele><time>2026-05-01T09:51:06.999Z</time></trkpt><trkpt lat="43.44902805182346" lon="10.839644416649161"><ele>141.25</ele><time>2026-05-01T09:51:07.999Z</time></trkpt><trkpt lat="43.4489773814292" lon="10.839822369691664"><ele>140.0</ele><time>2026-05-01T09:51:08.999Z</time></trkpt><trkpt lat="43.448931337228906" lon="10.839989219358346"><ele>139.0</ele><time>2026-05-01T09:51:09.999Z</time></trkpt><trkpt lat="43.44890023967122" lon="10.840156298760478"><ele>138.0</ele><time>2026-05-01T09:51:10.999Z</time></trkpt><trkpt lat="43.44887530745106" lon="10.840307210420747"><ele>137.0</ele><time>2026-05-01T09:51:11.999Z</time></trkpt><trkpt lat="43.44884490696853" lon="10.84043059219584"><ele>136.0</ele><time>2026-05-01T09:51:12.999Z</time></trkpt><trkpt lat="43.44879788969509" lon="10.840506364548656"><ele>135.0</ele><time>2026-05-01T09:51:13.999Z</time></trkpt><trkpt lat="43.44868863038211" lon="10.840461602409595"><ele>138.6</ele><time>2026-05-01T09:51:15.999Z</time></trkpt><trkpt lat="43.44866849398398" lon="10.840337436058157"><ele>142.2</ele><time>2026-05-01T09:51:16.999Z</time></trkpt><trkpt lat="43.4486880136615" lon="10.8401975171227"><ele>145.8</ele><time>2026-05-01T09:51:17.999Z</time></trkpt><trkpt lat="43.448716251943104" lon="10.840043822836375"><ele>149.4</ele><time>2026-05-01T09:51:18.999Z</time></trkpt><trkpt lat="43.44873461190344" lon="10.83987766675212"><ele>153.0</ele><time>2026-05-01T09:51:19.999Z</time></trkpt><trkpt lat="43.44874883316954" lon="10.839706345074267"><ele>151.0</ele><time>2026-05-01T09:51:20.999Z</time></trkpt><trkpt lat="43.44876472401666" lon="10.839529724681036"><ele>149.0</ele><time>2026-05-01T09:51:21.999Z</time></trkpt><trkpt lat="43.44878378074375" lon="10.83934484995962"><ele>147.0</ele><time>2026-05-01T09:51:22.999Z</time></trkpt><trkpt lat="43.44880418198047" lon="10.8391640156035"><ele>145.0</ele><time>2026-05-01T09:51:23.999Z</time></trkpt><trkpt lat="43.44882175223447" lon="10.838986624843796"><ele>145.0</ele><time>2026-05-01T09:51:24.999Z</time></trkpt><trkpt lat="43.448836576422806" lon="10.83880980761845"><ele>145.0</ele><time>2026-05-01T09:51:25.999Z</time></trkpt><trkpt lat="43.44884600454234" lon="10.838641671524872"><ele>145.0</ele><time>2026-05-01T09:51:26.999Z</time></trkpt><trkpt lat="43.44885224188101" lon="10.838475434234603"><ele>145.0</ele><time>2026-05-01T09:51:27.999Z</time></trkpt><trkpt lat="43.44885661102196" lon="10.838311507926287"><ele>146.0</ele><time>2026-05-01T09:51:28.999Z</time></trkpt><trkpt lat="43.448863537189126" lon="10.838147875158054"><ele>147.0</ele><time>2026-05-01T09:51:29.999Z</time></trkpt><trkpt lat="43.44888483276249" lon="10.837983088021563"><ele>148.0</ele><time>2026-05-01T09:51:30.999Z</time></trkpt><trkpt lat="43.44892939491931" lon="10.83782436546504"><ele>149.0</ele><time>2026-05-01T09:51:31.999Z</time></trkpt><trkpt lat="43.44898268085537" lon="10.837665013145887"><ele>150.75</ele><time>2026-05-01T09:51:32.999Z</time></trkpt><trkpt lat="43.449020039109975" lon="10.837498632192547"><ele>152.5</ele><time>2026-05-01T09:51:33.999Z</time></trkpt><trkpt lat="43.449038798332374" lon="10.837327696910792"><ele>154.25</ele><time>2026-05-01T09:51:34.999Z</time></trkpt><trkpt lat="43.449044569187585" lon="10.837172393022735"><ele>156.0</ele><time>2026-05-01T09:51:35.999Z</time></trkpt><trkpt lat="43.449028374518406" lon="10.837032070580065"><ele>156.0</ele><time>2026-05-01T09:51:36.999Z</time></trkpt><trkpt lat="43.44897239466273" lon="10.836919599160217"><ele>156.0</ele><time>2026-05-01T09:51:37.999Z</time></trkpt><trkpt lat="43.44888373943195" lon="10.836878657102101"><ele>156.0</ele><time>2026-05-01T09:51:38.999Z</time></trkpt><trkpt lat="43.448797845998804" lon="10.83689056646907"><ele>156.0</ele><time>2026-05-01T09:51:39.999Z</time></trkpt><trkpt lat="43.448750213388955" lon="10.837019930205665"><ele>156.0</ele><time>2026-05-01T09:51:40.999Z</time></trkpt><trkpt lat="43.44869831178235" lon="10.83713988765989"><ele>160.6</ele><time>2026-05-01T09:51:41.999Z</time></trkpt><trkpt lat="43.44865799196353" lon="10.837274154225822"><ele>165.2</ele><time>2026-05-01T09:51:42.999Z</time></trkpt><trkpt lat="43.44861829321055" lon="10.8374135595827"><ele>169.79999999999998</ele><time>2026-05-01T09:51:43.999Z</time></trkpt><trkpt lat="43.448578071279734" lon="10.837554783049528"><ele>174.39999999999998</ele><time>2026-05-01T09:51:44.999Z</time></trkpt><trkpt lat="43.44854808225476" lon="10.837708631898682"><ele>179.0</ele><time>2026-05-01T09:51:45.999Z</time></trkpt><trkpt lat="43.44848535018697" lon="10.837854244446797"><ele>179.0</ele><time>2026-05-01T09:51:46.999Z</time></trkpt><trkpt lat="43.44843663575255" lon="10.83801298022824"><ele>179.0</ele><time>2026-05-01T09:51:48Z</time></trkpt><trkpt lat="43.448401656180195" lon="10.838176948472436"><ele>179.0</ele><time>2026-05-01T09:51:49Z</time></trkpt><trkpt lat="43.448378956772075" lon="10.838346246456593"><ele>179.0</ele><time>2026-05-01T09:51:50Z</time></trkpt><trkpt lat="43.44833874065489" lon="10.838508365477997"><ele>177.75</ele><time>2026-05-01T09:51:51Z</time></trkpt><trkpt lat="43.44828319341548" lon="10.838656705854518"><ele>176.5</ele><time>2026-05-01T09:51:52Z</time></trkpt><trkpt lat="43.448225822350146" lon="10.838802897366216"><ele>175.25</ele><time>2026-05-01T09:51:53Z</time></trkpt><trkpt lat="43.4481609795959" lon="10.838945469199825"><ele>174.0</ele><time>2026-05-01T09:51:54Z</time></trkpt><trkpt lat="43.4481080061439" lon="10.839098672027962"><ele>174.0</ele><time>2026-05-01T09:51:55Z</time></trkpt><trkpt lat="43.44804187221838" lon="10.839238379652329"><ele>174.0</ele><time>2026-05-01T09:51:56Z</time></trkpt><trkpt lat="43.44798641958234" lon="10.839380743580737"><ele>174.0</ele><time>2026-05-01T09:51:57Z</time></trkpt><trkpt lat="43.44793923621813" lon="10.839528629061295"><ele>174.0</ele><time>2026-05-01T09:51:58Z</time></trkpt><trkpt lat="43.44789666498022" lon="10.83967441161886"><ele>173.0</ele><time>2026-05-01T09:51:59Z</time></trkpt><trkpt lat="43.44785649737515" lon="10.839822724923254"><ele>172.0</ele><time>2026-05-01T09:52:00Z</time></trkpt><trkpt lat="43.4477867605321" lon="10.839954419934502"><ele>171.0</ele><time>2026-05-01T09:52:01Z</time></trkpt><trkpt lat="43.447716843300284" lon="10.840083595768714"><ele>170.0</ele><time>2026-05-01T09:52:02Z</time></trkpt><trkpt lat="43.44763134847539" lon="10.840198341932473"><ele>170.0</ele><time>2026-05-01T09:52:03Z</time></trkpt><trkpt lat="43.44753299347343" lon="10.840279646107005"><ele>170.0</ele><time>2026-05-01T09:52:04Z</time></trkpt><trkpt lat="43.4474307549912" lon="10.84034330134539"><ele>170.0</ele><time>2026-05-01T09:52:05Z</time></trkpt><trkpt lat="43.44731504225921" lon="10.840352670308931"><ele>170.0</ele><time>2026-05-01T09:52:06Z</time></trkpt><trkpt lat="43.447198119154" lon="10.840339413615252"><ele>173.5</ele><time>2026-05-01T09:52:07Z</time></trkpt><trkpt lat="43.447082170821446" lon="10.84032450967716"><ele>177.0</ele><time>2026-05-01T09:52:08Z</time></trkpt><trkpt lat="43.446967607307" lon="10.84033661999119"><ele>180.5</ele><time>2026-05-01T09:52:09Z</time></trkpt><trkpt lat="43.44685431041859" lon="10.840368536748418"><ele>184.0</ele><time>2026-05-01T09:52:10Z</time></trkpt><trkpt lat="43.446741934123224" lon="10.840428775480639"><ele>184.0</ele><time>2026-05-01T09:52:11Z</time></trkpt><trkpt lat="43.446635078967546" lon="10.840507124551406"><ele>184.0</ele><time>2026-05-01T09:52:12Z</time></trkpt><trkpt lat="43.446525132501485" lon="10.840598440528122"><ele>184.0</ele><time>2026-05-01T09:52:13Z</time></trkpt><trkpt lat="43.446415213489125" lon="10.840686791554608"><ele>184.0</ele><time>2026-05-01T09:52:14Z</time></trkpt><trkpt lat="43.446309456069265" lon="10.84078421206244"><ele>185.0</ele><time>2026-05-01T09:52:15Z</time></trkpt><trkpt lat="43.446203985949055" lon="10.840891426906255"><ele>186.0</ele><time>2026-05-01T09:52:16Z</time></trkpt><trkpt lat="43.44610249969502" lon="10.84101000319503"><ele>187.0</ele><time>2026-05-01T09:52:17Z</time></trkpt><trkpt lat="43.446011562799136" lon="10.84114308590807"><ele>188.0</ele><time>2026-05-01T09:52:18Z</time></trkpt><trkpt lat="43.4459341473096" lon="10.84128081452454"><ele>189.0</ele><time>2026-05-01T09:52:19Z</time></trkpt><trkpt lat="43.44584499558045" lon="10.841402403056698"><ele>190.0</ele><time>2026-05-01T09:52:20Z</time></trkpt><trkpt lat="43.4457554776472" lon="10.841526049308516"><ele>191.0</ele><time>2026-05-01T09:52:21Z</time></trkpt><trkpt lat="43.44562828003353" lon="10.841587696297749"><ele>192.0</ele><time>2026-05-01T09:52:22Z</time></trkpt><trkpt lat="43.44548838179561" lon="10.841604840470493"><ele>194.5</ele><time>2026-05-01T09:52:23Z</time></trkpt><trkpt lat="43.44537319692854" lon="10.841620339371483"><ele>197.0</ele><time>2026-05-01T09:52:24Z</time></trkpt><trkpt lat="43.44525834211391" lon="10.841699972234515"><ele>199.5</ele><time>2026-05-01T09:52:25Z</time></trkpt><trkpt lat="43.445169317950466" lon="10.84183256741375"><ele>202.0</ele><time>2026-05-01T09:52:26Z</time></trkpt><trkpt lat="43.44509418005088" lon="10.841987646444556"><ele>202.0</ele><time>2026-05-01T09:52:27Z</time></trkpt><trkpt lat="43.44499784409327" lon="10.842116768513925"><ele>202.0</ele><time>2026-05-01T09:52:28Z</time></trkpt><trkpt lat="43.44489546644207" lon="10.842231448229805"><ele>202.0</ele><time>2026-05-01T09:52:29Z</time></trkpt><trkpt lat="43.44477434620316" lon="10.84232056038443"><ele>202.0</ele><time>2026-05-01T09:52:30Z</time></trkpt><trkpt lat="43.444633661141424" lon="10.842331106091887"><ele>201.5</ele><time>2026-05-01T09:52:31Z</time></trkpt><trkpt lat="43.44448999588691" lon="10.842304972586579"><ele>201.0</ele><time>2026-05-01T09:52:32Z</time></trkpt><trkpt lat="43.44434383685413" lon="10.84227831017837"><ele>200.5</ele><time>2026-05-01T09:52:33Z</time></trkpt><trkpt lat="43.4441981354046" lon="10.842240181355788"><ele>200.0</ele><time>2026-05-01T09:52:33.999Z</time></trkpt><trkpt lat="43.44405417733688" lon="10.842204952282929"><ele>200.0</ele><time>2026-05-01T09:52:34.999Z</time></trkpt><trkpt lat="43.44391122863317" lon="10.842186644344272"><ele>200.0</ele><time>2026-05-01T09:52:35.999Z</time></trkpt><trkpt lat="43.4437653027747" lon="10.842202311499348"><ele>200.0</ele><time>2026-05-01T09:52:36.999Z</time></trkpt><trkpt lat="43.443634441215906" lon="10.84224955922851"><ele>200.0</ele><time>2026-05-01T09:52:37.999Z</time></trkpt><trkpt lat="43.443504237498715" lon="10.842300864981329"><ele>201.5</ele><time>2026-05-01T09:52:38.999Z</time></trkpt><trkpt lat="43.443370490489215" lon="10.842329264985189"><ele>203.0</ele><time>2026-05-01T09:52:39.999Z</time></trkpt><trkpt lat="43.44322863826574" lon="10.842337153385186"><ele>204.5</ele><time>2026-05-01T09:52:40.999Z</time></trkpt><trkpt lat="43.44308376135527" lon="10.842340904492165"><ele>206.0</ele><time>2026-05-01T09:52:41.999Z</time></trkpt><trkpt lat="43.44293703452735" lon="10.842357572974356"><ele>207.5</ele><time>2026-05-01T09:52:42.999Z</time></trkpt><trkpt lat="43.44279222717114" lon="10.842397471118177"><ele>209.0</ele><time>2026-05-01T09:52:43.999Z</time></trkpt><trkpt lat="43.44265096113025" lon="10.842449652379774"><ele>210.5</ele><time>2026-05-01T09:52:44.999Z</time></trkpt><trkpt lat="43.44250891569515" lon="10.842478176248562"><ele>212.0</ele><time>2026-05-01T09:52:45.999Z</time></trkpt><trkpt lat="43.442369172649094" lon="10.84252628214233"><ele>212.0</ele><time>2026-05-01T09:52:46.999Z</time></trkpt><trkpt lat="43.442233964265384" lon="10.842574684445522"><ele>212.0</ele><time>2026-05-01T09:52:47.999Z</time></trkpt><trkpt lat="43.44210737553215" lon="10.842654090244935"><ele>212.0</ele><time>2026-05-01T09:52:48.999Z</time></trkpt><trkpt lat="43.44198138153241" lon="10.842691557565578"><ele>212.0</ele><time>2026-05-01T09:52:49.999Z</time></trkpt><trkpt lat="43.4418629660401" lon="10.842752372299548"><ele>212.25</ele><time>2026-05-01T09:52:50.999Z</time></trkpt><trkpt lat="43.441748651764435" lon="10.84281309837831"><ele>212.5</ele><time>2026-05-01T09:52:51.999Z</time></trkpt><trkpt lat="43.441629662467136" lon="10.84286500082827"><ele>212.75</ele><time>2026-05-01T09:52:52.999Z</time></trkpt><trkpt lat="43.44150685408597" lon="10.842910075383049"><ele>213.0</ele><time>2026-05-01T09:52:53.999Z</time></trkpt><trkpt lat="43.44138358805702" lon="10.84297491172383"><ele>212.5</ele><time>2026-05-01T09:52:54.999Z</time></trkpt><trkpt lat="43.44124827434802" lon="10.842990080709901"><ele>212.0</ele><time>2026-05-01T09:52:55.999Z</time></trkpt><trkpt lat="43.4411137658296" lon="10.843015114139106"><ele>211.5</ele><time>2026-05-01T09:52:56.999Z</time></trkpt><trkpt lat="43.4409688885693" lon="10.843019287996048"><ele>211.0</ele><time>2026-05-01T09:52:57.999Z</time></trkpt><trkpt lat="43.44081252945206" lon="10.843013137289297"><ele>211.0</ele><time>2026-05-01T09:52:58.999Z</time></trkpt><trkpt lat="43.44065082248655" lon="10.842997609580356"><ele>211.0</ele><time>2026-05-01T09:52:59.999Z</time></trkpt><trkpt lat="43.4404870271146" lon="10.842988190201257"><ele>211.0</ele><time>2026-05-01T09:53:00.999Z</time></trkpt><trkpt lat="43.44031748460898" lon="10.84294592013581"><ele>213.33333333333331</ele><time>2026-05-01T09:53:01.999Z</time></trkpt><trkpt lat="43.44015220815113" lon="10.842873402596469"><ele>215.66666666666669</ele><time>2026-05-01T09:53:02.999Z</time></trkpt><trkpt lat="43.43997947258867" lon="10.842853769838717"><ele>218.0</ele><time>2026-05-01T09:53:03.999Z</time></trkpt><trkpt lat="43.439825574057856" lon="10.842833756029512"><ele>218.0</ele><time>2026-05-01T09:53:04.999Z</time></trkpt><trkpt lat="43.43969038501328" lon="10.84284675166632"><ele>218.0</ele><time>2026-05-01T09:53:05.999Z</time></trkpt><trkpt lat="43.439563102502966" lon="10.842897035458552"><ele>218.0</ele><time>2026-05-01T09:53:06.999Z</time></trkpt><trkpt lat="43.439440602369274" lon="10.842987155870704"><ele>218.0</ele><time>2026-05-01T09:53:07.999Z</time></trkpt><trkpt lat="43.439324252737684" lon="10.843119348280181"><ele>218.66666666666669</ele><time>2026-05-01T09:53:08.999Z</time></trkpt><trkpt lat="43.43921972548248" lon="10.843271281827622"><ele>219.33333333333331</ele><time>2026-05-01T09:53:09.999Z</time></trkpt><trkpt lat="43.43912993143716" lon="10.843435766964193"><ele>220.0</ele><time>2026-05-01T09:53:10.999Z</time></trkpt><trkpt lat="43.43903422973794" lon="10.84360293513278"><ele>220.0</ele><time>2026-05-01T09:53:11.999Z</time></trkpt><trkpt lat="43.438919770365615" lon="10.843747792087935"><ele>220.0</ele><time>2026-05-01T09:53:12.999Z</time></trkpt><trkpt lat="43.43881557502208" lon="10.843895349600334"><ele>220.0</ele><time>2026-05-01T09:53:13.999Z</time></trkpt><trkpt lat="43.438699285131186" lon="10.844013771963192"><ele>221.25</ele><time>2026-05-01T09:53:14.999Z</time></trkpt><trkpt lat="43.43857499677505" lon="10.84407861353639"><ele>222.5</ele><time>2026-05-01T09:53:15.999Z</time></trkpt><trkpt lat="43.43844066383564" lon="10.844087704911486"><ele>223.75</ele><time>2026-05-01T09:53:16.999Z</time></trkpt><trkpt lat="43.438302132820866" lon="10.844102745978118"><ele>225.0</ele><time>2026-05-01T09:53:17.999Z</time></trkpt><trkpt lat="43.438160881829084" lon="10.844116017104767"><ele>225.0</ele><time>2026-05-01T09:53:18.999Z</time></trkpt><trkpt lat="43.43802387050882" lon="10.84412662639355"><ele>225.0</ele><time>2026-05-01T09:53:19.999Z</time></trkpt><trkpt lat="43.43788073178351" lon="10.844134917899197"><ele>225.0</ele><time>2026-05-01T09:53:20.999Z</time></trkpt><trkpt lat="43.437741743384215" lon="10.844139993102983"><ele>225.0</ele><time>2026-05-01T09:53:21.999Z</time></trkpt><trkpt lat="43.43763568933731" lon="10.844005017547973"><ele>228.25</ele><time>2026-05-01T09:53:22.999Z</time></trkpt><trkpt lat="43.43753365712642" lon="10.843877233257235"><ele>231.5</ele><time>2026-05-01T09:53:23.999Z</time></trkpt><trkpt lat="43.43743257595468" lon="10.843776097725634"><ele>234.75</ele><time>2026-05-01T09:53:24.999Z</time></trkpt><trkpt lat="43.43732377428145" lon="10.843725798103502"><ele>238.0</ele><time>2026-05-01T09:53:25.999Z</time></trkpt><trkpt lat="43.437203282030715" lon="10.843761686192114"><ele>239.5</ele><time>2026-05-01T09:53:26.999Z</time></trkpt><trkpt lat="43.43709816818519" lon="10.84385794327439"><ele>241.0</ele><time>2026-05-01T09:53:27.999Z</time></trkpt><trkpt lat="43.43702627969535" lon="10.844024649116388"><ele>242.5</ele><time>2026-05-01T09:53:28.999Z</time></trkpt><trkpt lat="43.43695625843314" lon="10.844179802986572"><ele>244.0</ele><time>2026-05-01T09:53:29.999Z</time></trkpt><trkpt lat="43.43685282324247" lon="10.844286065603722"><ele>244.5</ele><time>2026-05-01T09:53:30.999Z</time></trkpt><trkpt lat="43.43674253634387" lon="10.844363717567036"><ele>245.0</ele><time>2026-05-01T09:53:31.999Z</time></trkpt><trkpt lat="43.43661620167191" lon="10.844410685963997"><ele>245.5</ele><time>2026-05-01T09:53:32.999Z</time></trkpt><trkpt lat="43.43649210385479" lon="10.844426094196951"><ele>246.0</ele><time>2026-05-01T09:53:33.999Z</time></trkpt><trkpt lat="43.436377541767506" lon="10.844419882467047"><ele>246.5</ele><time>2026-05-01T09:53:34.999Z</time></trkpt><trkpt lat="43.43625979752338" lon="10.844390933051274"><ele>247.0</ele><time>2026-05-01T09:53:35.999Z</time></trkpt><trkpt lat="43.436141489092655" lon="10.844349867157849"><ele>247.5</ele><time>2026-05-01T09:53:36.999Z</time></trkpt><trkpt lat="43.436020184040856" lon="10.844319331921758"><ele>248.0</ele><time>2026-05-01T09:53:37.999Z</time></trkpt><trkpt lat="43.435908065067494" lon="10.844269884518502"><ele>248.0</ele><time>2026-05-01T09:53:38.999Z</time></trkpt><trkpt lat="43.43579924494528" lon="10.844232292710167"><ele>248.0</ele><time>2026-05-01T09:53:39.999Z</time></trkpt><trkpt lat="43.43569957347936" lon="10.8441983369975"><ele>248.0</ele><time>2026-05-01T09:53:40.999Z</time></trkpt><trkpt lat="43.43560567405485" lon="10.844161357016684"><ele>248.0</ele><time>2026-05-01T09:53:41.999Z</time></trkpt><trkpt lat="43.435516552269604" lon="10.844125511583654"><ele>248.0</ele><time>2026-05-01T09:53:42.999Z</time></trkpt><trkpt lat="43.43541619451837" lon="10.844083229755496"><ele>249.25</ele><time>2026-05-01T09:53:43.999Z</time></trkpt><trkpt lat="43.43531560141423" lon="10.844029991412286"><ele>250.5</ele><time>2026-05-01T09:53:44.999Z</time></trkpt><trkpt lat="43.43521163375028" lon="10.843969529885243"><ele>251.75</ele><time>2026-05-01T09:53:45.999Z</time></trkpt><trkpt lat="43.43510877149829" lon="10.843898291676352"><ele>253.0</ele><time>2026-05-01T09:53:46.999Z</time></trkpt><trkpt lat="43.43501251176032" lon="10.843811787133045"><ele>253.0</ele><time>2026-05-01T09:53:47.999Z</time></trkpt><trkpt lat="43.43492479800532" lon="10.84371953551856"><ele>253.0</ele><time>2026-05-01T09:53:48.999Z</time></trkpt><trkpt lat="43.43483881678033" lon="10.843631680265132"><ele>253.0</ele><time>2026-05-01T09:53:49.999Z</time></trkpt><trkpt lat="43.43474872106238" lon="10.843555192603374"><ele>253.0</ele><time>2026-05-01T09:53:50.999Z</time></trkpt><trkpt lat="43.43465225650179" lon="10.843503152877883"><ele>253.0</ele><time>2026-05-01T09:53:51.999Z</time></trkpt><trkpt lat="43.434547651538345" lon="10.843475045111619"><ele>252.75</ele><time>2026-05-01T09:53:52.999Z</time></trkpt><trkpt lat="43.43443784753301" lon="10.843464341623733"><ele>252.5</ele><time>2026-05-01T09:53:54Z</time></trkpt><trkpt lat="43.43432536477595" lon="10.84345696910632"><ele>252.25</ele><time>2026-05-01T09:53:55Z</time></trkpt><trkpt lat="43.43420813213776" lon="10.843442385631331"><ele>252.0</ele><time>2026-05-01T09:53:56Z</time></trkpt><trkpt lat="43.43409307948703" lon="10.843423233053123"><ele>251.5</ele><time>2026-05-01T09:53:57Z</time></trkpt><trkpt lat="43.43397917407452" lon="10.843397519118843"><ele>251.0</ele><time>2026-05-01T09:53:58Z</time></trkpt><trkpt lat="43.43386693390322" lon="10.84337098019717"><ele>250.5</ele><time>2026-05-01T09:53:59Z</time></trkpt><trkpt lat="43.43375590079057" lon="10.843342572224037"><ele>250.0</ele><time>2026-05-01T09:54:00Z</time></trkpt><trkpt lat="43.433648285170094" lon="10.843281365980312"><ele>249.5</ele><time>2026-05-01T09:54:01Z</time></trkpt><trkpt lat="43.43353241995891" lon="10.843250750948874"><ele>249.0</ele><time>2026-05-01T09:54:02Z</time></trkpt><trkpt lat="43.43342175952458" lon="10.843195738616723"><ele>248.5</ele><time>2026-05-01T09:54:03Z</time></trkpt><trkpt lat="43.4332981709998" lon="10.843139263004849"><ele>248.0</ele><time>2026-05-01T09:54:04Z</time></trkpt><trkpt lat="43.43319855296424" lon="10.843091592051197"><ele>248.0</ele><time>2026-05-01T09:54:05Z</time></trkpt><trkpt lat="43.433091899768904" lon="10.843043976251314"><ele>248.0</ele><time>2026-05-01T09:54:06Z</time></trkpt><trkpt lat="43.43297897404479" lon="10.842999677379328"><ele>248.0</ele><time>2026-05-01T09:54:07Z</time></trkpt><trkpt lat="43.43287054972391" lon="10.842951907668922"><ele>248.0</ele><time>2026-05-01T09:54:08Z</time></trkpt><trkpt lat="43.43276026903909" lon="10.842910301463297"><ele>247.5</ele><time>2026-05-01T09:54:09Z</time></trkpt><trkpt lat="43.432648001039226" lon="10.84287962223665"><ele>247.0</ele><time>2026-05-01T09:54:10Z</time></trkpt><trkpt lat="43.4325341255455" lon="10.842869711636551"><ele>246.5</ele><time>2026-05-01T09:54:11Z</time></trkpt><trkpt lat="43.43241986457173" lon="10.842877914052206"><ele>246.0</ele><time>2026-05-01T09:54:12Z</time></trkpt><trkpt lat="43.432308056560686" lon="10.842898910498496"><ele>246.0</ele><time>2026-05-01T09:54:13Z</time></trkpt><trkpt lat="43.43219484816587" lon="10.842923560102092"><ele>246.00000000000003</ele><time>2026-05-01T09:54:14Z</time></trkpt><trkpt lat="43.43208760656273" lon="10.842963228396377"><ele>246.00000000000003</ele><time>2026-05-01T09:54:15Z</time></trkpt><trkpt lat="43.431984582440684" lon="10.84302364586181"><ele>246.0</ele><time>2026-05-01T09:54:16Z</time></trkpt><trkpt lat="43.43188494772182" lon="10.843093168257411"><ele>246.0</ele><time>2026-05-01T09:54:17Z</time></trkpt><trkpt lat="43.431787805433146" lon="10.843162862716056"><ele>247.8</ele><time>2026-05-01T09:54:18Z</time></trkpt><trkpt lat="43.43168941382575" lon="10.843228148036834"><ele>249.60000000000002</ele><time>2026-05-01T09:54:19Z</time></trkpt><trkpt lat="43.431592027204324" lon="10.843293001736656"><ele>251.4</ele><time>2026-05-01T09:54:20Z</time></trkpt><trkpt lat="43.43149479384003" lon="10.8433621157532"><ele>253.2</ele><time>2026-05-01T09:54:21Z</time></trkpt><trkpt lat="43.43139898691875" lon="10.843427053600776"><ele>255.0</ele><time>2026-05-01T09:54:22Z</time></trkpt><trkpt lat="43.43130439813256" lon="10.843488304599719"><ele>256.4</ele><time>2026-05-01T09:54:23Z</time></trkpt><trkpt lat="43.431209249103205" lon="10.843544459643967"><ele>257.8</ele><time>2026-05-01T09:54:24Z</time></trkpt><trkpt lat="43.431111292209145" lon="10.843592998337641"><ele>259.2</ele><time>2026-05-01T09:54:25Z</time></trkpt><trkpt lat="43.43101379873079" lon="10.843639023581627"><ele>260.6</ele><time>2026-05-01T09:54:26Z</time></trkpt><trkpt lat="43.43091424346994" lon="10.843672585280915"><ele>262.0</ele><time>2026-05-01T09:54:27Z</time></trkpt><trkpt lat="43.430817180589685" lon="10.843682533948677"><ele>262.0</ele><time>2026-05-01T09:54:28Z</time></trkpt><trkpt lat="43.43072741028881" lon="10.843674816309155"><ele>262.0</ele><time>2026-05-01T09:54:29Z</time></trkpt><trkpt lat="43.430639380571144" lon="10.843648314263326"><ele>262.0</ele><time>2026-05-01T09:54:30Z</time></trkpt><trkpt lat="43.43055817123456" lon="10.84360691400901"><ele>262.0</ele><time>2026-05-01T09:54:31Z</time></trkpt><trkpt lat="43.43048075665611" lon="10.843553919614934"><ele>262.0</ele><time>2026-05-01T09:54:32Z</time></trkpt><trkpt lat="43.43038144071856" lon="10.843486060774815"><ele>261.6</ele><time>2026-05-01T09:54:33Z</time></trkpt><trkpt lat="43.43029370444816" lon="10.843414574351868"><ele>261.2</ele><time>2026-05-01T09:54:34Z</time></trkpt><trkpt lat="43.43020578229057" lon="10.843343832010575"><ele>260.8</ele><time>2026-05-01T09:54:35Z</time></trkpt><trkpt lat="43.430121207468645" lon="10.843264874030579"><ele>260.4</ele><time>2026-05-01T09:54:36Z</time></trkpt><trkpt lat="43.43003668696518" lon="10.843182453736263"><ele>260.0</ele><time>2026-05-01T09:54:37Z</time></trkpt><trkpt lat="43.42996084488584" lon="10.84309267508707"><ele>260.0</ele><time>2026-05-01T09:54:38Z</time></trkpt><trkpt lat="43.42989273091293" lon="10.842981163385781"><ele>260.0</ele><time>2026-05-01T09:54:39Z</time></trkpt><trkpt lat="43.42983914674653" lon="10.842856815771917"><ele>260.0</ele><time>2026-05-01T09:54:40Z</time></trkpt><trkpt lat="43.42979536515941" lon="10.842728428611514"><ele>260.0</ele><time>2026-05-01T09:54:41Z</time></trkpt><trkpt lat="43.42975230808421" lon="10.842599318616593"><ele>260.0</ele><time>2026-05-01T09:54:42Z</time></trkpt><trkpt lat="43.42970407513518" lon="10.842478090745615"><ele>262.75</ele><time>2026-05-01T09:54:42.999Z</time></trkpt><trkpt lat="43.42964231290073" lon="10.842362685484524"><ele>265.5</ele><time>2026-05-01T09:54:43.999Z</time></trkpt><trkpt lat="43.42956849212489" lon="10.842245885925212"><ele>268.25</ele><time>2026-05-01T09:54:44.999Z</time></trkpt><trkpt lat="43.42948901601116" lon="10.842127779283317"><ele>271.0</ele><time>2026-05-01T09:54:45.999Z</time></trkpt><trkpt lat="43.429407318913434" lon="10.842013394484868"><ele>270.25</ele><time>2026-05-01T09:54:46.999Z</time></trkpt><trkpt lat="43.42932263136703" lon="10.84190482142193"><ele>269.5</ele><time>2026-05-01T09:54:47.999Z</time></trkpt><trkpt lat="43.42923800320101" lon="10.841797951133442"><ele>268.75</ele><time>2026-05-01T09:54:48.999Z</time></trkpt><trkpt lat="43.42915394390221" lon="10.841695618447504"><ele>268.0</ele><time>2026-05-01T09:54:49.999Z</time></trkpt><trkpt lat="43.429068996289956" lon="10.841593596666545"><ele>268.0</ele><time>2026-05-01T09:54:50.999Z</time></trkpt><trkpt lat="43.42898428718789" lon="10.841491774498573"><ele>268.0</ele><time>2026-05-01T09:54:51.999Z</time></trkpt><trkpt lat="43.42890418609815" lon="10.841384324072601"><ele>268.0</ele><time>2026-05-01T09:54:52.999Z</time></trkpt><trkpt lat="43.428830561475564" lon="10.841268625610168"><ele>268.0</ele><time>2026-05-01T09:54:53.999Z</time></trkpt><trkpt lat="43.42876093513269" lon="10.841143016274243"><ele>266.75</ele><time>2026-05-01T09:54:54.999Z</time></trkpt><trkpt lat="43.428697089525954" lon="10.841009951434081"><ele>265.5</ele><time>2026-05-01T09:54:55.999Z</time></trkpt><trkpt lat="43.42863781165501" lon="10.84087283444539"><ele>264.25</ele><time>2026-05-01T09:54:56.999Z</time></trkpt><trkpt lat="43.42857803051292" lon="10.840735612959985"><ele>263.0</ele><time>2026-05-01T09:54:57.999Z</time></trkpt><trkpt lat="43.42850894967192" lon="10.840608410817484"><ele>263.0</ele><time>2026-05-01T09:54:58.999Z</time></trkpt><trkpt lat="43.42842589495799" lon="10.840501455483887"><ele>263.0</ele><time>2026-05-01T09:54:59.999Z</time></trkpt><trkpt lat="43.428318514324054" lon="10.84044091320333"><ele>263.0</ele><time>2026-05-01T09:55:00.999Z</time></trkpt><trkpt lat="43.42820117512766" lon="10.840412127576341"><ele>263.0</ele><time>2026-05-01T09:55:01.999Z</time></trkpt><trkpt lat="43.428082502139105" lon="10.840399401448993"><ele>261.5</ele><time>2026-05-01T09:55:02.999Z</time></trkpt><trkpt lat="43.42796417699671" lon="10.840378581280245"><ele>260.0</ele><time>2026-05-01T09:55:03.999Z</time></trkpt><trkpt lat="43.42784506481014" lon="10.840347303376086"><ele>258.5</ele><time>2026-05-01T09:55:04.999Z</time></trkpt><trkpt lat="43.42772966280567" lon="10.840307420725305"><ele>257.0</ele><time>2026-05-01T09:55:05.999Z</time></trkpt><trkpt lat="43.427616301347804" lon="10.840260861982596"><ele>257.0</ele><time>2026-05-01T09:55:06.999Z</time></trkpt><trkpt lat="43.42750475707303" lon="10.840212027663807"><ele>257.0</ele><time>2026-05-01T09:55:07.999Z</time></trkpt><trkpt lat="43.427396311738455" lon="10.840166537753902"><ele>257.0</ele><time>2026-05-01T09:55:08.999Z</time></trkpt><trkpt lat="43.42729148696105" lon="10.840128099412873"><ele>257.0</ele><time>2026-05-01T09:55:09.999Z</time></trkpt><trkpt lat="43.42718500762141" lon="10.840114008103463"><ele>257.0</ele><time>2026-05-01T09:55:10.999Z</time></trkpt><trkpt lat="43.42708168876897" lon="10.840128214269413"><ele>257.8</ele><time>2026-05-01T09:55:11.999Z</time></trkpt><trkpt lat="43.42697848646131" lon="10.84018154699854"><ele>258.6</ele><time>2026-05-01T09:55:12.999Z</time></trkpt><trkpt lat="43.42688295803567" lon="10.84024964717841"><ele>259.40000000000003</ele><time>2026-05-01T09:55:13.999Z</time></trkpt><trkpt lat="43.426786535971424" lon="10.84032038883483"><ele>260.2</ele><time>2026-05-01T09:55:14.999Z</time></trkpt><trkpt lat="43.426688671635006" lon="10.840392475948686"><ele>261.0</ele><time>2026-05-01T09:55:15.999Z</time></trkpt><trkpt lat="43.42658724156471" lon="10.840461057425149"><ele>261.0</ele><time>2026-05-01T09:55:16.999Z</time></trkpt><trkpt lat="43.426476309039515" lon="10.840502512703413"><ele>261.0</ele><time>2026-05-01T09:55:17.999Z</time></trkpt><trkpt lat="43.42636952416668" lon="10.84056017377638"><ele>261.0</ele><time>2026-05-01T09:55:18.999Z</time></trkpt><trkpt lat="43.42626225761202" lon="10.840613366238555"><ele>261.0</ele><time>2026-05-01T09:55:19.999Z</time></trkpt><trkpt lat="43.42615541597054" lon="10.840666141032875"><ele>264.25</ele><time>2026-05-01T09:55:20.999Z</time></trkpt><trkpt lat="43.426049004285964" lon="10.840723127289214"><ele>267.5</ele><time>2026-05-01T09:55:21.999Z</time></trkpt><trkpt lat="43.42594318095065" lon="10.840782013812476"><ele>270.75</ele><time>2026-05-01T09:55:22.999Z</time></trkpt><trkpt lat="43.4258433390854" lon="10.840863328014358"><ele>274.0</ele><time>2026-05-01T09:55:23.999Z</time></trkpt><trkpt lat="43.42574581133766" lon="10.840942460660935"><ele>275.25</ele><time>2026-05-01T09:55:24.999Z</time></trkpt><trkpt lat="43.42565594315833" lon="10.841039218406637"><ele>276.5</ele><time>2026-05-01T09:55:25.999Z</time></trkpt><trkpt lat="43.42557912067448" lon="10.841148330728682"><ele>277.75</ele><time>2026-05-01T09:55:26.999Z</time></trkpt><trkpt lat="43.42550368584189" lon="10.841272102361561"><ele>279.0</ele><time>2026-05-01T09:55:27.999Z</time></trkpt><trkpt lat="43.42543506269111" lon="10.84139443269441"><ele>279.0</ele><time>2026-05-01T09:55:28.999Z</time></trkpt><trkpt lat="43.42535520458077" lon="10.84149438259649"><ele>279.0</ele><time>2026-05-01T09:55:29.999Z</time></trkpt><trkpt lat="43.42530295350374" lon="10.841617524922647"><ele>279.0</ele><time>2026-05-01T09:55:30.999Z</time></trkpt><trkpt lat="43.425223412053036" lon="10.841705671593644"><ele>279.0</ele><time>2026-05-01T09:55:31.999Z</time></trkpt><trkpt lat="43.42515598651641" lon="10.841801123391656"><ele>279.0</ele><time>2026-05-01T09:55:32.999Z</time></trkpt><trkpt lat="43.42506369527683" lon="10.841854672978647"><ele>279.0</ele><time>2026-05-01T09:55:33.999Z</time></trkpt><trkpt lat="43.424963187841946" lon="10.84183774230487"><ele>279.0</ele><time>2026-05-01T09:55:34.999Z</time></trkpt><trkpt lat="43.42487568284491" lon="10.841758310221122"><ele>279.0</ele><time>2026-05-01T09:55:35.999Z</time></trkpt><trkpt lat="43.42480114432726" lon="10.841651689906513"><ele>279.0</ele><time>2026-05-01T09:55:36.999Z</time></trkpt><trkpt lat="43.42472466219224" lon="10.841547906789799"><ele>279.0</ele><time>2026-05-01T09:55:37.999Z</time></trkpt><trkpt lat="43.42464445799185" lon="10.841438995985778"><ele>275.5</ele><time>2026-05-01T09:55:38.999Z</time></trkpt><trkpt lat="43.42456160909867" lon="10.841327332163342"><ele>272.0</ele><time>2026-05-01T09:55:39.999Z</time></trkpt><trkpt lat="43.42447500350663" lon="10.841210688252877"><ele>268.5</ele><time>2026-05-01T09:55:40.999Z</time></trkpt><trkpt lat="43.42438680966486" lon="10.841091004039065"><ele>265.0</ele><time>2026-05-01T09:55:41.999Z</time></trkpt><trkpt lat="43.42429620197352" lon="10.84096943315265"><ele>269.25</ele><time>2026-05-01T09:55:42.999Z</time></trkpt><trkpt lat="43.42419806671771" lon="10.840853498838959"><ele>273.5</ele><time>2026-05-01T09:55:43.999Z</time></trkpt><trkpt lat="43.424091147020135" lon="10.840759862870314"><ele>277.75</ele><time>2026-05-01T09:55:44.999Z</time></trkpt><trkpt lat="43.4239792246107" lon="10.840690383025079"><ele>282.0</ele><time>2026-05-01T09:55:45.999Z</time></trkpt><trkpt lat="43.42387385439942" lon="10.8406359114437"><ele>279.2</ele><time>2026-05-01T09:55:46.999Z</time></trkpt><trkpt lat="43.42378018954569" lon="10.840570767052279"><ele>276.4</ele><time>2026-05-01T09:55:47.999Z</time></trkpt><trkpt lat="43.423694585541746" lon="10.840485903309242"><ele>273.6</ele><time>2026-05-01T09:55:48.999Z</time></trkpt><trkpt lat="43.423610605098325" lon="10.840395293358302"><ele>270.8</ele><time>2026-05-01T09:55:49.999Z</time></trkpt><trkpt lat="43.42352526667105" lon="10.84029691962532"><ele>268.0</ele><time>2026-05-01T09:55:50.999Z</time></trkpt><trkpt lat="43.42343195123266" lon="10.8402221386442"><ele>268.0</ele><time>2026-05-01T09:55:51.999Z</time></trkpt><trkpt lat="43.4233278698684" lon="10.840152478846319"><ele>268.0</ele><time>2026-05-01T09:55:52.999Z</time></trkpt><trkpt lat="43.42321949440806" lon="10.840085665695396"><ele>268.0</ele><time>2026-05-01T09:55:53.999Z</time></trkpt><trkpt lat="43.42310931088937" lon="10.840028503665192"><ele>268.0</ele><time>2026-05-01T09:55:54.999Z</time></trkpt><trkpt lat="43.423000658452246" lon="10.839984185609408"><ele>270.6</ele><time>2026-05-01T09:55:55.999Z</time></trkpt><trkpt lat="43.42289404050678" lon="10.83994663115833"><ele>273.20000000000005</ele><time>2026-05-01T09:55:56.999Z</time></trkpt><trkpt lat="43.422788005063" lon="10.83991823269263"><ele>275.8</ele><time>2026-05-01T09:55:57.999Z</time></trkpt><trkpt lat="43.42268117157717" lon="10.839904677005393"><ele>278.40000000000003</ele><time>2026-05-01T09:55:58.999Z</time></trkpt><trkpt lat="43.42257538989826" lon="10.839894464423706"><ele>281.0</ele><time>2026-05-01T09:56:00Z</time></trkpt><trkpt lat="43.422472376173694" lon="10.839944698972937"><ele>281.0</ele><time>2026-05-01T09:56:01Z</time></trkpt><trkpt lat="43.42236139064725" lon="10.839953321991121"><ele>281.0</ele><time>2026-05-01T09:56:02Z</time></trkpt><trkpt lat="43.42225627474765" lon="10.839984848368532"><ele>281.0</ele><time>2026-05-01T09:56:03Z</time></trkpt><trkpt lat="43.422149898190945" lon="10.840015681509072"><ele>281.0</ele><time>2026-05-01T09:56:04Z</time></trkpt><trkpt lat="43.422044603118295" lon="10.840043299788956"><ele>281.0</ele><time>2026-05-01T09:56:05Z</time></trkpt><trkpt lat="43.42193744397102" lon="10.840072802106228"><ele>281.40000000000003</ele><time>2026-05-01T09:56:06Z</time></trkpt><trkpt lat="43.42183198940505" lon="10.840117101302859"><ele>281.8</ele><time>2026-05-01T09:56:07Z</time></trkpt><trkpt lat="43.42173977782706" lon="10.840193443460654"><ele>282.20000000000005</ele><time>2026-05-01T09:56:08Z</time></trkpt><trkpt lat="43.42165425972409" lon="10.840276230068461"><ele>282.6</ele><time>2026-05-01T09:56:09Z</time></trkpt><trkpt lat="43.42156429072468" lon="10.84035674511392"><ele>283.0</ele><time>2026-05-01T09:56:10Z</time></trkpt><trkpt lat="43.42148008565034" lon="10.840433844840973"><ele>281.0</ele><time>2026-05-01T09:56:11Z</time></trkpt><trkpt lat="43.42139541801291" lon="10.8405094498237"><ele>279.0</ele><time>2026-05-01T09:56:12Z</time></trkpt><trkpt lat="43.421311250738206" lon="10.840583666990542"><ele>277.0</ele><time>2026-05-01T09:56:13Z</time></trkpt><trkpt lat="43.42122519903286" lon="10.840664702272282"><ele>275.0</ele><time>2026-05-01T09:56:14Z</time></trkpt><trkpt lat="43.42114123558114" lon="10.840745091065232"><ele>273.0</ele><time>2026-05-01T09:56:15Z</time></trkpt><trkpt lat="43.421064093031106" lon="10.840836510684284"><ele>273.0</ele><time>2026-05-01T09:56:16Z</time></trkpt><trkpt lat="43.42099060990832" lon="10.8409412242937"><ele>273.0</ele><time>2026-05-01T09:56:17Z</time></trkpt><trkpt lat="43.42092296969469" lon="10.84105600590328"><ele>273.0</ele><time>2026-05-01T09:56:18Z</time></trkpt><trkpt lat="43.420856979946024" lon="10.841171059069142"><ele>273.0</ele><time>2026-05-01T09:56:19Z</time></trkpt><trkpt lat="43.42079094123521" lon="10.841284997601571"><ele>273.0</ele><time>2026-05-01T09:56:20Z</time></trkpt><trkpt lat="43.420722283050374" lon="10.841396880929368"><ele>274.0</ele><time>2026-05-01T09:56:21Z</time></trkpt><trkpt lat="43.42065177608073" lon="10.841503966255003"><ele>275.0</ele><time>2026-05-01T09:56:22Z</time></trkpt><trkpt lat="43.420583093183346" lon="10.841611873859623"><ele>276.0</ele><time>2026-05-01T09:56:23Z</time></trkpt><trkpt lat="43.420520354422585" lon="10.841719296368574"><ele>277.0</ele><time>2026-05-01T09:56:24Z</time></trkpt><trkpt lat="43.42046610603137" lon="10.84184173744384"><ele>278.0</ele><time>2026-05-01T09:56:25Z</time></trkpt><trkpt lat="43.42043476599861" lon="10.841990553775426"><ele>281.5</ele><time>2026-05-01T09:56:26Z</time></trkpt><trkpt lat="43.42042710972551" lon="10.842153093635492"><ele>285.0</ele><time>2026-05-01T09:56:27Z</time></trkpt><trkpt lat="43.420434226788814" lon="10.84232113799046"><ele>288.5</ele><time>2026-05-01T09:56:28Z</time></trkpt><trkpt lat="43.42045081725166" lon="10.84248853277853"><ele>292.0</ele><time>2026-05-01T09:56:29Z</time></trkpt><trkpt lat="43.420460966296645" lon="10.842659359438802"><ele>293.5</ele><time>2026-05-01T09:56:30Z</time></trkpt><trkpt lat="43.42046466096709" lon="10.842834745884206"><ele>295.0</ele><time>2026-05-01T09:56:31Z</time></trkpt><trkpt lat="43.42042590115019" lon="10.843005396523843"><ele>296.5</ele><time>2026-05-01T09:56:32Z</time></trkpt><trkpt lat="43.420407921959224" lon="10.843168614219906"><ele>298.0</ele><time>2026-05-01T09:56:33Z</time></trkpt><trkpt lat="43.4203790523457" lon="10.843310664550154"><ele>298.0</ele><time>2026-05-01T09:56:34Z</time></trkpt><trkpt lat="43.4203579903263" lon="10.843434386807312"><ele>298.0</ele><time>2026-05-01T09:56:35Z</time></trkpt><trkpt lat="43.42033143890236" lon="10.843533731081612"><ele>298.0</ele><time>2026-05-01T09:56:36Z</time></trkpt><trkpt lat="43.42027228961168" lon="10.843693276087397"><ele>298.0</ele><time>2026-05-01T09:56:38Z</time></trkpt><trkpt lat="43.4202242840114" lon="10.843775042898033"><ele>298.0</ele><time>2026-05-01T09:56:39Z</time></trkpt><trkpt lat="43.42016220301857" lon="10.843860556253635"><ele>296.4</ele><time>2026-05-01T09:56:40Z</time></trkpt><trkpt lat="43.420090893466295" lon="10.843939022695666"><ele>294.8</ele><time>2026-05-01T09:56:41Z</time></trkpt><trkpt lat="43.420002444032555" lon="10.843995342475608"><ele>293.2</ele><time>2026-05-01T09:56:42Z</time></trkpt><trkpt lat="43.419906233018864" lon="10.844045433439437"><ele>291.6</ele><time>2026-05-01T09:56:43Z</time></trkpt><trkpt lat="43.41980541783474" lon="10.844082928732805"><ele>290.0</ele><time>2026-05-01T09:56:44Z</time></trkpt><trkpt lat="43.41970583467376" lon="10.844118082207267"><ele>290.8</ele><time>2026-05-01T09:56:45Z</time></trkpt><trkpt lat="43.41961093000384" lon="10.844152491652483"><ele>291.6</ele><time>2026-05-01T09:56:46Z</time></trkpt><trkpt lat="43.41952433787394" lon="10.844222438449542"><ele>292.4</ele><time>2026-05-01T09:56:47Z</time></trkpt><trkpt lat="43.4194419409234" lon="10.844307569424016"><ele>293.2</ele><time>2026-05-01T09:56:48Z</time></trkpt><trkpt lat="43.41935908653608" lon="10.844391646447466"><ele>294.0</ele><time>2026-05-01T09:56:48.999Z</time></trkpt><trkpt lat="43.41927187073424" lon="10.844471453805468"><ele>294.0</ele><time>2026-05-01T09:56:49.999Z</time></trkpt><trkpt lat="43.41918621559459" lon="10.844550972370943"><ele>294.0</ele><time>2026-05-01T09:56:50.999Z</time></trkpt><trkpt lat="43.41910020945198" lon="10.844629386186737"><ele>294.0</ele><time>2026-05-01T09:56:51.999Z</time></trkpt><trkpt lat="43.41901348852997" lon="10.844706840663747"><ele>294.0</ele><time>2026-05-01T09:56:52.999Z</time></trkpt><trkpt lat="43.41892609971902" lon="10.844784801057868"><ele>294.0</ele><time>2026-05-01T09:56:53.999Z</time></trkpt><trkpt lat="43.418840943705995" lon="10.844865580689525"><ele>293.0</ele><time>2026-05-01T09:56:54.999Z</time></trkpt><trkpt lat="43.41876491526301" lon="10.844960025212533"><ele>292.0</ele><time>2026-05-01T09:56:55.999Z</time></trkpt><trkpt lat="43.418708651369954" lon="10.845080907653008"><ele>291.0</ele><time>2026-05-01T09:56:56.999Z</time></trkpt><trkpt lat="43.41867894155761" lon="10.845227506125717"><ele>290.0</ele><time>2026-05-01T09:56:57.999Z</time></trkpt><trkpt lat="43.41866875853173" lon="10.845379046935838"><ele>289.0</ele><time>2026-05-01T09:56:58.999Z</time></trkpt><trkpt lat="43.418641756051336" lon="10.845521637369723"><ele>291.8</ele><time>2026-05-01T09:56:59.999Z</time></trkpt><trkpt lat="43.41863867966364" lon="10.845671847284377"><ele>294.59999999999997</ele><time>2026-05-01T09:57:00.999Z</time></trkpt><trkpt lat="43.41861810802631" lon="10.845816162059084"><ele>297.4</ele><time>2026-05-01T09:57:01.999Z</time></trkpt><trkpt lat="43.4185910340143" lon="10.845958465952902"><ele>300.2</ele><time>2026-05-01T09:57:02.999Z</time></trkpt><trkpt lat="43.41855173601602" lon="10.846095652077851"><ele>303.0</ele><time>2026-05-01T09:57:03.999Z</time></trkpt><trkpt lat="43.41847980421151" lon="10.846205511614825"><ele>304.6666666666667</ele><time>2026-05-01T09:57:04.999Z</time></trkpt><trkpt lat="43.41843749949588" lon="10.846316065826514"><ele>306.3333333333333</ele><time>2026-05-01T09:57:05.999Z</time></trkpt><trkpt lat="43.41840050519077" lon="10.846400600128566"><ele>308.0</ele><time>2026-05-01T09:57:06.999Z</time></trkpt><trkpt lat="43.41838637528858" lon="10.84656315407053"><ele>309.66666666666663</ele><time>2026-05-01T09:57:08.999Z</time></trkpt><trkpt lat="43.418394507665546" lon="10.846649248996426"><ele>311.3333333333333</ele><time>2026-05-01T09:57:09.999Z</time></trkpt><trkpt lat="43.41839952142758" lon="10.846743276901494"><ele>313.0</ele><time>2026-05-01T09:57:10.999Z</time></trkpt><trkpt lat="43.4183850523613" lon="10.84684301692082"><ele>313.0</ele><time>2026-05-01T09:57:11.999Z</time></trkpt><trkpt lat="43.41834175989384" lon="10.84693622085229"><ele>313.0</ele><time>2026-05-01T09:57:12.999Z</time></trkpt><trkpt lat="43.41825953490552" lon="10.846985678782255"><ele>313.0</ele><time>2026-05-01T09:57:13.999Z</time></trkpt><trkpt lat="43.41819272661591" lon="10.84705630266712"><ele>313.0</ele><time>2026-05-01T09:57:14.999Z</time></trkpt><trkpt lat="43.41813543248885" lon="10.847142579923155"><ele>313.0</ele><time>2026-05-01T09:57:15.999Z</time></trkpt><trkpt lat="43.41807602146091" lon="10.847215674619067"><ele>313.0</ele><time>2026-05-01T09:57:16.999Z</time></trkpt><trkpt lat="43.41801700688867" lon="10.847295442886589"><ele>318.4</ele><time>2026-05-01T09:57:17.999Z</time></trkpt><trkpt lat="43.41797614241607" lon="10.847409002939145"><ele>323.8</ele><time>2026-05-01T09:57:18.999Z</time></trkpt><trkpt lat="43.417945688310176" lon="10.847539722308133"><ele>329.2</ele><time>2026-05-01T09:57:19.999Z</time></trkpt><trkpt lat="43.417933925949434" lon="10.847674401493654"><ele>334.6</ele><time>2026-05-01T09:57:20.999Z</time></trkpt><trkpt lat="43.417939089329124" lon="10.847811978044966"><ele>340.0</ele><time>2026-05-01T09:57:21.999Z</time></trkpt><trkpt lat="43.41794998402109" lon="10.847947743360402"><ele>339.4</ele><time>2026-05-01T09:57:22.999Z</time></trkpt><trkpt lat="43.417961499544184" lon="10.848087937289309"><ele>338.8</ele><time>2026-05-01T09:57:23.999Z</time></trkpt><trkpt lat="43.41797437297067" lon="10.848234406850143"><ele>338.20000000000005</ele><time>2026-05-01T09:57:24.999Z</time></trkpt><trkpt lat="43.41798883311791" lon="10.848375720026292"><ele>337.6</ele><time>2026-05-01T09:57:25.999Z</time></trkpt><trkpt lat="43.41801080110741" lon="10.848524278234986"><ele>337.0</ele><time>2026-05-01T09:57:26.999Z</time></trkpt><trkpt lat="43.41806720291112" lon="10.848661482086642"><ele>337.0</ele><time>2026-05-01T09:57:27.999Z</time></trkpt><trkpt lat="43.41813103659229" lon="10.848799242870532"><ele>337.0</ele><time>2026-05-01T09:57:28.999Z</time></trkpt><trkpt lat="43.41821412877766" lon="10.848925908856245"><ele>337.0</ele><time>2026-05-01T09:57:29.999Z</time></trkpt><trkpt lat="43.41828544637674" lon="10.849058026656222"><ele>337.0</ele><time>2026-05-01T09:57:30.999Z</time></trkpt><trkpt lat="43.41835109341588" lon="10.84918889847026"><ele>339.25</ele><time>2026-05-01T09:57:31.999Z</time></trkpt><trkpt lat="43.418368612024956" lon="10.849344093460388"><ele>341.5</ele><time>2026-05-01T09:57:32.999Z</time></trkpt><trkpt lat="43.418358891494684" lon="10.849513233610983"><ele>343.75</ele><time>2026-05-01T09:57:33.999Z</time></trkpt><trkpt lat="43.41834785514946" lon="10.849697952761634"><ele>346.0</ele><time>2026-05-01T09:57:34.999Z</time></trkpt><trkpt lat="43.418340349368805" lon="10.849897058214097"><ele>346.0</ele><time>2026-05-01T09:57:35.999Z</time></trkpt><trkpt lat="43.41837296772255" lon="10.850088797187144"><ele>346.0</ele><time>2026-05-01T09:57:36.999Z</time></trkpt><trkpt lat="43.41840971932581" lon="10.85027694543613"><ele>346.0</ele><time>2026-05-01T09:57:37.999Z</time></trkpt><trkpt lat="43.41842795914686" lon="10.850462004550415"><ele>346.0</ele><time>2026-05-01T09:57:38.999Z</time></trkpt><trkpt lat="43.4184448102145" lon="10.85063784433357"><ele>348.25</ele><time>2026-05-01T09:57:39.999Z</time></trkpt><trkpt lat="43.418453889600016" lon="10.8508086015193"><ele>350.5</ele><time>2026-05-01T09:57:40.999Z</time></trkpt><trkpt lat="43.418450722486504" lon="10.850971654213646"><ele>352.75</ele><time>2026-05-01T09:57:41.999Z</time></trkpt><trkpt lat="43.41843573367331" lon="10.851126232279888"><ele>355.0</ele><time>2026-05-01T09:57:42.999Z</time></trkpt><trkpt lat="43.41841818092782" lon="10.851282343893843"><ele>356.25</ele><time>2026-05-01T09:57:43.999Z</time></trkpt><trkpt lat="43.41839982819387" lon="10.851437491494377"><ele>357.5</ele><time>2026-05-01T09:57:44.999Z</time></trkpt><trkpt lat="43.41839394939625" lon="10.851596327029899"><ele>358.75</ele><time>2026-05-01T09:57:45.999Z</time></trkpt><trkpt lat="43.418419055175555" lon="10.851749665624276"><ele>360.0</ele><time>2026-05-01T09:57:46.999Z</time></trkpt><trkpt lat="43.41845107628077" lon="10.851899699150064"><ele>361.25</ele><time>2026-05-01T09:57:47.999Z</time></trkpt><trkpt lat="43.41849798042006" lon="10.85205044708477"><ele>362.5</ele><time>2026-05-01T09:57:48.999Z</time></trkpt><trkpt lat="43.4185692895303" lon="10.852187290123284"><ele>363.75</ele><time>2026-05-01T09:57:49.999Z</time></trkpt><trkpt lat="43.418607427168574" lon="10.852350691976024"><ele>365.0</ele><time>2026-05-01T09:57:50.999Z</time></trkpt><trkpt lat="43.41865883010765" lon="10.852512415897797"><ele>368.0</ele><time>2026-05-01T09:57:51.999Z</time></trkpt><trkpt lat="43.41870349470571" lon="10.852679523088364"><ele>371.0</ele><time>2026-05-01T09:57:52.999Z</time></trkpt><trkpt lat="43.41873230062576" lon="10.852851854352402"><ele>374.0</ele><time>2026-05-01T09:57:53.999Z</time></trkpt><trkpt lat="43.41877234685557" lon="10.853018408478642"><ele>377.0</ele><time>2026-05-01T09:57:54.999Z</time></trkpt><trkpt lat="43.41879139342924" lon="10.853179896996862"><ele>377.0</ele><time>2026-05-01T09:57:55.999Z</time></trkpt><trkpt lat="43.41880039857041" lon="10.853341369281319"><ele>377.0</ele><time>2026-05-01T09:57:56.999Z</time></trkpt><trkpt lat="43.418780472164094" lon="10.853498498758263"><ele>377.0</ele><time>2026-05-01T09:57:57.999Z</time></trkpt><trkpt lat="43.41874615224415" lon="10.853647365954208"><ele>377.0</ele><time>2026-05-01T09:57:58.999Z</time></trkpt><trkpt lat="43.41866512047986" lon="10.853774018510746"><ele>377.0</ele><time>2026-05-01T09:57:59.999Z</time></trkpt><trkpt lat="43.41863760787273" lon="10.853944294974696"><ele>377.0</ele><time>2026-05-01T09:58:00.999Z</time></trkpt><trkpt lat="43.41860898487408" lon="10.854110632504506"><ele>377.0</ele><time>2026-05-01T09:58:01.999Z</time></trkpt><trkpt lat="43.41859180023883" lon="10.8542848807447"><ele>377.0</ele><time>2026-05-01T09:58:02.999Z</time></trkpt><trkpt lat="43.41857370830852" lon="10.854462556898424"><ele>377.0</ele><time>2026-05-01T09:58:03.999Z</time></trkpt><trkpt lat="43.41855763619474" lon="10.854640228831167"><ele>377.0</ele><time>2026-05-01T09:58:05Z</time></trkpt><trkpt lat="43.41852520875435" lon="10.854824350054272"><ele>377.0</ele><time>2026-05-01T09:58:06Z</time></trkpt><trkpt lat="43.418529130692214" lon="10.855009774532185"><ele>377.0</ele><time>2026-05-01T09:58:07Z</time></trkpt><trkpt lat="43.418535493597595" lon="10.855189938860113"><ele>375.40000000000003</ele><time>2026-05-01T09:58:08Z</time></trkpt><trkpt lat="43.41853964360848" lon="10.855365211929183"><ele>373.8</ele><time>2026-05-01T09:58:09Z</time></trkpt><trkpt lat="43.41853742012744" lon="10.855528330468848"><ele>372.2</ele><time>2026-05-01T09:58:10Z</time></trkpt><trkpt lat="43.41851503844266" lon="10.855664783375712"><ele>370.6</ele><time>2026-05-01T09:58:11Z</time></trkpt><trkpt lat="43.41845514521944" lon="10.855767464956745"><ele>369.0</ele><time>2026-05-01T09:58:12Z</time></trkpt><trkpt lat="43.41836530487174" lon="10.855837372060192"><ele>369.0</ele><time>2026-05-01T09:58:13Z</time></trkpt><trkpt lat="43.418262737469284" lon="10.855883836690749"><ele>369.0</ele><time>2026-05-01T09:58:14Z</time></trkpt><trkpt lat="43.41815828874111" lon="10.855951204737199"><ele>369.0</ele><time>2026-05-01T09:58:15Z</time></trkpt><trkpt lat="43.41806316016568" lon="10.856025941721859"><ele>369.0</ele><time>2026-05-01T09:58:16Z</time></trkpt><trkpt lat="43.41799048655907" lon="10.856142263027856"><ele>369.0</ele><time>2026-05-01T09:58:17Z</time></trkpt><trkpt lat="43.41793411340951" lon="10.85627983845767"><ele>369.0</ele><time>2026-05-01T09:58:18Z</time></trkpt><trkpt lat="43.417908002244964" lon="10.856432638587417"><ele>369.0</ele><time>2026-05-01T09:58:19Z</time></trkpt><trkpt lat="43.41789758649849" lon="10.856583672995727"><ele>369.0</ele><time>2026-05-01T09:58:20Z</time></trkpt><trkpt lat="43.417891288846974" lon="10.85670978992873"><ele>369.0</ele><time>2026-05-01T09:58:21Z</time></trkpt><trkpt lat="43.4178713710403" lon="10.856818443429765"><ele>369.0</ele><time>2026-05-01T09:58:22Z</time></trkpt><trkpt lat="43.417827104987666" lon="10.856890887622997"><ele>369.0</ele><time>2026-05-01T09:58:23Z</time></trkpt><trkpt lat="43.41775884241787" lon="10.856929642220967"><ele>369.0</ele><time>2026-05-01T09:58:24Z</time></trkpt><trkpt lat="43.41767480051442" lon="10.856953119757446"><ele>369.0</ele><time>2026-05-01T09:58:25Z</time></trkpt><trkpt lat="43.4175751350795" lon="10.856910036128232"><ele>369.0</ele><time>2026-05-01T09:58:26Z</time></trkpt><trkpt lat="43.417485153426924" lon="10.856826098532027"><ele>369.0</ele><time>2026-05-01T09:58:27Z</time></trkpt><trkpt lat="43.417414593984276" lon="10.856701035108156"><ele>369.0</ele><time>2026-05-01T09:58:28Z</time></trkpt><trkpt lat="43.41736416512246" lon="10.856560404656053"><ele>369.0</ele><time>2026-05-01T09:58:29Z</time></trkpt><trkpt lat="43.417331472833794" lon="10.856415261328936"><ele>369.0</ele><time>2026-05-01T09:58:30Z</time></trkpt><trkpt lat="43.417322840115055" lon="10.856265656431438"><ele>369.0</ele><time>2026-05-01T09:58:31Z</time></trkpt><trkpt lat="43.4173278672792" lon="10.856117301892548"><ele>369.0</ele><time>2026-05-01T09:58:32Z</time></trkpt><trkpt lat="43.41732987646527" lon="10.855969084882153"><ele>371.6</ele><time>2026-05-01T09:58:33Z</time></trkpt><trkpt lat="43.41732041958721" lon="10.855821580898303"><ele>374.2</ele><time>2026-05-01T09:58:34Z</time></trkpt><trkpt lat="43.417306756311284" lon="10.855671073756424"><ele>376.8</ele><time>2026-05-01T09:58:35Z</time></trkpt><trkpt lat="43.417289634088064" lon="10.855524110330789"><ele>379.40000000000003</ele><time>2026-05-01T09:58:36Z</time></trkpt><trkpt lat="43.41726882302533" lon="10.855375277312081"><ele>382.0</ele><time>2026-05-01T09:58:37Z</time></trkpt><trkpt lat="43.41724649640173" lon="10.855222421013362"><ele>384.0</ele><time>2026-05-01T09:58:38Z</time></trkpt><trkpt lat="43.417215563363506" lon="10.855065970112182"><ele>386.0</ele><time>2026-05-01T09:58:39Z</time></trkpt><trkpt lat="43.41717726627501" lon="10.854912413138415"><ele>388.0</ele><time>2026-05-01T09:58:40Z</time></trkpt><trkpt lat="43.41713310761598" lon="10.854761296504774"><ele>390.0</ele><time>2026-05-01T09:58:41Z</time></trkpt><trkpt lat="43.41709150217707" lon="10.85460674170206"><ele>387.75</ele><time>2026-05-01T09:58:42Z</time></trkpt><trkpt lat="43.417052654950616" lon="10.854448285721764"><ele>385.5</ele><time>2026-05-01T09:58:43Z</time></trkpt><trkpt lat="43.41701424289924" lon="10.854285951339303"><ele>383.25</ele><time>2026-05-01T09:58:44Z</time></trkpt><trkpt lat="43.416975460461146" lon="10.854120766139"><ele>381.0</ele><time>2026-05-01T09:58:45Z</time></trkpt><trkpt lat="43.41694864354822" lon="10.853951663137545"><ele>381.0</ele><time>2026-05-01T09:58:46Z</time></trkpt><trkpt lat="43.416946871803184" lon="10.85376865706259"><ele>381.0</ele><time>2026-05-01T09:58:47Z</time></trkpt><trkpt lat="43.41695941929966" lon="10.853591193629812"><ele>381.0</ele><time>2026-05-01T09:58:48Z</time></trkpt><trkpt lat="43.41695682918714" lon="10.853407960035366"><ele>381.0</ele><time>2026-05-01T09:58:49Z</time></trkpt><trkpt lat="43.41691594457053" lon="10.8532352941246"><ele>386.5</ele><time>2026-05-01T09:58:50Z</time></trkpt><trkpt lat="43.4168127589381" lon="10.853097262858745"><ele>392.0</ele><time>2026-05-01T09:58:50.999Z</time></trkpt><trkpt lat="43.416675835925844" lon="10.852989934987104"><ele>397.5</ele><time>2026-05-01T09:58:51.999Z</time></trkpt><trkpt lat="43.416543974647475" lon="10.852900268650266"><ele>403.0</ele><time>2026-05-01T09:58:52.999Z</time></trkpt><trkpt lat="43.41645995221789" lon="10.85278605511106"><ele>403.0</ele><time>2026-05-01T09:58:53.999Z</time></trkpt><trkpt lat="43.416375142786585" lon="10.852702663748058"><ele>403.0</ele><time>2026-05-01T09:58:54.999Z</time></trkpt><trkpt lat="43.41632329183761" lon="10.852561180642398"><ele>403.0</ele><time>2026-05-01T09:58:55.999Z</time></trkpt><trkpt lat="43.41624188920777" lon="10.852440383645503"><ele>403.0</ele><time>2026-05-01T09:58:56.999Z</time></trkpt><trkpt lat="43.41617319198872" lon="10.852300557994292"><ele>403.0</ele><time>2026-05-01T09:58:57.999Z</time></trkpt><trkpt lat="43.41610066538479" lon="10.8521633776224"><ele>403.0</ele><time>2026-05-01T09:58:58.999Z</time></trkpt><trkpt lat="43.41602392893543" lon="10.85203080826264"><ele>403.0</ele><time>2026-05-01T09:58:59.999Z</time></trkpt><trkpt lat="43.415935792635956" lon="10.851901882948953"><ele>403.0</ele><time>2026-05-01T09:59:00.999Z</time></trkpt><trkpt lat="43.41583167200913" lon="10.851795403925976"><ele>404.75</ele><time>2026-05-01T09:59:01.999Z</time></trkpt><trkpt lat="43.41571624044743" lon="10.85170171431636"><ele>406.5</ele><time>2026-05-01T09:59:02.999Z</time></trkpt><trkpt lat="43.415600036857676" lon="10.85160624806234"><ele>408.25</ele><time>2026-05-01T09:59:03.999Z</time></trkpt><trkpt lat="43.41548559913181" lon="10.85150256946532"><ele>410.0</ele><time>2026-05-01T09:59:04.999Z</time></trkpt><trkpt lat="43.41537732299139" lon="10.851395255410479"><ele>410.0</ele><time>2026-05-01T09:59:05.999Z</time></trkpt><trkpt lat="43.41527519763335" lon="10.851287486826674"><ele>410.0</ele><time>2026-05-01T09:59:06.999Z</time></trkpt><trkpt lat="43.415176932645544" lon="10.851188412144303"><ele>410.0</ele><time>2026-05-01T09:59:07.999Z</time></trkpt><trkpt lat="43.41507212141361" lon="10.851105315028509"><ele>410.0</ele><time>2026-05-01T09:59:08.999Z</time></trkpt><trkpt lat="43.414962117899556" lon="10.851057735068062"><ele>410.0</ele><time>2026-05-01T09:59:09.999Z</time></trkpt><trkpt lat="43.41484950619598" lon="10.851043651808444"><ele>410.0</ele><time>2026-05-01T09:59:10.999Z</time></trkpt><trkpt lat="43.414742214499285" lon="10.851054273806314"><ele>410.0</ele><time>2026-05-01T09:59:11.999Z</time></trkpt><trkpt lat="43.4146371844302" lon="10.851091411653465"><ele>410.0</ele><time>2026-05-01T09:59:12.999Z</time></trkpt><trkpt lat="43.41454043360207" lon="10.851144365654099"><ele>410.0</ele><time>2026-05-01T09:59:13.999Z</time></trkpt><trkpt lat="43.414450969243084" lon="10.851213786031202"><ele>414.6</ele><time>2026-05-01T09:59:14.999Z</time></trkpt><trkpt lat="43.41437556456768" lon="10.851293758316746"><ele>419.2</ele><time>2026-05-01T09:59:15.999Z</time></trkpt><trkpt lat="43.414310682543515" lon="10.851395506538296"><ele>423.79999999999995</ele><time>2026-05-01T09:59:16.999Z</time></trkpt><trkpt lat="43.414264798900014" lon="10.851520810092586"><ele>428.4</ele><time>2026-05-01T09:59:17.999Z</time></trkpt><trkpt lat="43.41421187444467" lon="10.85164358423854"><ele>433.0</ele><time>2026-05-01T09:59:18.999Z</time></trkpt><trkpt lat="43.41418832336691" lon="10.851784209418788"><ele>432.0</ele><time>2026-05-01T09:59:19.999Z</time></trkpt><trkpt lat="43.414150582379406" lon="10.851919016993739"><ele>430.99999999999994</ele><time>2026-05-01T09:59:20.999Z</time></trkpt><trkpt lat="43.41411446852854" lon="10.852050325880015"><ele>429.99999999999994</ele><time>2026-05-01T09:59:21.999Z</time></trkpt><trkpt lat="43.414078247716205" lon="10.852181032282244"><ele>429.0</ele><time>2026-05-01T09:59:22.999Z</time></trkpt><trkpt lat="43.41404084050941" lon="10.85231332948421"><ele>428.0</ele><time>2026-05-01T09:59:23.999Z</time></trkpt><trkpt lat="43.41399524420265" lon="10.852442792419458"><ele>428.0</ele><time>2026-05-01T09:59:24.999Z</time></trkpt><trkpt lat="43.41394184111442" lon="10.852572352363065"><ele>427.99999999999994</ele><time>2026-05-01T09:59:25.999Z</time></trkpt><trkpt lat="43.41388379517709" lon="10.852702053267318"><ele>427.99999999999994</ele><time>2026-05-01T09:59:26.999Z</time></trkpt><trkpt lat="43.413812702815044" lon="10.852821404937776"><ele>428.0</ele><time>2026-05-01T09:59:27.999Z</time></trkpt><trkpt lat="43.41372739865851" lon="10.852922164846238"><ele>428.0</ele><time>2026-05-01T09:59:28.999Z</time></trkpt><trkpt lat="43.41362536630564" lon="10.85299954224112"><ele>427.5</ele><time>2026-05-01T09:59:29.999Z</time></trkpt><trkpt lat="43.413514632261496" lon="10.853033941540195"><ele>427.0</ele><time>2026-05-01T09:59:30.999Z</time></trkpt><trkpt lat="43.41341583609071" lon="10.852972110185547"><ele>426.5</ele><time>2026-05-01T09:59:31.999Z</time></trkpt><trkpt lat="43.41332550241083" lon="10.85288091404871"><ele>426.0</ele><time>2026-05-01T09:59:32.999Z</time></trkpt><trkpt lat="43.41325127110597" lon="10.852748048345488"><ele>426.0</ele><time>2026-05-01T09:59:33.999Z</time></trkpt><trkpt lat="43.413169951763855" lon="10.852620834526482"><ele>426.0</ele><time>2026-05-01T09:59:34.999Z</time></trkpt><trkpt lat="43.413083103822046" lon="10.852487758951927"><ele>426.0</ele><time>2026-05-01T09:59:35.999Z</time></trkpt><trkpt lat="43.41299456982661" lon="10.852344292643208"><ele>426.0</ele><time>2026-05-01T09:59:36.999Z</time></trkpt><trkpt lat="43.4129039749398" lon="10.852199524970226"><ele>426.0</ele><time>2026-05-01T09:59:37.999Z</time></trkpt><trkpt lat="43.41281293237182" lon="10.852056301674272"><ele>426.0</ele><time>2026-05-01T09:59:38.999Z</time></trkpt><trkpt lat="43.412710823889775" lon="10.851930603656763"><ele>426.0</ele><time>2026-05-01T09:59:39.999Z</time></trkpt><trkpt lat="43.4125909016941" lon="10.85183699892956"><ele>426.0</ele><time>2026-05-01T09:59:40.999Z</time></trkpt><trkpt lat="43.41247594829605" lon="10.851763110314467"><ele>430.0</ele><time>2026-05-01T09:59:41.999Z</time></trkpt><trkpt lat="43.412374919435635" lon="10.851687922040124"><ele>434.0</ele><time>2026-05-01T09:59:42.999Z</time></trkpt><trkpt lat="43.41227674750551" lon="10.851640645864705"><ele>438.0</ele><time>2026-05-01T09:59:43.999Z</time></trkpt><trkpt lat="43.41216738507706" lon="10.851659201238578"><ele>442.0</ele><time>2026-05-01T09:59:44.999Z</time></trkpt><trkpt lat="43.41206598850372" lon="10.851712761699337"><ele>446.0</ele><time>2026-05-01T09:59:45.999Z</time></trkpt><trkpt lat="43.41196479260373" lon="10.851745568475016"><ele>443.0</ele><time>2026-05-01T09:59:46.999Z</time></trkpt><trkpt lat="43.411864813897836" lon="10.85179570445658"><ele>440.0</ele><time>2026-05-01T09:59:47.999Z</time></trkpt><trkpt lat="43.41176708354492" lon="10.851847435778625"><ele>437.0</ele><time>2026-05-01T09:59:48.999Z</time></trkpt><trkpt lat="43.411671798622756" lon="10.851904274530952"><ele>434.0</ele><time>2026-05-01T09:59:49.999Z</time></trkpt><trkpt lat="43.41158139840435" lon="10.851983858189215"><ele>431.0</ele><time>2026-05-01T09:59:50.999Z</time></trkpt><trkpt lat="43.411476531864125" lon="10.852034726379689"><ele>431.0</ele><time>2026-05-01T09:59:51.999Z</time></trkpt><trkpt lat="43.41136462660154" lon="10.85206379984726"><ele>431.0</ele><time>2026-05-01T09:59:52.999Z</time></trkpt><trkpt lat="43.41124863976056" lon="10.852069717328966"><ele>431.0</ele><time>2026-05-01T09:59:53.999Z</time></trkpt><trkpt lat="43.41112919175183" lon="10.852043437156233"><ele>431.0</ele><time>2026-05-01T09:59:54.999Z</time></trkpt><trkpt lat="43.411005607210036" lon="10.852041213625965"><ele>433.0</ele><time>2026-05-01T09:59:55.999Z</time></trkpt><trkpt lat="43.41088002740328" lon="10.852061716304775"><ele>435.0</ele><time>2026-05-01T09:59:56.999Z</time></trkpt><trkpt lat="43.41075364075309" lon="10.85203668024969"><ele>437.0</ele><time>2026-05-01T09:59:57.999Z</time></trkpt><trkpt lat="43.410625971808905" lon="10.852033702205587"><ele>439.0</ele><time>2026-05-01T09:59:58.999Z</time></trkpt><trkpt lat="43.4104947644095" lon="10.852058252481447"><ele>440.25</ele><time>2026-05-01T09:59:59.999Z</time></trkpt><trkpt lat="43.410364641776255" lon="10.852057449853932"><ele>441.5</ele><time>2026-05-01T10:00:00.999Z</time></trkpt><trkpt lat="43.41023071682994" lon="10.852059366271838"><ele>442.75</ele><time>2026-05-01T10:00:01.999Z</time></trkpt><trkpt lat="43.41009691790738" lon="10.85207214434171"><ele>444.0</ele><time>2026-05-01T10:00:02.999Z</time></trkpt><trkpt lat="43.40995919378619" lon="10.85206805261202"><ele>444.0</ele><time>2026-05-01T10:00:03.999Z</time></trkpt><trkpt lat="43.40981923142115" lon="10.852093064895561"><ele>444.0</ele><time>2026-05-01T10:00:04.999Z</time></trkpt><trkpt lat="43.40967870139522" lon="10.852125001840959"><ele>444.0</ele><time>2026-05-01T10:00:05.999Z</time></trkpt><trkpt lat="43.40954057966312" lon="10.852156810101944"><ele>444.0</ele><time>2026-05-01T10:00:06.999Z</time></trkpt><trkpt lat="43.40940476178991" lon="10.85220896535523"><ele>447.25</ele><time>2026-05-01T10:00:07.998Z</time></trkpt><trkpt lat="43.40926959570075" lon="10.852240074795299"><ele>450.5</ele><time>2026-05-01T10:00:08.998Z</time></trkpt><trkpt lat="43.40913926560056" lon="10.85227636141193"><ele>453.75</ele><time>2026-05-01T10:00:09.998Z</time></trkpt><trkpt lat="43.40901169478487" lon="10.852295670282755"><ele>457.0</ele><time>2026-05-01T10:00:11Z</time></trkpt><trkpt lat="43.4089032125672" lon="10.852342839344614"><ele>459.00000000000006</ele><time>2026-05-01T10:00:12Z</time></trkpt><trkpt lat="43.40880903032022" lon="10.852396512772364"><ele>461.0</ele><time>2026-05-01T10:00:13Z</time></trkpt><trkpt lat="43.408733241184294" lon="10.852454445892027"><ele>463.0</ele><time>2026-05-01T10:00:14Z</time></trkpt><trkpt lat="43.408681772806204" lon="10.852507521363695"><ele>465.0</ele><time>2026-05-01T10:00:22Z</time></trkpt><trkpt lat="43.408633407069466" lon="10.852567652487503"><ele>467.00000000000006</ele><time>2026-05-01T10:00:24Z</time></trkpt><trkpt lat="43.408590284383614" lon="10.852639517483302"><ele>469.0</ele><time>2026-05-01T10:00:27Z</time></trkpt><trkpt lat="43.408532727347975" lon="10.852682405299271"><ele>469.79999999999995</ele><time>2026-05-01T10:00:31Z</time></trkpt><trkpt lat="43.40846240001963" lon="10.852783261111002"><ele>470.59999999999997</ele><time>2026-05-01T10:00:33Z</time></trkpt><trkpt lat="43.40844337065821" lon="10.852942927939564"><ele>471.4</ele><time>2026-05-01T10:00:35Z</time></trkpt><trkpt lat="43.40839595024501" lon="10.853033589938152"><ele>472.2</ele><time>2026-05-01T10:00:37Z</time></trkpt><trkpt lat="43.408365624049054" lon="10.853137879630676"><ele>473.0</ele><time>2026-05-01T10:00:39Z</time></trkpt><trkpt lat="43.40831389618674" lon="10.85320628620918"><ele>473.0</ele><time>2026-05-01T10:00:40Z</time></trkpt><trkpt lat="43.40826507134687" lon="10.853305737206377"><ele>472.99999999999994</ele><time>2026-05-01T10:00:41Z</time></trkpt><trkpt lat="43.408195017977484" lon="10.853392714759156"><ele>472.99999999999994</ele><time>2026-05-01T10:00:42Z</time></trkpt><trkpt lat="43.40811139017903" lon="10.853465962071057"><ele>473.0</ele><time>2026-05-01T10:00:43Z</time></trkpt><trkpt lat="43.4080184136415" lon="10.85352212945624"><ele>473.0</ele><time>2026-05-01T10:00:44Z</time></trkpt><trkpt lat="43.407920113072834" lon="10.853567591843435"><ele>474.2</ele><time>2026-05-01T10:00:45Z</time></trkpt><trkpt lat="43.40781779320729" lon="10.853609469603885"><ele>475.4</ele><time>2026-05-01T10:00:46Z</time></trkpt><trkpt lat="43.4077118269475" lon="10.85364864468948"><ele>476.59999999999997</ele><time>2026-05-01T10:00:47Z</time></trkpt><trkpt lat="43.40760507264971" lon="10.853683552733068"><ele>477.79999999999995</ele><time>2026-05-01T10:00:48Z</time></trkpt><trkpt lat="43.40749892976693" lon="10.853718290849333"><ele>479.0</ele><time>2026-05-01T10:00:49Z</time></trkpt><trkpt lat="43.407393064478036" lon="10.853753392084183"><ele>479.0</ele><time>2026-05-01T10:00:50Z</time></trkpt><trkpt lat="43.40728745486602" lon="10.85379067899008"><ele>479.0</ele><time>2026-05-01T10:00:51Z</time></trkpt><trkpt lat="43.40718253265663" lon="10.853819687063446"><ele>479.0</ele><time>2026-05-01T10:00:52Z</time></trkpt><trkpt lat="43.40708124453516" lon="10.853846661139897"><ele>479.0</ele><time>2026-05-01T10:00:53Z</time></trkpt><trkpt lat="43.406983733532755" lon="10.853873899835412"><ele>479.0</ele><time>2026-05-01T10:00:54Z</time></trkpt><trkpt lat="43.40688582140682" lon="10.853903865177498"><ele>480.0</ele><time>2026-05-01T10:00:55Z</time></trkpt><trkpt lat="43.40678763025616" lon="10.853934369524653"><ele>481.0</ele><time>2026-05-01T10:00:55.999Z</time></trkpt><trkpt lat="43.40668968216102" lon="10.85396860912527"><ele>482.0</ele><time>2026-05-01T10:00:56.999Z</time></trkpt><trkpt lat="43.40659481786782" lon="10.854010292724881"><ele>483.0</ele><time>2026-05-01T10:00:57.999Z</time></trkpt><trkpt lat="43.40650288641003" lon="10.85406192427265"><ele>484.0</ele><time>2026-05-01T10:00:58.999Z</time></trkpt><trkpt lat="43.40641394873249" lon="10.854123065226364"><ele>485.6666666666667</ele><time>2026-05-01T10:00:59.999Z</time></trkpt><trkpt lat="43.40632706174972" lon="10.854187364845405"><ele>487.33333333333337</ele><time>2026-05-01T10:01:00.999Z</time></trkpt><trkpt lat="43.406245784297546" lon="10.854252956563865"><ele>489.0</ele><time>2026-05-01T10:01:01.999Z</time></trkpt><trkpt lat="43.406177098577565" lon="10.854314975460024"><ele>490.66666666666663</ele><time>2026-05-01T10:01:02.999Z</time></trkpt><trkpt lat="43.40611679874179" lon="10.85437388282242"><ele>492.3333333333333</ele><time>2026-05-01T10:01:03.999Z</time></trkpt><trkpt lat="43.406058197005514" lon="10.854434646340538"><ele>494.0</ele><time>2026-05-01T10:01:04.999Z</time></trkpt><trkpt lat="43.405996207052574" lon="10.854494624908247"><ele>494.0</ele><time>2026-05-01T10:01:05.999Z</time></trkpt><trkpt lat="43.405934541640065" lon="10.854554505101364"><ele>494.0</ele><time>2026-05-01T10:01:06.999Z</time></trkpt><trkpt lat="43.405873931227056" lon="10.854614541733232"><ele>494.0</ele><time>2026-05-01T10:01:07.999Z</time></trkpt><trkpt lat="43.40581039889015" lon="10.854676508141456"><ele>494.0</ele><time>2026-05-01T10:01:08.999Z</time></trkpt><trkpt lat="43.40574792127665" lon="10.85473442093945"><ele>494.0</ele><time>2026-05-01T10:01:09.999Z</time></trkpt><trkpt lat="43.40568922243146" lon="10.854790916318859"><ele>494.0</ele><time>2026-05-01T10:01:10.999Z</time></trkpt><trkpt lat="43.4056340355069" lon="10.854843852911916"><ele>494.0</ele><time>2026-05-01T10:01:11.999Z</time></trkpt><trkpt lat="43.40555321738578" lon="10.85492184478753"><ele>496.16666666666663</ele><time>2026-05-01T10:01:13.999Z</time></trkpt><trkpt lat="43.405494701793856" lon="10.854973374849084"><ele>498.3333333333333</ele><time>2026-05-01T10:01:16.999Z</time></trkpt><trkpt lat="43.405421242579386" lon="10.855039547727035"><ele>500.5</ele><time>2026-05-01T10:01:21.999Z</time></trkpt><trkpt lat="43.40533832074429" lon="10.855086529270451"><ele>502.66666666666663</ele><time>2026-05-01T10:01:24.999Z</time></trkpt><trkpt lat="43.405266657911106" lon="10.855081203945243"><ele>504.8333333333333</ele><time>2026-05-01T10:01:26.999Z</time></trkpt><trkpt lat="43.40517821261295" lon="10.85507818291672"><ele>507.0</ele><time>2026-05-01T10:01:28.999Z</time></trkpt><trkpt lat="43.40508080850515" lon="10.855075199819165"><ele>507.0</ele><time>2026-05-01T10:01:30.999Z</time></trkpt><trkpt lat="43.40496142520588" lon="10.855051876455645"><ele>507.00000000000006</ele><time>2026-05-01T10:01:32.999Z</time></trkpt><trkpt lat="43.40487506630821" lon="10.855047787962636"><ele>507.00000000000006</ele><time>2026-05-01T10:01:33.999Z</time></trkpt><trkpt lat="43.404786643317884" lon="10.855043283131742"><ele>507.0</ele><time>2026-05-01T10:01:34.999Z</time></trkpt><trkpt lat="43.40469403815775" lon="10.855057172275213"><ele>507.0</ele><time>2026-05-01T10:01:35.999Z</time></trkpt><trkpt lat="43.40460239645673" lon="10.855046903146574"><ele>507.6666666666667</ele><time>2026-05-01T10:01:36.999Z</time></trkpt><trkpt lat="43.40451626826154" lon="10.855036914174969"><ele>508.33333333333337</ele><time>2026-05-01T10:01:37.999Z</time></trkpt><trkpt lat="43.40443869376769" lon="10.855029753891971"><ele>509.0</ele><time>2026-05-01T10:01:38.999Z</time></trkpt><trkpt lat="43.40437225527443" lon="10.855023410526536"><ele>509.6666666666667</ele><time>2026-05-01T10:01:39.999Z</time></trkpt><trkpt lat="43.404272055948034" lon="10.85500039996638"><ele>510.33333333333337</ele><time>2026-05-01T10:01:41.999Z</time></trkpt><trkpt lat="43.40419686861128" lon="10.854931418192338"><ele>511.0</ele><time>2026-05-01T10:01:43.999Z</time></trkpt><trkpt lat="43.40411048350083" lon="10.854826433267505"><ele>511.0</ele><time>2026-05-01T10:01:45.999Z</time></trkpt><trkpt lat="43.404063118076564" lon="10.854763506785202"><ele>511.0</ele><time>2026-05-01T10:01:46.999Z</time></trkpt><trkpt lat="43.40401802591784" lon="10.854700403506813"><ele>511.0</ele><time>2026-05-01T10:01:47.999Z</time></trkpt><trkpt lat="43.40392793854895" lon="10.854588206686017"><ele>511.0</ele><time>2026-05-01T10:01:49.999Z</time></trkpt><trkpt lat="43.40382375739998" lon="10.854548183885427"><ele>511.0</ele><time>2026-05-01T10:01:51.999Z</time></trkpt><trkpt lat="43.40371830264254" lon="10.85460737116037"><ele>509.00000000000006</ele><time>2026-05-01T10:01:53.999Z</time></trkpt><trkpt lat="43.403658872833134" lon="10.854652259701886"><ele>507.0</ele><time>2026-05-01T10:01:54.999Z</time></trkpt><trkpt lat="43.40359554994977" lon="10.854712896817716"><ele>505.0</ele><time>2026-05-01T10:01:55.999Z</time></trkpt><trkpt lat="43.403531694424565" lon="10.85478169857271"><ele>503.0</ele><time>2026-05-01T10:01:56.999Z</time></trkpt><trkpt lat="43.40347259892985" lon="10.854856725001982"><ele>501.00000000000006</ele><time>2026-05-01T10:01:57.999Z</time></trkpt><trkpt lat="43.40341462688893" lon="10.854932398646707"><ele>499.0</ele><time>2026-05-01T10:01:58.999Z</time></trkpt><trkpt lat="43.40335832642323" lon="10.855009264932425"><ele>499.00000000000006</ele><time>2026-05-01T10:01:59.999Z</time></trkpt><trkpt lat="43.40330220105089" lon="10.85508647709618"><ele>499.0</ele><time>2026-05-01T10:02:00.999Z</time></trkpt><trkpt lat="43.40324934980718" lon="10.855164794124867"><ele>499.0</ele><time>2026-05-01T10:02:01.999Z</time></trkpt><trkpt lat="43.403198781201176" lon="10.855247217946474"><ele>499.0</ele><time>2026-05-01T10:02:02.999Z</time></trkpt><trkpt lat="43.40313720214929" lon="10.8553196172152"><ele>499.00000000000006</ele><time>2026-05-01T10:02:03.999Z</time></trkpt><trkpt lat="43.40309373851775" lon="10.855424225336836"><ele>499.0</ele><time>2026-05-01T10:02:04.999Z</time></trkpt><trkpt lat="43.40307733100495" lon="10.85553925418993"><ele>497.6666666666667</ele><time>2026-05-01T10:02:05.999Z</time></trkpt><trkpt lat="43.40306464365949" lon="10.855647903784895"><ele>496.33333333333337</ele><time>2026-05-01T10:02:06.999Z</time></trkpt><trkpt lat="43.40299368935435" lon="10.855703902747903"><ele>495.0</ele><time>2026-05-01T10:02:07.999Z</time></trkpt><trkpt lat="43.40292380246908" lon="10.855739797795929"><ele>493.66666666666663</ele><time>2026-05-01T10:02:08.999Z</time></trkpt><trkpt lat="43.40284698097024" lon="10.855777816338964"><ele>492.3333333333333</ele><time>2026-05-01T10:02:09.999Z</time></trkpt><trkpt lat="43.402771717578126" lon="10.85581373686936"><ele>491.0</ele><time>2026-05-01T10:02:10.999Z</time></trkpt><trkpt lat="43.4026984717294" lon="10.855848472174072"><ele>490.99999999999994</ele><time>2026-05-01T10:02:11.999Z</time></trkpt><trkpt lat="43.40262559713644" lon="10.855898031891343"><ele>491.0</ele><time>2026-05-01T10:02:12.998Z</time></trkpt><trkpt lat="43.402545885128106" lon="10.855938264879228"><ele>491.0</ele><time>2026-05-01T10:02:13.998Z</time></trkpt><trkpt lat="43.402467123707105" lon="10.855983439150716"><ele>491.0</ele><time>2026-05-01T10:02:14.998Z</time></trkpt><trkpt lat="43.40238381699138" lon="10.856028803504513"><ele>490.99999999999994</ele><time>2026-05-01T10:02:16Z</time></trkpt><trkpt lat="43.40229745744959" lon="10.856073606401583"><ele>491.0</ele><time>2026-05-01T10:02:17Z</time></trkpt><trkpt lat="43.402212692582296" lon="10.856118731061134"><ele>492.4</ele><time>2026-05-01T10:02:18Z</time></trkpt><trkpt lat="43.402126316653494" lon="10.85617032368819"><ele>493.8</ele><time>2026-05-01T10:02:19Z</time></trkpt><trkpt lat="43.4020408869034" lon="10.8562262592443"><ele>495.19999999999993</ele><time>2026-05-01T10:02:20Z</time></trkpt><trkpt lat="43.40194897961502" lon="10.856270517631618"><ele>496.59999999999997</ele><time>2026-05-01T10:02:21Z</time></trkpt><trkpt lat="43.4018641549128" lon="10.856344224503898"><ele>498.0</ele><time>2026-05-01T10:02:22Z</time></trkpt><trkpt lat="43.40178234245331" lon="10.856431534968952"><ele>498.0</ele><time>2026-05-01T10:02:23Z</time></trkpt><trkpt lat="43.40170409195484" lon="10.856528968726215"><ele>497.99999999999994</ele><time>2026-05-01T10:02:24Z</time></trkpt><trkpt lat="43.40162813901473" lon="10.856631438307078"><ele>497.99999999999994</ele><time>2026-05-01T10:02:25Z</time></trkpt><trkpt lat="43.40155034288409" lon="10.856738322704464"><ele>498.0</ele><time>2026-05-01T10:02:26Z</time></trkpt><trkpt lat="43.40147090656622" lon="10.85684685095592"><ele>498.0</ele><time>2026-05-01T10:02:27Z</time></trkpt><trkpt lat="43.401390306109725" lon="10.856955141151804"><ele>497.0</ele><time>2026-05-01T10:02:28Z</time></trkpt><trkpt lat="43.40131006139402" lon="10.857063056074757"><ele>495.99999999999994</ele><time>2026-05-01T10:02:29Z</time></trkpt><trkpt lat="43.401230594861154" lon="10.857169951035868"><ele>494.99999999999994</ele><time>2026-05-01T10:02:30Z</time></trkpt><trkpt lat="43.401151094708176" lon="10.857276891178115"><ele>494.0</ele><time>2026-05-01T10:02:31Z</time></trkpt><trkpt lat="43.40107333183673" lon="10.857380738252413"><ele>493.0</ele><time>2026-05-01T10:02:32Z</time></trkpt><trkpt lat="43.40100192523124" lon="10.857475379812144"><ele>493.00000000000006</ele><time>2026-05-01T10:02:33Z</time></trkpt><trkpt lat="43.400946520642925" lon="10.857578436271623"><ele>493.0</ele><time>2026-05-01T10:02:34Z</time></trkpt><trkpt lat="43.40088559251827" lon="10.857659108652722"><ele>493.0</ele><time>2026-05-01T10:02:35Z</time></trkpt><trkpt lat="43.400817878835866" lon="10.857719312866283"><ele>493.0</ele><time>2026-05-01T10:02:36Z</time></trkpt><trkpt lat="43.40076489298219" lon="10.857786642016057"><ele>493.00000000000006</ele><time>2026-05-01T10:02:37Z</time></trkpt><trkpt lat="43.400681690948026" lon="10.857883138813778"><ele>493.0</ele><time>2026-05-01T10:02:39Z</time></trkpt><trkpt lat="43.40062431010097" lon="10.85795921519429"><ele>491.59999999999997</ele><time>2026-05-01T10:02:41Z</time></trkpt><trkpt lat="43.40054409885344" lon="10.85798903171856"><ele>490.19999999999993</ele><time>2026-05-01T10:02:44Z</time></trkpt><trkpt lat="43.40047499384182" lon="10.858024450323343"><ele>488.8</ele><time>2026-05-01T10:02:47Z</time></trkpt><trkpt lat="43.400324929859586" lon="10.85799198466642"><ele>487.4</ele><time>2026-05-01T10:02:49Z</time></trkpt><trkpt lat="43.40021443105123" lon="10.858028465888754"><ele>486.0</ele><time>2026-05-01T10:02:50Z</time></trkpt><trkpt lat="43.40011045236276" lon="10.85810454312643"><ele>486.0</ele><time>2026-05-01T10:02:51Z</time></trkpt><trkpt lat="43.40000556663509" lon="10.858176057934829"><ele>486.0</ele><time>2026-05-01T10:02:52Z</time></trkpt><trkpt lat="43.39989984048814" lon="10.858215149799172"><ele>486.0</ele><time>2026-05-01T10:02:53Z</time></trkpt><trkpt lat="43.39979825521484" lon="10.858251421401832"><ele>486.0</ele><time>2026-05-01T10:02:54Z</time></trkpt><trkpt lat="43.39969977025142" lon="10.858286522767752"><ele>486.0</ele><time>2026-05-01T10:02:55Z</time></trkpt><trkpt lat="43.39960429319648" lon="10.858317921395086"><ele>484.8</ele><time>2026-05-01T10:02:55.999Z</time></trkpt><trkpt lat="43.39950692202055" lon="10.858325539706351"><ele>483.6</ele><time>2026-05-01T10:02:56.999Z</time></trkpt><trkpt lat="43.39942223187587" lon="10.858389258492025"><ele>482.4</ele><time>2026-05-01T10:02:57.999Z</time></trkpt><trkpt lat="43.399332821311205" lon="10.8584153933472"><ele>481.2</ele><time>2026-05-01T10:02:58.999Z</time></trkpt><trkpt lat="43.3992487677938" lon="10.858476535667114"><ele>480.0</ele><time>2026-05-01T10:02:59.999Z</time></trkpt><trkpt lat="43.39916332607653" lon="10.858551701716332"><ele>480.0</ele><time>2026-05-01T10:03:00.999Z</time></trkpt><trkpt lat="43.39908203510979" lon="10.858652325581904"><ele>480.0</ele><time>2026-05-01T10:03:01.999Z</time></trkpt><trkpt lat="43.39900923155903" lon="10.85876473292127"><ele>480.0</ele><time>2026-05-01T10:03:02.999Z</time></trkpt><trkpt lat="43.39894492425398" lon="10.858884632498613"><ele>480.0</ele><time>2026-05-01T10:03:03.999Z</time></trkpt><trkpt lat="43.398889717184794" lon="10.859003002604027"><ele>480.0</ele><time>2026-05-01T10:03:04.999Z</time></trkpt><trkpt lat="43.39884277562028" lon="10.8591223008109"><ele>476.6666666666667</ele><time>2026-05-01T10:03:05.999Z</time></trkpt><trkpt lat="43.39880040794878" lon="10.859228944902176"><ele>473.33333333333337</ele><time>2026-05-01T10:03:06.999Z</time></trkpt><trkpt lat="43.39876201237471" lon="10.859306912727256"><ele>470.0</ele><time>2026-05-01T10:03:07.999Z</time></trkpt><trkpt lat="43.39868319691496" lon="10.859369058684864"><ele>466.6666666666667</ele><time>2026-05-01T10:03:09.999Z</time></trkpt><trkpt lat="43.39863677077916" lon="10.859294105060254"><ele>463.33333333333337</ele><time>2026-05-01T10:03:10.999Z</time></trkpt><trkpt lat="43.39862346261701" lon="10.859159759324145"><ele>460.0</ele><time>2026-05-01T10:03:11.999Z</time></trkpt><trkpt lat="43.398621958514354" lon="10.859011559321218"><ele>459.25</ele><time>2026-05-01T10:03:12.999Z</time></trkpt><trkpt lat="43.398615919227474" lon="10.85884870396101"><ele>458.5</ele><time>2026-05-01T10:03:13.999Z</time></trkpt><trkpt lat="43.3986016974471" lon="10.858676005611619"><ele>457.75</ele><time>2026-05-01T10:03:14.999Z</time></trkpt><trkpt lat="43.398580886477404" lon="10.858504285123248"><ele>457.0</ele><time>2026-05-01T10:03:15.999Z</time></trkpt><trkpt lat="43.39855335463502" lon="10.858343619065424"><ele>456.8</ele><time>2026-05-01T10:03:16.999Z</time></trkpt><trkpt lat="43.398534315366035" lon="10.858197835479055"><ele>456.6</ele><time>2026-05-01T10:03:17.999Z</time></trkpt><trkpt lat="43.398544078412165" lon="10.858057964583788"><ele>456.40000000000003</ele><time>2026-05-01T10:03:18.999Z</time></trkpt><trkpt lat="43.398579715100894" lon="10.857916624748269"><ele>456.20000000000005</ele><time>2026-05-01T10:03:19.999Z</time></trkpt><trkpt lat="43.39863203065449" lon="10.857784057392609"><ele>456.0</ele><time>2026-05-01T10:03:20.999Z</time></trkpt><trkpt lat="43.39868108815672" lon="10.857647540227143"><ele>455.5</ele><time>2026-05-01T10:03:21.999Z</time></trkpt><trkpt lat="43.39872147291859" lon="10.857501675243034"><ele>455.0</ele><time>2026-05-01T10:03:22.999Z</time></trkpt><trkpt lat="43.398765694712814" lon="10.857352514846035"><ele>454.5</ele><time>2026-05-01T10:03:23.999Z</time></trkpt><trkpt lat="43.39879933645016" lon="10.857196222584697"><ele>454.0</ele><time>2026-05-01T10:03:24.999Z</time></trkpt><trkpt lat="43.39881484765086" lon="10.857033380075656"><ele>454.0</ele><time>2026-05-01T10:03:25.999Z</time></trkpt><trkpt lat="43.39881215504077" lon="10.856871843278327"><ele>454.0</ele><time>2026-05-01T10:03:26.999Z</time></trkpt><trkpt lat="43.39880410442539" lon="10.856710871158446"><ele>454.0</ele><time>2026-05-01T10:03:27.999Z</time></trkpt><trkpt lat="43.39879964917073" lon="10.856553717703706"><ele>454.0</ele><time>2026-05-01T10:03:28.999Z</time></trkpt><trkpt lat="43.39880733783183" lon="10.856396451670953"><ele>453.6</ele><time>2026-05-01T10:03:29.999Z</time></trkpt><trkpt lat="43.39882162169437" lon="10.856240526772817"><ele>453.2</ele><time>2026-05-01T10:03:30.999Z</time></trkpt><trkpt lat="43.39883308005259" lon="10.856089288219053"><ele>452.80000000000007</ele><time>2026-05-01T10:03:31.999Z</time></trkpt><trkpt lat="43.398840927047345" lon="10.855945809268754"><ele>452.40000000000003</ele><time>2026-05-01T10:03:32.999Z</time></trkpt><trkpt lat="43.398859601269486" lon="10.855811054417664"><ele>452.0</ele><time>2026-05-01T10:03:33.999Z</time></trkpt><trkpt lat="43.39891294509019" lon="10.855696532127057"><ele>452.0</ele><time>2026-05-01T10:03:34.999Z</time></trkpt><trkpt lat="43.39900114540231" lon="10.855614463595499"><ele>452.00000000000006</ele><time>2026-05-01T10:03:35.999Z</time></trkpt><trkpt lat="43.399102768571645" lon="10.855568921587722"><ele>452.00000000000006</ele><time>2026-05-01T10:03:36.999Z</time></trkpt><trkpt lat="43.39920952851749" lon="10.855547871909073"><ele>452.0</ele><time>2026-05-01T10:03:37.999Z</time></trkpt><trkpt lat="43.39931914023206" lon="10.855535031120473"><ele>452.0</ele><time>2026-05-01T10:03:38.999Z</time></trkpt><trkpt lat="43.399429803600604" lon="10.855518806536264"><ele>452.0</ele><time>2026-05-01T10:03:39.999Z</time></trkpt><trkpt lat="43.39953895892986" lon="10.855485633314993"><ele>452.00000000000006</ele><time>2026-05-01T10:03:40.999Z</time></trkpt><trkpt lat="43.39963927845189" lon="10.855437348745205"><ele>452.00000000000006</ele><time>2026-05-01T10:03:41.999Z</time></trkpt><trkpt lat="43.39973047789587" lon="10.855381075292298"><ele>452.0</ele><time>2026-05-01T10:03:42.999Z</time></trkpt><trkpt lat="43.399819433129466" lon="10.855319032181399"><ele>452.0</ele><time>2026-05-01T10:03:43.999Z</time></trkpt><trkpt lat="43.39990423717057" lon="10.855256783916753"><ele>452.40000000000003</ele><time>2026-05-01T10:03:44.999Z</time></trkpt><trkpt lat="43.39998974290902" lon="10.855191671025398"><ele>452.80000000000007</ele><time>2026-05-01T10:03:45.999Z</time></trkpt><trkpt lat="43.400076754288605" lon="10.855123470885669"><ele>453.2</ele><time>2026-05-01T10:03:46.999Z</time></trkpt><trkpt lat="43.40016624544807" lon="10.855054779632525"><ele>453.6</ele><time>2026-05-01T10:03:47.999Z</time></trkpt><trkpt lat="43.40025801033473" lon="10.85498810248322"><ele>454.0</ele><time>2026-05-01T10:03:48.999Z</time></trkpt><trkpt lat="43.4003526295309" lon="10.85491383082139"><ele>453.4</ele><time>2026-05-01T10:03:49.999Z</time></trkpt><trkpt lat="43.4004443014838" lon="10.854832554883686"><ele>452.79999999999995</ele><time>2026-05-01T10:03:50.999Z</time></trkpt><trkpt lat="43.40052876524152" lon="10.854735817368551"><ele>452.20000000000005</ele><time>2026-05-01T10:03:51.999Z</time></trkpt><trkpt lat="43.40059976886881" lon="10.854620550401581"><ele>451.6</ele><time>2026-05-01T10:03:52.999Z</time></trkpt><trkpt lat="43.400652412302776" lon="10.854487437250597"><ele>451.0</ele><time>2026-05-01T10:03:53.999Z</time></trkpt><trkpt lat="43.40068466511136" lon="10.854344536880435"><ele>448.6</ele><time>2026-05-01T10:03:54.999Z</time></trkpt><trkpt lat="43.40069765313851" lon="10.854205862518"><ele>446.20000000000005</ele><time>2026-05-01T10:03:55.999Z</time></trkpt><trkpt lat="43.40070492126032" lon="10.85406979747266"><ele>443.79999999999995</ele><time>2026-05-01T10:03:56.999Z</time></trkpt><trkpt lat="43.4007159329079" lon="10.853940848064074"><ele>441.4</ele><time>2026-05-01T10:03:57.999Z</time></trkpt><trkpt lat="43.400742568482634" lon="10.853814720421596"><ele>439.0</ele><time>2026-05-01T10:03:58.999Z</time></trkpt><trkpt lat="43.40078631833115" lon="10.853681984041149"><ele>439.0</ele><time>2026-05-01T10:03:59.999Z</time></trkpt><trkpt lat="43.40084050734323" lon="10.853557844946616"><ele>439.0</ele><time>2026-05-01T10:04:00.999Z</time></trkpt><trkpt lat="43.40089475193141" lon="10.853442222088768"><ele>439.0</ele><time>2026-05-01T10:04:01.999Z</time></trkpt><trkpt lat="43.40094111023281" lon="10.853321515154452"><ele>439.0</ele><time>2026-05-01T10:04:02.999Z</time></trkpt><trkpt lat="43.40097553311178" lon="10.853192844936355"><ele>439.0</ele><time>2026-05-01T10:04:03.999Z</time></trkpt><trkpt lat="43.400998317279836" lon="10.853056013755428"><ele>437.4</ele><time>2026-05-01T10:04:04.999Z</time></trkpt><trkpt lat="43.40100765077399" lon="10.852911994125101"><ele>435.79999999999995</ele><time>2026-05-01T10:04:05.999Z</time></trkpt><trkpt lat="43.40101297291971" lon="10.852764671482934"><ele>434.20000000000005</ele><time>2026-05-01T10:04:06.999Z</time></trkpt><trkpt lat="43.40103021949736" lon="10.852616887499998"><ele>432.6</ele><time>2026-05-01T10:04:07.999Z</time></trkpt><trkpt lat="43.40106524471811" lon="10.85247051293083"><ele>431.0</ele><time>2026-05-01T10:04:08.999Z</time></trkpt><trkpt lat="43.40114567534553" lon="10.852354057930022"><ele>432.0</ele><time>2026-05-01T10:04:09.999Z</time></trkpt><trkpt lat="43.40121684476824" lon="10.85222930444831"><ele>433.0</ele><time>2026-05-01T10:04:10.999Z</time></trkpt><trkpt lat="43.401304084517875" lon="10.852129971462464"><ele>434.0</ele><time>2026-05-01T10:04:11.998Z</time></trkpt><trkpt lat="43.401386631971604" lon="10.8520244593197"><ele>435.0</ele><time>2026-05-01T10:04:12.998Z</time></trkpt><trkpt lat="43.40147062766572" lon="10.851933467669589"><ele>436.0</ele><time>2026-05-01T10:04:13.998Z</time></trkpt><trkpt lat="43.401559550561586" lon="10.851854729283438"><ele>436.00000000000006</ele><time>2026-05-01T10:04:14.998Z</time></trkpt><trkpt lat="43.401648146339525" lon="10.851797150523188"><ele>436.0</ele><time>2026-05-01T10:04:15.998Z</time></trkpt><trkpt lat="43.4017312333359" lon="10.85174914714151"><ele>436.0</ele><time>2026-05-01T10:04:16.998Z</time></trkpt><trkpt lat="43.40180721708156" lon="10.851702477116959"><ele>436.0</ele><time>2026-05-01T10:04:17.998Z</time></trkpt><trkpt lat="43.40188056715249" lon="10.851662909710996"><ele>436.00000000000006</ele><time>2026-05-01T10:04:18.998Z</time></trkpt><trkpt lat="43.401946149619214" lon="10.851623258803766"><ele>436.0</ele><time>2026-05-01T10:04:19.998Z</time></trkpt><trkpt lat="43.40200299635851" lon="10.851577393478868"><ele>434.33333333333337</ele><time>2026-05-01T10:04:20.998Z</time></trkpt><trkpt lat="43.402045002572656" lon="10.85150802738506"><ele>432.6666666666667</ele><time>2026-05-01T10:04:22Z</time></trkpt><trkpt lat="43.40205668707162" lon="10.851414916332125"><ele>431.0</ele><time>2026-05-01T10:04:23Z</time></trkpt><trkpt lat="43.40202358054158" lon="10.851326676841868"><ele>429.33333333333337</ele><time>2026-05-01T10:04:24Z</time></trkpt><trkpt lat="43.401951446757025" lon="10.851277624377145"><ele>427.6666666666667</ele><time>2026-05-01T10:04:25Z</time></trkpt><trkpt lat="43.40185926426754" lon="10.851279454120592"><ele>426.0</ele><time>2026-05-01T10:04:26Z</time></trkpt><trkpt lat="43.40176823376996" lon="10.851315041307195"><ele>426.0</ele><time>2026-05-01T10:04:27Z</time></trkpt><trkpt lat="43.40167433001862" lon="10.851352420885119"><ele>426.0</ele><time>2026-05-01T10:04:28Z</time></trkpt><trkpt lat="43.40157695890228" lon="10.851396890308694"><ele>426.0</ele><time>2026-05-01T10:04:29Z</time></trkpt><trkpt lat="43.40146993762214" lon="10.85143908403693"><ele>426.0</ele><time>2026-05-01T10:04:30Z</time></trkpt><trkpt lat="43.40135978893478" lon="10.851474441221901"><ele>426.0</ele><time>2026-05-01T10:04:31Z</time></trkpt><trkpt lat="43.40125026241778" lon="10.851508246973186"><ele>423.4</ele><time>2026-05-01T10:04:32Z</time></trkpt><trkpt lat="43.401142339255436" lon="10.851546534730023"><ele>420.8</ele><time>2026-05-01T10:04:33Z</time></trkpt><trkpt lat="43.40103448372412" lon="10.85158769357618"><ele>418.2</ele><time>2026-05-01T10:04:34Z</time></trkpt><trkpt lat="43.400929671108614" lon="10.851637015197444"><ele>415.59999999999997</ele><time>2026-05-01T10:04:35Z</time></trkpt><trkpt lat="43.400830286695644" lon="10.851703241892242"><ele>413.0</ele><time>2026-05-01T10:04:36Z</time></trkpt><trkpt lat="43.400736059202856" lon="10.851783236110073"><ele>412.59999999999997</ele><time>2026-05-01T10:04:37Z</time></trkpt><trkpt lat="43.40064408365279" lon="10.851870563009603"><ele>412.2</ele><time>2026-05-01T10:04:38Z</time></trkpt><trkpt lat="43.40055016926603" lon="10.85195460216411"><ele>411.8</ele><time>2026-05-01T10:04:39Z</time></trkpt><trkpt lat="43.400457156314964" lon="10.85203707687332"><ele>411.4</ele><time>2026-05-01T10:04:40Z</time></trkpt><trkpt lat="43.400368223662674" lon="10.852116285744131"><ele>411.0</ele><time>2026-05-01T10:04:41Z</time></trkpt><trkpt lat="43.400278187560524" lon="10.852192936086906"><ele>411.0</ele><time>2026-05-01T10:04:42Z</time></trkpt><trkpt lat="43.40018844846358" lon="10.85227161656563"><ele>411.0</ele><time>2026-05-01T10:04:43Z</time></trkpt><trkpt lat="43.4001001892996" lon="10.852352168114441"><ele>411.0</ele><time>2026-05-01T10:04:44Z</time></trkpt><trkpt lat="43.4000117464878" lon="10.852438672138867"><ele>411.0</ele><time>2026-05-01T10:04:45Z</time></trkpt><trkpt lat="43.39992969606292" lon="10.852538752248417"><ele>411.0</ele><time>2026-05-01T10:04:46Z</time></trkpt><trkpt lat="43.39985666639008" lon="10.852654698209198"><ele>410.75</ele><time>2026-05-01T10:04:47Z</time></trkpt><trkpt lat="43.399790139786596" lon="10.852783861663408"><ele>410.5</ele><time>2026-05-01T10:04:48Z</time></trkpt><trkpt lat="43.39972478510779" lon="10.852915545702722"><ele>410.25</ele><time>2026-05-01T10:04:49Z</time></trkpt><trkpt lat="43.39965003869811" lon="10.853033352168094"><ele>410.0</ele><time>2026-05-01T10:04:50Z</time></trkpt><trkpt lat="43.39955237581152" lon="10.853112294972384"><ele>410.0</ele><time>2026-05-01T10:04:51Z</time></trkpt><trkpt lat="43.399439809602825" lon="10.853133935629497"><ele>410.0</ele><time>2026-05-01T10:04:52Z</time></trkpt><trkpt lat="43.39933253038905" lon="10.853086701284639"><ele>410.0</ele><time>2026-05-01T10:04:53Z</time></trkpt><trkpt lat="43.39924178719552" lon="10.852985252390939"><ele>410.0</ele><time>2026-05-01T10:04:54Z</time></trkpt><trkpt lat="43.39916416956235" lon="10.852868031751811"><ele>410.0</ele><time>2026-05-01T10:04:55Z</time></trkpt><trkpt lat="43.39908122250806" lon="10.852775842118932"><ele>410.0</ele><time>2026-05-01T10:04:56Z</time></trkpt><trkpt lat="43.39899503688029" lon="10.852677387894381"><ele>410.0</ele><time>2026-05-01T10:04:57Z</time></trkpt><trkpt lat="43.398908332918545" lon="10.852585670415618"><ele>410.0</ele><time>2026-05-01T10:04:58Z</time></trkpt><trkpt lat="43.398825825482284" lon="10.852485142843626"><ele>410.0</ele><time>2026-05-01T10:04:59Z</time></trkpt><trkpt lat="43.39875384855951" lon="10.852370324556748"><ele>408.6</ele><time>2026-05-01T10:05:00Z</time></trkpt><trkpt lat="43.39869882746999" lon="10.852236714700377"><ele>407.2</ele><time>2026-05-01T10:05:01Z</time></trkpt><trkpt lat="43.398657945381025" lon="10.852091800319323"><ele>405.79999999999995</ele><time>2026-05-01T10:05:02Z</time></trkpt><trkpt lat="43.398622859865725" lon="10.851946695764145"><ele>404.4</ele><time>2026-05-01T10:05:03Z</time></trkpt><trkpt lat="43.39859330466748" lon="10.851806695526756"><ele>403.0</ele><time>2026-05-01T10:05:03.999Z</time></trkpt><trkpt lat="43.39856673198606" lon="10.851676484771597"><ele>402.1666666666667</ele><time>2026-05-01T10:05:04.999Z</time></trkpt><trkpt lat="43.39854119686289" lon="10.851560232747772"><ele>401.33333333333337</ele><time>2026-05-01T10:05:05.999Z</time></trkpt><trkpt lat="43.39851169318055" lon="10.851451357755503"><ele>400.5</ele><time>2026-05-01T10:05:06.999Z</time></trkpt><trkpt lat="43.398475121840505" lon="10.851359897265914"><ele>399.66666666666663</ele><time>2026-05-01T10:05:07.999Z</time></trkpt><trkpt lat="43.39843444533651" lon="10.851284075715881"><ele>398.8333333333333</ele><time>2026-05-01T10:05:08.999Z</time></trkpt><trkpt lat="43.398387558201954" lon="10.851220797751903"><ele>398.0</ele><time>2026-05-01T10:05:09.999Z</time></trkpt><trkpt lat="43.398279919697075" lon="10.851146322681949"><ele>397.99999999999994</ele><time>2026-05-01T10:05:11.999Z</time></trkpt><trkpt lat="43.398210175184225" lon="10.851137384179504"><ele>398.0</ele><time>2026-05-01T10:05:12.999Z</time></trkpt><trkpt lat="43.39812929665272" lon="10.851142132473711"><ele>398.0</ele><time>2026-05-01T10:05:13.999Z</time></trkpt><trkpt lat="43.39805664725849" lon="10.851225266975112"><ele>398.0</ele><time>2026-05-01T10:05:14.999Z</time></trkpt><trkpt lat="43.39797564607698" lon="10.851286807467325"><ele>397.99999999999994</ele><time>2026-05-01T10:05:15.999Z</time></trkpt><trkpt lat="43.39788739568026" lon="10.851345404569491"><ele>398.0</ele><time>2026-05-01T10:05:16.999Z</time></trkpt><trkpt lat="43.39779333893024" lon="10.851403599101287"><ele>395.5</ele><time>2026-05-01T10:05:17.999Z</time></trkpt><trkpt lat="43.397698863424395" lon="10.851470972128082"><ele>393.0</ele><time>2026-05-01T10:05:18.999Z</time></trkpt><trkpt lat="43.39760230101484" lon="10.8515482861752"><ele>390.5</ele><time>2026-05-01T10:05:19.999Z</time></trkpt><trkpt lat="43.39750803843033" lon="10.8516421552531"><ele>388.0</ele><time>2026-05-01T10:05:20.999Z</time></trkpt><trkpt lat="43.39741959795158" lon="10.851748813569984"><ele>386.5</ele><time>2026-05-01T10:05:21.999Z</time></trkpt><trkpt lat="43.397337388533465" lon="10.851868233387824"><ele>385.0</ele><time>2026-05-01T10:05:22.999Z</time></trkpt><trkpt lat="43.39725841863094" lon="10.851992798537696"><ele>383.5</ele><time>2026-05-01T10:05:23.999Z</time></trkpt><trkpt lat="43.397181946506244" lon="10.852122300410716"><ele>382.0</ele><time>2026-05-01T10:05:24.999Z</time></trkpt><trkpt lat="43.397105272863364" lon="10.852253050602755"><ele>382.0</ele><time>2026-05-01T10:05:25.999Z</time></trkpt><trkpt lat="43.39702994652137" lon="10.852380357573347"><ele>382.0</ele><time>2026-05-01T10:05:26.999Z</time></trkpt><trkpt lat="43.39694806650141" lon="10.852507190243863"><ele>382.0</ele><time>2026-05-01T10:05:27.999Z</time></trkpt><trkpt lat="43.39685986702269" lon="10.852625956664928"><ele>382.0</ele><time>2026-05-01T10:05:28.999Z</time></trkpt><trkpt lat="43.3967621258624" lon="10.852733467535895"><ele>383.5</ele><time>2026-05-01T10:05:29.999Z</time></trkpt><trkpt lat="43.39665760974666" lon="10.852826291061017"><ele>385.0</ele><time>2026-05-01T10:05:30.999Z</time></trkpt><trkpt lat="43.39654848548465" lon="10.85291600257522"><ele>386.5</ele><time>2026-05-01T10:05:31.999Z</time></trkpt><trkpt lat="43.39643841869122" lon="10.85300280658758"><ele>388.0</ele><time>2026-05-01T10:05:32.999Z</time></trkpt><trkpt lat="43.39632878936977" lon="10.853088853865971"><ele>384.0</ele><time>2026-05-01T10:05:33.999Z</time></trkpt><trkpt lat="43.396221542243616" lon="10.853173352492055"><ele>380.0</ele><time>2026-05-01T10:05:34.999Z</time></trkpt><trkpt lat="43.39611750605014" lon="10.853257211160605"><ele>376.0</ele><time>2026-05-01T10:05:35.999Z</time></trkpt><trkpt lat="43.396020825445234" lon="10.853342220354119"><ele>372.0</ele><time>2026-05-01T10:05:36.999Z</time></trkpt><trkpt lat="43.39592800745749" lon="10.853399501055135"><ele>372.0</ele><time>2026-05-01T10:05:37.999Z</time></trkpt><trkpt lat="43.39585686822354" lon="10.853477459420736"><ele>372.0</ele><time>2026-05-01T10:05:38.999Z</time></trkpt><trkpt lat="43.39577801509623" lon="10.853490007787428"><ele>372.0</ele><time>2026-05-01T10:05:39.999Z</time></trkpt><trkpt lat="43.39571270696226" lon="10.85343193792309"><ele>372.0</ele><time>2026-05-01T10:05:40.999Z</time></trkpt><trkpt lat="43.39568899407949" lon="10.853323180765187"><ele>372.0</ele><time>2026-05-01T10:05:41.999Z</time></trkpt><trkpt lat="43.39571306490865" lon="10.853198038151122"><ele>372.0</ele><time>2026-05-01T10:05:42.999Z</time></trkpt><trkpt lat="43.39577563760571" lon="10.853082812018782"><ele>372.0</ele><time>2026-05-01T10:05:43.999Z</time></trkpt><trkpt lat="43.395857563511896" lon="10.852983989150063"><ele>372.0</ele><time>2026-05-01T10:05:44.999Z</time></trkpt><trkpt lat="43.39595424854245" lon="10.852895964039323"><ele>372.0</ele><time>2026-05-01T10:05:45.999Z</time></trkpt><trkpt lat="43.396053355413784" lon="10.852809426982711"><ele>372.0</ele><time>2026-05-01T10:05:46.999Z</time></trkpt><trkpt lat="43.396142418874625" lon="10.852709027094937"><ele>370.0</ele><time>2026-05-01T10:05:47.999Z</time></trkpt><trkpt lat="43.396213359600026" lon="10.852577532021247"><ele>368.0</ele><time>2026-05-01T10:05:48.999Z</time></trkpt><trkpt lat="43.396265193771534" lon="10.852427544934693"><ele>366.0</ele><time>2026-05-01T10:05:49.999Z</time></trkpt><trkpt lat="43.39630169995088" lon="10.852266604197768"><ele>364.0</ele><time>2026-05-01T10:05:50.999Z</time></trkpt><trkpt lat="43.396325515515294" lon="10.85210063419009"><ele>366.5</ele><time>2026-05-01T10:05:51.999Z</time></trkpt><trkpt lat="43.39634191367383" lon="10.85193203682827"><ele>369.0</ele><time>2026-05-01T10:05:52.999Z</time></trkpt><trkpt lat="43.396353254396615" lon="10.851757167918086"><ele>371.5</ele><time>2026-05-01T10:05:53.999Z</time></trkpt><trkpt lat="43.39636573965872" lon="10.85158338618809"><ele>374.0</ele><time>2026-05-01T10:05:54.999Z</time></trkpt><trkpt lat="43.396383550837776" lon="10.85141429065448"><ele>374.0</ele><time>2026-05-01T10:05:55.999Z</time></trkpt><trkpt lat="43.39640805609439" lon="10.851245023117583"><ele>374.0</ele><time>2026-05-01T10:05:56.999Z</time></trkpt><trkpt lat="43.39643921951832" lon="10.85107919451422"><ele>374.0</ele><time>2026-05-01T10:05:57.999Z</time></trkpt><trkpt lat="43.39647403910807" lon="10.850915641532302"><ele>374.0</ele><time>2026-05-01T10:05:58.999Z</time></trkpt><trkpt lat="43.39650912165156" lon="10.85075250689957"><ele>372.5</ele><time>2026-05-01T10:05:59.999Z</time></trkpt><trkpt lat="43.396540013974764" lon="10.850586169642217"><ele>371.0</ele><time>2026-05-01T10:06:00.999Z</time></trkpt><trkpt lat="43.39657210235293" lon="10.850421810715098"><ele>369.5</ele><time>2026-05-01T10:06:01.999Z</time></trkpt><trkpt lat="43.39660706921074" lon="10.850254044817266"><ele>368.0</ele><time>2026-05-01T10:06:02.999Z</time></trkpt><trkpt lat="43.39664821862093" lon="10.850090236418442"><ele>366.0</ele><time>2026-05-01T10:06:03.999Z</time></trkpt><trkpt lat="43.39669658874076" lon="10.849927386072913"><ele>364.0</ele><time>2026-05-01T10:06:04.999Z</time></trkpt><trkpt lat="43.39675180837025" lon="10.849772660560555"><ele>362.0</ele><time>2026-05-01T10:06:05.999Z</time></trkpt><trkpt lat="43.39681191495678" lon="10.849623643866922"><ele>360.0</ele><time>2026-05-01T10:06:06.999Z</time></trkpt><trkpt lat="43.39687464851249" lon="10.849478815684408"><ele>360.0</ele><time>2026-05-01T10:06:07.999Z</time></trkpt><trkpt lat="43.39693542938505" lon="10.849331464253156"><ele>360.0</ele><time>2026-05-01T10:06:08.999Z</time></trkpt><trkpt lat="43.39699663266122" lon="10.849186880942355"><ele>360.0</ele><time>2026-05-01T10:06:09.999Z</time></trkpt><trkpt lat="43.39706080275628" lon="10.849043432371186"><ele>360.0</ele><time>2026-05-01T10:06:10.999Z</time></trkpt><trkpt lat="43.39712452098902" lon="10.84890667820946"><ele>360.0</ele><time>2026-05-01T10:06:11.999Z</time></trkpt><trkpt lat="43.39718894911025" lon="10.848767166309978"><ele>360.0</ele><time>2026-05-01T10:06:12.999Z</time></trkpt><trkpt lat="43.39723914116982" lon="10.84863457469681"><ele>360.0</ele><time>2026-05-01T10:06:13.999Z</time></trkpt><trkpt lat="43.39725858679898" lon="10.848492253423633"><ele>360.0</ele><time>2026-05-01T10:06:14.999Z</time></trkpt><trkpt lat="43.39723436812501" lon="10.848358149850956"><ele>360.0</ele><time>2026-05-01T10:06:15.999Z</time></trkpt><trkpt lat="43.397168957608855" lon="10.84826270677309"><ele>357.5</ele><time>2026-05-01T10:06:16.999Z</time></trkpt><trkpt lat="43.39708362574081" lon="10.848214364826427"><ele>355.0</ele><time>2026-05-01T10:06:17.999Z</time></trkpt><trkpt lat="43.39696866398433" lon="10.848274627218093"><ele>352.5</ele><time>2026-05-01T10:06:18.999Z</time></trkpt><trkpt lat="43.396863291873586" lon="10.848370025657166"><ele>350.0</ele><time>2026-05-01T10:06:19.999Z</time></trkpt><trkpt lat="43.39676690747735" lon="10.84849361143326"><ele>350.0</ele><time>2026-05-01T10:06:20.999Z</time></trkpt><trkpt lat="43.396669146937256" lon="10.848619072451987"><ele>350.0</ele><time>2026-05-01T10:06:21.999Z</time></trkpt><trkpt lat="43.396569728422264" lon="10.848744793787757"><ele>350.0</ele><time>2026-05-01T10:06:22.998Z</time></trkpt><trkpt lat="43.39647292572114" lon="10.848867990980406"><ele>350.0</ele><time>2026-05-01T10:06:23.998Z</time></trkpt><trkpt lat="43.39637190612401" lon="10.848980090260463"><ele>347.0</ele><time>2026-05-01T10:06:24.998Z</time></trkpt><trkpt lat="43.3962664298752" lon="10.849066799985144"><ele>344.0</ele><time>2026-05-01T10:06:25.998Z</time></trkpt><trkpt lat="43.39615065250829" lon="10.849135149779247"><ele>341.0</ele><time>2026-05-01T10:06:26.998Z</time></trkpt><trkpt lat="43.39602768925639" lon="10.849191370354628"><ele>338.0</ele><time>2026-05-01T10:06:28Z</time></trkpt><trkpt lat="43.395898125139944" lon="10.849241921335867"><ele>337.0</ele><time>2026-05-01T10:06:29Z</time></trkpt><trkpt lat="43.39576434614193" lon="10.849296556588257"><ele>336.0</ele><time>2026-05-01T10:06:30Z</time></trkpt><trkpt lat="43.39563375939563" lon="10.849373246039624"><ele>335.0</ele><time>2026-05-01T10:06:31Z</time></trkpt><trkpt lat="43.39551017155261" lon="10.849478183242192"><ele>334.0</ele><time>2026-05-01T10:06:32Z</time></trkpt><trkpt lat="43.395393519245204" lon="10.849591680011807"><ele>334.0</ele><time>2026-05-01T10:06:33Z</time></trkpt><trkpt lat="43.39528128251067" lon="10.84970220627235"><ele>334.0</ele><time>2026-05-01T10:06:34Z</time></trkpt><trkpt lat="43.395172687571964" lon="10.849807788181552"><ele>334.0</ele><time>2026-05-01T10:06:35Z</time></trkpt><trkpt lat="43.39507854472012" lon="10.849923904953437"><ele>334.0</ele><time>2026-05-01T10:06:36Z</time></trkpt><trkpt lat="43.39501307780283" lon="10.850066135819992"><ele>333.8333333333333</ele><time>2026-05-01T10:06:37Z</time></trkpt><trkpt lat="43.39497691878002" lon="10.850216386316779"><ele>333.66666666666663</ele><time>2026-05-01T10:06:38Z</time></trkpt><trkpt lat="43.39493479512329" lon="10.850348266857633"><ele>333.5</ele><time>2026-05-01T10:06:39Z</time></trkpt><trkpt lat="43.39489158353897" lon="10.850440670271725"><ele>333.3333333333333</ele><time>2026-05-01T10:06:40Z</time></trkpt><trkpt lat="43.394844796162076" lon="10.850500665211138"><ele>333.1666666666667</ele><time>2026-05-01T10:06:41Z</time></trkpt><trkpt lat="43.39477319703646" lon="10.850463707510174"><ele>333.0</ele><time>2026-05-01T10:06:42Z</time></trkpt><trkpt lat="43.394739561972806" lon="10.850351094661125"><ele>333.0</ele><time>2026-05-01T10:06:43Z</time></trkpt><trkpt lat="43.394769231966144" lon="10.850216073659398"><ele>333.0</ele><time>2026-05-01T10:06:44Z</time></trkpt><trkpt lat="43.394817944827764" lon="10.850108058868512"><ele>333.0</ele><time>2026-05-01T10:06:45Z</time></trkpt><trkpt lat="43.39484271978138" lon="10.849993145747929"><ele>333.0</ele><time>2026-05-01T10:06:46Z</time></trkpt><trkpt lat="43.39488685768054" lon="10.849858777210017"><ele>333.0</ele><time>2026-05-01T10:06:47Z</time></trkpt><trkpt lat="43.394934109634" lon="10.849720110300428"><ele>333.25</ele><time>2026-05-01T10:06:48Z</time></trkpt><trkpt lat="43.39498275522591" lon="10.849577193481155"><ele>333.5</ele><time>2026-05-01T10:06:49Z</time></trkpt><trkpt lat="43.39502918034374" lon="10.849427534578986"><ele>333.75</ele><time>2026-05-01T10:06:50Z</time></trkpt><trkpt lat="43.395070384521894" lon="10.849277680443485"><ele>334.0</ele><time>2026-05-01T10:06:51Z</time></trkpt><trkpt lat="43.39510793695301" lon="10.849134033703997"><ele>332.2</ele><time>2026-05-01T10:06:52Z</time></trkpt><trkpt lat="43.39514240492773" lon="10.848997528038588"><ele>330.4</ele><time>2026-05-01T10:06:53Z</time></trkpt><trkpt lat="43.39517512937231" lon="10.848870515034186"><ele>328.6</ele><time>2026-05-01T10:06:54Z</time></trkpt><trkpt lat="43.39520669002986" lon="10.848748851402052"><ele>326.8</ele><time>2026-05-01T10:06:55Z</time></trkpt><trkpt lat="43.39523578750254" lon="10.848632171337261"><ele>325.0</ele><time>2026-05-01T10:06:56Z</time></trkpt><trkpt lat="43.395262115541065" lon="10.848522380962663"><ele>324.1428571428571</ele><time>2026-05-01T10:06:57Z</time></trkpt><trkpt lat="43.39528787088646" lon="10.848421400756319"><ele>323.28571428571433</ele><time>2026-05-01T10:06:58Z</time></trkpt><trkpt lat="43.39530766455845" lon="10.84832421300806"><ele>322.42857142857144</ele><time>2026-05-01T10:06:59Z</time></trkpt><trkpt lat="43.3953098488949" lon="10.848227731396024"><ele>321.57142857142856</ele><time>2026-05-01T10:07:00Z</time></trkpt><trkpt lat="43.39528664756019" lon="10.848139203951332"><ele>320.71428571428567</ele><time>2026-05-01T10:07:01Z</time></trkpt><trkpt lat="43.395238290553905" lon="10.848069614372838"><ele>319.8571428571429</ele><time>2026-05-01T10:07:02Z</time></trkpt><trkpt lat="43.39517226425953" lon="10.848018971133222"><ele>319.0</ele><time>2026-05-01T10:07:03Z</time></trkpt><trkpt lat="43.39509263458538" lon="10.84800670957254"><ele>319.0</ele><time>2026-05-01T10:07:04Z</time></trkpt><trkpt lat="43.395010231259576" lon="10.848031156985929"><ele>319.0</ele><time>2026-05-01T10:07:05Z</time></trkpt><trkpt lat="43.39493124946058" lon="10.848085105145122"><ele>319.0</ele><time>2026-05-01T10:07:06Z</time></trkpt><trkpt lat="43.394857202036675" lon="10.848161328488217"><ele>319.0</ele><time>2026-05-01T10:07:07Z</time></trkpt><trkpt lat="43.39479385014531" lon="10.84826209327482"><ele>319.0</ele><time>2026-05-01T10:07:08Z</time></trkpt><trkpt lat="43.394741560666546" lon="10.84837925739461"><ele>318.0</ele><time>2026-05-01T10:07:09Z</time></trkpt><trkpt lat="43.394697615310356" lon="10.848506297488171"><ele>317.0</ele><time>2026-05-01T10:07:09.999Z</time></trkpt><trkpt lat="43.39465999828357" lon="10.848640516680296"><ele>316.0</ele><time>2026-05-01T10:07:10.999Z</time></trkpt><trkpt lat="43.3946249398167" lon="10.848779024317674"><ele>315.0</ele><time>2026-05-01T10:07:11.999Z</time></trkpt><trkpt lat="43.39457966061798" lon="10.848915388471024"><ele>314.0</ele><time>2026-05-01T10:07:12.999Z</time></trkpt><trkpt lat="43.39450169987992" lon="10.849047298872051"><ele>314.0</ele><time>2026-05-01T10:07:13.999Z</time></trkpt><trkpt lat="43.39438558872163" lon="10.84913190334956"><ele>314.0</ele><time>2026-05-01T10:07:14.999Z</time></trkpt><trkpt lat="43.39424988090308" lon="10.849155565345365"><ele>314.0</ele><time>2026-05-01T10:07:15.999Z</time></trkpt><trkpt lat="43.39412671430915" lon="10.849116755124749"><ele>314.0</ele><time>2026-05-01T10:07:16.999Z</time></trkpt><trkpt lat="43.394014754552224" lon="10.849069544589227"><ele>314.0</ele><time>2026-05-01T10:07:17.999Z</time></trkpt><trkpt lat="43.39391185544575" lon="10.84904101017867"><ele>314.0</ele><time>2026-05-01T10:07:18.999Z</time></trkpt><trkpt lat="43.393798813652914" lon="10.849028430972343"><ele>314.0</ele><time>2026-05-01T10:07:19.999Z</time></trkpt><trkpt lat="43.393681777280676" lon="10.849025264966475"><ele>314.0</ele><time>2026-05-01T10:07:20.999Z</time></trkpt><trkpt lat="43.393564276660996" lon="10.849030566167439"><ele>313.0</ele><time>2026-05-01T10:07:21.999Z</time></trkpt><trkpt lat="43.393448571324484" lon="10.849044801339712"><ele>312.0</ele><time>2026-05-01T10:07:22.999Z</time></trkpt><trkpt lat="43.39333387581704" lon="10.849060816431116"><ele>311.0</ele><time>2026-05-01T10:07:23.999Z</time></trkpt><trkpt lat="43.39321912788653" lon="10.849075901548941"><ele>310.0</ele><time>2026-05-01T10:07:24.999Z</time></trkpt><trkpt lat="43.39310663177834" lon="10.84908911624151"><ele>307.8</ele><time>2026-05-01T10:07:25.999Z</time></trkpt><trkpt lat="43.3929933562856" lon="10.849093200016275"><ele>305.6</ele><time>2026-05-01T10:07:26.999Z</time></trkpt><trkpt lat="43.39288054712553" lon="10.849081512607563"><ele>303.4</ele><time>2026-05-01T10:07:27.999Z</time></trkpt><trkpt lat="43.39277083823245" lon="10.84905337961107"><ele>301.2</ele><time>2026-05-01T10:07:28.999Z</time></trkpt><trkpt lat="43.392666561236986" lon="10.849014890666162"><ele>299.0</ele><time>2026-05-01T10:07:29.999Z</time></trkpt><trkpt lat="43.39256161946023" lon="10.848963160798949"><ele>299.0</ele><time>2026-05-01T10:07:30.999Z</time></trkpt><trkpt lat="43.3924594757764" lon="10.848905585544264"><ele>299.0</ele><time>2026-05-01T10:07:31.999Z</time></trkpt><trkpt lat="43.39235954571471" lon="10.848838432875661"><ele>299.0</ele><time>2026-05-01T10:07:32.999Z</time></trkpt><trkpt lat="43.392265007597416" lon="10.848760769849385"><ele>299.0</ele><time>2026-05-01T10:07:33.999Z</time></trkpt><trkpt lat="43.39217313145472" lon="10.848676072479345"><ele>299.0</ele><time>2026-05-01T10:07:34.999Z</time></trkpt><trkpt lat="43.39208399558847" lon="10.84858616558548"><ele>297.0</ele><time>2026-05-01T10:07:35.999Z</time></trkpt><trkpt lat="43.39199465164863" lon="10.848491060589302"><ele>295.0</ele><time>2026-05-01T10:07:36.999Z</time></trkpt><trkpt lat="43.39190607870195" lon="10.848392501897822"><ele>293.0</ele><time>2026-05-01T10:07:37.999Z</time></trkpt><trkpt lat="43.39181641891948" lon="10.848294598129403"><ele>291.0</ele><time>2026-05-01T10:07:38.999Z</time></trkpt><trkpt lat="43.391726874384815" lon="10.848196203835196"><ele>291.0</ele><time>2026-05-01T10:07:39.999Z</time></trkpt><trkpt lat="43.3916368299951" lon="10.848098459496367"><ele>291.0</ele><time>2026-05-01T10:07:40.999Z</time></trkpt><trkpt lat="43.39154023225198" lon="10.847991813636172"><ele>291.0</ele><time>2026-05-01T10:07:41.999Z</time></trkpt><trkpt lat="43.39144516591193" lon="10.84787453959889"><ele>291.0</ele><time>2026-05-01T10:07:42.999Z</time></trkpt><trkpt lat="43.39135582886703" lon="10.84774048413306"><ele>291.5</ele><time>2026-05-01T10:07:43.999Z</time></trkpt><trkpt lat="43.39127547998734" lon="10.84758842380861"><ele>292.0</ele><time>2026-05-01T10:07:44.999Z</time></trkpt><trkpt lat="43.39120394149524" lon="10.847422749465622"><ele>292.5</ele><time>2026-05-01T10:07:45.999Z</time></trkpt><trkpt lat="43.391134903036274" lon="10.847250719318657"><ele>293.0</ele><time>2026-05-01T10:07:46.999Z</time></trkpt><trkpt lat="43.39106295822108" lon="10.847082386246807"><ele>293.0</ele><time>2026-05-01T10:07:47.999Z</time></trkpt><trkpt lat="43.39098951234935" lon="10.846916159072736"><ele>293.0</ele><time>2026-05-01T10:07:48.999Z</time></trkpt><trkpt lat="43.39091943527521" lon="10.846752693474068"><ele>293.0</ele><time>2026-05-01T10:07:49.999Z</time></trkpt><trkpt lat="43.39085054865779" lon="10.846593052435297"><ele>293.0</ele><time>2026-05-01T10:07:50.999Z</time></trkpt><trkpt lat="43.39077915597082" lon="10.846431346260989"><ele>292.5</ele><time>2026-05-01T10:07:51.999Z</time></trkpt><trkpt lat="43.39070609038446" lon="10.84626835654021"><ele>292.0</ele><time>2026-05-01T10:07:52.999Z</time></trkpt><trkpt lat="43.39062180822029" lon="10.846123862232455"><ele>291.5</ele><time>2026-05-01T10:07:53.999Z</time></trkpt><trkpt lat="43.39050591987714" lon="10.846014011526613"><ele>291.0</ele><time>2026-05-01T10:07:54.999Z</time></trkpt><trkpt lat="43.3903547543493" lon="10.845951072684063"><ele>290.6666666666667</ele><time>2026-05-01T10:07:55.999Z</time></trkpt><trkpt lat="43.390194400172795" lon="10.84594631440016"><ele>290.33333333333337</ele><time>2026-05-01T10:07:56.999Z</time></trkpt><trkpt lat="43.39002475230921" lon="10.846011594392904"><ele>290.0</ele><time>2026-05-01T10:07:57.999Z</time></trkpt><trkpt lat="43.38987569309203" lon="10.846125396839499"><ele>290.0</ele><time>2026-05-01T10:07:58.999Z</time></trkpt><trkpt lat="43.38973898974538" lon="10.846223754105285"><ele>290.0</ele><time>2026-05-01T10:07:59.999Z</time></trkpt><trkpt lat="43.389612942577656" lon="10.846309582854621"><ele>290.0</ele><time>2026-05-01T10:08:00.999Z</time></trkpt><trkpt lat="43.389483880476035" lon="10.846356564987817"><ele>290.0</ele><time>2026-05-01T10:08:01.999Z</time></trkpt><trkpt lat="43.38936036800853" lon="10.846314639345303"><ele>287.4</ele><time>2026-05-01T10:08:02.999Z</time></trkpt><trkpt lat="43.38924273678165" lon="10.846255133182806"><ele>284.8</ele><time>2026-05-01T10:08:03.999Z</time></trkpt><trkpt lat="43.38912931756401" lon="10.84620858564681"><ele>282.2</ele><time>2026-05-01T10:08:04.999Z</time></trkpt><trkpt lat="43.38903245604805" lon="10.846150569608673"><ele>279.6</ele><time>2026-05-01T10:08:05.999Z</time></trkpt><trkpt lat="43.38894046820749" lon="10.8460995411226"><ele>277.0</ele><time>2026-05-01T10:08:06.999Z</time></trkpt><trkpt lat="43.3888552893854" lon="10.846036794264176"><ele>274.4</ele><time>2026-05-01T10:08:07.999Z</time></trkpt><trkpt lat="43.388783242860185" lon="10.84595168324182"><ele>271.79999999999995</ele><time>2026-05-01T10:08:08.999Z</time></trkpt><trkpt lat="43.38873317553364" lon="10.845844024446103"><ele>269.2</ele><time>2026-05-01T10:08:09.999Z</time></trkpt><trkpt lat="43.38869432710877" lon="10.845729630265582"><ele>266.59999999999997</ele><time>2026-05-01T10:08:10.999Z</time></trkpt><trkpt lat="43.3886720989473" lon="10.845612061795569"><ele>264.0</ele><time>2026-05-01T10:08:11.999Z</time></trkpt><trkpt lat="43.388665695837325" lon="10.845494053710901"><ele>264.0</ele><time>2026-05-01T10:08:12.999Z</time></trkpt><trkpt lat="43.38867021342075" lon="10.845377490763381"><ele>264.0</ele><time>2026-05-01T10:08:13.999Z</time></trkpt><trkpt lat="43.388678151370094" lon="10.845254559966792"><ele>264.0</ele><time>2026-05-01T10:08:14.999Z</time></trkpt><trkpt lat="43.38869196696068" lon="10.845123779211164"><ele>264.0</ele><time>2026-05-01T10:08:15.999Z</time></trkpt><trkpt lat="43.38871286239948" lon="10.844981270730052"><ele>264.0</ele><time>2026-05-01T10:08:16.999Z</time></trkpt><trkpt lat="43.388741890332064" lon="10.844837723439886"><ele>263.8</ele><time>2026-05-01T10:08:17.999Z</time></trkpt><trkpt lat="43.38879085408366" lon="10.844703858608474"><ele>263.59999999999997</ele><time>2026-05-01T10:08:18.999Z</time></trkpt><trkpt lat="43.38886050439351" lon="10.844586041293189"><ele>263.4</ele><time>2026-05-01T10:08:19.999Z</time></trkpt><trkpt lat="43.38894880927312" lon="10.844491304946322"><ele>263.2</ele><time>2026-05-01T10:08:20.999Z</time></trkpt><trkpt lat="43.38904871524257" lon="10.844423016532893"><ele>263.0</ele><time>2026-05-01T10:08:21.999Z</time></trkpt><trkpt lat="43.38915765916929" lon="10.844381175165392"><ele>263.5</ele><time>2026-05-01T10:08:22.999Z</time></trkpt><trkpt lat="43.3892718418534" lon="10.844359651308519"><ele>264.0</ele><time>2026-05-01T10:08:23.999Z</time></trkpt><trkpt lat="43.38938795958359" lon="10.844336083649125"><ele>264.5</ele><time>2026-05-01T10:08:24.999Z</time></trkpt><trkpt lat="43.389500832443076" lon="10.844296060766586"><ele>265.0</ele><time>2026-05-01T10:08:25.999Z</time></trkpt><trkpt lat="43.38961385833434" lon="10.844250581885428"><ele>265.0</ele><time>2026-05-01T10:08:26.999Z</time></trkpt><trkpt lat="43.389727032728786" lon="10.844221985580496"><ele>265.0</ele><time>2026-05-01T10:08:27.999Z</time></trkpt><trkpt lat="43.38983963967937" lon="10.844201294197902"><ele>265.0</ele><time>2026-05-01T10:08:28.999Z</time></trkpt><trkpt lat="43.38995072629791" lon="10.844191217508957"><ele>265.0</ele><time>2026-05-01T10:08:29.998Z</time></trkpt><trkpt lat="43.39005998088829" lon="10.844198871367514"><ele>265.0</ele><time>2026-05-01T10:08:30.998Z</time></trkpt><trkpt lat="43.390166918105336" lon="10.84422228441246"><ele>265.0</ele><time>2026-05-01T10:08:31.998Z</time></trkpt><trkpt lat="43.39027015305811" lon="10.844254836426316"><ele>265.0</ele><time>2026-05-01T10:08:32.998Z</time></trkpt><trkpt lat="43.39036762061428" lon="10.844284494178202"><ele>265.0</ele><time>2026-05-01T10:08:34Z</time></trkpt><trkpt lat="43.39045899817188" lon="10.844311355875396"><ele>265.0</ele><time>2026-05-01T10:08:35Z</time></trkpt><trkpt lat="43.3905458126271" lon="10.844332529247344"><ele>265.0</ele><time>2026-05-01T10:08:36Z</time></trkpt><trkpt lat="43.390628019024625" lon="10.844352265800131"><ele>265.57142857142856</ele><time>2026-05-01T10:08:37Z</time></trkpt><trkpt lat="43.39070577073011" lon="10.844367786804751"><ele>266.1428571428571</ele><time>2026-05-01T10:08:38Z</time></trkpt><trkpt lat="43.39077794922886" lon="10.8443668817578"><ele>266.7142857142857</ele><time>2026-05-01T10:08:39Z</time></trkpt><trkpt lat="43.390847272144185" lon="10.844345828190425"><ele>267.2857142857143</ele><time>2026-05-01T10:08:40Z</time></trkpt><trkpt lat="43.390902377904084" lon="10.844291655161642"><ele>267.8571428571429</ele><time>2026-05-01T10:08:41Z</time></trkpt><trkpt lat="43.39094528412484" lon="10.844219625522081"><ele>268.42857142857144</ele><time>2026-05-01T10:08:42Z</time></trkpt><trkpt lat="43.39097356975906" lon="10.844138867831317"><ele>269.0</ele><time>2026-05-01T10:08:43Z</time></trkpt><trkpt lat="43.39098520471169" lon="10.844043030981318"><ele>267.2</ele><time>2026-05-01T10:08:44Z</time></trkpt><trkpt lat="43.390972967622425" lon="10.843943066475774"><ele>265.4</ele><time>2026-05-01T10:08:45Z</time></trkpt><trkpt lat="43.39092619388173" lon="10.843850221191083"><ele>263.6</ele><time>2026-05-01T10:08:46Z</time></trkpt><trkpt lat="43.39085631075762" lon="10.84377117171601"><ele>261.8</ele><time>2026-05-01T10:08:47Z</time></trkpt><trkpt lat="43.39077307051861" lon="10.843697517009339"><ele>260.0</ele><time>2026-05-01T10:08:48Z</time></trkpt><trkpt lat="43.390683804664235" lon="10.84361985378802"><ele>260.0</ele><time>2026-05-01T10:08:49Z</time></trkpt><trkpt lat="43.39059294700538" lon="10.843539651310905"><ele>260.0</ele><time>2026-05-01T10:08:50Z</time></trkpt><trkpt lat="43.39050853811289" lon="10.843463218353921"><ele>260.0</ele><time>2026-05-01T10:08:51Z</time></trkpt><trkpt lat="43.39042623424279" lon="10.843385659995912"><ele>260.0</ele><time>2026-05-01T10:08:52Z</time></trkpt><trkpt lat="43.39035181623711" lon="10.84329944471455"><ele>260.0</ele><time>2026-05-01T10:08:53Z</time></trkpt><trkpt lat="43.39029943697028" lon="10.843189480245261"><ele>259.0</ele><time>2026-05-01T10:08:54Z</time></trkpt><trkpt lat="43.390281648365736" lon="10.843058963944848"><ele>258.0</ele><time>2026-05-01T10:08:55Z</time></trkpt><trkpt lat="43.39029231896218" lon="10.842928323935846"><ele>257.0</ele><time>2026-05-01T10:08:56Z</time></trkpt><trkpt lat="43.39031143704628" lon="10.842809639210397"><ele>256.0</ele><time>2026-05-01T10:08:57Z</time></trkpt><trkpt lat="43.39034857467588" lon="10.842694690477803"><ele>255.0</ele><time>2026-05-01T10:08:58Z</time></trkpt><trkpt lat="43.390409070173185" lon="10.84258994316851"><ele>252.2</ele><time>2026-05-01T10:08:59Z</time></trkpt><trkpt lat="43.39049509752761" lon="10.842518545131592"><ele>249.4</ele><time>2026-05-01T10:09:00Z</time></trkpt><trkpt lat="43.39059460825768" lon="10.842495001284664"><ele>246.60000000000002</ele><time>2026-05-01T10:09:01Z</time></trkpt><trkpt lat="43.390694996334425" lon="10.842521246923358"><ele>243.8</ele><time>2026-05-01T10:09:02Z</time></trkpt><trkpt lat="43.39077817833892" lon="10.842574929092137"><ele>241.0</ele><time>2026-05-01T10:09:03Z</time></trkpt><trkpt lat="43.390847495413176" lon="10.842627623544981"><ele>243.60000000000002</ele><time>2026-05-01T10:09:04Z</time></trkpt><trkpt lat="43.390942950493155" lon="10.842711149668771"><ele>246.20000000000002</ele><time>2026-05-01T10:09:06Z</time></trkpt><trkpt lat="43.39103686163158" lon="10.8427968669837"><ele>248.79999999999998</ele><time>2026-05-01T10:09:08Z</time></trkpt><trkpt lat="43.39114304106805" lon="10.84283723162903"><ele>251.39999999999998</ele><time>2026-05-01T10:09:10Z</time></trkpt><trkpt lat="43.391247028426854" lon="10.842777478728996"><ele>254.0</ele><time>2026-05-01T10:09:12Z</time></trkpt><trkpt lat="43.39129171646627" lon="10.842699840524403"><ele>251.83333333333334</ele><time>2026-05-01T10:09:13Z</time></trkpt><trkpt lat="43.391310336552976" lon="10.84259663879075"><ele>249.66666666666669</ele><time>2026-05-01T10:09:14Z</time></trkpt><trkpt lat="43.3912923446065" lon="10.842483791849608"><ele>247.5</ele><time>2026-05-01T10:09:15Z</time></trkpt><trkpt lat="43.39124106746561" lon="10.842388681542635"><ele>245.33333333333331</ele><time>2026-05-01T10:09:16Z</time></trkpt><trkpt lat="43.39117722293526" lon="10.842309237057425"><ele>243.16666666666666</ele><time>2026-05-01T10:09:17Z</time></trkpt><trkpt lat="43.39110658932514" lon="10.842228764885297"><ele>241.0</ele><time>2026-05-01T10:09:18Z</time></trkpt><trkpt lat="43.391037663066896" lon="10.842137869282915"><ele>241.0</ele><time>2026-05-01T10:09:19Z</time></trkpt><trkpt lat="43.390967061273344" lon="10.842040681052884"><ele>241.00000000000003</ele><time>2026-05-01T10:09:19.999Z</time></trkpt><trkpt lat="43.39088655274458" lon="10.841946618858815"><ele>241.00000000000003</ele><time>2026-05-01T10:09:20.999Z</time></trkpt><trkpt lat="43.390796867585635" lon="10.84186067011182"><ele>241.0</ele><time>2026-05-01T10:09:21.999Z</time></trkpt><trkpt lat="43.39069748120209" lon="10.841786150062466"><ele>241.0</ele><time>2026-05-01T10:09:22.999Z</time></trkpt><trkpt lat="43.39058959956446" lon="10.841733435900986"><ele>237.75</ele><time>2026-05-01T10:09:23.999Z</time></trkpt><trkpt lat="43.390477125092225" lon="10.841712541156628"><ele>234.5</ele><time>2026-05-01T10:09:24.999Z</time></trkpt><trkpt lat="43.390361870547196" lon="10.841727038862093"><ele>231.25</ele><time>2026-05-01T10:09:25.999Z</time></trkpt><trkpt lat="43.39024735171518" lon="10.841741384157586"><ele>228.0</ele><time>2026-05-01T10:09:26.999Z</time></trkpt><trkpt lat="43.39013317392877" lon="10.841750704628524"><ele>228.0</ele><time>2026-05-01T10:09:27.999Z</time></trkpt><trkpt lat="43.39002020385939" lon="10.8417549333327"><ele>228.0</ele><time>2026-05-01T10:09:28.999Z</time></trkpt><trkpt lat="43.38990739342005" lon="10.841756966961643"><ele>228.0</ele><time>2026-05-01T10:09:29.999Z</time></trkpt><trkpt lat="43.38979638335136" lon="10.841759401015056"><ele>228.0</ele><time>2026-05-01T10:09:30.999Z</time></trkpt><trkpt lat="43.38968398407472" lon="10.841762288843675"><ele>228.0</ele><time>2026-05-01T10:09:31.999Z</time></trkpt><trkpt lat="43.38957150241327" lon="10.84176643159935"><ele>227.5</ele><time>2026-05-01T10:09:32.999Z</time></trkpt><trkpt lat="43.389456936783105" lon="10.841767428044024"><ele>227.0</ele><time>2026-05-01T10:09:33.999Z</time></trkpt><trkpt lat="43.38934094853371" lon="10.84176984138931"><ele>226.5</ele><time>2026-05-01T10:09:34.999Z</time></trkpt><trkpt lat="43.3892242895423" lon="10.841757649506897"><ele>226.0</ele><time>2026-05-01T10:09:35.999Z</time></trkpt><trkpt lat="43.38911338870414" lon="10.841707827954396"><ele>226.0</ele><time>2026-05-01T10:09:36.999Z</time></trkpt><trkpt lat="43.38901814641493" lon="10.841615227994268"><ele>226.0</ele><time>2026-05-01T10:09:37.999Z</time></trkpt><trkpt lat="43.38894808336739" lon="10.841487088096278"><ele>226.0</ele><time>2026-05-01T10:09:38.999Z</time></trkpt><trkpt lat="43.388895368336264" lon="10.841339689427851"><ele>226.0</ele><time>2026-05-01T10:09:39.999Z</time></trkpt><trkpt lat="43.38884145921353" lon="10.84118516082"><ele>226.75</ele><time>2026-05-01T10:09:40.999Z</time></trkpt><trkpt lat="43.3887611155514" lon="10.841041376874658"><ele>227.5</ele><time>2026-05-01T10:09:41.999Z</time></trkpt><trkpt lat="43.388665478621576" lon="10.84091087791251"><ele>228.25</ele><time>2026-05-01T10:09:42.999Z</time></trkpt><trkpt lat="43.38856761930468" lon="10.840780738437347"><ele>229.0</ele><time>2026-05-01T10:09:43.999Z</time></trkpt><trkpt lat="43.388472839202734" lon="10.840647432784234"><ele>227.0</ele><time>2026-05-01T10:09:44.999Z</time></trkpt><trkpt lat="43.3883786620499" lon="10.84050932982002"><ele>225.0</ele><time>2026-05-01T10:09:45.999Z</time></trkpt><trkpt lat="43.38828288546933" lon="10.840370288728748"><ele>223.0</ele><time>2026-05-01T10:09:46.999Z</time></trkpt><trkpt lat="43.38818047961931" lon="10.840233746380076"><ele>221.0</ele><time>2026-05-01T10:09:47.999Z</time></trkpt><trkpt lat="43.38807135211147" lon="10.840110188968495"><ele>220.0</ele><time>2026-05-01T10:09:48.999Z</time></trkpt><trkpt lat="43.387952076485284" lon="10.839983559827369"><ele>219.0</ele><time>2026-05-01T10:09:49.999Z</time></trkpt><trkpt lat="43.38783078119037" lon="10.839852446992602"><ele>218.0</ele><time>2026-05-01T10:09:50.999Z</time></trkpt><trkpt lat="43.38771389287024" lon="10.839722862891403"><ele>218.0</ele><time>2026-05-01T10:09:51.999Z</time></trkpt><trkpt lat="43.3875966605019" lon="10.839594929760397"><ele>218.0</ele><time>2026-05-01T10:09:52.999Z</time></trkpt><trkpt lat="43.38748283615969" lon="10.839473811301488"><ele>218.0</ele><time>2026-05-01T10:09:53.999Z</time></trkpt><trkpt lat="43.38736793333543" lon="10.839353752438559"><ele>218.0</ele><time>2026-05-01T10:09:54.999Z</time></trkpt><trkpt lat="43.38725360208377" lon="10.839226345955792"><ele>216.5</ele><time>2026-05-01T10:09:55.999Z</time></trkpt><trkpt lat="43.387172582207725" lon="10.83905856031833"><ele>215.0</ele><time>2026-05-01T10:09:56.999Z</time></trkpt><trkpt lat="43.38711549348282" lon="10.838869567655951"><ele>213.5</ele><time>2026-05-01T10:09:57.999Z</time></trkpt><trkpt lat="43.38705026060849" lon="10.838683274708094"><ele>212.0</ele><time>2026-05-01T10:09:58.999Z</time></trkpt><trkpt lat="43.38698335155236" lon="10.838512160275513"><ele>208.66666666666669</ele><time>2026-05-01T10:09:59.999Z</time></trkpt><trkpt lat="43.386856473714545" lon="10.838377797407153"><ele>205.33333333333331</ele><time>2026-05-01T10:10:00.999Z</time></trkpt><trkpt lat="43.38669747455717" lon="10.8382821342238"><ele>202.0</ele><time>2026-05-01T10:10:01.999Z</time></trkpt><trkpt lat="43.38653220443397" lon="10.838186671063204"><ele>202.0</ele><time>2026-05-01T10:10:02.999Z</time></trkpt><trkpt lat="43.38636901761199" lon="10.838085089486386"><ele>202.0</ele><time>2026-05-01T10:10:03.999Z</time></trkpt><trkpt lat="43.386206361580896" lon="10.83797994004369"><ele>202.0</ele><time>2026-05-01T10:10:04.999Z</time></trkpt><trkpt lat="43.38604070136547" lon="10.837882998006986"><ele>200.66666666666666</ele><time>2026-05-01T10:10:05.999Z</time></trkpt><trkpt lat="43.385880948745175" lon="10.837797700842598"><ele>199.33333333333331</ele><time>2026-05-01T10:10:06.999Z</time></trkpt><trkpt lat="43.3857212023453" lon="10.837720614524873"><ele>198.0</ele><time>2026-05-01T10:10:07.999Z</time></trkpt><trkpt lat="43.3855618061708" lon="10.837662387156094"><ele>195.33333333333334</ele><time>2026-05-01T10:10:08.999Z</time></trkpt><trkpt lat="43.385401383046705" lon="10.837637933985972"><ele>192.66666666666669</ele><time>2026-05-01T10:10:09.999Z</time></trkpt><trkpt lat="43.385242647362844" lon="10.837634100771368"><ele>190.0</ele><time>2026-05-01T10:10:10.999Z</time></trkpt><trkpt lat="43.38509055699662" lon="10.837639757533072"><ele>189.33333333333334</ele><time>2026-05-01T10:10:11.999Z</time></trkpt><trkpt lat="43.38493847095139" lon="10.837616381376678"><ele>188.66666666666666</ele><time>2026-05-01T10:10:12.999Z</time></trkpt><trkpt lat="43.3847912873605" lon="10.837591504533583"><ele>188.0</ele><time>2026-05-01T10:10:13.999Z</time></trkpt><trkpt lat="43.3846456742402" lon="10.837531368905914"><ele>185.33333333333331</ele><time>2026-05-01T10:10:14.999Z</time></trkpt><trkpt lat="43.38452645108325" lon="10.837406145493167"><ele>182.66666666666666</ele><time>2026-05-01T10:10:15.999Z</time></trkpt><trkpt lat="43.384397472570136" lon="10.8372666943508"><ele>180.0</ele><time>2026-05-01T10:10:16.999Z</time></trkpt><trkpt lat="43.38426309361595" lon="10.837138032372634"><ele>180.0</ele><time>2026-05-01T10:10:17.999Z</time></trkpt><trkpt lat="43.38413935917038" lon="10.836981416838235"><ele>180.0</ele><time>2026-05-01T10:10:18.999Z</time></trkpt><trkpt lat="43.384014236041835" lon="10.83683457871345"><ele>180.0</ele><time>2026-05-01T10:10:19.999Z</time></trkpt><trkpt lat="43.38388717030856" lon="10.836693194391774"><ele>179.33333333333334</ele><time>2026-05-01T10:10:20.999Z</time></trkpt><trkpt lat="43.383759839839996" lon="10.836549713463056"><ele>178.66666666666669</ele><time>2026-05-01T10:10:21.999Z</time></trkpt><trkpt lat="43.38363815036152" lon="10.836415377535996"><ele>178.0</ele><time>2026-05-01T10:10:22.999Z</time></trkpt><trkpt lat="43.383516443280016" lon="10.836283831761206"><ele>178.0</ele><time>2026-05-01T10:10:23.999Z</time></trkpt><trkpt lat="43.38339937642853" lon="10.836155644037344"><ele>178.0</ele><time>2026-05-01T10:10:24.999Z</time></trkpt><trkpt lat="43.38329001326787" lon="10.836027914349051"><ele>178.0</ele><time>2026-05-01T10:10:25.999Z</time></trkpt><trkpt lat="43.38319143144823" lon="10.835881495140416"><ele>178.0</ele><time>2026-05-01T10:10:26.999Z</time></trkpt><trkpt lat="43.38307612936733" lon="10.835755528036774"><ele>177.5</ele><time>2026-05-01T10:10:27.999Z</time></trkpt><trkpt lat="43.38297756684051" lon="10.835611601596314"><ele>177.0</ele><time>2026-05-01T10:10:28.999Z</time></trkpt><trkpt lat="43.38287641053094" lon="10.83546687669581"><ele>176.5</ele><time>2026-05-01T10:10:29.999Z</time></trkpt><trkpt lat="43.38277319406808" lon="10.835316789112245"><ele>176.0</ele><time>2026-05-01T10:10:30.999Z</time></trkpt><trkpt lat="43.38266211594757" lon="10.835167651950513"><ele>176.33333333333331</ele><time>2026-05-01T10:10:31.999Z</time></trkpt><trkpt lat="43.3825518096461" lon="10.835017036526837"><ele>176.66666666666666</ele><time>2026-05-01T10:10:32.999Z</time></trkpt><trkpt lat="43.38243940535953" lon="10.834868630673967"><ele>177.0</ele><time>2026-05-01T10:10:33.999Z</time></trkpt><trkpt lat="43.382329501151794" lon="10.834716637338126"><ele>177.0</ele><time>2026-05-01T10:10:34.999Z</time></trkpt><trkpt lat="43.38222079916884" lon="10.834556945094308"><ele>177.0</ele><time>2026-05-01T10:10:35.999Z</time></trkpt><trkpt lat="43.38211280116777" lon="10.83439446840412"><ele>177.0</ele><time>2026-05-01T10:10:36.999Z</time></trkpt><trkpt lat="43.382012487701225" lon="10.834227307550094"><ele>176.33333333333334</ele><time>2026-05-01T10:10:37.999Z</time></trkpt><trkpt lat="43.38191639730357" lon="10.83405588167243"><ele>175.66666666666669</ele><time>2026-05-01T10:10:38.998Z</time></trkpt><trkpt lat="43.381822271795095" lon="10.833878486594333"><ele>175.0</ele><time>2026-05-01T10:10:40Z</time></trkpt><trkpt lat="43.38172526964171" lon="10.833704629191903"><ele>175.0</ele><time>2026-05-01T10:10:41Z</time></trkpt><trkpt lat="43.38162874730895" lon="10.83352829682126"><ele>175.0</ele><time>2026-05-01T10:10:42Z</time></trkpt><trkpt lat="43.38153066636099" lon="10.833357969855756"><ele>175.0</ele><time>2026-05-01T10:10:43Z</time></trkpt><trkpt lat="43.38143171292554" lon="10.833186375806152"><ele>171.66666666666669</ele><time>2026-05-01T10:10:44Z</time></trkpt><trkpt lat="43.38133983345925" lon="10.833017220779244"><ele>168.33333333333334</ele><time>2026-05-01T10:10:45Z</time></trkpt><trkpt lat="43.38124501343229" lon="10.832846061013164"><ele>165.0</ele><time>2026-05-01T10:10:46Z</time></trkpt><trkpt lat="43.38117649307242" lon="10.832653198565039"><ele>165.0</ele><time>2026-05-01T10:10:47Z</time></trkpt><trkpt lat="43.38109899896982" lon="10.832461052865908"><ele>165.0</ele><time>2026-05-01T10:10:48Z</time></trkpt><trkpt lat="43.38100898743346" lon="10.832275323280601"><ele>165.0</ele><time>2026-05-01T10:10:49Z</time></trkpt><trkpt lat="43.38095748263702" lon="10.832073823421602"><ele>165.0</ele><time>2026-05-01T10:10:50Z</time></trkpt><trkpt lat="43.38090917654284" lon="10.831869538765913"><ele>165.0</ele><time>2026-05-01T10:10:51Z</time></trkpt><trkpt lat="43.38086842620007" lon="10.831664072980821"><ele>165.0</ele><time>2026-05-01T10:10:52Z</time></trkpt><trkpt lat="43.380843004825074" lon="10.831450689408943"><ele>165.0</ele><time>2026-05-01T10:10:53Z</time></trkpt><trkpt lat="43.38079566788881" lon="10.831232776072076"><ele>165.0</ele><time>2026-05-01T10:10:54Z</time></trkpt><trkpt lat="43.380775590394535" lon="10.830998726460702"><ele>165.0</ele><time>2026-05-01T10:10:55Z</time></trkpt><trkpt lat="43.38080158188491" lon="10.830757952347849"><ele>163.66666666666666</ele><time>2026-05-01T10:10:56Z</time></trkpt><trkpt lat="43.380829318034465" lon="10.830495499423408"><ele>162.33333333333331</ele><time>2026-05-01T10:10:57Z</time></trkpt><trkpt lat="43.38084649644594" lon="10.830210013414465"><ele>161.0</ele><time>2026-05-01T10:10:58Z</time></trkpt><trkpt lat="43.38089321573601" lon="10.829915438165546"><ele>160.5</ele><time>2026-05-01T10:10:59Z</time></trkpt><trkpt lat="43.38092904063769" lon="10.829607706225405"><ele>160.0</ele><time>2026-05-01T10:11:00Z</time></trkpt><trkpt lat="43.38095745317101" lon="10.82929310523505"><ele>159.33333333333334</ele><time>2026-05-01T10:11:01Z</time></trkpt><trkpt lat="43.380985850976785" lon="10.82898899674524"><ele>158.66666666666666</ele><time>2026-05-01T10:11:02Z</time></trkpt><trkpt lat="43.3810229268022" lon="10.828700921206316"><ele>158.0</ele><time>2026-05-01T10:11:03Z</time></trkpt><trkpt lat="43.38106158172318" lon="10.828430959622827"><ele>159.33333333333331</ele><time>2026-05-01T10:11:04Z</time></trkpt><trkpt lat="43.381082358090836" lon="10.828180127840676"><ele>160.66666666666666</ele><time>2026-05-01T10:11:05Z</time></trkpt><trkpt lat="43.38106631643996" lon="10.827943791985504"><ele>162.0</ele><time>2026-05-01T10:11:06Z</time></trkpt><trkpt lat="43.3810164627727" lon="10.827728421307075"><ele>162.66666666666666</ele><time>2026-05-01T10:11:07Z</time></trkpt><trkpt lat="43.38095576541056" lon="10.827526394113583"><ele>163.33333333333331</ele><time>2026-05-01T10:11:08Z</time></trkpt><trkpt lat="43.3808933388981" lon="10.827336935417412"><ele>164.0</ele><time>2026-05-01T10:11:09Z</time></trkpt><trkpt lat="43.38080192008739" lon="10.827175047188216"><ele>164.0</ele><time>2026-05-01T10:11:10Z</time></trkpt><trkpt lat="43.38067271562548" lon="10.827047215250118"><ele>164.0</ele><time>2026-05-01T10:11:11Z</time></trkpt><trkpt lat="43.380528398456654" lon="10.82694892004605"><ele>164.0</ele><time>2026-05-01T10:11:12Z</time></trkpt><trkpt lat="43.38041668964952" lon="10.826812351499768"><ele>162.5</ele><time>2026-05-01T10:11:13Z</time></trkpt><trkpt lat="43.38034910913447" lon="10.826639920303936"><ele>161.0</ele><time>2026-05-01T10:11:13.999Z</time></trkpt><trkpt lat="43.380340017054685" lon="10.826448208626509"><ele>159.5</ele><time>2026-05-01T10:11:14.999Z</time></trkpt><trkpt lat="43.38033349323733" lon="10.826252931180665"><ele>158.0</ele><time>2026-05-01T10:11:15.999Z</time></trkpt><trkpt lat="43.38031726872301" lon="10.826070010276512"><ele>158.5</ele><time>2026-05-01T10:11:16.999Z</time></trkpt><trkpt lat="43.38031585158985" lon="10.825887327286821"><ele>159.0</ele><time>2026-05-01T10:11:17.999Z</time></trkpt><trkpt lat="43.38030875238001" lon="10.82571662803029"><ele>159.5</ele><time>2026-05-01T10:11:18.999Z</time></trkpt><trkpt lat="43.38030186039944" lon="10.825557174539565"><ele>160.0</ele><time>2026-05-01T10:11:19.999Z</time></trkpt><trkpt lat="43.38029092645946" lon="10.825377514718285"><ele>160.0</ele><time>2026-05-01T10:11:20.999Z</time></trkpt><trkpt lat="43.380263468278834" lon="10.825206047675023"><ele>160.0</ele><time>2026-05-01T10:11:21.999Z</time></trkpt><trkpt lat="43.38020132467546" lon="10.82505818234552"><ele>160.0</ele><time>2026-05-01T10:11:22.999Z</time></trkpt><trkpt lat="43.380105228328546" lon="10.824928833436601"><ele>160.0</ele><time>2026-05-01T10:11:23.999Z</time></trkpt><trkpt lat="43.379989472482706" lon="10.824821887725484"><ele>158.25</ele><time>2026-05-01T10:11:24.999Z</time></trkpt><trkpt lat="43.37986426373037" lon="10.82473239680737"><ele>156.5</ele><time>2026-05-01T10:11:25.999Z</time></trkpt><trkpt lat="43.37973640563289" lon="10.824654662613757"><ele>154.75</ele><time>2026-05-01T10:11:26.999Z</time></trkpt><trkpt lat="43.3796097293683" lon="10.824584399406154"><ele>153.0</ele><time>2026-05-01T10:11:27.999Z</time></trkpt><trkpt lat="43.379487166139036" lon="10.824515469696038"><ele>152.25</ele><time>2026-05-01T10:11:28.999Z</time></trkpt><trkpt lat="43.379375276429975" lon="10.82443693992322"><ele>151.5</ele><time>2026-05-01T10:11:29.999Z</time></trkpt><trkpt lat="43.379280363249805" lon="10.824325802869245"><ele>150.75</ele><time>2026-05-01T10:11:30.999Z</time></trkpt><trkpt lat="43.379187382446055" lon="10.824218783481037"><ele>150.0</ele><time>2026-05-01T10:11:31.999Z</time></trkpt><trkpt lat="43.37908690915263" lon="10.824120746978405"><ele>148.5</ele><time>2026-05-01T10:11:32.999Z</time></trkpt><trkpt lat="43.378995243388694" lon="10.82400004191226"><ele>147.0</ele><time>2026-05-01T10:11:33.999Z</time></trkpt><trkpt lat="43.37889387478503" lon="10.823887067316742"><ele>145.5</ele><time>2026-05-01T10:11:34.999Z</time></trkpt><trkpt lat="43.37877991569674" lon="10.823796880695323"><ele>144.0</ele><time>2026-05-01T10:11:35.999Z</time></trkpt><trkpt lat="43.378651280879446" lon="10.823742422335924"><ele>142.25</ele><time>2026-05-01T10:11:36.999Z</time></trkpt><trkpt lat="43.37851409214149" lon="10.823701022813314"><ele>140.5</ele><time>2026-05-01T10:11:37.999Z</time></trkpt><trkpt lat="43.37837517772157" lon="10.823657076377799"><ele>138.75</ele><time>2026-05-01T10:11:38.999Z</time></trkpt><trkpt lat="43.378234991628325" lon="10.823607606825151"><ele>137.0</ele><time>2026-05-01T10:11:39.999Z</time></trkpt><trkpt lat="43.37810110188158" lon="10.823551138622971"><ele>135.5</ele><time>2026-05-01T10:11:40.999Z</time></trkpt><trkpt lat="43.3779707872751" lon="10.82347584808555"><ele>134.0</ele><time>2026-05-01T10:11:41.999Z</time></trkpt><trkpt lat="43.377873279434255" lon="10.823341710564689"><ele>132.5</ele><time>2026-05-01T10:11:42.999Z</time></trkpt><trkpt lat="43.37779597105386" lon="10.823189853931089"><ele>131.0</ele><time>2026-05-01T10:11:43.999Z</time></trkpt><trkpt lat="43.377716960165564" lon="10.823039164737894"><ele>131.0</ele><time>2026-05-01T10:11:44.999Z</time></trkpt><trkpt lat="43.37765286478149" lon="10.822875937314777"><ele>131.0</ele><time>2026-05-01T10:11:45.999Z</time></trkpt><trkpt lat="43.377571853795786" lon="10.822728726870968"><ele>131.0</ele><time>2026-05-01T10:11:46.999Z</time></trkpt><trkpt lat="43.37747173140986" lon="10.822606324157686"><ele>131.0</ele><time>2026-05-01T10:11:47.999Z</time></trkpt><trkpt lat="43.377351674402895" lon="10.8225220299804"><ele>130.5</ele><time>2026-05-01T10:11:48.999Z</time></trkpt><trkpt lat="43.377218827542265" lon="10.822475295979848"><ele>130.0</ele><time>2026-05-01T10:11:49.999Z</time></trkpt><trkpt lat="43.37708357939968" lon="10.822456531094453"><ele>129.5</ele><time>2026-05-01T10:11:50.999Z</time></trkpt><trkpt lat="43.376968768754764" lon="10.822454249649349"><ele>129.0</ele><time>2026-05-01T10:11:51.999Z</time></trkpt><trkpt lat="43.37687918065331" lon="10.822453940351862"><ele>129.0</ele><time>2026-05-01T10:11:52.999Z</time></trkpt><trkpt lat="43.37679938384701" lon="10.822448435897213"><ele>129.0</ele><time>2026-05-01T10:11:53.999Z</time></trkpt><trkpt lat="43.37672425498678" lon="10.822440542853967"><ele>129.0</ele><time>2026-05-01T10:11:54.999Z</time></trkpt><trkpt lat="43.37664817035458" lon="10.8224347105993"><ele>129.0</ele><time>2026-05-01T10:11:55.999Z</time></trkpt><trkpt lat="43.376562883685914" lon="10.82242996736829"><ele>129.0</ele><time>2026-05-01T10:11:56.999Z</time></trkpt><trkpt lat="43.376471015667455" lon="10.822423970793102"><ele>129.0</ele><time>2026-05-01T10:11:57.999Z</time></trkpt><trkpt lat="43.376377733292465" lon="10.822417666479629"><ele>129.0</ele><time>2026-05-01T10:11:58.999Z</time></trkpt><trkpt lat="43.37627728373448" lon="10.822406709759983"><ele>129.0</ele><time>2026-05-01T10:11:59.999Z</time></trkpt><trkpt lat="43.376169908317785" lon="10.822394349448128"><ele>129.0</ele><time>2026-05-01T10:12:00.999Z</time></trkpt><trkpt lat="43.37605663644708" lon="10.822381728464824"><ele>129.0</ele><time>2026-05-01T10:12:01.999Z</time></trkpt><trkpt lat="43.3759396943692" lon="10.822368981677716"><ele>129.0</ele><time>2026-05-01T10:12:02.999Z</time></trkpt><trkpt lat="43.375820281696996" lon="10.82235335746063"><ele>129.0</ele><time>2026-05-01T10:12:03.999Z</time></trkpt><trkpt lat="43.37570042155063" lon="10.822333779515228"><ele>129.0</ele><time>2026-05-01T10:12:04.999Z</time></trkpt><trkpt lat="43.37558366789107" lon="10.822308649770756"><ele>129.0</ele><time>2026-05-01T10:12:05.999Z</time></trkpt><trkpt lat="43.37546963288946" lon="10.82227959860251"><ele>129.0</ele><time>2026-05-01T10:12:06.999Z</time></trkpt><trkpt lat="43.37536015997202" lon="10.822246765465113"><ele>129.8</ele><time>2026-05-01T10:12:07.999Z</time></trkpt><trkpt lat="43.37525403631597" lon="10.822214531249056"><ele>130.60000000000002</ele><time>2026-05-01T10:12:08.999Z</time></trkpt><trkpt lat="43.37515024281911" lon="10.822181037686777"><ele>131.4</ele><time>2026-05-01T10:12:09.999Z</time></trkpt><trkpt lat="43.37504694293639" lon="10.822148137602994"><ele>132.20000000000002</ele><time>2026-05-01T10:12:10.999Z</time></trkpt><trkpt lat="43.37494490200914" lon="10.822130172539898"><ele>133.0</ele><time>2026-05-01T10:12:11.999Z</time></trkpt><trkpt lat="43.37484635793592" lon="10.822134957197159"><ele>133.0</ele><time>2026-05-01T10:12:12.999Z</time></trkpt><trkpt lat="43.37476043791652" lon="10.822162038011317"><ele>133.0</ele><time>2026-05-01T10:12:13.999Z</time></trkpt><trkpt lat="43.3746857566969" lon="10.822202466714366"><ele>133.0</ele><time>2026-05-01T10:12:14.999Z</time></trkpt><trkpt lat="43.3746173467036" lon="10.822244195788192"><ele>133.0</ele><time>2026-05-01T10:12:15.999Z</time></trkpt><trkpt lat="43.37454726595182" lon="10.822286095149806"><ele>133.0</ele><time>2026-05-01T10:12:16.999Z</time></trkpt><trkpt lat="43.37447252940798" lon="10.822329256350695"><ele>133.0</ele><time>2026-05-01T10:12:17.999Z</time></trkpt><trkpt lat="43.37439466688215" lon="10.82237335288927"><ele>133.0</ele><time>2026-05-01T10:12:18.999Z</time></trkpt><trkpt lat="43.37430719001224" lon="10.822421014030871"><ele>133.0</ele><time>2026-05-01T10:12:19.999Z</time></trkpt><trkpt lat="43.37421701747076" lon="10.82245769723832"><ele>133.0</ele><time>2026-05-01T10:12:20.999Z</time></trkpt><trkpt lat="43.37412180358132" lon="10.822485057222982"><ele>133.0</ele><time>2026-05-01T10:12:21.999Z</time></trkpt><trkpt lat="43.37402173444751" lon="10.822503106840877"><ele>133.0</ele><time>2026-05-01T10:12:22.999Z</time></trkpt><trkpt lat="43.373918202470215" lon="10.822511855997286"><ele>131.6</ele><time>2026-05-01T10:12:23.999Z</time></trkpt><trkpt lat="43.373812176407654" lon="10.822514411424969"><ele>130.20000000000002</ele><time>2026-05-01T10:12:24.999Z</time></trkpt><trkpt lat="43.37370467563899" lon="10.822509638380087"><ele>128.8</ele><time>2026-05-01T10:12:25.999Z</time></trkpt><trkpt lat="43.37359534748336" lon="10.822490431247555"><ele>127.4</ele><time>2026-05-01T10:12:26.999Z</time></trkpt><trkpt lat="43.373489323636605" lon="10.822447112112002"><ele>126.0</ele><time>2026-05-01T10:12:27.999Z</time></trkpt><trkpt lat="43.37339024477162" lon="10.822383485328759"><ele>126.0</ele><time>2026-05-01T10:12:28.998Z</time></trkpt><trkpt lat="43.37329948269645" lon="10.822299611679629"><ele>126.0</ele><time>2026-05-01T10:12:29.998Z</time></trkpt><trkpt lat="43.37322083443447" lon="10.82219596798057"><ele>126.0</ele><time>2026-05-01T10:12:30.998Z</time></trkpt><trkpt lat="43.37314599137459" lon="10.822086108821168"><ele>126.0</ele><time>2026-05-01T10:12:31.998Z</time></trkpt><trkpt lat="43.373070225892164" lon="10.821979946321715"><ele>126.0</ele><time>2026-05-01T10:12:32.998Z</time></trkpt><trkpt lat="43.37298994128391" lon="10.8218851679831"><ele>125.6</ele><time>2026-05-01T10:12:33.998Z</time></trkpt><trkpt lat="43.372906551506716" lon="10.82181465565952"><ele>125.19999999999999</ele><time>2026-05-01T10:12:34.998Z</time></trkpt><trkpt lat="43.37282151028012" lon="10.821770170204534"><ele>124.80000000000001</ele><time>2026-05-01T10:12:35.998Z</time></trkpt><trkpt lat="43.372736102272135" lon="10.821748901067172"><ele>124.4</ele><time>2026-05-01T10:12:36.998Z</time></trkpt><trkpt lat="43.37264687775268" lon="10.821747542876599"><ele>124.0</ele><time>2026-05-01T10:12:37.998Z</time></trkpt><trkpt lat="43.37255529163234" lon="10.821763419701474"><ele>124.0</ele><time>2026-05-01T10:12:38.998Z</time></trkpt><trkpt lat="43.372462777117676" lon="10.821777062984495"><ele>124.0</ele><time>2026-05-01T10:12:39.998Z</time></trkpt><trkpt lat="43.3723688823087" lon="10.821777264102177"><ele>124.0</ele><time>2026-05-01T10:12:40.998Z</time></trkpt><trkpt lat="43.37227487810113" lon="10.821757314450766"><ele>124.0</ele><time>2026-05-01T10:12:41.998Z</time></trkpt><trkpt lat="43.372180340779344" lon="10.821710778167407"><ele>124.0</ele><time>2026-05-01T10:12:42.998Z</time></trkpt><trkpt lat="43.37209285499933" lon="10.821649122600048"><ele>124.0</ele><time>2026-05-01T10:12:43.998Z</time></trkpt><trkpt lat="43.37200698429434" lon="10.821577217723386"><ele>124.0</ele><time>2026-05-01T10:12:44.998Z</time></trkpt><trkpt lat="43.3719181025053" lon="10.821498397093347"><ele>124.0</ele><time>2026-05-01T10:12:46Z</time></trkpt><trkpt lat="43.37182778898148" lon="10.821419504100147"><ele>124.0</ele><time>2026-05-01T10:12:47Z</time></trkpt><trkpt lat="43.37173664575674" lon="10.82133655319506"><ele>124.0</ele><time>2026-05-01T10:12:48Z</time></trkpt><trkpt lat="43.37164502560572" lon="10.821251588322934"><ele>124.0</ele><time>2026-05-01T10:12:49Z</time></trkpt><trkpt lat="43.371550419545024" lon="10.821169310347386"><ele>124.0</ele><time>2026-05-01T10:12:50Z</time></trkpt><trkpt lat="43.37145427671306" lon="10.821082196817963"><ele>124.0</ele><time>2026-05-01T10:12:51Z</time></trkpt><trkpt lat="43.37135718867054" lon="10.82099757199505"><ele>124.0</ele><time>2026-05-01T10:12:52Z</time></trkpt><trkpt lat="43.37125975353821" lon="10.820912109907734"><ele>123.75</ele><time>2026-05-01T10:12:53Z</time></trkpt><trkpt lat="43.37115229904551" lon="10.820819134176883"><ele>123.5</ele><time>2026-05-01T10:12:54Z</time></trkpt><trkpt lat="43.37104190565589" lon="10.820718046848524"><ele>123.25</ele><time>2026-05-01T10:12:55Z</time></trkpt><trkpt lat="43.37092395928011" lon="10.820615372828277"><ele>123.0</ele><time>2026-05-01T10:12:56Z</time></trkpt><trkpt lat="43.370802084869645" lon="10.820508690451923"><ele>123.0</ele><time>2026-05-01T10:12:57Z</time></trkpt><trkpt lat="43.37068616267915" lon="10.82040493014832"><ele>123.0</ele><time>2026-05-01T10:12:58Z</time></trkpt><trkpt lat="43.37057197120836" lon="10.820301170742486"><ele>123.0</ele><time>2026-05-01T10:12:59Z</time></trkpt><trkpt lat="43.37046250031926" lon="10.820191792761424"><ele>123.0</ele><time>2026-05-01T10:13:00Z</time></trkpt><trkpt lat="43.370358955813366" lon="10.820073027985417"><ele>123.0</ele><time>2026-05-01T10:13:01Z</time></trkpt><trkpt lat="43.37027019727565" lon="10.81994573745567"><ele>123.0</ele><time>2026-05-01T10:13:02Z</time></trkpt><trkpt lat="43.37018060304947" lon="10.81980746029573"><ele>123.0</ele><time>2026-05-01T10:13:03Z</time></trkpt><trkpt lat="43.37010107189105" lon="10.819668322406999"><ele>123.0</ele><time>2026-05-01T10:13:04Z</time></trkpt><trkpt lat="43.37002379516559" lon="10.819530364651142"><ele>123.0</ele><time>2026-05-01T10:13:05Z</time></trkpt><trkpt lat="43.36994764991165" lon="10.819391547904246"><ele>123.0</ele><time>2026-05-01T10:13:06Z</time></trkpt><trkpt lat="43.36987173961384" lon="10.819250886213894"><ele>123.0</ele><time>2026-05-01T10:13:07Z</time></trkpt><trkpt lat="43.3697979731283" lon="10.81911286128289"><ele>123.0</ele><time>2026-05-01T10:13:08Z</time></trkpt><trkpt lat="43.36971047109036" lon="10.818976459607159"><ele>123.5</ele><time>2026-05-01T10:13:09Z</time></trkpt><trkpt lat="43.369641210473894" lon="10.818836453477589"><ele>124.0</ele><time>2026-05-01T10:13:10Z</time></trkpt><trkpt lat="43.369577381128536" lon="10.818695823158595"><ele>124.5</ele><time>2026-05-01T10:13:11Z</time></trkpt><trkpt lat="43.36950986055302" lon="10.81854481663571"><ele>125.0</ele><time>2026-05-01T10:13:12Z</time></trkpt><trkpt lat="43.36944446182879" lon="10.818391266010007"><ele>123.5</ele><time>2026-05-01T10:13:13Z</time></trkpt><trkpt lat="43.36939409371848" lon="10.81823127834227"><ele>122.0</ele><time>2026-05-01T10:13:14Z</time></trkpt><trkpt lat="43.36934592272553" lon="10.818062088335495"><ele>120.5</ele><time>2026-05-01T10:13:15Z</time></trkpt><trkpt lat="43.36930278448731" lon="10.81789218380211"><ele>119.0</ele><time>2026-05-01T10:13:16Z</time></trkpt><trkpt lat="43.369261281008285" lon="10.817726199489977"><ele>117.0</ele><time>2026-05-01T10:13:17Z</time></trkpt><trkpt lat="43.36921360883578" lon="10.817566207918707"><ele>115.0</ele><time>2026-05-01T10:13:18Z</time></trkpt><trkpt lat="43.36916695274032" lon="10.817412651528086"><ele>113.0</ele><time>2026-05-01T10:13:19Z</time></trkpt><trkpt lat="43.36912355309196" lon="10.817265608510217"><ele>111.0</ele><time>2026-05-01T10:13:20Z</time></trkpt><trkpt lat="43.36908308062875" lon="10.817120155694454"><ele>111.0</ele><time>2026-05-01T10:13:21Z</time></trkpt><trkpt lat="43.36904192681788" lon="10.816974680098047"><ele>111.0</ele><time>2026-05-01T10:13:22Z</time></trkpt><trkpt lat="43.36899724824508" lon="10.81683521020531"><ele>111.0</ele><time>2026-05-01T10:13:23Z</time></trkpt><trkpt lat="43.36895624165229" lon="10.8167008674731"><ele>111.0</ele><time>2026-05-01T10:13:24Z</time></trkpt><trkpt lat="43.368897384505615" lon="10.816581041002683"><ele>111.0</ele><time>2026-05-01T10:13:25Z</time></trkpt><trkpt lat="43.36881812160378" lon="10.816488568711925"><ele>110.16666666666667</ele><time>2026-05-01T10:13:26Z</time></trkpt><trkpt lat="43.368732672397215" lon="10.816426005377922"><ele>109.33333333333334</ele><time>2026-05-01T10:13:27Z</time></trkpt><trkpt lat="43.3686472646864" lon="10.816371836601324"><ele>108.5</ele><time>2026-05-01T10:13:28Z</time></trkpt><trkpt lat="43.36859011889091" lon="10.816287000502689"><ele>107.66666666666667</ele><time>2026-05-01T10:13:29Z</time></trkpt><trkpt lat="43.36855426027976" lon="10.81619236131983"><ele>106.83333333333334</ele><time>2026-05-01T10:13:30Z</time></trkpt><trkpt lat="43.368507775105606" lon="10.816081366145754"><ele>106.0</ele><time>2026-05-01T10:13:31Z</time></trkpt><trkpt lat="43.36849382859799" lon="10.815948047115619"><ele>105.0</ele><time>2026-05-01T10:13:32Z</time></trkpt><trkpt lat="43.36848703002682" lon="10.815803654015417"><ele>104.0</ele><time>2026-05-01T10:13:33Z</time></trkpt><trkpt lat="43.368490475031535" lon="10.815652546046076"><ele>103.0</ele><time>2026-05-01T10:13:34Z</time></trkpt><trkpt lat="43.36850288449195" lon="10.815512867314089"><ele>102.0</ele><time>2026-05-01T10:13:35Z</time></trkpt><trkpt lat="43.3685087951597" lon="10.81537835728579"><ele>101.0</ele><time>2026-05-01T10:13:36Z</time></trkpt><trkpt lat="43.36850485173147" lon="10.81525411884136"><ele>100.0</ele><time>2026-05-01T10:13:36.999Z</time></trkpt><trkpt lat="43.368489673104726" lon="10.81513233896619"><ele>99.0</ele><time>2026-05-01T10:13:37.999Z</time></trkpt><trkpt lat="43.368460489317215" lon="10.815017863254727"><ele>98.0</ele><time>2026-05-01T10:13:38.999Z</time></trkpt><trkpt lat="43.36841483725667" lon="10.814911826629434"><ele>97.0</ele><time>2026-05-01T10:13:39.999Z</time></trkpt><trkpt lat="43.36834466269903" lon="10.814823562922504"><ele>96.0</ele><time>2026-05-01T10:13:40.999Z</time></trkpt><trkpt lat="43.36826087738631" lon="10.814761840938399"><ele>96.0</ele><time>2026-05-01T10:13:41.999Z</time></trkpt><trkpt lat="43.36816981825572" lon="10.814738847993867"><ele>96.0</ele><time>2026-05-01T10:13:42.999Z</time></trkpt><trkpt lat="43.368071557906426" lon="10.814740719893464"><ele>96.0</ele><time>2026-05-01T10:13:43.999Z</time></trkpt><trkpt lat="43.36797685186397" lon="10.814761816945639"><ele>96.0</ele><time>2026-05-01T10:13:44.999Z</time></trkpt><trkpt lat="43.367890884616266" lon="10.814774863474275"><ele>96.0</ele><time>2026-05-01T10:13:45.999Z</time></trkpt><trkpt lat="43.36780746288407" lon="10.814796293236778"><ele>95.66666666666667</ele><time>2026-05-01T10:13:46.999Z</time></trkpt><trkpt lat="43.36772582389413" lon="10.814828293226796"><ele>95.33333333333333</ele><time>2026-05-01T10:13:47.999Z</time></trkpt><trkpt lat="43.367648322378166" lon="10.814861185261824"><ele>95.0</ele><time>2026-05-01T10:13:48.999Z</time></trkpt><trkpt lat="43.36756275078899" lon="10.814899702886974"><ele>94.66666666666666</ele><time>2026-05-01T10:13:49.999Z</time></trkpt><trkpt lat="43.3674739052184" lon="10.814931790670435"><ele>94.33333333333333</ele><time>2026-05-01T10:13:50.999Z</time></trkpt><trkpt lat="43.36737946201274" lon="10.814965463899128"><ele>94.0</ele><time>2026-05-01T10:13:51.999Z</time></trkpt><trkpt lat="43.36728183036458" lon="10.814999228642705"><ele>93.6</ele><time>2026-05-01T10:13:52.999Z</time></trkpt><trkpt lat="43.36718286239729" lon="10.815040787464492"><ele>93.2</ele><time>2026-05-01T10:13:53.999Z</time></trkpt><trkpt lat="43.3670787049067" lon="10.815086785631337"><ele>92.8</ele><time>2026-05-01T10:13:54.999Z</time></trkpt><trkpt lat="43.366970355472766" lon="10.815123784208726"><ele>92.39999999999999</ele><time>2026-05-01T10:13:55.999Z</time></trkpt><trkpt lat="43.36685409096412" lon="10.815107418233076"><ele>92.0</ele><time>2026-05-01T10:13:56.999Z</time></trkpt><trkpt lat="43.366735051074755" lon="10.815081620349888"><ele>92.0</ele><time>2026-05-01T10:13:57.999Z</time></trkpt><trkpt lat="43.366610969882124" lon="10.815059674046342"><ele>92.0</ele><time>2026-05-01T10:13:58.999Z</time></trkpt><trkpt lat="43.36649836579128" lon="10.81499722244269"><ele>92.0</ele><time>2026-05-01T10:13:59.999Z</time></trkpt><trkpt lat="43.36638939112685" lon="10.814940027926841"><ele>92.0</ele><time>2026-05-01T10:14:00.999Z</time></trkpt><trkpt lat="43.366283711619694" lon="10.814883723790851"><ele>90.19999999999999</ele><time>2026-05-01T10:14:01.999Z</time></trkpt><trkpt lat="43.366180194066494" lon="10.814832169196047"><ele>88.4</ele><time>2026-05-01T10:14:02.999Z</time></trkpt><trkpt lat="43.36607939840052" lon="10.814778913776614"><ele>86.6</ele><time>2026-05-01T10:14:03.999Z</time></trkpt><trkpt lat="43.36598576833567" lon="10.814723970092972"><ele>84.80000000000001</ele><time>2026-05-01T10:14:04.999Z</time></trkpt><trkpt lat="43.365894616627536" lon="10.814661154875335"><ele>83.0</ele><time>2026-05-01T10:14:05.999Z</time></trkpt><trkpt lat="43.365806666784664" lon="10.814593072010666"><ele>83.0</ele><time>2026-05-01T10:14:06.999Z</time></trkpt><trkpt lat="43.36571755121545" lon="10.814518581433674"><ele>83.0</ele><time>2026-05-01T10:14:07.999Z</time></trkpt><trkpt lat="43.36562368467975" lon="10.814435604196785"><ele>83.0</ele><time>2026-05-01T10:14:08.999Z</time></trkpt><trkpt lat="43.365526640293055" lon="10.814347827306156"><ele>83.0</ele><time>2026-05-01T10:14:09.999Z</time></trkpt><trkpt lat="43.36542585481577" lon="10.814259260592275"><ele>82.0</ele><time>2026-05-01T10:14:10.999Z</time></trkpt><trkpt lat="43.36533553203804" lon="10.814145275371985"><ele>81.0</ele><time>2026-05-01T10:14:11.999Z</time></trkpt><trkpt lat="43.3652402728202" lon="10.814059440781177"><ele>80.0</ele><time>2026-05-01T10:14:12.999Z</time></trkpt><trkpt lat="43.36513589138793" lon="10.813995433326554"><ele>79.0</ele><time>2026-05-01T10:14:13.999Z</time></trkpt><trkpt lat="43.36504622840742" lon="10.813905040813742"><ele>79.0</ele><time>2026-05-01T10:14:14.999Z</time></trkpt><trkpt lat="43.36495902419822" lon="10.813820321952324"><ele>79.0</ele><time>2026-05-01T10:14:15.999Z</time></trkpt><trkpt lat="43.364878847048786" lon="10.813742068979224"><ele>79.0</ele><time>2026-05-01T10:14:16.999Z</time></trkpt><trkpt lat="43.36480426323541" lon="10.813670909678732"><ele>79.0</ele><time>2026-05-01T10:14:17.999Z</time></trkpt><trkpt lat="43.36473044022656" lon="10.81359977148377"><ele>79.0</ele><time>2026-05-01T10:14:18.999Z</time></trkpt><trkpt lat="43.36465427933728" lon="10.8135305536551"><ele>78.83333333333333</ele><time>2026-05-01T10:14:19.999Z</time></trkpt><trkpt lat="43.36457919243119" lon="10.813461908374862"><ele>78.66666666666666</ele><time>2026-05-01T10:14:20.999Z</time></trkpt><trkpt lat="43.36450618436238" lon="10.81339442852424"><ele>78.5</ele><time>2026-05-01T10:14:21.999Z</time></trkpt><trkpt lat="43.364434886673685" lon="10.813329399285982"><ele>78.33333333333333</ele><time>2026-05-01T10:14:22.999Z</time></trkpt><trkpt lat="43.364365259414235" lon="10.813266389776349"><ele>78.16666666666667</ele><time>2026-05-01T10:14:23.999Z</time></trkpt><trkpt lat="43.36430776499487" lon="10.813185325858834"><ele>78.0</ele><time>2026-05-01T10:14:24.999Z</time></trkpt><trkpt lat="43.36424175495847" lon="10.813123538723985"><ele>78.0</ele><time>2026-05-01T10:14:25.999Z</time></trkpt><trkpt lat="43.36417556320612" lon="10.813061579841598"><ele>78.0</ele><time>2026-05-01T10:14:26.999Z</time></trkpt><trkpt lat="43.364113161920336" lon="10.813003169141764"><ele>78.0</ele><time>2026-05-01T10:14:27.999Z</time></trkpt><trkpt lat="43.36404895420817" lon="10.812943067448488"><ele>78.0</ele><time>2026-05-01T10:14:29.999Z</time></trkpt><trkpt lat="43.36397753036641" lon="10.812875980345964"><ele>78.0</ele><time>2026-05-01T10:14:38.999Z</time></trkpt><trkpt lat="43.363921488408096" lon="10.812821336348723"><ele>78.0</ele><time>2026-05-01T10:14:40.999Z</time></trkpt><trkpt lat="43.36383809856466" lon="10.812750478524125"><ele>78.2</ele><time>2026-05-01T10:14:43.999Z</time></trkpt><trkpt lat="43.36373287036571" lon="10.812676645490756"><ele>78.4</ele><time>2026-05-01T10:14:45.999Z</time></trkpt><trkpt lat="43.36365825610511" lon="10.812668600908637"><ele>78.60000000000001</ele><time>2026-05-01T10:14:46.999Z</time></trkpt><trkpt lat="43.36357581050494" lon="10.81264023599355"><ele>78.8</ele><time>2026-05-01T10:14:47.999Z</time></trkpt><trkpt lat="43.363486696299134" lon="10.812636374447987"><ele>79.0</ele><time>2026-05-01T10:14:48.999Z</time></trkpt><trkpt lat="43.36339713149734" lon="10.812635731748585"><ele>79.0</ele><time>2026-05-01T10:14:49.999Z</time></trkpt><trkpt lat="43.36330860952677" lon="10.812635115852139"><ele>79.0</ele><time>2026-05-01T10:14:50.999Z</time></trkpt><trkpt lat="43.36321975596422" lon="10.812655511155665"><ele>79.0</ele><time>2026-05-01T10:14:52Z</time></trkpt><trkpt lat="43.36312824971413" lon="10.812653580872858"><ele>79.0</ele><time>2026-05-01T10:14:53Z</time></trkpt><trkpt lat="43.363032394847046" lon="10.812652465219855"><ele>79.0</ele><time>2026-05-01T10:14:54Z</time></trkpt><trkpt lat="43.36293695074831" lon="10.812651817831638"><ele>79.0</ele><time>2026-05-01T10:14:55Z</time></trkpt><trkpt lat="43.362841370061254" lon="10.812651042217864"><ele>79.0</ele><time>2026-05-01T10:14:56Z</time></trkpt><trkpt lat="43.36272874266004" lon="10.81265329560933"><ele>79.0</ele><time>2026-05-01T10:14:57Z</time></trkpt><trkpt lat="43.36261082748277" lon="10.81265348397662"><ele>79.0</ele><time>2026-05-01T10:14:58Z</time></trkpt><trkpt lat="43.362491547914665" lon="10.812651009189144"><ele>79.0</ele><time>2026-05-01T10:14:59Z</time></trkpt><trkpt lat="43.36237078430294" lon="10.812648095935492"><ele>79.0</ele><time>2026-05-01T10:15:00Z</time></trkpt><trkpt lat="43.3622526222769" lon="10.8126400612172"><ele>79.0</ele><time>2026-05-01T10:15:01Z</time></trkpt><trkpt lat="43.36213675767214" lon="10.81262735964124"><ele>79.0</ele><time>2026-05-01T10:15:02Z</time></trkpt><trkpt lat="43.36202560484387" lon="10.81260771024154"><ele>79.0</ele><time>2026-05-01T10:15:03Z</time></trkpt><trkpt lat="43.36192372156417" lon="10.812563301249003"><ele>78.4</ele><time>2026-05-01T10:15:04Z</time></trkpt><trkpt lat="43.3618261242898" lon="10.81253377560712"><ele>77.80000000000001</ele><time>2026-05-01T10:15:05Z</time></trkpt><trkpt lat="43.36173381164402" lon="10.812495186460431"><ele>77.19999999999999</ele><time>2026-05-01T10:15:06Z</time></trkpt><trkpt lat="43.3616524538387" lon="10.812451333390019"><ele>76.6</ele><time>2026-05-01T10:15:07Z</time></trkpt><trkpt lat="43.36157886909341" lon="10.812401889895051"><ele>76.0</ele><time>2026-05-01T10:15:08Z</time></trkpt><trkpt lat="43.361498180126894" lon="10.812343374097713"><ele>76.0</ele><time>2026-05-01T10:15:09Z</time></trkpt><trkpt lat="43.361415787747305" lon="10.812278903327703"><ele>76.0</ele><time>2026-05-01T10:15:10Z</time></trkpt><trkpt lat="43.36133371846333" lon="10.812204367040342"><ele>76.0</ele><time>2026-05-01T10:15:11Z</time></trkpt><trkpt lat="43.36125123871322" lon="10.812118084870367"><ele>76.0</ele><time>2026-05-01T10:15:12Z</time></trkpt><trkpt lat="43.36118176104881" lon="10.81202010801033"><ele>76.0</ele><time>2026-05-01T10:15:13Z</time></trkpt><trkpt lat="43.361107413841886" lon="10.81190730054224"><ele>75.8</ele><time>2026-05-01T10:15:14Z</time></trkpt><trkpt lat="43.36103759078408" lon="10.811794826885487"><ele>75.6</ele><time>2026-05-01T10:15:15Z</time></trkpt><trkpt lat="43.360968173224066" lon="10.811677625616985"><ele>75.4</ele><time>2026-05-01T10:15:16Z</time></trkpt><trkpt lat="43.360902079165676" lon="10.811558106125043"><ele>75.2</ele><time>2026-05-01T10:15:17Z</time></trkpt><trkpt lat="43.36083691891518" lon="10.811436970550425"><ele>75.0</ele><time>2026-05-01T10:15:18Z</time></trkpt><trkpt lat="43.36075856229783" lon="10.811327021978068"><ele>75.0</ele><time>2026-05-01T10:15:19Z</time></trkpt><trkpt lat="43.360696350989485" lon="10.811202847899835"><ele>75.0</ele><time>2026-05-01T10:15:20Z</time></trkpt><trkpt lat="43.360637665081626" lon="10.811078027940402"><ele>75.0</ele><time>2026-05-01T10:15:21Z</time></trkpt><trkpt lat="43.36060431912992" lon="10.810938574823682"><ele>75.0</ele><time>2026-05-01T10:15:22Z</time></trkpt><trkpt lat="43.36054320099666" lon="10.81081042761838"><ele>75.0</ele><time>2026-05-01T10:15:23Z</time></trkpt><trkpt lat="43.36049956411053" lon="10.81066328375302"><ele>74.25</ele><time>2026-05-01T10:15:24Z</time></trkpt><trkpt lat="43.360453945499636" lon="10.810505682393533"><ele>73.5</ele><time>2026-05-01T10:15:25Z</time></trkpt><trkpt lat="43.36040373353971" lon="10.810343896403587"><ele>72.75</ele><time>2026-05-01T10:15:26Z</time></trkpt><trkpt lat="43.36035322892369" lon="10.810176413511266"><ele>72.0</ele><time>2026-05-01T10:15:27Z</time></trkpt><trkpt lat="43.36029869050175" lon="10.810003482789893"><ele>72.0</ele><time>2026-05-01T10:15:28Z</time></trkpt><trkpt lat="43.360247728420156" lon="10.809834153339315"><ele>72.0</ele><time>2026-05-01T10:15:29Z</time></trkpt><trkpt lat="43.360200479739234" lon="10.809684156540095"><ele>72.0</ele><time>2026-05-01T10:15:30Z</time></trkpt><trkpt lat="43.36015301413874" lon="10.809543799447372"><ele>72.0</ele><time>2026-05-01T10:15:31Z</time></trkpt><trkpt lat="43.3601055857983" lon="10.80940120043521"><ele>72.5</ele><time>2026-05-01T10:15:32Z</time></trkpt><trkpt lat="43.36005845100049" lon="10.809254298426007"><ele>73.0</ele><time>2026-05-01T10:15:33Z</time></trkpt><trkpt lat="43.36000887249441" lon="10.80910330335324"><ele>73.5</ele><time>2026-05-01T10:15:34Z</time></trkpt><trkpt lat="43.35995821781072" lon="10.80894992777041"><ele>74.0</ele><time>2026-05-01T10:15:35Z</time></trkpt><trkpt lat="43.35990917946457" lon="10.808794753480791"><ele>74.0</ele><time>2026-05-01T10:15:36Z</time></trkpt><trkpt lat="43.359861815062295" lon="10.808637012370264"><ele>74.0</ele><time>2026-05-01T10:15:37Z</time></trkpt><trkpt lat="43.35981279248299" lon="10.808478215259278"><ele>74.0</ele><time>2026-05-01T10:15:38Z</time></trkpt><trkpt lat="43.359764036030924" lon="10.808322958597595"><ele>74.0</ele><time>2026-05-01T10:15:38.999Z</time></trkpt><trkpt lat="43.35971432976189" lon="10.808163248334608"><ele>73.0</ele><time>2026-05-01T10:15:39.999Z</time></trkpt><trkpt lat="43.3596687203547" lon="10.808009407840771"><ele>72.0</ele><time>2026-05-01T10:15:40.999Z</time></trkpt><trkpt lat="43.35962092160339" lon="10.807853620189263"><ele>71.0</ele><time>2026-05-01T10:15:41.999Z</time></trkpt><trkpt lat="43.359573678249156" lon="10.807700798944413"><ele>70.0</ele><time>2026-05-01T10:15:42.999Z</time></trkpt><trkpt lat="43.35952871257739" lon="10.807549556667622"><ele>70.0</ele><time>2026-05-01T10:15:43.999Z</time></trkpt><trkpt lat="43.359483482486574" lon="10.807401135103301"><ele>70.0</ele><time>2026-05-01T10:15:44.999Z</time></trkpt><trkpt lat="43.35943694181589" lon="10.807257471396321"><ele>70.0</ele><time>2026-05-01T10:15:45.999Z</time></trkpt><trkpt lat="43.359391922450996" lon="10.807114782726437"><ele>70.0</ele><time>2026-05-01T10:15:46.999Z</time></trkpt><trkpt lat="43.35936262213808" lon="10.806963176797503"><ele>69.8</ele><time>2026-05-01T10:15:47.999Z</time></trkpt><trkpt lat="43.359319629241206" lon="10.806824580560741"><ele>69.6</ele><time>2026-05-01T10:15:48.999Z</time></trkpt><trkpt lat="43.359279931412715" lon="10.806686165800782"><ele>69.4</ele><time>2026-05-01T10:15:49.999Z</time></trkpt><trkpt lat="43.3592436409605" lon="10.806555070152552"><ele>69.2</ele><time>2026-05-01T10:15:50.999Z</time></trkpt><trkpt lat="43.359202787895526" lon="10.806434402076258"><ele>69.0</ele><time>2026-05-01T10:15:51.999Z</time></trkpt><trkpt lat="43.35919732210331" lon="10.806307815419798"><ele>69.0</ele><time>2026-05-01T10:15:52.999Z</time></trkpt><trkpt lat="43.3592092158557" lon="10.806160720139792"><ele>69.0</ele><time>2026-05-01T10:15:53.999Z</time></trkpt><trkpt lat="43.359229052355005" lon="10.806005856793409"><ele>69.0</ele><time>2026-05-01T10:15:54.999Z</time></trkpt><trkpt lat="43.35924727859988" lon="10.805843593217968"><ele>69.0</ele><time>2026-05-01T10:15:55.999Z</time></trkpt><trkpt lat="43.359281033711454" lon="10.80568371946115"><ele>69.0</ele><time>2026-05-01T10:15:56.999Z</time></trkpt><trkpt lat="43.35930004318706" lon="10.805521112293455"><ele>69.0</ele><time>2026-05-01T10:15:57.999Z</time></trkpt><trkpt lat="43.35931884163324" lon="10.805360562366278"><ele>69.0</ele><time>2026-05-01T10:15:58.999Z</time></trkpt><trkpt lat="43.359337301253184" lon="10.805202906187377"><ele>69.0</ele><time>2026-05-01T10:15:59.999Z</time></trkpt><trkpt lat="43.35935512556459" lon="10.80504495379239"><ele>68.5</ele><time>2026-05-01T10:16:00.999Z</time></trkpt><trkpt lat="43.359371880984575" lon="10.804891397164155"><ele>68.0</ele><time>2026-05-01T10:16:01.999Z</time></trkpt><trkpt lat="43.35937399407609" lon="10.804732962862856"><ele>67.5</ele><time>2026-05-01T10:16:02.999Z</time></trkpt><trkpt lat="43.3593923813262" lon="10.804578304679845"><ele>67.0</ele><time>2026-05-01T10:16:03.999Z</time></trkpt><trkpt lat="43.359428014158404" lon="10.804428152565585"><ele>66.5</ele><time>2026-05-01T10:16:04.999Z</time></trkpt><trkpt lat="43.35944772121849" lon="10.804269515141938"><ele>66.0</ele><time>2026-05-01T10:16:05.999Z</time></trkpt><trkpt lat="43.359458577699336" lon="10.804106286121646"><ele>65.5</ele><time>2026-05-01T10:16:06.999Z</time></trkpt><trkpt lat="43.35946315151035" lon="10.803942124947588"><ele>65.0</ele><time>2026-05-01T10:16:07.999Z</time></trkpt><trkpt lat="43.359459637217995" lon="10.80377942723429"><ele>65.0</ele><time>2026-05-01T10:16:08.999Z</time></trkpt><trkpt lat="43.35944530493246" lon="10.803618370917485"><ele>65.0</ele><time>2026-05-01T10:16:09.999Z</time></trkpt><trkpt lat="43.359407838111885" lon="10.803463693776381"><ele>65.0</ele><time>2026-05-01T10:16:10.999Z</time></trkpt><trkpt lat="43.35938153551252" lon="10.803306973015578"><ele>65.0</ele><time>2026-05-01T10:16:11.999Z</time></trkpt><trkpt lat="43.359367494829996" lon="10.803144332902026"><ele>65.25</ele><time>2026-05-01T10:16:12.999Z</time></trkpt><trkpt lat="43.35933505532422" lon="10.802988221040565"><ele>65.5</ele><time>2026-05-01T10:16:13.999Z</time></trkpt><trkpt lat="43.35928513377438" lon="10.80282823356169"><ele>65.75</ele><time>2026-05-01T10:16:14.999Z</time></trkpt><trkpt lat="43.35921703856132" lon="10.802672037021978"><ele>66.0</ele><time>2026-05-01T10:16:15.999Z</time></trkpt><trkpt lat="43.35912436515923" lon="10.802534059472938"><ele>65.75</ele><time>2026-05-01T10:16:16.999Z</time></trkpt><trkpt lat="43.35904598888083" lon="10.802368485933787"><ele>65.5</ele><time>2026-05-01T10:16:17.999Z</time></trkpt><trkpt lat="43.35895173659236" lon="10.802225236967827"><ele>65.25</ele><time>2026-05-01T10:16:18.999Z</time></trkpt><trkpt lat="43.358861476546096" lon="10.802091258810341"><ele>65.0</ele><time>2026-05-01T10:16:19.999Z</time></trkpt><trkpt lat="43.35877628993852" lon="10.801963198116212"><ele>65.0</ele><time>2026-05-01T10:16:20.999Z</time></trkpt><trkpt lat="43.35870247429308" lon="10.801849093832669"><ele>65.0</ele><time>2026-05-01T10:16:21.999Z</time></trkpt><trkpt lat="43.358626268415364" lon="10.80173129474576"><ele>65.0</ele><time>2026-05-01T10:16:22.999Z</time></trkpt><trkpt lat="43.35854885351214" lon="10.801610331329087"><ele>65.0</ele><time>2026-05-01T10:16:23.999Z</time></trkpt><trkpt lat="43.35847285509001" lon="10.80148556110143"><ele>65.5</ele><time>2026-05-01T10:16:24.999Z</time></trkpt><trkpt lat="43.35838607525009" lon="10.801369244678336"><ele>66.0</ele><time>2026-05-01T10:16:25.999Z</time></trkpt><trkpt lat="43.358328763729155" lon="10.801216918708482"><ele>66.5</ele><time>2026-05-01T10:16:26.999Z</time></trkpt><trkpt lat="43.358261519946794" lon="10.801059012873468"><ele>67.0</ele><time>2026-05-01T10:16:27.999Z</time></trkpt><trkpt lat="43.35819416966351" lon="10.800875703749593"><ele>66.33333333333333</ele><time>2026-05-01T10:16:28.999Z</time></trkpt><trkpt lat="43.35811893996612" lon="10.800662238193052"><ele>65.66666666666667</ele><time>2026-05-01T10:16:29.999Z</time></trkpt><trkpt lat="43.358039965138175" lon="10.80042226456429"><ele>65.0</ele><time>2026-05-01T10:16:30.999Z</time></trkpt><trkpt lat="43.35795723427493" lon="10.800159819811729"><ele>65.0</ele><time>2026-05-01T10:16:31.999Z</time></trkpt><trkpt lat="43.35786334223844" lon="10.799916814104323"><ele>65.0</ele><time>2026-05-01T10:16:32.999Z</time></trkpt><trkpt lat="43.35778058353002" lon="10.799651583314597"><ele>65.0</ele><time>2026-05-01T10:16:33.999Z</time></trkpt><trkpt lat="43.357687055467956" lon="10.79939126341369"><ele>65.66666666666667</ele><time>2026-05-01T10:16:34.999Z</time></trkpt><trkpt lat="43.35756763964865" lon="10.799145333567852"><ele>66.33333333333333</ele><time>2026-05-01T10:16:35.999Z</time></trkpt><trkpt lat="43.35742043725789" lon="10.798912449557859"><ele>67.0</ele><time>2026-05-01T10:16:36.999Z</time></trkpt><trkpt lat="43.35725394241327" lon="10.798681788513615"><ele>66.0</ele><time>2026-05-01T10:16:37.999Z</time></trkpt><trkpt lat="43.35709213321575" lon="10.7984420236378"><ele>65.0</ele><time>2026-05-01T10:16:38.999Z</time></trkpt><trkpt lat="43.3569424887734" lon="10.798185980356184"><ele>65.0</ele><time>2026-05-01T10:16:39.999Z</time></trkpt><trkpt lat="43.35680362768928" lon="10.797914230430642"><ele>65.0</ele><time>2026-05-01T10:16:40.999Z</time></trkpt><trkpt lat="43.35668366969505" lon="10.797631905906654"><ele>67.5</ele><time>2026-05-01T10:16:41.999Z</time></trkpt><trkpt lat="43.356580760575994" lon="10.797341944551109"><ele>70.0</ele><time>2026-05-01T10:16:42.999Z</time></trkpt><trkpt lat="43.35649829585359" lon="10.79704890896484"><ele>71.33333333333333</ele><time>2026-05-01T10:16:43.999Z</time></trkpt><trkpt lat="43.356430421653876" lon="10.796754557138586"><ele>72.66666666666667</ele><time>2026-05-01T10:16:44.999Z</time></trkpt><trkpt lat="43.356379774846154" lon="10.796460048881054"><ele>74.0</ele><time>2026-05-01T10:16:45.999Z</time></trkpt><trkpt lat="43.35634484858787" lon="10.79616330210669"><ele>70.0</ele><time>2026-05-01T10:16:46.999Z</time></trkpt><trkpt lat="43.35632610699093" lon="10.795875202127617"><ele>66.0</ele><time>2026-05-01T10:16:47.999Z</time></trkpt><trkpt lat="43.35631885658533" lon="10.795581239827538"><ele>62.0</ele><time>2026-05-01T10:16:48.999Z</time></trkpt><trkpt lat="43.35632650101767" lon="10.79529635150923"><ele>62.333333333333336</ele><time>2026-05-01T10:16:49.999Z</time></trkpt><trkpt lat="43.35634998206921" lon="10.795011843683875"><ele>62.66666666666667</ele><time>2026-05-01T10:16:50.999Z</time></trkpt><trkpt lat="43.3563869760911" lon="10.794730638821447"><ele>63.0</ele><time>2026-05-01T10:16:51.999Z</time></trkpt><trkpt lat="43.35643360990636" lon="10.794452660145861"><ele>62.33333333333333</ele><time>2026-05-01T10:16:52.999Z</time></trkpt><trkpt lat="43.356485386761165" lon="10.794177335209037"><ele>61.666666666666664</ele><time>2026-05-01T10:16:53.999Z</time></trkpt><trkpt lat="43.35653998117206" lon="10.793915249505254"><ele>61.0</ele><time>2026-05-01T10:16:54.999Z</time></trkpt><trkpt lat="43.35659651512368" lon="10.793656014453118"><ele>60.666666666666664</ele><time>2026-05-01T10:16:55.999Z</time></trkpt><trkpt lat="43.35665326672465" lon="10.793401835070526"><ele>60.33333333333333</ele><time>2026-05-01T10:16:56.999Z</time></trkpt><trkpt lat="43.356709731645275" lon="10.793156414905749"><ele>60.0</ele><time>2026-05-01T10:16:58Z</time></trkpt><trkpt lat="43.356766152360876" lon="10.7929108911943"><ele>59.33333333333333</ele><time>2026-05-01T10:16:59Z</time></trkpt><trkpt lat="43.3568203629989" lon="10.792669850896907"><ele>58.666666666666664</ele><time>2026-05-01T10:17:00Z</time></trkpt><trkpt lat="43.35687541418647" lon="10.792423967120033"><ele>58.0</ele><time>2026-05-01T10:17:01Z</time></trkpt><trkpt lat="43.356929426272806" lon="10.792176241417597"><ele>58.0</ele><time>2026-05-01T10:17:02Z</time></trkpt><trkpt lat="43.356980950580414" lon="10.79192764801763"><ele>58.0</ele><time>2026-05-01T10:17:03Z</time></trkpt><trkpt lat="43.35703006524248" lon="10.791671501694774"><ele>58.0</ele><time>2026-05-01T10:17:04Z</time></trkpt><trkpt lat="43.357076966162644" lon="10.791409585513005"><ele>58.33333333333333</ele><time>2026-05-01T10:17:05Z</time></trkpt><trkpt lat="43.357120395981305" lon="10.79114346705681"><ele>58.66666666666667</ele><time>2026-05-01T10:17:06Z</time></trkpt><trkpt lat="43.35715826077319" lon="10.790878937489548"><ele>59.0</ele><time>2026-05-01T10:17:07Z</time></trkpt><trkpt lat="43.357189718597176" lon="10.790614935034341"><ele>59.66666666666667</ele><time>2026-05-01T10:17:08Z</time></trkpt><trkpt lat="43.35721505659707" lon="10.790356481920801"><ele>60.33333333333333</ele><time>2026-05-01T10:17:09Z</time></trkpt><trkpt lat="43.35723967413353" lon="10.790095957296774"><ele>61.0</ele><time>2026-05-01T10:17:10Z</time></trkpt><trkpt lat="43.35725666217484" lon="10.789839881450142"><ele>61.666666666666664</ele><time>2026-05-01T10:17:11Z</time></trkpt><trkpt lat="43.357271579418715" lon="10.78957852172548"><ele>62.33333333333333</ele><time>2026-05-01T10:17:12Z</time></trkpt><trkpt lat="43.357283218480745" lon="10.789319166103715"><ele>63.0</ele><time>2026-05-01T10:17:13Z</time></trkpt><trkpt lat="43.35729033731786" lon="10.789059635179644"><ele>64.0</ele><time>2026-05-01T10:17:14Z</time></trkpt><trkpt lat="43.35729285378623" lon="10.788800265361527"><ele>65.0</ele><time>2026-05-01T10:17:15Z</time></trkpt><trkpt lat="43.357289217547" lon="10.788541599738082"><ele>66.0</ele><time>2026-05-01T10:17:16Z</time></trkpt><trkpt lat="43.35728088363777" lon="10.788282531848916"><ele>66.0</ele><time>2026-05-01T10:17:17Z</time></trkpt><trkpt lat="43.35726422208656" lon="10.788026282614293"><ele>66.0</ele><time>2026-05-01T10:17:18Z</time></trkpt><trkpt lat="43.35726446645457" lon="10.787764986149021"><ele>66.0</ele><time>2026-05-01T10:17:19Z</time></trkpt><trkpt lat="43.35722279048371" lon="10.78750696078665"><ele>64.0</ele><time>2026-05-01T10:17:20Z</time></trkpt><trkpt lat="43.357192354311145" lon="10.78725010103882"><ele>62.0</ele><time>2026-05-01T10:17:21Z</time></trkpt><trkpt lat="43.35716151376425" lon="10.78699613681374"><ele>60.0</ele><time>2026-05-01T10:17:22Z</time></trkpt><trkpt lat="43.35713055826173" lon="10.786742331990636"><ele>60.0</ele><time>2026-05-01T10:17:23Z</time></trkpt><trkpt lat="43.35710222460202" lon="10.786486672960761"><ele>60.0</ele><time>2026-05-01T10:17:24Z</time></trkpt><trkpt lat="43.3570743891134" lon="10.78623530319053"><ele>60.0</ele><time>2026-05-01T10:17:25Z</time></trkpt><trkpt lat="43.35703865831069" lon="10.785983033847396"><ele>60.33333333333333</ele><time>2026-05-01T10:17:26Z</time></trkpt><trkpt lat="43.35699426902743" lon="10.785733841238965"><ele>60.666666666666664</ele><time>2026-05-01T10:17:27Z</time></trkpt><trkpt lat="43.356950718113744" lon="10.785482814788534"><ele>61.0</ele><time>2026-05-01T10:17:28Z</time></trkpt><trkpt lat="43.35690996071299" lon="10.785230229781796"><ele>60.666666666666664</ele><time>2026-05-01T10:17:29Z</time></trkpt><trkpt lat="43.35686904943609" lon="10.784974891696452"><ele>60.33333333333333</ele><time>2026-05-01T10:17:30Z</time></trkpt><trkpt lat="43.356827307138026" lon="10.784722096069643"><ele>60.0</ele><time>2026-05-01T10:17:31Z</time></trkpt><trkpt lat="43.35678742681202" lon="10.784470289415246"><ele>60.0</ele><time>2026-05-01T10:17:32Z</time></trkpt><trkpt lat="43.35674668516644" lon="10.78421984137021"><ele>60.0</ele><time>2026-05-01T10:17:33Z</time></trkpt><trkpt lat="43.35670621988846" lon="10.783969412832523"><ele>60.0</ele><time>2026-05-01T10:17:34Z</time></trkpt><trkpt lat="43.356668999145846" lon="10.783720107989073"><ele>59.66666666666667</ele><time>2026-05-01T10:17:35Z</time></trkpt><trkpt lat="43.356631349957375" lon="10.783471331036337"><ele>59.333333333333336</ele><time>2026-05-01T10:17:36Z</time></trkpt><trkpt lat="43.35659292341331" lon="10.7832246609577"><ele>59.0</ele><time>2026-05-01T10:17:37Z</time></trkpt><trkpt lat="43.35655579787343" lon="10.7829752805999"><ele>59.0</ele><time>2026-05-01T10:17:38Z</time></trkpt><trkpt lat="43.35652254019077" lon="10.782726141266323"><ele>59.0</ele><time>2026-05-01T10:17:39Z</time></trkpt><trkpt lat="43.35649460735538" lon="10.782475878009738"><ele>59.0</ele><time>2026-05-01T10:17:40Z</time></trkpt><trkpt lat="43.35647647476113" lon="10.782220970095686"><ele>59.0</ele><time>2026-05-01T10:17:41Z</time></trkpt><trkpt lat="43.35646971178191" lon="10.781966935842187"><ele>59.0</ele><time>2026-05-01T10:17:42Z</time></trkpt><trkpt lat="43.35646605107527" lon="10.78170795617538"><ele>59.0</ele><time>2026-05-01T10:17:43Z</time></trkpt><trkpt lat="43.3564598921305" lon="10.781451297815192"><ele>59.0</ele><time>2026-05-01T10:17:44Z</time></trkpt><trkpt lat="43.35645158330724" lon="10.78119861015164"><ele>59.0</ele><time>2026-05-01T10:17:44.999Z</time></trkpt><trkpt lat="43.35644231639972" lon="10.780942450305034"><ele>59.0</ele><time>2026-05-01T10:17:45.999Z</time></trkpt><trkpt lat="43.35643473953894" lon="10.780688215416344"><ele>59.333333333333336</ele><time>2026-05-01T10:17:46.999Z</time></trkpt><trkpt lat="43.356426304237424" lon="10.780442550556412"><ele>59.66666666666667</ele><time>2026-05-01T10:17:47.999Z</time></trkpt><trkpt lat="43.35641769598569" lon="10.78019247832096"><ele>60.0</ele><time>2026-05-01T10:17:48.999Z</time></trkpt><trkpt lat="43.35641055676544" lon="10.779946177103252"><ele>60.0</ele><time>2026-05-01T10:17:49.999Z</time></trkpt><trkpt lat="43.356406299701426" lon="10.779701480733548"><ele>60.0</ele><time>2026-05-01T10:17:50.999Z</time></trkpt><trkpt lat="43.35640290152538" lon="10.779458319163956"><ele>60.0</ele><time>2026-05-01T10:17:51.999Z</time></trkpt><trkpt lat="43.3563938154036" lon="10.779216993959835"><ele>59.33333333333333</ele><time>2026-05-01T10:17:52.999Z</time></trkpt><trkpt lat="43.3563765549353" lon="10.778977808174716"><ele>58.666666666666664</ele><time>2026-05-01T10:17:53.999Z</time></trkpt><trkpt lat="43.35635088994591" lon="10.77873887396038"><ele>58.0</ele><time>2026-05-01T10:17:54.999Z</time></trkpt><trkpt lat="43.3563140045637" lon="10.778506233198557"><ele>58.0</ele><time>2026-05-01T10:17:55.999Z</time></trkpt><trkpt lat="43.356261393501" lon="10.778274526403104"><ele>58.0</ele><time>2026-05-01T10:17:56.999Z</time></trkpt><trkpt lat="43.356193994030825" lon="10.778049663845229"><ele>58.0</ele><time>2026-05-01T10:17:57.999Z</time></trkpt><trkpt lat="43.35611185262731" lon="10.777827090489676"><ele>59.33333333333333</ele><time>2026-05-01T10:17:58.999Z</time></trkpt><trkpt lat="43.356016089554586" lon="10.777612398224894"><ele>60.66666666666667</ele><time>2026-05-01T10:17:59.999Z</time></trkpt><trkpt lat="43.35591082098879" lon="10.777411707487088"><ele>62.0</ele><time>2026-05-01T10:18:00.999Z</time></trkpt><trkpt lat="43.35578878806039" lon="10.777215281319943"><ele>62.0</ele><time>2026-05-01T10:18:01.999Z</time></trkpt><trkpt lat="43.355655947093396" lon="10.777034262546124"><ele>62.0</ele><time>2026-05-01T10:18:02.999Z</time></trkpt><trkpt lat="43.35551419639685" lon="10.776872433408732"><ele>62.0</ele><time>2026-05-01T10:18:03.999Z</time></trkpt><trkpt lat="43.35535443544537" lon="10.776733450174671"><ele>61.0</ele><time>2026-05-01T10:18:04.999Z</time></trkpt><trkpt lat="43.355189759897584" lon="10.776618017931122"><ele>60.0</ele><time>2026-05-01T10:18:05.999Z</time></trkpt><trkpt lat="43.35501297828216" lon="10.776516933020236"><ele>59.0</ele><time>2026-05-01T10:18:06.999Z</time></trkpt><trkpt lat="43.35484052773596" lon="10.776420419055691"><ele>58.333333333333336</ele><time>2026-05-01T10:18:07.999Z</time></trkpt><trkpt lat="43.354673811985045" lon="10.776316200182697"><ele>57.66666666666667</ele><time>2026-05-01T10:18:08.999Z</time></trkpt><trkpt lat="43.354506875579155" lon="10.776211560687374"><ele>57.0</ele><time>2026-05-01T10:18:09.999Z</time></trkpt><trkpt lat="43.35434363391858" lon="10.776110121094618"><ele>58.0</ele><time>2026-05-01T10:18:10.999Z</time></trkpt><trkpt lat="43.35418840019394" lon="10.776015951172498"><ele>59.0</ele><time>2026-05-01T10:18:11.999Z</time></trkpt><trkpt lat="43.3540308894839" lon="10.775918172519184"><ele>60.0</ele><time>2026-05-01T10:18:12.999Z</time></trkpt><trkpt lat="43.353873254391615" lon="10.775802771597457"><ele>58.66666666666667</ele><time>2026-05-01T10:18:13.999Z</time></trkpt><trkpt lat="43.35373287628271" lon="10.775669181328979"><ele>57.333333333333336</ele><time>2026-05-01T10:18:14.999Z</time></trkpt><trkpt lat="43.3536098735233" lon="10.775515871077731"><ele>56.0</ele><time>2026-05-01T10:18:15.999Z</time></trkpt><trkpt lat="43.35352040151746" lon="10.775330011130391"><ele>56.333333333333336</ele><time>2026-05-01T10:18:16.999Z</time></trkpt><trkpt lat="43.35341045175314" lon="10.77517828942303"><ele>56.66666666666667</ele><time>2026-05-01T10:18:17.999Z</time></trkpt><trkpt lat="43.35331865289711" lon="10.7750096139226"><ele>57.0</ele><time>2026-05-01T10:18:18.999Z</time></trkpt><trkpt lat="43.35322222975124" lon="10.774847899371254"><ele>57.0</ele><time>2026-05-01T10:18:19.999Z</time></trkpt><trkpt lat="43.35312359038631" lon="10.774688031416904"><ele>57.0</ele><time>2026-05-01T10:18:20.999Z</time></trkpt><trkpt lat="43.3530259218809" lon="10.774524794551612"><ele>57.0</ele><time>2026-05-01T10:18:21.999Z</time></trkpt><trkpt lat="43.352928785997584" lon="10.774359637414735"><ele>56.66666666666667</ele><time>2026-05-01T10:18:22.999Z</time></trkpt><trkpt lat="43.352832543144224" lon="10.774193319467422"><ele>56.333333333333336</ele><time>2026-05-01T10:18:23.999Z</time></trkpt><trkpt lat="43.352736008454684" lon="10.77402390078535"><ele>56.0</ele><time>2026-05-01T10:18:24.999Z</time></trkpt><trkpt lat="43.352638600376665" lon="10.77385544773179"><ele>56.0</ele><time>2026-05-01T10:18:25.999Z</time></trkpt><trkpt lat="43.35254360320862" lon="10.773689562971123"><ele>56.0</ele><time>2026-05-01T10:18:26.999Z</time></trkpt><trkpt lat="43.35244548353745" lon="10.773520695706651"><ele>56.0</ele><time>2026-05-01T10:18:27.999Z</time></trkpt><trkpt lat="43.35234820274197" lon="10.773351168169071"><ele>56.333333333333336</ele><time>2026-05-01T10:18:28.999Z</time></trkpt><trkpt lat="43.352251434160095" lon="10.773181724828365"><ele>56.66666666666667</ele><time>2026-05-01T10:18:29.999Z</time></trkpt><trkpt lat="43.35215265967898" lon="10.773011229701728"><ele>57.0</ele><time>2026-05-01T10:18:30.999Z</time></trkpt><trkpt lat="43.3520562819551" lon="10.772841624303382"><ele>56.33333333333333</ele><time>2026-05-01T10:18:31.999Z</time></trkpt><trkpt lat="43.3519578766758" lon="10.772671710822577"><ele>55.666666666666664</ele><time>2026-05-01T10:18:32.999Z</time></trkpt><trkpt lat="43.35186154397714" lon="10.772504410295094"><ele>55.0</ele><time>2026-05-01T10:18:33.999Z</time></trkpt><trkpt lat="43.351765247362685" lon="10.772338351957986"><ele>55.0</ele><time>2026-05-01T10:18:34.999Z</time></trkpt><trkpt lat="43.35166825516734" lon="10.772173572479371"><ele>55.0</ele><time>2026-05-01T10:18:35.999Z</time></trkpt><trkpt lat="43.35157225640161" lon="10.772008920990395"><ele>55.0</ele><time>2026-05-01T10:18:36.999Z</time></trkpt><trkpt lat="43.35147826412068" lon="10.771842793450876"><ele>55.33333333333333</ele><time>2026-05-01T10:18:37.999Z</time></trkpt><trkpt lat="43.351382264491285" lon="10.771676977356481"><ele>55.66666666666667</ele><time>2026-05-01T10:18:38.999Z</time></trkpt><trkpt lat="43.3512865066297" lon="10.771515029538497"><ele>56.0</ele><time>2026-05-01T10:18:39.999Z</time></trkpt><trkpt lat="43.35118964287253" lon="10.771352437035702"><ele>56.333333333333336</ele><time>2026-05-01T10:18:40.999Z</time></trkpt><trkpt lat="43.35109394184069" lon="10.771189663632798"><ele>56.66666666666667</ele><time>2026-05-01T10:18:41.999Z</time></trkpt><trkpt lat="43.35100135291861" lon="10.77102610529312"><ele>57.0</ele><time>2026-05-01T10:18:42.999Z</time></trkpt><trkpt lat="43.3509094928718" lon="10.770861454206345"><ele>57.0</ele><time>2026-05-01T10:18:43.999Z</time></trkpt><trkpt lat="43.35081925475916" lon="10.770699089831288"><ele>57.0</ele><time>2026-05-01T10:18:44.999Z</time></trkpt><trkpt lat="43.350729738156296" lon="10.77053188025273"><ele>57.0</ele><time>2026-05-01T10:18:45.999Z</time></trkpt><trkpt lat="43.35064193322228" lon="10.770359455220463"><ele>56.66666666666667</ele><time>2026-05-01T10:18:46.999Z</time></trkpt><trkpt lat="43.350553225634506" lon="10.770184638938847"><ele>56.333333333333336</ele><time>2026-05-01T10:18:47.999Z</time></trkpt><trkpt lat="43.35046464546451" lon="10.770009435630206"><ele>56.0</ele><time>2026-05-01T10:18:48.999Z</time></trkpt><trkpt lat="43.350375789202886" lon="10.769833557331417"><ele>56.0</ele><time>2026-05-01T10:18:49.999Z</time></trkpt><trkpt lat="43.35028730171925" lon="10.76965886296252"><ele>56.0</ele><time>2026-05-01T10:18:50.999Z</time></trkpt><trkpt lat="43.350199849112656" lon="10.769485120349872"><ele>56.0</ele><time>2026-05-01T10:18:51.999Z</time></trkpt><trkpt lat="43.35011228885454" lon="10.769310437224645"><ele>56.0</ele><time>2026-05-01T10:18:52.999Z</time></trkpt><trkpt lat="43.35002425395697" lon="10.769136469885044"><ele>56.0</ele><time>2026-05-01T10:18:53.999Z</time></trkpt><trkpt lat="43.349939166071565" lon="10.768965208530238"><ele>56.0</ele><time>2026-05-01T10:18:54.999Z</time></trkpt><trkpt lat="43.34985673367999" lon="10.768796062693966"><ele>56.0</ele><time>2026-05-01T10:18:55.999Z</time></trkpt><trkpt lat="43.34977983789973" lon="10.768630953330682"><ele>56.0</ele><time>2026-05-01T10:18:56.999Z</time></trkpt><trkpt lat="43.34971006147932" lon="10.768465691229075"><ele>56.0</ele><time>2026-05-01T10:18:57.999Z</time></trkpt><trkpt lat="43.34965092489065" lon="10.768300571485943"><ele>56.0</ele><time>2026-05-01T10:18:58.999Z</time></trkpt><trkpt lat="43.34960713703695" lon="10.768136559449792"><ele>55.75</ele><time>2026-05-01T10:18:59.999Z</time></trkpt><trkpt lat="43.34957288274955" lon="10.767962711513885"><ele>55.5</ele><time>2026-05-01T10:19:00.999Z</time></trkpt><trkpt lat="43.349542044092985" lon="10.767785682556683"><ele>55.25</ele><time>2026-05-01T10:19:01.999Z</time></trkpt><trkpt lat="43.34951603666217" lon="10.767611792276526"><ele>55.0</ele><time>2026-05-01T10:19:02.999Z</time></trkpt><trkpt lat="43.349497431517996" lon="10.76743912316362"><ele>55.0</ele><time>2026-05-01T10:19:04Z</time></trkpt><trkpt lat="43.349488276290614" lon="10.767277359580376"><ele>55.0</ele><time>2026-05-01T10:19:05Z</time></trkpt><trkpt lat="43.34948947755119" lon="10.76712818610009"><ele>55.0</ele><time>2026-05-01T10:19:06Z</time></trkpt><trkpt lat="43.349499534211674" lon="10.766992212668988"><ele>55.0</ele><time>2026-05-01T10:19:07Z</time></trkpt><trkpt lat="43.34951142897247" lon="10.766851643667895"><ele>55.0</ele><time>2026-05-01T10:19:08Z</time></trkpt><trkpt lat="43.34951752803839" lon="10.766714505384215"><ele>55.25</ele><time>2026-05-01T10:19:09Z</time></trkpt><trkpt lat="43.349505282249766" lon="10.766569901116469"><ele>55.5</ele><time>2026-05-01T10:19:10Z</time></trkpt><trkpt lat="43.349479675631414" lon="10.766420988775632"><ele>55.75</ele><time>2026-05-01T10:19:11Z</time></trkpt><trkpt lat="43.34942561009942" lon="10.766278198207031"><ele>56.0</ele><time>2026-05-01T10:19:12Z</time></trkpt><trkpt lat="43.34934485079958" lon="10.766146855311215"><ele>57.25</ele><time>2026-05-01T10:19:13Z</time></trkpt><trkpt lat="43.34925400327711" lon="10.7660196062906"><ele>58.5</ele><time>2026-05-01T10:19:14Z</time></trkpt><trkpt lat="43.34915825202333" lon="10.765886752641329"><ele>59.75</ele><time>2026-05-01T10:19:15Z</time></trkpt><trkpt lat="43.349063616077096" lon="10.765750622380317"><ele>61.0</ele><time>2026-05-01T10:19:16Z</time></trkpt><trkpt lat="43.34897068393153" lon="10.765610761671514"><ele>61.0</ele><time>2026-05-01T10:19:17Z</time></trkpt><trkpt lat="43.34887822911416" lon="10.765457250836612"><ele>61.0</ele><time>2026-05-01T10:19:18Z</time></trkpt><trkpt lat="43.34878634822849" lon="10.76528996564684"><ele>61.0</ele><time>2026-05-01T10:19:19Z</time></trkpt><trkpt lat="43.34869578205455" lon="10.765114947881617"><ele>60.666666666666664</ele><time>2026-05-01T10:19:20Z</time></trkpt><trkpt lat="43.3486085526101" lon="10.76492495723706"><ele>60.33333333333333</ele><time>2026-05-01T10:19:21Z</time></trkpt><trkpt lat="43.3485325115213" lon="10.764722351304597"><ele>60.0</ele><time>2026-05-01T10:19:22Z</time></trkpt><trkpt lat="43.34846032746266" lon="10.764505242835442"><ele>61.66666666666667</ele><time>2026-05-01T10:19:23Z</time></trkpt><trkpt lat="43.348390011937326" lon="10.76428474608023"><ele>63.333333333333336</ele><time>2026-05-01T10:19:24Z</time></trkpt><trkpt lat="43.34831797908073" lon="10.76406033855545"><ele>65.0</ele><time>2026-05-01T10:19:25Z</time></trkpt><trkpt lat="43.348244474384614" lon="10.76383231265536"><ele>65.0</ele><time>2026-05-01T10:19:26Z</time></trkpt><trkpt lat="43.34817221079884" lon="10.763605901509413"><ele>65.0</ele><time>2026-05-01T10:19:27Z</time></trkpt><trkpt lat="43.34809814556097" lon="10.763383345808801"><ele>65.0</ele><time>2026-05-01T10:19:28Z</time></trkpt><trkpt lat="43.34802635631609" lon="10.763157907330346"><ele>63.0</ele><time>2026-05-01T10:19:29Z</time></trkpt><trkpt lat="43.34795593940778" lon="10.762930550781233"><ele>61.0</ele><time>2026-05-01T10:19:30Z</time></trkpt><trkpt lat="43.34789004058237" lon="10.762699964904588"><ele>59.0</ele><time>2026-05-01T10:19:31Z</time></trkpt><trkpt lat="43.347831259626275" lon="10.76247077944048"><ele>59.0</ele><time>2026-05-01T10:19:32Z</time></trkpt><trkpt lat="43.34778066475418" lon="10.76224021601861"><ele>59.0</ele><time>2026-05-01T10:19:33Z</time></trkpt><trkpt lat="43.34773868550471" lon="10.762006378159406"><ele>59.0</ele><time>2026-05-01T10:19:34Z</time></trkpt><trkpt lat="43.34770305436108" lon="10.76176688506892"><ele>59.0</ele><time>2026-05-01T10:19:35Z</time></trkpt><trkpt lat="43.347673763737895" lon="10.76152400991072"><ele>59.0</ele><time>2026-05-01T10:19:36Z</time></trkpt><trkpt lat="43.347647123610706" lon="10.761276988892964"><ele>59.0</ele><time>2026-05-01T10:19:37Z</time></trkpt><trkpt lat="43.34762051739501" lon="10.761029751236977"><ele>58.66666666666667</ele><time>2026-05-01T10:19:38Z</time></trkpt><trkpt lat="43.347594254670184" lon="10.760780458232366"><ele>58.33333333333333</ele><time>2026-05-01T10:19:39Z</time></trkpt><trkpt lat="43.34756441036613" lon="10.76052926036785"><ele>58.0</ele><time>2026-05-01T10:19:40Z</time></trkpt><trkpt lat="43.34752726449754" lon="10.76027673205353"><ele>57.33333333333333</ele><time>2026-05-01T10:19:41Z</time></trkpt><trkpt lat="43.34748096883854" lon="10.760019649535796"><ele>56.66666666666667</ele><time>2026-05-01T10:19:42Z</time></trkpt><trkpt lat="43.3474222831565" lon="10.759783502031363"><ele>56.0</ele><time>2026-05-01T10:19:43Z</time></trkpt><trkpt lat="43.34734903400113" lon="10.759566972194516"><ele>56.333333333333336</ele><time>2026-05-01T10:19:44Z</time></trkpt><trkpt lat="43.34726297996443" lon="10.759355675072191"><ele>56.66666666666667</ele><time>2026-05-01T10:19:45Z</time></trkpt><trkpt lat="43.34718018400664" lon="10.759135136556445"><ele>57.0</ele><time>2026-05-01T10:19:46Z</time></trkpt><trkpt lat="43.34708213595052" lon="10.758933670133349"><ele>57.0</ele><time>2026-05-01T10:19:47Z</time></trkpt><trkpt lat="43.34697465291878" lon="10.758761718335116"><ele>57.0</ele><time>2026-05-01T10:19:48Z</time></trkpt><trkpt lat="43.34687880252163" lon="10.758577238401243"><ele>57.0</ele><time>2026-05-01T10:19:49Z</time></trkpt><trkpt lat="43.34678113341297" lon="10.758394927515209"><ele>58.33333333333333</ele><time>2026-05-01T10:19:50Z</time></trkpt><trkpt lat="43.34667687190186" lon="10.75820946820757"><ele>59.666666666666664</ele><time>2026-05-01T10:19:51Z</time></trkpt><trkpt lat="43.34656138925847" lon="10.758007708021871"><ele>61.0</ele><time>2026-05-01T10:19:52Z</time></trkpt><trkpt lat="43.34644601868516" lon="10.757790037796529"><ele>59.666666666666664</ele><time>2026-05-01T10:19:53Z</time></trkpt><trkpt lat="43.34632958464028" lon="10.757558392862231"><ele>58.33333333333333</ele><time>2026-05-01T10:19:53.999Z</time></trkpt><trkpt lat="43.34621174396442" lon="10.757328446733984"><ele>57.0</ele><time>2026-05-01T10:19:54.999Z</time></trkpt><trkpt lat="43.34607847875338" lon="10.757100572796404"><ele>57.0</ele><time>2026-05-01T10:19:55.999Z</time></trkpt><trkpt lat="43.34593567377552" lon="10.756886954127904"><ele>57.0</ele><time>2026-05-01T10:19:56.999Z</time></trkpt><trkpt lat="43.34579533062074" lon="10.756697533724"><ele>57.0</ele><time>2026-05-01T10:19:57.999Z</time></trkpt><trkpt lat="43.345656214948626" lon="10.756524306913677"><ele>57.0</ele><time>2026-05-01T10:19:58.999Z</time></trkpt><trkpt lat="43.345546230783256" lon="10.756356125719057"><ele>57.0</ele><time>2026-05-01T10:19:59.999Z</time></trkpt><trkpt lat="43.345441030967606" lon="10.75622477269293"><ele>57.0</ele><time>2026-05-01T10:20:00.999Z</time></trkpt><trkpt lat="43.34534544846194" lon="10.75613574323954"><ele>57.0</ele><time>2026-05-01T10:20:01.999Z</time></trkpt><trkpt lat="43.345272831902236" lon="10.756036749098206"><ele>56.833333333333336</ele><time>2026-05-01T10:20:02.999Z</time></trkpt><trkpt lat="43.34521817321062" lon="10.755942919876777"><ele>56.66666666666667</ele><time>2026-05-01T10:20:03.999Z</time></trkpt><trkpt lat="43.34519020938568" lon="10.755837403490483"><ele>56.5</ele><time>2026-05-01T10:20:04.999Z</time></trkpt><trkpt lat="43.34520144957838" lon="10.755732119930686"><ele>56.333333333333336</ele><time>2026-05-01T10:20:05.999Z</time></trkpt><trkpt lat="43.34523655020321" lon="10.755629845114152"><ele>56.16666666666667</ele><time>2026-05-01T10:20:06.999Z</time></trkpt><trkpt lat="43.34527372071301" lon="10.755538587558268"><ele>56.0</ele><time>2026-05-01T10:20:07.999Z</time></trkpt><trkpt lat="43.34528926072773" lon="10.755452086217668"><ele>56.0</ele><time>2026-05-01T10:20:08.999Z</time></trkpt><trkpt lat="43.34525102167224" lon="10.755292442518934"><ele>55.99999999999999</ele><time>2026-05-01T10:20:10.999Z</time></trkpt><trkpt lat="43.34519236002673" lon="10.755231998103232"><ele>55.99999999999999</ele><time>2026-05-01T10:20:11.999Z</time></trkpt><trkpt lat="43.34511423736391" lon="10.755179869953997"><ele>56.0</ele><time>2026-05-01T10:20:12.999Z</time></trkpt><trkpt lat="43.34503355240413" lon="10.755115827922316"><ele>56.0</ele><time>2026-05-01T10:20:13.999Z</time></trkpt><trkpt lat="43.344957458851525" lon="10.75501995124634"><ele>56.0</ele><time>2026-05-01T10:20:14.999Z</time></trkpt><trkpt lat="43.34489847457581" lon="10.754888791444321"><ele>56.0</ele><time>2026-05-01T10:20:15.999Z</time></trkpt><trkpt lat="43.344872630595376" lon="10.754727914717954"><ele>56.0</ele><time>2026-05-01T10:20:16.999Z</time></trkpt><trkpt lat="43.34482023992255" lon="10.754572759018021"><ele>56.0</ele><time>2026-05-01T10:20:17.999Z</time></trkpt><trkpt lat="43.34478290429931" lon="10.754408114188582"><ele>56.25</ele><time>2026-05-01T10:20:18.999Z</time></trkpt><trkpt lat="43.344739840250504" lon="10.754248288828109"><ele>56.5</ele><time>2026-05-01T10:20:19.999Z</time></trkpt><trkpt lat="43.34469108692594" lon="10.754090752372777"><ele>56.75</ele><time>2026-05-01T10:20:20.999Z</time></trkpt><trkpt lat="43.34463402433548" lon="10.753930391243305"><ele>57.0</ele><time>2026-05-01T10:20:21.999Z</time></trkpt><trkpt lat="43.34456632915193" lon="10.753773458279499"><ele>57.0</ele><time>2026-05-01T10:20:22.999Z</time></trkpt><trkpt lat="43.34449073384424" lon="10.753621995181321"><ele>57.0</ele><time>2026-05-01T10:20:23.999Z</time></trkpt><trkpt lat="43.34440656727641" lon="10.75347688842161"><ele>57.0</ele><time>2026-05-01T10:20:24.999Z</time></trkpt><trkpt lat="43.344318518583" lon="10.753334886496017"><ele>57.0</ele><time>2026-05-01T10:20:25.999Z</time></trkpt><trkpt lat="43.3442237020405" lon="10.753196990397674"><ele>57.0</ele><time>2026-05-01T10:20:26.999Z</time></trkpt><trkpt lat="43.344123929742786" lon="10.753058727475645"><ele>57.0</ele><time>2026-05-01T10:20:27.999Z</time></trkpt><trkpt lat="43.34401700187474" lon="10.752909520180845"><ele>57.0</ele><time>2026-05-01T10:20:28.999Z</time></trkpt><trkpt lat="43.34390603783191" lon="10.75275673075883"><ele>56.66666666666667</ele><time>2026-05-01T10:20:29.999Z</time></trkpt><trkpt lat="43.343794035121086" lon="10.752598552781649"><ele>56.333333333333336</ele><time>2026-05-01T10:20:30.999Z</time></trkpt><trkpt lat="43.34367758754238" lon="10.752431484941479"><ele>56.0</ele><time>2026-05-01T10:20:31.999Z</time></trkpt><trkpt lat="43.343558577943796" lon="10.752255667818524"><ele>56.0</ele><time>2026-05-01T10:20:32.999Z</time></trkpt><trkpt lat="43.34343858841789" lon="10.752081106043851"><ele>56.0</ele><time>2026-05-01T10:20:33.999Z</time></trkpt><trkpt lat="43.34331820541992" lon="10.751908384947928"><ele>56.0</ele><time>2026-05-01T10:20:34.999Z</time></trkpt><trkpt lat="43.34319550633688" lon="10.751733500996213"><ele>56.333333333333336</ele><time>2026-05-01T10:20:35.999Z</time></trkpt><trkpt lat="43.34307436857908" lon="10.751555455646375"><ele>56.66666666666667</ele><time>2026-05-01T10:20:36.999Z</time></trkpt><trkpt lat="43.34295457504839" lon="10.751377044176667"><ele>57.0</ele><time>2026-05-01T10:20:37.999Z</time></trkpt><trkpt lat="43.34283486236528" lon="10.751204553051169"><ele>56.66666666666667</ele><time>2026-05-01T10:20:38.999Z</time></trkpt><trkpt lat="43.342709289001036" lon="10.751027352038436"><ele>56.333333333333336</ele><time>2026-05-01T10:20:39.999Z</time></trkpt><trkpt lat="43.342592634103376" lon="10.7508268829722"><ele>56.0</ele><time>2026-05-01T10:20:40.999Z</time></trkpt><trkpt lat="43.34246093557875" lon="10.750634770643146"><ele>56.0</ele><time>2026-05-01T10:20:41.999Z</time></trkpt><trkpt lat="43.34231546782567" lon="10.750456927633834"><ele>56.0</ele><time>2026-05-01T10:20:42.999Z</time></trkpt><trkpt lat="43.3421824257559" lon="10.750257946999568"><ele>56.0</ele><time>2026-05-01T10:20:43.999Z</time></trkpt><trkpt lat="43.342048115003344" lon="10.750059369810206"><ele>55.66666666666667</ele><time>2026-05-01T10:20:44.999Z</time></trkpt><trkpt lat="43.34190995111439" lon="10.74986416855188"><ele>55.33333333333333</ele><time>2026-05-01T10:20:45.999Z</time></trkpt><trkpt lat="43.34177919547169" lon="10.749648591617838"><ele>55.0</ele><time>2026-05-01T10:20:46.999Z</time></trkpt><trkpt lat="43.34163625458438" lon="10.749444637236309"><ele>54.666666666666664</ele><time>2026-05-01T10:20:47.999Z</time></trkpt><trkpt lat="43.34151715302033" lon="10.749302481264412"><ele>54.33333333333333</ele><time>2026-05-01T10:20:48.999Z</time></trkpt><trkpt lat="43.34137386987404" lon="10.74913366560395"><ele>54.0</ele><time>2026-05-01T10:20:49.999Z</time></trkpt><trkpt lat="43.341216851251495" lon="10.748991731810891"><ele>54.0</ele><time>2026-05-01T10:20:50.999Z</time></trkpt><trkpt lat="43.34104824211324" lon="10.748862507436867"><ele>54.0</ele><time>2026-05-01T10:20:51.999Z</time></trkpt><trkpt lat="43.34087503142819" lon="10.74873440193781"><ele>54.0</ele><time>2026-05-01T10:20:52.999Z</time></trkpt><trkpt lat="43.34070390116623" lon="10.748591031989505"><ele>54.33333333333333</ele><time>2026-05-01T10:20:53.999Z</time></trkpt><trkpt lat="43.340528696729" lon="10.748455699787"><ele>54.666666666666664</ele><time>2026-05-01T10:20:54.999Z</time></trkpt><trkpt lat="43.340341116456685" lon="10.748341544829836"><ele>55.0</ele><time>2026-05-01T10:20:55.999Z</time></trkpt><trkpt lat="43.34014229569268" lon="10.748250172745005"><ele>55.0</ele><time>2026-05-01T10:20:56.999Z</time></trkpt><trkpt lat="43.33994468323133" lon="10.74816400000968"><ele>55.0</ele><time>2026-05-01T10:20:57.999Z</time></trkpt><trkpt lat="43.339752362830964" lon="10.748080102864428"><ele>55.0</ele><time>2026-05-01T10:20:58.999Z</time></trkpt><trkpt lat="43.33956517236073" lon="10.748009136876227"><ele>55.0</ele><time>2026-05-01T10:20:59.999Z</time></trkpt><trkpt lat="43.339379883706684" lon="10.747937336674505"><ele>55.0</ele><time>2026-05-01T10:21:00.999Z</time></trkpt><trkpt lat="43.33919473037055" lon="10.747863865464845"><ele>55.0</ele><time>2026-05-01T10:21:01.999Z</time></trkpt><trkpt lat="43.339003425174774" lon="10.747794886227796"><ele>54.0</ele><time>2026-05-01T10:21:02.999Z</time></trkpt><trkpt lat="43.338809889025164" lon="10.747758142484093"><ele>53.0</ele><time>2026-05-01T10:21:03.999Z</time></trkpt><trkpt lat="43.33860900109329" lon="10.74776988175915"><ele>52.0</ele><time>2026-05-01T10:21:04.999Z</time></trkpt><trkpt lat="43.338408186913604" lon="10.747793793721588"><ele>52.0</ele><time>2026-05-01T10:21:05.999Z</time></trkpt><trkpt lat="43.33820725089824" lon="10.747826288698175"><ele>52.0</ele><time>2026-05-01T10:21:06.999Z</time></trkpt><trkpt lat="43.33801251156849" lon="10.747825528773644"><ele>52.0</ele><time>2026-05-01T10:21:07.999Z</time></trkpt><trkpt lat="43.33782481814256" lon="10.747823290042842"><ele>52.33333333333333</ele><time>2026-05-01T10:21:08.999Z</time></trkpt><trkpt lat="43.33764915634691" lon="10.747801875914025"><ele>52.66666666666667</ele><time>2026-05-01T10:21:10Z</time></trkpt><trkpt lat="43.3374763735983" lon="10.7477506058299"><ele>53.0</ele><time>2026-05-01T10:21:11Z</time></trkpt><trkpt lat="43.3373132519487" lon="10.747672107125709"><ele>54.0</ele><time>2026-05-01T10:21:12Z</time></trkpt><trkpt lat="43.33716948788922" lon="10.747559547580147"><ele>55.0</ele><time>2026-05-01T10:21:13Z</time></trkpt><trkpt lat="43.33704565919167" lon="10.747416275581886"><ele>56.0</ele><time>2026-05-01T10:21:14Z</time></trkpt><trkpt lat="43.33692219075838" lon="10.747262040758036"><ele>56.0</ele><time>2026-05-01T10:21:15Z</time></trkpt><trkpt lat="43.33679848264109" lon="10.747106947979765"><ele>56.0</ele><time>2026-05-01T10:21:16Z</time></trkpt><trkpt lat="43.336674754957" lon="10.746951440158554"><ele>56.0</ele><time>2026-05-01T10:21:17Z</time></trkpt><trkpt lat="43.33654144644944" lon="10.746803355040049"><ele>55.333333333333336</ele><time>2026-05-01T10:21:18Z</time></trkpt><trkpt lat="43.3364294992379" lon="10.746619027605252"><ele>54.66666666666667</ele><time>2026-05-01T10:21:19Z</time></trkpt><trkpt lat="43.33632022738785" lon="10.746429314043645"><ele>54.0</ele><time>2026-05-01T10:21:20Z</time></trkpt><trkpt lat="43.336236474615525" lon="10.74620895762707"><ele>54.33333333333333</ele><time>2026-05-01T10:21:21Z</time></trkpt><trkpt lat="43.33616740732374" lon="10.745968660928781"><ele>54.666666666666664</ele><time>2026-05-01T10:21:22Z</time></trkpt><trkpt lat="43.33608632616835" lon="10.745733721632275"><ele>55.0</ele><time>2026-05-01T10:21:23Z</time></trkpt><trkpt lat="43.336022457648845" lon="10.745507876437276"><ele>55.0</ele><time>2026-05-01T10:21:24Z</time></trkpt><trkpt lat="43.33596292841531" lon="10.745298375677258"><ele>55.0</ele><time>2026-05-01T10:21:25Z</time></trkpt><trkpt lat="43.3359022236526" lon="10.74510276877289"><ele>55.0</ele><time>2026-05-01T10:21:26Z</time></trkpt><trkpt lat="43.33586287546095" lon="10.744907379320964"><ele>55.75</ele><time>2026-05-01T10:21:27Z</time></trkpt><trkpt lat="43.33581265590118" lon="10.744733788472843"><ele>56.5</ele><time>2026-05-01T10:21:28Z</time></trkpt><trkpt lat="43.33575768889029" lon="10.744576042245182"><ele>57.25</ele><time>2026-05-01T10:21:29Z</time></trkpt><trkpt lat="43.33571293528085" lon="10.744416163400691"><ele>58.0</ele><time>2026-05-01T10:21:30Z</time></trkpt><trkpt lat="43.33567308174839" lon="10.744274819525465"><ele>57.2</ele><time>2026-05-01T10:21:31Z</time></trkpt><trkpt lat="43.33563183505195" lon="10.74412981811213"><ele>56.4</ele><time>2026-05-01T10:21:32Z</time></trkpt><trkpt lat="43.33559317151483" lon="10.743991059750748"><ele>55.60000000000001</ele><time>2026-05-01T10:21:33Z</time></trkpt><trkpt lat="43.335545340562696" lon="10.743863811262239"><ele>54.800000000000004</ele><time>2026-05-01T10:21:34Z</time></trkpt><trkpt lat="43.33550828335147" lon="10.743719800168197"><ele>54.0</ele><time>2026-05-01T10:21:35Z</time></trkpt><trkpt lat="43.33547803495087" lon="10.743594194982604"><ele>54.0</ele><time>2026-05-01T10:21:36Z</time></trkpt><trkpt lat="43.33543940049451" lon="10.743477619883288"><ele>54.00000000000001</ele><time>2026-05-01T10:21:37Z</time></trkpt><trkpt lat="43.335426918252026" lon="10.743352939702252"><ele>54.00000000000001</ele><time>2026-05-01T10:21:38Z</time></trkpt><trkpt lat="43.335406262063664" lon="10.74322729043791"><ele>54.0</ele><time>2026-05-01T10:21:39Z</time></trkpt><trkpt lat="43.335380669305536" lon="10.743091376181523"><ele>54.0</ele><time>2026-05-01T10:21:40Z</time></trkpt><trkpt lat="43.33539021957278" lon="10.74294383032486"><ele>54.0</ele><time>2026-05-01T10:21:41Z</time></trkpt><trkpt lat="43.3354149970732" lon="10.74279015688998"><ele>54.0</ele><time>2026-05-01T10:21:42Z</time></trkpt><trkpt lat="43.33544917276957" lon="10.742632952051252"><ele>54.0</ele><time>2026-05-01T10:21:43Z</time></trkpt><trkpt lat="43.33548538378444" lon="10.742473396363396"><ele>54.0</ele><time>2026-05-01T10:21:44Z</time></trkpt><trkpt lat="43.33551810578104" lon="10.742328066516464"><ele>54.0</ele><time>2026-05-01T10:21:45Z</time></trkpt><trkpt lat="43.335545432153154" lon="10.742191881247619"><ele>54.00000000000001</ele><time>2026-05-01T10:21:46Z</time></trkpt><trkpt lat="43.33557152504934" lon="10.742061869635991"><ele>54.00000000000001</ele><time>2026-05-01T10:21:47Z</time></trkpt><trkpt lat="43.335597623949724" lon="10.741931307978145"><ele>54.0</ele><time>2026-05-01T10:21:48Z</time></trkpt><trkpt lat="43.33562700185739" lon="10.741800701545445"><ele>54.0</ele><time>2026-05-01T10:21:49Z</time></trkpt><trkpt lat="43.33565680509812" lon="10.741666839078414"><ele>54.2</ele><time>2026-05-01T10:21:50Z</time></trkpt><trkpt lat="43.33568756783783" lon="10.741534580952283"><ele>54.400000000000006</ele><time>2026-05-01T10:21:51Z</time></trkpt><trkpt lat="43.3357157727427" lon="10.741396766382383"><ele>54.6</ele><time>2026-05-01T10:21:52Z</time></trkpt><trkpt lat="43.33574823622097" lon="10.741241801450531"><ele>54.8</ele><time>2026-05-01T10:21:53Z</time></trkpt><trkpt lat="43.33577747466035" lon="10.741072589447192"><ele>55.0</ele><time>2026-05-01T10:21:54Z</time></trkpt><trkpt lat="43.33581191509657" lon="10.740894610776909"><ele>55.0</ele><time>2026-05-01T10:21:55Z</time></trkpt><trkpt lat="43.33585018385266" lon="10.740707722942513"><ele>55.0</ele><time>2026-05-01T10:21:56Z</time></trkpt><trkpt lat="43.335891031988425" lon="10.740505651767553"><ele>55.0</ele><time>2026-05-01T10:21:57Z</time></trkpt><trkpt lat="43.33593092004644" lon="10.74030784007619"><ele>55.0</ele><time>2026-05-01T10:21:58Z</time></trkpt><trkpt lat="43.335970594235796" lon="10.74009273144026"><ele>54.33333333333333</ele><time>2026-05-01T10:21:59Z</time></trkpt><trkpt lat="43.336008840146604" lon="10.739884151284496"><ele>53.66666666666667</ele><time>2026-05-01T10:22:00Z</time></trkpt><trkpt lat="43.33605016570501" lon="10.739680921228365"><ele>53.0</ele><time>2026-05-01T10:22:01Z</time></trkpt><trkpt lat="43.33609391948842" lon="10.739481230802072"><ele>52.333333333333336</ele><time>2026-05-01T10:22:02Z</time></trkpt><trkpt lat="43.33614076416472" lon="10.73928229871468"><ele>51.66666666666667</ele><time>2026-05-01T10:22:02.999Z</time></trkpt><trkpt lat="43.33618269261488" lon="10.739083439332516"><ele>51.0</ele><time>2026-05-01T10:22:03.999Z</time></trkpt><trkpt lat="43.33623999228071" lon="10.738880192356211"><ele>51.0</ele><time>2026-05-01T10:22:04.999Z</time></trkpt><trkpt lat="43.3362791381743" lon="10.73868141774956"><ele>51.0</ele><time>2026-05-01T10:22:05.999Z</time></trkpt><trkpt lat="43.336333639737916" lon="10.738494058064342"><ele>51.0</ele><time>2026-05-01T10:22:06.999Z</time></trkpt><trkpt lat="43.33635398699227" lon="10.738290515003403"><ele>51.0</ele><time>2026-05-01T10:22:07.999Z</time></trkpt><trkpt lat="43.33639761033757" lon="10.738105250690683"><ele>53.5</ele><time>2026-05-01T10:22:08.999Z</time></trkpt><trkpt lat="43.33641899232475" lon="10.737916944755092"><ele>56.0</ele><time>2026-05-01T10:22:09.999Z</time></trkpt><trkpt lat="43.336430152744164" lon="10.737724464904238"><ele>58.5</ele><time>2026-05-01T10:22:10.999Z</time></trkpt><trkpt lat="43.33643375161112" lon="10.737531729481468"><ele>61.0</ele><time>2026-05-01T10:22:11.999Z</time></trkpt><trkpt lat="43.336432779620395" lon="10.737338247021809"><ele>61.0</ele><time>2026-05-01T10:22:12.999Z</time></trkpt><trkpt lat="43.336429944960194" lon="10.737144823140985"><ele>61.0</ele><time>2026-05-01T10:22:13.999Z</time></trkpt><trkpt lat="43.33641049489702" lon="10.736950183612716"><ele>61.0</ele><time>2026-05-01T10:22:14.999Z</time></trkpt><trkpt lat="43.336409908372445" lon="10.736753011399829"><ele>61.0</ele><time>2026-05-01T10:22:15.999Z</time></trkpt><trkpt lat="43.33642397714434" lon="10.736556611184366"><ele>61.25</ele><time>2026-05-01T10:22:16.999Z</time></trkpt><trkpt lat="43.33641971913317" lon="10.73636384700222"><ele>61.5</ele><time>2026-05-01T10:22:17.999Z</time></trkpt><trkpt lat="43.336411365607034" lon="10.736163414241059"><ele>61.75</ele><time>2026-05-01T10:22:18.999Z</time></trkpt><trkpt lat="43.33639513211582" lon="10.735959426260637"><ele>62.0</ele><time>2026-05-01T10:22:19.999Z</time></trkpt><trkpt lat="43.336369990328265" lon="10.735754364535033"><ele>59.0</ele><time>2026-05-01T10:22:20.999Z</time></trkpt><trkpt lat="43.3363115792796" lon="10.735558253974089"><ele>56.0</ele><time>2026-05-01T10:22:21.999Z</time></trkpt><trkpt lat="43.33624293561906" lon="10.735365957552009"><ele>53.0</ele><time>2026-05-01T10:22:22.999Z</time></trkpt><trkpt lat="43.33617232987885" lon="10.735170634464827"><ele>53.0</ele><time>2026-05-01T10:22:23.999Z</time></trkpt><trkpt lat="43.33608183679121" lon="10.734976250005708"><ele>53.0</ele><time>2026-05-01T10:22:24.999Z</time></trkpt><trkpt lat="43.33598664984866" lon="10.734777572630925"><ele>53.0</ele><time>2026-05-01T10:22:25.999Z</time></trkpt><trkpt lat="43.33588981098998" lon="10.734576557094432"><ele>56.0</ele><time>2026-05-01T10:22:26.999Z</time></trkpt><trkpt lat="43.33578908797094" lon="10.734370132915625"><ele>59.0</ele><time>2026-05-01T10:22:27.999Z</time></trkpt><trkpt lat="43.33569384203506" lon="10.734175708007403"><ele>62.0</ele><time>2026-05-01T10:22:28.999Z</time></trkpt><trkpt lat="43.33559956315705" lon="10.73398325703741"><ele>58.0</ele><time>2026-05-01T10:22:29.999Z</time></trkpt><trkpt lat="43.33549218326044" lon="10.733802329147194"><ele>54.0</ele><time>2026-05-01T10:22:30.999Z</time></trkpt><trkpt lat="43.33541703870061" lon="10.733595083365628"><ele>50.0</ele><time>2026-05-01T10:22:31.999Z</time></trkpt><trkpt lat="43.33534140913431" lon="10.733394994904808"><ele>50.0</ele><time>2026-05-01T10:22:32.999Z</time></trkpt><trkpt lat="43.33527102704936" lon="10.733197465937067"><ele>50.0</ele><time>2026-05-01T10:22:33.999Z</time></trkpt><trkpt lat="43.335202441887084" lon="10.733004980041333"><ele>50.0</ele><time>2026-05-01T10:22:34.999Z</time></trkpt><trkpt lat="43.33513516978486" lon="10.73281899887048"><ele>51.25</ele><time>2026-05-01T10:22:35.999Z</time></trkpt><trkpt lat="43.33507977309697" lon="10.732634557805806"><ele>52.5</ele><time>2026-05-01T10:22:36.999Z</time></trkpt><trkpt lat="43.33504017650786" lon="10.732442889815438"><ele>53.75</ele><time>2026-05-01T10:22:37.999Z</time></trkpt><trkpt lat="43.335036537699295" lon="10.732242452979841"><ele>55.0</ele><time>2026-05-01T10:22:38.999Z</time></trkpt><trkpt lat="43.3350478295202" lon="10.73202461126889"><ele>55.33333333333333</ele><time>2026-05-01T10:22:39.999Z</time></trkpt><trkpt lat="43.335062228689296" lon="10.731799492339016"><ele>55.66666666666667</ele><time>2026-05-01T10:22:40.999Z</time></trkpt><trkpt lat="43.33507910620244" lon="10.731571000792195"><ele>56.0</ele><time>2026-05-01T10:22:41.999Z</time></trkpt><trkpt lat="43.33508268292845" lon="10.731335561968946"><ele>56.0</ele><time>2026-05-01T10:22:42.999Z</time></trkpt><trkpt lat="43.335101887094176" lon="10.731099450509586"><ele>56.0</ele><time>2026-05-01T10:22:43.999Z</time></trkpt><trkpt lat="43.335124671966504" lon="10.730860621626388"><ele>56.0</ele><time>2026-05-01T10:22:44.999Z</time></trkpt><trkpt lat="43.33514209084703" lon="10.730623798135435"><ele>55.66666666666667</ele><time>2026-05-01T10:22:45.999Z</time></trkpt><trkpt lat="43.33516186207519" lon="10.730379608643066"><ele>55.33333333333333</ele><time>2026-05-01T10:22:46.999Z</time></trkpt><trkpt lat="43.33518445787043" lon="10.730113638641784"><ele>55.0</ele><time>2026-05-01T10:22:47.999Z</time></trkpt><trkpt lat="43.33520175784965" lon="10.729837825880102"><ele>55.0</ele><time>2026-05-01T10:22:48.999Z</time></trkpt><trkpt lat="43.335194530208284" lon="10.729552888856292"><ele>55.0</ele><time>2026-05-01T10:22:49.999Z</time></trkpt><trkpt lat="43.335158311615615" lon="10.729265881416476"><ele>55.0</ele><time>2026-05-01T10:22:50.999Z</time></trkpt><trkpt lat="43.33512786468339" lon="10.728984429360825"><ele>55.33333333333333</ele><time>2026-05-01T10:22:51.999Z</time></trkpt><trkpt lat="43.335089884602674" lon="10.728698179528134"><ele>55.66666666666667</ele><time>2026-05-01T10:22:52.999Z</time></trkpt><trkpt lat="43.33505083534375" lon="10.728403872297429"><ele>56.0</ele><time>2026-05-01T10:22:53.999Z</time></trkpt><trkpt lat="43.33499595881594" lon="10.72810590898387"><ele>56.5</ele><time>2026-05-01T10:22:54.999Z</time></trkpt><trkpt lat="43.334972270075625" lon="10.727793597431386"><ele>57.0</ele><time>2026-05-01T10:22:55.999Z</time></trkpt><trkpt lat="43.33493239937483" lon="10.727489850089745"><ele>57.33333333333333</ele><time>2026-05-01T10:22:56.999Z</time></trkpt><trkpt lat="43.33489268108842" lon="10.727191719557501"><ele>57.666666666666664</ele><time>2026-05-01T10:22:57.999Z</time></trkpt><trkpt lat="43.33485343616321" lon="10.726895237182413"><ele>58.0</ele><time>2026-05-01T10:22:58.999Z</time></trkpt><trkpt lat="43.33481531975256" lon="10.726603252594417"><ele>58.666666666666664</ele><time>2026-05-01T10:22:59.999Z</time></trkpt><trkpt lat="43.3347767532454" lon="10.726316748532907"><ele>59.33333333333333</ele><time>2026-05-01T10:23:00.999Z</time></trkpt><trkpt lat="43.33474008278092" lon="10.726044852432253"><ele>60.0</ele><time>2026-05-01T10:23:01.999Z</time></trkpt><trkpt lat="43.33470549677964" lon="10.725788411646281"><ele>57.66666666666667</ele><time>2026-05-01T10:23:02.999Z</time></trkpt><trkpt lat="43.33467128660701" lon="10.725539054518062"><ele>55.333333333333336</ele><time>2026-05-01T10:23:03.999Z</time></trkpt><trkpt lat="43.33461783667126" lon="10.725293094292265"><ele>53.0</ele><time>2026-05-01T10:23:04.999Z</time></trkpt><trkpt lat="43.334559755733586" lon="10.725053504233786"><ele>53.0</ele><time>2026-05-01T10:23:05.999Z</time></trkpt><trkpt lat="43.33446300834561" lon="10.724838514290607"><ele>53.0</ele><time>2026-05-01T10:23:06.999Z</time></trkpt><trkpt lat="43.33432960964076" lon="10.724642641642449"><ele>53.0</ele><time>2026-05-01T10:23:07.999Z</time></trkpt><trkpt lat="43.33421987572385" lon="10.724430942095267"><ele>54.66666666666667</ele><time>2026-05-01T10:23:08.999Z</time></trkpt><trkpt lat="43.3341047932794" lon="10.72423618812967"><ele>56.33333333333333</ele><time>2026-05-01T10:23:09.999Z</time></trkpt><trkpt lat="43.334009009525815" lon="10.72403727747487"><ele>58.0</ele><time>2026-05-01T10:23:10.999Z</time></trkpt><trkpt lat="43.33393991493893" lon="10.723824654696555"><ele>58.0</ele><time>2026-05-01T10:23:11.999Z</time></trkpt><trkpt lat="43.333890893854544" lon="10.723624673198135"><ele>58.0</ele><time>2026-05-01T10:23:12.999Z</time></trkpt><trkpt lat="43.33383034706089" lon="10.723428323978727"><ele>58.0</ele><time>2026-05-01T10:23:13.999Z</time></trkpt><trkpt lat="43.33379549079462" lon="10.723227073879256"><ele>55.33333333333333</ele><time>2026-05-01T10:23:14.999Z</time></trkpt><trkpt lat="43.333756094953884" lon="10.723027943711084"><ele>52.66666666666667</ele><time>2026-05-01T10:23:16Z</time></trkpt><trkpt lat="43.33370707994359" lon="10.722826487482877"><ele>50.0</ele><time>2026-05-01T10:23:17Z</time></trkpt><trkpt lat="43.33366125293733" lon="10.722624304964754"><ele>49.66666666666667</ele><time>2026-05-01T10:23:18Z</time></trkpt><trkpt lat="43.3336141512771" lon="10.72241150409949"><ele>49.33333333333333</ele><time>2026-05-01T10:23:19Z</time></trkpt><trkpt lat="43.333568506490884" lon="10.722199888970552"><ele>49.0</ele><time>2026-05-01T10:23:20Z</time></trkpt><trkpt lat="43.33351880873292" lon="10.721986980020404"><ele>49.33333333333333</ele><time>2026-05-01T10:23:21Z</time></trkpt><trkpt lat="43.333468979469195" lon="10.72177569755118"><ele>49.66666666666667</ele><time>2026-05-01T10:23:22Z</time></trkpt><trkpt lat="43.33342169171438" lon="10.721558625046683"><ele>50.0</ele><time>2026-05-01T10:23:23Z</time></trkpt><trkpt lat="43.33337057873282" lon="10.721334732979404"><ele>50.0</ele><time>2026-05-01T10:23:24Z</time></trkpt><trkpt lat="43.33331973425404" lon="10.721111610509722"><ele>50.0</ele><time>2026-05-01T10:23:25Z</time></trkpt><trkpt lat="43.33326883215294" lon="10.72088420821476"><ele>50.0</ele><time>2026-05-01T10:23:26Z</time></trkpt><trkpt lat="43.33321585633" lon="10.720647055968877"><ele>49.66666666666667</ele><time>2026-05-01T10:23:27Z</time></trkpt><trkpt lat="43.33316342901666" lon="10.720411116990991"><ele>49.33333333333333</ele><time>2026-05-01T10:23:28Z</time></trkpt><trkpt lat="43.33311039968417" lon="10.72017079999837"><ele>49.0</ele><time>2026-05-01T10:23:29Z</time></trkpt><trkpt lat="43.33305584865097" lon="10.719926501552147"><ele>48.33333333333333</ele><time>2026-05-01T10:23:30Z</time></trkpt><trkpt lat="43.3330044505069" lon="10.71968089350578"><ele>47.666666666666664</ele><time>2026-05-01T10:23:31Z</time></trkpt><trkpt lat="43.33296112682591" lon="10.719429185030664"><ele>47.0</ele><time>2026-05-01T10:23:32Z</time></trkpt><trkpt lat="43.33289883036863" lon="10.719201525078025"><ele>47.0</ele><time>2026-05-01T10:23:33Z</time></trkpt><trkpt lat="43.33287192057538" lon="10.718956303186847"><ele>47.0</ele><time>2026-05-01T10:23:34Z</time></trkpt><trkpt lat="43.332843358646784" lon="10.71872199736941"><ele>47.0</ele><time>2026-05-01T10:23:35Z</time></trkpt><trkpt lat="43.332824121896664" lon="10.7184889150469"><ele>48.666666666666664</ele><time>2026-05-01T10:23:36Z</time></trkpt><trkpt lat="43.332794171906826" lon="10.718256158034327"><ele>50.33333333333333</ele><time>2026-05-01T10:23:37Z</time></trkpt><trkpt lat="43.33278285593142" lon="10.718026462088131"><ele>52.0</ele><time>2026-05-01T10:23:38Z</time></trkpt><trkpt lat="43.332770110450234" lon="10.71778747142641"><ele>52.33333333333333</ele><time>2026-05-01T10:23:39Z</time></trkpt><trkpt lat="43.332758345792726" lon="10.7175539561613"><ele>52.66666666666667</ele><time>2026-05-01T10:23:40Z</time></trkpt><trkpt lat="43.332746097438196" lon="10.717322896548596"><ele>53.0</ele><time>2026-05-01T10:23:41Z</time></trkpt><trkpt lat="43.3327316370351" lon="10.717092946828803"><ele>54.0</ele><time>2026-05-01T10:23:42Z</time></trkpt><trkpt lat="43.33271575035962" lon="10.716862237074738"><ele>55.0</ele><time>2026-05-01T10:23:43Z</time></trkpt><trkpt lat="43.3326987574534" lon="10.716630773640304"><ele>56.0</ele><time>2026-05-01T10:23:44Z</time></trkpt><trkpt lat="43.33268245960763" lon="10.71639350429941"><ele>56.0</ele><time>2026-05-01T10:23:45Z</time></trkpt><trkpt lat="43.33266468749311" lon="10.71615630304491"><ele>56.0</ele><time>2026-05-01T10:23:46Z</time></trkpt><trkpt lat="43.3326444960884" lon="10.715913742699717"><ele>56.0</ele><time>2026-05-01T10:23:47Z</time></trkpt><trkpt lat="43.33262536370935" lon="10.715671179626657"><ele>55.0</ele><time>2026-05-01T10:23:48Z</time></trkpt><trkpt lat="43.33260824321593" lon="10.715425485024651"><ele>54.0</ele><time>2026-05-01T10:23:49Z</time></trkpt><trkpt lat="43.33259230742897" lon="10.715183987299165"><ele>53.0</ele><time>2026-05-01T10:23:50Z</time></trkpt><trkpt lat="43.33257471759923" lon="10.714946134366873"><ele>50.66666666666667</ele><time>2026-05-01T10:23:51Z</time></trkpt><trkpt lat="43.332555197514715" lon="10.714711514972548"><ele>48.333333333333336</ele><time>2026-05-01T10:23:52Z</time></trkpt><trkpt lat="43.33253533003132" lon="10.714481562529587"><ele>46.0</ele><time>2026-05-01T10:23:53Z</time></trkpt><trkpt lat="43.33251929657484" lon="10.714250089011335"><ele>45.66666666666667</ele><time>2026-05-01T10:23:54Z</time></trkpt><trkpt lat="43.33250539482695" lon="10.714022532141191"><ele>45.333333333333336</ele><time>2026-05-01T10:23:55Z</time></trkpt><trkpt lat="43.33248849016593" lon="10.713804104822119"><ele>45.0</ele><time>2026-05-01T10:23:56Z</time></trkpt><trkpt lat="43.33245878118468" lon="10.713589191884111"><ele>46.0</ele><time>2026-05-01T10:23:57Z</time></trkpt><trkpt lat="43.33241633345639" lon="10.71338240386265"><ele>47.0</ele><time>2026-05-01T10:23:58Z</time></trkpt><trkpt lat="43.33235938282111" lon="10.713174523393372"><ele>48.0</ele><time>2026-05-01T10:23:59Z</time></trkpt><trkpt lat="43.33229184259591" lon="10.712970963174355"><ele>48.0</ele><time>2026-05-01T10:24:00Z</time></trkpt><trkpt lat="43.33221144335162" lon="10.712776212528457"><ele>48.0</ele><time>2026-05-01T10:24:01Z</time></trkpt><trkpt lat="43.33211639065638" lon="10.71258678081881"><ele>48.0</ele><time>2026-05-01T10:24:02Z</time></trkpt><trkpt lat="43.33201283393548" lon="10.712404378154702"><ele>48.0</ele><time>2026-05-01T10:24:03Z</time></trkpt><trkpt lat="43.331902448364936" lon="10.712223132272383"><ele>48.0</ele><time>2026-05-01T10:24:04Z</time></trkpt><trkpt lat="43.33179271301586" lon="10.71203912123772"><ele>48.0</ele><time>2026-05-01T10:24:05Z</time></trkpt><trkpt lat="43.33168171228237" lon="10.711851886780419"><ele>47.666666666666664</ele><time>2026-05-01T10:24:06Z</time></trkpt><trkpt lat="43.331568378184116" lon="10.711667867888929"><ele>47.33333333333333</ele><time>2026-05-01T10:24:07Z</time></trkpt><trkpt lat="43.33145380726397" lon="10.711483529313341"><ele>47.0</ele><time>2026-05-01T10:24:08Z</time></trkpt><trkpt lat="43.33134592615263" lon="10.711310364979713"><ele>46.33333333333333</ele><time>2026-05-01T10:24:08.999Z</time></trkpt><trkpt lat="43.33124048486245" lon="10.711140454155306"><ele>45.666666666666664</ele><time>2026-05-01T10:24:09.999Z</time></trkpt><trkpt lat="43.331124705051685" lon="10.710957474128621"><ele>45.0</ele><time>2026-05-01T10:24:10.999Z</time></trkpt><trkpt lat="43.331019276771634" lon="10.710782670990598"><ele>46.33333333333333</ele><time>2026-05-01T10:24:11.999Z</time></trkpt><trkpt lat="43.3309136206409" lon="10.710607105241458"><ele>47.666666666666664</ele><time>2026-05-01T10:24:12.999Z</time></trkpt><trkpt lat="43.33081056974302" lon="10.710436902640817"><ele>49.0</ele><time>2026-05-01T10:24:13.999Z</time></trkpt><trkpt lat="43.330708866849776" lon="10.710264281815286"><ele>48.0</ele><time>2026-05-01T10:24:14.999Z</time></trkpt><trkpt lat="43.330622954512116" lon="10.710067146807052"><ele>47.0</ele><time>2026-05-01T10:24:15.999Z</time></trkpt><trkpt lat="43.330538003763984" lon="10.70986912134669"><ele>46.0</ele><time>2026-05-01T10:24:16.999Z</time></trkpt><trkpt lat="43.33045996013261" lon="10.709655741577992"><ele>46.0</ele><time>2026-05-01T10:24:17.999Z</time></trkpt><trkpt lat="43.33039473425566" lon="10.709432041253923"><ele>46.0</ele><time>2026-05-01T10:24:18.999Z</time></trkpt><trkpt lat="43.330332760534986" lon="10.70920045054659"><ele>46.0</ele><time>2026-05-01T10:24:19.999Z</time></trkpt><trkpt lat="43.330265262561056" lon="10.708970726422086"><ele>46.333333333333336</ele><time>2026-05-01T10:24:20.999Z</time></trkpt><trkpt lat="43.33021537711503" lon="10.70872921566802"><ele>46.666666666666664</ele><time>2026-05-01T10:24:21.999Z</time></trkpt><trkpt lat="43.33016158197565" lon="10.708488115203746"><ele>47.0</ele><time>2026-05-01T10:24:22.999Z</time></trkpt><trkpt lat="43.33010263852659" lon="10.708245864913613"><ele>47.666666666666664</ele><time>2026-05-01T10:24:23.999Z</time></trkpt><trkpt lat="43.330046826049006" lon="10.708008127889917"><ele>48.33333333333333</ele><time>2026-05-01T10:24:24.999Z</time></trkpt><trkpt lat="43.32999226358751" lon="10.707768521273538"><ele>49.0</ele><time>2026-05-01T10:24:25.999Z</time></trkpt><trkpt lat="43.32994264974364" lon="10.70753300080142"><ele>50.0</ele><time>2026-05-01T10:24:26.999Z</time></trkpt><trkpt lat="43.329895938515286" lon="10.70729563704894"><ele>51.0</ele><time>2026-05-01T10:24:27.999Z</time></trkpt><trkpt lat="43.329857788840236" lon="10.707059894376988"><ele>52.0</ele><time>2026-05-01T10:24:28.999Z</time></trkpt><trkpt lat="43.32984111127302" lon="10.706822898497943"><ele>53.0</ele><time>2026-05-01T10:24:29.999Z</time></trkpt><trkpt lat="43.32983418820848" lon="10.706586909180118"><ele>54.0</ele><time>2026-05-01T10:24:30.999Z</time></trkpt><trkpt lat="43.32983522542097" lon="10.706355427364143"><ele>55.0</ele><time>2026-05-01T10:24:31.999Z</time></trkpt><trkpt lat="43.32984441234078" lon="10.70612935106915"><ele>55.0</ele><time>2026-05-01T10:24:32.999Z</time></trkpt><trkpt lat="43.329848160400424" lon="10.70589437683707"><ele>55.0</ele><time>2026-05-01T10:24:33.999Z</time></trkpt><trkpt lat="43.329850004183605" lon="10.705656868523988"><ele>55.0</ele><time>2026-05-01T10:24:34.999Z</time></trkpt><trkpt lat="43.32985197960305" lon="10.705420943809623"><ele>53.666666666666664</ele><time>2026-05-01T10:24:35.999Z</time></trkpt><trkpt lat="43.329852674104785" lon="10.705187944758487"><ele>52.33333333333333</ele><time>2026-05-01T10:24:36.999Z</time></trkpt><trkpt lat="43.329852354777096" lon="10.704953993701988"><ele>51.0</ele><time>2026-05-01T10:24:37.999Z</time></trkpt><trkpt lat="43.3298471481432" lon="10.704715755230223"><ele>51.0</ele><time>2026-05-01T10:24:38.999Z</time></trkpt><trkpt lat="43.329835165083345" lon="10.704478229713494"><ele>51.0</ele><time>2026-05-01T10:24:39.999Z</time></trkpt><trkpt lat="43.329813060191654" lon="10.704241294722024"><ele>51.0</ele><time>2026-05-01T10:24:40.999Z</time></trkpt><trkpt lat="43.32977653118823" lon="10.704005277730348"><ele>51.0</ele><time>2026-05-01T10:24:41.999Z</time></trkpt><trkpt lat="43.329728652203514" lon="10.70377264811417"><ele>51.0</ele><time>2026-05-01T10:24:42.999Z</time></trkpt><trkpt lat="43.32967046846966" lon="10.703540948108834"><ele>51.0</ele><time>2026-05-01T10:24:43.999Z</time></trkpt><trkpt lat="43.32961277978849" lon="10.703312560202559"><ele>49.333333333333336</ele><time>2026-05-01T10:24:44.999Z</time></trkpt><trkpt lat="43.32955418684893" lon="10.703086892552848"><ele>47.66666666666667</ele><time>2026-05-01T10:24:45.999Z</time></trkpt><trkpt lat="43.32949339991366" lon="10.70285552903204"><ele>46.0</ele><time>2026-05-01T10:24:46.999Z</time></trkpt><trkpt lat="43.32943496649434" lon="10.702626529984183"><ele>46.0</ele><time>2026-05-01T10:24:47.999Z</time></trkpt><trkpt lat="43.329376751056635" lon="10.702402086174954"><ele>46.0</ele><time>2026-05-01T10:24:48.999Z</time></trkpt><trkpt lat="43.32931689435477" lon="10.70217722505732"><ele>46.0</ele><time>2026-05-01T10:24:49.999Z</time></trkpt><trkpt lat="43.32925668470627" lon="10.7019524348375"><ele>47.0</ele><time>2026-05-01T10:24:50.999Z</time></trkpt><trkpt lat="43.3291994592996" lon="10.701726291307963"><ele>48.0</ele><time>2026-05-01T10:24:51.999Z</time></trkpt><trkpt lat="43.32917831180175" lon="10.70148941314018"><ele>49.0</ele><time>2026-05-01T10:24:52.999Z</time></trkpt><trkpt lat="43.329148413358965" lon="10.70125674984397"><ele>50.0</ele><time>2026-05-01T10:24:53.999Z</time></trkpt><trkpt lat="43.3291265480243" lon="10.701021586425375"><ele>51.0</ele><time>2026-05-01T10:24:54.999Z</time></trkpt><trkpt lat="43.32912055163781" lon="10.700788609818883"><ele>52.0</ele><time>2026-05-01T10:24:55.999Z</time></trkpt><trkpt lat="43.32912414757767" lon="10.700550162651238"><ele>52.0</ele><time>2026-05-01T10:24:56.999Z</time></trkpt><trkpt lat="43.329136830360355" lon="10.700315686122027"><ele>52.0</ele><time>2026-05-01T10:24:57.999Z</time></trkpt><trkpt lat="43.32916188292119" lon="10.700081867784206"><ele>52.0</ele><time>2026-05-01T10:24:58.999Z</time></trkpt><trkpt lat="43.32919760819053" lon="10.699849367766017"><ele>52.0</ele><time>2026-05-01T10:24:59.999Z</time></trkpt><trkpt lat="43.32924447932427" lon="10.699621168650333"><ele>52.0</ele><time>2026-05-01T10:25:00.999Z</time></trkpt><trkpt lat="43.3292992210219" lon="10.699390999677853"><ele>52.0</ele><time>2026-05-01T10:25:01.999Z</time></trkpt><trkpt lat="43.32934746075553" lon="10.699152784277283"><ele>50.0</ele><time>2026-05-01T10:25:02.999Z</time></trkpt><trkpt lat="43.32942763149212" lon="10.698927068643277"><ele>48.0</ele><time>2026-05-01T10:25:03.999Z</time></trkpt><trkpt lat="43.329510934943116" lon="10.698703577101538"><ele>46.0</ele><time>2026-05-01T10:25:04.999Z</time></trkpt><trkpt lat="43.32959500111448" lon="10.698485982487217"><ele>46.333333333333336</ele><time>2026-05-01T10:25:05.999Z</time></trkpt><trkpt lat="43.32967592326282" lon="10.69826936236872"><ele>46.666666666666664</ele><time>2026-05-01T10:25:06.999Z</time></trkpt><trkpt lat="43.32975471441117" lon="10.698052935054852"><ele>47.0</ele><time>2026-05-01T10:25:07.999Z</time></trkpt><trkpt lat="43.329834123904064" lon="10.697836616049221"><ele>45.666666666666664</ele><time>2026-05-01T10:25:08.999Z</time></trkpt><trkpt lat="43.329905501821216" lon="10.697623358643789"><ele>44.333333333333336</ele><time>2026-05-01T10:25:09.999Z</time></trkpt><trkpt lat="43.329971993034874" lon="10.697401113302414"><ele>43.0</ele><time>2026-05-01T10:25:10.999Z</time></trkpt><trkpt lat="43.33002489435985" lon="10.69717021028866"><ele>43.0</ele><time>2026-05-01T10:25:11.999Z</time></trkpt><trkpt lat="43.33007790570132" lon="10.696935154569248"><ele>43.0</ele><time>2026-05-01T10:25:12.999Z</time></trkpt><trkpt lat="43.33012140007815" lon="10.696695315909128"><ele>43.0</ele><time>2026-05-01T10:25:13.999Z</time></trkpt><trkpt lat="43.33016168085893" lon="10.69644676772456"><ele>43.0</ele><time>2026-05-01T10:25:14.999Z</time></trkpt><trkpt lat="43.33019263198148" lon="10.696202954170491"><ele>43.0</ele><time>2026-05-01T10:25:15.999Z</time></trkpt><trkpt lat="43.33022425636837" lon="10.69595252310156"><ele>43.0</ele><time>2026-05-01T10:25:16.999Z</time></trkpt><trkpt lat="43.33025562785661" lon="10.695700311983707"><ele>43.333333333333336</ele><time>2026-05-01T10:25:17.999Z</time></trkpt><trkpt lat="43.33028796995514" lon="10.695442533564918"><ele>43.666666666666664</ele><time>2026-05-01T10:25:18.999Z</time></trkpt><trkpt lat="43.33031587489167" lon="10.695182750473839"><ele>44.0</ele><time>2026-05-01T10:25:19.999Z</time></trkpt><trkpt lat="43.33032761102194" lon="10.694924287630236"><ele>44.0</ele><time>2026-05-01T10:25:21Z</time></trkpt><trkpt lat="43.330335301185634" lon="10.694665075339852"><ele>44.0</ele><time>2026-05-01T10:25:22Z</time></trkpt><trkpt lat="43.33032049727665" lon="10.694401897124793"><ele>44.0</ele><time>2026-05-01T10:25:23Z</time></trkpt><trkpt lat="43.33029309631392" lon="10.69413922796646"><ele>44.666666666666664</ele><time>2026-05-01T10:25:24Z</time></trkpt><trkpt lat="43.33025368425738" lon="10.693877117501085"><ele>45.333333333333336</ele><time>2026-05-01T10:25:25Z</time></trkpt><trkpt lat="43.330211807164495" lon="10.693619337490453"><ele>46.0</ele><time>2026-05-01T10:25:26Z</time></trkpt><trkpt lat="43.33016775999535" lon="10.693367235369966"><ele>46.0</ele><time>2026-05-01T10:25:27Z</time></trkpt><trkpt lat="43.330123333051446" lon="10.693125131978933"><ele>46.0</ele><time>2026-05-01T10:25:28Z</time></trkpt><trkpt lat="43.33007917511422" lon="10.692885586548702"><ele>46.0</ele><time>2026-05-01T10:25:29Z</time></trkpt><trkpt lat="43.330037500556834" lon="10.692651883340506"><ele>46.0</ele><time>2026-05-01T10:25:30Z</time></trkpt><trkpt lat="43.32999104192996" lon="10.69242184262464"><ele>46.0</ele><time>2026-05-01T10:25:31Z</time></trkpt><trkpt lat="43.32994406645892" lon="10.692191401418981"><ele>46.0</ele><time>2026-05-01T10:25:32Z</time></trkpt><trkpt lat="43.329888348160274" lon="10.691958016752942"><ele>44.66666666666667</ele><time>2026-05-01T10:25:33Z</time></trkpt><trkpt lat="43.32982275238428" lon="10.691722134332656"><ele>43.333333333333336</ele><time>2026-05-01T10:25:34Z</time></trkpt><trkpt lat="43.32974983484515" lon="10.69148775916175"><ele>42.0</ele><time>2026-05-01T10:25:35Z</time></trkpt><trkpt lat="43.32967262183976" lon="10.691253403280431"><ele>41.666666666666664</ele><time>2026-05-01T10:25:36Z</time></trkpt><trkpt lat="43.32958907194467" lon="10.691026041040685"><ele>41.33333333333333</ele><time>2026-05-01T10:25:37Z</time></trkpt><trkpt lat="43.32950297865638" lon="10.69080283776847"><ele>41.0</ele><time>2026-05-01T10:25:38Z</time></trkpt><trkpt lat="43.32941048224338" lon="10.69058466799799"><ele>41.0</ele><time>2026-05-01T10:25:39Z</time></trkpt><trkpt lat="43.3293211698963" lon="10.690365753841482"><ele>41.0</ele><time>2026-05-01T10:25:40Z</time></trkpt><trkpt lat="43.3292378657527" lon="10.690139222955592"><ele>41.0</ele><time>2026-05-01T10:25:41Z</time></trkpt><trkpt lat="43.32915470602242" lon="10.689929567474714"><ele>41.33333333333333</ele><time>2026-05-01T10:25:42Z</time></trkpt><trkpt lat="43.32906827695278" lon="10.689715084094694"><ele>41.666666666666664</ele><time>2026-05-01T10:25:43Z</time></trkpt><trkpt lat="43.32898815174799" lon="10.689507825174324"><ele>42.0</ele><time>2026-05-01T10:25:44Z</time></trkpt><trkpt lat="43.328903597196955" lon="10.689297730722354"><ele>41.666666666666664</ele><time>2026-05-01T10:25:45Z</time></trkpt><trkpt lat="43.32881802048059" lon="10.689082588865396"><ele>41.33333333333333</ele><time>2026-05-01T10:25:45.999Z</time></trkpt><trkpt lat="43.32873273317252" lon="10.688854175995623"><ele>41.0</ele><time>2026-05-01T10:25:46.999Z</time></trkpt><trkpt lat="43.32865373377368" lon="10.688615412746529"><ele>41.666666666666664</ele><time>2026-05-01T10:25:47.999Z</time></trkpt><trkpt lat="43.32858405202597" lon="10.68837262980407"><ele>42.333333333333336</ele><time>2026-05-01T10:25:48.999Z</time></trkpt><trkpt lat="43.3285178701469" lon="10.688117723143908"><ele>43.0</ele><time>2026-05-01T10:25:49.999Z</time></trkpt><trkpt lat="43.32846270066529" lon="10.687858559399304"><ele>43.333333333333336</ele><time>2026-05-01T10:25:50.999Z</time></trkpt><trkpt lat="43.32841422884086" lon="10.687592241495148"><ele>43.666666666666664</ele><time>2026-05-01T10:25:51.999Z</time></trkpt><trkpt lat="43.328381531640616" lon="10.68732701250291"><ele>44.0</ele><time>2026-05-01T10:25:52.999Z</time></trkpt><trkpt lat="43.32836130343744" lon="10.687054975108158"><ele>44.33333333333333</ele><time>2026-05-01T10:25:53.999Z</time></trkpt><trkpt lat="43.32835550286193" lon="10.686785504693903"><ele>44.666666666666664</ele><time>2026-05-01T10:25:54.999Z</time></trkpt><trkpt lat="43.328365882871786" lon="10.686520285286356"><ele>45.0</ele><time>2026-05-01T10:25:55.999Z</time></trkpt><trkpt lat="43.32838483335646" lon="10.686255930074859"><ele>45.0</ele><time>2026-05-01T10:25:56.999Z</time></trkpt><trkpt lat="43.32841442303393" lon="10.685996604082595"><ele>45.0</ele><time>2026-05-01T10:25:57.999Z</time></trkpt><trkpt lat="43.328452405417636" lon="10.685736461392219"><ele>45.0</ele><time>2026-05-01T10:25:58.999Z</time></trkpt><trkpt lat="43.32850060520851" lon="10.685480571145472"><ele>44.666666666666664</ele><time>2026-05-01T10:25:59.999Z</time></trkpt><trkpt lat="43.32855891730373" lon="10.685229530514638"><ele>44.33333333333333</ele><time>2026-05-01T10:26:00.999Z</time></trkpt><trkpt lat="43.328626343078476" lon="10.684981119777772"><ele>44.0</ele><time>2026-05-01T10:26:01.999Z</time></trkpt><trkpt lat="43.328695725712436" lon="10.684736172075713"><ele>44.0</ele><time>2026-05-01T10:26:02.999Z</time></trkpt><trkpt lat="43.32875741820043" lon="10.684482707077246"><ele>44.0</ele><time>2026-05-01T10:26:03.999Z</time></trkpt><trkpt lat="43.3288221025813" lon="10.684228631670221"><ele>44.0</ele><time>2026-05-01T10:26:04.999Z</time></trkpt><trkpt lat="43.32888731434921" lon="10.683976202508592"><ele>44.0</ele><time>2026-05-01T10:26:05.999Z</time></trkpt><trkpt lat="43.328951905282835" lon="10.68372107971862"><ele>44.0</ele><time>2026-05-01T10:26:06.999Z</time></trkpt><trkpt lat="43.3290142916453" lon="10.68346071242878"><ele>44.0</ele><time>2026-05-01T10:26:07.999Z</time></trkpt><trkpt lat="43.32907800538987" lon="10.683205784514819"><ele>43.33333333333333</ele><time>2026-05-01T10:26:08.999Z</time></trkpt><trkpt lat="43.32914014942733" lon="10.682948827840175"><ele>42.666666666666664</ele><time>2026-05-01T10:26:09.999Z</time></trkpt><trkpt lat="43.32919552481434" lon="10.682691657948444"><ele>42.0</ele><time>2026-05-01T10:26:10.999Z</time></trkpt><trkpt lat="43.32924533069379" lon="10.68243951784594"><ele>41.333333333333336</ele><time>2026-05-01T10:26:11.999Z</time></trkpt><trkpt lat="43.32929497187561" lon="10.682187120019101"><ele>40.66666666666667</ele><time>2026-05-01T10:26:12.999Z</time></trkpt><trkpt lat="43.329342352176134" lon="10.681938020355757"><ele>40.0</ele><time>2026-05-01T10:26:13.999Z</time></trkpt><trkpt lat="43.329387142509844" lon="10.681690300560286"><ele>39.333333333333336</ele><time>2026-05-01T10:26:14.999Z</time></trkpt><trkpt lat="43.329429004298895" lon="10.681443581914658"><ele>38.666666666666664</ele><time>2026-05-01T10:26:15.999Z</time></trkpt><trkpt lat="43.329470266257616" lon="10.681197617492751"><ele>38.0</ele><time>2026-05-01T10:26:16.999Z</time></trkpt><trkpt lat="43.32951127369992" lon="10.680951987878819"><ele>38.0</ele><time>2026-05-01T10:26:17.999Z</time></trkpt><trkpt lat="43.32954901151464" lon="10.680707831738895"><ele>38.0</ele><time>2026-05-01T10:26:18.999Z</time></trkpt><trkpt lat="43.329586180178964" lon="10.68046553745118"><ele>38.0</ele><time>2026-05-01T10:26:19.999Z</time></trkpt><trkpt lat="43.32962116974593" lon="10.680221609869834"><ele>38.33333333333333</ele><time>2026-05-01T10:26:20.999Z</time></trkpt><trkpt lat="43.329649452588285" lon="10.67997779741757"><ele>38.666666666666664</ele><time>2026-05-01T10:26:21.999Z</time></trkpt><trkpt lat="43.32967522202996" lon="10.679733206321453"><ele>39.0</ele><time>2026-05-01T10:26:22.999Z</time></trkpt><trkpt lat="43.32969915932344" lon="10.679487203704028"><ele>38.666666666666664</ele><time>2026-05-01T10:26:23.999Z</time></trkpt><trkpt lat="43.32972103399106" lon="10.679240701529478"><ele>38.33333333333333</ele><time>2026-05-01T10:26:24.999Z</time></trkpt><trkpt lat="43.32973970664731" lon="10.67899251253191"><ele>38.0</ele><time>2026-05-01T10:26:25.999Z</time></trkpt><trkpt lat="43.329758286129696" lon="10.67873958889873"><ele>41.666666666666664</ele><time>2026-05-01T10:26:26.999Z</time></trkpt><trkpt lat="43.329776153582195" lon="10.678475877042562"><ele>45.33333333333333</ele><time>2026-05-01T10:26:27.999Z</time></trkpt><trkpt lat="43.32978997805024" lon="10.678210495626503"><ele>49.0</ele><time>2026-05-01T10:26:28.999Z</time></trkpt><trkpt lat="43.329801603559105" lon="10.677929977125284"><ele>46.33333333333333</ele><time>2026-05-01T10:26:29.999Z</time></trkpt><trkpt lat="43.32981293955468" lon="10.677646668481751"><ele>43.666666666666664</ele><time>2026-05-01T10:26:30.999Z</time></trkpt><trkpt lat="43.329824951297915" lon="10.677358477245473"><ele>41.0</ele><time>2026-05-01T10:26:31.999Z</time></trkpt><trkpt lat="43.32983681812453" lon="10.677065655315474"><ele>39.666666666666664</ele><time>2026-05-01T10:26:32.999Z</time></trkpt><trkpt lat="43.329845062385345" lon="10.676771913030004"><ele>38.333333333333336</ele><time>2026-05-01T10:26:33.999Z</time></trkpt><trkpt lat="43.32984676536298" lon="10.676473948961062"><ele>37.0</ele><time>2026-05-01T10:26:34.999Z</time></trkpt><trkpt lat="43.329840426164445" lon="10.676170578169087"><ele>37.333333333333336</ele><time>2026-05-01T10:26:35.999Z</time></trkpt><trkpt lat="43.32983095001826" lon="10.675862822544671"><ele>37.666666666666664</ele><time>2026-05-01T10:26:36.999Z</time></trkpt><trkpt lat="43.32982068913208" lon="10.675556021499315"><ele>38.0</ele><time>2026-05-01T10:26:37.999Z</time></trkpt><trkpt lat="43.32980743742729" lon="10.675251609055056"><ele>38.0</ele><time>2026-05-01T10:26:38.999Z</time></trkpt><trkpt lat="43.32979564874568" lon="10.674947474025574"><ele>38.0</ele><time>2026-05-01T10:26:39.999Z</time></trkpt><trkpt lat="43.32978144832806" lon="10.674641052612214"><ele>38.0</ele><time>2026-05-01T10:26:40.999Z</time></trkpt><trkpt lat="43.32976127548227" lon="10.674348875066453"><ele>38.0</ele><time>2026-05-01T10:26:41.998Z</time></trkpt><trkpt lat="43.32973980702895" lon="10.674052442342216"><ele>38.0</ele><time>2026-05-01T10:26:42.998Z</time></trkpt><trkpt lat="43.32971643960008" lon="10.67376429094079"><ele>38.0</ele><time>2026-05-01T10:26:43.998Z</time></trkpt><trkpt lat="43.32968680496678" lon="10.673489810978914"><ele>38.0</ele><time>2026-05-01T10:26:44.998Z</time></trkpt><trkpt lat="43.32965959559144" lon="10.673228013080408"><ele>38.0</ele><time>2026-05-01T10:26:45.998Z</time></trkpt><trkpt lat="43.32963133960057" lon="10.672973428708547"><ele>38.0</ele><time>2026-05-01T10:26:46.998Z</time></trkpt><trkpt lat="43.329603546989226" lon="10.672726682387767"><ele>38.0</ele><time>2026-05-01T10:26:47.998Z</time></trkpt><trkpt lat="43.32957488576568" lon="10.672497561859407"><ele>38.0</ele><time>2026-05-01T10:26:48.998Z</time></trkpt><trkpt lat="43.32954687176662" lon="10.672277093183016"><ele>38.0</ele><time>2026-05-01T10:26:49.998Z</time></trkpt><trkpt lat="43.32951940219751" lon="10.672070924505675"><ele>38.0</ele><time>2026-05-01T10:26:50.998Z</time></trkpt><trkpt lat="43.32949013367797" lon="10.671876707795622"><ele>38.0</ele><time>2026-05-01T10:26:51.998Z</time></trkpt><trkpt lat="43.3294621613845" lon="10.671693393897995"><ele>38.0</ele><time>2026-05-01T10:26:52.998Z</time></trkpt><trkpt lat="43.32943450919529" lon="10.671521946924507"><ele>38.0</ele><time>2026-05-01T10:26:53.998Z</time></trkpt><trkpt lat="43.32940771206456" lon="10.671357160931002"><ele>38.0</ele><time>2026-05-01T10:26:54.998Z</time></trkpt><trkpt lat="43.32938388011153" lon="10.671205977897792"><ele>38.0</ele><time>2026-05-01T10:26:55.998Z</time></trkpt><trkpt lat="43.32936318308485" lon="10.671074790006191"><ele>38.0</ele><time>2026-05-01T10:26:56.998Z</time></trkpt><trkpt lat="43.329344696847926" lon="10.670954176066333"><ele>38.0</ele><time>2026-05-01T10:26:57.998Z</time></trkpt><trkpt lat="43.32932902689542" lon="10.670836955908818"><ele>38.0</ele><time>2026-05-01T10:26:58.998Z</time></trkpt><trkpt lat="43.329320109531835" lon="10.670728747879831"><ele>37.857142857142854</ele><time>2026-05-01T10:26:59.998Z</time></trkpt><trkpt lat="43.32932946532222" lon="10.670624747519538"><ele>37.714285714285715</ele><time>2026-05-01T10:27:00.998Z</time></trkpt><trkpt lat="43.32933810029992" lon="10.670524559777505"><ele>37.57142857142857</ele><time>2026-05-01T10:27:01.998Z</time></trkpt><trkpt lat="43.32934505070486" lon="10.670426860502767"><ele>37.42857142857143</ele><time>2026-05-01T10:27:02.998Z</time></trkpt><trkpt lat="43.3293342665321" lon="10.670332664715469"><ele>37.285714285714285</ele><time>2026-05-01T10:27:03.998Z</time></trkpt><trkpt lat="43.329307120412864" lon="10.670249440441566"><ele>37.142857142857146</ele><time>2026-05-01T10:27:04.998Z</time></trkpt><trkpt lat="43.32927601940341" lon="10.670169237160342"><ele>37.0</ele><time>2026-05-01T10:27:05.998Z</time></trkpt><trkpt lat="43.32921930157644" lon="10.670098005951973"><ele>36.5</ele><time>2026-05-01T10:27:06.998Z</time></trkpt><trkpt lat="43.32920577425567" lon="10.669940174106355"><ele>36.0</ele><time>2026-05-01T10:27:07.998Z</time></trkpt><trkpt lat="43.32917755264981" lon="10.669779491289885"><ele>35.5</ele><time>2026-05-01T10:27:08.998Z</time></trkpt><trkpt lat="43.32914584835113" lon="10.669599991889946"><ele>35.0</ele><time>2026-05-01T10:27:09.998Z</time></trkpt><trkpt lat="43.329112157334045" lon="10.669403964102422"><ele>34.666666666666664</ele><time>2026-05-01T10:27:10.998Z</time></trkpt><trkpt lat="43.3290783137586" lon="10.669196460207283"><ele>34.333333333333336</ele><time>2026-05-01T10:27:11.998Z</time></trkpt><trkpt lat="43.32904334155625" lon="10.668981944229477"><ele>34.0</ele><time>2026-05-01T10:27:12.998Z</time></trkpt><trkpt lat="43.329008111627694" lon="10.668761735550225"><ele>34.66666666666667</ele><time>2026-05-01T10:27:13.998Z</time></trkpt><trkpt lat="43.328973966978005" lon="10.668537224230914"><ele>35.333333333333336</ele><time>2026-05-01T10:27:14.998Z</time></trkpt><trkpt lat="43.32893928439823" lon="10.668307800926343"><ele>36.0</ele><time>2026-05-01T10:27:15.998Z</time></trkpt><trkpt lat="43.328903867357944" lon="10.668077996285454"><ele>36.0</ele><time>2026-05-01T10:27:16.998Z</time></trkpt><trkpt lat="43.328868820263075" lon="10.667850197064933"><ele>36.0</ele><time>2026-05-01T10:27:17.998Z</time></trkpt><trkpt lat="43.32883513264392" lon="10.66762474143685"><ele>36.0</ele><time>2026-05-01T10:27:18.998Z</time></trkpt><trkpt lat="43.32880200549103" lon="10.667403512592092"><ele>36.333333333333336</ele><time>2026-05-01T10:27:19.998Z</time></trkpt><trkpt lat="43.32876918742185" lon="10.66718240883357"><ele>36.66666666666667</ele><time>2026-05-01T10:27:20.998Z</time></trkpt><trkpt lat="43.32873563118962" lon="10.66696894414999"><ele>37.0</ele><time>2026-05-01T10:27:21.998Z</time></trkpt><trkpt lat="43.328702977286994" lon="10.666758269331716"><ele>37.0</ele><time>2026-05-01T10:27:22.998Z</time></trkpt><trkpt lat="43.32867145288649" lon="10.666546522556382"><ele>37.0</ele><time>2026-05-01T10:27:23.998Z</time></trkpt><trkpt lat="43.32863994167172" lon="10.666336626128402"><ele>37.0</ele><time>2026-05-01T10:27:24.998Z</time></trkpt><trkpt lat="43.32861004186906" lon="10.66613182246453"><ele>37.25</ele><time>2026-05-01T10:27:25.999Z</time></trkpt><trkpt lat="43.32858539882813" lon="10.665928281145003"><ele>37.5</ele><time>2026-05-01T10:27:26.999Z</time></trkpt><trkpt lat="43.32856600556184" lon="10.66572592188574"><ele>37.75</ele><time>2026-05-01T10:27:27.999Z</time></trkpt><trkpt lat="43.32855284144507" lon="10.66551988535722"><ele>38.0</ele><time>2026-05-01T10:27:28.999Z</time></trkpt><trkpt lat="43.32853936928913" lon="10.665306764855375"><ele>38.0</ele><time>2026-05-01T10:27:29.999Z</time></trkpt><trkpt lat="43.32852313178443" lon="10.665090028341483"><ele>38.0</ele><time>2026-05-01T10:27:30.999Z</time></trkpt><trkpt lat="43.32850437938063" lon="10.66486785661955"><ele>38.0</ele><time>2026-05-01T10:27:31.999Z</time></trkpt><trkpt lat="43.328489739089804" lon="10.664643317587775"><ele>37.0</ele><time>2026-05-01T10:27:32.999Z</time></trkpt><trkpt lat="43.328479298996264" lon="10.664421350859545"><ele>36.0</ele><time>2026-05-01T10:27:34Z</time></trkpt><trkpt lat="43.3284757852182" lon="10.664193659242635"><ele>35.0</ele><time>2026-05-01T10:27:35Z</time></trkpt><trkpt lat="43.32848384256077" lon="10.663959035295566"><ele>35.0</ele><time>2026-05-01T10:27:36Z</time></trkpt><trkpt lat="43.328516483654916" lon="10.663727425477354"><ele>35.0</ele><time>2026-05-01T10:27:37Z</time></trkpt><trkpt lat="43.32857276636929" lon="10.66350646561367"><ele>35.0</ele><time>2026-05-01T10:27:38Z</time></trkpt><trkpt lat="43.32864677415964" lon="10.663293133779467"><ele>35.0</ele><time>2026-05-01T10:27:39Z</time></trkpt><trkpt lat="43.32873962620798" lon="10.66309385541355"><ele>35.0</ele><time>2026-05-01T10:27:40Z</time></trkpt><trkpt lat="43.32884944354274" lon="10.662912095430825"><ele>35.0</ele><time>2026-05-01T10:27:41Z</time></trkpt><trkpt lat="43.32897465403285" lon="10.662750451498763"><ele>35.0</ele><time>2026-05-01T10:27:42Z</time></trkpt><trkpt lat="43.32911283481048" lon="10.662614844525349"><ele>35.0</ele><time>2026-05-01T10:27:43Z</time></trkpt><trkpt lat="43.32926421697882" lon="10.662506004053576"><ele>35.0</ele><time>2026-05-01T10:27:44Z</time></trkpt><trkpt lat="43.32942092054349" lon="10.662418263890657"><ele>35.0</ele><time>2026-05-01T10:27:45Z</time></trkpt><trkpt lat="43.32958002340418" lon="10.66233682881456"><ele>35.0</ele><time>2026-05-01T10:27:46Z</time></trkpt><trkpt lat="43.32974119139475" lon="10.662262473208449"><ele>35.0</ele><time>2026-05-01T10:27:47Z</time></trkpt><trkpt lat="43.329902665803395" lon="10.662190245541547"><ele>36.0</ele><time>2026-05-01T10:27:48Z</time></trkpt><trkpt lat="43.330066367590575" lon="10.662116998446995"><ele>37.0</ele><time>2026-05-01T10:27:49Z</time></trkpt><trkpt lat="43.33022898578124" lon="10.662042624717774"><ele>38.0</ele><time>2026-05-01T10:27:50Z</time></trkpt><trkpt lat="43.33039204739481" lon="10.661964488411034"><ele>37.33333333333333</ele><time>2026-05-01T10:27:51Z</time></trkpt><trkpt lat="43.33055305619094" lon="10.661883293624246"><ele>36.666666666666664</ele><time>2026-05-01T10:27:52Z</time></trkpt><trkpt lat="43.33070966059973" lon="10.661786310757588"><ele>36.0</ele><time>2026-05-01T10:27:53Z</time></trkpt><trkpt lat="43.33086648981418" lon="10.661677936822592"><ele>37.333333333333336</ele><time>2026-05-01T10:27:54Z</time></trkpt><trkpt lat="43.331029981368985" lon="10.661560982189574"><ele>38.66666666666667</ele><time>2026-05-01T10:27:55Z</time></trkpt><trkpt lat="43.331192943340184" lon="10.661422300680876"><ele>40.0</ele><time>2026-05-01T10:27:56Z</time></trkpt><trkpt lat="43.33135932763614" lon="10.661276797689398"><ele>38.66666666666667</ele><time>2026-05-01T10:27:57Z</time></trkpt><trkpt lat="43.33152515773681" lon="10.66111850568808"><ele>37.333333333333336</ele><time>2026-05-01T10:27:58Z</time></trkpt><trkpt lat="43.331688960582596" lon="10.66094773480625"><ele>36.0</ele><time>2026-05-01T10:27:59Z</time></trkpt><trkpt lat="43.331847743943584" lon="10.660763224848868"><ele>36.0</ele><time>2026-05-01T10:28:00Z</time></trkpt><trkpt lat="43.33199766426908" lon="10.66056962568262"><ele>36.0</ele><time>2026-05-01T10:28:01Z</time></trkpt><trkpt lat="43.33214343170676" lon="10.660366604654305"><ele>36.0</ele><time>2026-05-01T10:28:02Z</time></trkpt><trkpt lat="43.33228065699461" lon="10.660152762362083"><ele>37.0</ele><time>2026-05-01T10:28:03Z</time></trkpt><trkpt lat="43.33241222948859" lon="10.659929602053035"><ele>38.0</ele><time>2026-05-01T10:28:04Z</time></trkpt><trkpt lat="43.33253747285887" lon="10.65970181673453"><ele>39.0</ele><time>2026-05-01T10:28:05Z</time></trkpt><trkpt lat="43.33266089924199" lon="10.65947660171321"><ele>37.666666666666664</ele><time>2026-05-01T10:28:06Z</time></trkpt><trkpt lat="43.33278455899243" lon="10.659247561306492"><ele>36.33333333333333</ele><time>2026-05-01T10:28:07Z</time></trkpt><trkpt lat="43.33290848655251" lon="10.659022941385448"><ele>35.0</ele><time>2026-05-01T10:28:08Z</time></trkpt><trkpt lat="43.33303243028973" lon="10.65879886417378"><ele>34.0</ele><time>2026-05-01T10:28:09Z</time></trkpt><trkpt lat="43.33315267039192" lon="10.658579915698649"><ele>33.0</ele><time>2026-05-01T10:28:10Z</time></trkpt><trkpt lat="43.333271558693674" lon="10.658360942380748"><ele>32.0</ele><time>2026-05-01T10:28:11Z</time></trkpt><trkpt lat="43.33339158808319" lon="10.658139793300695"><ele>32.0</ele><time>2026-05-01T10:28:12Z</time></trkpt><trkpt lat="43.333507991203014" lon="10.657920668865184"><ele>32.0</ele><time>2026-05-01T10:28:13Z</time></trkpt><trkpt lat="43.33362089283725" lon="10.657699582598495"><ele>32.0</ele><time>2026-05-01T10:28:14Z</time></trkpt><trkpt lat="43.333737569773106" lon="10.657491034995093"><ele>32.0</ele><time>2026-05-01T10:28:15Z</time></trkpt><trkpt lat="43.33386248949309" lon="10.657285432956588"><ele>32.0</ele><time>2026-05-01T10:28:16Z</time></trkpt><trkpt lat="43.333988563571936" lon="10.657072721544068"><ele>32.0</ele><time>2026-05-01T10:28:17Z</time></trkpt><trkpt lat="43.33410692055313" lon="10.656856133436644"><ele>32.33333333333333</ele><time>2026-05-01T10:28:18Z</time></trkpt><trkpt lat="43.33422275112297" lon="10.656642258224135"><ele>32.666666666666664</ele><time>2026-05-01T10:28:19Z</time></trkpt><trkpt lat="43.334338612437726" lon="10.656428291490979"><ele>33.0</ele><time>2026-05-01T10:28:20Z</time></trkpt><trkpt lat="43.334455273915495" lon="10.656218446498993"><ele>32.333333333333336</ele><time>2026-05-01T10:28:21Z</time></trkpt><trkpt lat="43.33457015545487" lon="10.65600897897947"><ele>31.666666666666668</ele><time>2026-05-01T10:28:22Z</time></trkpt><trkpt lat="43.33468314585877" lon="10.655801105623402"><ele>31.0</ele><time>2026-05-01T10:28:23Z</time></trkpt><trkpt lat="43.334794475915054" lon="10.65559293990478"><ele>31.666666666666668</ele><time>2026-05-01T10:28:24Z</time></trkpt><trkpt lat="43.33490697508764" lon="10.655383031316394"><ele>32.333333333333336</ele><time>2026-05-01T10:28:25Z</time></trkpt><trkpt lat="43.33502162814282" lon="10.65517262729543"><ele>33.0</ele><time>2026-05-01T10:28:26Z</time></trkpt><trkpt lat="43.33513443291697" lon="10.654962053472225"><ele>33.0</ele><time>2026-05-01T10:28:26.999Z</time></trkpt><trkpt lat="43.335249120107065" lon="10.65475525329927"><ele>33.0</ele><time>2026-05-01T10:28:27.999Z</time></trkpt><trkpt lat="43.335361680154" lon="10.65455106390065"><ele>33.0</ele><time>2026-05-01T10:28:28.999Z</time></trkpt><trkpt lat="43.335470636350266" lon="10.654351759382257"><ele>34.666666666666664</ele><time>2026-05-01T10:28:29.999Z</time></trkpt><trkpt lat="43.335580653483085" lon="10.654157333515903"><ele>36.33333333333333</ele><time>2026-05-01T10:28:30.999Z</time></trkpt><trkpt lat="43.33568899697151" lon="10.653967733054387"><ele>38.0</ele><time>2026-05-01T10:28:31.999Z</time></trkpt><trkpt lat="43.33579342693627" lon="10.653786915362549"><ele>36.75</ele><time>2026-05-01T10:28:32.999Z</time></trkpt><trkpt lat="43.33589271845184" lon="10.653615697041884"><ele>35.5</ele><time>2026-05-01T10:28:33.999Z</time></trkpt><trkpt lat="43.3359861657323" lon="10.653458439711182"><ele>34.25</ele><time>2026-05-01T10:28:34.999Z</time></trkpt><trkpt lat="43.33607202018667" lon="10.653312173386269"><ele>33.0</ele><time>2026-05-01T10:28:35.999Z</time></trkpt><trkpt lat="43.3361525505292" lon="10.653179202080105"><ele>33.0</ele><time>2026-05-01T10:28:36.999Z</time></trkpt><trkpt lat="43.33623281677081" lon="10.653069726355094"><ele>33.0</ele><time>2026-05-01T10:28:37.999Z</time></trkpt><trkpt lat="43.336326092551076" lon="10.653006129927187"><ele>33.0</ele><time>2026-05-01T10:28:38.999Z</time></trkpt><trkpt lat="43.3364225243239" lon="10.652980319932805"><ele>33.0</ele><time>2026-05-01T10:28:39.999Z</time></trkpt><trkpt lat="43.336505920370925" lon="10.652953766972317"><ele>33.0</ele><time>2026-05-01T10:28:40.999Z</time></trkpt><trkpt lat="43.33657319449778" lon="10.652874773834435"><ele>33.0</ele><time>2026-05-01T10:28:41.999Z</time></trkpt><trkpt lat="43.336613309013" lon="10.652754216868386"><ele>33.0</ele><time>2026-05-01T10:28:42.999Z</time></trkpt><trkpt lat="43.33662892635423" lon="10.65261086403725"><ele>33.0</ele><time>2026-05-01T10:28:43.999Z</time></trkpt><trkpt lat="43.336654022146014" lon="10.652466926788714"><ele>33.0</ele><time>2026-05-01T10:28:44.999Z</time></trkpt><trkpt lat="43.33671166623067" lon="10.652322484652863"><ele>33.0</ele><time>2026-05-01T10:28:45.999Z</time></trkpt><trkpt lat="43.336795480827654" lon="10.652191486898952"><ele>33.0</ele><time>2026-05-01T10:28:46.999Z</time></trkpt><trkpt lat="43.33689489249356" lon="10.652061759973385"><ele>33.0</ele><time>2026-05-01T10:28:47.999Z</time></trkpt><trkpt lat="43.336994467944216" lon="10.651921648218503"><ele>33.0</ele><time>2026-05-01T10:28:48.999Z</time></trkpt><trkpt lat="43.33709303593145" lon="10.651776256072987"><ele>33.0</ele><time>2026-05-01T10:28:49.999Z</time></trkpt><trkpt lat="43.337192888026074" lon="10.651630750133458"><ele>32.75</ele><time>2026-05-01T10:28:50.999Z</time></trkpt><trkpt lat="43.337294256497664" lon="10.651483433460854"><ele>32.5</ele><time>2026-05-01T10:28:51.999Z</time></trkpt><trkpt lat="43.33739645091321" lon="10.651331635602407"><ele>32.25</ele><time>2026-05-01T10:28:52.999Z</time></trkpt><trkpt lat="43.337500230109306" lon="10.651181302897609"><ele>32.0</ele><time>2026-05-01T10:28:53.999Z</time></trkpt><trkpt lat="43.33760498682668" lon="10.651031415071564"><ele>31.666666666666664</ele><time>2026-05-01T10:28:54.999Z</time></trkpt><trkpt lat="43.337712318028565" lon="10.650876954694908"><ele>31.333333333333336</ele><time>2026-05-01T10:28:55.999Z</time></trkpt><trkpt lat="43.33781788138561" lon="10.650721705461038"><ele>31.0</ele><time>2026-05-01T10:28:56.999Z</time></trkpt><trkpt lat="43.33792107804149" lon="10.650575788147934"><ele>31.0</ele><time>2026-05-01T10:28:57.999Z</time></trkpt><trkpt lat="43.33802285121036" lon="10.650427226065874"><ele>31.0</ele><time>2026-05-01T10:28:58.999Z</time></trkpt><trkpt lat="43.3381219081255" lon="10.65027035831871"><ele>31.0</ele><time>2026-05-01T10:28:59.999Z</time></trkpt><trkpt lat="43.3382168115646" lon="10.650104126184566"><ele>31.333333333333336</ele><time>2026-05-01T10:29:00.999Z</time></trkpt><trkpt lat="43.33831027701438" lon="10.64993352585387"><ele>31.666666666666664</ele><time>2026-05-01T10:29:01.999Z</time></trkpt><trkpt lat="43.338398601309585" lon="10.649756716361253"><ele>32.0</ele><time>2026-05-01T10:29:02.999Z</time></trkpt><trkpt lat="43.33848549214734" lon="10.649574074051285"><ele>32.0</ele><time>2026-05-01T10:29:03.999Z</time></trkpt><trkpt lat="43.33856736262321" lon="10.649386152327832"><ele>32.0</ele><time>2026-05-01T10:29:04.999Z</time></trkpt><trkpt lat="43.338648150610474" lon="10.649191542541708"><ele>32.0</ele><time>2026-05-01T10:29:05.999Z</time></trkpt><trkpt lat="43.33872485953913" lon="10.648991765414028"><ele>32.0</ele><time>2026-05-01T10:29:06.999Z</time></trkpt><trkpt lat="43.33879660374056" lon="10.648786810146389"><ele>32.0</ele><time>2026-05-01T10:29:07.999Z</time></trkpt><trkpt lat="43.33886334560727" lon="10.648576527861243"><ele>32.0</ele><time>2026-05-01T10:29:08.999Z</time></trkpt><trkpt lat="43.33892356393329" lon="10.648358674248572"><ele>32.0</ele><time>2026-05-01T10:29:09.999Z</time></trkpt><trkpt lat="43.33897985241202" lon="10.648135754237467"><ele>32.0</ele><time>2026-05-01T10:29:10.999Z</time></trkpt><trkpt lat="43.33903684036239" lon="10.647912385627102"><ele>32.0</ele><time>2026-05-01T10:29:11.999Z</time></trkpt><trkpt lat="43.33909340264455" lon="10.6476874847724"><ele>32.0</ele><time>2026-05-01T10:29:12.999Z</time></trkpt><trkpt lat="43.339149427478176" lon="10.647459335215306"><ele>32.0</ele><time>2026-05-01T10:29:13.999Z</time></trkpt><trkpt lat="43.339205804137855" lon="10.64722742830218"><ele>32.0</ele><time>2026-05-01T10:29:14.999Z</time></trkpt><trkpt lat="43.33926089250271" lon="10.646997256921825"><ele>32.0</ele><time>2026-05-01T10:29:15.999Z</time></trkpt><trkpt lat="43.3393151944941" lon="10.64676529776062"><ele>32.0</ele><time>2026-05-01T10:29:16.999Z</time></trkpt><trkpt lat="43.339369028961485" lon="10.646530434633467"><ele>32.0</ele><time>2026-05-01T10:29:17.999Z</time></trkpt><trkpt lat="43.33942345108465" lon="10.646298888219206"><ele>31.666666666666664</ele><time>2026-05-01T10:29:18.999Z</time></trkpt><trkpt lat="43.339476914473174" lon="10.646068810798882"><ele>31.333333333333336</ele><time>2026-05-01T10:29:19.999Z</time></trkpt><trkpt lat="43.33953022398931" lon="10.645838978671064"><ele>31.0</ele><time>2026-05-01T10:29:20.999Z</time></trkpt><trkpt lat="43.33958367320269" lon="10.645609893074475"><ele>31.0</ele><time>2026-05-01T10:29:21.999Z</time></trkpt><trkpt lat="43.33963564312513" lon="10.645389652869461"><ele>31.0</ele><time>2026-05-01T10:29:22.999Z</time></trkpt><trkpt lat="43.33968629101804" lon="10.64517633623477"><ele>31.0</ele><time>2026-05-01T10:29:23.999Z</time></trkpt><trkpt lat="43.33974105785838" lon="10.644937563928522"><ele>31.0</ele><time>2026-05-01T10:29:24.999Z</time></trkpt><trkpt lat="43.33979537467091" lon="10.644710987160739"><ele>31.0</ele><time>2026-05-01T10:29:25.999Z</time></trkpt><trkpt lat="43.33985332089503" lon="10.64448328003943"><ele>31.0</ele><time>2026-05-01T10:29:26.999Z</time></trkpt><trkpt lat="43.339917538883626" lon="10.644259183123628"><ele>31.0</ele><time>2026-05-01T10:29:27.999Z</time></trkpt><trkpt lat="43.33998521065651" lon="10.64403607616008"><ele>31.0</ele><time>2026-05-01T10:29:28.999Z</time></trkpt><trkpt lat="43.3400588134335" lon="10.64381604237976"><ele>31.0</ele><time>2026-05-01T10:29:29.999Z</time></trkpt><trkpt lat="43.3401427413664" lon="10.643602050517345"><ele>31.0</ele><time>2026-05-01T10:29:30.999Z</time></trkpt><trkpt lat="43.34023822259323" lon="10.643399233427393"><ele>31.0</ele><time>2026-05-01T10:29:32Z</time></trkpt><trkpt lat="43.34034216318065" lon="10.64320510209748"><ele>31.0</ele><time>2026-05-01T10:29:33Z</time></trkpt><trkpt lat="43.340462331624714" lon="10.643037310938137"><ele>30.666666666666668</ele><time>2026-05-01T10:29:34Z</time></trkpt><trkpt lat="43.34058505172286" lon="10.642868317103336"><ele>30.333333333333336</ele><time>2026-05-01T10:29:35Z</time></trkpt><trkpt lat="43.340713058584505" lon="10.642705630228155"><ele>30.0</ele><time>2026-05-01T10:29:36Z</time></trkpt><trkpt lat="43.340842615234436" lon="10.642548786019587"><ele>30.0</ele><time>2026-05-01T10:29:37Z</time></trkpt><trkpt lat="43.34097503199299" lon="10.642389838255678"><ele>30.0</ele><time>2026-05-01T10:29:38Z</time></trkpt><trkpt lat="43.3411088030503" lon="10.642228848333517"><ele>30.0</ele><time>2026-05-01T10:29:39Z</time></trkpt><trkpt lat="43.341240270235055" lon="10.642067036398906"><ele>30.0</ele><time>2026-05-01T10:29:40Z</time></trkpt><trkpt lat="43.34137232157299" lon="10.64190600366483"><ele>30.0</ele><time>2026-05-01T10:29:41Z</time></trkpt><trkpt lat="43.34150795271821" lon="10.6417434526001"><ele>30.0</ele><time>2026-05-01T10:29:42Z</time></trkpt><trkpt lat="43.34164100347162" lon="10.641586917848986"><ele>30.666666666666664</ele><time>2026-05-01T10:29:43Z</time></trkpt><trkpt lat="43.3417753124213" lon="10.641431768385141"><ele>31.333333333333332</ele><time>2026-05-01T10:29:44Z</time></trkpt><trkpt lat="43.34190829757252" lon="10.64127491020178"><ele>32.0</ele><time>2026-05-01T10:29:45Z</time></trkpt><trkpt lat="43.34203920234639" lon="10.641120532487793"><ele>32.0</ele><time>2026-05-01T10:29:46Z</time></trkpt><trkpt lat="43.342173170663536" lon="10.64096247970835"><ele>32.0</ele><time>2026-05-01T10:29:47Z</time></trkpt><trkpt lat="43.34230533009906" lon="10.640804279261069"><ele>32.0</ele><time>2026-05-01T10:29:48Z</time></trkpt><trkpt lat="43.34243824856036" lon="10.640648435661122"><ele>32.33333333333333</ele><time>2026-05-01T10:29:49Z</time></trkpt><trkpt lat="43.34257350484965" lon="10.64048936413322"><ele>32.666666666666664</ele><time>2026-05-01T10:29:50Z</time></trkpt><trkpt lat="43.342708190958874" lon="10.640322260624863"><ele>33.0</ele><time>2026-05-01T10:29:51Z</time></trkpt><trkpt lat="43.342839488364454" lon="10.64014633502664"><ele>33.0</ele><time>2026-05-01T10:29:52Z</time></trkpt><trkpt lat="43.34296883318274" lon="10.63996478698907"><ele>33.0</ele><time>2026-05-01T10:29:53Z</time></trkpt><trkpt lat="43.343098936360846" lon="10.639775623796353"><ele>33.0</ele><time>2026-05-01T10:29:54Z</time></trkpt><trkpt lat="43.34322995922554" lon="10.639581846456487"><ele>33.0</ele><time>2026-05-01T10:29:55Z</time></trkpt><trkpt lat="43.34336209587331" lon="10.639386348407673"><ele>33.0</ele><time>2026-05-01T10:29:56Z</time></trkpt><trkpt lat="43.34349388746956" lon="10.639186412161553"><ele>33.0</ele><time>2026-05-01T10:29:57Z</time></trkpt><trkpt lat="43.34362282241883" lon="10.638969099000873"><ele>33.0</ele><time>2026-05-01T10:29:58Z</time></trkpt><trkpt lat="43.34373798697265" lon="10.638738762818702"><ele>33.0</ele><time>2026-05-01T10:29:59Z</time></trkpt><trkpt lat="43.34384483347341" lon="10.638499407332912"><ele>33.0</ele><time>2026-05-01T10:30:00Z</time></trkpt><trkpt lat="43.34395114578922" lon="10.63825240364563"><ele>33.0</ele><time>2026-05-01T10:30:01Z</time></trkpt><trkpt lat="43.34405683326814" lon="10.638000228701847"><ele>33.0</ele><time>2026-05-01T10:30:02Z</time></trkpt><trkpt lat="43.34416550399042" lon="10.637750448813842"><ele>33.0</ele><time>2026-05-01T10:30:03Z</time></trkpt><trkpt lat="43.344277402529706" lon="10.637503219143934"><ele>33.0</ele><time>2026-05-01T10:30:04Z</time></trkpt><trkpt lat="43.34438843005685" lon="10.637259102506938"><ele>33.0</ele><time>2026-05-01T10:30:05Z</time></trkpt><trkpt lat="43.34450164373101" lon="10.637015915051412"><ele>33.0</ele><time>2026-05-01T10:30:06Z</time></trkpt><trkpt lat="43.34461860600027" lon="10.636776775557966"><ele>34.0</ele><time>2026-05-01T10:30:07Z</time></trkpt><trkpt lat="43.34474240774635" lon="10.636542578486178"><ele>35.0</ele><time>2026-05-01T10:30:08Z</time></trkpt><trkpt lat="43.344869461231376" lon="10.636309553984663"><ele>36.0</ele><time>2026-05-01T10:30:09Z</time></trkpt><trkpt lat="43.3449960493589" lon="10.63608553131206"><ele>36.0</ele><time>2026-05-01T10:30:10Z</time></trkpt><trkpt lat="43.34512120694628" lon="10.635862330186082"><ele>36.0</ele><time>2026-05-01T10:30:11Z</time></trkpt><trkpt lat="43.34524692982941" lon="10.635639125207836"><ele>36.0</ele><time>2026-05-01T10:30:12Z</time></trkpt><trkpt lat="43.34537075668703" lon="10.635424061331483"><ele>34.666666666666664</ele><time>2026-05-01T10:30:13Z</time></trkpt><trkpt lat="43.34549247784239" lon="10.63521150771592"><ele>33.33333333333333</ele><time>2026-05-01T10:30:14Z</time></trkpt><trkpt lat="43.34561289128173" lon="10.634999736316564"><ele>32.0</ele><time>2026-05-01T10:30:15Z</time></trkpt><trkpt lat="43.34573186306511" lon="10.634793201799697"><ele>31.333333333333332</ele><time>2026-05-01T10:30:16Z</time></trkpt><trkpt lat="43.345854227891444" lon="10.634590101726559"><ele>30.666666666666664</ele><time>2026-05-01T10:30:17Z</time></trkpt><trkpt lat="43.34597693635294" lon="10.63438583536284"><ele>30.0</ele><time>2026-05-01T10:30:18Z</time></trkpt><trkpt lat="43.34609931294046" lon="10.634185596615998"><ele>30.0</ele><time>2026-05-01T10:30:19Z</time></trkpt><trkpt lat="43.34622430382006" lon="10.633983831870674"><ele>30.0</ele><time>2026-05-01T10:30:20Z</time></trkpt><trkpt lat="43.34634991170617" lon="10.633784890835306"><ele>30.0</ele><time>2026-05-01T10:30:21Z</time></trkpt><trkpt lat="43.346474500449546" lon="10.633585789146895"><ele>31.0</ele><time>2026-05-01T10:30:22Z</time></trkpt><trkpt lat="43.346599639023985" lon="10.633387842999474"><ele>32.0</ele><time>2026-05-01T10:30:23Z</time></trkpt><trkpt lat="43.346724846310586" lon="10.633191215036609"><ele>33.0</ele><time>2026-05-01T10:30:24Z</time></trkpt><trkpt lat="43.34685043411477" lon="10.632993892927958"><ele>33.666666666666664</ele><time>2026-05-01T10:30:25Z</time></trkpt><trkpt lat="43.34697496623157" lon="10.632798371977504"><ele>34.33333333333333</ele><time>2026-05-01T10:30:26Z</time></trkpt><trkpt lat="43.34709658791943" lon="10.632602452714172"><ele>35.0</ele><time>2026-05-01T10:30:27Z</time></trkpt><trkpt lat="43.34721626850968" lon="10.632408622334244"><ele>35.0</ele><time>2026-05-01T10:30:28Z</time></trkpt><trkpt lat="43.347336023804075" lon="10.632213302434357"><ele>35.0</ele><time>2026-05-01T10:30:29Z</time></trkpt><trkpt lat="43.3474576609667" lon="10.632016831831251"><ele>35.0</ele><time>2026-05-01T10:30:30Z</time></trkpt><trkpt lat="43.347579151312615" lon="10.631824053125033"><ele>34.0</ele><time>2026-05-01T10:30:30.999Z</time></trkpt><trkpt lat="43.3477012040268" lon="10.631627158252249"><ele>33.0</ele><time>2026-05-01T10:30:31.999Z</time></trkpt><trkpt lat="43.34782183597584" lon="10.631429677846251"><ele>32.0</ele><time>2026-05-01T10:30:32.999Z</time></trkpt><trkpt lat="43.34794272666233" lon="10.631229096256954"><ele>31.0</ele><time>2026-05-01T10:30:33.999Z</time></trkpt><trkpt lat="43.34806324411869" lon="10.631028300932476"><ele>30.0</ele><time>2026-05-01T10:30:34.999Z</time></trkpt><trkpt lat="43.34818183265323" lon="10.630830571279208"><ele>29.0</ele><time>2026-05-01T10:30:35.999Z</time></trkpt><trkpt lat="43.348299632958216" lon="10.630629689541859"><ele>29.0</ele><time>2026-05-01T10:30:36.999Z</time></trkpt><trkpt lat="43.34841606172922" lon="10.63043038256065"><ele>29.0</ele><time>2026-05-01T10:30:37.999Z</time></trkpt><trkpt lat="43.348530343024" lon="10.630225272940686"><ele>29.0</ele><time>2026-05-01T10:30:38.999Z</time></trkpt><trkpt lat="43.34864318245997" lon="10.630018324896305"><ele>29.333333333333332</ele><time>2026-05-01T10:30:39.999Z</time></trkpt><trkpt lat="43.34875308134403" lon="10.62981220100362"><ele>29.666666666666664</ele><time>2026-05-01T10:30:40.999Z</time></trkpt><trkpt lat="43.34886051190892" lon="10.629604289678706"><ele>30.0</ele><time>2026-05-01T10:30:41.999Z</time></trkpt><trkpt lat="43.34896539938822" lon="10.62939850109459"><ele>31.0</ele><time>2026-05-01T10:30:42.999Z</time></trkpt><trkpt lat="43.349071455822994" lon="10.62919285843906"><ele>32.0</ele><time>2026-05-01T10:30:43.999Z</time></trkpt><trkpt lat="43.34917741920678" lon="10.62898629043353"><ele>33.0</ele><time>2026-05-01T10:30:44.999Z</time></trkpt><trkpt lat="43.349283242999974" lon="10.628774660293839"><ele>33.333333333333336</ele><time>2026-05-01T10:30:45.999Z</time></trkpt><trkpt lat="43.34938812735874" lon="10.628562807216445"><ele>33.66666666666667</ele><time>2026-05-01T10:30:46.999Z</time></trkpt><trkpt lat="43.34949037057688" lon="10.628350379213872"><ele>34.0</ele><time>2026-05-01T10:30:47.999Z</time></trkpt><trkpt lat="43.349587804405324" lon="10.628138597442236"><ele>34.0</ele><time>2026-05-01T10:30:48.999Z</time></trkpt><trkpt lat="43.3496827619372" lon="10.627933055348926"><ele>34.0</ele><time>2026-05-01T10:30:49.999Z</time></trkpt><trkpt lat="43.34977345555508" lon="10.62773327178176"><ele>34.0</ele><time>2026-05-01T10:30:50.999Z</time></trkpt><trkpt lat="43.34986093984317" lon="10.627539406697275"><ele>34.25</ele><time>2026-05-01T10:30:51.999Z</time></trkpt><trkpt lat="43.34994501829114" lon="10.627357118067717"><ele>34.5</ele><time>2026-05-01T10:30:52.999Z</time></trkpt><trkpt lat="43.350024856151045" lon="10.627185812687895"><ele>34.75</ele><time>2026-05-01T10:30:53.999Z</time></trkpt><trkpt lat="43.35009690119119" lon="10.627029508910418"><ele>35.0</ele><time>2026-05-01T10:30:54.999Z</time></trkpt><trkpt lat="43.35016239789333" lon="10.626877693414688"><ele>35.0</ele><time>2026-05-01T10:30:55.999Z</time></trkpt><trkpt lat="43.35022688881301" lon="10.626737046279153"><ele>35.0</ele><time>2026-05-01T10:30:56.999Z</time></trkpt><trkpt lat="43.350291272260314" lon="10.626617181892442"><ele>35.0</ele><time>2026-05-01T10:30:57.999Z</time></trkpt><trkpt lat="43.350355943686985" lon="10.62652855383492"><ele>35.0</ele><time>2026-05-01T10:30:58.999Z</time></trkpt><trkpt lat="43.350420002500144" lon="10.626475612470516"><ele>35.0</ele><time>2026-05-01T10:30:59.999Z</time></trkpt><trkpt lat="43.35047821770462" lon="10.626441740001662"><ele>35.4</ele><time>2026-05-01T10:31:00.999Z</time></trkpt><trkpt lat="43.35059971600435" lon="10.626360105408091"><ele>35.8</ele><time>2026-05-01T10:31:02.999Z</time></trkpt><trkpt lat="43.3506520975712" lon="10.626287537797806"><ele>36.2</ele><time>2026-05-01T10:31:03.999Z</time></trkpt><trkpt lat="43.35067384319196" lon="10.626187255111935"><ele>36.6</ele><time>2026-05-01T10:31:04.999Z</time></trkpt><trkpt lat="43.3506532325646" lon="10.626078315262037"><ele>37.0</ele><time>2026-05-01T10:31:05.999Z</time></trkpt><trkpt lat="43.35058026415371" lon="10.625994812509933"><ele>37.6</ele><time>2026-05-01T10:31:06.999Z</time></trkpt><trkpt lat="43.3505162223833" lon="10.625974036689325"><ele>38.2</ele><time>2026-05-01T10:31:07.999Z</time></trkpt><trkpt lat="43.35042794728885" lon="10.62597412120106"><ele>38.8</ele><time>2026-05-01T10:31:08.999Z</time></trkpt><trkpt lat="43.3503199776392" lon="10.625992762787705"><ele>39.4</ele><time>2026-05-01T10:31:09.999Z</time></trkpt><trkpt lat="43.35020544830836" lon="10.625978285781057"><ele>40.0</ele><time>2026-05-01T10:31:10.999Z</time></trkpt><trkpt lat="43.35007234822377" lon="10.625918968569655"><ele>40.0</ele><time>2026-05-01T10:31:11.999Z</time></trkpt><trkpt lat="43.34993966017825" lon="10.625825812283058"><ele>40.0</ele><time>2026-05-01T10:31:12.999Z</time></trkpt><trkpt lat="43.34980951291807" lon="10.625730237023516"><ele>40.0</ele><time>2026-05-01T10:31:13.999Z</time></trkpt><trkpt lat="43.34966847492521" lon="10.625628864509645"><ele>39.0</ele><time>2026-05-01T10:31:14.999Z</time></trkpt><trkpt lat="43.34952399524803" lon="10.625523096235394"><ele>38.0</ele><time>2026-05-01T10:31:15.999Z</time></trkpt><trkpt lat="43.349376907024876" lon="10.625402995444905"><ele>37.0</ele><time>2026-05-01T10:31:16.999Z</time></trkpt><trkpt lat="43.34923364744048" lon="10.625268758463351"><ele>37.0</ele><time>2026-05-01T10:31:17.999Z</time></trkpt><trkpt lat="43.34909290360759" lon="10.62511864890609"><ele>37.0</ele><time>2026-05-01T10:31:18.999Z</time></trkpt><trkpt lat="43.34895186436315" lon="10.62497622052591"><ele>37.0</ele><time>2026-05-01T10:31:19.999Z</time></trkpt><trkpt lat="43.34881787184921" lon="10.624826338830765"><ele>35.66666666666667</ele><time>2026-05-01T10:31:20.999Z</time></trkpt><trkpt lat="43.3486839847938" lon="10.624667463401819"><ele>34.333333333333336</ele><time>2026-05-01T10:31:21.999Z</time></trkpt><trkpt lat="43.34854853156969" lon="10.62450072977532"><ele>33.0</ele><time>2026-05-01T10:31:22.999Z</time></trkpt><trkpt lat="43.34841156417568" lon="10.624327078565319"><ele>33.0</ele><time>2026-05-01T10:31:23.999Z</time></trkpt><trkpt lat="43.34827200187416" lon="10.624151984553171"><ele>33.0</ele><time>2026-05-01T10:31:24.999Z</time></trkpt><trkpt lat="43.34813248451418" lon="10.623977138501127"><ele>33.0</ele><time>2026-05-01T10:31:25.999Z</time></trkpt><trkpt lat="43.347997751233905" lon="10.623806142926867"><ele>33.0</ele><time>2026-05-01T10:31:26.999Z</time></trkpt><trkpt lat="43.34786729896005" lon="10.623642249970603"><ele>33.0</ele><time>2026-05-01T10:31:27.999Z</time></trkpt><trkpt lat="43.34773531871718" lon="10.623479514151636"><ele>33.0</ele><time>2026-05-01T10:31:28.999Z</time></trkpt><trkpt lat="43.34760318692494" lon="10.62332078156208"><ele>33.0</ele><time>2026-05-01T10:31:29.999Z</time></trkpt><trkpt lat="43.347472462482536" lon="10.623158343089177"><ele>33.0</ele><time>2026-05-01T10:31:30.999Z</time></trkpt><trkpt lat="43.34734550658179" lon="10.62299165504927"><ele>33.0</ele><time>2026-05-01T10:31:31.999Z</time></trkpt><trkpt lat="43.34721525252329" lon="10.622829072859824"><ele>32.0</ele><time>2026-05-01T10:31:32.999Z</time></trkpt><trkpt lat="43.347084648088874" lon="10.62266694918214"><ele>31.0</ele><time>2026-05-01T10:31:33.999Z</time></trkpt><trkpt lat="43.34695471490538" lon="10.62250043771887"><ele>30.0</ele><time>2026-05-01T10:31:34.999Z</time></trkpt><trkpt lat="43.346826086993616" lon="10.622331428871815"><ele>30.0</ele><time>2026-05-01T10:31:35.999Z</time></trkpt><trkpt lat="43.34669679053825" lon="10.622161179138391"><ele>30.0</ele><time>2026-05-01T10:31:37Z</time></trkpt><trkpt lat="43.346565802012336" lon="10.6219880944749"><ele>30.0</ele><time>2026-05-01T10:31:38Z</time></trkpt><trkpt lat="43.346435910752874" lon="10.62181035111628"><ele>29.333333333333336</ele><time>2026-05-01T10:31:39Z</time></trkpt><trkpt lat="43.346313391173965" lon="10.62162161573947"><ele>28.666666666666668</ele><time>2026-05-01T10:31:40Z</time></trkpt><trkpt lat="43.34620187213991" lon="10.621415627746618"><ele>28.0</ele><time>2026-05-01T10:31:41Z</time></trkpt><trkpt lat="43.3461042469211" lon="10.621193362838182"><ele>28.666666666666668</ele><time>2026-05-01T10:31:42Z</time></trkpt><trkpt lat="43.346014430847994" lon="10.620960932047943"><ele>29.333333333333336</ele><time>2026-05-01T10:31:43Z</time></trkpt><trkpt lat="43.345945979166636" lon="10.620709761557519"><ele>30.0</ele><time>2026-05-01T10:31:44Z</time></trkpt><trkpt lat="43.34588757734458" lon="10.62045527387277"><ele>30.0</ele><time>2026-05-01T10:31:45Z</time></trkpt><trkpt lat="43.3458445914155" lon="10.620191690075321"><ele>30.0</ele><time>2026-05-01T10:31:46Z</time></trkpt><trkpt lat="43.34580956884775" lon="10.619923410966138"><ele>30.0</ele><time>2026-05-01T10:31:47Z</time></trkpt><trkpt lat="43.34578086233672" lon="10.619658386019083"><ele>30.666666666666664</ele><time>2026-05-01T10:31:48Z</time></trkpt><trkpt lat="43.345755169189395" lon="10.61938943446612"><ele>31.333333333333332</ele><time>2026-05-01T10:31:49Z</time></trkpt><trkpt lat="43.3457261817928" lon="10.619121378093636"><ele>32.0</ele><time>2026-05-01T10:31:50Z</time></trkpt><trkpt lat="43.345697292477674" lon="10.618853442866103"><ele>33.33333333333333</ele><time>2026-05-01T10:31:51Z</time></trkpt><trkpt lat="43.34566967892858" lon="10.618584843397551"><ele>34.666666666666664</ele><time>2026-05-01T10:31:52Z</time></trkpt><trkpt lat="43.34564279696339" lon="10.618314253571262"><ele>36.0</ele><time>2026-05-01T10:31:53Z</time></trkpt><trkpt lat="43.345626439307686" lon="10.618039575809966"><ele>36.666666666666664</ele><time>2026-05-01T10:31:54Z</time></trkpt><trkpt lat="43.34562936866432" lon="10.617763755445752"><ele>37.33333333333333</ele><time>2026-05-01T10:31:55Z</time></trkpt><trkpt lat="43.34565317973542" lon="10.61748656554061"><ele>38.0</ele><time>2026-05-01T10:31:56Z</time></trkpt><trkpt lat="43.34569759988054" lon="10.617215635084401"><ele>36.0</ele><time>2026-05-01T10:31:57Z</time></trkpt><trkpt lat="43.34575922864853" lon="10.61695134942431"><ele>34.0</ele><time>2026-05-01T10:31:58Z</time></trkpt><trkpt lat="43.34583443309251" lon="10.616693643971091"><ele>32.0</ele><time>2026-05-01T10:31:59Z</time></trkpt><trkpt lat="43.345913510545266" lon="10.616438572180746"><ele>32.0</ele><time>2026-05-01T10:32:00Z</time></trkpt><trkpt lat="43.345992014331635" lon="10.616182423928102"><ele>32.0</ele><time>2026-05-01T10:32:01Z</time></trkpt><trkpt lat="43.346065742432316" lon="10.615922770983468"><ele>32.0</ele><time>2026-05-01T10:32:02Z</time></trkpt><trkpt lat="43.34614033924415" lon="10.615664696664354"><ele>29.666666666666664</ele><time>2026-05-01T10:32:03Z</time></trkpt><trkpt lat="43.346217461343585" lon="10.615404182427826"><ele>27.333333333333336</ele><time>2026-05-01T10:32:04Z</time></trkpt><trkpt lat="43.34629288335647" lon="10.615144260512881"><ele>25.0</ele><time>2026-05-01T10:32:05Z</time></trkpt><trkpt lat="43.34636844917855" lon="10.614886056505012"><ele>27.666666666666668</ele><time>2026-05-01T10:32:06Z</time></trkpt><trkpt lat="43.34644503393074" lon="10.614623797798073"><ele>30.333333333333336</ele><time>2026-05-01T10:32:07Z</time></trkpt><trkpt lat="43.34651845413931" lon="10.614364165037932"><ele>33.0</ele><time>2026-05-01T10:32:08Z</time></trkpt><trkpt lat="43.346593502218155" lon="10.614103826925332"><ele>33.0</ele><time>2026-05-01T10:32:09Z</time></trkpt><trkpt lat="43.34666814215491" lon="10.613841584835628"><ele>33.0</ele><time>2026-05-01T10:32:10Z</time></trkpt><trkpt lat="43.34673860158631" lon="10.61357830131842"><ele>33.0</ele><time>2026-05-01T10:32:11Z</time></trkpt><trkpt lat="43.346810369409404" lon="10.613316604303273"><ele>31.666666666666664</ele><time>2026-05-01T10:32:12Z</time></trkpt><trkpt lat="43.34688698936926" lon="10.61305887258096"><ele>30.333333333333332</ele><time>2026-05-01T10:32:13Z</time></trkpt><trkpt lat="43.34696469829004" lon="10.612801597951531"><ele>29.0</ele><time>2026-05-01T10:32:14Z</time></trkpt><trkpt lat="43.34704030104753" lon="10.61254204141612"><ele>28.333333333333332</ele><time>2026-05-01T10:32:15Z</time></trkpt><trkpt lat="43.34710815578726" lon="10.61228117020681"><ele>27.666666666666664</ele><time>2026-05-01T10:32:16Z</time></trkpt><trkpt lat="43.34717195300372" lon="10.612019127441089"><ele>27.0</ele><time>2026-05-01T10:32:17Z</time></trkpt><trkpt lat="43.347230573324076" lon="10.611759990782186"><ele>29.0</ele><time>2026-05-01T10:32:18Z</time></trkpt><trkpt lat="43.347280441293094" lon="10.6114977894436"><ele>31.0</ele><time>2026-05-01T10:32:19Z</time></trkpt><trkpt lat="43.347320643630326" lon="10.611231934197379"><ele>33.0</ele><time>2026-05-01T10:32:20Z</time></trkpt><trkpt lat="43.34734781302498" lon="10.610968184982665"><ele>33.0</ele><time>2026-05-01T10:32:21Z</time></trkpt><trkpt lat="43.34736556859079" lon="10.610701448826342"><ele>33.0</ele><time>2026-05-01T10:32:22Z</time></trkpt><trkpt lat="43.34736750612964" lon="10.610434550755288"><ele>33.0</ele><time>2026-05-01T10:32:23Z</time></trkpt><trkpt lat="43.34736093808661" lon="10.610165310446861"><ele>32.666666666666664</ele><time>2026-05-01T10:32:24Z</time></trkpt><trkpt lat="43.34734691160897" lon="10.609891237899237"><ele>32.33333333333333</ele><time>2026-05-01T10:32:25Z</time></trkpt><trkpt lat="43.347327093356185" lon="10.609617473731182"><ele>32.0</ele><time>2026-05-01T10:32:26Z</time></trkpt><trkpt lat="43.3473037146361" lon="10.609341017690259"><ele>32.0</ele><time>2026-05-01T10:32:27Z</time></trkpt><trkpt lat="43.34728259983672" lon="10.609067963655013"><ele>32.0</ele><time>2026-05-01T10:32:28Z</time></trkpt><trkpt lat="43.347260790327766" lon="10.608794071323521"><ele>32.0</ele><time>2026-05-01T10:32:29Z</time></trkpt><trkpt lat="43.347239596587514" lon="10.608520963406704"><ele>33.666666666666664</ele><time>2026-05-01T10:32:30Z</time></trkpt><trkpt lat="43.347219082854366" lon="10.608249334052335"><ele>35.333333333333336</ele><time>2026-05-01T10:32:31Z</time></trkpt><trkpt lat="43.34719753118253" lon="10.607983003655072"><ele>37.0</ele><time>2026-05-01T10:32:32Z</time></trkpt><trkpt lat="43.347172786775204" lon="10.607717554205227"><ele>32.333333333333336</ele><time>2026-05-01T10:32:33Z</time></trkpt><trkpt lat="43.34714655386336" lon="10.607457691842374"><ele>27.666666666666668</ele><time>2026-05-01T10:32:34Z</time></trkpt><trkpt lat="43.34711245637328" lon="10.607202653814703"><ele>23.0</ele><time>2026-05-01T10:32:35Z</time></trkpt><trkpt lat="43.34706930381709" lon="10.606952005870918"><ele>23.0</ele><time>2026-05-01T10:32:35.999Z</time></trkpt><trkpt lat="43.347012897035356" lon="10.606708845532113"><ele>23.0</ele><time>2026-05-01T10:32:36.999Z</time></trkpt><trkpt lat="43.34694219861327" lon="10.606473553235913"><ele>23.0</ele><time>2026-05-01T10:32:37.999Z</time></trkpt><trkpt lat="43.346886930755396" lon="10.606235662087418"><ele>24.333333333333336</ele><time>2026-05-01T10:32:38.999Z</time></trkpt><trkpt lat="43.3468136513557" lon="10.606000951647447"><ele>25.666666666666668</ele><time>2026-05-01T10:32:39.999Z</time></trkpt><trkpt lat="43.34673976161566" lon="10.605766716137284"><ele>27.0</ele><time>2026-05-01T10:32:40.999Z</time></trkpt><trkpt lat="43.34666707598863" lon="10.605533988763343"><ele>28.333333333333336</ele><time>2026-05-01T10:32:41.999Z</time></trkpt><trkpt lat="43.34657734207026" lon="10.60530091585402"><ele>29.666666666666668</ele><time>2026-05-01T10:32:42.999Z</time></trkpt><trkpt lat="43.34650402262975" lon="10.605060372702816"><ele>31.0</ele><time>2026-05-01T10:32:43.999Z</time></trkpt><trkpt lat="43.346427054323414" lon="10.604817310771976"><ele>27.666666666666668</ele><time>2026-05-01T10:32:44.999Z</time></trkpt><trkpt lat="43.34635008807135" lon="10.604574393399725"><ele>24.333333333333336</ele><time>2026-05-01T10:32:45.999Z</time></trkpt><trkpt lat="43.34628885366015" lon="10.604320118100668"><ele>21.0</ele><time>2026-05-01T10:32:46.999Z</time></trkpt><trkpt lat="43.346198747162404" lon="10.60408188110718"><ele>21.0</ele><time>2026-05-01T10:32:47.999Z</time></trkpt><trkpt lat="43.34612260629271" lon="10.603833046848537"><ele>21.0</ele><time>2026-05-01T10:32:48.999Z</time></trkpt><trkpt lat="43.34604393403534" lon="10.603580276319226"><ele>21.0</ele><time>2026-05-01T10:32:49.999Z</time></trkpt><trkpt lat="43.34596416361609" lon="10.60333003782808"><ele>22.0</ele><time>2026-05-01T10:32:50.999Z</time></trkpt><trkpt lat="43.345883890992475" lon="10.603081039575482"><ele>23.0</ele><time>2026-05-01T10:32:51.999Z</time></trkpt><trkpt lat="43.345803270711606" lon="10.602837494657644"><ele>24.0</ele><time>2026-05-01T10:32:52.999Z</time></trkpt><trkpt lat="43.34572443374099" lon="10.602595105092929"><ele>24.0</ele><time>2026-05-01T10:32:53.999Z</time></trkpt><trkpt lat="43.345642277859525" lon="10.602360916261027"><ele>24.0</ele><time>2026-05-01T10:32:54.999Z</time></trkpt><trkpt lat="43.34554667257429" lon="10.602132833367703"><ele>24.0</ele><time>2026-05-01T10:32:55.999Z</time></trkpt><trkpt lat="43.34543356918398" lon="10.60191280214824"><ele>24.0</ele><time>2026-05-01T10:32:56.999Z</time></trkpt><trkpt lat="43.34530607722302" lon="10.601710054923887"><ele>24.0</ele><time>2026-05-01T10:32:57.999Z</time></trkpt><trkpt lat="43.345166917719" lon="10.601522127735128"><ele>24.0</ele><time>2026-05-01T10:32:58.999Z</time></trkpt><trkpt lat="43.345019652923504" lon="10.601343006684342"><ele>24.0</ele><time>2026-05-01T10:32:59.999Z</time></trkpt><trkpt lat="43.34486578345212" lon="10.60117459326481"><ele>24.0</ele><time>2026-05-01T10:33:00.999Z</time></trkpt><trkpt lat="43.344700101373824" lon="10.601021958648042"><ele>24.0</ele><time>2026-05-01T10:33:01.999Z</time></trkpt><trkpt lat="43.34452967276229" lon="10.600882615586553"><ele>23.333333333333332</ele><time>2026-05-01T10:33:02.999Z</time></trkpt><trkpt lat="43.344348600780364" lon="10.600759651669371"><ele>22.666666666666664</ele><time>2026-05-01T10:33:03.999Z</time></trkpt><trkpt lat="43.34416968585763" lon="10.600634478819881"><ele>22.0</ele><time>2026-05-01T10:33:04.999Z</time></trkpt><trkpt lat="43.343994157947535" lon="10.600493011798862"><ele>22.0</ele><time>2026-05-01T10:33:05.999Z</time></trkpt><trkpt lat="43.34382087252189" lon="10.600352565500373"><ele>22.0</ele><time>2026-05-01T10:33:06.999Z</time></trkpt><trkpt lat="43.34364006957839" lon="10.600227874417401"><ele>22.0</ele><time>2026-05-01T10:33:07.999Z</time></trkpt><trkpt lat="43.34345779857491" lon="10.600104860995305"><ele>22.0</ele><time>2026-05-01T10:33:08.999Z</time></trkpt><trkpt lat="43.34328098322687" lon="10.599975616420242"><ele>22.0</ele><time>2026-05-01T10:33:09.999Z</time></trkpt><trkpt lat="43.343104735657754" lon="10.599837790200873"><ele>22.0</ele><time>2026-05-01T10:33:10.999Z</time></trkpt><trkpt lat="43.342943738771886" lon="10.599670834535495"><ele>22.0</ele><time>2026-05-01T10:33:11.999Z</time></trkpt><trkpt lat="43.34278253426508" lon="10.599509027157541"><ele>22.0</ele><time>2026-05-01T10:33:12.999Z</time></trkpt><trkpt lat="43.342632957763925" lon="10.599330687919103"><ele>22.0</ele><time>2026-05-01T10:33:13.999Z</time></trkpt><trkpt lat="43.34249060079999" lon="10.599140822296189"><ele>22.0</ele><time>2026-05-01T10:33:14.999Z</time></trkpt><trkpt lat="43.34235169702696" lon="10.598941000734515"><ele>22.0</ele><time>2026-05-01T10:33:15.999Z</time></trkpt><trkpt lat="43.3422327666759" lon="10.59871836717148"><ele>22.0</ele><time>2026-05-01T10:33:16.999Z</time></trkpt><trkpt lat="43.342117348783084" lon="10.598483567210113"><ele>22.0</ele><time>2026-05-01T10:33:17.999Z</time></trkpt><trkpt lat="43.34200504177881" lon="10.598254871081751"><ele>22.0</ele><time>2026-05-01T10:33:18.999Z</time></trkpt><trkpt lat="43.34191194591913" lon="10.598000853141114"><ele>22.0</ele><time>2026-05-01T10:33:19.999Z</time></trkpt><trkpt lat="43.34182269266951" lon="10.597744871478875"><ele>24.666666666666664</ele><time>2026-05-01T10:33:20.999Z</time></trkpt><trkpt lat="43.34173398036941" lon="10.597493622279531"><ele>27.333333333333332</ele><time>2026-05-01T10:33:21.999Z</time></trkpt><trkpt lat="43.341644688807925" lon="10.597245453674407"><ele>30.0</ele><time>2026-05-01T10:33:22.999Z</time></trkpt><trkpt lat="43.34155509588546" lon="10.596994735036162"><ele>32.666666666666664</ele><time>2026-05-01T10:33:23.999Z</time></trkpt><trkpt lat="43.341467509205785" lon="10.59674685410112"><ele>35.33333333333333</ele><time>2026-05-01T10:33:24.999Z</time></trkpt><trkpt lat="43.3413818802907" lon="10.596503282171872"><ele>38.0</ele><time>2026-05-01T10:33:25.999Z</time></trkpt><trkpt lat="43.341297208460325" lon="10.596262062891206"><ele>33.666666666666664</ele><time>2026-05-01T10:33:26.999Z</time></trkpt><trkpt lat="43.34121326812295" lon="10.596024016775633"><ele>29.333333333333336</ele><time>2026-05-01T10:33:27.999Z</time></trkpt><trkpt lat="43.34112855879937" lon="10.595790821063982"><ele>25.0</ele><time>2026-05-01T10:33:28.999Z</time></trkpt><trkpt lat="43.34106188555202" lon="10.595548148203637"><ele>27.0</ele><time>2026-05-01T10:33:29.999Z</time></trkpt><trkpt lat="43.340981512922006" lon="10.595316116799975"><ele>29.0</ele><time>2026-05-01T10:33:30.999Z</time></trkpt><trkpt lat="43.3409006568107" lon="10.595082689537422"><ele>31.0</ele><time>2026-05-01T10:33:31.999Z</time></trkpt><trkpt lat="43.340820225959654" lon="10.594852985612054"><ele>31.0</ele><time>2026-05-01T10:33:32.999Z</time></trkpt><trkpt lat="43.3407234592782" lon="10.594631489976114"><ele>31.0</ele><time>2026-05-01T10:33:33.999Z</time></trkpt><trkpt lat="43.34064504759783" lon="10.594400955012377"><ele>31.0</ele><time>2026-05-01T10:33:34.999Z</time></trkpt><trkpt lat="43.3405694431287" lon="10.594169360824875"><ele>28.0</ele><time>2026-05-01T10:33:35.999Z</time></trkpt><trkpt lat="43.3405139842724" lon="10.593925003514425"><ele>25.0</ele><time>2026-05-01T10:33:36.999Z</time></trkpt><trkpt lat="43.34044896985727" lon="10.593688549383181"><ele>22.0</ele><time>2026-05-01T10:33:37.999Z</time></trkpt><trkpt lat="43.34037569799951" lon="10.593450777936402"><ele>22.0</ele><time>2026-05-01T10:33:38.999Z</time></trkpt><trkpt lat="43.340325209743945" lon="10.593199467484098"><ele>22.0</ele><time>2026-05-01T10:33:39.999Z</time></trkpt><trkpt lat="43.34028050340197" lon="10.59294336913286"><ele>22.0</ele><time>2026-05-01T10:33:40.999Z</time></trkpt><trkpt lat="43.34024601558748" lon="10.592681602607678"><ele>22.333333333333332</ele><time>2026-05-01T10:33:41.999Z</time></trkpt><trkpt lat="43.340238816268446" lon="10.592413395251688"><ele>22.666666666666668</ele><time>2026-05-01T10:33:43Z</time></trkpt><trkpt lat="43.34021086791184" lon="10.592147494342557"><ele>23.0</ele><time>2026-05-01T10:33:44Z</time></trkpt><trkpt lat="43.34021091761105" lon="10.591879187035453"><ele>23.0</ele><time>2026-05-01T10:33:45Z</time></trkpt><trkpt lat="43.34022486241857" lon="10.591609103662467"><ele>23.0</ele><time>2026-05-01T10:33:46Z</time></trkpt><trkpt lat="43.3402376596053" lon="10.591342216005263"><ele>23.0</ele><time>2026-05-01T10:33:47Z</time></trkpt><trkpt lat="43.340264388920815" lon="10.591073568189342"><ele>22.0</ele><time>2026-05-01T10:33:48Z</time></trkpt><trkpt lat="43.34030032908569" lon="10.590812408582764"><ele>21.0</ele><time>2026-05-01T10:33:49Z</time></trkpt><trkpt lat="43.34034151684845" lon="10.590553645014404"><ele>20.0</ele><time>2026-05-01T10:33:50Z</time></trkpt><trkpt lat="43.340388414510905" lon="10.590292835863641"><ele>19.666666666666668</ele><time>2026-05-01T10:33:51Z</time></trkpt><trkpt lat="43.340433159982524" lon="10.590037630114521"><ele>19.333333333333332</ele><time>2026-05-01T10:33:52Z</time></trkpt><trkpt lat="43.34047952583632" lon="10.58978526660593"><ele>19.0</ele><time>2026-05-01T10:33:53Z</time></trkpt><trkpt lat="43.340522355203866" lon="10.589539562323226"><ele>21.0</ele><time>2026-05-01T10:33:54Z</time></trkpt><trkpt lat="43.340565054141834" lon="10.589294490587767"><ele>23.0</ele><time>2026-05-01T10:33:55Z</time></trkpt><trkpt lat="43.34060741365337" lon="10.589042424917327"><ele>25.0</ele><time>2026-05-01T10:33:56Z</time></trkpt><trkpt lat="43.34065115584227" lon="10.588796229055863"><ele>24.333333333333336</ele><time>2026-05-01T10:33:57Z</time></trkpt><trkpt lat="43.340699264919664" lon="10.588546129082433"><ele>23.666666666666668</ele><time>2026-05-01T10:33:58Z</time></trkpt><trkpt lat="43.340742553765416" lon="10.588300471040947"><ele>23.0</ele><time>2026-05-01T10:33:59Z</time></trkpt><trkpt lat="43.34078762378082" lon="10.588050628936811"><ele>23.0</ele><time>2026-05-01T10:34:00Z</time></trkpt><trkpt lat="43.340835265533094" lon="10.587800108682854"><ele>23.0</ele><time>2026-05-01T10:34:01Z</time></trkpt><trkpt lat="43.34088474662429" lon="10.58755150207695"><ele>23.0</ele><time>2026-05-01T10:34:02Z</time></trkpt><trkpt lat="43.340940317693786" lon="10.587300715412326"><ele>23.0</ele><time>2026-05-01T10:34:03Z</time></trkpt><trkpt lat="43.3410022502369" lon="10.587054542163079"><ele>23.0</ele><time>2026-05-01T10:34:04Z</time></trkpt><trkpt lat="43.34107735898262" lon="10.586813967796529"><ele>23.0</ele><time>2026-05-01T10:34:05Z</time></trkpt><trkpt lat="43.341161257416395" lon="10.58658470097315"><ele>22.666666666666668</ele><time>2026-05-01T10:34:06Z</time></trkpt><trkpt lat="43.341258141262394" lon="10.586366610639029"><ele>22.333333333333332</ele><time>2026-05-01T10:34:07Z</time></trkpt><trkpt lat="43.34136022162017" lon="10.586153520017058"><ele>22.0</ele><time>2026-05-01T10:34:08Z</time></trkpt><trkpt lat="43.341470469260116" lon="10.585949720717124"><ele>22.666666666666664</ele><time>2026-05-01T10:34:09Z</time></trkpt><trkpt lat="43.34158315449013" lon="10.585753555591177"><ele>23.333333333333332</ele><time>2026-05-01T10:34:10Z</time></trkpt><trkpt lat="43.341699377916214" lon="10.585565201855463"><ele>24.0</ele><time>2026-05-01T10:34:11Z</time></trkpt><trkpt lat="43.34181245083776" lon="10.585392403096016"><ele>23.333333333333332</ele><time>2026-05-01T10:34:12Z</time></trkpt><trkpt lat="43.34192011526025" lon="10.585226349503198"><ele>22.666666666666664</ele><time>2026-05-01T10:34:13Z</time></trkpt><trkpt lat="43.34202311205301" lon="10.585063197221398"><ele>22.0</ele><time>2026-05-01T10:34:14Z</time></trkpt><trkpt lat="43.34212362039822" lon="10.584901263848003"><ele>22.333333333333332</ele><time>2026-05-01T10:34:15Z</time></trkpt><trkpt lat="43.34223254564164" lon="10.584737005549147"><ele>22.666666666666668</ele><time>2026-05-01T10:34:16Z</time></trkpt><trkpt lat="43.34233855871164" lon="10.58457722968196"><ele>23.0</ele><time>2026-05-01T10:34:17Z</time></trkpt><trkpt lat="43.34244965348484" lon="10.58440923429511"><ele>23.0</ele><time>2026-05-01T10:34:18Z</time></trkpt><trkpt lat="43.342554957430586" lon="10.58424480909109"><ele>23.0</ele><time>2026-05-01T10:34:19Z</time></trkpt><trkpt lat="43.3426645272847" lon="10.584065215782639"><ele>23.0</ele><time>2026-05-01T10:34:20Z</time></trkpt><trkpt lat="43.34277156148973" lon="10.583883966695026"><ele>23.0</ele><time>2026-05-01T10:34:21Z</time></trkpt><trkpt lat="43.34287146431375" lon="10.583703251022067"><ele>23.0</ele><time>2026-05-01T10:34:22Z</time></trkpt><trkpt lat="43.34295631817902" lon="10.583525278877746"><ele>23.0</ele><time>2026-05-01T10:34:23Z</time></trkpt><trkpt lat="43.343024246587746" lon="10.58335740696469"><ele>23.2</ele><time>2026-05-01T10:34:24Z</time></trkpt><trkpt lat="43.34308415871811" lon="10.583197426987729"><ele>23.4</ele><time>2026-05-01T10:34:25Z</time></trkpt><trkpt lat="43.343129601238324" lon="10.583050201537864"><ele>23.599999999999998</ele><time>2026-05-01T10:34:26Z</time></trkpt><trkpt lat="43.34316706922775" lon="10.582922791676285"><ele>23.799999999999997</ele><time>2026-05-01T10:34:27Z</time></trkpt><trkpt lat="43.34321083496916" lon="10.582813309058862"><ele>24.0</ele><time>2026-05-01T10:34:28Z</time></trkpt><trkpt lat="43.343269356344194" lon="10.582739015367242"><ele>24.166666666666668</ele><time>2026-05-01T10:34:29Z</time></trkpt><trkpt lat="43.34333228977883" lon="10.582682149325441"><ele>24.333333333333336</ele><time>2026-05-01T10:34:30Z</time></trkpt><trkpt lat="43.34338927403881" lon="10.582612414469876"><ele>24.5</ele><time>2026-05-01T10:34:31Z</time></trkpt><trkpt lat="43.34341562880547" lon="10.582514254159575"><ele>24.666666666666668</ele><time>2026-05-01T10:34:32Z</time></trkpt><trkpt lat="43.34340260516086" lon="10.582378031875164"><ele>24.833333333333336</ele><time>2026-05-01T10:34:33Z</time></trkpt><trkpt lat="43.343357072955946" lon="10.582228066371416"><ele>25.0</ele><time>2026-05-01T10:34:34Z</time></trkpt><trkpt lat="43.34329813544028" lon="10.582073888863025"><ele>26.0</ele><time>2026-05-01T10:34:35Z</time></trkpt><trkpt lat="43.34325890840413" lon="10.581896870273736"><ele>27.0</ele><time>2026-05-01T10:34:36Z</time></trkpt><trkpt lat="43.34323143693158" lon="10.581707097134256"><ele>28.0</ele><time>2026-05-01T10:34:37Z</time></trkpt><trkpt lat="43.34320081160791" lon="10.58151117497203"><ele>29.0</ele><time>2026-05-01T10:34:38Z</time></trkpt><trkpt lat="43.34314802730411" lon="10.581317496922608"><ele>29.0</ele><time>2026-05-01T10:34:39Z</time></trkpt><trkpt lat="43.34308932290868" lon="10.581130492251493"><ele>29.0</ele><time>2026-05-01T10:34:40Z</time></trkpt><trkpt lat="43.343023424039494" lon="10.580941538241142"><ele>29.0</ele><time>2026-05-01T10:34:41Z</time></trkpt><trkpt lat="43.34295470736444" lon="10.580754927333787"><ele>29.0</ele><time>2026-05-01T10:34:41.999Z</time></trkpt><trkpt lat="43.34288455515774" lon="10.580561043803783"><ele>29.0</ele><time>2026-05-01T10:34:42.999Z</time></trkpt><trkpt lat="43.34281232246234" lon="10.580367863062458"><ele>29.0</ele><time>2026-05-01T10:34:43.999Z</time></trkpt><trkpt lat="43.342743679883" lon="10.580184648150903"><ele>28.75</ele><time>2026-05-01T10:34:44.999Z</time></trkpt><trkpt lat="43.34268010416549" lon="10.58000805558666"><ele>28.5</ele><time>2026-05-01T10:34:45.999Z</time></trkpt><trkpt lat="43.34262528492149" lon="10.579836801039692"><ele>28.25</ele><time>2026-05-01T10:34:46.999Z</time></trkpt><trkpt lat="43.34260473128574" lon="10.579681530732428"><ele>28.0</ele><time>2026-05-01T10:34:47.999Z</time></trkpt><trkpt lat="43.34257759470563" lon="10.579563834346441"><ele>27.333333333333336</ele><time>2026-05-01T10:34:48.999Z</time></trkpt><trkpt lat="43.34254806690566" lon="10.57946709212672"><ele>26.666666666666668</ele><time>2026-05-01T10:34:49.999Z</time></trkpt><trkpt lat="43.34254485657135" lon="10.57936350376584"><ele>26.0</ele><time>2026-05-01T10:34:50.999Z</time></trkpt><trkpt lat="43.342559395063105" lon="10.579259463051624"><ele>25.333333333333336</ele><time>2026-05-01T10:34:51.999Z</time></trkpt><trkpt lat="43.34258495661047" lon="10.57915677700014"><ele>24.666666666666668</ele><time>2026-05-01T10:34:52.999Z</time></trkpt><trkpt lat="43.34260844399134" lon="10.5790595493165"><ele>24.0</ele><time>2026-05-01T10:34:53.999Z</time></trkpt><trkpt lat="43.34259452527434" lon="10.578961532254167"><ele>24.0</ele><time>2026-05-01T10:34:54.999Z</time></trkpt><trkpt lat="43.34256162333835" lon="10.578877595043844"><ele>24.0</ele><time>2026-05-01T10:34:55.999Z</time></trkpt><trkpt lat="43.34251492808036" lon="10.57880318510811"><ele>24.0</ele><time>2026-05-01T10:34:56.999Z</time></trkpt><trkpt lat="43.342421671893966" lon="10.57883036645525"><ele>24.0</ele><time>2026-05-01T10:34:57.999Z</time></trkpt><trkpt lat="43.34234923071822" lon="10.578854168314052"><ele>24.0</ele><time>2026-05-01T10:34:58.999Z</time></trkpt><trkpt lat="43.342268957190065" lon="10.578867530967605"><ele>24.0</ele><time>2026-05-01T10:34:59.999Z</time></trkpt><trkpt lat="43.34218639928097" lon="10.578839767012497"><ele>24.2</ele><time>2026-05-01T10:35:00.999Z</time></trkpt><trkpt lat="43.34210776224238" lon="10.578769818180392"><ele>24.4</ele><time>2026-05-01T10:35:01.999Z</time></trkpt><trkpt lat="43.34206462959635" lon="10.578650378292538"><ele>24.6</ele><time>2026-05-01T10:35:02.999Z</time></trkpt><trkpt lat="43.342013828195974" lon="10.578531947516232"><ele>24.8</ele><time>2026-05-01T10:35:03.999Z</time></trkpt><trkpt lat="43.34195229373678" lon="10.578416882588009"><ele>25.0</ele><time>2026-05-01T10:35:04.999Z</time></trkpt><trkpt lat="43.3419015137463" lon="10.578288369599889"><ele>23.75</ele><time>2026-05-01T10:35:05.999Z</time></trkpt><trkpt lat="43.341844736766646" lon="10.578152240941604"><ele>22.5</ele><time>2026-05-01T10:35:06.999Z</time></trkpt><trkpt lat="43.34178741765514" lon="10.578010113757898"><ele>21.25</ele><time>2026-05-01T10:35:07.999Z</time></trkpt><trkpt lat="43.3417289385665" lon="10.577864842338634"><ele>20.0</ele><time>2026-05-01T10:35:08.999Z</time></trkpt><trkpt lat="43.34166774792708" lon="10.577712236894879"><ele>19.5</ele><time>2026-05-01T10:35:09.999Z</time></trkpt><trkpt lat="43.341600766777574" lon="10.577556010521176"><ele>19.0</ele><time>2026-05-01T10:35:10.999Z</time></trkpt><trkpt lat="43.34153241049127" lon="10.577398361253449"><ele>18.5</ele><time>2026-05-01T10:35:11.999Z</time></trkpt><trkpt lat="43.34145932944548" lon="10.577229859371762"><ele>18.0</ele><time>2026-05-01T10:35:12.999Z</time></trkpt><trkpt lat="43.3413789032883" lon="10.577049391723738"><ele>17.666666666666668</ele><time>2026-05-01T10:35:13.999Z</time></trkpt><trkpt lat="43.341298788490676" lon="10.576866487401373"><ele>17.333333333333336</ele><time>2026-05-01T10:35:14.999Z</time></trkpt><trkpt lat="43.34121031653515" lon="10.576664108665177"><ele>17.0</ele><time>2026-05-01T10:35:15.999Z</time></trkpt><trkpt lat="43.34112352943489" lon="10.576453991608664"><ele>17.0</ele><time>2026-05-01T10:35:16.999Z</time></trkpt><trkpt lat="43.34104256558591" lon="10.576241728835797"><ele>17.0</ele><time>2026-05-01T10:35:17.999Z</time></trkpt><trkpt lat="43.34095918695987" lon="10.576029990399167"><ele>17.0</ele><time>2026-05-01T10:35:18.999Z</time></trkpt><trkpt lat="43.34087320056277" lon="10.575819763722542"><ele>16.666666666666668</ele><time>2026-05-01T10:35:19.999Z</time></trkpt><trkpt lat="43.34078340482766" lon="10.575611061297336"><ele>16.333333333333332</ele><time>2026-05-01T10:35:20.999Z</time></trkpt><trkpt lat="43.34069401671512" lon="10.575406336860759"><ele>16.0</ele><time>2026-05-01T10:35:21.999Z</time></trkpt><trkpt lat="43.34060728701024" lon="10.575203144909398"><ele>15.333333333333332</ele><time>2026-05-01T10:35:22.999Z</time></trkpt><trkpt lat="43.3405203670624" lon="10.574996318266876"><ele>14.666666666666668</ele><time>2026-05-01T10:35:23.999Z</time></trkpt><trkpt lat="43.340434207048375" lon="10.574793518967269"><ele>14.0</ele><time>2026-05-01T10:35:24.999Z</time></trkpt><trkpt lat="43.34034787770708" lon="10.57459156574414"><ele>13.0</ele><time>2026-05-01T10:35:25.999Z</time></trkpt><trkpt lat="43.34025991866526" lon="10.574390334716762"><ele>12.0</ele><time>2026-05-01T10:35:26.999Z</time></trkpt><trkpt lat="43.34017303026488" lon="10.574189966790344"><ele>11.0</ele><time>2026-05-01T10:35:27.999Z</time></trkpt><trkpt lat="43.34008557200093" lon="10.573984255263854"><ele>11.0</ele><time>2026-05-01T10:35:28.999Z</time></trkpt><trkpt lat="43.33999963179199" lon="10.573782600265295"><ele>11.0</ele><time>2026-05-01T10:35:29.999Z</time></trkpt><trkpt lat="43.33991081277081" lon="10.573579497041631"><ele>11.0</ele><time>2026-05-01T10:35:30.999Z</time></trkpt><trkpt lat="43.339838722668446" lon="10.57336741527883"><ele>11.0</ele><time>2026-05-01T10:35:31.999Z</time></trkpt><trkpt lat="43.3397351398722" lon="10.573163933251813"><ele>11.0</ele><time>2026-05-01T10:35:32.999Z</time></trkpt><trkpt lat="43.33964956761474" lon="10.572960245384492"><ele>11.0</ele><time>2026-05-01T10:35:33.999Z</time></trkpt><trkpt lat="43.33956168837357" lon="10.572753714574825"><ele>11.666666666666666</ele><time>2026-05-01T10:35:34.999Z</time></trkpt><trkpt lat="43.339472119048274" lon="10.572545764713317"><ele>12.333333333333332</ele><time>2026-05-01T10:35:35.999Z</time></trkpt><trkpt lat="43.33939652760451" lon="10.572324384521059"><ele>13.0</ele><time>2026-05-01T10:35:36.999Z</time></trkpt><trkpt lat="43.33930765637156" lon="10.572116897096434"><ele>13.666666666666666</ele><time>2026-05-01T10:35:37.999Z</time></trkpt><trkpt lat="43.339217451459426" lon="10.571906296114678"><ele>14.333333333333332</ele><time>2026-05-01T10:35:38.999Z</time></trkpt><trkpt lat="43.33911533407891" lon="10.571705401689037"><ele>15.0</ele><time>2026-05-01T10:35:39.999Z</time></trkpt><trkpt lat="43.33902873732106" lon="10.571492546885796"><ele>15.0</ele><time>2026-05-01T10:35:40.999Z</time></trkpt><trkpt lat="43.33893885119603" lon="10.571284232648825"><ele>15.0</ele><time>2026-05-01T10:35:41.999Z</time></trkpt><trkpt lat="43.338846560553144" lon="10.57107483574062"><ele>15.0</ele><time>2026-05-01T10:35:42.999Z</time></trkpt><trkpt lat="43.338752660959834" lon="10.570871119934546"><ele>15.0</ele><time>2026-05-01T10:35:43.999Z</time></trkpt><trkpt lat="43.33865390497524" lon="10.570669331323588"><ele>15.0</ele><time>2026-05-01T10:35:44.999Z</time></trkpt><trkpt lat="43.33854476078068" lon="10.570463429137048"><ele>15.0</ele><time>2026-05-01T10:35:45.999Z</time></trkpt><trkpt lat="43.33842849065793" lon="10.570258862563366"><ele>15.0</ele><time>2026-05-01T10:35:46.999Z</time></trkpt><trkpt lat="43.338304544994116" lon="10.57005100740693"><ele>15.0</ele><time>2026-05-01T10:35:48Z</time></trkpt><trkpt lat="43.338192306347786" lon="10.56982378643428"><ele>15.0</ele><time>2026-05-01T10:35:49Z</time></trkpt><trkpt lat="43.338067225020346" lon="10.569603448282926"><ele>15.333333333333332</ele><time>2026-05-01T10:35:50Z</time></trkpt><trkpt lat="43.33793618860662" lon="10.569370598888003"><ele>15.666666666666666</ele><time>2026-05-01T10:35:51Z</time></trkpt><trkpt lat="43.337795684019056" lon="10.569146957109014"><ele>16.0</ele><time>2026-05-01T10:35:52Z</time></trkpt><trkpt lat="43.33766142429908" lon="10.56890126543652"><ele>16.333333333333332</ele><time>2026-05-01T10:35:53Z</time></trkpt><trkpt lat="43.33752365258292" lon="10.568660002957836"><ele>16.666666666666668</ele><time>2026-05-01T10:35:54Z</time></trkpt><trkpt lat="43.33738678852243" lon="10.568420209529581"><ele>17.0</ele><time>2026-05-01T10:35:55Z</time></trkpt><trkpt lat="43.33726604139492" lon="10.568160275607754"><ele>16.333333333333336</ele><time>2026-05-01T10:35:56Z</time></trkpt><trkpt lat="43.33713947812977" lon="10.567917127905602"><ele>15.666666666666668</ele><time>2026-05-01T10:35:57Z</time></trkpt><trkpt lat="43.33701056596821" lon="10.567674031803527"><ele>15.0</ele><time>2026-05-01T10:35:58Z</time></trkpt><trkpt lat="43.33686557489255" lon="10.56745104031429"><ele>15.0</ele><time>2026-05-01T10:35:59Z</time></trkpt><trkpt lat="43.3367427167448" lon="10.56722198212817"><ele>15.0</ele><time>2026-05-01T10:36:00Z</time></trkpt><trkpt lat="43.33661583225147" lon="10.56700043985469"><ele>15.0</ele><time>2026-05-01T10:36:01Z</time></trkpt><trkpt lat="43.33649001260068" lon="10.566799502005503"><ele>14.666666666666668</ele><time>2026-05-01T10:36:02Z</time></trkpt><trkpt lat="43.336360024071745" lon="10.566604316384947"><ele>14.333333333333334</ele><time>2026-05-01T10:36:03Z</time></trkpt><trkpt lat="43.33624619372527" lon="10.566398006985489"><ele>14.0</ele><time>2026-05-01T10:36:04Z</time></trkpt><trkpt lat="43.33612174433015" lon="10.566203877066947"><ele>14.0</ele><time>2026-05-01T10:36:05Z</time></trkpt><trkpt lat="43.335984779672444" lon="10.566022897445464"><ele>14.0</ele><time>2026-05-01T10:36:06Z</time></trkpt><trkpt lat="43.33585893949453" lon="10.565823794877735"><ele>14.0</ele><time>2026-05-01T10:36:07Z</time></trkpt><trkpt lat="43.33573000650299" lon="10.565619642776758"><ele>14.0</ele><time>2026-05-01T10:36:08Z</time></trkpt><trkpt lat="43.335606379850816" lon="10.565419503854551"><ele>14.0</ele><time>2026-05-01T10:36:09Z</time></trkpt><trkpt lat="43.33548246176448" lon="10.565220453934357"><ele>14.0</ele><time>2026-05-01T10:36:10Z</time></trkpt><trkpt lat="43.33536121928668" lon="10.56502811920698"><ele>13.5</ele><time>2026-05-01T10:36:11Z</time></trkpt><trkpt lat="43.33512860621938" lon="10.564667591970766"><ele>13.0</ele><time>2026-05-01T10:36:13Z</time></trkpt><trkpt lat="43.33501844679016" lon="10.564494918803998"><ele>13.0</ele><time>2026-05-01T10:36:14Z</time></trkpt><trkpt lat="43.334909617717464" lon="10.564324260887924"><ele>13.0</ele><time>2026-05-01T10:36:15Z</time></trkpt><trkpt lat="43.33480186617179" lon="10.56415609484623"><ele>13.0</ele><time>2026-05-01T10:36:16Z</time></trkpt><trkpt lat="43.33469368761898" lon="10.563986757902887"><ele>13.0</ele><time>2026-05-01T10:36:17Z</time></trkpt><trkpt lat="43.33458637474169" lon="10.563816470466891"><ele>13.0</ele><time>2026-05-01T10:36:18Z</time></trkpt><trkpt lat="43.33447892413785" lon="10.563645755008164"><ele>13.0</ele><time>2026-05-01T10:36:19Z</time></trkpt><trkpt lat="43.33437306225756" lon="10.563482974754507"><ele>13.5</ele><time>2026-05-01T10:36:20Z</time></trkpt><trkpt lat="43.33426724486219" lon="10.563330691410565"><ele>14.0</ele><time>2026-05-01T10:36:21Z</time></trkpt><trkpt lat="43.334166498047196" lon="10.56319540879981"><ele>14.5</ele><time>2026-05-01T10:36:22Z</time></trkpt><trkpt lat="43.334073795827976" lon="10.563078787921931"><ele>15.0</ele><time>2026-05-01T10:36:23Z</time></trkpt><trkpt lat="43.33399015367764" lon="10.562971558836773"><ele>15.0</ele><time>2026-05-01T10:36:24Z</time></trkpt><trkpt lat="43.3339216660228" lon="10.562889142196873"><ele>15.0</ele><time>2026-05-01T10:36:25Z</time></trkpt><trkpt lat="43.333875368272196" lon="10.562803168387504"><ele>15.0</ele><time>2026-05-01T10:36:26Z</time></trkpt><trkpt lat="43.3338142137345" lon="10.56275275609372"><ele>15.0</ele><time>2026-05-01T10:36:27Z</time></trkpt><trkpt lat="43.33377821693737" lon="10.562679744890278"><ele>15.0</ele><time>2026-05-01T10:36:28Z</time></trkpt><trkpt lat="43.3337558428407" lon="10.562590480084229"><ele>15.0</ele><time>2026-05-01T10:36:29Z</time></trkpt><trkpt lat="43.3337374354959" lon="10.562483498855151"><ele>15.166666666666666</ele><time>2026-05-01T10:36:30Z</time></trkpt><trkpt lat="43.333711024190215" lon="10.562389841411706"><ele>15.333333333333332</ele><time>2026-05-01T10:36:31Z</time></trkpt><trkpt lat="43.33366124522328" lon="10.56230970069561"><ele>15.5</ele><time>2026-05-01T10:36:32Z</time></trkpt><trkpt lat="43.333598465464846" lon="10.562245454564591"><ele>15.666666666666666</ele><time>2026-05-01T10:36:33Z</time></trkpt><trkpt lat="43.33352326103359" lon="10.562190767776205"><ele>15.833333333333332</ele><time>2026-05-01T10:36:34Z</time></trkpt><trkpt lat="43.333450121286326" lon="10.5621095567848"><ele>16.0</ele><time>2026-05-01T10:36:35Z</time></trkpt><trkpt lat="43.3334037161367" lon="10.561980227617449"><ele>16.25</ele><time>2026-05-01T10:36:36Z</time></trkpt><trkpt lat="43.33334630807078" lon="10.561842482238095"><ele>16.5</ele><time>2026-05-01T10:36:37Z</time></trkpt><trkpt lat="43.33326213940936" lon="10.561702968495092"><ele>16.75</ele><time>2026-05-01T10:36:38Z</time></trkpt><trkpt lat="43.333181337100676" lon="10.561543703138899"><ele>17.0</ele><time>2026-05-01T10:36:39Z</time></trkpt><trkpt lat="43.33309696279018" lon="10.561393397059435"><ele>16.75</ele><time>2026-05-01T10:36:40Z</time></trkpt><trkpt lat="43.33300751423895" lon="10.56125232989253"><ele>16.5</ele><time>2026-05-01T10:36:41Z</time></trkpt><trkpt lat="43.33291416354606" lon="10.561104436180772"><ele>16.25</ele><time>2026-05-01T10:36:42Z</time></trkpt><trkpt lat="43.33282082499223" lon="10.560948489615317"><ele>16.0</ele><time>2026-05-01T10:36:43Z</time></trkpt><trkpt lat="43.33272734386268" lon="10.560796866960128"><ele>15.75</ele><time>2026-05-01T10:36:44Z</time></trkpt><trkpt lat="43.332632465197634" lon="10.560647829102278"><ele>15.5</ele><time>2026-05-01T10:36:45Z</time></trkpt><trkpt lat="43.33253833800774" lon="10.560493910779412"><ele>15.25</ele><time>2026-05-01T10:36:46Z</time></trkpt><trkpt lat="43.33244531224" lon="10.56034082054021"><ele>15.0</ele><time>2026-05-01T10:36:47Z</time></trkpt><trkpt lat="43.332355004306244" lon="10.56019029283578"><ele>14.75</ele><time>2026-05-01T10:36:48Z</time></trkpt><trkpt lat="43.33226511419178" lon="10.560042165404937"><ele>14.5</ele><time>2026-05-01T10:36:49Z</time></trkpt><trkpt lat="43.33217473401109" lon="10.55989305829651"><ele>14.25</ele><time>2026-05-01T10:36:50Z</time></trkpt><trkpt lat="43.332083974657074" lon="10.55974236302984"><ele>14.0</ele><time>2026-05-01T10:36:51Z</time></trkpt><trkpt lat="43.331988002863945" lon="10.559583943464126"><ele>13.333333333333334</ele><time>2026-05-01T10:36:52Z</time></trkpt><trkpt lat="43.33188958681369" lon="10.559420692688466"><ele>12.666666666666668</ele><time>2026-05-01T10:36:53Z</time></trkpt><trkpt lat="43.33178816097975" lon="10.559254753852061"><ele>12.0</ele><time>2026-05-01T10:36:53.999Z</time></trkpt><trkpt lat="43.3316881418467" lon="10.559092663299817"><ele>12.0</ele><time>2026-05-01T10:36:54.999Z</time></trkpt><trkpt lat="43.33158565463286" lon="10.558927631047979"><ele>12.0</ele><time>2026-05-01T10:36:55.999Z</time></trkpt><trkpt lat="43.331484549102434" lon="10.558765027339124"><ele>12.0</ele><time>2026-05-01T10:36:56.999Z</time></trkpt><trkpt lat="43.33138746472061" lon="10.558608018788522"><ele>12.0</ele><time>2026-05-01T10:36:57.999Z</time></trkpt><trkpt lat="43.331303275982336" lon="10.558438804030521"><ele>12.0</ele><time>2026-05-01T10:36:58.999Z</time></trkpt><trkpt lat="43.33120140619509" lon="10.558309456457122"><ele>12.0</ele><time>2026-05-01T10:36:59.999Z</time></trkpt><trkpt lat="43.331124076478595" lon="10.558175638847043"><ele>12.0</ele><time>2026-05-01T10:37:00.999Z</time></trkpt><trkpt lat="43.33103409367754" lon="10.558034496827407"><ele>12.0</ele><time>2026-05-01T10:37:01.999Z</time></trkpt><trkpt lat="43.330944469939375" lon="10.557884252430958"><ele>12.0</ele><time>2026-05-01T10:37:02.999Z</time></trkpt><trkpt lat="43.33085043479785" lon="10.557732086223089"><ele>12.0</ele><time>2026-05-01T10:37:03.999Z</time></trkpt><trkpt lat="43.33075083119389" lon="10.557573545153124"><ele>12.0</ele><time>2026-05-01T10:37:04.999Z</time></trkpt><trkpt lat="43.33065192407059" lon="10.557418210372587"><ele>12.0</ele><time>2026-05-01T10:37:05.999Z</time></trkpt><trkpt lat="43.3305541821062" lon="10.557264017169205"><ele>12.0</ele><time>2026-05-01T10:37:06.999Z</time></trkpt><trkpt lat="43.33046242924533" lon="10.557116235670007"><ele>12.0</ele><time>2026-05-01T10:37:07.999Z</time></trkpt><trkpt lat="43.33037185638669" lon="10.556975288632929"><ele>12.0</ele><time>2026-05-01T10:37:08.999Z</time></trkpt><trkpt lat="43.330278232178074" lon="10.556826934507896"><ele>12.0</ele><time>2026-05-01T10:37:09.999Z</time></trkpt><trkpt lat="43.33018629931473" lon="10.556681757573443"><ele>12.0</ele><time>2026-05-01T10:37:10.999Z</time></trkpt><trkpt lat="43.330089957943336" lon="10.556532821596985"><ele>12.0</ele><time>2026-05-01T10:37:11.999Z</time></trkpt><trkpt lat="43.32999903343696" lon="10.556392354305034"><ele>12.0</ele><time>2026-05-01T10:37:12.999Z</time></trkpt><trkpt lat="43.32990185817429" lon="10.556241121171501"><ele>12.0</ele><time>2026-05-01T10:37:13.999Z</time></trkpt><trkpt lat="43.32981072445" lon="10.556098332160214"><ele>12.0</ele><time>2026-05-01T10:37:14.999Z</time></trkpt><trkpt lat="43.329714215078724" lon="10.555945423065348"><ele>12.0</ele><time>2026-05-01T10:37:15.999Z</time></trkpt><trkpt lat="43.32961840383097" lon="10.555792611254551"><ele>12.0</ele><time>2026-05-01T10:37:16.999Z</time></trkpt><trkpt lat="43.32951832558533" lon="10.555639367672315"><ele>12.0</ele><time>2026-05-01T10:37:17.999Z</time></trkpt><trkpt lat="43.32941616866454" lon="10.555480767153707"><ele>12.0</ele><time>2026-05-01T10:37:18.999Z</time></trkpt><trkpt lat="43.32931181233825" lon="10.555320294455765"><ele>12.0</ele><time>2026-05-01T10:37:19.999Z</time></trkpt><trkpt lat="43.329206911934094" lon="10.555154705309233"><ele>11.666666666666666</ele><time>2026-05-01T10:37:20.999Z</time></trkpt><trkpt lat="43.3291016737485" lon="10.554988073432158"><ele>11.333333333333332</ele><time>2026-05-01T10:37:21.999Z</time></trkpt><trkpt lat="43.32899701857932" lon="10.554821689881233"><ele>11.0</ele><time>2026-05-01T10:37:22.999Z</time></trkpt><trkpt lat="43.32889456937893" lon="10.554646218614264"><ele>10.666666666666666</ele><time>2026-05-01T10:37:23.999Z</time></trkpt><trkpt lat="43.32878990122797" lon="10.554469488036082"><ele>10.333333333333334</ele><time>2026-05-01T10:37:24.999Z</time></trkpt><trkpt lat="43.32868427646883" lon="10.55428727131739"><ele>10.0</ele><time>2026-05-01T10:37:25.999Z</time></trkpt><trkpt lat="43.32858721110077" lon="10.554114258678522"><ele>10.0</ele><time>2026-05-01T10:37:26.999Z</time></trkpt><trkpt lat="43.32848595469034" lon="10.553935021264525"><ele>10.0</ele><time>2026-05-01T10:37:27.999Z</time></trkpt><trkpt lat="43.32838488536243" lon="10.55375363936217"><ele>10.0</ele><time>2026-05-01T10:37:28.999Z</time></trkpt><trkpt lat="43.32828515239083" lon="10.553567715346986"><ele>10.0</ele><time>2026-05-01T10:37:29.999Z</time></trkpt><trkpt lat="43.32818619319077" lon="10.553386293521283"><ele>10.0</ele><time>2026-05-01T10:37:30.999Z</time></trkpt><trkpt lat="43.32809177932847" lon="10.553217195430294"><ele>10.0</ele><time>2026-05-01T10:37:31.999Z</time></trkpt><trkpt lat="43.328003949631004" lon="10.553057885543627"><ele>10.0</ele><time>2026-05-01T10:37:32.999Z</time></trkpt><trkpt lat="43.32791980471164" lon="10.552909368209876"><ele>10.0</ele><time>2026-05-01T10:37:33.999Z</time></trkpt><trkpt lat="43.32783479539988" lon="10.552758786285091"><ele>10.0</ele><time>2026-05-01T10:37:34.999Z</time></trkpt><trkpt lat="43.32774870885369" lon="10.552603923906837"><ele>10.0</ele><time>2026-05-01T10:37:35.999Z</time></trkpt><trkpt lat="43.32765972395625" lon="10.552440541676464"><ele>10.333333333333334</ele><time>2026-05-01T10:37:36.999Z</time></trkpt><trkpt lat="43.32756906390813" lon="10.552270449758502"><ele>10.666666666666666</ele><time>2026-05-01T10:37:37.999Z</time></trkpt><trkpt lat="43.32747643141789" lon="10.552098501748738"><ele>11.0</ele><time>2026-05-01T10:37:38.999Z</time></trkpt><trkpt lat="43.32738437138161" lon="10.551922161380865"><ele>11.0</ele><time>2026-05-01T10:37:39.999Z</time></trkpt><trkpt lat="43.32729416244638" lon="10.551740566106208"><ele>11.0</ele><time>2026-05-01T10:37:40.999Z</time></trkpt><trkpt lat="43.32722750775158" lon="10.551539604244855"><ele>11.0</ele><time>2026-05-01T10:37:41.999Z</time></trkpt><trkpt lat="43.327158725986614" lon="10.551342520831652"><ele>11.333333333333332</ele><time>2026-05-01T10:37:42.999Z</time></trkpt><trkpt lat="43.32707482765648" lon="10.551147198225507"><ele>11.666666666666666</ele><time>2026-05-01T10:37:43.999Z</time></trkpt><trkpt lat="43.327014105520256" lon="10.550936987281942"><ele>12.0</ele><time>2026-05-01T10:37:44.999Z</time></trkpt><trkpt lat="43.326953244812046" lon="10.55073445935167"><ele>12.0</ele><time>2026-05-01T10:37:45.999Z</time></trkpt><trkpt lat="43.32689396162755" lon="10.550541284421444"><ele>12.0</ele><time>2026-05-01T10:37:46.999Z</time></trkpt><trkpt lat="43.32683304213995" lon="10.55036201237019"><ele>12.0</ele><time>2026-05-01T10:37:47.999Z</time></trkpt><trkpt lat="43.32677685177934" lon="10.550190662922148"><ele>12.0</ele><time>2026-05-01T10:37:48.999Z</time></trkpt><trkpt lat="43.3267285225041" lon="10.550038473355402"><ele>11.5</ele><time>2026-05-01T10:37:49.999Z</time></trkpt><trkpt lat="43.326673588859386" lon="10.549866972540485"><ele>11.0</ele><time>2026-05-01T10:37:50.999Z</time></trkpt><trkpt lat="43.32661458640012" lon="10.549686945560024"><ele>10.5</ele><time>2026-05-01T10:37:51.999Z</time></trkpt><trkpt lat="43.326552183095394" lon="10.54949739120915"><ele>10.0</ele><time>2026-05-01T10:37:52.999Z</time></trkpt><trkpt lat="43.326492054558805" lon="10.549302982601354"><ele>10.0</ele><time>2026-05-01T10:37:54Z</time></trkpt><trkpt lat="43.326428075669845" lon="10.549107217885965"><ele>10.0</ele><time>2026-05-01T10:37:55Z</time></trkpt><trkpt lat="43.32636718918294" lon="10.548914146677237"><ele>10.0</ele><time>2026-05-01T10:37:56Z</time></trkpt><trkpt lat="43.326305486998464" lon="10.548721818399892"><ele>9.75</ele><time>2026-05-01T10:37:57Z</time></trkpt><trkpt lat="43.326243504855334" lon="10.548531228430129"><ele>9.5</ele><time>2026-05-01T10:37:58Z</time></trkpt><trkpt lat="43.32618457155586" lon="10.548342646489006"><ele>9.25</ele><time>2026-05-01T10:37:59Z</time></trkpt><trkpt lat="43.326131458347724" lon="10.548170573917336"><ele>9.0</ele><time>2026-05-01T10:38:00Z</time></trkpt><trkpt lat="43.32607565326542" lon="10.547998764129506"><ele>9.0</ele><time>2026-05-01T10:38:01Z</time></trkpt><trkpt lat="43.326021463257206" lon="10.547834067993755"><ele>9.0</ele><time>2026-05-01T10:38:02Z</time></trkpt><trkpt lat="43.325966981041326" lon="10.547669253253543"><ele>9.0</ele><time>2026-05-01T10:38:03Z</time></trkpt><trkpt lat="43.325916904004295" lon="10.547504139323994"><ele>9.0</ele><time>2026-05-01T10:38:04Z</time></trkpt><trkpt lat="43.32586500547643" lon="10.547340589957907"><ele>9.0</ele><time>2026-05-01T10:38:05Z</time></trkpt><trkpt lat="43.32581310062966" lon="10.54717959196036"><ele>9.0</ele><time>2026-05-01T10:38:06Z</time></trkpt><trkpt lat="43.325761966320876" lon="10.547017564100287"><ele>9.0</ele><time>2026-05-01T10:38:07Z</time></trkpt><trkpt lat="43.32570941518905" lon="10.546854783106154"><ele>9.0</ele><time>2026-05-01T10:38:08Z</time></trkpt><trkpt lat="43.32565823914139" lon="10.546693022923963"><ele>9.0</ele><time>2026-05-01T10:38:09Z</time></trkpt><trkpt lat="43.325607390218046" lon="10.546520120559087"><ele>9.0</ele><time>2026-05-01T10:38:10Z</time></trkpt><trkpt lat="43.32555065547128" lon="10.546351224124312"><ele>9.0</ele><time>2026-05-01T10:38:11Z</time></trkpt><trkpt lat="43.325494260860005" lon="10.546168008323589"><ele>9.0</ele><time>2026-05-01T10:38:12Z</time></trkpt><trkpt lat="43.32543478155585" lon="10.545985040218088"><ele>10.0</ele><time>2026-05-01T10:38:13Z</time></trkpt><trkpt lat="43.325372985616205" lon="10.545796115344041"><ele>11.0</ele><time>2026-05-01T10:38:14Z</time></trkpt><trkpt lat="43.32531084760663" lon="10.54560454411716"><ele>12.0</ele><time>2026-05-01T10:38:15Z</time></trkpt><trkpt lat="43.325245380682574" lon="10.545412640678757"><ele>11.666666666666666</ele><time>2026-05-01T10:38:16Z</time></trkpt><trkpt lat="43.32518147504879" lon="10.54521560273512"><ele>11.333333333333332</ele><time>2026-05-01T10:38:17Z</time></trkpt><trkpt lat="43.32512029248723" lon="10.545024737296533"><ele>11.0</ele><time>2026-05-01T10:38:18Z</time></trkpt><trkpt lat="43.32506482748459" lon="10.544837720166045"><ele>11.0</ele><time>2026-05-01T10:38:19Z</time></trkpt><trkpt lat="43.32500905348582" lon="10.544657919110728"><ele>11.0</ele><time>2026-05-01T10:38:20Z</time></trkpt><trkpt lat="43.32494983018763" lon="10.544477994830643"><ele>11.0</ele><time>2026-05-01T10:38:21Z</time></trkpt><trkpt lat="43.324893834307844" lon="10.544300581827784"><ele>11.0</ele><time>2026-05-01T10:38:22Z</time></trkpt><trkpt lat="43.32483790107275" lon="10.544123366122573"><ele>10.5</ele><time>2026-05-01T10:38:23Z</time></trkpt><trkpt lat="43.324783369177645" lon="10.543948654280463"><ele>10.0</ele><time>2026-05-01T10:38:24Z</time></trkpt><trkpt lat="43.32472321441004" lon="10.543768922382492"><ele>9.5</ele><time>2026-05-01T10:38:25Z</time></trkpt><trkpt lat="43.32466998235411" lon="10.543596580337004"><ele>9.0</ele><time>2026-05-01T10:38:26Z</time></trkpt><trkpt lat="43.324611345166915" lon="10.543414430504585"><ele>9.0</ele><time>2026-05-01T10:38:27Z</time></trkpt><trkpt lat="43.3245525789488" lon="10.543237238800769"><ele>9.0</ele><time>2026-05-01T10:38:28Z</time></trkpt><trkpt lat="43.324495357643855" lon="10.543051786757474"><ele>9.0</ele><time>2026-05-01T10:38:29Z</time></trkpt><trkpt lat="43.32443892018375" lon="10.54287258487764"><ele>9.0</ele><time>2026-05-01T10:38:30Z</time></trkpt><trkpt lat="43.32437802503359" lon="10.542683246858811"><ele>9.0</ele><time>2026-05-01T10:38:31Z</time></trkpt><trkpt lat="43.324323527404005" lon="10.542494879832509"><ele>9.0</ele><time>2026-05-01T10:38:32Z</time></trkpt><trkpt lat="43.32426513878799" lon="10.542313212805858"><ele>9.0</ele><time>2026-05-01T10:38:33Z</time></trkpt><trkpt lat="43.32420660246871" lon="10.542132270866787"><ele>9.0</ele><time>2026-05-01T10:38:34Z</time></trkpt><trkpt lat="43.32414702071752" lon="10.54195726190463"><ele>8.75</ele><time>2026-05-01T10:38:35Z</time></trkpt><trkpt lat="43.32408634423698" lon="10.541777080765767"><ele>8.5</ele><time>2026-05-01T10:38:36Z</time></trkpt><trkpt lat="43.32402938501746" lon="10.541602676722338"><ele>8.25</ele><time>2026-05-01T10:38:37Z</time></trkpt><trkpt lat="43.32397384500786" lon="10.541425083876524"><ele>8.0</ele><time>2026-05-01T10:38:38Z</time></trkpt><trkpt lat="43.323918719422906" lon="10.541253033037545"><ele>8.25</ele><time>2026-05-01T10:38:39Z</time></trkpt><trkpt lat="43.32386519838389" lon="10.541082817540811"><ele>8.5</ele><time>2026-05-01T10:38:40Z</time></trkpt><trkpt lat="43.323812766479065" lon="10.540917461723945"><ele>8.75</ele><time>2026-05-01T10:38:41Z</time></trkpt><trkpt lat="43.32376279309701" lon="10.540761257134138"><ele>9.0</ele><time>2026-05-01T10:38:42Z</time></trkpt><trkpt lat="43.32371283758428" lon="10.540609534083975"><ele>9.0</ele><time>2026-05-01T10:38:43Z</time></trkpt><trkpt lat="43.323663879981254" lon="10.540452727734918"><ele>9.0</ele><time>2026-05-01T10:38:44Z</time></trkpt><trkpt lat="43.32361229269654" lon="10.5402911646216"><ele>9.0</ele><time>2026-05-01T10:38:45Z</time></trkpt><trkpt lat="43.32355944936093" lon="10.54012200438485"><ele>9.0</ele><time>2026-05-01T10:38:46Z</time></trkpt><trkpt lat="43.323501994672874" lon="10.53994529338289"><ele>8.75</ele><time>2026-05-01T10:38:47Z</time></trkpt><trkpt lat="43.32344371560004" lon="10.539765997580442"><ele>8.5</ele><time>2026-05-01T10:38:48Z</time></trkpt><trkpt lat="43.323387401255566" lon="10.539584206506275"><ele>8.25</ele><time>2026-05-01T10:38:49Z</time></trkpt><trkpt lat="43.32333279210696" lon="10.53941057110986"><ele>8.0</ele><time>2026-05-01T10:38:50Z</time></trkpt><trkpt lat="43.32327534197558" lon="10.539227276651"><ele>8.0</ele><time>2026-05-01T10:38:51Z</time></trkpt><trkpt lat="43.32321860813303" lon="10.539058740238879"><ele>8.0</ele><time>2026-05-01T10:38:52Z</time></trkpt><trkpt lat="43.32316124766522" lon="10.538878534398814"><ele>8.0</ele><time>2026-05-01T10:38:53Z</time></trkpt><trkpt lat="43.32310656434761" lon="10.538709526404565"><ele>8.0</ele><time>2026-05-01T10:38:54Z</time></trkpt><trkpt lat="43.32305182338339" lon="10.538540347404952"><ele>8.25</ele><time>2026-05-01T10:38:55Z</time></trkpt><trkpt lat="43.32299138055519" lon="10.538357969960567"><ele>8.5</ele><time>2026-05-01T10:38:56Z</time></trkpt><trkpt lat="43.322933068074796" lon="10.538175984355192"><ele>8.75</ele><time>2026-05-01T10:38:57Z</time></trkpt><trkpt lat="43.3228716547648" lon="10.537983579797137"><ele>9.0</ele><time>2026-05-01T10:38:57.999Z</time></trkpt><trkpt lat="43.322809637709774" lon="10.537792763521846"><ele>9.0</ele><time>2026-05-01T10:38:58.999Z</time></trkpt><trkpt lat="43.32275241717172" lon="10.537609542616318"><ele>9.0</ele><time>2026-05-01T10:38:59.999Z</time></trkpt><trkpt lat="43.32269761504327" lon="10.537439796895626"><ele>9.0</ele><time>2026-05-01T10:39:00.999Z</time></trkpt><trkpt lat="43.32264786258894" lon="10.537281477325596"><ele>9.0</ele><time>2026-05-01T10:39:01.999Z</time></trkpt><trkpt lat="43.322602576407114" lon="10.537135751203115"><ele>9.0</ele><time>2026-05-01T10:39:02.999Z</time></trkpt><trkpt lat="43.32255490588376" lon="10.536982981615864"><ele>9.0</ele><time>2026-05-01T10:39:03.999Z</time></trkpt><trkpt lat="43.32250659561833" lon="10.536826881837607"><ele>9.0</ele><time>2026-05-01T10:39:04.999Z</time></trkpt><trkpt lat="43.32245324502988" lon="10.53666744054982"><ele>9.0</ele><time>2026-05-01T10:39:05.999Z</time></trkpt><trkpt lat="43.322393460837354" lon="10.536512230847647"><ele>9.0</ele><time>2026-05-01T10:39:06.999Z</time></trkpt><trkpt lat="43.322319471813486" lon="10.536360465417646"><ele>9.0</ele><time>2026-05-01T10:39:07.999Z</time></trkpt><trkpt lat="43.32223099576918" lon="10.536217817092805"><ele>9.0</ele><time>2026-05-01T10:39:08.999Z</time></trkpt><trkpt lat="43.32212113811384" lon="10.536089651079404"><ele>9.0</ele><time>2026-05-01T10:39:09.999Z</time></trkpt><trkpt lat="43.32199672844136" lon="10.535966301968589"><ele>9.333333333333334</ele><time>2026-05-01T10:39:10.999Z</time></trkpt><trkpt lat="43.321864814507606" lon="10.535847572105427"><ele>9.666666666666668</ele><time>2026-05-01T10:39:11.999Z</time></trkpt><trkpt lat="43.32173197888101" lon="10.535729802969117"><ele>10.0</ele><time>2026-05-01T10:39:12.999Z</time></trkpt><trkpt lat="43.321610965658905" lon="10.535590051736087"><ele>10.0</ele><time>2026-05-01T10:39:13.999Z</time></trkpt><trkpt lat="43.32149337183927" lon="10.535480118351465"><ele>10.0</ele><time>2026-05-01T10:39:14.999Z</time></trkpt><trkpt lat="43.32137220888586" lon="10.535391392041682"><ele>10.0</ele><time>2026-05-01T10:39:15.999Z</time></trkpt><trkpt lat="43.32126007089419" lon="10.535281773802463"><ele>10.0</ele><time>2026-05-01T10:39:16.999Z</time></trkpt><trkpt lat="43.32114791053858" lon="10.535176380998331"><ele>10.0</ele><time>2026-05-01T10:39:17.999Z</time></trkpt><trkpt lat="43.321031497877236" lon="10.535070649826082"><ele>10.0</ele><time>2026-05-01T10:39:18.999Z</time></trkpt><trkpt lat="43.32092078657074" lon="10.534963141826706"><ele>10.0</ele><time>2026-05-01T10:39:19.999Z</time></trkpt><trkpt lat="43.320809393293864" lon="10.5348661636054"><ele>10.0</ele><time>2026-05-01T10:39:20.999Z</time></trkpt><trkpt lat="43.32069744575627" lon="10.534777387768802"><ele>10.0</ele><time>2026-05-01T10:39:21.999Z</time></trkpt><trkpt lat="43.32057935359073" lon="10.53470588151729"><ele>10.0</ele><time>2026-05-01T10:39:22.999Z</time></trkpt><trkpt lat="43.32045127048958" lon="10.534649924208209"><ele>10.0</ele><time>2026-05-01T10:39:23.999Z</time></trkpt><trkpt lat="43.3203270197552" lon="10.534622456129465"><ele>10.0</ele><time>2026-05-01T10:39:24.999Z</time></trkpt><trkpt lat="43.320201947026405" lon="10.534647595464355"><ele>10.0</ele><time>2026-05-01T10:39:25.999Z</time></trkpt><trkpt lat="43.32008062455518" lon="10.534692932816974"><ele>10.0</ele><time>2026-05-01T10:39:26.999Z</time></trkpt><trkpt lat="43.319963026693614" lon="10.534749973274055"><ele>10.0</ele><time>2026-05-01T10:39:27.999Z</time></trkpt><trkpt lat="43.31984514828356" lon="10.534818301758133"><ele>10.0</ele><time>2026-05-01T10:39:28.999Z</time></trkpt><trkpt lat="43.31973104085315" lon="10.534887521099423"><ele>10.0</ele><time>2026-05-01T10:39:29.999Z</time></trkpt><trkpt lat="43.31961630918557" lon="10.534959242084303"><ele>10.0</ele><time>2026-05-01T10:39:30.999Z</time></trkpt><trkpt lat="43.31950387413796" lon="10.535027088425467"><ele>10.0</ele><time>2026-05-01T10:39:31.999Z</time></trkpt><trkpt lat="43.31939383695596" lon="10.535089408025756"><ele>10.0</ele><time>2026-05-01T10:39:32.999Z</time></trkpt><trkpt lat="43.31928321193849" lon="10.535143968304698"><ele>10.0</ele><time>2026-05-01T10:39:33.999Z</time></trkpt><trkpt lat="43.319177352609614" lon="10.535191657744168"><ele>10.0</ele><time>2026-05-01T10:39:34.999Z</time></trkpt><trkpt lat="43.31907458694195" lon="10.535244502774"><ele>10.0</ele><time>2026-05-01T10:39:35.999Z</time></trkpt><trkpt lat="43.318978366022705" lon="10.53530049594844"><ele>10.0</ele><time>2026-05-01T10:39:36.999Z</time></trkpt><trkpt lat="43.31888191035717" lon="10.535350802374616"><ele>10.0</ele><time>2026-05-01T10:39:37.999Z</time></trkpt><trkpt lat="43.318783168763275" lon="10.535393302849316"><ele>10.0</ele><time>2026-05-01T10:39:38.999Z</time></trkpt><trkpt lat="43.318687572607594" lon="10.535426668054528"><ele>10.0</ele><time>2026-05-01T10:39:39.999Z</time></trkpt><trkpt lat="43.31858699198875" lon="10.535450714122392"><ele>10.0</ele><time>2026-05-01T10:39:40.999Z</time></trkpt><trkpt lat="43.31848154030583" lon="10.5354518008585"><ele>10.0</ele><time>2026-05-01T10:39:41.999Z</time></trkpt><trkpt lat="43.3183681214462" lon="10.53543042833211"><ele>10.0</ele><time>2026-05-01T10:39:42.999Z</time></trkpt><trkpt lat="43.31825158184914" lon="10.535394319472688"><ele>10.0</ele><time>2026-05-01T10:39:43.999Z</time></trkpt><trkpt lat="43.318144523262895" lon="10.535336491795729"><ele>10.0</ele><time>2026-05-01T10:39:44.999Z</time></trkpt><trkpt lat="43.31804121646614" lon="10.535253014532325"><ele>10.0</ele><time>2026-05-01T10:39:45.999Z</time></trkpt><trkpt lat="43.31794550195197" lon="10.53515268957823"><ele>10.0</ele><time>2026-05-01T10:39:46.999Z</time></trkpt><trkpt lat="43.31786423037749" lon="10.535033548465242"><ele>11.0</ele><time>2026-05-01T10:39:47.999Z</time></trkpt><trkpt lat="43.317793780638645" lon="10.534905309502474"><ele>12.0</ele><time>2026-05-01T10:39:48.999Z</time></trkpt><trkpt lat="43.31773663612737" lon="10.534770919407949"><ele>13.0</ele><time>2026-05-01T10:39:49.999Z</time></trkpt><trkpt lat="43.31769222340659" lon="10.534630481576892"><ele>14.0</ele><time>2026-05-01T10:39:50.999Z</time></trkpt><trkpt lat="43.31765491692551" lon="10.534490992626512"><ele>14.166666666666668</ele><time>2026-05-01T10:39:51.999Z</time></trkpt><trkpt lat="43.31762213652193" lon="10.534359627559475"><ele>14.333333333333334</ele><time>2026-05-01T10:39:52.999Z</time></trkpt><trkpt lat="43.317592313701" lon="10.534234863190402"><ele>14.5</ele><time>2026-05-01T10:39:53.999Z</time></trkpt><trkpt lat="43.31757973581261" lon="10.534136939901456"><ele>14.666666666666668</ele><time>2026-05-01T10:39:54.999Z</time></trkpt><trkpt lat="43.317545342982655" lon="10.534039693998281"><ele>14.833333333333334</ele><time>2026-05-01T10:39:55.999Z</time></trkpt><trkpt lat="43.31752347501932" lon="10.53395237969269"><ele>15.0</ele><time>2026-05-01T10:39:56.999Z</time></trkpt><trkpt lat="43.31750792889623" lon="10.53377967575296"><ele>15.0</ele><time>2026-05-01T10:39:58.999Z</time></trkpt><trkpt lat="43.31752274071492" lon="10.533687009186641"><ele>15.0</ele><time>2026-05-01T10:40:00Z</time></trkpt><trkpt lat="43.317537211583314" lon="10.533588686458641"><ele>15.0</ele><time>2026-05-01T10:40:01Z</time></trkpt><trkpt lat="43.31752634124805" lon="10.533488692277906"><ele>15.0</ele><time>2026-05-01T10:40:02Z</time></trkpt><trkpt lat="43.31747295991746" lon="10.53339707913266"><ele>15.0</ele><time>2026-05-01T10:40:03Z</time></trkpt><trkpt lat="43.31739437086102" lon="10.533335764394577"><ele>15.0</ele><time>2026-05-01T10:40:04Z</time></trkpt><trkpt lat="43.31730684594731" lon="10.533282905686413"><ele>15.0</ele><time>2026-05-01T10:40:05Z</time></trkpt><trkpt lat="43.31722053217348" lon="10.53320754359439"><ele>15.0</ele><time>2026-05-01T10:40:06Z</time></trkpt><trkpt lat="43.3171359327502" lon="10.533113354741108"><ele>15.0</ele><time>2026-05-01T10:40:07Z</time></trkpt><trkpt lat="43.31704902120063" lon="10.533019674707779"><ele>15.0</ele><time>2026-05-01T10:40:08Z</time></trkpt><trkpt lat="43.31695395290846" lon="10.532941216660157"><ele>15.0</ele><time>2026-05-01T10:40:09Z</time></trkpt><trkpt lat="43.31684943324387" lon="10.532885157654"><ele>15.5</ele><time>2026-05-01T10:40:10Z</time></trkpt><trkpt lat="43.31673989045817" lon="10.53285096427691"><ele>16.0</ele><time>2026-05-01T10:40:11Z</time></trkpt><trkpt lat="43.316631619119164" lon="10.532827959501855"><ele>16.5</ele><time>2026-05-01T10:40:12Z</time></trkpt><trkpt lat="43.31651842418787" lon="10.532823645369968"><ele>17.0</ele><time>2026-05-01T10:40:13Z</time></trkpt><trkpt lat="43.316397087310584" lon="10.532847171845486"><ele>17.0</ele><time>2026-05-01T10:40:14Z</time></trkpt><trkpt lat="43.31627855346374" lon="10.532876478313606"><ele>17.0</ele><time>2026-05-01T10:40:15Z</time></trkpt><trkpt lat="43.31615235730307" lon="10.53292645901713"><ele>17.0</ele><time>2026-05-01T10:40:16Z</time></trkpt><trkpt lat="43.316029897702926" lon="10.532999020066951"><ele>17.0</ele><time>2026-05-01T10:40:17Z</time></trkpt><trkpt lat="43.31590491587916" lon="10.533065501106192"><ele>17.5</ele><time>2026-05-01T10:40:18Z</time></trkpt><trkpt lat="43.3157812598078" lon="10.533126825422856"><ele>18.0</ele><time>2026-05-01T10:40:19Z</time></trkpt><trkpt lat="43.31566433859187" lon="10.533196717229334"><ele>18.5</ele><time>2026-05-01T10:40:20Z</time></trkpt><trkpt lat="43.315549702391195" lon="10.53326477521138"><ele>19.0</ele><time>2026-05-01T10:40:21Z</time></trkpt><trkpt lat="43.315438493686266" lon="10.533324315840991"><ele>19.6</ele><time>2026-05-01T10:40:22Z</time></trkpt><trkpt lat="43.31532893510763" lon="10.533384628980112"><ele>20.2</ele><time>2026-05-01T10:40:23Z</time></trkpt><trkpt lat="43.315225981643884" lon="10.533442834164019"><ele>20.8</ele><time>2026-05-01T10:40:24Z</time></trkpt><trkpt lat="43.31512494511497" lon="10.53350034819631"><ele>21.400000000000002</ele><time>2026-05-01T10:40:25Z</time></trkpt><trkpt lat="43.31502316945919" lon="10.533555458688257"><ele>22.0</ele><time>2026-05-01T10:40:26Z</time></trkpt><trkpt lat="43.31491249075339" lon="10.533575111965897"><ele>22.0</ele><time>2026-05-01T10:40:27Z</time></trkpt><trkpt lat="43.31479766075829" lon="10.533545823621978"><ele>22.0</ele><time>2026-05-01T10:40:28Z</time></trkpt><trkpt lat="43.31469324000091" lon="10.53347579771288"><ele>22.0</ele><time>2026-05-01T10:40:29Z</time></trkpt><trkpt lat="43.31459501656715" lon="10.533378822303048"><ele>22.0</ele><time>2026-05-01T10:40:30Z</time></trkpt><trkpt lat="43.31449735654486" lon="10.533268490715104"><ele>23.0</ele><time>2026-05-01T10:40:31Z</time></trkpt><trkpt lat="43.314391309114484" lon="10.533166267186136"><ele>24.0</ele><time>2026-05-01T10:40:32Z</time></trkpt><trkpt lat="43.31428603016872" lon="10.53306984421633"><ele>25.0</ele><time>2026-05-01T10:40:33Z</time></trkpt><trkpt lat="43.31417607419742" lon="10.532983870745099"><ele>26.0</ele><time>2026-05-01T10:40:34Z</time></trkpt><trkpt lat="43.314073413546616" lon="10.532901334856055"><ele>25.5</ele><time>2026-05-01T10:40:35Z</time></trkpt><trkpt lat="43.31399758554036" lon="10.532783938858124"><ele>25.0</ele><time>2026-05-01T10:40:36Z</time></trkpt><trkpt lat="43.31391400386133" lon="10.532730811390683"><ele>24.5</ele><time>2026-05-01T10:40:37Z</time></trkpt><trkpt lat="43.3139681807277" lon="10.532455655122167"><ele>24.0</ele><time>2026-05-01T10:40:38Z</time></trkpt><trkpt lat="43.31396689944813" lon="10.532291890043247"><ele>24.0</ele><time>2026-05-01T10:40:39Z</time></trkpt><trkpt lat="43.313967268706186" lon="10.532127103264388"><ele>24.0</ele><time>2026-05-01T10:40:40Z</time></trkpt><trkpt lat="43.313961997035825" lon="10.531964613437554"><ele>24.0</ele><time>2026-05-01T10:40:41Z</time></trkpt><trkpt lat="43.313956127698155" lon="10.531800250671376"><ele>24.0</ele><time>2026-05-01T10:40:42Z</time></trkpt><trkpt lat="43.313952377551296" lon="10.531635975666656"><ele>24.25</ele><time>2026-05-01T10:40:43Z</time></trkpt><trkpt lat="43.313944988053294" lon="10.531472018130515"><ele>24.5</ele><time>2026-05-01T10:40:44Z</time></trkpt><trkpt lat="43.313935864400634" lon="10.531307879159959"><ele>24.75</ele><time>2026-05-01T10:40:45Z</time></trkpt><trkpt lat="43.31392701791272" lon="10.531144274412924"><ele>25.0</ele><time>2026-05-01T10:40:46Z</time></trkpt><trkpt lat="43.31391798544849" lon="10.530977323160537"><ele>25.0</ele><time>2026-05-01T10:40:47Z</time></trkpt><trkpt lat="43.313904825902775" lon="10.53081096941602"><ele>25.0</ele><time>2026-05-01T10:40:48Z</time></trkpt><trkpt lat="43.31389115701797" lon="10.530642456198024"><ele>25.0</ele><time>2026-05-01T10:40:49Z</time></trkpt><trkpt lat="43.3138769841838" lon="10.530475829875389"><ele>25.0</ele><time>2026-05-01T10:40:50Z</time></trkpt><trkpt lat="43.31386095513417" lon="10.530307964742883"><ele>25.0</ele><time>2026-05-01T10:40:51Z</time></trkpt><trkpt lat="43.31384566345818" lon="10.53013863356926"><ele>25.0</ele><time>2026-05-01T10:40:52Z</time></trkpt><trkpt lat="43.31382834918678" lon="10.529972141596131"><ele>25.0</ele><time>2026-05-01T10:40:53Z</time></trkpt><trkpt lat="43.31381279600196" lon="10.529799029198456"><ele>25.0</ele><time>2026-05-01T10:40:54Z</time></trkpt><trkpt lat="43.31379263282926" lon="10.529623817038198"><ele>23.333333333333336</ele><time>2026-05-01T10:40:55Z</time></trkpt><trkpt lat="43.313757390810515" lon="10.529265834474725"><ele>21.666666666666668</ele><time>2026-05-01T10:40:57Z</time></trkpt><trkpt lat="43.31374057738637" lon="10.529089548139345"><ele>20.0</ele><time>2026-05-01T10:40:58Z</time></trkpt><trkpt lat="43.31372255679283" lon="10.528911859683443"><ele>19.75</ele><time>2026-05-01T10:40:59Z</time></trkpt><trkpt lat="43.313700416323655" lon="10.528722046159867"><ele>19.5</ele><time>2026-05-01T10:41:00Z</time></trkpt><trkpt lat="43.31367891974995" lon="10.528528352796153"><ele>19.25</ele><time>2026-05-01T10:41:01Z</time></trkpt><trkpt lat="43.31365891584451" lon="10.528330975947446"><ele>19.0</ele><time>2026-05-01T10:41:02Z</time></trkpt><trkpt lat="43.31363836203408" lon="10.528132903192958"><ele>19.0</ele><time>2026-05-01T10:41:03Z</time></trkpt><trkpt lat="43.31361613153796" lon="10.527925939074692"><ele>19.0</ele><time>2026-05-01T10:41:04Z</time></trkpt><trkpt lat="43.313592619419694" lon="10.527717214441056"><ele>19.0</ele><time>2026-05-01T10:41:05Z</time></trkpt><trkpt lat="43.31357388472987" lon="10.527513645262554"><ele>18.75</ele><time>2026-05-01T10:41:06Z</time></trkpt><trkpt lat="43.31355367566111" lon="10.5273102422967"><ele>18.5</ele><time>2026-05-01T10:41:07Z</time></trkpt><trkpt lat="43.313532241698745" lon="10.527111313920345"><ele>18.25</ele><time>2026-05-01T10:41:08Z</time></trkpt><trkpt lat="43.31351069863403" lon="10.526914282821064"><ele>18.0</ele><time>2026-05-01T10:41:08.999Z</time></trkpt><trkpt lat="43.31349070904576" lon="10.52673285418315"><ele>17.8</ele><time>2026-05-01T10:41:09.999Z</time></trkpt><trkpt lat="43.31347149500777" lon="10.526561940975347"><ele>17.6</ele><time>2026-05-01T10:41:10.999Z</time></trkpt><trkpt lat="43.313453657971266" lon="10.526406637612824"><ele>17.4</ele><time>2026-05-01T10:41:11.999Z</time></trkpt><trkpt lat="43.31343879595444" lon="10.52626006975704"><ele>17.2</ele><time>2026-05-01T10:41:12.999Z</time></trkpt><trkpt lat="43.313434395688475" lon="10.52612327306251"><ele>17.0</ele><time>2026-05-01T10:41:13.999Z</time></trkpt><trkpt lat="43.3134467766587" lon="10.525995298658298"><ele>17.4</ele><time>2026-05-01T10:41:14.999Z</time></trkpt><trkpt lat="43.313478163537205" lon="10.525877605441329"><ele>17.799999999999997</ele><time>2026-05-01T10:41:15.999Z</time></trkpt><trkpt lat="43.313499581429866" lon="10.525770099710268"><ele>18.2</ele><time>2026-05-01T10:41:16.999Z</time></trkpt><trkpt lat="43.31347982961424" lon="10.525662357241004"><ele>18.599999999999998</ele><time>2026-05-01T10:41:17.999Z</time></trkpt><trkpt lat="43.31341530965496" lon="10.525547057307621"><ele>19.0</ele><time>2026-05-01T10:41:18.999Z</time></trkpt><trkpt lat="43.313359624101146" lon="10.525420817937231"><ele>19.5</ele><time>2026-05-01T10:41:19.999Z</time></trkpt><trkpt lat="43.31333292413986" lon="10.525260260324648"><ele>20.0</ele><time>2026-05-01T10:41:20.999Z</time></trkpt><trkpt lat="43.31332024658984" lon="10.525085307318584"><ele>20.5</ele><time>2026-05-01T10:41:21.999Z</time></trkpt><trkpt lat="43.31330781698172" lon="10.524915722091285"><ele>21.0</ele><time>2026-05-01T10:41:22.999Z</time></trkpt><trkpt lat="43.31328530796241" lon="10.524747711288507"><ele>21.0</ele><time>2026-05-01T10:41:23.999Z</time></trkpt><trkpt lat="43.313264796163956" lon="10.52458271102933"><ele>21.0</ele><time>2026-05-01T10:41:24.999Z</time></trkpt><trkpt lat="43.313248828265" lon="10.524418202473647"><ele>21.0</ele><time>2026-05-01T10:41:25.999Z</time></trkpt><trkpt lat="43.313234395096494" lon="10.524255441803733"><ele>21.0</ele><time>2026-05-01T10:41:26.999Z</time></trkpt><trkpt lat="43.31321555233247" lon="10.524092535885515"><ele>21.0</ele><time>2026-05-01T10:41:27.999Z</time></trkpt><trkpt lat="43.31319174289599" lon="10.523933241319675"><ele>21.0</ele><time>2026-05-01T10:41:28.999Z</time></trkpt><trkpt lat="43.31316530676126" lon="10.523773163413603"><ele>21.0</ele><time>2026-05-01T10:41:29.999Z</time></trkpt><trkpt lat="43.313145739650324" lon="10.523613833740256"><ele>21.0</ele><time>2026-05-01T10:41:30.999Z</time></trkpt><trkpt lat="43.31312359639033" lon="10.523445843317372"><ele>20.6</ele><time>2026-05-01T10:41:31.999Z</time></trkpt><trkpt lat="43.31310641137458" lon="10.523291295947633"><ele>20.200000000000003</ele><time>2026-05-01T10:41:32.999Z</time></trkpt><trkpt lat="43.31309691149271" lon="10.523150848784308"><ele>19.799999999999997</ele><time>2026-05-01T10:41:33.999Z</time></trkpt><trkpt lat="43.31310423276501" lon="10.523022813445982"><ele>19.4</ele><time>2026-05-01T10:41:34.999Z</time></trkpt><trkpt lat="43.313129581921075" lon="10.522881364607871"><ele>19.0</ele><time>2026-05-01T10:41:35.999Z</time></trkpt><trkpt lat="43.31317883602676" lon="10.522740152317843"><ele>18.8</ele><time>2026-05-01T10:41:36.999Z</time></trkpt><trkpt lat="43.313237631481975" lon="10.52260126975066"><ele>18.599999999999998</ele><time>2026-05-01T10:41:37.999Z</time></trkpt><trkpt lat="43.31328522131183" lon="10.522478978182091"><ele>18.4</ele><time>2026-05-01T10:41:38.999Z</time></trkpt><trkpt lat="43.31333368056865" lon="10.52237432701572"><ele>18.2</ele><time>2026-05-01T10:41:39.999Z</time></trkpt><trkpt lat="43.31340085390669" lon="10.522307847171296"><ele>18.0</ele><time>2026-05-01T10:41:40.999Z</time></trkpt><trkpt lat="43.31347093178955" lon="10.522261204575896"><ele>18.0</ele><time>2026-05-01T10:41:41.999Z</time></trkpt><trkpt lat="43.313505833035094" lon="10.52218358861744"><ele>18.0</ele><time>2026-05-01T10:41:42.999Z</time></trkpt><trkpt lat="43.31351325818471" lon="10.522069077508274"><ele>18.0</ele><time>2026-05-01T10:41:43.999Z</time></trkpt><trkpt lat="43.31351996864088" lon="10.521947520063794"><ele>18.0</ele><time>2026-05-01T10:41:44.999Z</time></trkpt><trkpt lat="43.313615147789065" lon="10.521682658830743"><ele>18.25</ele><time>2026-05-01T10:41:46.999Z</time></trkpt><trkpt lat="43.31366952408608" lon="10.521536189786083"><ele>18.5</ele><time>2026-05-01T10:41:47.999Z</time></trkpt><trkpt lat="43.31372662942989" lon="10.521384511516903"><ele>18.75</ele><time>2026-05-01T10:41:48.999Z</time></trkpt><trkpt lat="43.31378821012661" lon="10.52124055901749"><ele>19.0</ele><time>2026-05-01T10:41:49.999Z</time></trkpt><trkpt lat="43.31386844597494" lon="10.521120927474637"><ele>18.5</ele><time>2026-05-01T10:41:50.999Z</time></trkpt><trkpt lat="43.31407223312664" lon="10.52100608766448"><ele>18.0</ele><time>2026-05-01T10:41:52.999Z</time></trkpt><trkpt lat="43.31417685112214" lon="10.520960265891633"><ele>17.5</ele><time>2026-05-01T10:41:53.999Z</time></trkpt><trkpt lat="43.31428486961909" lon="10.52091040020679"><ele>17.0</ele><time>2026-05-01T10:41:54.999Z</time></trkpt><trkpt lat="43.3143936680693" lon="10.52086399751361"><ele>17.0</ele><time>2026-05-01T10:41:55.999Z</time></trkpt><trkpt lat="43.31450645731306" lon="10.520826770391162"><ele>17.0</ele><time>2026-05-01T10:41:56.999Z</time></trkpt><trkpt lat="43.314621801522904" lon="10.520800702612185"><ele>17.0</ele><time>2026-05-01T10:41:57.999Z</time></trkpt><trkpt lat="43.31473735276461" lon="10.520796392779994"><ele>17.0</ele><time>2026-05-01T10:41:58.999Z</time></trkpt><trkpt lat="43.31484168770994" lon="10.520803511725987"><ele>16.71428571428571</ele><time>2026-05-01T10:41:59.999Z</time></trkpt><trkpt lat="43.314934759366885" lon="10.520806838435343"><ele>16.428571428571427</ele><time>2026-05-01T10:42:00.999Z</time></trkpt><trkpt lat="43.31501214596173" lon="10.520813978769898"><ele>16.142857142857142</ele><time>2026-05-01T10:42:01.999Z</time></trkpt><trkpt lat="43.31507921071438" lon="10.520834873549047"><ele>15.857142857142856</ele><time>2026-05-01T10:42:02.999Z</time></trkpt><trkpt lat="43.315139269282795" lon="10.520871291109616"><ele>15.57142857142857</ele><time>2026-05-01T10:42:03.999Z</time></trkpt><trkpt lat="43.31519916583344" lon="10.520909411066427"><ele>15.285714285714286</ele><time>2026-05-01T10:42:04.999Z</time></trkpt><trkpt lat="43.315265353701896" lon="10.520934288271588"><ele>15.0</ele><time>2026-05-01T10:42:06Z</time></trkpt><trkpt lat="43.31535433308869" lon="10.520849079209443"><ele>15.0</ele><time>2026-05-01T10:42:08Z</time></trkpt><trkpt lat="43.315334469084306" lon="10.520700715404796"><ele>15.0</ele><time>2026-05-01T10:42:10Z</time></trkpt><trkpt lat="43.31529797063287" lon="10.520626929803639"><ele>15.0</ele><time>2026-05-01T10:42:11Z</time></trkpt><trkpt lat="43.315259893351005" lon="10.520535141580076"><ele>15.0</ele><time>2026-05-01T10:42:12Z</time></trkpt><trkpt lat="43.31523090285651" lon="10.520446117322443"><ele>15.0</ele><time>2026-05-01T10:42:13Z</time></trkpt><trkpt lat="43.31519258362468" lon="10.520335331095815"><ele>15.0</ele><time>2026-05-01T10:42:14Z</time></trkpt><trkpt lat="43.315169937722075" lon="10.520205237436773"><ele>15.8</ele><time>2026-05-01T10:42:15Z</time></trkpt><trkpt lat="43.31512907568733" lon="10.520072069066641"><ele>16.6</ele><time>2026-05-01T10:42:16Z</time></trkpt><trkpt lat="43.315083748358084" lon="10.519931364733013"><ele>17.4</ele><time>2026-05-01T10:42:17Z</time></trkpt><trkpt lat="43.315040513181" lon="10.519797154637876"><ele>18.2</ele><time>2026-05-01T10:42:18Z</time></trkpt><trkpt lat="43.314994520946364" lon="10.519654917144262"><ele>19.0</ele><time>2026-05-01T10:42:19Z</time></trkpt><trkpt lat="43.31495008116233" lon="10.519517698275479"><ele>19.0</ele><time>2026-05-01T10:42:20Z</time></trkpt><trkpt lat="43.31489370765358" lon="10.519395661482752"><ele>19.0</ele><time>2026-05-01T10:42:21Z</time></trkpt><trkpt lat="43.31481070173655" lon="10.519121456123376"><ele>19.0</ele><time>2026-05-01T10:42:23Z</time></trkpt><trkpt lat="43.314767998961365" lon="10.518984573602365"><ele>19.0</ele><time>2026-05-01T10:42:24Z</time></trkpt><trkpt lat="43.31472444019479" lon="10.518845890767732"><ele>18.2</ele><time>2026-05-01T10:42:25Z</time></trkpt><trkpt lat="43.31468517033249" lon="10.518709525007397"><ele>17.4</ele><time>2026-05-01T10:42:26Z</time></trkpt><trkpt lat="43.31464769285665" lon="10.51858656534847"><ele>16.6</ele><time>2026-05-01T10:42:27Z</time></trkpt><trkpt lat="43.31461262010301" lon="10.518480992017269"><ele>15.8</ele><time>2026-05-01T10:42:28Z</time></trkpt><trkpt lat="43.31458237094643" lon="10.518373617460337"><ele>15.0</ele><time>2026-05-01T10:42:29Z</time></trkpt><trkpt lat="43.31455516709679" lon="10.518272487725339"><ele>15.0</ele><time>2026-05-01T10:42:30Z</time></trkpt><trkpt lat="43.31452568001181" lon="10.518182841506146"><ele>15.0</ele><time>2026-05-01T10:42:31Z</time></trkpt><trkpt lat="43.3144972684544" lon="10.518096666799282"><ele>15.0</ele><time>2026-05-01T10:42:32Z</time></trkpt><trkpt lat="43.314470783167216" lon="10.518016300360895"><ele>15.0</ele><time>2026-05-01T10:42:33Z</time></trkpt><trkpt lat="43.314443793909845" lon="10.517934692325136"><ele>15.0</ele><time>2026-05-01T10:42:34Z</time></trkpt><trkpt lat="43.31441371441891" lon="10.517839646543132"><ele>15.0</ele><time>2026-05-01T10:42:35Z</time></trkpt><trkpt lat="43.314380441560296" lon="10.517736948137104"><ele>15.0</ele><time>2026-05-01T10:42:36Z</time></trkpt><trkpt lat="43.31434520020706" lon="10.517620072459017"><ele>15.0</ele><time>2026-05-01T10:42:37Z</time></trkpt><trkpt lat="43.31431151236703" lon="10.517506949506156"><ele>15.0</ele><time>2026-05-01T10:42:38Z</time></trkpt><trkpt lat="43.31427489873313" lon="10.517382685299252"><ele>15.0</ele><time>2026-05-01T10:42:39Z</time></trkpt><trkpt lat="43.31423372753158" lon="10.517261295106831"><ele>15.0</ele><time>2026-05-01T10:42:40Z</time></trkpt><trkpt lat="43.31419298970865" lon="10.517128853278884"><ele>15.0</ele><time>2026-05-01T10:42:41Z</time></trkpt><trkpt lat="43.31415003818643" lon="10.516991397303835"><ele>15.0</ele><time>2026-05-01T10:42:42Z</time></trkpt><trkpt lat="43.314109759388614" lon="10.51686307201566"><ele>15.0</ele><time>2026-05-01T10:42:43Z</time></trkpt><trkpt lat="43.314071767826675" lon="10.516733577534481"><ele>15.0</ele><time>2026-05-01T10:42:44Z</time></trkpt><trkpt lat="43.31403086019181" lon="10.516604795247645"><ele>15.0</ele><time>2026-05-01T10:42:45Z</time></trkpt><trkpt lat="43.313989807488475" lon="10.51647846433053"><ele>15.0</ele><time>2026-05-01T10:42:46Z</time></trkpt><trkpt lat="43.31394867200486" lon="10.516352027685228"><ele>14.4</ele><time>2026-05-01T10:42:47Z</time></trkpt><trkpt lat="43.31390119063681" lon="10.516233144214583"><ele>13.8</ele><time>2026-05-01T10:42:48Z</time></trkpt><trkpt lat="43.31384886732997" lon="10.51611201722733"><ele>13.2</ele><time>2026-05-01T10:42:49Z</time></trkpt><trkpt lat="43.313794571471085" lon="10.515990377855228"><ele>12.6</ele><time>2026-05-01T10:42:50Z</time></trkpt><trkpt lat="43.31375638305847" lon="10.515878100512218"><ele>12.0</ele><time>2026-05-01T10:42:51Z</time></trkpt><trkpt lat="43.313745419206825" lon="10.515768551902227"><ele>12.0</ele><time>2026-05-01T10:42:52Z</time></trkpt><trkpt lat="43.313748706626896" lon="10.515669019391883"><ele>12.0</ele><time>2026-05-01T10:42:53Z</time></trkpt><trkpt lat="43.31377413256403" lon="10.515585874078699"><ele>12.0</ele><time>2026-05-01T10:42:54Z</time></trkpt><trkpt lat="43.31381683719751" lon="10.515517350699353"><ele>12.0</ele><time>2026-05-01T10:42:55Z</time></trkpt><trkpt lat="43.3139097468464" lon="10.515428502792027"><ele>12.0</ele><time>2026-05-01T10:42:57Z</time></trkpt><trkpt lat="43.31398723480481" lon="10.515372227658196"><ele>12.0</ele><time>2026-05-01T10:42:59Z</time></trkpt><trkpt lat="43.31408063512866" lon="10.515292269701824"><ele>9.0</ele><time>2026-05-01T10:43:01Z</time></trkpt></trkseg></trk></gpx>